<?xml version="1.0" encoding="UTF-8" standalone="no" ?>
<gpx xmlns="http://www.topografix.com/GPX/1/1" xmlns:xsi="http://www.w3.org/2001/XMLSchema-instance" xsi:schemaLocation="http://www.topografix.com/GPX/1/1 http://www.topografix.com/GPX/1/1/gpx.xsd" version="1.1" creator="VisuGPX - https://www.visugpx.com">
  <metadata>
    <name>SE 1003</name>
  </metadata>
  <trk>
    <name><![CDATA[Activité matinale]]></name>
    <trkseg>
      <trkpt lat="49.28012" lon="-0.13561">
        <ele>3.6</ele>
        <time>2024-03-10T07:51:42Z</time>
      </trkpt>
      <trkpt lat="49.28012" lon="-0.13561">
        <ele>3.6</ele>
        <time>2024-03-10T07:51:43Z</time>
      </trkpt>
      <trkpt lat="49.28012" lon="-0.13563">
        <ele>3.6</ele>
        <time>2024-03-10T07:51:44Z</time>
      </trkpt>
      <trkpt lat="49.28011" lon="-0.13565">
        <ele>3.6</ele>
        <time>2024-03-10T07:51:45Z</time>
      </trkpt>
      <trkpt lat="49.28011" lon="-0.13567">
        <ele>3.6</ele>
        <time>2024-03-10T07:51:46Z</time>
      </trkpt>
      <trkpt lat="49.28012" lon="-0.13567">
        <ele>3.6</ele>
        <time>2024-03-10T07:51:47Z</time>
      </trkpt>
      <trkpt lat="49.28012" lon="-0.13567">
        <ele>3.6</ele>
        <time>2024-03-10T07:51:48Z</time>
      </trkpt>
      <trkpt lat="49.28012" lon="-0.13567">
        <ele>3.6</ele>
        <time>2024-03-10T07:51:49Z</time>
      </trkpt>
      <trkpt lat="49.28012" lon="-0.13567">
        <ele>3.6</ele>
        <time>2024-03-10T07:51:50Z</time>
      </trkpt>
      <trkpt lat="49.28011" lon="-0.13567">
        <ele>3.6</ele>
        <time>2024-03-10T07:51:51Z</time>
      </trkpt>
      <trkpt lat="49.28012" lon="-0.13566">
        <ele>3.6</ele>
        <time>2024-03-10T07:51:52Z</time>
      </trkpt>
      <trkpt lat="49.28012" lon="-0.13566">
        <ele>3.6</ele>
        <time>2024-03-10T07:51:53Z</time>
      </trkpt>
      <trkpt lat="49.28012" lon="-0.13565">
        <ele>3.6</ele>
        <time>2024-03-10T07:51:54Z</time>
      </trkpt>
      <trkpt lat="49.28013" lon="-0.13564">
        <ele>3.6</ele>
        <time>2024-03-10T07:51:55Z</time>
      </trkpt>
      <trkpt lat="49.28013" lon="-0.13564">
        <ele>3.6</ele>
        <time>2024-03-10T07:51:56Z</time>
      </trkpt>
      <trkpt lat="49.28013" lon="-0.13564">
        <ele>3.6</ele>
        <time>2024-03-10T07:51:57Z</time>
      </trkpt>
      <trkpt lat="49.28013" lon="-0.13564">
        <ele>3.6</ele>
        <time>2024-03-10T07:51:58Z</time>
      </trkpt>
      <trkpt lat="49.28013" lon="-0.13564">
        <ele>3.6</ele>
        <time>2024-03-10T07:51:59Z</time>
      </trkpt>
      <trkpt lat="49.28013" lon="-0.13564">
        <ele>3.6</ele>
        <time>2024-03-10T07:52:00Z</time>
      </trkpt>
      <trkpt lat="49.28013" lon="-0.13564">
        <ele>3.6</ele>
        <time>2024-03-10T07:52:01Z</time>
      </trkpt>
      <trkpt lat="49.28013" lon="-0.13564">
        <ele>3.6</ele>
        <time>2024-03-10T07:52:02Z</time>
      </trkpt>
      <trkpt lat="49.28013" lon="-0.13564">
        <ele>3.6</ele>
        <time>2024-03-10T07:52:03Z</time>
      </trkpt>
      <trkpt lat="49.28013" lon="-0.13564">
        <ele>3.6</ele>
        <time>2024-03-10T07:52:04Z</time>
      </trkpt>
      <trkpt lat="49.28013" lon="-0.13564">
        <ele>3.6</ele>
        <time>2024-03-10T07:52:05Z</time>
      </trkpt>
      <trkpt lat="49.28013" lon="-0.13564">
        <ele>3.6</ele>
        <time>2024-03-10T07:52:06Z</time>
      </trkpt>
      <trkpt lat="49.28013" lon="-0.13564">
        <ele>3.6</ele>
        <time>2024-03-10T07:52:07Z</time>
      </trkpt>
      <trkpt lat="49.28013" lon="-0.13564">
        <ele>3.6</ele>
        <time>2024-03-10T07:52:08Z</time>
      </trkpt>
      <trkpt lat="49.28013" lon="-0.13564">
        <ele>3.6</ele>
        <time>2024-03-10T07:52:09Z</time>
      </trkpt>
      <trkpt lat="49.28012" lon="-0.13564">
        <ele>3.6</ele>
        <time>2024-03-10T07:52:10Z</time>
      </trkpt>
      <trkpt lat="49.28012" lon="-0.13565">
        <ele>3.6</ele>
        <time>2024-03-10T07:52:11Z</time>
      </trkpt>
      <trkpt lat="49.28012" lon="-0.13566">
        <ele>3.6</ele>
        <time>2024-03-10T07:52:12Z</time>
      </trkpt>
      <trkpt lat="49.28012" lon="-0.13566">
        <ele>3.6</ele>
        <time>2024-03-10T07:52:13Z</time>
      </trkpt>
      <trkpt lat="49.28012" lon="-0.13567">
        <ele>3.6</ele>
        <time>2024-03-10T07:52:14Z</time>
      </trkpt>
      <trkpt lat="49.28013" lon="-0.13567">
        <ele>3.6</ele>
        <time>2024-03-10T07:52:15Z</time>
      </trkpt>
      <trkpt lat="49.28013" lon="-0.13566">
        <ele>3.6</ele>
        <time>2024-03-10T07:52:16Z</time>
      </trkpt>
      <trkpt lat="49.28013" lon="-0.13566">
        <ele>3.6</ele>
        <time>2024-03-10T07:52:17Z</time>
      </trkpt>
      <trkpt lat="49.28013" lon="-0.13566">
        <ele>3.6</ele>
        <time>2024-03-10T07:52:18Z</time>
      </trkpt>
      <trkpt lat="49.28013" lon="-0.13566">
        <ele>3.6</ele>
        <time>2024-03-10T07:52:19Z</time>
      </trkpt>
      <trkpt lat="49.28013" lon="-0.13566">
        <ele>3.6</ele>
        <time>2024-03-10T07:52:20Z</time>
      </trkpt>
      <trkpt lat="49.28013" lon="-0.13566">
        <ele>3.6</ele>
        <time>2024-03-10T07:52:21Z</time>
      </trkpt>
      <trkpt lat="49.28013" lon="-0.13566">
        <ele>3.6</ele>
        <time>2024-03-10T07:52:22Z</time>
      </trkpt>
      <trkpt lat="49.28013" lon="-0.13566">
        <ele>3.6</ele>
        <time>2024-03-10T07:52:23Z</time>
      </trkpt>
      <trkpt lat="49.28013" lon="-0.13566">
        <ele>3.6</ele>
        <time>2024-03-10T07:52:24Z</time>
      </trkpt>
      <trkpt lat="49.28013" lon="-0.13566">
        <ele>3.6</ele>
        <time>2024-03-10T07:52:25Z</time>
      </trkpt>
      <trkpt lat="49.28013" lon="-0.13566">
        <ele>3.6</ele>
        <time>2024-03-10T07:52:26Z</time>
      </trkpt>
      <trkpt lat="49.28013" lon="-0.13566">
        <ele>3.6</ele>
        <time>2024-03-10T07:52:27Z</time>
      </trkpt>
      <trkpt lat="49.28013" lon="-0.13566">
        <ele>3.6</ele>
        <time>2024-03-10T07:52:28Z</time>
      </trkpt>
      <trkpt lat="49.28013" lon="-0.13566">
        <ele>3.6</ele>
        <time>2024-03-10T07:52:29Z</time>
      </trkpt>
      <trkpt lat="49.28013" lon="-0.13566">
        <ele>3.6</ele>
        <time>2024-03-10T07:52:30Z</time>
      </trkpt>
      <trkpt lat="49.28013" lon="-0.13566">
        <ele>3.6</ele>
        <time>2024-03-10T07:52:31Z</time>
      </trkpt>
      <trkpt lat="49.28013" lon="-0.13566">
        <ele>3.6</ele>
        <time>2024-03-10T07:52:32Z</time>
      </trkpt>
      <trkpt lat="49.28013" lon="-0.13566">
        <ele>3.6</ele>
        <time>2024-03-10T07:52:33Z</time>
      </trkpt>
      <trkpt lat="49.28013" lon="-0.13566">
        <ele>3.6</ele>
        <time>2024-03-10T07:52:34Z</time>
      </trkpt>
      <trkpt lat="49.28012" lon="-0.13567">
        <ele>3.6</ele>
        <time>2024-03-10T07:52:35Z</time>
      </trkpt>
      <trkpt lat="49.28012" lon="-0.13567">
        <ele>3.6</ele>
        <time>2024-03-10T07:52:36Z</time>
      </trkpt>
      <trkpt lat="49.28012" lon="-0.13567">
        <ele>3.6</ele>
        <time>2024-03-10T07:52:37Z</time>
      </trkpt>
      <trkpt lat="49.28012" lon="-0.13567">
        <ele>3.6</ele>
        <time>2024-03-10T07:52:38Z</time>
      </trkpt>
      <trkpt lat="49.28012" lon="-0.13567">
        <ele>3.6</ele>
        <time>2024-03-10T07:52:39Z</time>
      </trkpt>
      <trkpt lat="49.28012" lon="-0.13567">
        <ele>3.6</ele>
        <time>2024-03-10T07:52:40Z</time>
      </trkpt>
      <trkpt lat="49.28012" lon="-0.13567">
        <ele>3.6</ele>
        <time>2024-03-10T07:52:41Z</time>
      </trkpt>
      <trkpt lat="49.28012" lon="-0.13567">
        <ele>3.6</ele>
        <time>2024-03-10T07:52:42Z</time>
      </trkpt>
      <trkpt lat="49.28012" lon="-0.13568">
        <ele>3.6</ele>
        <time>2024-03-10T07:52:43Z</time>
      </trkpt>
      <trkpt lat="49.28012" lon="-0.13568">
        <ele>3.5</ele>
        <time>2024-03-10T07:52:44Z</time>
      </trkpt>
      <trkpt lat="49.28012" lon="-0.13568">
        <ele>3.5</ele>
        <time>2024-03-10T07:52:45Z</time>
      </trkpt>
      <trkpt lat="49.28012" lon="-0.13568">
        <ele>3.5</ele>
        <time>2024-03-10T07:52:46Z</time>
      </trkpt>
      <trkpt lat="49.28011" lon="-0.13568">
        <ele>3.5</ele>
        <time>2024-03-10T07:52:47Z</time>
      </trkpt>
      <trkpt lat="49.28011" lon="-0.13567">
        <ele>3.5</ele>
        <time>2024-03-10T07:52:48Z</time>
      </trkpt>
      <trkpt lat="49.2801" lon="-0.13568">
        <ele>3.5</ele>
        <time>2024-03-10T07:52:49Z</time>
      </trkpt>
      <trkpt lat="49.28009" lon="-0.13568">
        <ele>3.5</ele>
        <time>2024-03-10T07:52:50Z</time>
      </trkpt>
      <trkpt lat="49.28009" lon="-0.13569">
        <ele>3.5</ele>
        <time>2024-03-10T07:52:51Z</time>
      </trkpt>
      <trkpt lat="49.28008" lon="-0.1357">
        <ele>3.5</ele>
        <time>2024-03-10T07:52:52Z</time>
      </trkpt>
      <trkpt lat="49.28007" lon="-0.13571">
        <ele>3.5</ele>
        <time>2024-03-10T07:52:53Z</time>
      </trkpt>
      <trkpt lat="49.28007" lon="-0.13572">
        <ele>3.5</ele>
        <time>2024-03-10T07:52:54Z</time>
      </trkpt>
      <trkpt lat="49.28006" lon="-0.13573">
        <ele>3.5</ele>
        <time>2024-03-10T07:52:55Z</time>
      </trkpt>
      <trkpt lat="49.28006" lon="-0.13574">
        <ele>3.5</ele>
        <time>2024-03-10T07:52:56Z</time>
      </trkpt>
      <trkpt lat="49.28005" lon="-0.13575">
        <ele>3.5</ele>
        <time>2024-03-10T07:52:57Z</time>
      </trkpt>
      <trkpt lat="49.28004" lon="-0.13574">
        <ele>3.5</ele>
        <time>2024-03-10T07:52:58Z</time>
      </trkpt>
      <trkpt lat="49.28004" lon="-0.13574">
        <ele>3.5</ele>
        <time>2024-03-10T07:52:59Z</time>
      </trkpt>
      <trkpt lat="49.28004" lon="-0.13573">
        <ele>3.5</ele>
        <time>2024-03-10T07:53:00Z</time>
      </trkpt>
      <trkpt lat="49.28003" lon="-0.13573">
        <ele>3.5</ele>
        <time>2024-03-10T07:53:01Z</time>
      </trkpt>
      <trkpt lat="49.28003" lon="-0.13573">
        <ele>3.5</ele>
        <time>2024-03-10T07:53:02Z</time>
      </trkpt>
      <trkpt lat="49.28003" lon="-0.13573">
        <ele>3.5</ele>
        <time>2024-03-10T07:53:03Z</time>
      </trkpt>
      <trkpt lat="49.28003" lon="-0.13573">
        <ele>3.5</ele>
        <time>2024-03-10T07:53:04Z</time>
      </trkpt>
      <trkpt lat="49.28004" lon="-0.13573">
        <ele>3.5</ele>
        <time>2024-03-10T07:53:05Z</time>
      </trkpt>
      <trkpt lat="49.28004" lon="-0.13573">
        <ele>3.5</ele>
        <time>2024-03-10T07:53:06Z</time>
      </trkpt>
      <trkpt lat="49.28004" lon="-0.13573">
        <ele>3.5</ele>
        <time>2024-03-10T07:53:07Z</time>
      </trkpt>
      <trkpt lat="49.28004" lon="-0.13573">
        <ele>3.5</ele>
        <time>2024-03-10T07:53:08Z</time>
      </trkpt>
      <trkpt lat="49.28004" lon="-0.13573">
        <ele>3.5</ele>
        <time>2024-03-10T07:53:09Z</time>
      </trkpt>
      <trkpt lat="49.28004" lon="-0.13573">
        <ele>3.5</ele>
        <time>2024-03-10T07:53:10Z</time>
      </trkpt>
      <trkpt lat="49.28004" lon="-0.13573">
        <ele>3.5</ele>
        <time>2024-03-10T07:53:11Z</time>
      </trkpt>
      <trkpt lat="49.28004" lon="-0.13573">
        <ele>3.5</ele>
        <time>2024-03-10T07:53:12Z</time>
      </trkpt>
      <trkpt lat="49.28004" lon="-0.13573">
        <ele>3.5</ele>
        <time>2024-03-10T07:53:13Z</time>
      </trkpt>
      <trkpt lat="49.28004" lon="-0.13573">
        <ele>3.5</ele>
        <time>2024-03-10T07:53:14Z</time>
      </trkpt>
      <trkpt lat="49.28004" lon="-0.13573">
        <ele>3.5</ele>
        <time>2024-03-10T07:53:15Z</time>
      </trkpt>
      <trkpt lat="49.28004" lon="-0.13573">
        <ele>3.5</ele>
        <time>2024-03-10T07:53:16Z</time>
      </trkpt>
      <trkpt lat="49.28004" lon="-0.13573">
        <ele>3.5</ele>
        <time>2024-03-10T07:53:17Z</time>
      </trkpt>
      <trkpt lat="49.28004" lon="-0.13573">
        <ele>3.5</ele>
        <time>2024-03-10T07:53:18Z</time>
      </trkpt>
      <trkpt lat="49.28004" lon="-0.13573">
        <ele>3.5</ele>
        <time>2024-03-10T07:53:19Z</time>
      </trkpt>
      <trkpt lat="49.28004" lon="-0.13573">
        <ele>3.5</ele>
        <time>2024-03-10T07:53:20Z</time>
      </trkpt>
      <trkpt lat="49.28004" lon="-0.13573">
        <ele>3.5</ele>
        <time>2024-03-10T07:53:21Z</time>
      </trkpt>
      <trkpt lat="49.28004" lon="-0.13573">
        <ele>3.5</ele>
        <time>2024-03-10T07:53:22Z</time>
      </trkpt>
      <trkpt lat="49.28004" lon="-0.13573">
        <ele>3.5</ele>
        <time>2024-03-10T07:53:23Z</time>
      </trkpt>
      <trkpt lat="49.28004" lon="-0.13573">
        <ele>3.5</ele>
        <time>2024-03-10T07:53:24Z</time>
      </trkpt>
      <trkpt lat="49.28004" lon="-0.13573">
        <ele>3.5</ele>
        <time>2024-03-10T07:53:25Z</time>
      </trkpt>
      <trkpt lat="49.28004" lon="-0.13573">
        <ele>3.5</ele>
        <time>2024-03-10T07:53:26Z</time>
      </trkpt>
      <trkpt lat="49.28004" lon="-0.13573">
        <ele>3.5</ele>
        <time>2024-03-10T07:53:27Z</time>
      </trkpt>
      <trkpt lat="49.28004" lon="-0.13573">
        <ele>3.5</ele>
        <time>2024-03-10T07:53:28Z</time>
      </trkpt>
      <trkpt lat="49.28004" lon="-0.13573">
        <ele>3.5</ele>
        <time>2024-03-10T07:53:29Z</time>
      </trkpt>
      <trkpt lat="49.28004" lon="-0.13573">
        <ele>3.5</ele>
        <time>2024-03-10T07:53:30Z</time>
      </trkpt>
      <trkpt lat="49.28004" lon="-0.13573">
        <ele>3.5</ele>
        <time>2024-03-10T07:53:31Z</time>
      </trkpt>
      <trkpt lat="49.28004" lon="-0.13573">
        <ele>3.5</ele>
        <time>2024-03-10T07:53:32Z</time>
      </trkpt>
      <trkpt lat="49.28004" lon="-0.13573">
        <ele>3.5</ele>
        <time>2024-03-10T07:53:33Z</time>
      </trkpt>
      <trkpt lat="49.28004" lon="-0.13573">
        <ele>3.5</ele>
        <time>2024-03-10T07:53:34Z</time>
      </trkpt>
      <trkpt lat="49.28004" lon="-0.13573">
        <ele>3.5</ele>
        <time>2024-03-10T07:53:35Z</time>
      </trkpt>
      <trkpt lat="49.28004" lon="-0.13573">
        <ele>3.5</ele>
        <time>2024-03-10T07:53:36Z</time>
      </trkpt>
      <trkpt lat="49.28004" lon="-0.13573">
        <ele>3.5</ele>
        <time>2024-03-10T07:53:37Z</time>
      </trkpt>
      <trkpt lat="49.28004" lon="-0.13573">
        <ele>3.5</ele>
        <time>2024-03-10T07:53:38Z</time>
      </trkpt>
      <trkpt lat="49.28004" lon="-0.13573">
        <ele>3.5</ele>
        <time>2024-03-10T07:53:39Z</time>
      </trkpt>
      <trkpt lat="49.28004" lon="-0.13573">
        <ele>3.5</ele>
        <time>2024-03-10T07:53:40Z</time>
      </trkpt>
      <trkpt lat="49.28004" lon="-0.13573">
        <ele>3.5</ele>
        <time>2024-03-10T07:53:41Z</time>
      </trkpt>
      <trkpt lat="49.28004" lon="-0.13573">
        <ele>3.5</ele>
        <time>2024-03-10T07:53:42Z</time>
      </trkpt>
      <trkpt lat="49.28004" lon="-0.13573">
        <ele>3.5</ele>
        <time>2024-03-10T07:53:43Z</time>
      </trkpt>
      <trkpt lat="49.28004" lon="-0.13573">
        <ele>3.5</ele>
        <time>2024-03-10T07:53:44Z</time>
      </trkpt>
      <trkpt lat="49.28004" lon="-0.13573">
        <ele>3.5</ele>
        <time>2024-03-10T07:53:45Z</time>
      </trkpt>
      <trkpt lat="49.28004" lon="-0.13573">
        <ele>3.5</ele>
        <time>2024-03-10T07:53:46Z</time>
      </trkpt>
      <trkpt lat="49.28004" lon="-0.13573">
        <ele>3.5</ele>
        <time>2024-03-10T07:53:47Z</time>
      </trkpt>
      <trkpt lat="49.28004" lon="-0.13573">
        <ele>3.5</ele>
        <time>2024-03-10T07:53:48Z</time>
      </trkpt>
      <trkpt lat="49.28004" lon="-0.13573">
        <ele>3.5</ele>
        <time>2024-03-10T07:53:49Z</time>
      </trkpt>
      <trkpt lat="49.28004" lon="-0.13573">
        <ele>3.5</ele>
        <time>2024-03-10T07:53:50Z</time>
      </trkpt>
      <trkpt lat="49.28004" lon="-0.13573">
        <ele>3.5</ele>
        <time>2024-03-10T07:53:51Z</time>
      </trkpt>
      <trkpt lat="49.28004" lon="-0.13573">
        <ele>3.5</ele>
        <time>2024-03-10T07:53:52Z</time>
      </trkpt>
      <trkpt lat="49.28004" lon="-0.13573">
        <ele>3.5</ele>
        <time>2024-03-10T07:53:53Z</time>
      </trkpt>
      <trkpt lat="49.28004" lon="-0.13573">
        <ele>3.5</ele>
        <time>2024-03-10T07:53:54Z</time>
      </trkpt>
      <trkpt lat="49.28004" lon="-0.13573">
        <ele>3.5</ele>
        <time>2024-03-10T07:53:55Z</time>
      </trkpt>
      <trkpt lat="49.28004" lon="-0.13573">
        <ele>3.5</ele>
        <time>2024-03-10T07:53:56Z</time>
      </trkpt>
      <trkpt lat="49.28004" lon="-0.13573">
        <ele>3.5</ele>
        <time>2024-03-10T07:53:57Z</time>
      </trkpt>
      <trkpt lat="49.28004" lon="-0.13573">
        <ele>3.5</ele>
        <time>2024-03-10T07:53:58Z</time>
      </trkpt>
      <trkpt lat="49.28004" lon="-0.13573">
        <ele>3.5</ele>
        <time>2024-03-10T07:53:59Z</time>
      </trkpt>
      <trkpt lat="49.28004" lon="-0.13573">
        <ele>3.5</ele>
        <time>2024-03-10T07:54:00Z</time>
      </trkpt>
      <trkpt lat="49.28003" lon="-0.13572">
        <ele>3.5</ele>
        <time>2024-03-10T07:54:01Z</time>
      </trkpt>
      <trkpt lat="49.28003" lon="-0.13572">
        <ele>3.5</ele>
        <time>2024-03-10T07:54:02Z</time>
      </trkpt>
      <trkpt lat="49.28003" lon="-0.13571">
        <ele>3.5</ele>
        <time>2024-03-10T07:54:03Z</time>
      </trkpt>
      <trkpt lat="49.28003" lon="-0.13571">
        <ele>3.5</ele>
        <time>2024-03-10T07:54:04Z</time>
      </trkpt>
      <trkpt lat="49.28003" lon="-0.13571">
        <ele>3.5</ele>
        <time>2024-03-10T07:54:05Z</time>
      </trkpt>
      <trkpt lat="49.28003" lon="-0.13571">
        <ele>3.5</ele>
        <time>2024-03-10T07:54:06Z</time>
      </trkpt>
      <trkpt lat="49.28003" lon="-0.13571">
        <ele>3.5</ele>
        <time>2024-03-10T07:54:07Z</time>
      </trkpt>
      <trkpt lat="49.28003" lon="-0.13571">
        <ele>3.5</ele>
        <time>2024-03-10T07:54:08Z</time>
      </trkpt>
      <trkpt lat="49.28003" lon="-0.13572">
        <ele>3.5</ele>
        <time>2024-03-10T07:54:09Z</time>
      </trkpt>
      <trkpt lat="49.28003" lon="-0.13572">
        <ele>3.5</ele>
        <time>2024-03-10T07:54:10Z</time>
      </trkpt>
      <trkpt lat="49.28003" lon="-0.13572">
        <ele>3.5</ele>
        <time>2024-03-10T07:54:11Z</time>
      </trkpt>
      <trkpt lat="49.28003" lon="-0.13572">
        <ele>3.5</ele>
        <time>2024-03-10T07:54:12Z</time>
      </trkpt>
      <trkpt lat="49.28003" lon="-0.13573">
        <ele>3.5</ele>
        <time>2024-03-10T07:54:13Z</time>
      </trkpt>
      <trkpt lat="49.28003" lon="-0.13574">
        <ele>3.5</ele>
        <time>2024-03-10T07:54:14Z</time>
      </trkpt>
      <trkpt lat="49.28002" lon="-0.13575">
        <ele>3.5</ele>
        <time>2024-03-10T07:54:15Z</time>
      </trkpt>
      <trkpt lat="49.28001" lon="-0.13576">
        <ele>3.5</ele>
        <time>2024-03-10T07:54:16Z</time>
      </trkpt>
      <trkpt lat="49.27998" lon="-0.13576">
        <ele>3.5</ele>
        <time>2024-03-10T07:54:17Z</time>
      </trkpt>
      <trkpt lat="49.27997" lon="-0.13575">
        <ele>3.5</ele>
        <time>2024-03-10T07:54:18Z</time>
      </trkpt>
      <trkpt lat="49.27995" lon="-0.13573">
        <ele>3.5</ele>
        <time>2024-03-10T07:54:19Z</time>
      </trkpt>
      <trkpt lat="49.27994" lon="-0.13573">
        <ele>3.5</ele>
        <time>2024-03-10T07:54:20Z</time>
      </trkpt>
      <trkpt lat="49.27991" lon="-0.1357">
        <ele>3.5</ele>
        <time>2024-03-10T07:54:21Z</time>
      </trkpt>
      <trkpt lat="49.2799" lon="-0.13569">
        <ele>3.5</ele>
        <time>2024-03-10T07:54:22Z</time>
      </trkpt>
      <trkpt lat="49.27989" lon="-0.13568">
        <ele>3.5</ele>
        <time>2024-03-10T07:54:23Z</time>
      </trkpt>
      <trkpt lat="49.27989" lon="-0.13567">
        <ele>3.5</ele>
        <time>2024-03-10T07:54:24Z</time>
      </trkpt>
      <trkpt lat="49.27989" lon="-0.13568">
        <ele>3.5</ele>
        <time>2024-03-10T07:54:25Z</time>
      </trkpt>
      <trkpt lat="49.27989" lon="-0.13568">
        <ele>3.5</ele>
        <time>2024-03-10T07:54:26Z</time>
      </trkpt>
      <trkpt lat="49.27989" lon="-0.13567">
        <ele>3.5</ele>
        <time>2024-03-10T07:54:27Z</time>
      </trkpt>
      <trkpt lat="49.27989" lon="-0.13567">
        <ele>3.5</ele>
        <time>2024-03-10T07:54:28Z</time>
      </trkpt>
      <trkpt lat="49.27988" lon="-0.13567">
        <ele>3.5</ele>
        <time>2024-03-10T07:54:29Z</time>
      </trkpt>
      <trkpt lat="49.27988" lon="-0.13567">
        <ele>3.5</ele>
        <time>2024-03-10T07:54:30Z</time>
      </trkpt>
      <trkpt lat="49.27988" lon="-0.13567">
        <ele>3.5</ele>
        <time>2024-03-10T07:54:31Z</time>
      </trkpt>
      <trkpt lat="49.27988" lon="-0.13567">
        <ele>3.5</ele>
        <time>2024-03-10T07:54:32Z</time>
      </trkpt>
      <trkpt lat="49.27988" lon="-0.13567">
        <ele>3.5</ele>
        <time>2024-03-10T07:54:33Z</time>
      </trkpt>
      <trkpt lat="49.27988" lon="-0.13567">
        <ele>3.5</ele>
        <time>2024-03-10T07:54:34Z</time>
      </trkpt>
      <trkpt lat="49.27988" lon="-0.13567">
        <ele>3.5</ele>
        <time>2024-03-10T07:54:35Z</time>
      </trkpt>
      <trkpt lat="49.27988" lon="-0.13567">
        <ele>3.5</ele>
        <time>2024-03-10T07:54:36Z</time>
      </trkpt>
      <trkpt lat="49.27988" lon="-0.13567">
        <ele>3.5</ele>
        <time>2024-03-10T07:54:37Z</time>
      </trkpt>
      <trkpt lat="49.27988" lon="-0.13567">
        <ele>3.5</ele>
        <time>2024-03-10T07:54:38Z</time>
      </trkpt>
      <trkpt lat="49.27988" lon="-0.13567">
        <ele>3.5</ele>
        <time>2024-03-10T07:54:39Z</time>
      </trkpt>
      <trkpt lat="49.27988" lon="-0.13567">
        <ele>3.5</ele>
        <time>2024-03-10T07:54:40Z</time>
      </trkpt>
      <trkpt lat="49.27988" lon="-0.13567">
        <ele>3.5</ele>
        <time>2024-03-10T07:54:41Z</time>
      </trkpt>
      <trkpt lat="49.27988" lon="-0.13567">
        <ele>3.5</ele>
        <time>2024-03-10T07:54:42Z</time>
      </trkpt>
      <trkpt lat="49.27988" lon="-0.13566">
        <ele>3.5</ele>
        <time>2024-03-10T07:54:43Z</time>
      </trkpt>
      <trkpt lat="49.27987" lon="-0.13566">
        <ele>3.5</ele>
        <time>2024-03-10T07:54:44Z</time>
      </trkpt>
      <trkpt lat="49.27987" lon="-0.13565">
        <ele>3.5</ele>
        <time>2024-03-10T07:54:45Z</time>
      </trkpt>
      <trkpt lat="49.27987" lon="-0.13566">
        <ele>3.5</ele>
        <time>2024-03-10T07:54:46Z</time>
      </trkpt>
      <trkpt lat="49.27987" lon="-0.13567">
        <ele>3.5</ele>
        <time>2024-03-10T07:54:47Z</time>
      </trkpt>
      <trkpt lat="49.27986" lon="-0.13568">
        <ele>3.5</ele>
        <time>2024-03-10T07:54:48Z</time>
      </trkpt>
      <trkpt lat="49.27986" lon="-0.13568">
        <ele>3.5</ele>
        <time>2024-03-10T07:54:49Z</time>
      </trkpt>
      <trkpt lat="49.27986" lon="-0.13569">
        <ele>3.5</ele>
        <time>2024-03-10T07:54:50Z</time>
      </trkpt>
      <trkpt lat="49.27986" lon="-0.13569">
        <ele>3.5</ele>
        <time>2024-03-10T07:54:51Z</time>
      </trkpt>
      <trkpt lat="49.27986" lon="-0.13569">
        <ele>3.5</ele>
        <time>2024-03-10T07:54:52Z</time>
      </trkpt>
      <trkpt lat="49.27986" lon="-0.1357">
        <ele>3.5</ele>
        <time>2024-03-10T07:54:53Z</time>
      </trkpt>
      <trkpt lat="49.27986" lon="-0.13571">
        <ele>3.5</ele>
        <time>2024-03-10T07:54:54Z</time>
      </trkpt>
      <trkpt lat="49.27986" lon="-0.13572">
        <ele>3.5</ele>
        <time>2024-03-10T07:54:55Z</time>
      </trkpt>
      <trkpt lat="49.27985" lon="-0.13571">
        <ele>3.5</ele>
        <time>2024-03-10T07:54:56Z</time>
      </trkpt>
      <trkpt lat="49.27984" lon="-0.1357">
        <ele>3.5</ele>
        <time>2024-03-10T07:54:57Z</time>
      </trkpt>
      <trkpt lat="49.27983" lon="-0.13569">
        <ele>3.6</ele>
        <time>2024-03-10T07:54:58Z</time>
      </trkpt>
      <trkpt lat="49.27983" lon="-0.13567">
        <ele>3.6</ele>
        <time>2024-03-10T07:54:59Z</time>
      </trkpt>
      <trkpt lat="49.27983" lon="-0.13566">
        <ele>3.6</ele>
        <time>2024-03-10T07:55:00Z</time>
      </trkpt>
      <trkpt lat="49.27983" lon="-0.13565">
        <ele>3.6</ele>
        <time>2024-03-10T07:55:01Z</time>
      </trkpt>
      <trkpt lat="49.27983" lon="-0.13565">
        <ele>3.6</ele>
        <time>2024-03-10T07:55:02Z</time>
      </trkpt>
      <trkpt lat="49.27983" lon="-0.13565">
        <ele>3.6</ele>
        <time>2024-03-10T07:55:03Z</time>
      </trkpt>
      <trkpt lat="49.27983" lon="-0.13565">
        <ele>3.6</ele>
        <time>2024-03-10T07:55:04Z</time>
      </trkpt>
      <trkpt lat="49.27982" lon="-0.13566">
        <ele>3.6</ele>
        <time>2024-03-10T07:55:05Z</time>
      </trkpt>
      <trkpt lat="49.27981" lon="-0.13566">
        <ele>3.6</ele>
        <time>2024-03-10T07:55:06Z</time>
      </trkpt>
      <trkpt lat="49.27981" lon="-0.13565">
        <ele>3.6</ele>
        <time>2024-03-10T07:55:07Z</time>
      </trkpt>
      <trkpt lat="49.27981" lon="-0.13564">
        <ele>3.6</ele>
        <time>2024-03-10T07:55:08Z</time>
      </trkpt>
      <trkpt lat="49.27981" lon="-0.13564">
        <ele>3.6</ele>
        <time>2024-03-10T07:55:09Z</time>
      </trkpt>
      <trkpt lat="49.27981" lon="-0.13564">
        <ele>3.6</ele>
        <time>2024-03-10T07:55:10Z</time>
      </trkpt>
      <trkpt lat="49.27981" lon="-0.13564">
        <ele>3.6</ele>
        <time>2024-03-10T07:55:11Z</time>
      </trkpt>
      <trkpt lat="49.27981" lon="-0.13564">
        <ele>3.6</ele>
        <time>2024-03-10T07:55:12Z</time>
      </trkpt>
      <trkpt lat="49.27981" lon="-0.13564">
        <ele>3.6</ele>
        <time>2024-03-10T07:55:13Z</time>
      </trkpt>
      <trkpt lat="49.27981" lon="-0.13564">
        <ele>3.6</ele>
        <time>2024-03-10T07:55:14Z</time>
      </trkpt>
      <trkpt lat="49.27982" lon="-0.13563">
        <ele>3.6</ele>
        <time>2024-03-10T07:55:15Z</time>
      </trkpt>
      <trkpt lat="49.27982" lon="-0.13562">
        <ele>3.6</ele>
        <time>2024-03-10T07:55:16Z</time>
      </trkpt>
      <trkpt lat="49.27982" lon="-0.13562">
        <ele>3.6</ele>
        <time>2024-03-10T07:55:17Z</time>
      </trkpt>
      <trkpt lat="49.27982" lon="-0.13561">
        <ele>3.6</ele>
        <time>2024-03-10T07:55:18Z</time>
      </trkpt>
      <trkpt lat="49.27983" lon="-0.13561">
        <ele>3.6</ele>
        <time>2024-03-10T07:55:19Z</time>
      </trkpt>
      <trkpt lat="49.27983" lon="-0.1356">
        <ele>3.6</ele>
        <time>2024-03-10T07:55:20Z</time>
      </trkpt>
      <trkpt lat="49.27983" lon="-0.1356">
        <ele>3.6</ele>
        <time>2024-03-10T07:55:21Z</time>
      </trkpt>
      <trkpt lat="49.27983" lon="-0.13559">
        <ele>3.6</ele>
        <time>2024-03-10T07:55:22Z</time>
      </trkpt>
      <trkpt lat="49.27984" lon="-0.13558">
        <ele>3.6</ele>
        <time>2024-03-10T07:55:23Z</time>
      </trkpt>
      <trkpt lat="49.27984" lon="-0.13557">
        <ele>3.6</ele>
        <time>2024-03-10T07:55:24Z</time>
      </trkpt>
      <trkpt lat="49.27984" lon="-0.13556">
        <ele>3.6</ele>
        <time>2024-03-10T07:55:25Z</time>
      </trkpt>
      <trkpt lat="49.27984" lon="-0.13556">
        <ele>3.6</ele>
        <time>2024-03-10T07:55:26Z</time>
      </trkpt>
      <trkpt lat="49.27984" lon="-0.13556">
        <ele>3.6</ele>
        <time>2024-03-10T07:55:27Z</time>
      </trkpt>
      <trkpt lat="49.27985" lon="-0.13556">
        <ele>3.6</ele>
        <time>2024-03-10T07:55:28Z</time>
      </trkpt>
      <trkpt lat="49.27985" lon="-0.13556">
        <ele>3.6</ele>
        <time>2024-03-10T07:55:29Z</time>
      </trkpt>
      <trkpt lat="49.27985" lon="-0.13556">
        <ele>3.6</ele>
        <time>2024-03-10T07:55:30Z</time>
      </trkpt>
      <trkpt lat="49.27985" lon="-0.13556">
        <ele>3.6</ele>
        <time>2024-03-10T07:55:31Z</time>
      </trkpt>
      <trkpt lat="49.27985" lon="-0.13556">
        <ele>3.6</ele>
        <time>2024-03-10T07:55:32Z</time>
      </trkpt>
      <trkpt lat="49.27985" lon="-0.13556">
        <ele>3.6</ele>
        <time>2024-03-10T07:55:33Z</time>
      </trkpt>
      <trkpt lat="49.27985" lon="-0.13556">
        <ele>3.6</ele>
        <time>2024-03-10T07:55:34Z</time>
      </trkpt>
      <trkpt lat="49.27985" lon="-0.13556">
        <ele>3.6</ele>
        <time>2024-03-10T07:55:35Z</time>
      </trkpt>
      <trkpt lat="49.27985" lon="-0.13556">
        <ele>3.6</ele>
        <time>2024-03-10T07:55:36Z</time>
      </trkpt>
      <trkpt lat="49.27985" lon="-0.13556">
        <ele>3.6</ele>
        <time>2024-03-10T07:55:37Z</time>
      </trkpt>
      <trkpt lat="49.27985" lon="-0.13555">
        <ele>3.6</ele>
        <time>2024-03-10T07:55:38Z</time>
      </trkpt>
      <trkpt lat="49.27986" lon="-0.13556">
        <ele>3.6</ele>
        <time>2024-03-10T07:55:39Z</time>
      </trkpt>
      <trkpt lat="49.27986" lon="-0.13556">
        <ele>3.6</ele>
        <time>2024-03-10T07:55:40Z</time>
      </trkpt>
      <trkpt lat="49.27987" lon="-0.13557">
        <ele>3.6</ele>
        <time>2024-03-10T07:55:41Z</time>
      </trkpt>
      <trkpt lat="49.27988" lon="-0.13558">
        <ele>3.6</ele>
        <time>2024-03-10T07:55:42Z</time>
      </trkpt>
      <trkpt lat="49.27988" lon="-0.13559">
        <ele>3.6</ele>
        <time>2024-03-10T07:55:43Z</time>
      </trkpt>
      <trkpt lat="49.27988" lon="-0.1356">
        <ele>3.6</ele>
        <time>2024-03-10T07:55:44Z</time>
      </trkpt>
      <trkpt lat="49.27988" lon="-0.1356">
        <ele>3.6</ele>
        <time>2024-03-10T07:55:45Z</time>
      </trkpt>
      <trkpt lat="49.27988" lon="-0.1356">
        <ele>3.6</ele>
        <time>2024-03-10T07:55:46Z</time>
      </trkpt>
      <trkpt lat="49.27988" lon="-0.1356">
        <ele>3.6</ele>
        <time>2024-03-10T07:55:47Z</time>
      </trkpt>
      <trkpt lat="49.27988" lon="-0.1356">
        <ele>3.6</ele>
        <time>2024-03-10T07:55:48Z</time>
      </trkpt>
      <trkpt lat="49.27988" lon="-0.1356">
        <ele>3.6</ele>
        <time>2024-03-10T07:55:49Z</time>
      </trkpt>
      <trkpt lat="49.27988" lon="-0.1356">
        <ele>3.6</ele>
        <time>2024-03-10T07:55:50Z</time>
      </trkpt>
      <trkpt lat="49.27988" lon="-0.1356">
        <ele>3.6</ele>
        <time>2024-03-10T07:55:51Z</time>
      </trkpt>
      <trkpt lat="49.27988" lon="-0.1356">
        <ele>3.6</ele>
        <time>2024-03-10T07:55:52Z</time>
      </trkpt>
      <trkpt lat="49.27988" lon="-0.1356">
        <ele>3.6</ele>
        <time>2024-03-10T07:55:53Z</time>
      </trkpt>
      <trkpt lat="49.27988" lon="-0.1356">
        <ele>3.6</ele>
        <time>2024-03-10T07:55:54Z</time>
      </trkpt>
      <trkpt lat="49.27988" lon="-0.1356">
        <ele>3.6</ele>
        <time>2024-03-10T07:55:55Z</time>
      </trkpt>
      <trkpt lat="49.27988" lon="-0.1356">
        <ele>3.6</ele>
        <time>2024-03-10T07:55:56Z</time>
      </trkpt>
      <trkpt lat="49.27988" lon="-0.1356">
        <ele>3.6</ele>
        <time>2024-03-10T07:55:57Z</time>
      </trkpt>
      <trkpt lat="49.27988" lon="-0.1356">
        <ele>3.6</ele>
        <time>2024-03-10T07:55:58Z</time>
      </trkpt>
      <trkpt lat="49.27988" lon="-0.1356">
        <ele>3.6</ele>
        <time>2024-03-10T07:55:59Z</time>
      </trkpt>
      <trkpt lat="49.27988" lon="-0.1356">
        <ele>3.6</ele>
        <time>2024-03-10T07:56:00Z</time>
      </trkpt>
      <trkpt lat="49.27988" lon="-0.1356">
        <ele>3.6</ele>
        <time>2024-03-10T07:56:01Z</time>
      </trkpt>
      <trkpt lat="49.27988" lon="-0.1356">
        <ele>3.6</ele>
        <time>2024-03-10T07:56:02Z</time>
      </trkpt>
      <trkpt lat="49.27988" lon="-0.1356">
        <ele>3.6</ele>
        <time>2024-03-10T07:56:03Z</time>
      </trkpt>
      <trkpt lat="49.27988" lon="-0.1356">
        <ele>3.6</ele>
        <time>2024-03-10T07:56:04Z</time>
      </trkpt>
      <trkpt lat="49.27988" lon="-0.1356">
        <ele>3.6</ele>
        <time>2024-03-10T07:56:05Z</time>
      </trkpt>
      <trkpt lat="49.27988" lon="-0.1356">
        <ele>3.6</ele>
        <time>2024-03-10T07:56:06Z</time>
      </trkpt>
      <trkpt lat="49.27988" lon="-0.1356">
        <ele>3.6</ele>
        <time>2024-03-10T07:56:07Z</time>
      </trkpt>
      <trkpt lat="49.27988" lon="-0.1356">
        <ele>3.6</ele>
        <time>2024-03-10T07:56:08Z</time>
      </trkpt>
      <trkpt lat="49.27988" lon="-0.1356">
        <ele>3.6</ele>
        <time>2024-03-10T07:56:09Z</time>
      </trkpt>
      <trkpt lat="49.27988" lon="-0.1356">
        <ele>3.6</ele>
        <time>2024-03-10T07:56:10Z</time>
      </trkpt>
      <trkpt lat="49.27988" lon="-0.1356">
        <ele>3.6</ele>
        <time>2024-03-10T07:56:11Z</time>
      </trkpt>
      <trkpt lat="49.27988" lon="-0.1356">
        <ele>3.6</ele>
        <time>2024-03-10T07:56:12Z</time>
      </trkpt>
      <trkpt lat="49.27988" lon="-0.1356">
        <ele>3.6</ele>
        <time>2024-03-10T07:56:13Z</time>
      </trkpt>
      <trkpt lat="49.27988" lon="-0.1356">
        <ele>3.6</ele>
        <time>2024-03-10T07:56:14Z</time>
      </trkpt>
      <trkpt lat="49.27988" lon="-0.1356">
        <ele>3.6</ele>
        <time>2024-03-10T07:56:15Z</time>
      </trkpt>
      <trkpt lat="49.27988" lon="-0.1356">
        <ele>3.6</ele>
        <time>2024-03-10T07:56:16Z</time>
      </trkpt>
      <trkpt lat="49.27988" lon="-0.1356">
        <ele>3.6</ele>
        <time>2024-03-10T07:56:17Z</time>
      </trkpt>
      <trkpt lat="49.27988" lon="-0.1356">
        <ele>3.6</ele>
        <time>2024-03-10T07:56:18Z</time>
      </trkpt>
      <trkpt lat="49.27988" lon="-0.1356">
        <ele>3.6</ele>
        <time>2024-03-10T07:56:19Z</time>
      </trkpt>
      <trkpt lat="49.27988" lon="-0.1356">
        <ele>3.6</ele>
        <time>2024-03-10T07:56:20Z</time>
      </trkpt>
      <trkpt lat="49.27988" lon="-0.1356">
        <ele>3.6</ele>
        <time>2024-03-10T07:56:21Z</time>
      </trkpt>
      <trkpt lat="49.27988" lon="-0.1356">
        <ele>3.6</ele>
        <time>2024-03-10T07:56:22Z</time>
      </trkpt>
      <trkpt lat="49.27988" lon="-0.1356">
        <ele>3.6</ele>
        <time>2024-03-10T07:56:23Z</time>
      </trkpt>
      <trkpt lat="49.27988" lon="-0.1356">
        <ele>3.6</ele>
        <time>2024-03-10T07:56:24Z</time>
      </trkpt>
      <trkpt lat="49.27988" lon="-0.1356">
        <ele>3.6</ele>
        <time>2024-03-10T07:56:25Z</time>
      </trkpt>
      <trkpt lat="49.27988" lon="-0.1356">
        <ele>3.6</ele>
        <time>2024-03-10T07:56:26Z</time>
      </trkpt>
      <trkpt lat="49.27988" lon="-0.1356">
        <ele>3.6</ele>
        <time>2024-03-10T07:56:27Z</time>
      </trkpt>
      <trkpt lat="49.27988" lon="-0.1356">
        <ele>3.6</ele>
        <time>2024-03-10T07:56:28Z</time>
      </trkpt>
      <trkpt lat="49.27988" lon="-0.1356">
        <ele>3.6</ele>
        <time>2024-03-10T07:56:29Z</time>
      </trkpt>
      <trkpt lat="49.27988" lon="-0.1356">
        <ele>3.6</ele>
        <time>2024-03-10T07:56:30Z</time>
      </trkpt>
      <trkpt lat="49.27988" lon="-0.1356">
        <ele>3.6</ele>
        <time>2024-03-10T07:56:31Z</time>
      </trkpt>
      <trkpt lat="49.27988" lon="-0.1356">
        <ele>3.6</ele>
        <time>2024-03-10T07:56:32Z</time>
      </trkpt>
      <trkpt lat="49.27988" lon="-0.13559">
        <ele>3.6</ele>
        <time>2024-03-10T07:56:33Z</time>
      </trkpt>
      <trkpt lat="49.27988" lon="-0.13559">
        <ele>3.6</ele>
        <time>2024-03-10T07:56:34Z</time>
      </trkpt>
      <trkpt lat="49.27988" lon="-0.13559">
        <ele>3.6</ele>
        <time>2024-03-10T07:56:35Z</time>
      </trkpt>
      <trkpt lat="49.27988" lon="-0.13559">
        <ele>3.6</ele>
        <time>2024-03-10T07:56:36Z</time>
      </trkpt>
      <trkpt lat="49.27988" lon="-0.13559">
        <ele>3.6</ele>
        <time>2024-03-10T07:56:37Z</time>
      </trkpt>
      <trkpt lat="49.27988" lon="-0.13559">
        <ele>3.6</ele>
        <time>2024-03-10T07:56:38Z</time>
      </trkpt>
      <trkpt lat="49.27988" lon="-0.13559">
        <ele>3.6</ele>
        <time>2024-03-10T07:56:39Z</time>
      </trkpt>
      <trkpt lat="49.27988" lon="-0.13559">
        <ele>3.6</ele>
        <time>2024-03-10T07:56:40Z</time>
      </trkpt>
      <trkpt lat="49.27988" lon="-0.13559">
        <ele>3.6</ele>
        <time>2024-03-10T07:56:41Z</time>
      </trkpt>
      <trkpt lat="49.27988" lon="-0.13559">
        <ele>3.6</ele>
        <time>2024-03-10T07:56:42Z</time>
      </trkpt>
      <trkpt lat="49.27988" lon="-0.13559">
        <ele>3.6</ele>
        <time>2024-03-10T07:56:43Z</time>
      </trkpt>
      <trkpt lat="49.27988" lon="-0.13559">
        <ele>3.6</ele>
        <time>2024-03-10T07:56:44Z</time>
      </trkpt>
      <trkpt lat="49.27988" lon="-0.13559">
        <ele>3.6</ele>
        <time>2024-03-10T07:56:45Z</time>
      </trkpt>
      <trkpt lat="49.27988" lon="-0.13559">
        <ele>3.6</ele>
        <time>2024-03-10T07:56:46Z</time>
      </trkpt>
      <trkpt lat="49.27988" lon="-0.13559">
        <ele>3.6</ele>
        <time>2024-03-10T07:56:47Z</time>
      </trkpt>
      <trkpt lat="49.27988" lon="-0.13559">
        <ele>3.6</ele>
        <time>2024-03-10T07:56:48Z</time>
      </trkpt>
      <trkpt lat="49.27988" lon="-0.13559">
        <ele>3.6</ele>
        <time>2024-03-10T07:56:49Z</time>
      </trkpt>
      <trkpt lat="49.27988" lon="-0.13559">
        <ele>3.6</ele>
        <time>2024-03-10T07:56:50Z</time>
      </trkpt>
      <trkpt lat="49.27988" lon="-0.13559">
        <ele>3.6</ele>
        <time>2024-03-10T07:56:51Z</time>
      </trkpt>
      <trkpt lat="49.27988" lon="-0.13559">
        <ele>3.6</ele>
        <time>2024-03-10T07:56:52Z</time>
      </trkpt>
      <trkpt lat="49.27988" lon="-0.13559">
        <ele>3.6</ele>
        <time>2024-03-10T07:56:53Z</time>
      </trkpt>
      <trkpt lat="49.27988" lon="-0.13559">
        <ele>3.6</ele>
        <time>2024-03-10T07:56:54Z</time>
      </trkpt>
      <trkpt lat="49.27988" lon="-0.13559">
        <ele>3.6</ele>
        <time>2024-03-10T07:56:55Z</time>
      </trkpt>
      <trkpt lat="49.27988" lon="-0.13559">
        <ele>3.6</ele>
        <time>2024-03-10T07:56:56Z</time>
      </trkpt>
      <trkpt lat="49.27988" lon="-0.13559">
        <ele>3.6</ele>
        <time>2024-03-10T07:56:57Z</time>
      </trkpt>
      <trkpt lat="49.27988" lon="-0.13559">
        <ele>3.6</ele>
        <time>2024-03-10T07:56:58Z</time>
      </trkpt>
      <trkpt lat="49.27988" lon="-0.13559">
        <ele>3.6</ele>
        <time>2024-03-10T07:56:59Z</time>
      </trkpt>
      <trkpt lat="49.27988" lon="-0.13559">
        <ele>3.6</ele>
        <time>2024-03-10T07:57:00Z</time>
      </trkpt>
      <trkpt lat="49.27988" lon="-0.13559">
        <ele>3.6</ele>
        <time>2024-03-10T07:57:01Z</time>
      </trkpt>
      <trkpt lat="49.27988" lon="-0.13559">
        <ele>3.6</ele>
        <time>2024-03-10T07:57:02Z</time>
      </trkpt>
      <trkpt lat="49.27988" lon="-0.13559">
        <ele>3.6</ele>
        <time>2024-03-10T07:57:03Z</time>
      </trkpt>
      <trkpt lat="49.27988" lon="-0.13559">
        <ele>3.6</ele>
        <time>2024-03-10T07:57:04Z</time>
      </trkpt>
      <trkpt lat="49.27988" lon="-0.13559">
        <ele>3.6</ele>
        <time>2024-03-10T07:57:05Z</time>
      </trkpt>
      <trkpt lat="49.27988" lon="-0.13559">
        <ele>3.6</ele>
        <time>2024-03-10T07:57:06Z</time>
      </trkpt>
      <trkpt lat="49.27988" lon="-0.13559">
        <ele>3.6</ele>
        <time>2024-03-10T07:57:07Z</time>
      </trkpt>
      <trkpt lat="49.27988" lon="-0.13559">
        <ele>3.6</ele>
        <time>2024-03-10T07:57:08Z</time>
      </trkpt>
      <trkpt lat="49.27988" lon="-0.13559">
        <ele>3.6</ele>
        <time>2024-03-10T07:57:09Z</time>
      </trkpt>
      <trkpt lat="49.27988" lon="-0.13559">
        <ele>3.6</ele>
        <time>2024-03-10T07:57:10Z</time>
      </trkpt>
      <trkpt lat="49.27988" lon="-0.13559">
        <ele>3.6</ele>
        <time>2024-03-10T07:57:11Z</time>
      </trkpt>
      <trkpt lat="49.27988" lon="-0.13559">
        <ele>3.6</ele>
        <time>2024-03-10T07:57:12Z</time>
      </trkpt>
      <trkpt lat="49.27988" lon="-0.13559">
        <ele>3.6</ele>
        <time>2024-03-10T07:57:13Z</time>
      </trkpt>
      <trkpt lat="49.27988" lon="-0.13559">
        <ele>3.6</ele>
        <time>2024-03-10T07:57:14Z</time>
      </trkpt>
      <trkpt lat="49.27988" lon="-0.13559">
        <ele>3.6</ele>
        <time>2024-03-10T07:57:15Z</time>
      </trkpt>
      <trkpt lat="49.27988" lon="-0.13559">
        <ele>3.6</ele>
        <time>2024-03-10T07:57:16Z</time>
      </trkpt>
      <trkpt lat="49.27988" lon="-0.13559">
        <ele>3.6</ele>
        <time>2024-03-10T07:57:17Z</time>
      </trkpt>
      <trkpt lat="49.27988" lon="-0.13559">
        <ele>3.6</ele>
        <time>2024-03-10T07:57:18Z</time>
      </trkpt>
      <trkpt lat="49.27988" lon="-0.13559">
        <ele>3.6</ele>
        <time>2024-03-10T07:57:19Z</time>
      </trkpt>
      <trkpt lat="49.27988" lon="-0.13559">
        <ele>3.6</ele>
        <time>2024-03-10T07:57:20Z</time>
      </trkpt>
      <trkpt lat="49.27988" lon="-0.13559">
        <ele>3.6</ele>
        <time>2024-03-10T07:57:21Z</time>
      </trkpt>
      <trkpt lat="49.27988" lon="-0.13559">
        <ele>3.6</ele>
        <time>2024-03-10T07:57:22Z</time>
      </trkpt>
      <trkpt lat="49.27988" lon="-0.13559">
        <ele>3.6</ele>
        <time>2024-03-10T07:57:23Z</time>
      </trkpt>
      <trkpt lat="49.27988" lon="-0.13559">
        <ele>3.6</ele>
        <time>2024-03-10T07:57:24Z</time>
      </trkpt>
      <trkpt lat="49.27988" lon="-0.13559">
        <ele>3.6</ele>
        <time>2024-03-10T07:57:25Z</time>
      </trkpt>
      <trkpt lat="49.27988" lon="-0.13559">
        <ele>3.6</ele>
        <time>2024-03-10T07:57:26Z</time>
      </trkpt>
      <trkpt lat="49.27988" lon="-0.13559">
        <ele>3.6</ele>
        <time>2024-03-10T07:57:27Z</time>
      </trkpt>
      <trkpt lat="49.27988" lon="-0.13559">
        <ele>3.6</ele>
        <time>2024-03-10T07:57:28Z</time>
      </trkpt>
      <trkpt lat="49.27988" lon="-0.13559">
        <ele>3.6</ele>
        <time>2024-03-10T07:57:29Z</time>
      </trkpt>
      <trkpt lat="49.27988" lon="-0.13559">
        <ele>3.6</ele>
        <time>2024-03-10T07:57:30Z</time>
      </trkpt>
      <trkpt lat="49.27988" lon="-0.13559">
        <ele>3.6</ele>
        <time>2024-03-10T07:57:31Z</time>
      </trkpt>
      <trkpt lat="49.27988" lon="-0.13559">
        <ele>3.6</ele>
        <time>2024-03-10T07:57:32Z</time>
      </trkpt>
      <trkpt lat="49.27988" lon="-0.13559">
        <ele>3.6</ele>
        <time>2024-03-10T07:57:33Z</time>
      </trkpt>
      <trkpt lat="49.27988" lon="-0.13559">
        <ele>3.6</ele>
        <time>2024-03-10T07:57:34Z</time>
      </trkpt>
      <trkpt lat="49.27988" lon="-0.13559">
        <ele>3.6</ele>
        <time>2024-03-10T07:57:35Z</time>
      </trkpt>
      <trkpt lat="49.27988" lon="-0.13559">
        <ele>3.6</ele>
        <time>2024-03-10T07:57:36Z</time>
      </trkpt>
      <trkpt lat="49.27988" lon="-0.13559">
        <ele>3.6</ele>
        <time>2024-03-10T07:57:37Z</time>
      </trkpt>
      <trkpt lat="49.27988" lon="-0.13559">
        <ele>3.6</ele>
        <time>2024-03-10T07:57:38Z</time>
      </trkpt>
      <trkpt lat="49.27988" lon="-0.13559">
        <ele>3.6</ele>
        <time>2024-03-10T07:57:39Z</time>
      </trkpt>
      <trkpt lat="49.27988" lon="-0.13559">
        <ele>3.6</ele>
        <time>2024-03-10T07:57:40Z</time>
      </trkpt>
      <trkpt lat="49.27988" lon="-0.13559">
        <ele>3.6</ele>
        <time>2024-03-10T07:57:41Z</time>
      </trkpt>
      <trkpt lat="49.27988" lon="-0.13559">
        <ele>3.6</ele>
        <time>2024-03-10T07:57:42Z</time>
      </trkpt>
      <trkpt lat="49.27988" lon="-0.13559">
        <ele>3.6</ele>
        <time>2024-03-10T07:57:43Z</time>
      </trkpt>
      <trkpt lat="49.27988" lon="-0.13559">
        <ele>3.6</ele>
        <time>2024-03-10T07:57:44Z</time>
      </trkpt>
      <trkpt lat="49.27988" lon="-0.13559">
        <ele>3.6</ele>
        <time>2024-03-10T07:57:45Z</time>
      </trkpt>
      <trkpt lat="49.27988" lon="-0.13559">
        <ele>3.6</ele>
        <time>2024-03-10T07:57:46Z</time>
      </trkpt>
      <trkpt lat="49.27988" lon="-0.13559">
        <ele>3.6</ele>
        <time>2024-03-10T07:57:47Z</time>
      </trkpt>
      <trkpt lat="49.27988" lon="-0.13559">
        <ele>3.6</ele>
        <time>2024-03-10T07:57:48Z</time>
      </trkpt>
      <trkpt lat="49.27988" lon="-0.13559">
        <ele>3.6</ele>
        <time>2024-03-10T07:57:49Z</time>
      </trkpt>
      <trkpt lat="49.27988" lon="-0.13559">
        <ele>3.6</ele>
        <time>2024-03-10T07:57:50Z</time>
      </trkpt>
      <trkpt lat="49.27988" lon="-0.13559">
        <ele>3.6</ele>
        <time>2024-03-10T07:57:51Z</time>
      </trkpt>
      <trkpt lat="49.27988" lon="-0.13559">
        <ele>3.6</ele>
        <time>2024-03-10T07:57:52Z</time>
      </trkpt>
      <trkpt lat="49.27988" lon="-0.13559">
        <ele>3.6</ele>
        <time>2024-03-10T07:57:53Z</time>
      </trkpt>
      <trkpt lat="49.27988" lon="-0.13559">
        <ele>3.6</ele>
        <time>2024-03-10T07:57:54Z</time>
      </trkpt>
      <trkpt lat="49.27988" lon="-0.13559">
        <ele>3.6</ele>
        <time>2024-03-10T07:57:55Z</time>
      </trkpt>
      <trkpt lat="49.27988" lon="-0.13559">
        <ele>3.6</ele>
        <time>2024-03-10T07:57:56Z</time>
      </trkpt>
      <trkpt lat="49.27988" lon="-0.13559">
        <ele>3.6</ele>
        <time>2024-03-10T07:57:57Z</time>
      </trkpt>
      <trkpt lat="49.27988" lon="-0.13559">
        <ele>3.6</ele>
        <time>2024-03-10T07:57:58Z</time>
      </trkpt>
      <trkpt lat="49.27988" lon="-0.13559">
        <ele>3.6</ele>
        <time>2024-03-10T07:57:59Z</time>
      </trkpt>
      <trkpt lat="49.27988" lon="-0.13559">
        <ele>3.6</ele>
        <time>2024-03-10T07:58:00Z</time>
      </trkpt>
      <trkpt lat="49.27988" lon="-0.13559">
        <ele>3.6</ele>
        <time>2024-03-10T07:58:01Z</time>
      </trkpt>
      <trkpt lat="49.27988" lon="-0.13559">
        <ele>3.6</ele>
        <time>2024-03-10T07:58:02Z</time>
      </trkpt>
      <trkpt lat="49.27988" lon="-0.13559">
        <ele>3.6</ele>
        <time>2024-03-10T07:58:03Z</time>
      </trkpt>
      <trkpt lat="49.27988" lon="-0.13559">
        <ele>3.6</ele>
        <time>2024-03-10T07:58:04Z</time>
      </trkpt>
      <trkpt lat="49.27988" lon="-0.13559">
        <ele>3.6</ele>
        <time>2024-03-10T07:58:05Z</time>
      </trkpt>
      <trkpt lat="49.27988" lon="-0.13559">
        <ele>3.6</ele>
        <time>2024-03-10T07:58:06Z</time>
      </trkpt>
      <trkpt lat="49.27988" lon="-0.13559">
        <ele>3.6</ele>
        <time>2024-03-10T07:58:07Z</time>
      </trkpt>
      <trkpt lat="49.27988" lon="-0.13559">
        <ele>3.6</ele>
        <time>2024-03-10T07:58:08Z</time>
      </trkpt>
      <trkpt lat="49.27988" lon="-0.13559">
        <ele>3.6</ele>
        <time>2024-03-10T07:58:09Z</time>
      </trkpt>
      <trkpt lat="49.27988" lon="-0.13559">
        <ele>3.6</ele>
        <time>2024-03-10T07:58:10Z</time>
      </trkpt>
      <trkpt lat="49.27988" lon="-0.13559">
        <ele>3.6</ele>
        <time>2024-03-10T07:58:11Z</time>
      </trkpt>
      <trkpt lat="49.27988" lon="-0.13559">
        <ele>3.6</ele>
        <time>2024-03-10T07:58:12Z</time>
      </trkpt>
      <trkpt lat="49.27988" lon="-0.13559">
        <ele>3.6</ele>
        <time>2024-03-10T07:58:13Z</time>
      </trkpt>
      <trkpt lat="49.27988" lon="-0.13559">
        <ele>3.6</ele>
        <time>2024-03-10T07:58:14Z</time>
      </trkpt>
      <trkpt lat="49.27988" lon="-0.13559">
        <ele>3.6</ele>
        <time>2024-03-10T07:58:15Z</time>
      </trkpt>
      <trkpt lat="49.27988" lon="-0.13559">
        <ele>3.6</ele>
        <time>2024-03-10T07:58:16Z</time>
      </trkpt>
      <trkpt lat="49.27988" lon="-0.13559">
        <ele>3.6</ele>
        <time>2024-03-10T07:58:17Z</time>
      </trkpt>
      <trkpt lat="49.27988" lon="-0.13559">
        <ele>3.6</ele>
        <time>2024-03-10T07:58:18Z</time>
      </trkpt>
      <trkpt lat="49.27988" lon="-0.13559">
        <ele>3.6</ele>
        <time>2024-03-10T07:58:19Z</time>
      </trkpt>
      <trkpt lat="49.27988" lon="-0.13559">
        <ele>3.6</ele>
        <time>2024-03-10T07:58:20Z</time>
      </trkpt>
      <trkpt lat="49.27988" lon="-0.13559">
        <ele>3.6</ele>
        <time>2024-03-10T07:58:21Z</time>
      </trkpt>
      <trkpt lat="49.27988" lon="-0.13559">
        <ele>3.6</ele>
        <time>2024-03-10T07:58:22Z</time>
      </trkpt>
      <trkpt lat="49.27988" lon="-0.13559">
        <ele>3.6</ele>
        <time>2024-03-10T07:58:23Z</time>
      </trkpt>
      <trkpt lat="49.27988" lon="-0.13559">
        <ele>3.6</ele>
        <time>2024-03-10T07:58:24Z</time>
      </trkpt>
      <trkpt lat="49.27988" lon="-0.13559">
        <ele>3.6</ele>
        <time>2024-03-10T07:58:25Z</time>
      </trkpt>
      <trkpt lat="49.27988" lon="-0.13559">
        <ele>3.6</ele>
        <time>2024-03-10T07:58:26Z</time>
      </trkpt>
      <trkpt lat="49.27988" lon="-0.13559">
        <ele>3.6</ele>
        <time>2024-03-10T07:58:27Z</time>
      </trkpt>
      <trkpt lat="49.27988" lon="-0.13559">
        <ele>3.6</ele>
        <time>2024-03-10T07:58:28Z</time>
      </trkpt>
      <trkpt lat="49.27988" lon="-0.13559">
        <ele>3.6</ele>
        <time>2024-03-10T07:58:29Z</time>
      </trkpt>
      <trkpt lat="49.27988" lon="-0.13559">
        <ele>3.6</ele>
        <time>2024-03-10T07:58:30Z</time>
      </trkpt>
      <trkpt lat="49.27988" lon="-0.13559">
        <ele>3.6</ele>
        <time>2024-03-10T07:58:31Z</time>
      </trkpt>
      <trkpt lat="49.27988" lon="-0.13559">
        <ele>3.6</ele>
        <time>2024-03-10T07:58:32Z</time>
      </trkpt>
      <trkpt lat="49.27988" lon="-0.13559">
        <ele>3.6</ele>
        <time>2024-03-10T07:58:33Z</time>
      </trkpt>
      <trkpt lat="49.27988" lon="-0.13559">
        <ele>3.6</ele>
        <time>2024-03-10T07:58:34Z</time>
      </trkpt>
      <trkpt lat="49.27988" lon="-0.13559">
        <ele>3.6</ele>
        <time>2024-03-10T07:58:35Z</time>
      </trkpt>
      <trkpt lat="49.27988" lon="-0.13559">
        <ele>3.6</ele>
        <time>2024-03-10T07:58:36Z</time>
      </trkpt>
      <trkpt lat="49.27988" lon="-0.13559">
        <ele>3.6</ele>
        <time>2024-03-10T07:58:37Z</time>
      </trkpt>
      <trkpt lat="49.27988" lon="-0.13559">
        <ele>3.6</ele>
        <time>2024-03-10T07:58:38Z</time>
      </trkpt>
      <trkpt lat="49.27988" lon="-0.13559">
        <ele>3.6</ele>
        <time>2024-03-10T07:58:39Z</time>
      </trkpt>
      <trkpt lat="49.27988" lon="-0.13559">
        <ele>3.6</ele>
        <time>2024-03-10T07:58:40Z</time>
      </trkpt>
      <trkpt lat="49.27988" lon="-0.13559">
        <ele>3.6</ele>
        <time>2024-03-10T07:58:41Z</time>
      </trkpt>
      <trkpt lat="49.27988" lon="-0.13559">
        <ele>3.6</ele>
        <time>2024-03-10T07:58:42Z</time>
      </trkpt>
      <trkpt lat="49.27988" lon="-0.13559">
        <ele>3.6</ele>
        <time>2024-03-10T07:58:43Z</time>
      </trkpt>
      <trkpt lat="49.27988" lon="-0.13559">
        <ele>3.6</ele>
        <time>2024-03-10T07:58:44Z</time>
      </trkpt>
      <trkpt lat="49.27988" lon="-0.13559">
        <ele>3.6</ele>
        <time>2024-03-10T07:58:45Z</time>
      </trkpt>
      <trkpt lat="49.27988" lon="-0.13559">
        <ele>3.6</ele>
        <time>2024-03-10T07:58:46Z</time>
      </trkpt>
      <trkpt lat="49.27988" lon="-0.13559">
        <ele>3.6</ele>
        <time>2024-03-10T07:58:47Z</time>
      </trkpt>
      <trkpt lat="49.27988" lon="-0.13559">
        <ele>3.6</ele>
        <time>2024-03-10T07:58:48Z</time>
      </trkpt>
      <trkpt lat="49.27988" lon="-0.13559">
        <ele>3.6</ele>
        <time>2024-03-10T07:58:49Z</time>
      </trkpt>
      <trkpt lat="49.27988" lon="-0.13559">
        <ele>3.6</ele>
        <time>2024-03-10T07:58:50Z</time>
      </trkpt>
      <trkpt lat="49.27988" lon="-0.13559">
        <ele>3.6</ele>
        <time>2024-03-10T07:58:51Z</time>
      </trkpt>
      <trkpt lat="49.27989" lon="-0.13559">
        <ele>3.6</ele>
        <time>2024-03-10T07:58:52Z</time>
      </trkpt>
      <trkpt lat="49.27989" lon="-0.13559">
        <ele>3.6</ele>
        <time>2024-03-10T07:58:53Z</time>
      </trkpt>
      <trkpt lat="49.27989" lon="-0.13559">
        <ele>3.6</ele>
        <time>2024-03-10T07:58:54Z</time>
      </trkpt>
      <trkpt lat="49.27989" lon="-0.13559">
        <ele>3.6</ele>
        <time>2024-03-10T07:58:55Z</time>
      </trkpt>
      <trkpt lat="49.27989" lon="-0.13559">
        <ele>3.6</ele>
        <time>2024-03-10T07:58:56Z</time>
      </trkpt>
      <trkpt lat="49.27989" lon="-0.13559">
        <ele>3.6</ele>
        <time>2024-03-10T07:58:57Z</time>
      </trkpt>
      <trkpt lat="49.27989" lon="-0.13559">
        <ele>3.6</ele>
        <time>2024-03-10T07:58:58Z</time>
      </trkpt>
      <trkpt lat="49.27989" lon="-0.13559">
        <ele>3.6</ele>
        <time>2024-03-10T07:58:59Z</time>
      </trkpt>
      <trkpt lat="49.27989" lon="-0.13559">
        <ele>3.6</ele>
        <time>2024-03-10T07:59:00Z</time>
      </trkpt>
      <trkpt lat="49.27989" lon="-0.13559">
        <ele>3.6</ele>
        <time>2024-03-10T07:59:01Z</time>
      </trkpt>
      <trkpt lat="49.27989" lon="-0.13559">
        <ele>3.6</ele>
        <time>2024-03-10T07:59:02Z</time>
      </trkpt>
      <trkpt lat="49.27989" lon="-0.13559">
        <ele>3.6</ele>
        <time>2024-03-10T07:59:03Z</time>
      </trkpt>
      <trkpt lat="49.27989" lon="-0.13559">
        <ele>3.6</ele>
        <time>2024-03-10T07:59:04Z</time>
      </trkpt>
      <trkpt lat="49.27989" lon="-0.13559">
        <ele>3.6</ele>
        <time>2024-03-10T07:59:05Z</time>
      </trkpt>
      <trkpt lat="49.27989" lon="-0.13559">
        <ele>3.6</ele>
        <time>2024-03-10T07:59:06Z</time>
      </trkpt>
      <trkpt lat="49.27989" lon="-0.13559">
        <ele>3.6</ele>
        <time>2024-03-10T07:59:07Z</time>
      </trkpt>
      <trkpt lat="49.27989" lon="-0.13559">
        <ele>3.6</ele>
        <time>2024-03-10T07:59:08Z</time>
      </trkpt>
      <trkpt lat="49.27989" lon="-0.13559">
        <ele>3.6</ele>
        <time>2024-03-10T07:59:09Z</time>
      </trkpt>
      <trkpt lat="49.27989" lon="-0.13559">
        <ele>3.6</ele>
        <time>2024-03-10T07:59:10Z</time>
      </trkpt>
      <trkpt lat="49.27989" lon="-0.13559">
        <ele>3.6</ele>
        <time>2024-03-10T07:59:11Z</time>
      </trkpt>
      <trkpt lat="49.27989" lon="-0.13559">
        <ele>3.6</ele>
        <time>2024-03-10T07:59:12Z</time>
      </trkpt>
      <trkpt lat="49.27989" lon="-0.13559">
        <ele>3.6</ele>
        <time>2024-03-10T07:59:13Z</time>
      </trkpt>
      <trkpt lat="49.27989" lon="-0.13559">
        <ele>3.6</ele>
        <time>2024-03-10T07:59:14Z</time>
      </trkpt>
      <trkpt lat="49.27989" lon="-0.13559">
        <ele>3.6</ele>
        <time>2024-03-10T07:59:15Z</time>
      </trkpt>
      <trkpt lat="49.27989" lon="-0.13559">
        <ele>3.6</ele>
        <time>2024-03-10T07:59:16Z</time>
      </trkpt>
      <trkpt lat="49.27989" lon="-0.13559">
        <ele>3.6</ele>
        <time>2024-03-10T07:59:17Z</time>
      </trkpt>
      <trkpt lat="49.27989" lon="-0.13559">
        <ele>3.6</ele>
        <time>2024-03-10T07:59:18Z</time>
      </trkpt>
      <trkpt lat="49.27989" lon="-0.13559">
        <ele>3.6</ele>
        <time>2024-03-10T07:59:19Z</time>
      </trkpt>
      <trkpt lat="49.27989" lon="-0.13559">
        <ele>3.6</ele>
        <time>2024-03-10T07:59:20Z</time>
      </trkpt>
      <trkpt lat="49.27989" lon="-0.13559">
        <ele>3.6</ele>
        <time>2024-03-10T07:59:21Z</time>
      </trkpt>
      <trkpt lat="49.27989" lon="-0.13559">
        <ele>3.6</ele>
        <time>2024-03-10T07:59:22Z</time>
      </trkpt>
      <trkpt lat="49.27989" lon="-0.13559">
        <ele>3.6</ele>
        <time>2024-03-10T07:59:23Z</time>
      </trkpt>
      <trkpt lat="49.27989" lon="-0.13559">
        <ele>3.6</ele>
        <time>2024-03-10T07:59:24Z</time>
      </trkpt>
      <trkpt lat="49.27989" lon="-0.13559">
        <ele>3.6</ele>
        <time>2024-03-10T07:59:25Z</time>
      </trkpt>
      <trkpt lat="49.27989" lon="-0.13559">
        <ele>3.6</ele>
        <time>2024-03-10T07:59:26Z</time>
      </trkpt>
      <trkpt lat="49.27989" lon="-0.13559">
        <ele>3.6</ele>
        <time>2024-03-10T07:59:27Z</time>
      </trkpt>
      <trkpt lat="49.27989" lon="-0.13559">
        <ele>3.6</ele>
        <time>2024-03-10T07:59:28Z</time>
      </trkpt>
      <trkpt lat="49.27989" lon="-0.13559">
        <ele>3.6</ele>
        <time>2024-03-10T07:59:29Z</time>
      </trkpt>
      <trkpt lat="49.27989" lon="-0.13559">
        <ele>3.6</ele>
        <time>2024-03-10T07:59:30Z</time>
      </trkpt>
      <trkpt lat="49.27989" lon="-0.13559">
        <ele>3.6</ele>
        <time>2024-03-10T07:59:31Z</time>
      </trkpt>
      <trkpt lat="49.27989" lon="-0.13559">
        <ele>3.6</ele>
        <time>2024-03-10T07:59:32Z</time>
      </trkpt>
      <trkpt lat="49.27989" lon="-0.13559">
        <ele>3.6</ele>
        <time>2024-03-10T07:59:33Z</time>
      </trkpt>
      <trkpt lat="49.27989" lon="-0.13559">
        <ele>3.6</ele>
        <time>2024-03-10T07:59:34Z</time>
      </trkpt>
      <trkpt lat="49.27989" lon="-0.13559">
        <ele>3.6</ele>
        <time>2024-03-10T07:59:35Z</time>
      </trkpt>
      <trkpt lat="49.27989" lon="-0.13559">
        <ele>3.6</ele>
        <time>2024-03-10T07:59:36Z</time>
      </trkpt>
      <trkpt lat="49.27989" lon="-0.13559">
        <ele>3.6</ele>
        <time>2024-03-10T07:59:37Z</time>
      </trkpt>
      <trkpt lat="49.27989" lon="-0.13559">
        <ele>3.6</ele>
        <time>2024-03-10T07:59:38Z</time>
      </trkpt>
      <trkpt lat="49.27989" lon="-0.13559">
        <ele>3.6</ele>
        <time>2024-03-10T07:59:39Z</time>
      </trkpt>
      <trkpt lat="49.27989" lon="-0.13559">
        <ele>3.6</ele>
        <time>2024-03-10T07:59:40Z</time>
      </trkpt>
      <trkpt lat="49.27989" lon="-0.13559">
        <ele>3.6</ele>
        <time>2024-03-10T07:59:41Z</time>
      </trkpt>
      <trkpt lat="49.27989" lon="-0.13559">
        <ele>3.6</ele>
        <time>2024-03-10T07:59:42Z</time>
      </trkpt>
      <trkpt lat="49.27989" lon="-0.13559">
        <ele>3.6</ele>
        <time>2024-03-10T07:59:43Z</time>
      </trkpt>
      <trkpt lat="49.27989" lon="-0.13559">
        <ele>3.6</ele>
        <time>2024-03-10T07:59:44Z</time>
      </trkpt>
      <trkpt lat="49.27989" lon="-0.13559">
        <ele>3.6</ele>
        <time>2024-03-10T07:59:45Z</time>
      </trkpt>
      <trkpt lat="49.27989" lon="-0.13559">
        <ele>3.6</ele>
        <time>2024-03-10T07:59:46Z</time>
      </trkpt>
      <trkpt lat="49.27989" lon="-0.13559">
        <ele>3.6</ele>
        <time>2024-03-10T07:59:47Z</time>
      </trkpt>
      <trkpt lat="49.27989" lon="-0.13559">
        <ele>3.6</ele>
        <time>2024-03-10T07:59:48Z</time>
      </trkpt>
      <trkpt lat="49.27989" lon="-0.13559">
        <ele>3.6</ele>
        <time>2024-03-10T07:59:49Z</time>
      </trkpt>
      <trkpt lat="49.27989" lon="-0.13559">
        <ele>3.6</ele>
        <time>2024-03-10T07:59:50Z</time>
      </trkpt>
      <trkpt lat="49.27989" lon="-0.13559">
        <ele>3.6</ele>
        <time>2024-03-10T07:59:51Z</time>
      </trkpt>
      <trkpt lat="49.27989" lon="-0.13559">
        <ele>3.6</ele>
        <time>2024-03-10T07:59:52Z</time>
      </trkpt>
      <trkpt lat="49.27989" lon="-0.13559">
        <ele>3.6</ele>
        <time>2024-03-10T07:59:53Z</time>
      </trkpt>
      <trkpt lat="49.27989" lon="-0.13559">
        <ele>3.6</ele>
        <time>2024-03-10T07:59:54Z</time>
      </trkpt>
      <trkpt lat="49.27989" lon="-0.13559">
        <ele>3.6</ele>
        <time>2024-03-10T07:59:55Z</time>
      </trkpt>
      <trkpt lat="49.27989" lon="-0.13559">
        <ele>3.6</ele>
        <time>2024-03-10T07:59:56Z</time>
      </trkpt>
      <trkpt lat="49.27989" lon="-0.13559">
        <ele>3.6</ele>
        <time>2024-03-10T07:59:57Z</time>
      </trkpt>
      <trkpt lat="49.27989" lon="-0.13559">
        <ele>3.6</ele>
        <time>2024-03-10T07:59:58Z</time>
      </trkpt>
      <trkpt lat="49.27989" lon="-0.13559">
        <ele>3.6</ele>
        <time>2024-03-10T07:59:59Z</time>
      </trkpt>
      <trkpt lat="49.27988" lon="-0.1356">
        <ele>3.7</ele>
        <time>2024-03-10T08:00:00Z</time>
      </trkpt>
      <trkpt lat="49.27987" lon="-0.13561">
        <ele>3.7</ele>
        <time>2024-03-10T08:00:01Z</time>
      </trkpt>
      <trkpt lat="49.27987" lon="-0.13562">
        <ele>3.7</ele>
        <time>2024-03-10T08:00:02Z</time>
      </trkpt>
      <trkpt lat="49.27987" lon="-0.13562">
        <ele>3.7</ele>
        <time>2024-03-10T08:00:03Z</time>
      </trkpt>
      <trkpt lat="49.27987" lon="-0.13562">
        <ele>3.7</ele>
        <time>2024-03-10T08:00:04Z</time>
      </trkpt>
      <trkpt lat="49.27987" lon="-0.13562">
        <ele>3.7</ele>
        <time>2024-03-10T08:00:05Z</time>
      </trkpt>
      <trkpt lat="49.27987" lon="-0.13562">
        <ele>3.7</ele>
        <time>2024-03-10T08:00:06Z</time>
      </trkpt>
      <trkpt lat="49.27987" lon="-0.13562">
        <ele>3.7</ele>
        <time>2024-03-10T08:00:07Z</time>
      </trkpt>
      <trkpt lat="49.27987" lon="-0.13562">
        <ele>3.7</ele>
        <time>2024-03-10T08:00:08Z</time>
      </trkpt>
      <trkpt lat="49.27987" lon="-0.13562">
        <ele>3.7</ele>
        <time>2024-03-10T08:00:09Z</time>
      </trkpt>
      <trkpt lat="49.27987" lon="-0.13562">
        <ele>3.7</ele>
        <time>2024-03-10T08:00:10Z</time>
      </trkpt>
      <trkpt lat="49.27987" lon="-0.13562">
        <ele>3.7</ele>
        <time>2024-03-10T08:00:11Z</time>
      </trkpt>
      <trkpt lat="49.27987" lon="-0.13562">
        <ele>3.7</ele>
        <time>2024-03-10T08:00:12Z</time>
      </trkpt>
      <trkpt lat="49.27987" lon="-0.13562">
        <ele>3.7</ele>
        <time>2024-03-10T08:00:13Z</time>
      </trkpt>
      <trkpt lat="49.27987" lon="-0.13562">
        <ele>3.7</ele>
        <time>2024-03-10T08:00:14Z</time>
      </trkpt>
      <trkpt lat="49.27987" lon="-0.13562">
        <ele>3.7</ele>
        <time>2024-03-10T08:00:15Z</time>
      </trkpt>
      <trkpt lat="49.27987" lon="-0.13562">
        <ele>3.7</ele>
        <time>2024-03-10T08:00:16Z</time>
      </trkpt>
      <trkpt lat="49.27987" lon="-0.13562">
        <ele>3.7</ele>
        <time>2024-03-10T08:00:17Z</time>
      </trkpt>
      <trkpt lat="49.27987" lon="-0.13562">
        <ele>3.7</ele>
        <time>2024-03-10T08:00:18Z</time>
      </trkpt>
      <trkpt lat="49.27987" lon="-0.13562">
        <ele>3.7</ele>
        <time>2024-03-10T08:00:19Z</time>
      </trkpt>
      <trkpt lat="49.27987" lon="-0.13562">
        <ele>3.7</ele>
        <time>2024-03-10T08:00:20Z</time>
      </trkpt>
      <trkpt lat="49.27987" lon="-0.13562">
        <ele>3.7</ele>
        <time>2024-03-10T08:00:21Z</time>
      </trkpt>
      <trkpt lat="49.27987" lon="-0.13562">
        <ele>3.7</ele>
        <time>2024-03-10T08:00:22Z</time>
      </trkpt>
      <trkpt lat="49.27987" lon="-0.13562">
        <ele>3.7</ele>
        <time>2024-03-10T08:00:23Z</time>
      </trkpt>
      <trkpt lat="49.27987" lon="-0.13562">
        <ele>3.7</ele>
        <time>2024-03-10T08:00:24Z</time>
      </trkpt>
      <trkpt lat="49.27987" lon="-0.13562">
        <ele>3.7</ele>
        <time>2024-03-10T08:00:25Z</time>
      </trkpt>
      <trkpt lat="49.27987" lon="-0.13562">
        <ele>3.7</ele>
        <time>2024-03-10T08:00:26Z</time>
      </trkpt>
      <trkpt lat="49.27987" lon="-0.13562">
        <ele>3.7</ele>
        <time>2024-03-10T08:00:27Z</time>
      </trkpt>
      <trkpt lat="49.27987" lon="-0.13562">
        <ele>3.7</ele>
        <time>2024-03-10T08:00:28Z</time>
      </trkpt>
      <trkpt lat="49.27987" lon="-0.13562">
        <ele>3.7</ele>
        <time>2024-03-10T08:00:29Z</time>
      </trkpt>
      <trkpt lat="49.27987" lon="-0.13562">
        <ele>3.7</ele>
        <time>2024-03-10T08:00:30Z</time>
      </trkpt>
      <trkpt lat="49.27987" lon="-0.13562">
        <ele>3.7</ele>
        <time>2024-03-10T08:00:31Z</time>
      </trkpt>
      <trkpt lat="49.27987" lon="-0.13562">
        <ele>3.7</ele>
        <time>2024-03-10T08:00:32Z</time>
      </trkpt>
      <trkpt lat="49.27987" lon="-0.13562">
        <ele>3.7</ele>
        <time>2024-03-10T08:00:33Z</time>
      </trkpt>
      <trkpt lat="49.27987" lon="-0.13562">
        <ele>3.7</ele>
        <time>2024-03-10T08:00:34Z</time>
      </trkpt>
      <trkpt lat="49.27987" lon="-0.13562">
        <ele>3.7</ele>
        <time>2024-03-10T08:00:35Z</time>
      </trkpt>
      <trkpt lat="49.27987" lon="-0.13563">
        <ele>3.7</ele>
        <time>2024-03-10T08:00:36Z</time>
      </trkpt>
      <trkpt lat="49.27987" lon="-0.13563">
        <ele>3.7</ele>
        <time>2024-03-10T08:00:37Z</time>
      </trkpt>
      <trkpt lat="49.27987" lon="-0.13564">
        <ele>3.7</ele>
        <time>2024-03-10T08:00:38Z</time>
      </trkpt>
      <trkpt lat="49.27987" lon="-0.13564">
        <ele>3.7</ele>
        <time>2024-03-10T08:00:39Z</time>
      </trkpt>
      <trkpt lat="49.27986" lon="-0.13564">
        <ele>3.7</ele>
        <time>2024-03-10T08:00:40Z</time>
      </trkpt>
      <trkpt lat="49.27986" lon="-0.13564">
        <ele>3.7</ele>
        <time>2024-03-10T08:00:41Z</time>
      </trkpt>
      <trkpt lat="49.27986" lon="-0.13565">
        <ele>3.7</ele>
        <time>2024-03-10T08:00:42Z</time>
      </trkpt>
      <trkpt lat="49.27986" lon="-0.13565">
        <ele>3.7</ele>
        <time>2024-03-10T08:00:43Z</time>
      </trkpt>
      <trkpt lat="49.27986" lon="-0.13565">
        <ele>3.7</ele>
        <time>2024-03-10T08:00:44Z</time>
      </trkpt>
      <trkpt lat="49.27985" lon="-0.13565">
        <ele>3.7</ele>
        <time>2024-03-10T08:00:45Z</time>
      </trkpt>
      <trkpt lat="49.27985" lon="-0.13566">
        <ele>3.7</ele>
        <time>2024-03-10T08:00:46Z</time>
      </trkpt>
      <trkpt lat="49.27985" lon="-0.13566">
        <ele>3.7</ele>
        <time>2024-03-10T08:00:47Z</time>
      </trkpt>
      <trkpt lat="49.27985" lon="-0.13566">
        <ele>3.7</ele>
        <time>2024-03-10T08:00:48Z</time>
      </trkpt>
      <trkpt lat="49.27985" lon="-0.13566">
        <ele>3.7</ele>
        <time>2024-03-10T08:00:49Z</time>
      </trkpt>
      <trkpt lat="49.27984" lon="-0.13567">
        <ele>3.7</ele>
        <time>2024-03-10T08:00:50Z</time>
      </trkpt>
      <trkpt lat="49.27984" lon="-0.13567">
        <ele>3.7</ele>
        <time>2024-03-10T08:00:51Z</time>
      </trkpt>
      <trkpt lat="49.27983" lon="-0.13567">
        <ele>3.7</ele>
        <time>2024-03-10T08:00:52Z</time>
      </trkpt>
      <trkpt lat="49.27981" lon="-0.13567">
        <ele>3.7</ele>
        <time>2024-03-10T08:00:53Z</time>
      </trkpt>
      <trkpt lat="49.2798" lon="-0.13567">
        <ele>3.7</ele>
        <time>2024-03-10T08:00:54Z</time>
      </trkpt>
      <trkpt lat="49.27978" lon="-0.13566">
        <ele>3.7</ele>
        <time>2024-03-10T08:00:55Z</time>
      </trkpt>
      <trkpt lat="49.27975" lon="-0.13564">
        <ele>3.7</ele>
        <time>2024-03-10T08:00:56Z</time>
      </trkpt>
      <trkpt lat="49.27974" lon="-0.13563">
        <ele>3.7</ele>
        <time>2024-03-10T08:00:57Z</time>
      </trkpt>
      <trkpt lat="49.27972" lon="-0.1356">
        <ele>3.8</ele>
        <time>2024-03-10T08:00:58Z</time>
      </trkpt>
      <trkpt lat="49.27971" lon="-0.13559">
        <ele>3.8</ele>
        <time>2024-03-10T08:00:59Z</time>
      </trkpt>
      <trkpt lat="49.27968" lon="-0.13556">
        <ele>3.8</ele>
        <time>2024-03-10T08:01:00Z</time>
      </trkpt>
      <trkpt lat="49.27967" lon="-0.13555">
        <ele>3.9</ele>
        <time>2024-03-10T08:01:01Z</time>
      </trkpt>
      <trkpt lat="49.27964" lon="-0.13552">
        <ele>3.9</ele>
        <time>2024-03-10T08:01:02Z</time>
      </trkpt>
      <trkpt lat="49.27963" lon="-0.13551">
        <ele>3.9</ele>
        <time>2024-03-10T08:01:03Z</time>
      </trkpt>
      <trkpt lat="49.2796" lon="-0.13549">
        <ele>4</ele>
        <time>2024-03-10T08:01:04Z</time>
      </trkpt>
      <trkpt lat="49.27956" lon="-0.13547">
        <ele>4</ele>
        <time>2024-03-10T08:01:05Z</time>
      </trkpt>
      <trkpt lat="49.27955" lon="-0.13546">
        <ele>4</ele>
        <time>2024-03-10T08:01:06Z</time>
      </trkpt>
      <trkpt lat="49.27953" lon="-0.13543">
        <ele>4</ele>
        <time>2024-03-10T08:01:07Z</time>
      </trkpt>
      <trkpt lat="49.2795" lon="-0.1354">
        <ele>4.1</ele>
        <time>2024-03-10T08:01:08Z</time>
      </trkpt>
      <trkpt lat="49.27948" lon="-0.13536">
        <ele>4.1</ele>
        <time>2024-03-10T08:01:09Z</time>
      </trkpt>
      <trkpt lat="49.27945" lon="-0.13532">
        <ele>4.2</ele>
        <time>2024-03-10T08:01:10Z</time>
      </trkpt>
      <trkpt lat="49.27942" lon="-0.13528">
        <ele>4.3</ele>
        <time>2024-03-10T08:01:11Z</time>
      </trkpt>
      <trkpt lat="49.27939" lon="-0.13523">
        <ele>4.3</ele>
        <time>2024-03-10T08:01:12Z</time>
      </trkpt>
      <trkpt lat="49.27936" lon="-0.13518">
        <ele>4.3</ele>
        <time>2024-03-10T08:01:13Z</time>
      </trkpt>
      <trkpt lat="49.27934" lon="-0.13513">
        <ele>4.2</ele>
        <time>2024-03-10T08:01:14Z</time>
      </trkpt>
      <trkpt lat="49.27931" lon="-0.13509">
        <ele>4.2</ele>
        <time>2024-03-10T08:01:15Z</time>
      </trkpt>
      <trkpt lat="49.27929" lon="-0.13506">
        <ele>4.1</ele>
        <time>2024-03-10T08:01:16Z</time>
      </trkpt>
      <trkpt lat="49.27926" lon="-0.13502">
        <ele>4.1</ele>
        <time>2024-03-10T08:01:17Z</time>
      </trkpt>
      <trkpt lat="49.27923" lon="-0.13498">
        <ele>4.1</ele>
        <time>2024-03-10T08:01:18Z</time>
      </trkpt>
      <trkpt lat="49.2792" lon="-0.13495">
        <ele>4</ele>
        <time>2024-03-10T08:01:19Z</time>
      </trkpt>
      <trkpt lat="49.27917" lon="-0.13491">
        <ele>4</ele>
        <time>2024-03-10T08:01:20Z</time>
      </trkpt>
      <trkpt lat="49.27914" lon="-0.13488">
        <ele>4</ele>
        <time>2024-03-10T08:01:21Z</time>
      </trkpt>
      <trkpt lat="49.27911" lon="-0.13485">
        <ele>4</ele>
        <time>2024-03-10T08:01:22Z</time>
      </trkpt>
      <trkpt lat="49.27907" lon="-0.13481">
        <ele>3.9</ele>
        <time>2024-03-10T08:01:23Z</time>
      </trkpt>
      <trkpt lat="49.27904" lon="-0.13478">
        <ele>3.9</ele>
        <time>2024-03-10T08:01:24Z</time>
      </trkpt>
      <trkpt lat="49.279" lon="-0.13474">
        <ele>3.9</ele>
        <time>2024-03-10T08:01:25Z</time>
      </trkpt>
      <trkpt lat="49.27897" lon="-0.1347">
        <ele>3.8</ele>
        <time>2024-03-10T08:01:26Z</time>
      </trkpt>
      <trkpt lat="49.27894" lon="-0.13466">
        <ele>3.8</ele>
        <time>2024-03-10T08:01:27Z</time>
      </trkpt>
      <trkpt lat="49.2789" lon="-0.13463">
        <ele>3.8</ele>
        <time>2024-03-10T08:01:28Z</time>
      </trkpt>
      <trkpt lat="49.27886" lon="-0.13459">
        <ele>3.8</ele>
        <time>2024-03-10T08:01:29Z</time>
      </trkpt>
      <trkpt lat="49.27883" lon="-0.13455">
        <ele>3.8</ele>
        <time>2024-03-10T08:01:30Z</time>
      </trkpt>
      <trkpt lat="49.27879" lon="-0.13452">
        <ele>3.8</ele>
        <time>2024-03-10T08:01:31Z</time>
      </trkpt>
      <trkpt lat="49.27876" lon="-0.13448">
        <ele>3.8</ele>
        <time>2024-03-10T08:01:32Z</time>
      </trkpt>
      <trkpt lat="49.27872" lon="-0.13445">
        <ele>3.8</ele>
        <time>2024-03-10T08:01:33Z</time>
      </trkpt>
      <trkpt lat="49.27869" lon="-0.13441">
        <ele>3.8</ele>
        <time>2024-03-10T08:01:34Z</time>
      </trkpt>
      <trkpt lat="49.27865" lon="-0.13437">
        <ele>3.8</ele>
        <time>2024-03-10T08:01:35Z</time>
      </trkpt>
      <trkpt lat="49.27862" lon="-0.13434">
        <ele>3.8</ele>
        <time>2024-03-10T08:01:36Z</time>
      </trkpt>
      <trkpt lat="49.27859" lon="-0.1343">
        <ele>3.8</ele>
        <time>2024-03-10T08:01:37Z</time>
      </trkpt>
      <trkpt lat="49.27856" lon="-0.13427">
        <ele>3.8</ele>
        <time>2024-03-10T08:01:38Z</time>
      </trkpt>
      <trkpt lat="49.27854" lon="-0.13424">
        <ele>3.8</ele>
        <time>2024-03-10T08:01:39Z</time>
      </trkpt>
      <trkpt lat="49.27851" lon="-0.13422">
        <ele>3.8</ele>
        <time>2024-03-10T08:01:40Z</time>
      </trkpt>
      <trkpt lat="49.27849" lon="-0.13418">
        <ele>3.9</ele>
        <time>2024-03-10T08:01:41Z</time>
      </trkpt>
      <trkpt lat="49.27847" lon="-0.13417">
        <ele>3.9</ele>
        <time>2024-03-10T08:01:42Z</time>
      </trkpt>
      <trkpt lat="49.27846" lon="-0.13413">
        <ele>3.9</ele>
        <time>2024-03-10T08:01:43Z</time>
      </trkpt>
      <trkpt lat="49.27845" lon="-0.13409">
        <ele>3.9</ele>
        <time>2024-03-10T08:01:44Z</time>
      </trkpt>
      <trkpt lat="49.27844" lon="-0.13404">
        <ele>3.9</ele>
        <time>2024-03-10T08:01:45Z</time>
      </trkpt>
      <trkpt lat="49.27844" lon="-0.13399">
        <ele>3.9</ele>
        <time>2024-03-10T08:01:46Z</time>
      </trkpt>
      <trkpt lat="49.27844" lon="-0.13394">
        <ele>4</ele>
        <time>2024-03-10T08:01:47Z</time>
      </trkpt>
      <trkpt lat="49.27844" lon="-0.1339">
        <ele>4</ele>
        <time>2024-03-10T08:01:48Z</time>
      </trkpt>
      <trkpt lat="49.27844" lon="-0.13385">
        <ele>4</ele>
        <time>2024-03-10T08:01:49Z</time>
      </trkpt>
      <trkpt lat="49.27843" lon="-0.1338">
        <ele>4</ele>
        <time>2024-03-10T08:01:50Z</time>
      </trkpt>
      <trkpt lat="49.27841" lon="-0.13375">
        <ele>4.1</ele>
        <time>2024-03-10T08:01:51Z</time>
      </trkpt>
      <trkpt lat="49.27839" lon="-0.13369">
        <ele>4.1</ele>
        <time>2024-03-10T08:01:52Z</time>
      </trkpt>
      <trkpt lat="49.27837" lon="-0.13364">
        <ele>4</ele>
        <time>2024-03-10T08:01:53Z</time>
      </trkpt>
      <trkpt lat="49.27836" lon="-0.13359">
        <ele>4</ele>
        <time>2024-03-10T08:01:54Z</time>
      </trkpt>
      <trkpt lat="49.27833" lon="-0.13353">
        <ele>4</ele>
        <time>2024-03-10T08:01:55Z</time>
      </trkpt>
      <trkpt lat="49.27831" lon="-0.13347">
        <ele>4</ele>
        <time>2024-03-10T08:01:56Z</time>
      </trkpt>
      <trkpt lat="49.27828" lon="-0.13341">
        <ele>4.1</ele>
        <time>2024-03-10T08:01:57Z</time>
      </trkpt>
      <trkpt lat="49.27825" lon="-0.13336">
        <ele>4.1</ele>
        <time>2024-03-10T08:01:58Z</time>
      </trkpt>
      <trkpt lat="49.27821" lon="-0.13331">
        <ele>4.2</ele>
        <time>2024-03-10T08:01:59Z</time>
      </trkpt>
      <trkpt lat="49.27817" lon="-0.13327">
        <ele>4.2</ele>
        <time>2024-03-10T08:02:00Z</time>
      </trkpt>
      <trkpt lat="49.27813" lon="-0.13323">
        <ele>4.3</ele>
        <time>2024-03-10T08:02:01Z</time>
      </trkpt>
      <trkpt lat="49.27808" lon="-0.13318">
        <ele>4.3</ele>
        <time>2024-03-10T08:02:02Z</time>
      </trkpt>
      <trkpt lat="49.27804" lon="-0.13314">
        <ele>4.4</ele>
        <time>2024-03-10T08:02:03Z</time>
      </trkpt>
      <trkpt lat="49.278" lon="-0.1331">
        <ele>4.4</ele>
        <time>2024-03-10T08:02:04Z</time>
      </trkpt>
      <trkpt lat="49.27797" lon="-0.13306">
        <ele>4.4</ele>
        <time>2024-03-10T08:02:05Z</time>
      </trkpt>
      <trkpt lat="49.27792" lon="-0.13302">
        <ele>4.4</ele>
        <time>2024-03-10T08:02:06Z</time>
      </trkpt>
      <trkpt lat="49.27788" lon="-0.13298">
        <ele>4.4</ele>
        <time>2024-03-10T08:02:07Z</time>
      </trkpt>
      <trkpt lat="49.27784" lon="-0.13294">
        <ele>4.3</ele>
        <time>2024-03-10T08:02:08Z</time>
      </trkpt>
      <trkpt lat="49.2778" lon="-0.13289">
        <ele>4.3</ele>
        <time>2024-03-10T08:02:09Z</time>
      </trkpt>
      <trkpt lat="49.27776" lon="-0.13285">
        <ele>4.3</ele>
        <time>2024-03-10T08:02:10Z</time>
      </trkpt>
      <trkpt lat="49.27772" lon="-0.13281">
        <ele>4.3</ele>
        <time>2024-03-10T08:02:11Z</time>
      </trkpt>
      <trkpt lat="49.27768" lon="-0.13277">
        <ele>4.3</ele>
        <time>2024-03-10T08:02:12Z</time>
      </trkpt>
      <trkpt lat="49.27763" lon="-0.13273">
        <ele>4.3</ele>
        <time>2024-03-10T08:02:13Z</time>
      </trkpt>
      <trkpt lat="49.27759" lon="-0.13269">
        <ele>4.3</ele>
        <time>2024-03-10T08:02:14Z</time>
      </trkpt>
      <trkpt lat="49.27755" lon="-0.13265">
        <ele>4.3</ele>
        <time>2024-03-10T08:02:15Z</time>
      </trkpt>
      <trkpt lat="49.27751" lon="-0.1326">
        <ele>4.3</ele>
        <time>2024-03-10T08:02:16Z</time>
      </trkpt>
      <trkpt lat="49.27747" lon="-0.13256">
        <ele>4.2</ele>
        <time>2024-03-10T08:02:17Z</time>
      </trkpt>
      <trkpt lat="49.27743" lon="-0.13252">
        <ele>4.2</ele>
        <time>2024-03-10T08:02:18Z</time>
      </trkpt>
      <trkpt lat="49.27739" lon="-0.13248">
        <ele>4.2</ele>
        <time>2024-03-10T08:02:19Z</time>
      </trkpt>
      <trkpt lat="49.27735" lon="-0.13244">
        <ele>4.2</ele>
        <time>2024-03-10T08:02:20Z</time>
      </trkpt>
      <trkpt lat="49.27731" lon="-0.13239">
        <ele>4.2</ele>
        <time>2024-03-10T08:02:21Z</time>
      </trkpt>
      <trkpt lat="49.27727" lon="-0.13235">
        <ele>4.2</ele>
        <time>2024-03-10T08:02:22Z</time>
      </trkpt>
      <trkpt lat="49.27723" lon="-0.1323">
        <ele>4.2</ele>
        <time>2024-03-10T08:02:23Z</time>
      </trkpt>
      <trkpt lat="49.27719" lon="-0.13225">
        <ele>4.2</ele>
        <time>2024-03-10T08:02:24Z</time>
      </trkpt>
      <trkpt lat="49.27714" lon="-0.13219">
        <ele>4.2</ele>
        <time>2024-03-10T08:02:25Z</time>
      </trkpt>
      <trkpt lat="49.2771" lon="-0.13214">
        <ele>4.2</ele>
        <time>2024-03-10T08:02:26Z</time>
      </trkpt>
      <trkpt lat="49.27706" lon="-0.13208">
        <ele>4.2</ele>
        <time>2024-03-10T08:02:27Z</time>
      </trkpt>
      <trkpt lat="49.27702" lon="-0.13203">
        <ele>4.2</ele>
        <time>2024-03-10T08:02:28Z</time>
      </trkpt>
      <trkpt lat="49.27698" lon="-0.13198">
        <ele>4.2</ele>
        <time>2024-03-10T08:02:29Z</time>
      </trkpt>
      <trkpt lat="49.27693" lon="-0.13192">
        <ele>4.2</ele>
        <time>2024-03-10T08:02:30Z</time>
      </trkpt>
      <trkpt lat="49.27689" lon="-0.13187">
        <ele>4.2</ele>
        <time>2024-03-10T08:02:31Z</time>
      </trkpt>
      <trkpt lat="49.27685" lon="-0.13182">
        <ele>4.2</ele>
        <time>2024-03-10T08:02:32Z</time>
      </trkpt>
      <trkpt lat="49.2768" lon="-0.13176">
        <ele>4.2</ele>
        <time>2024-03-10T08:02:33Z</time>
      </trkpt>
      <trkpt lat="49.27677" lon="-0.1317">
        <ele>4.2</ele>
        <time>2024-03-10T08:02:34Z</time>
      </trkpt>
      <trkpt lat="49.27673" lon="-0.13165">
        <ele>4.2</ele>
        <time>2024-03-10T08:02:35Z</time>
      </trkpt>
      <trkpt lat="49.27669" lon="-0.1316">
        <ele>4.2</ele>
        <time>2024-03-10T08:02:36Z</time>
      </trkpt>
      <trkpt lat="49.27665" lon="-0.13154">
        <ele>4.2</ele>
        <time>2024-03-10T08:02:37Z</time>
      </trkpt>
      <trkpt lat="49.27661" lon="-0.13148">
        <ele>4.3</ele>
        <time>2024-03-10T08:02:38Z</time>
      </trkpt>
      <trkpt lat="49.27657" lon="-0.13142">
        <ele>4.3</ele>
        <time>2024-03-10T08:02:39Z</time>
      </trkpt>
      <trkpt lat="49.27654" lon="-0.13136">
        <ele>4.3</ele>
        <time>2024-03-10T08:02:40Z</time>
      </trkpt>
      <trkpt lat="49.2765" lon="-0.1313">
        <ele>4.3</ele>
        <time>2024-03-10T08:02:41Z</time>
      </trkpt>
      <trkpt lat="49.27646" lon="-0.13124">
        <ele>4.4</ele>
        <time>2024-03-10T08:02:42Z</time>
      </trkpt>
      <trkpt lat="49.27642" lon="-0.13118">
        <ele>4.4</ele>
        <time>2024-03-10T08:02:43Z</time>
      </trkpt>
      <trkpt lat="49.27638" lon="-0.13112">
        <ele>4.4</ele>
        <time>2024-03-10T08:02:44Z</time>
      </trkpt>
      <trkpt lat="49.27635" lon="-0.13105">
        <ele>4.4</ele>
        <time>2024-03-10T08:02:45Z</time>
      </trkpt>
      <trkpt lat="49.27632" lon="-0.13099">
        <ele>4.5</ele>
        <time>2024-03-10T08:02:46Z</time>
      </trkpt>
      <trkpt lat="49.27628" lon="-0.13092">
        <ele>4.5</ele>
        <time>2024-03-10T08:02:47Z</time>
      </trkpt>
      <trkpt lat="49.27625" lon="-0.13086">
        <ele>4.5</ele>
        <time>2024-03-10T08:02:48Z</time>
      </trkpt>
      <trkpt lat="49.27621" lon="-0.1308">
        <ele>4.6</ele>
        <time>2024-03-10T08:02:49Z</time>
      </trkpt>
      <trkpt lat="49.27618" lon="-0.13074">
        <ele>4.6</ele>
        <time>2024-03-10T08:02:50Z</time>
      </trkpt>
      <trkpt lat="49.27614" lon="-0.13067">
        <ele>4.6</ele>
        <time>2024-03-10T08:02:51Z</time>
      </trkpt>
      <trkpt lat="49.2761" lon="-0.13061">
        <ele>4.6</ele>
        <time>2024-03-10T08:02:52Z</time>
      </trkpt>
      <trkpt lat="49.27607" lon="-0.13055">
        <ele>4.6</ele>
        <time>2024-03-10T08:02:53Z</time>
      </trkpt>
      <trkpt lat="49.27603" lon="-0.13049">
        <ele>4.6</ele>
        <time>2024-03-10T08:02:54Z</time>
      </trkpt>
      <trkpt lat="49.27599" lon="-0.13042">
        <ele>4.7</ele>
        <time>2024-03-10T08:02:55Z</time>
      </trkpt>
      <trkpt lat="49.27596" lon="-0.13036">
        <ele>4.7</ele>
        <time>2024-03-10T08:02:56Z</time>
      </trkpt>
      <trkpt lat="49.27593" lon="-0.1303">
        <ele>4.8</ele>
        <time>2024-03-10T08:02:57Z</time>
      </trkpt>
      <trkpt lat="49.2759" lon="-0.13023">
        <ele>4.8</ele>
        <time>2024-03-10T08:02:58Z</time>
      </trkpt>
      <trkpt lat="49.27587" lon="-0.13017">
        <ele>4.9</ele>
        <time>2024-03-10T08:02:59Z</time>
      </trkpt>
      <trkpt lat="49.27584" lon="-0.13011">
        <ele>4.9</ele>
        <time>2024-03-10T08:03:00Z</time>
      </trkpt>
      <trkpt lat="49.27581" lon="-0.13005">
        <ele>4.9</ele>
        <time>2024-03-10T08:03:01Z</time>
      </trkpt>
      <trkpt lat="49.27578" lon="-0.12999">
        <ele>5</ele>
        <time>2024-03-10T08:03:02Z</time>
      </trkpt>
      <trkpt lat="49.27575" lon="-0.12993">
        <ele>5.1</ele>
        <time>2024-03-10T08:03:03Z</time>
      </trkpt>
      <trkpt lat="49.27573" lon="-0.12987">
        <ele>5.2</ele>
        <time>2024-03-10T08:03:04Z</time>
      </trkpt>
      <trkpt lat="49.27569" lon="-0.1298">
        <ele>5.2</ele>
        <time>2024-03-10T08:03:05Z</time>
      </trkpt>
      <trkpt lat="49.27566" lon="-0.12974">
        <ele>5.3</ele>
        <time>2024-03-10T08:03:06Z</time>
      </trkpt>
      <trkpt lat="49.27563" lon="-0.12966">
        <ele>5.3</ele>
        <time>2024-03-10T08:03:07Z</time>
      </trkpt>
      <trkpt lat="49.27561" lon="-0.12959">
        <ele>5.3</ele>
        <time>2024-03-10T08:03:08Z</time>
      </trkpt>
      <trkpt lat="49.27557" lon="-0.12951">
        <ele>5.3</ele>
        <time>2024-03-10T08:03:09Z</time>
      </trkpt>
      <trkpt lat="49.27554" lon="-0.12943">
        <ele>5.3</ele>
        <time>2024-03-10T08:03:10Z</time>
      </trkpt>
      <trkpt lat="49.2755" lon="-0.12935">
        <ele>5.3</ele>
        <time>2024-03-10T08:03:11Z</time>
      </trkpt>
      <trkpt lat="49.27547" lon="-0.12927">
        <ele>5.2</ele>
        <time>2024-03-10T08:03:12Z</time>
      </trkpt>
      <trkpt lat="49.27543" lon="-0.12918">
        <ele>5.2</ele>
        <time>2024-03-10T08:03:13Z</time>
      </trkpt>
      <trkpt lat="49.2754" lon="-0.12909">
        <ele>5.2</ele>
        <time>2024-03-10T08:03:14Z</time>
      </trkpt>
      <trkpt lat="49.27536" lon="-0.129">
        <ele>5.2</ele>
        <time>2024-03-10T08:03:15Z</time>
      </trkpt>
      <trkpt lat="49.27533" lon="-0.12892">
        <ele>5.1</ele>
        <time>2024-03-10T08:03:16Z</time>
      </trkpt>
      <trkpt lat="49.2753" lon="-0.12882">
        <ele>5.1</ele>
        <time>2024-03-10T08:03:17Z</time>
      </trkpt>
      <trkpt lat="49.27527" lon="-0.12872">
        <ele>5.1</ele>
        <time>2024-03-10T08:03:18Z</time>
      </trkpt>
      <trkpt lat="49.27523" lon="-0.12863">
        <ele>5.1</ele>
        <time>2024-03-10T08:03:19Z</time>
      </trkpt>
      <trkpt lat="49.27519" lon="-0.12853">
        <ele>5</ele>
        <time>2024-03-10T08:03:20Z</time>
      </trkpt>
      <trkpt lat="49.27516" lon="-0.12843">
        <ele>5</ele>
        <time>2024-03-10T08:03:21Z</time>
      </trkpt>
      <trkpt lat="49.27512" lon="-0.12833">
        <ele>4.9</ele>
        <time>2024-03-10T08:03:22Z</time>
      </trkpt>
      <trkpt lat="49.27508" lon="-0.12822">
        <ele>4.9</ele>
        <time>2024-03-10T08:03:23Z</time>
      </trkpt>
      <trkpt lat="49.27504" lon="-0.1281">
        <ele>4.8</ele>
        <time>2024-03-10T08:03:24Z</time>
      </trkpt>
      <trkpt lat="49.27501" lon="-0.12799">
        <ele>4.8</ele>
        <time>2024-03-10T08:03:25Z</time>
      </trkpt>
      <trkpt lat="49.27497" lon="-0.12787">
        <ele>4.7</ele>
        <time>2024-03-10T08:03:26Z</time>
      </trkpt>
      <trkpt lat="49.27494" lon="-0.12776">
        <ele>4.6</ele>
        <time>2024-03-10T08:03:27Z</time>
      </trkpt>
      <trkpt lat="49.2749" lon="-0.12764">
        <ele>4.6</ele>
        <time>2024-03-10T08:03:28Z</time>
      </trkpt>
      <trkpt lat="49.27487" lon="-0.12753">
        <ele>4.5</ele>
        <time>2024-03-10T08:03:29Z</time>
      </trkpt>
      <trkpt lat="49.27484" lon="-0.12742">
        <ele>4.4</ele>
        <time>2024-03-10T08:03:30Z</time>
      </trkpt>
      <trkpt lat="49.27481" lon="-0.12732">
        <ele>4.4</ele>
        <time>2024-03-10T08:03:31Z</time>
      </trkpt>
      <trkpt lat="49.27477" lon="-0.1272">
        <ele>4.3</ele>
        <time>2024-03-10T08:03:32Z</time>
      </trkpt>
      <trkpt lat="49.27474" lon="-0.1271">
        <ele>4.3</ele>
        <time>2024-03-10T08:03:33Z</time>
      </trkpt>
      <trkpt lat="49.27472" lon="-0.12699">
        <ele>4.2</ele>
        <time>2024-03-10T08:03:34Z</time>
      </trkpt>
      <trkpt lat="49.27469" lon="-0.12688">
        <ele>4.2</ele>
        <time>2024-03-10T08:03:35Z</time>
      </trkpt>
      <trkpt lat="49.27466" lon="-0.12677">
        <ele>4.2</ele>
        <time>2024-03-10T08:03:36Z</time>
      </trkpt>
      <trkpt lat="49.27464" lon="-0.12666">
        <ele>4.2</ele>
        <time>2024-03-10T08:03:37Z</time>
      </trkpt>
      <trkpt lat="49.27462" lon="-0.12655">
        <ele>4.2</ele>
        <time>2024-03-10T08:03:38Z</time>
      </trkpt>
      <trkpt lat="49.2746" lon="-0.12644">
        <ele>4.2</ele>
        <time>2024-03-10T08:03:39Z</time>
      </trkpt>
      <trkpt lat="49.27458" lon="-0.12633">
        <ele>4.2</ele>
        <time>2024-03-10T08:03:40Z</time>
      </trkpt>
      <trkpt lat="49.27456" lon="-0.12622">
        <ele>4.2</ele>
        <time>2024-03-10T08:03:41Z</time>
      </trkpt>
      <trkpt lat="49.27453" lon="-0.12611">
        <ele>4.1</ele>
        <time>2024-03-10T08:03:42Z</time>
      </trkpt>
      <trkpt lat="49.27451" lon="-0.12601">
        <ele>4.1</ele>
        <time>2024-03-10T08:03:43Z</time>
      </trkpt>
      <trkpt lat="49.27449" lon="-0.1259">
        <ele>4.1</ele>
        <time>2024-03-10T08:03:44Z</time>
      </trkpt>
      <trkpt lat="49.27446" lon="-0.12579">
        <ele>4.1</ele>
        <time>2024-03-10T08:03:45Z</time>
      </trkpt>
      <trkpt lat="49.27444" lon="-0.12568">
        <ele>4</ele>
        <time>2024-03-10T08:03:46Z</time>
      </trkpt>
      <trkpt lat="49.27442" lon="-0.12557">
        <ele>4</ele>
        <time>2024-03-10T08:03:47Z</time>
      </trkpt>
      <trkpt lat="49.27441" lon="-0.12547">
        <ele>4</ele>
        <time>2024-03-10T08:03:48Z</time>
      </trkpt>
      <trkpt lat="49.27439" lon="-0.12536">
        <ele>4</ele>
        <time>2024-03-10T08:03:49Z</time>
      </trkpt>
      <trkpt lat="49.27437" lon="-0.12525">
        <ele>4</ele>
        <time>2024-03-10T08:03:50Z</time>
      </trkpt>
      <trkpt lat="49.27435" lon="-0.12514">
        <ele>4</ele>
        <time>2024-03-10T08:03:51Z</time>
      </trkpt>
      <trkpt lat="49.27433" lon="-0.12504">
        <ele>4</ele>
        <time>2024-03-10T08:03:52Z</time>
      </trkpt>
      <trkpt lat="49.27432" lon="-0.12492">
        <ele>4</ele>
        <time>2024-03-10T08:03:53Z</time>
      </trkpt>
      <trkpt lat="49.27431" lon="-0.12481">
        <ele>4</ele>
        <time>2024-03-10T08:03:54Z</time>
      </trkpt>
      <trkpt lat="49.27429" lon="-0.1247">
        <ele>4</ele>
        <time>2024-03-10T08:03:55Z</time>
      </trkpt>
      <trkpt lat="49.27428" lon="-0.12458">
        <ele>4</ele>
        <time>2024-03-10T08:03:56Z</time>
      </trkpt>
      <trkpt lat="49.27427" lon="-0.12447">
        <ele>4</ele>
        <time>2024-03-10T08:03:57Z</time>
      </trkpt>
      <trkpt lat="49.27426" lon="-0.12434">
        <ele>4</ele>
        <time>2024-03-10T08:03:58Z</time>
      </trkpt>
      <trkpt lat="49.27425" lon="-0.12422">
        <ele>4</ele>
        <time>2024-03-10T08:03:59Z</time>
      </trkpt>
      <trkpt lat="49.27424" lon="-0.1241">
        <ele>4</ele>
        <time>2024-03-10T08:04:00Z</time>
      </trkpt>
      <trkpt lat="49.27423" lon="-0.12398">
        <ele>4</ele>
        <time>2024-03-10T08:04:01Z</time>
      </trkpt>
      <trkpt lat="49.27422" lon="-0.12386">
        <ele>4</ele>
        <time>2024-03-10T08:04:02Z</time>
      </trkpt>
      <trkpt lat="49.27421" lon="-0.12375">
        <ele>4</ele>
        <time>2024-03-10T08:04:03Z</time>
      </trkpt>
      <trkpt lat="49.2742" lon="-0.12364">
        <ele>4</ele>
        <time>2024-03-10T08:04:04Z</time>
      </trkpt>
      <trkpt lat="49.27419" lon="-0.12353">
        <ele>4</ele>
        <time>2024-03-10T08:04:05Z</time>
      </trkpt>
      <trkpt lat="49.27418" lon="-0.12341">
        <ele>4</ele>
        <time>2024-03-10T08:04:06Z</time>
      </trkpt>
      <trkpt lat="49.27418" lon="-0.1233">
        <ele>4</ele>
        <time>2024-03-10T08:04:07Z</time>
      </trkpt>
      <trkpt lat="49.27417" lon="-0.12319">
        <ele>4</ele>
        <time>2024-03-10T08:04:08Z</time>
      </trkpt>
      <trkpt lat="49.27417" lon="-0.12308">
        <ele>4</ele>
        <time>2024-03-10T08:04:09Z</time>
      </trkpt>
      <trkpt lat="49.27416" lon="-0.12297">
        <ele>4.1</ele>
        <time>2024-03-10T08:04:10Z</time>
      </trkpt>
      <trkpt lat="49.27415" lon="-0.12286">
        <ele>4.1</ele>
        <time>2024-03-10T08:04:11Z</time>
      </trkpt>
      <trkpt lat="49.27415" lon="-0.12275">
        <ele>4.1</ele>
        <time>2024-03-10T08:04:12Z</time>
      </trkpt>
      <trkpt lat="49.27414" lon="-0.12264">
        <ele>4.1</ele>
        <time>2024-03-10T08:04:13Z</time>
      </trkpt>
      <trkpt lat="49.27413" lon="-0.12252">
        <ele>4</ele>
        <time>2024-03-10T08:04:14Z</time>
      </trkpt>
      <trkpt lat="49.27413" lon="-0.12241">
        <ele>4</ele>
        <time>2024-03-10T08:04:15Z</time>
      </trkpt>
      <trkpt lat="49.27413" lon="-0.1223">
        <ele>4</ele>
        <time>2024-03-10T08:04:16Z</time>
      </trkpt>
      <trkpt lat="49.27412" lon="-0.12219">
        <ele>4.1</ele>
        <time>2024-03-10T08:04:17Z</time>
      </trkpt>
      <trkpt lat="49.27412" lon="-0.12208">
        <ele>4.1</ele>
        <time>2024-03-10T08:04:18Z</time>
      </trkpt>
      <trkpt lat="49.27411" lon="-0.12197">
        <ele>4.1</ele>
        <time>2024-03-10T08:04:19Z</time>
      </trkpt>
      <trkpt lat="49.27411" lon="-0.12186">
        <ele>4.1</ele>
        <time>2024-03-10T08:04:20Z</time>
      </trkpt>
      <trkpt lat="49.27411" lon="-0.12175">
        <ele>4.2</ele>
        <time>2024-03-10T08:04:21Z</time>
      </trkpt>
      <trkpt lat="49.2741" lon="-0.12164">
        <ele>4.3</ele>
        <time>2024-03-10T08:04:22Z</time>
      </trkpt>
      <trkpt lat="49.2741" lon="-0.12153">
        <ele>4.4</ele>
        <time>2024-03-10T08:04:23Z</time>
      </trkpt>
      <trkpt lat="49.2741" lon="-0.12143">
        <ele>4.5</ele>
        <time>2024-03-10T08:04:24Z</time>
      </trkpt>
      <trkpt lat="49.2741" lon="-0.12132">
        <ele>4.5</ele>
        <time>2024-03-10T08:04:25Z</time>
      </trkpt>
      <trkpt lat="49.2741" lon="-0.12122">
        <ele>4.6</ele>
        <time>2024-03-10T08:04:26Z</time>
      </trkpt>
      <trkpt lat="49.2741" lon="-0.12112">
        <ele>4.6</ele>
        <time>2024-03-10T08:04:27Z</time>
      </trkpt>
      <trkpt lat="49.2741" lon="-0.12102">
        <ele>4.6</ele>
        <time>2024-03-10T08:04:28Z</time>
      </trkpt>
      <trkpt lat="49.2741" lon="-0.12091">
        <ele>4.6</ele>
        <time>2024-03-10T08:04:29Z</time>
      </trkpt>
      <trkpt lat="49.2741" lon="-0.12081">
        <ele>4.6</ele>
        <time>2024-03-10T08:04:30Z</time>
      </trkpt>
      <trkpt lat="49.2741" lon="-0.12071">
        <ele>4.6</ele>
        <time>2024-03-10T08:04:31Z</time>
      </trkpt>
      <trkpt lat="49.27409" lon="-0.12061">
        <ele>4.6</ele>
        <time>2024-03-10T08:04:32Z</time>
      </trkpt>
      <trkpt lat="49.27409" lon="-0.12051">
        <ele>4.6</ele>
        <time>2024-03-10T08:04:33Z</time>
      </trkpt>
      <trkpt lat="49.27409" lon="-0.1204">
        <ele>4.6</ele>
        <time>2024-03-10T08:04:34Z</time>
      </trkpt>
      <trkpt lat="49.27409" lon="-0.1203">
        <ele>4.6</ele>
        <time>2024-03-10T08:04:35Z</time>
      </trkpt>
      <trkpt lat="49.27409" lon="-0.12019">
        <ele>4.6</ele>
        <time>2024-03-10T08:04:36Z</time>
      </trkpt>
      <trkpt lat="49.27409" lon="-0.12008">
        <ele>4.6</ele>
        <time>2024-03-10T08:04:37Z</time>
      </trkpt>
      <trkpt lat="49.27409" lon="-0.11997">
        <ele>4.6</ele>
        <time>2024-03-10T08:04:38Z</time>
      </trkpt>
      <trkpt lat="49.2741" lon="-0.11986">
        <ele>4.6</ele>
        <time>2024-03-10T08:04:39Z</time>
      </trkpt>
      <trkpt lat="49.2741" lon="-0.11976">
        <ele>4.6</ele>
        <time>2024-03-10T08:04:40Z</time>
      </trkpt>
      <trkpt lat="49.2741" lon="-0.11965">
        <ele>4.6</ele>
        <time>2024-03-10T08:04:41Z</time>
      </trkpt>
      <trkpt lat="49.2741" lon="-0.11955">
        <ele>4.6</ele>
        <time>2024-03-10T08:04:42Z</time>
      </trkpt>
      <trkpt lat="49.2741" lon="-0.11944">
        <ele>4.6</ele>
        <time>2024-03-10T08:04:43Z</time>
      </trkpt>
      <trkpt lat="49.2741" lon="-0.11934">
        <ele>4.7</ele>
        <time>2024-03-10T08:04:44Z</time>
      </trkpt>
      <trkpt lat="49.27411" lon="-0.11923">
        <ele>4.7</ele>
        <time>2024-03-10T08:04:45Z</time>
      </trkpt>
      <trkpt lat="49.27411" lon="-0.11913">
        <ele>4.7</ele>
        <time>2024-03-10T08:04:46Z</time>
      </trkpt>
      <trkpt lat="49.27411" lon="-0.11902">
        <ele>4.7</ele>
        <time>2024-03-10T08:04:47Z</time>
      </trkpt>
      <trkpt lat="49.27411" lon="-0.11891">
        <ele>4.7</ele>
        <time>2024-03-10T08:04:48Z</time>
      </trkpt>
      <trkpt lat="49.27412" lon="-0.1188">
        <ele>4.7</ele>
        <time>2024-03-10T08:04:49Z</time>
      </trkpt>
      <trkpt lat="49.27412" lon="-0.1187">
        <ele>4.7</ele>
        <time>2024-03-10T08:04:50Z</time>
      </trkpt>
      <trkpt lat="49.27412" lon="-0.11859">
        <ele>4.7</ele>
        <time>2024-03-10T08:04:51Z</time>
      </trkpt>
      <trkpt lat="49.27412" lon="-0.1185">
        <ele>4.7</ele>
        <time>2024-03-10T08:04:52Z</time>
      </trkpt>
      <trkpt lat="49.27412" lon="-0.11839">
        <ele>4.7</ele>
        <time>2024-03-10T08:04:53Z</time>
      </trkpt>
      <trkpt lat="49.27413" lon="-0.11828">
        <ele>4.7</ele>
        <time>2024-03-10T08:04:54Z</time>
      </trkpt>
      <trkpt lat="49.27413" lon="-0.11818">
        <ele>4.7</ele>
        <time>2024-03-10T08:04:55Z</time>
      </trkpt>
      <trkpt lat="49.27413" lon="-0.11807">
        <ele>4.7</ele>
        <time>2024-03-10T08:04:56Z</time>
      </trkpt>
      <trkpt lat="49.27414" lon="-0.11796">
        <ele>4.7</ele>
        <time>2024-03-10T08:04:57Z</time>
      </trkpt>
      <trkpt lat="49.27414" lon="-0.11785">
        <ele>4.7</ele>
        <time>2024-03-10T08:04:58Z</time>
      </trkpt>
      <trkpt lat="49.27414" lon="-0.11774">
        <ele>4.7</ele>
        <time>2024-03-10T08:04:59Z</time>
      </trkpt>
      <trkpt lat="49.27414" lon="-0.11764">
        <ele>4.7</ele>
        <time>2024-03-10T08:05:00Z</time>
      </trkpt>
      <trkpt lat="49.27415" lon="-0.11753">
        <ele>4.7</ele>
        <time>2024-03-10T08:05:01Z</time>
      </trkpt>
      <trkpt lat="49.27415" lon="-0.11742">
        <ele>4.7</ele>
        <time>2024-03-10T08:05:02Z</time>
      </trkpt>
      <trkpt lat="49.27415" lon="-0.11732">
        <ele>4.7</ele>
        <time>2024-03-10T08:05:03Z</time>
      </trkpt>
      <trkpt lat="49.27415" lon="-0.11721">
        <ele>4.7</ele>
        <time>2024-03-10T08:05:04Z</time>
      </trkpt>
      <trkpt lat="49.27415" lon="-0.11711">
        <ele>4.7</ele>
        <time>2024-03-10T08:05:05Z</time>
      </trkpt>
      <trkpt lat="49.27416" lon="-0.11701">
        <ele>4.7</ele>
        <time>2024-03-10T08:05:06Z</time>
      </trkpt>
      <trkpt lat="49.27416" lon="-0.1169">
        <ele>4.8</ele>
        <time>2024-03-10T08:05:07Z</time>
      </trkpt>
      <trkpt lat="49.27416" lon="-0.11679">
        <ele>4.8</ele>
        <time>2024-03-10T08:05:08Z</time>
      </trkpt>
      <trkpt lat="49.27417" lon="-0.11668">
        <ele>4.9</ele>
        <time>2024-03-10T08:05:09Z</time>
      </trkpt>
      <trkpt lat="49.27417" lon="-0.11657">
        <ele>4.9</ele>
        <time>2024-03-10T08:05:10Z</time>
      </trkpt>
      <trkpt lat="49.27416" lon="-0.11647">
        <ele>4.9</ele>
        <time>2024-03-10T08:05:11Z</time>
      </trkpt>
      <trkpt lat="49.27416" lon="-0.11636">
        <ele>4.9</ele>
        <time>2024-03-10T08:05:12Z</time>
      </trkpt>
      <trkpt lat="49.27416" lon="-0.11625">
        <ele>4.9</ele>
        <time>2024-03-10T08:05:13Z</time>
      </trkpt>
      <trkpt lat="49.27417" lon="-0.11615">
        <ele>4.9</ele>
        <time>2024-03-10T08:05:14Z</time>
      </trkpt>
      <trkpt lat="49.27417" lon="-0.11604">
        <ele>4.9</ele>
        <time>2024-03-10T08:05:15Z</time>
      </trkpt>
      <trkpt lat="49.27417" lon="-0.11593">
        <ele>4.9</ele>
        <time>2024-03-10T08:05:16Z</time>
      </trkpt>
      <trkpt lat="49.27417" lon="-0.11582">
        <ele>4.9</ele>
        <time>2024-03-10T08:05:17Z</time>
      </trkpt>
      <trkpt lat="49.27418" lon="-0.11571">
        <ele>4.9</ele>
        <time>2024-03-10T08:05:18Z</time>
      </trkpt>
      <trkpt lat="49.27418" lon="-0.11561">
        <ele>4.9</ele>
        <time>2024-03-10T08:05:19Z</time>
      </trkpt>
      <trkpt lat="49.27418" lon="-0.1155">
        <ele>4.9</ele>
        <time>2024-03-10T08:05:20Z</time>
      </trkpt>
      <trkpt lat="49.27419" lon="-0.11539">
        <ele>4.9</ele>
        <time>2024-03-10T08:05:21Z</time>
      </trkpt>
      <trkpt lat="49.27419" lon="-0.11529">
        <ele>4.9</ele>
        <time>2024-03-10T08:05:22Z</time>
      </trkpt>
      <trkpt lat="49.27419" lon="-0.11518">
        <ele>4.9</ele>
        <time>2024-03-10T08:05:23Z</time>
      </trkpt>
      <trkpt lat="49.27419" lon="-0.11507">
        <ele>4.9</ele>
        <time>2024-03-10T08:05:24Z</time>
      </trkpt>
      <trkpt lat="49.27419" lon="-0.11496">
        <ele>4.9</ele>
        <time>2024-03-10T08:05:25Z</time>
      </trkpt>
      <trkpt lat="49.27419" lon="-0.11486">
        <ele>4.9</ele>
        <time>2024-03-10T08:05:26Z</time>
      </trkpt>
      <trkpt lat="49.27419" lon="-0.11475">
        <ele>4.9</ele>
        <time>2024-03-10T08:05:27Z</time>
      </trkpt>
      <trkpt lat="49.2742" lon="-0.11465">
        <ele>4.9</ele>
        <time>2024-03-10T08:05:28Z</time>
      </trkpt>
      <trkpt lat="49.2742" lon="-0.11454">
        <ele>4.9</ele>
        <time>2024-03-10T08:05:29Z</time>
      </trkpt>
      <trkpt lat="49.2742" lon="-0.11444">
        <ele>4.9</ele>
        <time>2024-03-10T08:05:30Z</time>
      </trkpt>
      <trkpt lat="49.2742" lon="-0.11433">
        <ele>5</ele>
        <time>2024-03-10T08:05:31Z</time>
      </trkpt>
      <trkpt lat="49.2742" lon="-0.11423">
        <ele>5</ele>
        <time>2024-03-10T08:05:32Z</time>
      </trkpt>
      <trkpt lat="49.27421" lon="-0.11412">
        <ele>5</ele>
        <time>2024-03-10T08:05:33Z</time>
      </trkpt>
      <trkpt lat="49.27421" lon="-0.11401">
        <ele>5.1</ele>
        <time>2024-03-10T08:05:34Z</time>
      </trkpt>
      <trkpt lat="49.27421" lon="-0.11391">
        <ele>5.1</ele>
        <time>2024-03-10T08:05:35Z</time>
      </trkpt>
      <trkpt lat="49.27421" lon="-0.1138">
        <ele>5.2</ele>
        <time>2024-03-10T08:05:36Z</time>
      </trkpt>
      <trkpt lat="49.27421" lon="-0.11369">
        <ele>5.2</ele>
        <time>2024-03-10T08:05:37Z</time>
      </trkpt>
      <trkpt lat="49.27421" lon="-0.11359">
        <ele>5.3</ele>
        <time>2024-03-10T08:05:38Z</time>
      </trkpt>
      <trkpt lat="49.27421" lon="-0.11348">
        <ele>5.3</ele>
        <time>2024-03-10T08:05:39Z</time>
      </trkpt>
      <trkpt lat="49.27422" lon="-0.11336">
        <ele>5.4</ele>
        <time>2024-03-10T08:05:40Z</time>
      </trkpt>
      <trkpt lat="49.27422" lon="-0.11326">
        <ele>5.4</ele>
        <time>2024-03-10T08:05:41Z</time>
      </trkpt>
      <trkpt lat="49.27422" lon="-0.11315">
        <ele>5.5</ele>
        <time>2024-03-10T08:05:42Z</time>
      </trkpt>
      <trkpt lat="49.27423" lon="-0.11304">
        <ele>5.6</ele>
        <time>2024-03-10T08:05:43Z</time>
      </trkpt>
      <trkpt lat="49.27423" lon="-0.11294">
        <ele>5.6</ele>
        <time>2024-03-10T08:05:44Z</time>
      </trkpt>
      <trkpt lat="49.27423" lon="-0.11283">
        <ele>5.7</ele>
        <time>2024-03-10T08:05:45Z</time>
      </trkpt>
      <trkpt lat="49.27423" lon="-0.11273">
        <ele>5.7</ele>
        <time>2024-03-10T08:05:46Z</time>
      </trkpt>
      <trkpt lat="49.27424" lon="-0.11263">
        <ele>5.8</ele>
        <time>2024-03-10T08:05:47Z</time>
      </trkpt>
      <trkpt lat="49.27424" lon="-0.11252">
        <ele>5.8</ele>
        <time>2024-03-10T08:05:48Z</time>
      </trkpt>
      <trkpt lat="49.27424" lon="-0.11242">
        <ele>5.9</ele>
        <time>2024-03-10T08:05:49Z</time>
      </trkpt>
      <trkpt lat="49.27425" lon="-0.11232">
        <ele>5.9</ele>
        <time>2024-03-10T08:05:50Z</time>
      </trkpt>
      <trkpt lat="49.27425" lon="-0.11221">
        <ele>6</ele>
        <time>2024-03-10T08:05:51Z</time>
      </trkpt>
      <trkpt lat="49.27425" lon="-0.11212">
        <ele>6</ele>
        <time>2024-03-10T08:05:52Z</time>
      </trkpt>
      <trkpt lat="49.27425" lon="-0.11201">
        <ele>6.1</ele>
        <time>2024-03-10T08:05:53Z</time>
      </trkpt>
      <trkpt lat="49.27425" lon="-0.11191">
        <ele>6.1</ele>
        <time>2024-03-10T08:05:54Z</time>
      </trkpt>
      <trkpt lat="49.27426" lon="-0.1118">
        <ele>6.1</ele>
        <time>2024-03-10T08:05:55Z</time>
      </trkpt>
      <trkpt lat="49.27426" lon="-0.1117">
        <ele>6.2</ele>
        <time>2024-03-10T08:05:56Z</time>
      </trkpt>
      <trkpt lat="49.27427" lon="-0.11159">
        <ele>6.2</ele>
        <time>2024-03-10T08:05:57Z</time>
      </trkpt>
      <trkpt lat="49.27427" lon="-0.11149">
        <ele>6.2</ele>
        <time>2024-03-10T08:05:58Z</time>
      </trkpt>
      <trkpt lat="49.27427" lon="-0.11139">
        <ele>6.3</ele>
        <time>2024-03-10T08:05:59Z</time>
      </trkpt>
      <trkpt lat="49.27427" lon="-0.11128">
        <ele>6.3</ele>
        <time>2024-03-10T08:06:00Z</time>
      </trkpt>
      <trkpt lat="49.27427" lon="-0.11118">
        <ele>6.3</ele>
        <time>2024-03-10T08:06:01Z</time>
      </trkpt>
      <trkpt lat="49.27428" lon="-0.11108">
        <ele>6.3</ele>
        <time>2024-03-10T08:06:02Z</time>
      </trkpt>
      <trkpt lat="49.27428" lon="-0.11098">
        <ele>6.3</ele>
        <time>2024-03-10T08:06:03Z</time>
      </trkpt>
      <trkpt lat="49.27428" lon="-0.11087">
        <ele>6.3</ele>
        <time>2024-03-10T08:06:04Z</time>
      </trkpt>
      <trkpt lat="49.27428" lon="-0.11077">
        <ele>6.3</ele>
        <time>2024-03-10T08:06:05Z</time>
      </trkpt>
      <trkpt lat="49.27428" lon="-0.11066">
        <ele>6.3</ele>
        <time>2024-03-10T08:06:06Z</time>
      </trkpt>
      <trkpt lat="49.27428" lon="-0.11054">
        <ele>6.3</ele>
        <time>2024-03-10T08:06:07Z</time>
      </trkpt>
      <trkpt lat="49.27429" lon="-0.11043">
        <ele>6.3</ele>
        <time>2024-03-10T08:06:08Z</time>
      </trkpt>
      <trkpt lat="49.27429" lon="-0.11032">
        <ele>6.3</ele>
        <time>2024-03-10T08:06:09Z</time>
      </trkpt>
      <trkpt lat="49.27429" lon="-0.11021">
        <ele>6.3</ele>
        <time>2024-03-10T08:06:10Z</time>
      </trkpt>
      <trkpt lat="49.2743" lon="-0.11011">
        <ele>6.2</ele>
        <time>2024-03-10T08:06:11Z</time>
      </trkpt>
      <trkpt lat="49.2743" lon="-0.10999">
        <ele>6.2</ele>
        <time>2024-03-10T08:06:12Z</time>
      </trkpt>
      <trkpt lat="49.2743" lon="-0.10988">
        <ele>6.2</ele>
        <time>2024-03-10T08:06:13Z</time>
      </trkpt>
      <trkpt lat="49.2743" lon="-0.10977">
        <ele>6.2</ele>
        <time>2024-03-10T08:06:14Z</time>
      </trkpt>
      <trkpt lat="49.2743" lon="-0.10966">
        <ele>6.2</ele>
        <time>2024-03-10T08:06:15Z</time>
      </trkpt>
      <trkpt lat="49.27431" lon="-0.10955">
        <ele>6.1</ele>
        <time>2024-03-10T08:06:16Z</time>
      </trkpt>
      <trkpt lat="49.27431" lon="-0.10944">
        <ele>6.1</ele>
        <time>2024-03-10T08:06:17Z</time>
      </trkpt>
      <trkpt lat="49.27431" lon="-0.10933">
        <ele>6.1</ele>
        <time>2024-03-10T08:06:18Z</time>
      </trkpt>
      <trkpt lat="49.27431" lon="-0.10922">
        <ele>6.1</ele>
        <time>2024-03-10T08:06:19Z</time>
      </trkpt>
      <trkpt lat="49.2743" lon="-0.10911">
        <ele>6.1</ele>
        <time>2024-03-10T08:06:20Z</time>
      </trkpt>
      <trkpt lat="49.2743" lon="-0.109">
        <ele>6</ele>
        <time>2024-03-10T08:06:21Z</time>
      </trkpt>
      <trkpt lat="49.27429" lon="-0.10889">
        <ele>6</ele>
        <time>2024-03-10T08:06:22Z</time>
      </trkpt>
      <trkpt lat="49.27429" lon="-0.10878">
        <ele>5.9</ele>
        <time>2024-03-10T08:06:23Z</time>
      </trkpt>
      <trkpt lat="49.27428" lon="-0.10868">
        <ele>5.9</ele>
        <time>2024-03-10T08:06:24Z</time>
      </trkpt>
      <trkpt lat="49.27427" lon="-0.10857">
        <ele>5.9</ele>
        <time>2024-03-10T08:06:25Z</time>
      </trkpt>
      <trkpt lat="49.27426" lon="-0.10846">
        <ele>5.8</ele>
        <time>2024-03-10T08:06:26Z</time>
      </trkpt>
      <trkpt lat="49.27425" lon="-0.10835">
        <ele>5.8</ele>
        <time>2024-03-10T08:06:27Z</time>
      </trkpt>
      <trkpt lat="49.27424" lon="-0.10824">
        <ele>5.7</ele>
        <time>2024-03-10T08:06:28Z</time>
      </trkpt>
      <trkpt lat="49.27422" lon="-0.10813">
        <ele>5.7</ele>
        <time>2024-03-10T08:06:29Z</time>
      </trkpt>
      <trkpt lat="49.27421" lon="-0.10803">
        <ele>5.7</ele>
        <time>2024-03-10T08:06:30Z</time>
      </trkpt>
      <trkpt lat="49.27419" lon="-0.10793">
        <ele>5.7</ele>
        <time>2024-03-10T08:06:31Z</time>
      </trkpt>
      <trkpt lat="49.27417" lon="-0.10782">
        <ele>5.6</ele>
        <time>2024-03-10T08:06:32Z</time>
      </trkpt>
      <trkpt lat="49.27415" lon="-0.10772">
        <ele>5.6</ele>
        <time>2024-03-10T08:06:33Z</time>
      </trkpt>
      <trkpt lat="49.27413" lon="-0.10762">
        <ele>5.5</ele>
        <time>2024-03-10T08:06:34Z</time>
      </trkpt>
      <trkpt lat="49.27411" lon="-0.10753">
        <ele>5.5</ele>
        <time>2024-03-10T08:06:35Z</time>
      </trkpt>
      <trkpt lat="49.27409" lon="-0.10743">
        <ele>5.5</ele>
        <time>2024-03-10T08:06:36Z</time>
      </trkpt>
      <trkpt lat="49.27407" lon="-0.10733">
        <ele>5.4</ele>
        <time>2024-03-10T08:06:37Z</time>
      </trkpt>
      <trkpt lat="49.27404" lon="-0.10723">
        <ele>5.4</ele>
        <time>2024-03-10T08:06:38Z</time>
      </trkpt>
      <trkpt lat="49.27402" lon="-0.10713">
        <ele>5.4</ele>
        <time>2024-03-10T08:06:39Z</time>
      </trkpt>
      <trkpt lat="49.274" lon="-0.10703">
        <ele>5.3</ele>
        <time>2024-03-10T08:06:40Z</time>
      </trkpt>
      <trkpt lat="49.27397" lon="-0.10693">
        <ele>5.3</ele>
        <time>2024-03-10T08:06:41Z</time>
      </trkpt>
      <trkpt lat="49.27394" lon="-0.10683">
        <ele>5.3</ele>
        <time>2024-03-10T08:06:42Z</time>
      </trkpt>
      <trkpt lat="49.27391" lon="-0.10674">
        <ele>5.3</ele>
        <time>2024-03-10T08:06:43Z</time>
      </trkpt>
      <trkpt lat="49.27388" lon="-0.10663">
        <ele>5.2</ele>
        <time>2024-03-10T08:06:44Z</time>
      </trkpt>
      <trkpt lat="49.27384" lon="-0.10654">
        <ele>5.2</ele>
        <time>2024-03-10T08:06:45Z</time>
      </trkpt>
      <trkpt lat="49.27381" lon="-0.10644">
        <ele>5.2</ele>
        <time>2024-03-10T08:06:46Z</time>
      </trkpt>
      <trkpt lat="49.27377" lon="-0.10634">
        <ele>5.1</ele>
        <time>2024-03-10T08:06:47Z</time>
      </trkpt>
      <trkpt lat="49.27373" lon="-0.10625">
        <ele>5.1</ele>
        <time>2024-03-10T08:06:48Z</time>
      </trkpt>
      <trkpt lat="49.2737" lon="-0.10616">
        <ele>5.1</ele>
        <time>2024-03-10T08:06:49Z</time>
      </trkpt>
      <trkpt lat="49.27366" lon="-0.10606">
        <ele>5</ele>
        <time>2024-03-10T08:06:50Z</time>
      </trkpt>
      <trkpt lat="49.27362" lon="-0.10597">
        <ele>5</ele>
        <time>2024-03-10T08:06:51Z</time>
      </trkpt>
      <trkpt lat="49.27358" lon="-0.10588">
        <ele>5</ele>
        <time>2024-03-10T08:06:52Z</time>
      </trkpt>
      <trkpt lat="49.27354" lon="-0.1058">
        <ele>5</ele>
        <time>2024-03-10T08:06:53Z</time>
      </trkpt>
      <trkpt lat="49.27349" lon="-0.10571">
        <ele>5</ele>
        <time>2024-03-10T08:06:54Z</time>
      </trkpt>
      <trkpt lat="49.27345" lon="-0.10563">
        <ele>5</ele>
        <time>2024-03-10T08:06:55Z</time>
      </trkpt>
      <trkpt lat="49.27341" lon="-0.10554">
        <ele>4.9</ele>
        <time>2024-03-10T08:06:56Z</time>
      </trkpt>
      <trkpt lat="49.27337" lon="-0.10546">
        <ele>4.9</ele>
        <time>2024-03-10T08:06:57Z</time>
      </trkpt>
      <trkpt lat="49.27332" lon="-0.10538">
        <ele>4.9</ele>
        <time>2024-03-10T08:06:58Z</time>
      </trkpt>
      <trkpt lat="49.27327" lon="-0.10529">
        <ele>4.9</ele>
        <time>2024-03-10T08:06:59Z</time>
      </trkpt>
      <trkpt lat="49.27322" lon="-0.10522">
        <ele>4.9</ele>
        <time>2024-03-10T08:07:00Z</time>
      </trkpt>
      <trkpt lat="49.27317" lon="-0.10514">
        <ele>4.8</ele>
        <time>2024-03-10T08:07:01Z</time>
      </trkpt>
      <trkpt lat="49.27312" lon="-0.10507">
        <ele>4.8</ele>
        <time>2024-03-10T08:07:02Z</time>
      </trkpt>
      <trkpt lat="49.27307" lon="-0.105">
        <ele>4.8</ele>
        <time>2024-03-10T08:07:03Z</time>
      </trkpt>
      <trkpt lat="49.27301" lon="-0.10493">
        <ele>4.8</ele>
        <time>2024-03-10T08:07:04Z</time>
      </trkpt>
      <trkpt lat="49.27296" lon="-0.10485">
        <ele>4.7</ele>
        <time>2024-03-10T08:07:05Z</time>
      </trkpt>
      <trkpt lat="49.2729" lon="-0.10478">
        <ele>4.7</ele>
        <time>2024-03-10T08:07:06Z</time>
      </trkpt>
      <trkpt lat="49.27285" lon="-0.10471">
        <ele>4.6</ele>
        <time>2024-03-10T08:07:07Z</time>
      </trkpt>
      <trkpt lat="49.27279" lon="-0.10464">
        <ele>4.6</ele>
        <time>2024-03-10T08:07:08Z</time>
      </trkpt>
      <trkpt lat="49.27273" lon="-0.10457">
        <ele>4.5</ele>
        <time>2024-03-10T08:07:09Z</time>
      </trkpt>
      <trkpt lat="49.27267" lon="-0.10451">
        <ele>4.5</ele>
        <time>2024-03-10T08:07:10Z</time>
      </trkpt>
      <trkpt lat="49.27261" lon="-0.10445">
        <ele>4.5</ele>
        <time>2024-03-10T08:07:11Z</time>
      </trkpt>
      <trkpt lat="49.27255" lon="-0.10439">
        <ele>4.5</ele>
        <time>2024-03-10T08:07:12Z</time>
      </trkpt>
      <trkpt lat="49.27249" lon="-0.10433">
        <ele>4.5</ele>
        <time>2024-03-10T08:07:13Z</time>
      </trkpt>
      <trkpt lat="49.27243" lon="-0.10428">
        <ele>4.5</ele>
        <time>2024-03-10T08:07:14Z</time>
      </trkpt>
      <trkpt lat="49.27237" lon="-0.10423">
        <ele>4.5</ele>
        <time>2024-03-10T08:07:15Z</time>
      </trkpt>
      <trkpt lat="49.2723" lon="-0.10418">
        <ele>4.5</ele>
        <time>2024-03-10T08:07:16Z</time>
      </trkpt>
      <trkpt lat="49.27224" lon="-0.10412">
        <ele>4.5</ele>
        <time>2024-03-10T08:07:17Z</time>
      </trkpt>
      <trkpt lat="49.27217" lon="-0.10407">
        <ele>4.5</ele>
        <time>2024-03-10T08:07:18Z</time>
      </trkpt>
      <trkpt lat="49.27211" lon="-0.10402">
        <ele>4.5</ele>
        <time>2024-03-10T08:07:19Z</time>
      </trkpt>
      <trkpt lat="49.27204" lon="-0.10397">
        <ele>4.5</ele>
        <time>2024-03-10T08:07:20Z</time>
      </trkpt>
      <trkpt lat="49.27198" lon="-0.10393">
        <ele>4.5</ele>
        <time>2024-03-10T08:07:21Z</time>
      </trkpt>
      <trkpt lat="49.27191" lon="-0.10389">
        <ele>4.5</ele>
        <time>2024-03-10T08:07:22Z</time>
      </trkpt>
      <trkpt lat="49.27184" lon="-0.10385">
        <ele>4.5</ele>
        <time>2024-03-10T08:07:23Z</time>
      </trkpt>
      <trkpt lat="49.27177" lon="-0.1038">
        <ele>4.5</ele>
        <time>2024-03-10T08:07:24Z</time>
      </trkpt>
      <trkpt lat="49.27171" lon="-0.10377">
        <ele>4.6</ele>
        <time>2024-03-10T08:07:25Z</time>
      </trkpt>
      <trkpt lat="49.27164" lon="-0.10373">
        <ele>4.6</ele>
        <time>2024-03-10T08:07:26Z</time>
      </trkpt>
      <trkpt lat="49.27157" lon="-0.10369">
        <ele>4.6</ele>
        <time>2024-03-10T08:07:27Z</time>
      </trkpt>
      <trkpt lat="49.2715" lon="-0.10366">
        <ele>4.6</ele>
        <time>2024-03-10T08:07:28Z</time>
      </trkpt>
      <trkpt lat="49.27142" lon="-0.10363">
        <ele>4.7</ele>
        <time>2024-03-10T08:07:29Z</time>
      </trkpt>
      <trkpt lat="49.27135" lon="-0.1036">
        <ele>4.7</ele>
        <time>2024-03-10T08:07:30Z</time>
      </trkpt>
      <trkpt lat="49.27128" lon="-0.10357">
        <ele>4.7</ele>
        <time>2024-03-10T08:07:31Z</time>
      </trkpt>
      <trkpt lat="49.2712" lon="-0.10355">
        <ele>4.7</ele>
        <time>2024-03-10T08:07:32Z</time>
      </trkpt>
      <trkpt lat="49.27113" lon="-0.10353">
        <ele>4.7</ele>
        <time>2024-03-10T08:07:33Z</time>
      </trkpt>
      <trkpt lat="49.27107" lon="-0.10351">
        <ele>4.8</ele>
        <time>2024-03-10T08:07:34Z</time>
      </trkpt>
      <trkpt lat="49.271" lon="-0.10349">
        <ele>4.9</ele>
        <time>2024-03-10T08:07:35Z</time>
      </trkpt>
      <trkpt lat="49.27093" lon="-0.10346">
        <ele>5</ele>
        <time>2024-03-10T08:07:36Z</time>
      </trkpt>
      <trkpt lat="49.27086" lon="-0.10345">
        <ele>5.1</ele>
        <time>2024-03-10T08:07:37Z</time>
      </trkpt>
      <trkpt lat="49.2708" lon="-0.10343">
        <ele>5.2</ele>
        <time>2024-03-10T08:07:38Z</time>
      </trkpt>
      <trkpt lat="49.27073" lon="-0.10342">
        <ele>5.3</ele>
        <time>2024-03-10T08:07:39Z</time>
      </trkpt>
      <trkpt lat="49.27067" lon="-0.10341">
        <ele>5.4</ele>
        <time>2024-03-10T08:07:40Z</time>
      </trkpt>
      <trkpt lat="49.2706" lon="-0.1034">
        <ele>5.6</ele>
        <time>2024-03-10T08:07:41Z</time>
      </trkpt>
      <trkpt lat="49.27054" lon="-0.10339">
        <ele>5.7</ele>
        <time>2024-03-10T08:07:42Z</time>
      </trkpt>
      <trkpt lat="49.27047" lon="-0.10338">
        <ele>5.8</ele>
        <time>2024-03-10T08:07:43Z</time>
      </trkpt>
      <trkpt lat="49.2704" lon="-0.10338">
        <ele>6</ele>
        <time>2024-03-10T08:07:44Z</time>
      </trkpt>
      <trkpt lat="49.27033" lon="-0.10338">
        <ele>6.1</ele>
        <time>2024-03-10T08:07:45Z</time>
      </trkpt>
      <trkpt lat="49.27026" lon="-0.10338">
        <ele>6.2</ele>
        <time>2024-03-10T08:07:46Z</time>
      </trkpt>
      <trkpt lat="49.27019" lon="-0.10338">
        <ele>6.3</ele>
        <time>2024-03-10T08:07:47Z</time>
      </trkpt>
      <trkpt lat="49.27011" lon="-0.10338">
        <ele>6.4</ele>
        <time>2024-03-10T08:07:48Z</time>
      </trkpt>
      <trkpt lat="49.27004" lon="-0.10338">
        <ele>6.5</ele>
        <time>2024-03-10T08:07:49Z</time>
      </trkpt>
      <trkpt lat="49.26997" lon="-0.10339">
        <ele>6.6</ele>
        <time>2024-03-10T08:07:50Z</time>
      </trkpt>
      <trkpt lat="49.2699" lon="-0.10339">
        <ele>6.7</ele>
        <time>2024-03-10T08:07:51Z</time>
      </trkpt>
      <trkpt lat="49.26983" lon="-0.10341">
        <ele>6.7</ele>
        <time>2024-03-10T08:07:52Z</time>
      </trkpt>
      <trkpt lat="49.26975" lon="-0.10342">
        <ele>6.8</ele>
        <time>2024-03-10T08:07:53Z</time>
      </trkpt>
      <trkpt lat="49.26968" lon="-0.10343">
        <ele>6.8</ele>
        <time>2024-03-10T08:07:54Z</time>
      </trkpt>
      <trkpt lat="49.2696" lon="-0.10344">
        <ele>6.8</ele>
        <time>2024-03-10T08:07:55Z</time>
      </trkpt>
      <trkpt lat="49.26954" lon="-0.10345">
        <ele>6.8</ele>
        <time>2024-03-10T08:07:56Z</time>
      </trkpt>
      <trkpt lat="49.26947" lon="-0.10347">
        <ele>6.8</ele>
        <time>2024-03-10T08:07:57Z</time>
      </trkpt>
      <trkpt lat="49.26939" lon="-0.10349">
        <ele>6.8</ele>
        <time>2024-03-10T08:07:58Z</time>
      </trkpt>
      <trkpt lat="49.26932" lon="-0.1035">
        <ele>6.9</ele>
        <time>2024-03-10T08:07:59Z</time>
      </trkpt>
      <trkpt lat="49.26925" lon="-0.10352">
        <ele>6.9</ele>
        <time>2024-03-10T08:08:00Z</time>
      </trkpt>
      <trkpt lat="49.26918" lon="-0.10353">
        <ele>6.9</ele>
        <time>2024-03-10T08:08:01Z</time>
      </trkpt>
      <trkpt lat="49.26911" lon="-0.10355">
        <ele>6.9</ele>
        <time>2024-03-10T08:08:02Z</time>
      </trkpt>
      <trkpt lat="49.26903" lon="-0.10356">
        <ele>6.9</ele>
        <time>2024-03-10T08:08:03Z</time>
      </trkpt>
      <trkpt lat="49.26897" lon="-0.10359">
        <ele>6.9</ele>
        <time>2024-03-10T08:08:04Z</time>
      </trkpt>
      <trkpt lat="49.2689" lon="-0.10361">
        <ele>6.9</ele>
        <time>2024-03-10T08:08:05Z</time>
      </trkpt>
      <trkpt lat="49.26882" lon="-0.10363">
        <ele>6.8</ele>
        <time>2024-03-10T08:08:06Z</time>
      </trkpt>
      <trkpt lat="49.26875" lon="-0.10365">
        <ele>6.8</ele>
        <time>2024-03-10T08:08:07Z</time>
      </trkpt>
      <trkpt lat="49.26868" lon="-0.10368">
        <ele>6.8</ele>
        <time>2024-03-10T08:08:08Z</time>
      </trkpt>
      <trkpt lat="49.26861" lon="-0.10371">
        <ele>6.7</ele>
        <time>2024-03-10T08:08:09Z</time>
      </trkpt>
      <trkpt lat="49.26854" lon="-0.10373">
        <ele>6.7</ele>
        <time>2024-03-10T08:08:10Z</time>
      </trkpt>
      <trkpt lat="49.26847" lon="-0.10376">
        <ele>6.7</ele>
        <time>2024-03-10T08:08:11Z</time>
      </trkpt>
      <trkpt lat="49.2684" lon="-0.10378">
        <ele>6.7</ele>
        <time>2024-03-10T08:08:12Z</time>
      </trkpt>
      <trkpt lat="49.26834" lon="-0.10381">
        <ele>6.6</ele>
        <time>2024-03-10T08:08:13Z</time>
      </trkpt>
      <trkpt lat="49.26827" lon="-0.10383">
        <ele>6.6</ele>
        <time>2024-03-10T08:08:14Z</time>
      </trkpt>
      <trkpt lat="49.2682" lon="-0.10386">
        <ele>6.6</ele>
        <time>2024-03-10T08:08:15Z</time>
      </trkpt>
      <trkpt lat="49.26813" lon="-0.10388">
        <ele>6.6</ele>
        <time>2024-03-10T08:08:16Z</time>
      </trkpt>
      <trkpt lat="49.26807" lon="-0.10391">
        <ele>6.6</ele>
        <time>2024-03-10T08:08:17Z</time>
      </trkpt>
      <trkpt lat="49.268" lon="-0.10394">
        <ele>6.6</ele>
        <time>2024-03-10T08:08:18Z</time>
      </trkpt>
      <trkpt lat="49.26793" lon="-0.10396">
        <ele>6.7</ele>
        <time>2024-03-10T08:08:19Z</time>
      </trkpt>
      <trkpt lat="49.26785" lon="-0.10399">
        <ele>6.6</ele>
        <time>2024-03-10T08:08:20Z</time>
      </trkpt>
      <trkpt lat="49.26778" lon="-0.10402">
        <ele>6.6</ele>
        <time>2024-03-10T08:08:21Z</time>
      </trkpt>
      <trkpt lat="49.26771" lon="-0.10405">
        <ele>6.5</ele>
        <time>2024-03-10T08:08:22Z</time>
      </trkpt>
      <trkpt lat="49.26764" lon="-0.10407">
        <ele>6.5</ele>
        <time>2024-03-10T08:08:23Z</time>
      </trkpt>
      <trkpt lat="49.26757" lon="-0.10409">
        <ele>6.5</ele>
        <time>2024-03-10T08:08:24Z</time>
      </trkpt>
      <trkpt lat="49.2675" lon="-0.10411">
        <ele>6.4</ele>
        <time>2024-03-10T08:08:25Z</time>
      </trkpt>
      <trkpt lat="49.26743" lon="-0.10413">
        <ele>6.3</ele>
        <time>2024-03-10T08:08:26Z</time>
      </trkpt>
      <trkpt lat="49.26736" lon="-0.10416">
        <ele>6.3</ele>
        <time>2024-03-10T08:08:27Z</time>
      </trkpt>
      <trkpt lat="49.26729" lon="-0.10418">
        <ele>6.2</ele>
        <time>2024-03-10T08:08:28Z</time>
      </trkpt>
      <trkpt lat="49.26722" lon="-0.10421">
        <ele>6.2</ele>
        <time>2024-03-10T08:08:29Z</time>
      </trkpt>
      <trkpt lat="49.26715" lon="-0.10423">
        <ele>6.1</ele>
        <time>2024-03-10T08:08:30Z</time>
      </trkpt>
      <trkpt lat="49.26707" lon="-0.10425">
        <ele>6</ele>
        <time>2024-03-10T08:08:31Z</time>
      </trkpt>
      <trkpt lat="49.267" lon="-0.10428">
        <ele>6</ele>
        <time>2024-03-10T08:08:32Z</time>
      </trkpt>
      <trkpt lat="49.26693" lon="-0.1043">
        <ele>5.9</ele>
        <time>2024-03-10T08:08:33Z</time>
      </trkpt>
      <trkpt lat="49.26686" lon="-0.10432">
        <ele>5.9</ele>
        <time>2024-03-10T08:08:34Z</time>
      </trkpt>
      <trkpt lat="49.26678" lon="-0.10433">
        <ele>5.9</ele>
        <time>2024-03-10T08:08:35Z</time>
      </trkpt>
      <trkpt lat="49.26671" lon="-0.10436">
        <ele>5.8</ele>
        <time>2024-03-10T08:08:36Z</time>
      </trkpt>
      <trkpt lat="49.26664" lon="-0.10438">
        <ele>5.8</ele>
        <time>2024-03-10T08:08:37Z</time>
      </trkpt>
      <trkpt lat="49.26657" lon="-0.10441">
        <ele>5.8</ele>
        <time>2024-03-10T08:08:38Z</time>
      </trkpt>
      <trkpt lat="49.2665" lon="-0.10443">
        <ele>5.8</ele>
        <time>2024-03-10T08:08:39Z</time>
      </trkpt>
      <trkpt lat="49.26643" lon="-0.10444">
        <ele>5.8</ele>
        <time>2024-03-10T08:08:40Z</time>
      </trkpt>
      <trkpt lat="49.26636" lon="-0.10446">
        <ele>5.7</ele>
        <time>2024-03-10T08:08:41Z</time>
      </trkpt>
      <trkpt lat="49.26629" lon="-0.10448">
        <ele>5.7</ele>
        <time>2024-03-10T08:08:42Z</time>
      </trkpt>
      <trkpt lat="49.26622" lon="-0.10451">
        <ele>5.7</ele>
        <time>2024-03-10T08:08:43Z</time>
      </trkpt>
      <trkpt lat="49.26615" lon="-0.10452">
        <ele>5.6</ele>
        <time>2024-03-10T08:08:44Z</time>
      </trkpt>
      <trkpt lat="49.26608" lon="-0.10453">
        <ele>5.6</ele>
        <time>2024-03-10T08:08:45Z</time>
      </trkpt>
      <trkpt lat="49.26601" lon="-0.10454">
        <ele>5.5</ele>
        <time>2024-03-10T08:08:46Z</time>
      </trkpt>
      <trkpt lat="49.26594" lon="-0.10456">
        <ele>5.5</ele>
        <time>2024-03-10T08:08:47Z</time>
      </trkpt>
      <trkpt lat="49.26586" lon="-0.10458">
        <ele>5.4</ele>
        <time>2024-03-10T08:08:48Z</time>
      </trkpt>
      <trkpt lat="49.26578" lon="-0.10459">
        <ele>5.4</ele>
        <time>2024-03-10T08:08:49Z</time>
      </trkpt>
      <trkpt lat="49.26571" lon="-0.1046">
        <ele>5.3</ele>
        <time>2024-03-10T08:08:50Z</time>
      </trkpt>
      <trkpt lat="49.26563" lon="-0.10461">
        <ele>5.3</ele>
        <time>2024-03-10T08:08:51Z</time>
      </trkpt>
      <trkpt lat="49.26556" lon="-0.10462">
        <ele>5.3</ele>
        <time>2024-03-10T08:08:52Z</time>
      </trkpt>
      <trkpt lat="49.26549" lon="-0.10463">
        <ele>5.3</ele>
        <time>2024-03-10T08:08:53Z</time>
      </trkpt>
      <trkpt lat="49.26542" lon="-0.10464">
        <ele>5.3</ele>
        <time>2024-03-10T08:08:54Z</time>
      </trkpt>
      <trkpt lat="49.26534" lon="-0.10464">
        <ele>5.3</ele>
        <time>2024-03-10T08:08:55Z</time>
      </trkpt>
      <trkpt lat="49.26527" lon="-0.10465">
        <ele>5.3</ele>
        <time>2024-03-10T08:08:56Z</time>
      </trkpt>
      <trkpt lat="49.2652" lon="-0.10466">
        <ele>5.3</ele>
        <time>2024-03-10T08:08:57Z</time>
      </trkpt>
      <trkpt lat="49.26513" lon="-0.10467">
        <ele>5.3</ele>
        <time>2024-03-10T08:08:58Z</time>
      </trkpt>
      <trkpt lat="49.26506" lon="-0.10467">
        <ele>5.4</ele>
        <time>2024-03-10T08:08:59Z</time>
      </trkpt>
      <trkpt lat="49.26499" lon="-0.10468">
        <ele>5.4</ele>
        <time>2024-03-10T08:09:00Z</time>
      </trkpt>
      <trkpt lat="49.26492" lon="-0.10468">
        <ele>5.4</ele>
        <time>2024-03-10T08:09:01Z</time>
      </trkpt>
      <trkpt lat="49.26485" lon="-0.10468">
        <ele>5.5</ele>
        <time>2024-03-10T08:09:02Z</time>
      </trkpt>
      <trkpt lat="49.26477" lon="-0.10468">
        <ele>5.5</ele>
        <time>2024-03-10T08:09:03Z</time>
      </trkpt>
      <trkpt lat="49.2647" lon="-0.10468">
        <ele>5.6</ele>
        <time>2024-03-10T08:09:04Z</time>
      </trkpt>
      <trkpt lat="49.26463" lon="-0.10467">
        <ele>5.6</ele>
        <time>2024-03-10T08:09:05Z</time>
      </trkpt>
      <trkpt lat="49.26456" lon="-0.10467">
        <ele>5.6</ele>
        <time>2024-03-10T08:09:06Z</time>
      </trkpt>
      <trkpt lat="49.26449" lon="-0.10466">
        <ele>5.6</ele>
        <time>2024-03-10T08:09:07Z</time>
      </trkpt>
      <trkpt lat="49.26442" lon="-0.10466">
        <ele>5.7</ele>
        <time>2024-03-10T08:09:08Z</time>
      </trkpt>
      <trkpt lat="49.26434" lon="-0.10465">
        <ele>5.7</ele>
        <time>2024-03-10T08:09:09Z</time>
      </trkpt>
      <trkpt lat="49.26427" lon="-0.10465">
        <ele>5.7</ele>
        <time>2024-03-10T08:09:10Z</time>
      </trkpt>
      <trkpt lat="49.2642" lon="-0.10465">
        <ele>5.7</ele>
        <time>2024-03-10T08:09:11Z</time>
      </trkpt>
      <trkpt lat="49.26413" lon="-0.10464">
        <ele>5.8</ele>
        <time>2024-03-10T08:09:12Z</time>
      </trkpt>
      <trkpt lat="49.26406" lon="-0.10463">
        <ele>5.8</ele>
        <time>2024-03-10T08:09:13Z</time>
      </trkpt>
      <trkpt lat="49.26399" lon="-0.10462">
        <ele>5.9</ele>
        <time>2024-03-10T08:09:14Z</time>
      </trkpt>
      <trkpt lat="49.26391" lon="-0.10462">
        <ele>5.9</ele>
        <time>2024-03-10T08:09:15Z</time>
      </trkpt>
      <trkpt lat="49.26384" lon="-0.10461">
        <ele>5.9</ele>
        <time>2024-03-10T08:09:16Z</time>
      </trkpt>
      <trkpt lat="49.26377" lon="-0.10461">
        <ele>6</ele>
        <time>2024-03-10T08:09:17Z</time>
      </trkpt>
      <trkpt lat="49.26369" lon="-0.1046">
        <ele>6</ele>
        <time>2024-03-10T08:09:18Z</time>
      </trkpt>
      <trkpt lat="49.26363" lon="-0.10459">
        <ele>6</ele>
        <time>2024-03-10T08:09:19Z</time>
      </trkpt>
      <trkpt lat="49.26356" lon="-0.10458">
        <ele>6</ele>
        <time>2024-03-10T08:09:20Z</time>
      </trkpt>
      <trkpt lat="49.26348" lon="-0.10457">
        <ele>6</ele>
        <time>2024-03-10T08:09:21Z</time>
      </trkpt>
      <trkpt lat="49.26341" lon="-0.10456">
        <ele>6</ele>
        <time>2024-03-10T08:09:22Z</time>
      </trkpt>
      <trkpt lat="49.26334" lon="-0.10455">
        <ele>6.1</ele>
        <time>2024-03-10T08:09:23Z</time>
      </trkpt>
      <trkpt lat="49.26327" lon="-0.10454">
        <ele>6.1</ele>
        <time>2024-03-10T08:09:24Z</time>
      </trkpt>
      <trkpt lat="49.2632" lon="-0.10453">
        <ele>6.1</ele>
        <time>2024-03-10T08:09:25Z</time>
      </trkpt>
      <trkpt lat="49.26313" lon="-0.10453">
        <ele>6.1</ele>
        <time>2024-03-10T08:09:26Z</time>
      </trkpt>
      <trkpt lat="49.26305" lon="-0.10452">
        <ele>6.2</ele>
        <time>2024-03-10T08:09:27Z</time>
      </trkpt>
      <trkpt lat="49.26298" lon="-0.10451">
        <ele>6.2</ele>
        <time>2024-03-10T08:09:28Z</time>
      </trkpt>
      <trkpt lat="49.26291" lon="-0.1045">
        <ele>6.2</ele>
        <time>2024-03-10T08:09:29Z</time>
      </trkpt>
      <trkpt lat="49.26284" lon="-0.1045">
        <ele>6.2</ele>
        <time>2024-03-10T08:09:30Z</time>
      </trkpt>
      <trkpt lat="49.26277" lon="-0.10449">
        <ele>6.2</ele>
        <time>2024-03-10T08:09:31Z</time>
      </trkpt>
      <trkpt lat="49.26269" lon="-0.10448">
        <ele>6.2</ele>
        <time>2024-03-10T08:09:32Z</time>
      </trkpt>
      <trkpt lat="49.26262" lon="-0.10448">
        <ele>6.2</ele>
        <time>2024-03-10T08:09:33Z</time>
      </trkpt>
      <trkpt lat="49.26255" lon="-0.10447">
        <ele>6.2</ele>
        <time>2024-03-10T08:09:34Z</time>
      </trkpt>
      <trkpt lat="49.26248" lon="-0.10446">
        <ele>6.2</ele>
        <time>2024-03-10T08:09:35Z</time>
      </trkpt>
      <trkpt lat="49.26241" lon="-0.10446">
        <ele>6.3</ele>
        <time>2024-03-10T08:09:36Z</time>
      </trkpt>
      <trkpt lat="49.26233" lon="-0.10445">
        <ele>6.3</ele>
        <time>2024-03-10T08:09:37Z</time>
      </trkpt>
      <trkpt lat="49.26226" lon="-0.10445">
        <ele>6.3</ele>
        <time>2024-03-10T08:09:38Z</time>
      </trkpt>
      <trkpt lat="49.26219" lon="-0.10444">
        <ele>6.3</ele>
        <time>2024-03-10T08:09:39Z</time>
      </trkpt>
      <trkpt lat="49.26212" lon="-0.10443">
        <ele>6.3</ele>
        <time>2024-03-10T08:09:40Z</time>
      </trkpt>
      <trkpt lat="49.26205" lon="-0.10443">
        <ele>6.3</ele>
        <time>2024-03-10T08:09:41Z</time>
      </trkpt>
      <trkpt lat="49.26198" lon="-0.10442">
        <ele>6.3</ele>
        <time>2024-03-10T08:09:42Z</time>
      </trkpt>
      <trkpt lat="49.26191" lon="-0.10441">
        <ele>6.4</ele>
        <time>2024-03-10T08:09:43Z</time>
      </trkpt>
      <trkpt lat="49.26184" lon="-0.1044">
        <ele>6.4</ele>
        <time>2024-03-10T08:09:44Z</time>
      </trkpt>
      <trkpt lat="49.26177" lon="-0.1044">
        <ele>6.4</ele>
        <time>2024-03-10T08:09:45Z</time>
      </trkpt>
      <trkpt lat="49.2617" lon="-0.10439">
        <ele>6.4</ele>
        <time>2024-03-10T08:09:46Z</time>
      </trkpt>
      <trkpt lat="49.26163" lon="-0.10438">
        <ele>6.3</ele>
        <time>2024-03-10T08:09:47Z</time>
      </trkpt>
      <trkpt lat="49.26155" lon="-0.10438">
        <ele>6.3</ele>
        <time>2024-03-10T08:09:48Z</time>
      </trkpt>
      <trkpt lat="49.26148" lon="-0.10437">
        <ele>6.3</ele>
        <time>2024-03-10T08:09:49Z</time>
      </trkpt>
      <trkpt lat="49.26141" lon="-0.10437">
        <ele>6.3</ele>
        <time>2024-03-10T08:09:50Z</time>
      </trkpt>
      <trkpt lat="49.26133" lon="-0.10436">
        <ele>6.3</ele>
        <time>2024-03-10T08:09:51Z</time>
      </trkpt>
      <trkpt lat="49.26126" lon="-0.10436">
        <ele>6.3</ele>
        <time>2024-03-10T08:09:52Z</time>
      </trkpt>
      <trkpt lat="49.26119" lon="-0.10435">
        <ele>6.2</ele>
        <time>2024-03-10T08:09:53Z</time>
      </trkpt>
      <trkpt lat="49.26112" lon="-0.10434">
        <ele>6.2</ele>
        <time>2024-03-10T08:09:54Z</time>
      </trkpt>
      <trkpt lat="49.26104" lon="-0.10433">
        <ele>6.1</ele>
        <time>2024-03-10T08:09:55Z</time>
      </trkpt>
      <trkpt lat="49.26097" lon="-0.10432">
        <ele>6.1</ele>
        <time>2024-03-10T08:09:56Z</time>
      </trkpt>
      <trkpt lat="49.2609" lon="-0.10431">
        <ele>6</ele>
        <time>2024-03-10T08:09:57Z</time>
      </trkpt>
      <trkpt lat="49.26083" lon="-0.10431">
        <ele>6</ele>
        <time>2024-03-10T08:09:58Z</time>
      </trkpt>
      <trkpt lat="49.26076" lon="-0.10431">
        <ele>6</ele>
        <time>2024-03-10T08:09:59Z</time>
      </trkpt>
      <trkpt lat="49.26069" lon="-0.1043">
        <ele>6</ele>
        <time>2024-03-10T08:10:00Z</time>
      </trkpt>
      <trkpt lat="49.26061" lon="-0.10431">
        <ele>5.9</ele>
        <time>2024-03-10T08:10:01Z</time>
      </trkpt>
      <trkpt lat="49.26055" lon="-0.1043">
        <ele>5.9</ele>
        <time>2024-03-10T08:10:02Z</time>
      </trkpt>
      <trkpt lat="49.26048" lon="-0.1043">
        <ele>5.8</ele>
        <time>2024-03-10T08:10:03Z</time>
      </trkpt>
      <trkpt lat="49.26041" lon="-0.1043">
        <ele>5.8</ele>
        <time>2024-03-10T08:10:04Z</time>
      </trkpt>
      <trkpt lat="49.26033" lon="-0.10429">
        <ele>5.8</ele>
        <time>2024-03-10T08:10:05Z</time>
      </trkpt>
      <trkpt lat="49.26026" lon="-0.10428">
        <ele>5.7</ele>
        <time>2024-03-10T08:10:06Z</time>
      </trkpt>
      <trkpt lat="49.26019" lon="-0.10428">
        <ele>5.7</ele>
        <time>2024-03-10T08:10:07Z</time>
      </trkpt>
      <trkpt lat="49.26012" lon="-0.10427">
        <ele>5.6</ele>
        <time>2024-03-10T08:10:08Z</time>
      </trkpt>
      <trkpt lat="49.26004" lon="-0.10427">
        <ele>5.6</ele>
        <time>2024-03-10T08:10:09Z</time>
      </trkpt>
      <trkpt lat="49.25997" lon="-0.10426">
        <ele>5.5</ele>
        <time>2024-03-10T08:10:10Z</time>
      </trkpt>
      <trkpt lat="49.2599" lon="-0.10426">
        <ele>5.5</ele>
        <time>2024-03-10T08:10:11Z</time>
      </trkpt>
      <trkpt lat="49.25983" lon="-0.10425">
        <ele>5.4</ele>
        <time>2024-03-10T08:10:12Z</time>
      </trkpt>
      <trkpt lat="49.25976" lon="-0.10425">
        <ele>5.4</ele>
        <time>2024-03-10T08:10:13Z</time>
      </trkpt>
      <trkpt lat="49.25969" lon="-0.10424">
        <ele>5.4</ele>
        <time>2024-03-10T08:10:14Z</time>
      </trkpt>
      <trkpt lat="49.25961" lon="-0.10423">
        <ele>5.4</ele>
        <time>2024-03-10T08:10:15Z</time>
      </trkpt>
      <trkpt lat="49.25954" lon="-0.10423">
        <ele>5.3</ele>
        <time>2024-03-10T08:10:16Z</time>
      </trkpt>
      <trkpt lat="49.25947" lon="-0.10422">
        <ele>5.3</ele>
        <time>2024-03-10T08:10:17Z</time>
      </trkpt>
      <trkpt lat="49.2594" lon="-0.10421">
        <ele>5.3</ele>
        <time>2024-03-10T08:10:18Z</time>
      </trkpt>
      <trkpt lat="49.25933" lon="-0.10421">
        <ele>5.2</ele>
        <time>2024-03-10T08:10:19Z</time>
      </trkpt>
      <trkpt lat="49.25926" lon="-0.10419">
        <ele>5.2</ele>
        <time>2024-03-10T08:10:20Z</time>
      </trkpt>
      <trkpt lat="49.25919" lon="-0.10418">
        <ele>5.2</ele>
        <time>2024-03-10T08:10:21Z</time>
      </trkpt>
      <trkpt lat="49.25912" lon="-0.10416">
        <ele>5.1</ele>
        <time>2024-03-10T08:10:22Z</time>
      </trkpt>
      <trkpt lat="49.25905" lon="-0.10415">
        <ele>5.1</ele>
        <time>2024-03-10T08:10:23Z</time>
      </trkpt>
      <trkpt lat="49.25898" lon="-0.10414">
        <ele>5.1</ele>
        <time>2024-03-10T08:10:24Z</time>
      </trkpt>
      <trkpt lat="49.2589" lon="-0.10413">
        <ele>5.1</ele>
        <time>2024-03-10T08:10:25Z</time>
      </trkpt>
      <trkpt lat="49.25883" lon="-0.10412">
        <ele>5.1</ele>
        <time>2024-03-10T08:10:26Z</time>
      </trkpt>
      <trkpt lat="49.25876" lon="-0.10412">
        <ele>5</ele>
        <time>2024-03-10T08:10:27Z</time>
      </trkpt>
      <trkpt lat="49.25869" lon="-0.10411">
        <ele>5</ele>
        <time>2024-03-10T08:10:28Z</time>
      </trkpt>
      <trkpt lat="49.25862" lon="-0.10411">
        <ele>5</ele>
        <time>2024-03-10T08:10:29Z</time>
      </trkpt>
      <trkpt lat="49.25855" lon="-0.1041">
        <ele>5</ele>
        <time>2024-03-10T08:10:30Z</time>
      </trkpt>
      <trkpt lat="49.25848" lon="-0.10409">
        <ele>5</ele>
        <time>2024-03-10T08:10:31Z</time>
      </trkpt>
      <trkpt lat="49.25841" lon="-0.10408">
        <ele>5</ele>
        <time>2024-03-10T08:10:32Z</time>
      </trkpt>
      <trkpt lat="49.25834" lon="-0.10407">
        <ele>5.1</ele>
        <time>2024-03-10T08:10:33Z</time>
      </trkpt>
      <trkpt lat="49.25827" lon="-0.10407">
        <ele>5.1</ele>
        <time>2024-03-10T08:10:34Z</time>
      </trkpt>
      <trkpt lat="49.2582" lon="-0.10406">
        <ele>5.1</ele>
        <time>2024-03-10T08:10:35Z</time>
      </trkpt>
      <trkpt lat="49.25813" lon="-0.10407">
        <ele>5.2</ele>
        <time>2024-03-10T08:10:36Z</time>
      </trkpt>
      <trkpt lat="49.25807" lon="-0.10408">
        <ele>5.2</ele>
        <time>2024-03-10T08:10:37Z</time>
      </trkpt>
      <trkpt lat="49.258" lon="-0.10411">
        <ele>5.2</ele>
        <time>2024-03-10T08:10:38Z</time>
      </trkpt>
      <trkpt lat="49.25794" lon="-0.10416">
        <ele>5.1</ele>
        <time>2024-03-10T08:10:39Z</time>
      </trkpt>
      <trkpt lat="49.25788" lon="-0.1042">
        <ele>5.1</ele>
        <time>2024-03-10T08:10:40Z</time>
      </trkpt>
      <trkpt lat="49.25781" lon="-0.10424">
        <ele>5</ele>
        <time>2024-03-10T08:10:41Z</time>
      </trkpt>
      <trkpt lat="49.25774" lon="-0.10424">
        <ele>4.9</ele>
        <time>2024-03-10T08:10:42Z</time>
      </trkpt>
      <trkpt lat="49.25768" lon="-0.10422">
        <ele>4.7</ele>
        <time>2024-03-10T08:10:43Z</time>
      </trkpt>
      <trkpt lat="49.25761" lon="-0.10417">
        <ele>4.7</ele>
        <time>2024-03-10T08:10:44Z</time>
      </trkpt>
      <trkpt lat="49.25755" lon="-0.10412">
        <ele>4.7</ele>
        <time>2024-03-10T08:10:45Z</time>
      </trkpt>
      <trkpt lat="49.25749" lon="-0.10406">
        <ele>4.7</ele>
        <time>2024-03-10T08:10:46Z</time>
      </trkpt>
      <trkpt lat="49.25743" lon="-0.10402">
        <ele>4.6</ele>
        <time>2024-03-10T08:10:47Z</time>
      </trkpt>
      <trkpt lat="49.25735" lon="-0.104">
        <ele>4.6</ele>
        <time>2024-03-10T08:10:48Z</time>
      </trkpt>
      <trkpt lat="49.25728" lon="-0.104">
        <ele>4.5</ele>
        <time>2024-03-10T08:10:49Z</time>
      </trkpt>
      <trkpt lat="49.2572" lon="-0.10399">
        <ele>4.5</ele>
        <time>2024-03-10T08:10:50Z</time>
      </trkpt>
      <trkpt lat="49.25712" lon="-0.10399">
        <ele>4.4</ele>
        <time>2024-03-10T08:10:51Z</time>
      </trkpt>
      <trkpt lat="49.25705" lon="-0.10398">
        <ele>4.4</ele>
        <time>2024-03-10T08:10:52Z</time>
      </trkpt>
      <trkpt lat="49.25697" lon="-0.10397">
        <ele>4.4</ele>
        <time>2024-03-10T08:10:53Z</time>
      </trkpt>
      <trkpt lat="49.25689" lon="-0.10395">
        <ele>4.4</ele>
        <time>2024-03-10T08:10:54Z</time>
      </trkpt>
      <trkpt lat="49.25682" lon="-0.10394">
        <ele>4.4</ele>
        <time>2024-03-10T08:10:55Z</time>
      </trkpt>
      <trkpt lat="49.25674" lon="-0.10393">
        <ele>4.4</ele>
        <time>2024-03-10T08:10:56Z</time>
      </trkpt>
      <trkpt lat="49.25667" lon="-0.10393">
        <ele>4.3</ele>
        <time>2024-03-10T08:10:57Z</time>
      </trkpt>
      <trkpt lat="49.25659" lon="-0.10391">
        <ele>4.3</ele>
        <time>2024-03-10T08:10:58Z</time>
      </trkpt>
      <trkpt lat="49.25652" lon="-0.1039">
        <ele>4.3</ele>
        <time>2024-03-10T08:10:59Z</time>
      </trkpt>
      <trkpt lat="49.25645" lon="-0.1039">
        <ele>4.4</ele>
        <time>2024-03-10T08:11:00Z</time>
      </trkpt>
      <trkpt lat="49.25637" lon="-0.10389">
        <ele>4.4</ele>
        <time>2024-03-10T08:11:01Z</time>
      </trkpt>
      <trkpt lat="49.2563" lon="-0.10388">
        <ele>4.4</ele>
        <time>2024-03-10T08:11:02Z</time>
      </trkpt>
      <trkpt lat="49.25623" lon="-0.10386">
        <ele>4.4</ele>
        <time>2024-03-10T08:11:03Z</time>
      </trkpt>
      <trkpt lat="49.25616" lon="-0.10385">
        <ele>4.3</ele>
        <time>2024-03-10T08:11:04Z</time>
      </trkpt>
      <trkpt lat="49.25609" lon="-0.10384">
        <ele>4.3</ele>
        <time>2024-03-10T08:11:05Z</time>
      </trkpt>
      <trkpt lat="49.25602" lon="-0.10383">
        <ele>4.3</ele>
        <time>2024-03-10T08:11:06Z</time>
      </trkpt>
      <trkpt lat="49.25595" lon="-0.10382">
        <ele>4.3</ele>
        <time>2024-03-10T08:11:07Z</time>
      </trkpt>
      <trkpt lat="49.25587" lon="-0.10381">
        <ele>4.3</ele>
        <time>2024-03-10T08:11:08Z</time>
      </trkpt>
      <trkpt lat="49.2558" lon="-0.10379">
        <ele>4.2</ele>
        <time>2024-03-10T08:11:09Z</time>
      </trkpt>
      <trkpt lat="49.25573" lon="-0.10378">
        <ele>4.2</ele>
        <time>2024-03-10T08:11:10Z</time>
      </trkpt>
      <trkpt lat="49.25565" lon="-0.10377">
        <ele>4.2</ele>
        <time>2024-03-10T08:11:11Z</time>
      </trkpt>
      <trkpt lat="49.25557" lon="-0.10376">
        <ele>4.2</ele>
        <time>2024-03-10T08:11:12Z</time>
      </trkpt>
      <trkpt lat="49.2555" lon="-0.10375">
        <ele>4.2</ele>
        <time>2024-03-10T08:11:13Z</time>
      </trkpt>
      <trkpt lat="49.25543" lon="-0.10373">
        <ele>4.2</ele>
        <time>2024-03-10T08:11:14Z</time>
      </trkpt>
      <trkpt lat="49.25535" lon="-0.10371">
        <ele>4.2</ele>
        <time>2024-03-10T08:11:15Z</time>
      </trkpt>
      <trkpt lat="49.25528" lon="-0.10369">
        <ele>4.2</ele>
        <time>2024-03-10T08:11:16Z</time>
      </trkpt>
      <trkpt lat="49.25521" lon="-0.10368">
        <ele>4.2</ele>
        <time>2024-03-10T08:11:17Z</time>
      </trkpt>
      <trkpt lat="49.25514" lon="-0.10367">
        <ele>4.1</ele>
        <time>2024-03-10T08:11:18Z</time>
      </trkpt>
      <trkpt lat="49.25507" lon="-0.10366">
        <ele>4.1</ele>
        <time>2024-03-10T08:11:19Z</time>
      </trkpt>
      <trkpt lat="49.255" lon="-0.10365">
        <ele>4.1</ele>
        <time>2024-03-10T08:11:20Z</time>
      </trkpt>
      <trkpt lat="49.25493" lon="-0.10364">
        <ele>4.1</ele>
        <time>2024-03-10T08:11:21Z</time>
      </trkpt>
      <trkpt lat="49.25486" lon="-0.10363">
        <ele>4.2</ele>
        <time>2024-03-10T08:11:22Z</time>
      </trkpt>
      <trkpt lat="49.25479" lon="-0.10361">
        <ele>4.2</ele>
        <time>2024-03-10T08:11:23Z</time>
      </trkpt>
      <trkpt lat="49.25471" lon="-0.1036">
        <ele>4.2</ele>
        <time>2024-03-10T08:11:24Z</time>
      </trkpt>
      <trkpt lat="49.25465" lon="-0.10359">
        <ele>4.2</ele>
        <time>2024-03-10T08:11:25Z</time>
      </trkpt>
      <trkpt lat="49.25458" lon="-0.10359">
        <ele>4.3</ele>
        <time>2024-03-10T08:11:26Z</time>
      </trkpt>
      <trkpt lat="49.2545" lon="-0.10358">
        <ele>4.3</ele>
        <time>2024-03-10T08:11:27Z</time>
      </trkpt>
      <trkpt lat="49.25443" lon="-0.10357">
        <ele>4.2</ele>
        <time>2024-03-10T08:11:28Z</time>
      </trkpt>
      <trkpt lat="49.25436" lon="-0.10356">
        <ele>4.2</ele>
        <time>2024-03-10T08:11:29Z</time>
      </trkpt>
      <trkpt lat="49.25428" lon="-0.10354">
        <ele>4.2</ele>
        <time>2024-03-10T08:11:30Z</time>
      </trkpt>
      <trkpt lat="49.25421" lon="-0.10354">
        <ele>4.2</ele>
        <time>2024-03-10T08:11:31Z</time>
      </trkpt>
      <trkpt lat="49.25414" lon="-0.10353">
        <ele>4.2</ele>
        <time>2024-03-10T08:11:32Z</time>
      </trkpt>
      <trkpt lat="49.25406" lon="-0.10352">
        <ele>4.2</ele>
        <time>2024-03-10T08:11:33Z</time>
      </trkpt>
      <trkpt lat="49.254" lon="-0.10351">
        <ele>4.2</ele>
        <time>2024-03-10T08:11:34Z</time>
      </trkpt>
      <trkpt lat="49.25393" lon="-0.1035">
        <ele>4.2</ele>
        <time>2024-03-10T08:11:35Z</time>
      </trkpt>
      <trkpt lat="49.25386" lon="-0.10349">
        <ele>4.2</ele>
        <time>2024-03-10T08:11:36Z</time>
      </trkpt>
      <trkpt lat="49.25378" lon="-0.10348">
        <ele>4.2</ele>
        <time>2024-03-10T08:11:37Z</time>
      </trkpt>
      <trkpt lat="49.25371" lon="-0.10347">
        <ele>4.2</ele>
        <time>2024-03-10T08:11:38Z</time>
      </trkpt>
      <trkpt lat="49.25364" lon="-0.10347">
        <ele>4.2</ele>
        <time>2024-03-10T08:11:39Z</time>
      </trkpt>
      <trkpt lat="49.25357" lon="-0.10346">
        <ele>4.2</ele>
        <time>2024-03-10T08:11:40Z</time>
      </trkpt>
      <trkpt lat="49.2535" lon="-0.10345">
        <ele>4.2</ele>
        <time>2024-03-10T08:11:41Z</time>
      </trkpt>
      <trkpt lat="49.25343" lon="-0.10344">
        <ele>4.2</ele>
        <time>2024-03-10T08:11:42Z</time>
      </trkpt>
      <trkpt lat="49.25336" lon="-0.10343">
        <ele>4.2</ele>
        <time>2024-03-10T08:11:43Z</time>
      </trkpt>
      <trkpt lat="49.25329" lon="-0.10342">
        <ele>4.2</ele>
        <time>2024-03-10T08:11:44Z</time>
      </trkpt>
      <trkpt lat="49.25321" lon="-0.10342">
        <ele>4.2</ele>
        <time>2024-03-10T08:11:45Z</time>
      </trkpt>
      <trkpt lat="49.25314" lon="-0.1034">
        <ele>4.2</ele>
        <time>2024-03-10T08:11:46Z</time>
      </trkpt>
      <trkpt lat="49.25307" lon="-0.1034">
        <ele>4.2</ele>
        <time>2024-03-10T08:11:47Z</time>
      </trkpt>
      <trkpt lat="49.25299" lon="-0.10339">
        <ele>4.2</ele>
        <time>2024-03-10T08:11:48Z</time>
      </trkpt>
      <trkpt lat="49.25292" lon="-0.10338">
        <ele>4.2</ele>
        <time>2024-03-10T08:11:49Z</time>
      </trkpt>
      <trkpt lat="49.25285" lon="-0.10337">
        <ele>4.1</ele>
        <time>2024-03-10T08:11:50Z</time>
      </trkpt>
      <trkpt lat="49.25277" lon="-0.10336">
        <ele>4.1</ele>
        <time>2024-03-10T08:11:51Z</time>
      </trkpt>
      <trkpt lat="49.2527" lon="-0.10335">
        <ele>4.1</ele>
        <time>2024-03-10T08:11:52Z</time>
      </trkpt>
      <trkpt lat="49.25263" lon="-0.10335">
        <ele>4.1</ele>
        <time>2024-03-10T08:11:53Z</time>
      </trkpt>
      <trkpt lat="49.25256" lon="-0.10334">
        <ele>4</ele>
        <time>2024-03-10T08:11:54Z</time>
      </trkpt>
      <trkpt lat="49.25249" lon="-0.10332">
        <ele>4</ele>
        <time>2024-03-10T08:11:55Z</time>
      </trkpt>
      <trkpt lat="49.25242" lon="-0.10331">
        <ele>4</ele>
        <time>2024-03-10T08:11:56Z</time>
      </trkpt>
      <trkpt lat="49.25234" lon="-0.1033">
        <ele>4</ele>
        <time>2024-03-10T08:11:57Z</time>
      </trkpt>
      <trkpt lat="49.25227" lon="-0.1033">
        <ele>4</ele>
        <time>2024-03-10T08:11:58Z</time>
      </trkpt>
      <trkpt lat="49.2522" lon="-0.10329">
        <ele>4</ele>
        <time>2024-03-10T08:11:59Z</time>
      </trkpt>
      <trkpt lat="49.25212" lon="-0.10328">
        <ele>4</ele>
        <time>2024-03-10T08:12:00Z</time>
      </trkpt>
      <trkpt lat="49.25205" lon="-0.10328">
        <ele>4</ele>
        <time>2024-03-10T08:12:01Z</time>
      </trkpt>
      <trkpt lat="49.25198" lon="-0.10327">
        <ele>4</ele>
        <time>2024-03-10T08:12:02Z</time>
      </trkpt>
      <trkpt lat="49.25191" lon="-0.10326">
        <ele>4</ele>
        <time>2024-03-10T08:12:03Z</time>
      </trkpt>
      <trkpt lat="49.25184" lon="-0.10326">
        <ele>4</ele>
        <time>2024-03-10T08:12:04Z</time>
      </trkpt>
      <trkpt lat="49.25177" lon="-0.10325">
        <ele>4</ele>
        <time>2024-03-10T08:12:05Z</time>
      </trkpt>
      <trkpt lat="49.2517" lon="-0.10324">
        <ele>4</ele>
        <time>2024-03-10T08:12:06Z</time>
      </trkpt>
      <trkpt lat="49.25162" lon="-0.10323">
        <ele>4</ele>
        <time>2024-03-10T08:12:07Z</time>
      </trkpt>
      <trkpt lat="49.25155" lon="-0.10322">
        <ele>4</ele>
        <time>2024-03-10T08:12:08Z</time>
      </trkpt>
      <trkpt lat="49.25148" lon="-0.10321">
        <ele>4</ele>
        <time>2024-03-10T08:12:09Z</time>
      </trkpt>
      <trkpt lat="49.25141" lon="-0.1032">
        <ele>4</ele>
        <time>2024-03-10T08:12:10Z</time>
      </trkpt>
      <trkpt lat="49.25134" lon="-0.1032">
        <ele>4</ele>
        <time>2024-03-10T08:12:11Z</time>
      </trkpt>
      <trkpt lat="49.25127" lon="-0.10319">
        <ele>4</ele>
        <time>2024-03-10T08:12:12Z</time>
      </trkpt>
      <trkpt lat="49.2512" lon="-0.10319">
        <ele>3.9</ele>
        <time>2024-03-10T08:12:13Z</time>
      </trkpt>
      <trkpt lat="49.25113" lon="-0.10319">
        <ele>3.9</ele>
        <time>2024-03-10T08:12:14Z</time>
      </trkpt>
      <trkpt lat="49.25105" lon="-0.10318">
        <ele>3.9</ele>
        <time>2024-03-10T08:12:15Z</time>
      </trkpt>
      <trkpt lat="49.25098" lon="-0.10318">
        <ele>3.9</ele>
        <time>2024-03-10T08:12:16Z</time>
      </trkpt>
      <trkpt lat="49.25091" lon="-0.10317">
        <ele>3.9</ele>
        <time>2024-03-10T08:12:17Z</time>
      </trkpt>
      <trkpt lat="49.25083" lon="-0.10317">
        <ele>3.9</ele>
        <time>2024-03-10T08:12:18Z</time>
      </trkpt>
      <trkpt lat="49.25076" lon="-0.10317">
        <ele>3.9</ele>
        <time>2024-03-10T08:12:19Z</time>
      </trkpt>
      <trkpt lat="49.25069" lon="-0.10317">
        <ele>3.9</ele>
        <time>2024-03-10T08:12:20Z</time>
      </trkpt>
      <trkpt lat="49.25062" lon="-0.10317">
        <ele>3.9</ele>
        <time>2024-03-10T08:12:21Z</time>
      </trkpt>
      <trkpt lat="49.25055" lon="-0.10317">
        <ele>3.9</ele>
        <time>2024-03-10T08:12:22Z</time>
      </trkpt>
      <trkpt lat="49.25048" lon="-0.10317">
        <ele>3.9</ele>
        <time>2024-03-10T08:12:23Z</time>
      </trkpt>
      <trkpt lat="49.2504" lon="-0.10318">
        <ele>3.9</ele>
        <time>2024-03-10T08:12:24Z</time>
      </trkpt>
      <trkpt lat="49.25033" lon="-0.10318">
        <ele>3.9</ele>
        <time>2024-03-10T08:12:25Z</time>
      </trkpt>
      <trkpt lat="49.25026" lon="-0.10318">
        <ele>3.9</ele>
        <time>2024-03-10T08:12:26Z</time>
      </trkpt>
      <trkpt lat="49.25018" lon="-0.10319">
        <ele>3.9</ele>
        <time>2024-03-10T08:12:27Z</time>
      </trkpt>
      <trkpt lat="49.25011" lon="-0.10319">
        <ele>3.9</ele>
        <time>2024-03-10T08:12:28Z</time>
      </trkpt>
      <trkpt lat="49.25004" lon="-0.10319">
        <ele>3.9</ele>
        <time>2024-03-10T08:12:29Z</time>
      </trkpt>
      <trkpt lat="49.24997" lon="-0.10319">
        <ele>3.9</ele>
        <time>2024-03-10T08:12:30Z</time>
      </trkpt>
      <trkpt lat="49.24989" lon="-0.10319">
        <ele>3.9</ele>
        <time>2024-03-10T08:12:31Z</time>
      </trkpt>
      <trkpt lat="49.24982" lon="-0.10318">
        <ele>3.9</ele>
        <time>2024-03-10T08:12:32Z</time>
      </trkpt>
      <trkpt lat="49.24975" lon="-0.10319">
        <ele>3.9</ele>
        <time>2024-03-10T08:12:33Z</time>
      </trkpt>
      <trkpt lat="49.24967" lon="-0.10319">
        <ele>3.9</ele>
        <time>2024-03-10T08:12:34Z</time>
      </trkpt>
      <trkpt lat="49.2496" lon="-0.10319">
        <ele>3.9</ele>
        <time>2024-03-10T08:12:35Z</time>
      </trkpt>
      <trkpt lat="49.24953" lon="-0.10319">
        <ele>4</ele>
        <time>2024-03-10T08:12:36Z</time>
      </trkpt>
      <trkpt lat="49.24946" lon="-0.10319">
        <ele>4</ele>
        <time>2024-03-10T08:12:37Z</time>
      </trkpt>
      <trkpt lat="49.24939" lon="-0.10319">
        <ele>4</ele>
        <time>2024-03-10T08:12:38Z</time>
      </trkpt>
      <trkpt lat="49.24932" lon="-0.10319">
        <ele>4.1</ele>
        <time>2024-03-10T08:12:39Z</time>
      </trkpt>
      <trkpt lat="49.24925" lon="-0.10319">
        <ele>4.1</ele>
        <time>2024-03-10T08:12:40Z</time>
      </trkpt>
      <trkpt lat="49.24918" lon="-0.1032">
        <ele>4.1</ele>
        <time>2024-03-10T08:12:41Z</time>
      </trkpt>
      <trkpt lat="49.24911" lon="-0.1032">
        <ele>4.1</ele>
        <time>2024-03-10T08:12:42Z</time>
      </trkpt>
      <trkpt lat="49.24904" lon="-0.10319">
        <ele>4.1</ele>
        <time>2024-03-10T08:12:43Z</time>
      </trkpt>
      <trkpt lat="49.24897" lon="-0.10319">
        <ele>4.1</ele>
        <time>2024-03-10T08:12:44Z</time>
      </trkpt>
      <trkpt lat="49.2489" lon="-0.1032">
        <ele>4.2</ele>
        <time>2024-03-10T08:12:45Z</time>
      </trkpt>
      <trkpt lat="49.24883" lon="-0.1032">
        <ele>4.2</ele>
        <time>2024-03-10T08:12:46Z</time>
      </trkpt>
      <trkpt lat="49.24876" lon="-0.1032">
        <ele>4.2</ele>
        <time>2024-03-10T08:12:47Z</time>
      </trkpt>
      <trkpt lat="49.24869" lon="-0.1032">
        <ele>4.2</ele>
        <time>2024-03-10T08:12:48Z</time>
      </trkpt>
      <trkpt lat="49.24861" lon="-0.10321">
        <ele>4.2</ele>
        <time>2024-03-10T08:12:49Z</time>
      </trkpt>
      <trkpt lat="49.24854" lon="-0.10321">
        <ele>4.1</ele>
        <time>2024-03-10T08:12:50Z</time>
      </trkpt>
      <trkpt lat="49.24848" lon="-0.10321">
        <ele>4.1</ele>
        <time>2024-03-10T08:12:51Z</time>
      </trkpt>
      <trkpt lat="49.24841" lon="-0.10321">
        <ele>4.1</ele>
        <time>2024-03-10T08:12:52Z</time>
      </trkpt>
      <trkpt lat="49.24834" lon="-0.10321">
        <ele>4.1</ele>
        <time>2024-03-10T08:12:53Z</time>
      </trkpt>
      <trkpt lat="49.24827" lon="-0.10322">
        <ele>4.1</ele>
        <time>2024-03-10T08:12:54Z</time>
      </trkpt>
      <trkpt lat="49.2482" lon="-0.10322">
        <ele>4.1</ele>
        <time>2024-03-10T08:12:55Z</time>
      </trkpt>
      <trkpt lat="49.24813" lon="-0.10321">
        <ele>4.1</ele>
        <time>2024-03-10T08:12:56Z</time>
      </trkpt>
      <trkpt lat="49.24806" lon="-0.10321">
        <ele>4.1</ele>
        <time>2024-03-10T08:12:57Z</time>
      </trkpt>
      <trkpt lat="49.24799" lon="-0.10321">
        <ele>4.1</ele>
        <time>2024-03-10T08:12:58Z</time>
      </trkpt>
      <trkpt lat="49.24792" lon="-0.10321">
        <ele>4.1</ele>
        <time>2024-03-10T08:12:59Z</time>
      </trkpt>
      <trkpt lat="49.24785" lon="-0.10321">
        <ele>4.1</ele>
        <time>2024-03-10T08:13:00Z</time>
      </trkpt>
      <trkpt lat="49.24778" lon="-0.10322">
        <ele>4</ele>
        <time>2024-03-10T08:13:01Z</time>
      </trkpt>
      <trkpt lat="49.2477" lon="-0.10321">
        <ele>4</ele>
        <time>2024-03-10T08:13:02Z</time>
      </trkpt>
      <trkpt lat="49.24763" lon="-0.10321">
        <ele>4</ele>
        <time>2024-03-10T08:13:03Z</time>
      </trkpt>
      <trkpt lat="49.24756" lon="-0.10321">
        <ele>4</ele>
        <time>2024-03-10T08:13:04Z</time>
      </trkpt>
      <trkpt lat="49.24749" lon="-0.10322">
        <ele>4</ele>
        <time>2024-03-10T08:13:05Z</time>
      </trkpt>
      <trkpt lat="49.24742" lon="-0.10322">
        <ele>4</ele>
        <time>2024-03-10T08:13:06Z</time>
      </trkpt>
      <trkpt lat="49.24735" lon="-0.10322">
        <ele>4</ele>
        <time>2024-03-10T08:13:07Z</time>
      </trkpt>
      <trkpt lat="49.24728" lon="-0.10322">
        <ele>4</ele>
        <time>2024-03-10T08:13:08Z</time>
      </trkpt>
      <trkpt lat="49.24721" lon="-0.10322">
        <ele>4</ele>
        <time>2024-03-10T08:13:09Z</time>
      </trkpt>
      <trkpt lat="49.24714" lon="-0.10322">
        <ele>4</ele>
        <time>2024-03-10T08:13:10Z</time>
      </trkpt>
      <trkpt lat="49.24707" lon="-0.10322">
        <ele>4</ele>
        <time>2024-03-10T08:13:11Z</time>
      </trkpt>
      <trkpt lat="49.247" lon="-0.10322">
        <ele>4</ele>
        <time>2024-03-10T08:13:12Z</time>
      </trkpt>
      <trkpt lat="49.24693" lon="-0.10322">
        <ele>4</ele>
        <time>2024-03-10T08:13:13Z</time>
      </trkpt>
      <trkpt lat="49.24686" lon="-0.10322">
        <ele>4</ele>
        <time>2024-03-10T08:13:14Z</time>
      </trkpt>
      <trkpt lat="49.24679" lon="-0.10321">
        <ele>4.1</ele>
        <time>2024-03-10T08:13:15Z</time>
      </trkpt>
      <trkpt lat="49.24671" lon="-0.1032">
        <ele>4.1</ele>
        <time>2024-03-10T08:13:16Z</time>
      </trkpt>
      <trkpt lat="49.24664" lon="-0.1032">
        <ele>4.1</ele>
        <time>2024-03-10T08:13:17Z</time>
      </trkpt>
      <trkpt lat="49.24657" lon="-0.10319">
        <ele>4.1</ele>
        <time>2024-03-10T08:13:18Z</time>
      </trkpt>
      <trkpt lat="49.2465" lon="-0.10318">
        <ele>4.1</ele>
        <time>2024-03-10T08:13:19Z</time>
      </trkpt>
      <trkpt lat="49.24643" lon="-0.10317">
        <ele>4.1</ele>
        <time>2024-03-10T08:13:20Z</time>
      </trkpt>
      <trkpt lat="49.24636" lon="-0.10316">
        <ele>4.1</ele>
        <time>2024-03-10T08:13:21Z</time>
      </trkpt>
      <trkpt lat="49.24628" lon="-0.10315">
        <ele>4.1</ele>
        <time>2024-03-10T08:13:22Z</time>
      </trkpt>
      <trkpt lat="49.24621" lon="-0.10314">
        <ele>4.1</ele>
        <time>2024-03-10T08:13:23Z</time>
      </trkpt>
      <trkpt lat="49.24614" lon="-0.10313">
        <ele>4.1</ele>
        <time>2024-03-10T08:13:24Z</time>
      </trkpt>
      <trkpt lat="49.24607" lon="-0.10312">
        <ele>4.1</ele>
        <time>2024-03-10T08:13:25Z</time>
      </trkpt>
      <trkpt lat="49.246" lon="-0.10311">
        <ele>4.2</ele>
        <time>2024-03-10T08:13:26Z</time>
      </trkpt>
      <trkpt lat="49.24593" lon="-0.1031">
        <ele>4.2</ele>
        <time>2024-03-10T08:13:27Z</time>
      </trkpt>
      <trkpt lat="49.24586" lon="-0.10307">
        <ele>4.3</ele>
        <time>2024-03-10T08:13:28Z</time>
      </trkpt>
      <trkpt lat="49.24579" lon="-0.10305">
        <ele>4.4</ele>
        <time>2024-03-10T08:13:29Z</time>
      </trkpt>
      <trkpt lat="49.24572" lon="-0.10303">
        <ele>4.5</ele>
        <time>2024-03-10T08:13:30Z</time>
      </trkpt>
      <trkpt lat="49.24565" lon="-0.10302">
        <ele>4.5</ele>
        <time>2024-03-10T08:13:31Z</time>
      </trkpt>
      <trkpt lat="49.24558" lon="-0.103">
        <ele>4.5</ele>
        <time>2024-03-10T08:13:32Z</time>
      </trkpt>
      <trkpt lat="49.24551" lon="-0.10298">
        <ele>4.5</ele>
        <time>2024-03-10T08:13:33Z</time>
      </trkpt>
      <trkpt lat="49.24545" lon="-0.10295">
        <ele>4.6</ele>
        <time>2024-03-10T08:13:34Z</time>
      </trkpt>
      <trkpt lat="49.24538" lon="-0.10293">
        <ele>4.6</ele>
        <time>2024-03-10T08:13:35Z</time>
      </trkpt>
      <trkpt lat="49.24531" lon="-0.10291">
        <ele>4.7</ele>
        <time>2024-03-10T08:13:36Z</time>
      </trkpt>
      <trkpt lat="49.24524" lon="-0.10288">
        <ele>4.7</ele>
        <time>2024-03-10T08:13:37Z</time>
      </trkpt>
      <trkpt lat="49.24517" lon="-0.10285">
        <ele>4.7</ele>
        <time>2024-03-10T08:13:38Z</time>
      </trkpt>
      <trkpt lat="49.2451" lon="-0.10282">
        <ele>4.7</ele>
        <time>2024-03-10T08:13:39Z</time>
      </trkpt>
      <trkpt lat="49.24503" lon="-0.10279">
        <ele>4.8</ele>
        <time>2024-03-10T08:13:40Z</time>
      </trkpt>
      <trkpt lat="49.24496" lon="-0.10276">
        <ele>4.8</ele>
        <time>2024-03-10T08:13:41Z</time>
      </trkpt>
      <trkpt lat="49.24489" lon="-0.10274">
        <ele>4.9</ele>
        <time>2024-03-10T08:13:42Z</time>
      </trkpt>
      <trkpt lat="49.24482" lon="-0.10271">
        <ele>5</ele>
        <time>2024-03-10T08:13:43Z</time>
      </trkpt>
      <trkpt lat="49.24476" lon="-0.10267">
        <ele>5.1</ele>
        <time>2024-03-10T08:13:44Z</time>
      </trkpt>
      <trkpt lat="49.24469" lon="-0.10263">
        <ele>5.2</ele>
        <time>2024-03-10T08:13:45Z</time>
      </trkpt>
      <trkpt lat="49.24462" lon="-0.1026">
        <ele>5.3</ele>
        <time>2024-03-10T08:13:46Z</time>
      </trkpt>
      <trkpt lat="49.24456" lon="-0.10256">
        <ele>5.4</ele>
        <time>2024-03-10T08:13:47Z</time>
      </trkpt>
      <trkpt lat="49.24449" lon="-0.10252">
        <ele>5.6</ele>
        <time>2024-03-10T08:13:48Z</time>
      </trkpt>
      <trkpt lat="49.24442" lon="-0.10248">
        <ele>5.7</ele>
        <time>2024-03-10T08:13:49Z</time>
      </trkpt>
      <trkpt lat="49.24435" lon="-0.10244">
        <ele>5.8</ele>
        <time>2024-03-10T08:13:50Z</time>
      </trkpt>
      <trkpt lat="49.24428" lon="-0.1024">
        <ele>6</ele>
        <time>2024-03-10T08:13:51Z</time>
      </trkpt>
      <trkpt lat="49.24422" lon="-0.10235">
        <ele>6.1</ele>
        <time>2024-03-10T08:13:52Z</time>
      </trkpt>
      <trkpt lat="49.24415" lon="-0.10231">
        <ele>6.2</ele>
        <time>2024-03-10T08:13:53Z</time>
      </trkpt>
      <trkpt lat="49.24409" lon="-0.10226">
        <ele>6.2</ele>
        <time>2024-03-10T08:13:54Z</time>
      </trkpt>
      <trkpt lat="49.24402" lon="-0.10221">
        <ele>6.3</ele>
        <time>2024-03-10T08:13:55Z</time>
      </trkpt>
      <trkpt lat="49.24396" lon="-0.10217">
        <ele>6.4</ele>
        <time>2024-03-10T08:13:56Z</time>
      </trkpt>
      <trkpt lat="49.2439" lon="-0.10212">
        <ele>6.4</ele>
        <time>2024-03-10T08:13:57Z</time>
      </trkpt>
      <trkpt lat="49.24383" lon="-0.10207">
        <ele>6.5</ele>
        <time>2024-03-10T08:13:58Z</time>
      </trkpt>
      <trkpt lat="49.24377" lon="-0.10202">
        <ele>6.6</ele>
        <time>2024-03-10T08:13:59Z</time>
      </trkpt>
      <trkpt lat="49.24371" lon="-0.10197">
        <ele>6.6</ele>
        <time>2024-03-10T08:14:00Z</time>
      </trkpt>
      <trkpt lat="49.24364" lon="-0.10192">
        <ele>6.7</ele>
        <time>2024-03-10T08:14:01Z</time>
      </trkpt>
      <trkpt lat="49.24358" lon="-0.10187">
        <ele>6.7</ele>
        <time>2024-03-10T08:14:02Z</time>
      </trkpt>
      <trkpt lat="49.24352" lon="-0.10182">
        <ele>6.7</ele>
        <time>2024-03-10T08:14:03Z</time>
      </trkpt>
      <trkpt lat="49.24346" lon="-0.10176">
        <ele>6.8</ele>
        <time>2024-03-10T08:14:04Z</time>
      </trkpt>
      <trkpt lat="49.24339" lon="-0.10171">
        <ele>6.8</ele>
        <time>2024-03-10T08:14:05Z</time>
      </trkpt>
      <trkpt lat="49.24333" lon="-0.10165">
        <ele>6.8</ele>
        <time>2024-03-10T08:14:06Z</time>
      </trkpt>
      <trkpt lat="49.24327" lon="-0.10159">
        <ele>6.7</ele>
        <time>2024-03-10T08:14:07Z</time>
      </trkpt>
      <trkpt lat="49.24321" lon="-0.10153">
        <ele>6.7</ele>
        <time>2024-03-10T08:14:08Z</time>
      </trkpt>
      <trkpt lat="49.24314" lon="-0.10148">
        <ele>6.6</ele>
        <time>2024-03-10T08:14:09Z</time>
      </trkpt>
      <trkpt lat="49.24308" lon="-0.10141">
        <ele>6.6</ele>
        <time>2024-03-10T08:14:10Z</time>
      </trkpt>
      <trkpt lat="49.24302" lon="-0.10134">
        <ele>6.6</ele>
        <time>2024-03-10T08:14:11Z</time>
      </trkpt>
      <trkpt lat="49.24295" lon="-0.10127">
        <ele>6.5</ele>
        <time>2024-03-10T08:14:12Z</time>
      </trkpt>
      <trkpt lat="49.24289" lon="-0.10121">
        <ele>6.5</ele>
        <time>2024-03-10T08:14:13Z</time>
      </trkpt>
      <trkpt lat="49.24283" lon="-0.10114">
        <ele>6.4</ele>
        <time>2024-03-10T08:14:14Z</time>
      </trkpt>
      <trkpt lat="49.24277" lon="-0.10107">
        <ele>6.3</ele>
        <time>2024-03-10T08:14:15Z</time>
      </trkpt>
      <trkpt lat="49.24271" lon="-0.101">
        <ele>6.2</ele>
        <time>2024-03-10T08:14:16Z</time>
      </trkpt>
      <trkpt lat="49.24265" lon="-0.10093">
        <ele>6.1</ele>
        <time>2024-03-10T08:14:17Z</time>
      </trkpt>
      <trkpt lat="49.24259" lon="-0.10086">
        <ele>6</ele>
        <time>2024-03-10T08:14:18Z</time>
      </trkpt>
      <trkpt lat="49.24253" lon="-0.1008">
        <ele>5.9</ele>
        <time>2024-03-10T08:14:19Z</time>
      </trkpt>
      <trkpt lat="49.24247" lon="-0.10073">
        <ele>5.8</ele>
        <time>2024-03-10T08:14:20Z</time>
      </trkpt>
      <trkpt lat="49.24241" lon="-0.10066">
        <ele>5.8</ele>
        <time>2024-03-10T08:14:21Z</time>
      </trkpt>
      <trkpt lat="49.24235" lon="-0.10059">
        <ele>5.7</ele>
        <time>2024-03-10T08:14:22Z</time>
      </trkpt>
      <trkpt lat="49.24229" lon="-0.10052">
        <ele>5.6</ele>
        <time>2024-03-10T08:14:23Z</time>
      </trkpt>
      <trkpt lat="49.24223" lon="-0.10044">
        <ele>5.5</ele>
        <time>2024-03-10T08:14:24Z</time>
      </trkpt>
      <trkpt lat="49.24217" lon="-0.10037">
        <ele>5.4</ele>
        <time>2024-03-10T08:14:25Z</time>
      </trkpt>
      <trkpt lat="49.24211" lon="-0.1003">
        <ele>5.3</ele>
        <time>2024-03-10T08:14:26Z</time>
      </trkpt>
      <trkpt lat="49.24205" lon="-0.10023">
        <ele>5.2</ele>
        <time>2024-03-10T08:14:27Z</time>
      </trkpt>
      <trkpt lat="49.24199" lon="-0.10016">
        <ele>5.1</ele>
        <time>2024-03-10T08:14:28Z</time>
      </trkpt>
      <trkpt lat="49.24193" lon="-0.10008">
        <ele>5</ele>
        <time>2024-03-10T08:14:29Z</time>
      </trkpt>
      <trkpt lat="49.24186" lon="-0.1">
        <ele>5</ele>
        <time>2024-03-10T08:14:30Z</time>
      </trkpt>
      <trkpt lat="49.2418" lon="-0.09993">
        <ele>4.9</ele>
        <time>2024-03-10T08:14:31Z</time>
      </trkpt>
      <trkpt lat="49.24174" lon="-0.09985">
        <ele>4.8</ele>
        <time>2024-03-10T08:14:32Z</time>
      </trkpt>
      <trkpt lat="49.24167" lon="-0.09978">
        <ele>4.7</ele>
        <time>2024-03-10T08:14:33Z</time>
      </trkpt>
      <trkpt lat="49.24161" lon="-0.0997">
        <ele>4.6</ele>
        <time>2024-03-10T08:14:34Z</time>
      </trkpt>
      <trkpt lat="49.24155" lon="-0.09963">
        <ele>4.5</ele>
        <time>2024-03-10T08:14:35Z</time>
      </trkpt>
      <trkpt lat="49.24149" lon="-0.09955">
        <ele>4.5</ele>
        <time>2024-03-10T08:14:36Z</time>
      </trkpt>
      <trkpt lat="49.24143" lon="-0.09948">
        <ele>4.4</ele>
        <time>2024-03-10T08:14:37Z</time>
      </trkpt>
      <trkpt lat="49.24136" lon="-0.09941">
        <ele>4.4</ele>
        <time>2024-03-10T08:14:38Z</time>
      </trkpt>
      <trkpt lat="49.2413" lon="-0.09934">
        <ele>4.4</ele>
        <time>2024-03-10T08:14:39Z</time>
      </trkpt>
      <trkpt lat="49.24125" lon="-0.09927">
        <ele>4.4</ele>
        <time>2024-03-10T08:14:40Z</time>
      </trkpt>
      <trkpt lat="49.24118" lon="-0.09919">
        <ele>4.4</ele>
        <time>2024-03-10T08:14:41Z</time>
      </trkpt>
      <trkpt lat="49.24113" lon="-0.09912">
        <ele>4.4</ele>
        <time>2024-03-10T08:14:42Z</time>
      </trkpt>
      <trkpt lat="49.24107" lon="-0.09905">
        <ele>4.4</ele>
        <time>2024-03-10T08:14:43Z</time>
      </trkpt>
      <trkpt lat="49.24101" lon="-0.09898">
        <ele>4.4</ele>
        <time>2024-03-10T08:14:44Z</time>
      </trkpt>
      <trkpt lat="49.24095" lon="-0.09891">
        <ele>4.4</ele>
        <time>2024-03-10T08:14:45Z</time>
      </trkpt>
      <trkpt lat="49.24089" lon="-0.09883">
        <ele>4.4</ele>
        <time>2024-03-10T08:14:46Z</time>
      </trkpt>
      <trkpt lat="49.24083" lon="-0.09876">
        <ele>4.4</ele>
        <time>2024-03-10T08:14:47Z</time>
      </trkpt>
      <trkpt lat="49.24077" lon="-0.09869">
        <ele>4.4</ele>
        <time>2024-03-10T08:14:48Z</time>
      </trkpt>
      <trkpt lat="49.24071" lon="-0.09862">
        <ele>4.4</ele>
        <time>2024-03-10T08:14:49Z</time>
      </trkpt>
      <trkpt lat="49.24065" lon="-0.09855">
        <ele>4.5</ele>
        <time>2024-03-10T08:14:50Z</time>
      </trkpt>
      <trkpt lat="49.24059" lon="-0.09848">
        <ele>4.5</ele>
        <time>2024-03-10T08:14:51Z</time>
      </trkpt>
      <trkpt lat="49.24053" lon="-0.09841">
        <ele>4.5</ele>
        <time>2024-03-10T08:14:52Z</time>
      </trkpt>
      <trkpt lat="49.24047" lon="-0.09834">
        <ele>4.5</ele>
        <time>2024-03-10T08:14:53Z</time>
      </trkpt>
      <trkpt lat="49.24041" lon="-0.09827">
        <ele>4.5</ele>
        <time>2024-03-10T08:14:54Z</time>
      </trkpt>
      <trkpt lat="49.24035" lon="-0.0982">
        <ele>4.5</ele>
        <time>2024-03-10T08:14:55Z</time>
      </trkpt>
      <trkpt lat="49.24029" lon="-0.09813">
        <ele>4.6</ele>
        <time>2024-03-10T08:14:56Z</time>
      </trkpt>
      <trkpt lat="49.24024" lon="-0.09806">
        <ele>4.6</ele>
        <time>2024-03-10T08:14:57Z</time>
      </trkpt>
      <trkpt lat="49.24018" lon="-0.09799">
        <ele>4.6</ele>
        <time>2024-03-10T08:14:58Z</time>
      </trkpt>
      <trkpt lat="49.24012" lon="-0.09791">
        <ele>4.6</ele>
        <time>2024-03-10T08:14:59Z</time>
      </trkpt>
      <trkpt lat="49.24006" lon="-0.09784">
        <ele>4.6</ele>
        <time>2024-03-10T08:15:00Z</time>
      </trkpt>
      <trkpt lat="49.24001" lon="-0.09777">
        <ele>4.6</ele>
        <time>2024-03-10T08:15:01Z</time>
      </trkpt>
      <trkpt lat="49.23995" lon="-0.0977">
        <ele>4.6</ele>
        <time>2024-03-10T08:15:02Z</time>
      </trkpt>
      <trkpt lat="49.23989" lon="-0.09763">
        <ele>4.6</ele>
        <time>2024-03-10T08:15:03Z</time>
      </trkpt>
      <trkpt lat="49.23983" lon="-0.09756">
        <ele>4.6</ele>
        <time>2024-03-10T08:15:04Z</time>
      </trkpt>
      <trkpt lat="49.23978" lon="-0.09749">
        <ele>4.6</ele>
        <time>2024-03-10T08:15:05Z</time>
      </trkpt>
      <trkpt lat="49.23972" lon="-0.09742">
        <ele>4.6</ele>
        <time>2024-03-10T08:15:06Z</time>
      </trkpt>
      <trkpt lat="49.23966" lon="-0.09735">
        <ele>4.6</ele>
        <time>2024-03-10T08:15:07Z</time>
      </trkpt>
      <trkpt lat="49.2396" lon="-0.09728">
        <ele>4.6</ele>
        <time>2024-03-10T08:15:08Z</time>
      </trkpt>
      <trkpt lat="49.23954" lon="-0.09721">
        <ele>4.6</ele>
        <time>2024-03-10T08:15:09Z</time>
      </trkpt>
      <trkpt lat="49.23949" lon="-0.09714">
        <ele>4.6</ele>
        <time>2024-03-10T08:15:10Z</time>
      </trkpt>
      <trkpt lat="49.23943" lon="-0.09707">
        <ele>4.6</ele>
        <time>2024-03-10T08:15:11Z</time>
      </trkpt>
      <trkpt lat="49.23937" lon="-0.097">
        <ele>4.6</ele>
        <time>2024-03-10T08:15:12Z</time>
      </trkpt>
      <trkpt lat="49.23931" lon="-0.09693">
        <ele>4.6</ele>
        <time>2024-03-10T08:15:13Z</time>
      </trkpt>
      <trkpt lat="49.23925" lon="-0.09686">
        <ele>4.6</ele>
        <time>2024-03-10T08:15:14Z</time>
      </trkpt>
      <trkpt lat="49.23919" lon="-0.09678">
        <ele>4.6</ele>
        <time>2024-03-10T08:15:15Z</time>
      </trkpt>
      <trkpt lat="49.23913" lon="-0.09671">
        <ele>4.6</ele>
        <time>2024-03-10T08:15:16Z</time>
      </trkpt>
      <trkpt lat="49.23907" lon="-0.09665">
        <ele>4.5</ele>
        <time>2024-03-10T08:15:17Z</time>
      </trkpt>
      <trkpt lat="49.23901" lon="-0.09658">
        <ele>4.5</ele>
        <time>2024-03-10T08:15:18Z</time>
      </trkpt>
      <trkpt lat="49.23895" lon="-0.0965">
        <ele>4.5</ele>
        <time>2024-03-10T08:15:19Z</time>
      </trkpt>
      <trkpt lat="49.2389" lon="-0.09643">
        <ele>4.5</ele>
        <time>2024-03-10T08:15:20Z</time>
      </trkpt>
      <trkpt lat="49.23884" lon="-0.09636">
        <ele>4.5</ele>
        <time>2024-03-10T08:15:21Z</time>
      </trkpt>
      <trkpt lat="49.23877" lon="-0.09629">
        <ele>4.4</ele>
        <time>2024-03-10T08:15:22Z</time>
      </trkpt>
      <trkpt lat="49.23871" lon="-0.09622">
        <ele>4.4</ele>
        <time>2024-03-10T08:15:23Z</time>
      </trkpt>
      <trkpt lat="49.23866" lon="-0.09615">
        <ele>4.4</ele>
        <time>2024-03-10T08:15:24Z</time>
      </trkpt>
      <trkpt lat="49.2386" lon="-0.09608">
        <ele>4.4</ele>
        <time>2024-03-10T08:15:25Z</time>
      </trkpt>
      <trkpt lat="49.23854" lon="-0.096">
        <ele>4.4</ele>
        <time>2024-03-10T08:15:26Z</time>
      </trkpt>
      <trkpt lat="49.23848" lon="-0.09593">
        <ele>4.4</ele>
        <time>2024-03-10T08:15:27Z</time>
      </trkpt>
      <trkpt lat="49.23842" lon="-0.09586">
        <ele>4.4</ele>
        <time>2024-03-10T08:15:28Z</time>
      </trkpt>
      <trkpt lat="49.23836" lon="-0.09579">
        <ele>4.4</ele>
        <time>2024-03-10T08:15:29Z</time>
      </trkpt>
      <trkpt lat="49.23831" lon="-0.09572">
        <ele>4.4</ele>
        <time>2024-03-10T08:15:30Z</time>
      </trkpt>
      <trkpt lat="49.23825" lon="-0.09565">
        <ele>4.3</ele>
        <time>2024-03-10T08:15:31Z</time>
      </trkpt>
      <trkpt lat="49.23819" lon="-0.09558">
        <ele>4.3</ele>
        <time>2024-03-10T08:15:32Z</time>
      </trkpt>
      <trkpt lat="49.23813" lon="-0.09551">
        <ele>4.3</ele>
        <time>2024-03-10T08:15:33Z</time>
      </trkpt>
      <trkpt lat="49.23807" lon="-0.09544">
        <ele>4.3</ele>
        <time>2024-03-10T08:15:34Z</time>
      </trkpt>
      <trkpt lat="49.23801" lon="-0.09536">
        <ele>4.3</ele>
        <time>2024-03-10T08:15:35Z</time>
      </trkpt>
      <trkpt lat="49.23795" lon="-0.09529">
        <ele>4.3</ele>
        <time>2024-03-10T08:15:36Z</time>
      </trkpt>
      <trkpt lat="49.2379" lon="-0.09522">
        <ele>4.3</ele>
        <time>2024-03-10T08:15:37Z</time>
      </trkpt>
      <trkpt lat="49.23784" lon="-0.09515">
        <ele>4.3</ele>
        <time>2024-03-10T08:15:38Z</time>
      </trkpt>
      <trkpt lat="49.23778" lon="-0.09508">
        <ele>4.3</ele>
        <time>2024-03-10T08:15:39Z</time>
      </trkpt>
      <trkpt lat="49.23772" lon="-0.09501">
        <ele>4.2</ele>
        <time>2024-03-10T08:15:40Z</time>
      </trkpt>
      <trkpt lat="49.23766" lon="-0.09494">
        <ele>4.2</ele>
        <time>2024-03-10T08:15:41Z</time>
      </trkpt>
      <trkpt lat="49.2376" lon="-0.09487">
        <ele>4.2</ele>
        <time>2024-03-10T08:15:42Z</time>
      </trkpt>
      <trkpt lat="49.23755" lon="-0.0948">
        <ele>4.2</ele>
        <time>2024-03-10T08:15:43Z</time>
      </trkpt>
      <trkpt lat="49.23749" lon="-0.09473">
        <ele>4.2</ele>
        <time>2024-03-10T08:15:44Z</time>
      </trkpt>
      <trkpt lat="49.23743" lon="-0.09466">
        <ele>4.1</ele>
        <time>2024-03-10T08:15:45Z</time>
      </trkpt>
      <trkpt lat="49.23737" lon="-0.09459">
        <ele>4.1</ele>
        <time>2024-03-10T08:15:46Z</time>
      </trkpt>
      <trkpt lat="49.23731" lon="-0.09452">
        <ele>4.2</ele>
        <time>2024-03-10T08:15:47Z</time>
      </trkpt>
      <trkpt lat="49.23725" lon="-0.09445">
        <ele>4.2</ele>
        <time>2024-03-10T08:15:48Z</time>
      </trkpt>
      <trkpt lat="49.23719" lon="-0.09438">
        <ele>4.2</ele>
        <time>2024-03-10T08:15:49Z</time>
      </trkpt>
      <trkpt lat="49.23714" lon="-0.09431">
        <ele>4.1</ele>
        <time>2024-03-10T08:15:50Z</time>
      </trkpt>
      <trkpt lat="49.23708" lon="-0.09423">
        <ele>4.1</ele>
        <time>2024-03-10T08:15:51Z</time>
      </trkpt>
      <trkpt lat="49.23702" lon="-0.09416">
        <ele>4.1</ele>
        <time>2024-03-10T08:15:52Z</time>
      </trkpt>
      <trkpt lat="49.23696" lon="-0.09409">
        <ele>4.1</ele>
        <time>2024-03-10T08:15:53Z</time>
      </trkpt>
      <trkpt lat="49.2369" lon="-0.09402">
        <ele>4.1</ele>
        <time>2024-03-10T08:15:54Z</time>
      </trkpt>
      <trkpt lat="49.23684" lon="-0.09395">
        <ele>4.1</ele>
        <time>2024-03-10T08:15:55Z</time>
      </trkpt>
      <trkpt lat="49.23679" lon="-0.09388">
        <ele>4</ele>
        <time>2024-03-10T08:15:56Z</time>
      </trkpt>
      <trkpt lat="49.23673" lon="-0.09381">
        <ele>4</ele>
        <time>2024-03-10T08:15:57Z</time>
      </trkpt>
      <trkpt lat="49.23667" lon="-0.09374">
        <ele>4</ele>
        <time>2024-03-10T08:15:58Z</time>
      </trkpt>
      <trkpt lat="49.23661" lon="-0.09366">
        <ele>4</ele>
        <time>2024-03-10T08:15:59Z</time>
      </trkpt>
      <trkpt lat="49.23655" lon="-0.09359">
        <ele>4</ele>
        <time>2024-03-10T08:16:00Z</time>
      </trkpt>
      <trkpt lat="49.23649" lon="-0.09352">
        <ele>4</ele>
        <time>2024-03-10T08:16:01Z</time>
      </trkpt>
      <trkpt lat="49.23643" lon="-0.09345">
        <ele>4</ele>
        <time>2024-03-10T08:16:02Z</time>
      </trkpt>
      <trkpt lat="49.23637" lon="-0.09338">
        <ele>4</ele>
        <time>2024-03-10T08:16:03Z</time>
      </trkpt>
      <trkpt lat="49.23631" lon="-0.09331">
        <ele>4</ele>
        <time>2024-03-10T08:16:04Z</time>
      </trkpt>
      <trkpt lat="49.23625" lon="-0.09324">
        <ele>4</ele>
        <time>2024-03-10T08:16:05Z</time>
      </trkpt>
      <trkpt lat="49.2362" lon="-0.09317">
        <ele>3.9</ele>
        <time>2024-03-10T08:16:06Z</time>
      </trkpt>
      <trkpt lat="49.23613" lon="-0.09309">
        <ele>3.9</ele>
        <time>2024-03-10T08:16:07Z</time>
      </trkpt>
      <trkpt lat="49.23607" lon="-0.09303">
        <ele>3.9</ele>
        <time>2024-03-10T08:16:08Z</time>
      </trkpt>
      <trkpt lat="49.23601" lon="-0.09296">
        <ele>3.9</ele>
        <time>2024-03-10T08:16:09Z</time>
      </trkpt>
      <trkpt lat="49.23596" lon="-0.09289">
        <ele>3.9</ele>
        <time>2024-03-10T08:16:10Z</time>
      </trkpt>
      <trkpt lat="49.2359" lon="-0.09281">
        <ele>3.9</ele>
        <time>2024-03-10T08:16:11Z</time>
      </trkpt>
      <trkpt lat="49.23585" lon="-0.09274">
        <ele>3.9</ele>
        <time>2024-03-10T08:16:12Z</time>
      </trkpt>
      <trkpt lat="49.23579" lon="-0.09268">
        <ele>4</ele>
        <time>2024-03-10T08:16:13Z</time>
      </trkpt>
      <trkpt lat="49.23573" lon="-0.09261">
        <ele>4</ele>
        <time>2024-03-10T08:16:14Z</time>
      </trkpt>
      <trkpt lat="49.23567" lon="-0.09253">
        <ele>4</ele>
        <time>2024-03-10T08:16:15Z</time>
      </trkpt>
      <trkpt lat="49.23561" lon="-0.09246">
        <ele>4.1</ele>
        <time>2024-03-10T08:16:16Z</time>
      </trkpt>
      <trkpt lat="49.23555" lon="-0.09239">
        <ele>4.1</ele>
        <time>2024-03-10T08:16:17Z</time>
      </trkpt>
      <trkpt lat="49.23549" lon="-0.09232">
        <ele>4.1</ele>
        <time>2024-03-10T08:16:18Z</time>
      </trkpt>
      <trkpt lat="49.23543" lon="-0.09226">
        <ele>4.1</ele>
        <time>2024-03-10T08:16:19Z</time>
      </trkpt>
      <trkpt lat="49.23538" lon="-0.09218">
        <ele>4.1</ele>
        <time>2024-03-10T08:16:20Z</time>
      </trkpt>
      <trkpt lat="49.23532" lon="-0.09212">
        <ele>4.1</ele>
        <time>2024-03-10T08:16:21Z</time>
      </trkpt>
      <trkpt lat="49.23526" lon="-0.09204">
        <ele>4.1</ele>
        <time>2024-03-10T08:16:22Z</time>
      </trkpt>
      <trkpt lat="49.23521" lon="-0.09197">
        <ele>4.1</ele>
        <time>2024-03-10T08:16:23Z</time>
      </trkpt>
      <trkpt lat="49.23515" lon="-0.0919">
        <ele>4.1</ele>
        <time>2024-03-10T08:16:24Z</time>
      </trkpt>
      <trkpt lat="49.23509" lon="-0.09183">
        <ele>4.1</ele>
        <time>2024-03-10T08:16:25Z</time>
      </trkpt>
      <trkpt lat="49.23503" lon="-0.09176">
        <ele>4.1</ele>
        <time>2024-03-10T08:16:26Z</time>
      </trkpt>
      <trkpt lat="49.23497" lon="-0.09169">
        <ele>4.1</ele>
        <time>2024-03-10T08:16:27Z</time>
      </trkpt>
      <trkpt lat="49.23491" lon="-0.09161">
        <ele>4.1</ele>
        <time>2024-03-10T08:16:28Z</time>
      </trkpt>
      <trkpt lat="49.23485" lon="-0.09154">
        <ele>4.1</ele>
        <time>2024-03-10T08:16:29Z</time>
      </trkpt>
      <trkpt lat="49.23479" lon="-0.09146">
        <ele>4.2</ele>
        <time>2024-03-10T08:16:30Z</time>
      </trkpt>
      <trkpt lat="49.23473" lon="-0.0914">
        <ele>4.2</ele>
        <time>2024-03-10T08:16:31Z</time>
      </trkpt>
      <trkpt lat="49.23468" lon="-0.09133">
        <ele>4.2</ele>
        <time>2024-03-10T08:16:32Z</time>
      </trkpt>
      <trkpt lat="49.23462" lon="-0.09127">
        <ele>4.3</ele>
        <time>2024-03-10T08:16:33Z</time>
      </trkpt>
      <trkpt lat="49.23457" lon="-0.0912">
        <ele>4.3</ele>
        <time>2024-03-10T08:16:34Z</time>
      </trkpt>
      <trkpt lat="49.23451" lon="-0.09114">
        <ele>4.2</ele>
        <time>2024-03-10T08:16:35Z</time>
      </trkpt>
      <trkpt lat="49.23445" lon="-0.09107">
        <ele>4.2</ele>
        <time>2024-03-10T08:16:36Z</time>
      </trkpt>
      <trkpt lat="49.2344" lon="-0.091">
        <ele>4.2</ele>
        <time>2024-03-10T08:16:37Z</time>
      </trkpt>
      <trkpt lat="49.23434" lon="-0.09093">
        <ele>4.2</ele>
        <time>2024-03-10T08:16:38Z</time>
      </trkpt>
      <trkpt lat="49.23428" lon="-0.09086">
        <ele>4.2</ele>
        <time>2024-03-10T08:16:39Z</time>
      </trkpt>
      <trkpt lat="49.23422" lon="-0.09079">
        <ele>4.2</ele>
        <time>2024-03-10T08:16:40Z</time>
      </trkpt>
      <trkpt lat="49.23416" lon="-0.09072">
        <ele>4.2</ele>
        <time>2024-03-10T08:16:41Z</time>
      </trkpt>
      <trkpt lat="49.2341" lon="-0.09065">
        <ele>4.2</ele>
        <time>2024-03-10T08:16:42Z</time>
      </trkpt>
      <trkpt lat="49.23404" lon="-0.09058">
        <ele>4.1</ele>
        <time>2024-03-10T08:16:43Z</time>
      </trkpt>
      <trkpt lat="49.23399" lon="-0.09051">
        <ele>4.1</ele>
        <time>2024-03-10T08:16:44Z</time>
      </trkpt>
      <trkpt lat="49.23393" lon="-0.09043">
        <ele>4.1</ele>
        <time>2024-03-10T08:16:45Z</time>
      </trkpt>
      <trkpt lat="49.23387" lon="-0.09036">
        <ele>4.1</ele>
        <time>2024-03-10T08:16:46Z</time>
      </trkpt>
      <trkpt lat="49.23381" lon="-0.09029">
        <ele>4.1</ele>
        <time>2024-03-10T08:16:47Z</time>
      </trkpt>
      <trkpt lat="49.23375" lon="-0.09022">
        <ele>4.1</ele>
        <time>2024-03-10T08:16:48Z</time>
      </trkpt>
      <trkpt lat="49.23369" lon="-0.09015">
        <ele>4.1</ele>
        <time>2024-03-10T08:16:49Z</time>
      </trkpt>
      <trkpt lat="49.23363" lon="-0.09008">
        <ele>4.1</ele>
        <time>2024-03-10T08:16:50Z</time>
      </trkpt>
      <trkpt lat="49.23357" lon="-0.09">
        <ele>4.1</ele>
        <time>2024-03-10T08:16:51Z</time>
      </trkpt>
      <trkpt lat="49.23351" lon="-0.08994">
        <ele>4.1</ele>
        <time>2024-03-10T08:16:52Z</time>
      </trkpt>
      <trkpt lat="49.23345" lon="-0.08987">
        <ele>4.1</ele>
        <time>2024-03-10T08:16:53Z</time>
      </trkpt>
      <trkpt lat="49.2334" lon="-0.0898">
        <ele>4.1</ele>
        <time>2024-03-10T08:16:54Z</time>
      </trkpt>
      <trkpt lat="49.23334" lon="-0.08973">
        <ele>4.1</ele>
        <time>2024-03-10T08:16:55Z</time>
      </trkpt>
      <trkpt lat="49.23328" lon="-0.08966">
        <ele>4.1</ele>
        <time>2024-03-10T08:16:56Z</time>
      </trkpt>
      <trkpt lat="49.23322" lon="-0.08959">
        <ele>4.1</ele>
        <time>2024-03-10T08:16:57Z</time>
      </trkpt>
      <trkpt lat="49.23316" lon="-0.08952">
        <ele>4.1</ele>
        <time>2024-03-10T08:16:58Z</time>
      </trkpt>
      <trkpt lat="49.2331" lon="-0.08945">
        <ele>4.2</ele>
        <time>2024-03-10T08:16:59Z</time>
      </trkpt>
      <trkpt lat="49.23304" lon="-0.08938">
        <ele>4.2</ele>
        <time>2024-03-10T08:17:00Z</time>
      </trkpt>
      <trkpt lat="49.23298" lon="-0.0893">
        <ele>4.2</ele>
        <time>2024-03-10T08:17:01Z</time>
      </trkpt>
      <trkpt lat="49.23293" lon="-0.08923">
        <ele>4.3</ele>
        <time>2024-03-10T08:17:02Z</time>
      </trkpt>
      <trkpt lat="49.23287" lon="-0.08916">
        <ele>4.3</ele>
        <time>2024-03-10T08:17:03Z</time>
      </trkpt>
      <trkpt lat="49.23281" lon="-0.0891">
        <ele>4.3</ele>
        <time>2024-03-10T08:17:04Z</time>
      </trkpt>
      <trkpt lat="49.23275" lon="-0.08903">
        <ele>4.3</ele>
        <time>2024-03-10T08:17:05Z</time>
      </trkpt>
      <trkpt lat="49.23269" lon="-0.08896">
        <ele>4.3</ele>
        <time>2024-03-10T08:17:06Z</time>
      </trkpt>
      <trkpt lat="49.23263" lon="-0.0889">
        <ele>4.4</ele>
        <time>2024-03-10T08:17:07Z</time>
      </trkpt>
      <trkpt lat="49.23257" lon="-0.08883">
        <ele>4.4</ele>
        <time>2024-03-10T08:17:08Z</time>
      </trkpt>
      <trkpt lat="49.23251" lon="-0.08877">
        <ele>4.4</ele>
        <time>2024-03-10T08:17:09Z</time>
      </trkpt>
      <trkpt lat="49.23245" lon="-0.08871">
        <ele>4.5</ele>
        <time>2024-03-10T08:17:10Z</time>
      </trkpt>
      <trkpt lat="49.23239" lon="-0.08864">
        <ele>4.5</ele>
        <time>2024-03-10T08:17:11Z</time>
      </trkpt>
      <trkpt lat="49.23233" lon="-0.08858">
        <ele>4.5</ele>
        <time>2024-03-10T08:17:12Z</time>
      </trkpt>
      <trkpt lat="49.23227" lon="-0.08852">
        <ele>4.6</ele>
        <time>2024-03-10T08:17:13Z</time>
      </trkpt>
      <trkpt lat="49.23221" lon="-0.08846">
        <ele>4.6</ele>
        <time>2024-03-10T08:17:14Z</time>
      </trkpt>
      <trkpt lat="49.23215" lon="-0.08839">
        <ele>4.6</ele>
        <time>2024-03-10T08:17:15Z</time>
      </trkpt>
      <trkpt lat="49.2321" lon="-0.08833">
        <ele>4.6</ele>
        <time>2024-03-10T08:17:16Z</time>
      </trkpt>
      <trkpt lat="49.23204" lon="-0.08827">
        <ele>4.6</ele>
        <time>2024-03-10T08:17:17Z</time>
      </trkpt>
      <trkpt lat="49.23198" lon="-0.0882">
        <ele>4.6</ele>
        <time>2024-03-10T08:17:18Z</time>
      </trkpt>
      <trkpt lat="49.23192" lon="-0.08814">
        <ele>4.6</ele>
        <time>2024-03-10T08:17:19Z</time>
      </trkpt>
      <trkpt lat="49.23186" lon="-0.08808">
        <ele>4.6</ele>
        <time>2024-03-10T08:17:20Z</time>
      </trkpt>
      <trkpt lat="49.2318" lon="-0.08802">
        <ele>4.6</ele>
        <time>2024-03-10T08:17:21Z</time>
      </trkpt>
      <trkpt lat="49.23174" lon="-0.08795">
        <ele>4.6</ele>
        <time>2024-03-10T08:17:22Z</time>
      </trkpt>
      <trkpt lat="49.23168" lon="-0.08788">
        <ele>4.6</ele>
        <time>2024-03-10T08:17:23Z</time>
      </trkpt>
      <trkpt lat="49.23162" lon="-0.08782">
        <ele>4.6</ele>
        <time>2024-03-10T08:17:24Z</time>
      </trkpt>
      <trkpt lat="49.23156" lon="-0.08775">
        <ele>4.6</ele>
        <time>2024-03-10T08:17:25Z</time>
      </trkpt>
      <trkpt lat="49.2315" lon="-0.08769">
        <ele>4.7</ele>
        <time>2024-03-10T08:17:26Z</time>
      </trkpt>
      <trkpt lat="49.23144" lon="-0.08762">
        <ele>4.7</ele>
        <time>2024-03-10T08:17:27Z</time>
      </trkpt>
      <trkpt lat="49.23138" lon="-0.08756">
        <ele>4.7</ele>
        <time>2024-03-10T08:17:28Z</time>
      </trkpt>
      <trkpt lat="49.23132" lon="-0.08749">
        <ele>4.8</ele>
        <time>2024-03-10T08:17:29Z</time>
      </trkpt>
      <trkpt lat="49.23126" lon="-0.08743">
        <ele>4.8</ele>
        <time>2024-03-10T08:17:30Z</time>
      </trkpt>
      <trkpt lat="49.23121" lon="-0.08736">
        <ele>4.8</ele>
        <time>2024-03-10T08:17:31Z</time>
      </trkpt>
      <trkpt lat="49.23115" lon="-0.08729">
        <ele>4.8</ele>
        <time>2024-03-10T08:17:32Z</time>
      </trkpt>
      <trkpt lat="49.23109" lon="-0.08723">
        <ele>4.8</ele>
        <time>2024-03-10T08:17:33Z</time>
      </trkpt>
      <trkpt lat="49.23103" lon="-0.08715">
        <ele>4.8</ele>
        <time>2024-03-10T08:17:34Z</time>
      </trkpt>
      <trkpt lat="49.23098" lon="-0.08709">
        <ele>4.8</ele>
        <time>2024-03-10T08:17:35Z</time>
      </trkpt>
      <trkpt lat="49.23092" lon="-0.08702">
        <ele>4.8</ele>
        <time>2024-03-10T08:17:36Z</time>
      </trkpt>
      <trkpt lat="49.23086" lon="-0.08696">
        <ele>4.9</ele>
        <time>2024-03-10T08:17:37Z</time>
      </trkpt>
      <trkpt lat="49.23081" lon="-0.08689">
        <ele>4.9</ele>
        <time>2024-03-10T08:17:38Z</time>
      </trkpt>
      <trkpt lat="49.23075" lon="-0.08683">
        <ele>5</ele>
        <time>2024-03-10T08:17:39Z</time>
      </trkpt>
      <trkpt lat="49.2307" lon="-0.08676">
        <ele>5</ele>
        <time>2024-03-10T08:17:40Z</time>
      </trkpt>
      <trkpt lat="49.23064" lon="-0.08669">
        <ele>5.1</ele>
        <time>2024-03-10T08:17:41Z</time>
      </trkpt>
      <trkpt lat="49.23059" lon="-0.08662">
        <ele>5.2</ele>
        <time>2024-03-10T08:17:42Z</time>
      </trkpt>
      <trkpt lat="49.23053" lon="-0.08655">
        <ele>5.3</ele>
        <time>2024-03-10T08:17:43Z</time>
      </trkpt>
      <trkpt lat="49.23048" lon="-0.08648">
        <ele>5.3</ele>
        <time>2024-03-10T08:17:44Z</time>
      </trkpt>
      <trkpt lat="49.23042" lon="-0.08642">
        <ele>5.4</ele>
        <time>2024-03-10T08:17:45Z</time>
      </trkpt>
      <trkpt lat="49.23036" lon="-0.08635">
        <ele>5.5</ele>
        <time>2024-03-10T08:17:46Z</time>
      </trkpt>
      <trkpt lat="49.23031" lon="-0.08629">
        <ele>5.7</ele>
        <time>2024-03-10T08:17:47Z</time>
      </trkpt>
      <trkpt lat="49.23026" lon="-0.08623">
        <ele>5.8</ele>
        <time>2024-03-10T08:17:48Z</time>
      </trkpt>
      <trkpt lat="49.2302" lon="-0.08616">
        <ele>6</ele>
        <time>2024-03-10T08:17:49Z</time>
      </trkpt>
      <trkpt lat="49.23014" lon="-0.0861">
        <ele>6.1</ele>
        <time>2024-03-10T08:17:50Z</time>
      </trkpt>
      <trkpt lat="49.23009" lon="-0.08604">
        <ele>6.3</ele>
        <time>2024-03-10T08:17:51Z</time>
      </trkpt>
      <trkpt lat="49.23003" lon="-0.08598">
        <ele>6.5</ele>
        <time>2024-03-10T08:17:52Z</time>
      </trkpt>
      <trkpt lat="49.22998" lon="-0.08591">
        <ele>6.7</ele>
        <time>2024-03-10T08:17:53Z</time>
      </trkpt>
      <trkpt lat="49.22992" lon="-0.08585">
        <ele>6.8</ele>
        <time>2024-03-10T08:17:54Z</time>
      </trkpt>
      <trkpt lat="49.22986" lon="-0.08579">
        <ele>7</ele>
        <time>2024-03-10T08:17:55Z</time>
      </trkpt>
      <trkpt lat="49.22981" lon="-0.08574">
        <ele>7.2</ele>
        <time>2024-03-10T08:17:56Z</time>
      </trkpt>
      <trkpt lat="49.22975" lon="-0.08568">
        <ele>7.4</ele>
        <time>2024-03-10T08:17:57Z</time>
      </trkpt>
      <trkpt lat="49.2297" lon="-0.08562">
        <ele>7.6</ele>
        <time>2024-03-10T08:17:58Z</time>
      </trkpt>
      <trkpt lat="49.22964" lon="-0.08556">
        <ele>7.7</ele>
        <time>2024-03-10T08:17:59Z</time>
      </trkpt>
      <trkpt lat="49.22959" lon="-0.08549">
        <ele>7.9</ele>
        <time>2024-03-10T08:18:00Z</time>
      </trkpt>
      <trkpt lat="49.22954" lon="-0.08543">
        <ele>8.1</ele>
        <time>2024-03-10T08:18:01Z</time>
      </trkpt>
      <trkpt lat="49.22948" lon="-0.08537">
        <ele>8.3</ele>
        <time>2024-03-10T08:18:02Z</time>
      </trkpt>
      <trkpt lat="49.22943" lon="-0.08531">
        <ele>8.5</ele>
        <time>2024-03-10T08:18:03Z</time>
      </trkpt>
      <trkpt lat="49.22937" lon="-0.08525">
        <ele>8.7</ele>
        <time>2024-03-10T08:18:04Z</time>
      </trkpt>
      <trkpt lat="49.22932" lon="-0.08519">
        <ele>8.9</ele>
        <time>2024-03-10T08:18:05Z</time>
      </trkpt>
      <trkpt lat="49.22926" lon="-0.08513">
        <ele>9</ele>
        <time>2024-03-10T08:18:06Z</time>
      </trkpt>
      <trkpt lat="49.2292" lon="-0.08507">
        <ele>9.2</ele>
        <time>2024-03-10T08:18:07Z</time>
      </trkpt>
      <trkpt lat="49.22915" lon="-0.085">
        <ele>9.3</ele>
        <time>2024-03-10T08:18:08Z</time>
      </trkpt>
      <trkpt lat="49.2291" lon="-0.08494">
        <ele>9.5</ele>
        <time>2024-03-10T08:18:09Z</time>
      </trkpt>
      <trkpt lat="49.22904" lon="-0.08488">
        <ele>9.7</ele>
        <time>2024-03-10T08:18:10Z</time>
      </trkpt>
      <trkpt lat="49.22899" lon="-0.08482">
        <ele>9.8</ele>
        <time>2024-03-10T08:18:11Z</time>
      </trkpt>
      <trkpt lat="49.22894" lon="-0.08476">
        <ele>9.9</ele>
        <time>2024-03-10T08:18:12Z</time>
      </trkpt>
      <trkpt lat="49.22888" lon="-0.0847">
        <ele>10.1</ele>
        <time>2024-03-10T08:18:13Z</time>
      </trkpt>
      <trkpt lat="49.22883" lon="-0.08464">
        <ele>10.2</ele>
        <time>2024-03-10T08:18:14Z</time>
      </trkpt>
      <trkpt lat="49.22878" lon="-0.08458">
        <ele>10.4</ele>
        <time>2024-03-10T08:18:15Z</time>
      </trkpt>
      <trkpt lat="49.22872" lon="-0.08452">
        <ele>10.6</ele>
        <time>2024-03-10T08:18:16Z</time>
      </trkpt>
      <trkpt lat="49.22866" lon="-0.08445">
        <ele>10.7</ele>
        <time>2024-03-10T08:18:17Z</time>
      </trkpt>
      <trkpt lat="49.22861" lon="-0.08439">
        <ele>10.9</ele>
        <time>2024-03-10T08:18:18Z</time>
      </trkpt>
      <trkpt lat="49.22855" lon="-0.08433">
        <ele>11</ele>
        <time>2024-03-10T08:18:19Z</time>
      </trkpt>
      <trkpt lat="49.2285" lon="-0.08427">
        <ele>11.1</ele>
        <time>2024-03-10T08:18:20Z</time>
      </trkpt>
      <trkpt lat="49.22845" lon="-0.08421">
        <ele>11.3</ele>
        <time>2024-03-10T08:18:21Z</time>
      </trkpt>
      <trkpt lat="49.22839" lon="-0.08415">
        <ele>11.4</ele>
        <time>2024-03-10T08:18:22Z</time>
      </trkpt>
      <trkpt lat="49.22834" lon="-0.08409">
        <ele>11.5</ele>
        <time>2024-03-10T08:18:23Z</time>
      </trkpt>
      <trkpt lat="49.22829" lon="-0.08403">
        <ele>11.6</ele>
        <time>2024-03-10T08:18:24Z</time>
      </trkpt>
      <trkpt lat="49.22823" lon="-0.08397">
        <ele>11.7</ele>
        <time>2024-03-10T08:18:25Z</time>
      </trkpt>
      <trkpt lat="49.22818" lon="-0.0839">
        <ele>11.8</ele>
        <time>2024-03-10T08:18:26Z</time>
      </trkpt>
      <trkpt lat="49.22812" lon="-0.08384">
        <ele>11.9</ele>
        <time>2024-03-10T08:18:27Z</time>
      </trkpt>
      <trkpt lat="49.22807" lon="-0.08379">
        <ele>12</ele>
        <time>2024-03-10T08:18:28Z</time>
      </trkpt>
      <trkpt lat="49.22803" lon="-0.08374">
        <ele>12</ele>
        <time>2024-03-10T08:18:29Z</time>
      </trkpt>
      <trkpt lat="49.22798" lon="-0.08368">
        <ele>12.1</ele>
        <time>2024-03-10T08:18:30Z</time>
      </trkpt>
      <trkpt lat="49.22793" lon="-0.08362">
        <ele>12.1</ele>
        <time>2024-03-10T08:18:31Z</time>
      </trkpt>
      <trkpt lat="49.22787" lon="-0.08357">
        <ele>12.2</ele>
        <time>2024-03-10T08:18:32Z</time>
      </trkpt>
      <trkpt lat="49.22781" lon="-0.08351">
        <ele>12.2</ele>
        <time>2024-03-10T08:18:33Z</time>
      </trkpt>
      <trkpt lat="49.22776" lon="-0.08345">
        <ele>12.2</ele>
        <time>2024-03-10T08:18:34Z</time>
      </trkpt>
      <trkpt lat="49.2277" lon="-0.08339">
        <ele>12.3</ele>
        <time>2024-03-10T08:18:35Z</time>
      </trkpt>
      <trkpt lat="49.22764" lon="-0.08333">
        <ele>12.3</ele>
        <time>2024-03-10T08:18:36Z</time>
      </trkpt>
      <trkpt lat="49.22758" lon="-0.08326">
        <ele>12.2</ele>
        <time>2024-03-10T08:18:37Z</time>
      </trkpt>
      <trkpt lat="49.22752" lon="-0.0832">
        <ele>12.2</ele>
        <time>2024-03-10T08:18:38Z</time>
      </trkpt>
      <trkpt lat="49.22746" lon="-0.08313">
        <ele>12.1</ele>
        <time>2024-03-10T08:18:39Z</time>
      </trkpt>
      <trkpt lat="49.22741" lon="-0.08307">
        <ele>12.1</ele>
        <time>2024-03-10T08:18:40Z</time>
      </trkpt>
      <trkpt lat="49.22735" lon="-0.083">
        <ele>12.1</ele>
        <time>2024-03-10T08:18:41Z</time>
      </trkpt>
      <trkpt lat="49.22729" lon="-0.08293">
        <ele>12</ele>
        <time>2024-03-10T08:18:42Z</time>
      </trkpt>
      <trkpt lat="49.22723" lon="-0.08286">
        <ele>12</ele>
        <time>2024-03-10T08:18:43Z</time>
      </trkpt>
      <trkpt lat="49.22718" lon="-0.08279">
        <ele>11.9</ele>
        <time>2024-03-10T08:18:44Z</time>
      </trkpt>
      <trkpt lat="49.22712" lon="-0.08272">
        <ele>11.8</ele>
        <time>2024-03-10T08:18:45Z</time>
      </trkpt>
      <trkpt lat="49.22706" lon="-0.08264">
        <ele>11.8</ele>
        <time>2024-03-10T08:18:46Z</time>
      </trkpt>
      <trkpt lat="49.22701" lon="-0.08256">
        <ele>11.8</ele>
        <time>2024-03-10T08:18:47Z</time>
      </trkpt>
      <trkpt lat="49.22695" lon="-0.08249">
        <ele>11.7</ele>
        <time>2024-03-10T08:18:48Z</time>
      </trkpt>
      <trkpt lat="49.22689" lon="-0.08242">
        <ele>11.7</ele>
        <time>2024-03-10T08:18:49Z</time>
      </trkpt>
      <trkpt lat="49.22684" lon="-0.08234">
        <ele>11.7</ele>
        <time>2024-03-10T08:18:50Z</time>
      </trkpt>
      <trkpt lat="49.22679" lon="-0.08227">
        <ele>11.7</ele>
        <time>2024-03-10T08:18:51Z</time>
      </trkpt>
      <trkpt lat="49.22674" lon="-0.08219">
        <ele>11.7</ele>
        <time>2024-03-10T08:18:52Z</time>
      </trkpt>
      <trkpt lat="49.22668" lon="-0.08212">
        <ele>11.7</ele>
        <time>2024-03-10T08:18:53Z</time>
      </trkpt>
      <trkpt lat="49.22663" lon="-0.08204">
        <ele>11.8</ele>
        <time>2024-03-10T08:18:54Z</time>
      </trkpt>
      <trkpt lat="49.22658" lon="-0.08196">
        <ele>11.8</ele>
        <time>2024-03-10T08:18:55Z</time>
      </trkpt>
      <trkpt lat="49.22652" lon="-0.08189">
        <ele>11.8</ele>
        <time>2024-03-10T08:18:56Z</time>
      </trkpt>
      <trkpt lat="49.22647" lon="-0.08181">
        <ele>11.8</ele>
        <time>2024-03-10T08:18:57Z</time>
      </trkpt>
      <trkpt lat="49.22641" lon="-0.08174">
        <ele>11.8</ele>
        <time>2024-03-10T08:18:58Z</time>
      </trkpt>
      <trkpt lat="49.22636" lon="-0.08166">
        <ele>11.9</ele>
        <time>2024-03-10T08:18:59Z</time>
      </trkpt>
      <trkpt lat="49.2263" lon="-0.08159">
        <ele>11.9</ele>
        <time>2024-03-10T08:19:00Z</time>
      </trkpt>
      <trkpt lat="49.22624" lon="-0.08151">
        <ele>11.9</ele>
        <time>2024-03-10T08:19:01Z</time>
      </trkpt>
      <trkpt lat="49.22618" lon="-0.08144">
        <ele>11.9</ele>
        <time>2024-03-10T08:19:02Z</time>
      </trkpt>
      <trkpt lat="49.22612" lon="-0.08137">
        <ele>11.9</ele>
        <time>2024-03-10T08:19:03Z</time>
      </trkpt>
      <trkpt lat="49.22606" lon="-0.0813">
        <ele>12</ele>
        <time>2024-03-10T08:19:04Z</time>
      </trkpt>
      <trkpt lat="49.226" lon="-0.08123">
        <ele>12</ele>
        <time>2024-03-10T08:19:05Z</time>
      </trkpt>
      <trkpt lat="49.22595" lon="-0.08116">
        <ele>12</ele>
        <time>2024-03-10T08:19:06Z</time>
      </trkpt>
      <trkpt lat="49.22589" lon="-0.08109">
        <ele>12.1</ele>
        <time>2024-03-10T08:19:07Z</time>
      </trkpt>
      <trkpt lat="49.22583" lon="-0.08103">
        <ele>12.1</ele>
        <time>2024-03-10T08:19:08Z</time>
      </trkpt>
      <trkpt lat="49.22577" lon="-0.08096">
        <ele>12.1</ele>
        <time>2024-03-10T08:19:09Z</time>
      </trkpt>
      <trkpt lat="49.22571" lon="-0.08089">
        <ele>12.1</ele>
        <time>2024-03-10T08:19:10Z</time>
      </trkpt>
      <trkpt lat="49.22565" lon="-0.08082">
        <ele>12.1</ele>
        <time>2024-03-10T08:19:11Z</time>
      </trkpt>
      <trkpt lat="49.22559" lon="-0.08075">
        <ele>12.1</ele>
        <time>2024-03-10T08:19:12Z</time>
      </trkpt>
      <trkpt lat="49.22553" lon="-0.08068">
        <ele>12.1</ele>
        <time>2024-03-10T08:19:13Z</time>
      </trkpt>
      <trkpt lat="49.22547" lon="-0.08061">
        <ele>12.2</ele>
        <time>2024-03-10T08:19:14Z</time>
      </trkpt>
      <trkpt lat="49.22541" lon="-0.08054">
        <ele>12.2</ele>
        <time>2024-03-10T08:19:15Z</time>
      </trkpt>
      <trkpt lat="49.22535" lon="-0.08048">
        <ele>12.2</ele>
        <time>2024-03-10T08:19:16Z</time>
      </trkpt>
      <trkpt lat="49.22529" lon="-0.08041">
        <ele>12.2</ele>
        <time>2024-03-10T08:19:17Z</time>
      </trkpt>
      <trkpt lat="49.22523" lon="-0.08036">
        <ele>12.2</ele>
        <time>2024-03-10T08:19:18Z</time>
      </trkpt>
      <trkpt lat="49.22518" lon="-0.08029">
        <ele>12.2</ele>
        <time>2024-03-10T08:19:19Z</time>
      </trkpt>
      <trkpt lat="49.22512" lon="-0.08023">
        <ele>12.3</ele>
        <time>2024-03-10T08:19:20Z</time>
      </trkpt>
      <trkpt lat="49.22506" lon="-0.08017">
        <ele>12.3</ele>
        <time>2024-03-10T08:19:21Z</time>
      </trkpt>
      <trkpt lat="49.22499" lon="-0.0801">
        <ele>12.3</ele>
        <time>2024-03-10T08:19:22Z</time>
      </trkpt>
      <trkpt lat="49.22493" lon="-0.08004">
        <ele>12.3</ele>
        <time>2024-03-10T08:19:23Z</time>
      </trkpt>
      <trkpt lat="49.22487" lon="-0.07998">
        <ele>12.3</ele>
        <time>2024-03-10T08:19:24Z</time>
      </trkpt>
      <trkpt lat="49.22481" lon="-0.07992">
        <ele>12.3</ele>
        <time>2024-03-10T08:19:25Z</time>
      </trkpt>
      <trkpt lat="49.22474" lon="-0.07986">
        <ele>12.3</ele>
        <time>2024-03-10T08:19:26Z</time>
      </trkpt>
      <trkpt lat="49.22468" lon="-0.0798">
        <ele>12.3</ele>
        <time>2024-03-10T08:19:27Z</time>
      </trkpt>
      <trkpt lat="49.22461" lon="-0.07974">
        <ele>12.4</ele>
        <time>2024-03-10T08:19:28Z</time>
      </trkpt>
      <trkpt lat="49.22455" lon="-0.07968">
        <ele>12.4</ele>
        <time>2024-03-10T08:19:29Z</time>
      </trkpt>
      <trkpt lat="49.22448" lon="-0.07962">
        <ele>12.4</ele>
        <time>2024-03-10T08:19:30Z</time>
      </trkpt>
      <trkpt lat="49.22442" lon="-0.07957">
        <ele>12.4</ele>
        <time>2024-03-10T08:19:31Z</time>
      </trkpt>
      <trkpt lat="49.22435" lon="-0.07951">
        <ele>12.5</ele>
        <time>2024-03-10T08:19:32Z</time>
      </trkpt>
      <trkpt lat="49.22428" lon="-0.07945">
        <ele>12.5</ele>
        <time>2024-03-10T08:19:33Z</time>
      </trkpt>
      <trkpt lat="49.22421" lon="-0.0794">
        <ele>12.5</ele>
        <time>2024-03-10T08:19:34Z</time>
      </trkpt>
      <trkpt lat="49.22414" lon="-0.07934">
        <ele>12.5</ele>
        <time>2024-03-10T08:19:35Z</time>
      </trkpt>
      <trkpt lat="49.22407" lon="-0.07929">
        <ele>12.5</ele>
        <time>2024-03-10T08:19:36Z</time>
      </trkpt>
      <trkpt lat="49.22401" lon="-0.07923">
        <ele>12.5</ele>
        <time>2024-03-10T08:19:37Z</time>
      </trkpt>
      <trkpt lat="49.22394" lon="-0.07919">
        <ele>12.5</ele>
        <time>2024-03-10T08:19:38Z</time>
      </trkpt>
      <trkpt lat="49.22388" lon="-0.07914">
        <ele>12.5</ele>
        <time>2024-03-10T08:19:39Z</time>
      </trkpt>
      <trkpt lat="49.22382" lon="-0.07909">
        <ele>12.5</ele>
        <time>2024-03-10T08:19:40Z</time>
      </trkpt>
      <trkpt lat="49.22376" lon="-0.07905">
        <ele>12.6</ele>
        <time>2024-03-10T08:19:41Z</time>
      </trkpt>
      <trkpt lat="49.22369" lon="-0.07902">
        <ele>12.6</ele>
        <time>2024-03-10T08:19:42Z</time>
      </trkpt>
      <trkpt lat="49.22363" lon="-0.07898">
        <ele>12.6</ele>
        <time>2024-03-10T08:19:43Z</time>
      </trkpt>
      <trkpt lat="49.22357" lon="-0.07894">
        <ele>12.6</ele>
        <time>2024-03-10T08:19:44Z</time>
      </trkpt>
      <trkpt lat="49.2235" lon="-0.0789">
        <ele>12.7</ele>
        <time>2024-03-10T08:19:45Z</time>
      </trkpt>
      <trkpt lat="49.22344" lon="-0.07886">
        <ele>12.7</ele>
        <time>2024-03-10T08:19:46Z</time>
      </trkpt>
      <trkpt lat="49.22337" lon="-0.07881">
        <ele>12.7</ele>
        <time>2024-03-10T08:19:47Z</time>
      </trkpt>
      <trkpt lat="49.22329" lon="-0.07877">
        <ele>12.8</ele>
        <time>2024-03-10T08:19:48Z</time>
      </trkpt>
      <trkpt lat="49.22322" lon="-0.07872">
        <ele>12.8</ele>
        <time>2024-03-10T08:19:49Z</time>
      </trkpt>
      <trkpt lat="49.22314" lon="-0.07867">
        <ele>12.9</ele>
        <time>2024-03-10T08:19:50Z</time>
      </trkpt>
      <trkpt lat="49.22307" lon="-0.07863">
        <ele>13</ele>
        <time>2024-03-10T08:19:51Z</time>
      </trkpt>
      <trkpt lat="49.223" lon="-0.0786">
        <ele>13</ele>
        <time>2024-03-10T08:19:52Z</time>
      </trkpt>
      <trkpt lat="49.22293" lon="-0.07857">
        <ele>13.1</ele>
        <time>2024-03-10T08:19:53Z</time>
      </trkpt>
      <trkpt lat="49.22287" lon="-0.07854">
        <ele>13.2</ele>
        <time>2024-03-10T08:19:54Z</time>
      </trkpt>
      <trkpt lat="49.2228" lon="-0.0785">
        <ele>13.3</ele>
        <time>2024-03-10T08:19:55Z</time>
      </trkpt>
      <trkpt lat="49.22273" lon="-0.07847">
        <ele>13.4</ele>
        <time>2024-03-10T08:19:56Z</time>
      </trkpt>
      <trkpt lat="49.22266" lon="-0.07846">
        <ele>13.4</ele>
        <time>2024-03-10T08:19:57Z</time>
      </trkpt>
      <trkpt lat="49.22259" lon="-0.07846">
        <ele>13.4</ele>
        <time>2024-03-10T08:19:58Z</time>
      </trkpt>
      <trkpt lat="49.22253" lon="-0.07847">
        <ele>13.4</ele>
        <time>2024-03-10T08:19:59Z</time>
      </trkpt>
      <trkpt lat="49.22247" lon="-0.07847">
        <ele>13.4</ele>
        <time>2024-03-10T08:20:00Z</time>
      </trkpt>
      <trkpt lat="49.22241" lon="-0.07847">
        <ele>13.4</ele>
        <time>2024-03-10T08:20:01Z</time>
      </trkpt>
      <trkpt lat="49.22235" lon="-0.07842">
        <ele>13.3</ele>
        <time>2024-03-10T08:20:02Z</time>
      </trkpt>
      <trkpt lat="49.22232" lon="-0.07834">
        <ele>13.2</ele>
        <time>2024-03-10T08:20:03Z</time>
      </trkpt>
      <trkpt lat="49.22231" lon="-0.07824">
        <ele>13.2</ele>
        <time>2024-03-10T08:20:04Z</time>
      </trkpt>
      <trkpt lat="49.22232" lon="-0.07815">
        <ele>13.2</ele>
        <time>2024-03-10T08:20:05Z</time>
      </trkpt>
      <trkpt lat="49.22235" lon="-0.07808">
        <ele>13.3</ele>
        <time>2024-03-10T08:20:06Z</time>
      </trkpt>
      <trkpt lat="49.22239" lon="-0.07801">
        <ele>13.3</ele>
        <time>2024-03-10T08:20:07Z</time>
      </trkpt>
      <trkpt lat="49.22241" lon="-0.07793">
        <ele>13.3</ele>
        <time>2024-03-10T08:20:08Z</time>
      </trkpt>
      <trkpt lat="49.22244" lon="-0.07785">
        <ele>13.3</ele>
        <time>2024-03-10T08:20:09Z</time>
      </trkpt>
      <trkpt lat="49.22246" lon="-0.07776">
        <ele>13.3</ele>
        <time>2024-03-10T08:20:10Z</time>
      </trkpt>
      <trkpt lat="49.22248" lon="-0.07767">
        <ele>13.2</ele>
        <time>2024-03-10T08:20:11Z</time>
      </trkpt>
      <trkpt lat="49.2225" lon="-0.07758">
        <ele>13.2</ele>
        <time>2024-03-10T08:20:12Z</time>
      </trkpt>
      <trkpt lat="49.22252" lon="-0.07749">
        <ele>13.2</ele>
        <time>2024-03-10T08:20:13Z</time>
      </trkpt>
      <trkpt lat="49.22254" lon="-0.0774">
        <ele>13.2</ele>
        <time>2024-03-10T08:20:14Z</time>
      </trkpt>
      <trkpt lat="49.22256" lon="-0.07731">
        <ele>13.2</ele>
        <time>2024-03-10T08:20:15Z</time>
      </trkpt>
      <trkpt lat="49.22256" lon="-0.07722">
        <ele>13.2</ele>
        <time>2024-03-10T08:20:16Z</time>
      </trkpt>
      <trkpt lat="49.22254" lon="-0.07713">
        <ele>13.2</ele>
        <time>2024-03-10T08:20:17Z</time>
      </trkpt>
      <trkpt lat="49.2225" lon="-0.07705">
        <ele>13.3</ele>
        <time>2024-03-10T08:20:18Z</time>
      </trkpt>
      <trkpt lat="49.22245" lon="-0.07697">
        <ele>13.3</ele>
        <time>2024-03-10T08:20:19Z</time>
      </trkpt>
      <trkpt lat="49.2224" lon="-0.0769">
        <ele>13.4</ele>
        <time>2024-03-10T08:20:20Z</time>
      </trkpt>
      <trkpt lat="49.22236" lon="-0.0768">
        <ele>13.4</ele>
        <time>2024-03-10T08:20:21Z</time>
      </trkpt>
      <trkpt lat="49.22232" lon="-0.07671">
        <ele>13.4</ele>
        <time>2024-03-10T08:20:22Z</time>
      </trkpt>
      <trkpt lat="49.22227" lon="-0.07663">
        <ele>13.5</ele>
        <time>2024-03-10T08:20:23Z</time>
      </trkpt>
      <trkpt lat="49.22221" lon="-0.07656">
        <ele>13.5</ele>
        <time>2024-03-10T08:20:24Z</time>
      </trkpt>
      <trkpt lat="49.22215" lon="-0.0765">
        <ele>13.5</ele>
        <time>2024-03-10T08:20:25Z</time>
      </trkpt>
      <trkpt lat="49.22209" lon="-0.07645">
        <ele>13.5</ele>
        <time>2024-03-10T08:20:26Z</time>
      </trkpt>
      <trkpt lat="49.22203" lon="-0.07639">
        <ele>13.6</ele>
        <time>2024-03-10T08:20:27Z</time>
      </trkpt>
      <trkpt lat="49.22197" lon="-0.07634">
        <ele>13.6</ele>
        <time>2024-03-10T08:20:28Z</time>
      </trkpt>
      <trkpt lat="49.22191" lon="-0.07629">
        <ele>13.7</ele>
        <time>2024-03-10T08:20:29Z</time>
      </trkpt>
      <trkpt lat="49.22186" lon="-0.07624">
        <ele>13.7</ele>
        <time>2024-03-10T08:20:30Z</time>
      </trkpt>
      <trkpt lat="49.2218" lon="-0.07618">
        <ele>13.7</ele>
        <time>2024-03-10T08:20:31Z</time>
      </trkpt>
      <trkpt lat="49.22175" lon="-0.07612">
        <ele>13.8</ele>
        <time>2024-03-10T08:20:32Z</time>
      </trkpt>
      <trkpt lat="49.22171" lon="-0.07603">
        <ele>13.8</ele>
        <time>2024-03-10T08:20:33Z</time>
      </trkpt>
      <trkpt lat="49.22169" lon="-0.07593">
        <ele>13.9</ele>
        <time>2024-03-10T08:20:34Z</time>
      </trkpt>
      <trkpt lat="49.22168" lon="-0.07582">
        <ele>13.9</ele>
        <time>2024-03-10T08:20:35Z</time>
      </trkpt>
      <trkpt lat="49.22167" lon="-0.0757">
        <ele>14</ele>
        <time>2024-03-10T08:20:36Z</time>
      </trkpt>
      <trkpt lat="49.22167" lon="-0.07559">
        <ele>14</ele>
        <time>2024-03-10T08:20:37Z</time>
      </trkpt>
      <trkpt lat="49.22166" lon="-0.07549">
        <ele>14</ele>
        <time>2024-03-10T08:20:38Z</time>
      </trkpt>
      <trkpt lat="49.22165" lon="-0.07538">
        <ele>14</ele>
        <time>2024-03-10T08:20:39Z</time>
      </trkpt>
      <trkpt lat="49.22163" lon="-0.07528">
        <ele>14</ele>
        <time>2024-03-10T08:20:40Z</time>
      </trkpt>
      <trkpt lat="49.2216" lon="-0.07518">
        <ele>14</ele>
        <time>2024-03-10T08:20:41Z</time>
      </trkpt>
      <trkpt lat="49.22157" lon="-0.07508">
        <ele>14</ele>
        <time>2024-03-10T08:20:42Z</time>
      </trkpt>
      <trkpt lat="49.22154" lon="-0.07498">
        <ele>14.1</ele>
        <time>2024-03-10T08:20:43Z</time>
      </trkpt>
      <trkpt lat="49.22149" lon="-0.0749">
        <ele>14.1</ele>
        <time>2024-03-10T08:20:44Z</time>
      </trkpt>
      <trkpt lat="49.22145" lon="-0.07482">
        <ele>14.2</ele>
        <time>2024-03-10T08:20:45Z</time>
      </trkpt>
      <trkpt lat="49.22139" lon="-0.07475">
        <ele>14.3</ele>
        <time>2024-03-10T08:20:46Z</time>
      </trkpt>
      <trkpt lat="49.22134" lon="-0.07468">
        <ele>14.4</ele>
        <time>2024-03-10T08:20:47Z</time>
      </trkpt>
      <trkpt lat="49.22129" lon="-0.07462">
        <ele>14.5</ele>
        <time>2024-03-10T08:20:48Z</time>
      </trkpt>
      <trkpt lat="49.22123" lon="-0.07457">
        <ele>14.6</ele>
        <time>2024-03-10T08:20:49Z</time>
      </trkpt>
      <trkpt lat="49.22118" lon="-0.07452">
        <ele>14.7</ele>
        <time>2024-03-10T08:20:50Z</time>
      </trkpt>
      <trkpt lat="49.22112" lon="-0.07447">
        <ele>14.8</ele>
        <time>2024-03-10T08:20:51Z</time>
      </trkpt>
      <trkpt lat="49.22106" lon="-0.07443">
        <ele>15</ele>
        <time>2024-03-10T08:20:52Z</time>
      </trkpt>
      <trkpt lat="49.22101" lon="-0.07438">
        <ele>15.1</ele>
        <time>2024-03-10T08:20:53Z</time>
      </trkpt>
      <trkpt lat="49.22097" lon="-0.07432">
        <ele>15.2</ele>
        <time>2024-03-10T08:20:54Z</time>
      </trkpt>
      <trkpt lat="49.22092" lon="-0.07426">
        <ele>15.4</ele>
        <time>2024-03-10T08:20:55Z</time>
      </trkpt>
      <trkpt lat="49.22088" lon="-0.0742">
        <ele>15.5</ele>
        <time>2024-03-10T08:20:56Z</time>
      </trkpt>
      <trkpt lat="49.22083" lon="-0.07414">
        <ele>15.7</ele>
        <time>2024-03-10T08:20:57Z</time>
      </trkpt>
      <trkpt lat="49.22079" lon="-0.07408">
        <ele>15.8</ele>
        <time>2024-03-10T08:20:58Z</time>
      </trkpt>
      <trkpt lat="49.22075" lon="-0.07401">
        <ele>16</ele>
        <time>2024-03-10T08:20:59Z</time>
      </trkpt>
      <trkpt lat="49.22071" lon="-0.07394">
        <ele>16.2</ele>
        <time>2024-03-10T08:21:00Z</time>
      </trkpt>
      <trkpt lat="49.22068" lon="-0.07386">
        <ele>16.3</ele>
        <time>2024-03-10T08:21:01Z</time>
      </trkpt>
      <trkpt lat="49.22065" lon="-0.07379">
        <ele>16.5</ele>
        <time>2024-03-10T08:21:02Z</time>
      </trkpt>
      <trkpt lat="49.22063" lon="-0.0737">
        <ele>16.7</ele>
        <time>2024-03-10T08:21:03Z</time>
      </trkpt>
      <trkpt lat="49.22061" lon="-0.07361">
        <ele>16.8</ele>
        <time>2024-03-10T08:21:04Z</time>
      </trkpt>
      <trkpt lat="49.22058" lon="-0.07352">
        <ele>17</ele>
        <time>2024-03-10T08:21:05Z</time>
      </trkpt>
      <trkpt lat="49.22055" lon="-0.07343">
        <ele>17.1</ele>
        <time>2024-03-10T08:21:06Z</time>
      </trkpt>
      <trkpt lat="49.22053" lon="-0.07334">
        <ele>17.3</ele>
        <time>2024-03-10T08:21:07Z</time>
      </trkpt>
      <trkpt lat="49.2205" lon="-0.07324">
        <ele>17.4</ele>
        <time>2024-03-10T08:21:08Z</time>
      </trkpt>
      <trkpt lat="49.22048" lon="-0.07315">
        <ele>17.6</ele>
        <time>2024-03-10T08:21:09Z</time>
      </trkpt>
      <trkpt lat="49.22045" lon="-0.07306">
        <ele>17.7</ele>
        <time>2024-03-10T08:21:10Z</time>
      </trkpt>
      <trkpt lat="49.22043" lon="-0.07297">
        <ele>17.9</ele>
        <time>2024-03-10T08:21:11Z</time>
      </trkpt>
      <trkpt lat="49.2204" lon="-0.07288">
        <ele>18</ele>
        <time>2024-03-10T08:21:12Z</time>
      </trkpt>
      <trkpt lat="49.22037" lon="-0.07279">
        <ele>18.2</ele>
        <time>2024-03-10T08:21:13Z</time>
      </trkpt>
      <trkpt lat="49.22035" lon="-0.07271">
        <ele>18.3</ele>
        <time>2024-03-10T08:21:14Z</time>
      </trkpt>
      <trkpt lat="49.22032" lon="-0.07262">
        <ele>18.5</ele>
        <time>2024-03-10T08:21:15Z</time>
      </trkpt>
      <trkpt lat="49.2203" lon="-0.07253">
        <ele>18.6</ele>
        <time>2024-03-10T08:21:16Z</time>
      </trkpt>
      <trkpt lat="49.22027" lon="-0.07244">
        <ele>18.8</ele>
        <time>2024-03-10T08:21:17Z</time>
      </trkpt>
      <trkpt lat="49.22024" lon="-0.07235">
        <ele>18.9</ele>
        <time>2024-03-10T08:21:18Z</time>
      </trkpt>
      <trkpt lat="49.22021" lon="-0.07227">
        <ele>19.1</ele>
        <time>2024-03-10T08:21:19Z</time>
      </trkpt>
      <trkpt lat="49.22018" lon="-0.0722">
        <ele>19.2</ele>
        <time>2024-03-10T08:21:20Z</time>
      </trkpt>
      <trkpt lat="49.22014" lon="-0.07212">
        <ele>19.4</ele>
        <time>2024-03-10T08:21:21Z</time>
      </trkpt>
      <trkpt lat="49.22011" lon="-0.07205">
        <ele>19.5</ele>
        <time>2024-03-10T08:21:22Z</time>
      </trkpt>
      <trkpt lat="49.22008" lon="-0.07198">
        <ele>19.6</ele>
        <time>2024-03-10T08:21:23Z</time>
      </trkpt>
      <trkpt lat="49.22005" lon="-0.07191">
        <ele>19.8</ele>
        <time>2024-03-10T08:21:24Z</time>
      </trkpt>
      <trkpt lat="49.22001" lon="-0.07184">
        <ele>19.9</ele>
        <time>2024-03-10T08:21:25Z</time>
      </trkpt>
      <trkpt lat="49.21998" lon="-0.07176">
        <ele>20</ele>
        <time>2024-03-10T08:21:26Z</time>
      </trkpt>
      <trkpt lat="49.21995" lon="-0.07169">
        <ele>20.2</ele>
        <time>2024-03-10T08:21:27Z</time>
      </trkpt>
      <trkpt lat="49.21992" lon="-0.07161">
        <ele>20.3</ele>
        <time>2024-03-10T08:21:28Z</time>
      </trkpt>
      <trkpt lat="49.21989" lon="-0.07154">
        <ele>20.5</ele>
        <time>2024-03-10T08:21:29Z</time>
      </trkpt>
      <trkpt lat="49.21986" lon="-0.07147">
        <ele>20.6</ele>
        <time>2024-03-10T08:21:30Z</time>
      </trkpt>
      <trkpt lat="49.21983" lon="-0.0714">
        <ele>20.8</ele>
        <time>2024-03-10T08:21:31Z</time>
      </trkpt>
      <trkpt lat="49.2198" lon="-0.07133">
        <ele>20.9</ele>
        <time>2024-03-10T08:21:32Z</time>
      </trkpt>
      <trkpt lat="49.21976" lon="-0.07127">
        <ele>21</ele>
        <time>2024-03-10T08:21:33Z</time>
      </trkpt>
      <trkpt lat="49.21972" lon="-0.0712">
        <ele>21.2</ele>
        <time>2024-03-10T08:21:34Z</time>
      </trkpt>
      <trkpt lat="49.21969" lon="-0.07112">
        <ele>21.4</ele>
        <time>2024-03-10T08:21:35Z</time>
      </trkpt>
      <trkpt lat="49.21965" lon="-0.07105">
        <ele>21.5</ele>
        <time>2024-03-10T08:21:36Z</time>
      </trkpt>
      <trkpt lat="49.21962" lon="-0.07098">
        <ele>21.7</ele>
        <time>2024-03-10T08:21:37Z</time>
      </trkpt>
      <trkpt lat="49.21958" lon="-0.07091">
        <ele>21.8</ele>
        <time>2024-03-10T08:21:38Z</time>
      </trkpt>
      <trkpt lat="49.21955" lon="-0.07083">
        <ele>21.9</ele>
        <time>2024-03-10T08:21:39Z</time>
      </trkpt>
      <trkpt lat="49.21952" lon="-0.07076">
        <ele>22</ele>
        <time>2024-03-10T08:21:40Z</time>
      </trkpt>
      <trkpt lat="49.21949" lon="-0.07068">
        <ele>22.1</ele>
        <time>2024-03-10T08:21:41Z</time>
      </trkpt>
      <trkpt lat="49.21946" lon="-0.0706">
        <ele>22.3</ele>
        <time>2024-03-10T08:21:42Z</time>
      </trkpt>
      <trkpt lat="49.21943" lon="-0.07053">
        <ele>22.4</ele>
        <time>2024-03-10T08:21:43Z</time>
      </trkpt>
      <trkpt lat="49.2194" lon="-0.07044">
        <ele>22.5</ele>
        <time>2024-03-10T08:21:44Z</time>
      </trkpt>
      <trkpt lat="49.21937" lon="-0.07036">
        <ele>22.6</ele>
        <time>2024-03-10T08:21:45Z</time>
      </trkpt>
      <trkpt lat="49.21935" lon="-0.07028">
        <ele>22.8</ele>
        <time>2024-03-10T08:21:46Z</time>
      </trkpt>
      <trkpt lat="49.21932" lon="-0.0702">
        <ele>22.9</ele>
        <time>2024-03-10T08:21:47Z</time>
      </trkpt>
      <trkpt lat="49.2193" lon="-0.07013">
        <ele>23</ele>
        <time>2024-03-10T08:21:48Z</time>
      </trkpt>
      <trkpt lat="49.21927" lon="-0.07004">
        <ele>23.1</ele>
        <time>2024-03-10T08:21:49Z</time>
      </trkpt>
      <trkpt lat="49.21925" lon="-0.06996">
        <ele>23.2</ele>
        <time>2024-03-10T08:21:50Z</time>
      </trkpt>
      <trkpt lat="49.21923" lon="-0.06987">
        <ele>23.3</ele>
        <time>2024-03-10T08:21:51Z</time>
      </trkpt>
      <trkpt lat="49.21922" lon="-0.06979">
        <ele>23.4</ele>
        <time>2024-03-10T08:21:52Z</time>
      </trkpt>
      <trkpt lat="49.2192" lon="-0.06971">
        <ele>23.5</ele>
        <time>2024-03-10T08:21:53Z</time>
      </trkpt>
      <trkpt lat="49.21918" lon="-0.06963">
        <ele>23.6</ele>
        <time>2024-03-10T08:21:54Z</time>
      </trkpt>
      <trkpt lat="49.21916" lon="-0.06955">
        <ele>23.7</ele>
        <time>2024-03-10T08:21:55Z</time>
      </trkpt>
      <trkpt lat="49.21914" lon="-0.06946">
        <ele>23.8</ele>
        <time>2024-03-10T08:21:56Z</time>
      </trkpt>
      <trkpt lat="49.21912" lon="-0.06937">
        <ele>23.9</ele>
        <time>2024-03-10T08:21:57Z</time>
      </trkpt>
      <trkpt lat="49.21911" lon="-0.06928">
        <ele>23.9</ele>
        <time>2024-03-10T08:21:58Z</time>
      </trkpt>
      <trkpt lat="49.2191" lon="-0.0692">
        <ele>24</ele>
        <time>2024-03-10T08:21:59Z</time>
      </trkpt>
      <trkpt lat="49.21909" lon="-0.06912">
        <ele>24.1</ele>
        <time>2024-03-10T08:22:00Z</time>
      </trkpt>
      <trkpt lat="49.21908" lon="-0.06903">
        <ele>24.1</ele>
        <time>2024-03-10T08:22:01Z</time>
      </trkpt>
      <trkpt lat="49.21908" lon="-0.06896">
        <ele>24.2</ele>
        <time>2024-03-10T08:22:02Z</time>
      </trkpt>
      <trkpt lat="49.21906" lon="-0.06889">
        <ele>24.4</ele>
        <time>2024-03-10T08:22:03Z</time>
      </trkpt>
      <trkpt lat="49.21902" lon="-0.06884">
        <ele>24.6</ele>
        <time>2024-03-10T08:22:04Z</time>
      </trkpt>
      <trkpt lat="49.21898" lon="-0.06878">
        <ele>24.8</ele>
        <time>2024-03-10T08:22:05Z</time>
      </trkpt>
      <trkpt lat="49.21892" lon="-0.06873">
        <ele>25</ele>
        <time>2024-03-10T08:22:06Z</time>
      </trkpt>
      <trkpt lat="49.21888" lon="-0.06867">
        <ele>25.3</ele>
        <time>2024-03-10T08:22:07Z</time>
      </trkpt>
      <trkpt lat="49.21883" lon="-0.06861">
        <ele>25.5</ele>
        <time>2024-03-10T08:22:08Z</time>
      </trkpt>
      <trkpt lat="49.21878" lon="-0.06855">
        <ele>25.7</ele>
        <time>2024-03-10T08:22:09Z</time>
      </trkpt>
      <trkpt lat="49.21874" lon="-0.06849">
        <ele>26</ele>
        <time>2024-03-10T08:22:10Z</time>
      </trkpt>
      <trkpt lat="49.21869" lon="-0.06843">
        <ele>26.2</ele>
        <time>2024-03-10T08:22:11Z</time>
      </trkpt>
      <trkpt lat="49.21865" lon="-0.06836">
        <ele>26.4</ele>
        <time>2024-03-10T08:22:12Z</time>
      </trkpt>
      <trkpt lat="49.21861" lon="-0.06829">
        <ele>26.6</ele>
        <time>2024-03-10T08:22:13Z</time>
      </trkpt>
      <trkpt lat="49.21857" lon="-0.06823">
        <ele>26.8</ele>
        <time>2024-03-10T08:22:14Z</time>
      </trkpt>
      <trkpt lat="49.21854" lon="-0.06816">
        <ele>27</ele>
        <time>2024-03-10T08:22:15Z</time>
      </trkpt>
      <trkpt lat="49.2185" lon="-0.0681">
        <ele>27.2</ele>
        <time>2024-03-10T08:22:16Z</time>
      </trkpt>
      <trkpt lat="49.21845" lon="-0.06803">
        <ele>27.3</ele>
        <time>2024-03-10T08:22:17Z</time>
      </trkpt>
      <trkpt lat="49.2184" lon="-0.06798">
        <ele>27.5</ele>
        <time>2024-03-10T08:22:18Z</time>
      </trkpt>
      <trkpt lat="49.21834" lon="-0.06793">
        <ele>27.7</ele>
        <time>2024-03-10T08:22:19Z</time>
      </trkpt>
      <trkpt lat="49.21829" lon="-0.06789">
        <ele>27.8</ele>
        <time>2024-03-10T08:22:20Z</time>
      </trkpt>
      <trkpt lat="49.21824" lon="-0.06785">
        <ele>28</ele>
        <time>2024-03-10T08:22:21Z</time>
      </trkpt>
      <trkpt lat="49.21818" lon="-0.06783">
        <ele>28.1</ele>
        <time>2024-03-10T08:22:22Z</time>
      </trkpt>
      <trkpt lat="49.21811" lon="-0.06782">
        <ele>28.2</ele>
        <time>2024-03-10T08:22:23Z</time>
      </trkpt>
      <trkpt lat="49.21805" lon="-0.06781">
        <ele>28.3</ele>
        <time>2024-03-10T08:22:24Z</time>
      </trkpt>
      <trkpt lat="49.21798" lon="-0.06781">
        <ele>28.4</ele>
        <time>2024-03-10T08:22:25Z</time>
      </trkpt>
      <trkpt lat="49.21791" lon="-0.06781">
        <ele>28.5</ele>
        <time>2024-03-10T08:22:26Z</time>
      </trkpt>
      <trkpt lat="49.21784" lon="-0.06781">
        <ele>28.6</ele>
        <time>2024-03-10T08:22:27Z</time>
      </trkpt>
      <trkpt lat="49.21777" lon="-0.0678">
        <ele>28.7</ele>
        <time>2024-03-10T08:22:28Z</time>
      </trkpt>
      <trkpt lat="49.2177" lon="-0.06779">
        <ele>28.8</ele>
        <time>2024-03-10T08:22:29Z</time>
      </trkpt>
      <trkpt lat="49.21763" lon="-0.06779">
        <ele>28.9</ele>
        <time>2024-03-10T08:22:30Z</time>
      </trkpt>
      <trkpt lat="49.21757" lon="-0.06778">
        <ele>28.9</ele>
        <time>2024-03-10T08:22:31Z</time>
      </trkpt>
      <trkpt lat="49.2175" lon="-0.06778">
        <ele>28.9</ele>
        <time>2024-03-10T08:22:32Z</time>
      </trkpt>
      <trkpt lat="49.21743" lon="-0.06777">
        <ele>28.9</ele>
        <time>2024-03-10T08:22:33Z</time>
      </trkpt>
      <trkpt lat="49.21736" lon="-0.06777">
        <ele>28.9</ele>
        <time>2024-03-10T08:22:34Z</time>
      </trkpt>
      <trkpt lat="49.21729" lon="-0.06777">
        <ele>28.9</ele>
        <time>2024-03-10T08:22:35Z</time>
      </trkpt>
      <trkpt lat="49.21722" lon="-0.06776">
        <ele>28.9</ele>
        <time>2024-03-10T08:22:36Z</time>
      </trkpt>
      <trkpt lat="49.21715" lon="-0.06776">
        <ele>28.9</ele>
        <time>2024-03-10T08:22:37Z</time>
      </trkpt>
      <trkpt lat="49.21708" lon="-0.06776">
        <ele>28.7</ele>
        <time>2024-03-10T08:22:38Z</time>
      </trkpt>
      <trkpt lat="49.21701" lon="-0.06776">
        <ele>28.3</ele>
        <time>2024-03-10T08:22:39Z</time>
      </trkpt>
      <trkpt lat="49.21693" lon="-0.06777">
        <ele>27.9</ele>
        <time>2024-03-10T08:22:40Z</time>
      </trkpt>
      <trkpt lat="49.21686" lon="-0.06778">
        <ele>27.4</ele>
        <time>2024-03-10T08:22:41Z</time>
      </trkpt>
      <trkpt lat="49.21679" lon="-0.06781">
        <ele>26.9</ele>
        <time>2024-03-10T08:22:42Z</time>
      </trkpt>
      <trkpt lat="49.21673" lon="-0.06788">
        <ele>26.3</ele>
        <time>2024-03-10T08:22:43Z</time>
      </trkpt>
      <trkpt lat="49.2167" lon="-0.06799">
        <ele>25.6</ele>
        <time>2024-03-10T08:22:44Z</time>
      </trkpt>
      <trkpt lat="49.21666" lon="-0.06811">
        <ele>24.7</ele>
        <time>2024-03-10T08:22:45Z</time>
      </trkpt>
      <trkpt lat="49.21662" lon="-0.06823">
        <ele>23.9</ele>
        <time>2024-03-10T08:22:46Z</time>
      </trkpt>
      <trkpt lat="49.21657" lon="-0.06835">
        <ele>23.1</ele>
        <time>2024-03-10T08:22:47Z</time>
      </trkpt>
      <trkpt lat="49.21652" lon="-0.06846">
        <ele>22.3</ele>
        <time>2024-03-10T08:22:48Z</time>
      </trkpt>
      <trkpt lat="49.21644" lon="-0.06856">
        <ele>21.6</ele>
        <time>2024-03-10T08:22:49Z</time>
      </trkpt>
      <trkpt lat="49.21636" lon="-0.06864">
        <ele>20.8</ele>
        <time>2024-03-10T08:22:50Z</time>
      </trkpt>
      <trkpt lat="49.21627" lon="-0.0687">
        <ele>20</ele>
        <time>2024-03-10T08:22:51Z</time>
      </trkpt>
      <trkpt lat="49.21617" lon="-0.06875">
        <ele>19.3</ele>
        <time>2024-03-10T08:22:52Z</time>
      </trkpt>
      <trkpt lat="49.21606" lon="-0.06878">
        <ele>18.6</ele>
        <time>2024-03-10T08:22:53Z</time>
      </trkpt>
      <trkpt lat="49.21595" lon="-0.0688">
        <ele>18</ele>
        <time>2024-03-10T08:22:54Z</time>
      </trkpt>
      <trkpt lat="49.21583" lon="-0.06881">
        <ele>17.3</ele>
        <time>2024-03-10T08:22:55Z</time>
      </trkpt>
      <trkpt lat="49.21572" lon="-0.06882">
        <ele>16.7</ele>
        <time>2024-03-10T08:22:56Z</time>
      </trkpt>
      <trkpt lat="49.2156" lon="-0.06884">
        <ele>16.1</ele>
        <time>2024-03-10T08:22:57Z</time>
      </trkpt>
      <trkpt lat="49.21548" lon="-0.06886">
        <ele>15.6</ele>
        <time>2024-03-10T08:22:58Z</time>
      </trkpt>
      <trkpt lat="49.21537" lon="-0.06888">
        <ele>15.1</ele>
        <time>2024-03-10T08:22:59Z</time>
      </trkpt>
      <trkpt lat="49.21526" lon="-0.06889">
        <ele>14.7</ele>
        <time>2024-03-10T08:23:00Z</time>
      </trkpt>
      <trkpt lat="49.21514" lon="-0.0689">
        <ele>14.4</ele>
        <time>2024-03-10T08:23:01Z</time>
      </trkpt>
      <trkpt lat="49.21504" lon="-0.0689">
        <ele>14.2</ele>
        <time>2024-03-10T08:23:02Z</time>
      </trkpt>
      <trkpt lat="49.21493" lon="-0.06891">
        <ele>14</ele>
        <time>2024-03-10T08:23:03Z</time>
      </trkpt>
      <trkpt lat="49.21483" lon="-0.06892">
        <ele>13.8</ele>
        <time>2024-03-10T08:23:04Z</time>
      </trkpt>
      <trkpt lat="49.21473" lon="-0.06893">
        <ele>13.8</ele>
        <time>2024-03-10T08:23:05Z</time>
      </trkpt>
      <trkpt lat="49.21463" lon="-0.06894">
        <ele>13.8</ele>
        <time>2024-03-10T08:23:06Z</time>
      </trkpt>
      <trkpt lat="49.21454" lon="-0.06895">
        <ele>13.9</ele>
        <time>2024-03-10T08:23:07Z</time>
      </trkpt>
      <trkpt lat="49.21445" lon="-0.06897">
        <ele>13.9</ele>
        <time>2024-03-10T08:23:08Z</time>
      </trkpt>
      <trkpt lat="49.21436" lon="-0.06899">
        <ele>14</ele>
        <time>2024-03-10T08:23:09Z</time>
      </trkpt>
      <trkpt lat="49.21428" lon="-0.06901">
        <ele>14</ele>
        <time>2024-03-10T08:23:10Z</time>
      </trkpt>
      <trkpt lat="49.21419" lon="-0.06903">
        <ele>14.1</ele>
        <time>2024-03-10T08:23:11Z</time>
      </trkpt>
      <trkpt lat="49.21412" lon="-0.06904">
        <ele>14.2</ele>
        <time>2024-03-10T08:23:12Z</time>
      </trkpt>
      <trkpt lat="49.21404" lon="-0.06906">
        <ele>14.3</ele>
        <time>2024-03-10T08:23:13Z</time>
      </trkpt>
      <trkpt lat="49.21396" lon="-0.06907">
        <ele>14.4</ele>
        <time>2024-03-10T08:23:14Z</time>
      </trkpt>
      <trkpt lat="49.21389" lon="-0.06908">
        <ele>14.4</ele>
        <time>2024-03-10T08:23:15Z</time>
      </trkpt>
      <trkpt lat="49.2138" lon="-0.06908">
        <ele>14.4</ele>
        <time>2024-03-10T08:23:16Z</time>
      </trkpt>
      <trkpt lat="49.21372" lon="-0.06907">
        <ele>14.3</ele>
        <time>2024-03-10T08:23:17Z</time>
      </trkpt>
      <trkpt lat="49.21363" lon="-0.06905">
        <ele>14.2</ele>
        <time>2024-03-10T08:23:18Z</time>
      </trkpt>
      <trkpt lat="49.21355" lon="-0.06903">
        <ele>14</ele>
        <time>2024-03-10T08:23:19Z</time>
      </trkpt>
      <trkpt lat="49.21346" lon="-0.06901">
        <ele>13.7</ele>
        <time>2024-03-10T08:23:20Z</time>
      </trkpt>
      <trkpt lat="49.21337" lon="-0.069">
        <ele>13.4</ele>
        <time>2024-03-10T08:23:21Z</time>
      </trkpt>
      <trkpt lat="49.21329" lon="-0.06898">
        <ele>13.1</ele>
        <time>2024-03-10T08:23:22Z</time>
      </trkpt>
      <trkpt lat="49.2132" lon="-0.06897">
        <ele>12.8</ele>
        <time>2024-03-10T08:23:23Z</time>
      </trkpt>
      <trkpt lat="49.21311" lon="-0.06896">
        <ele>12.4</ele>
        <time>2024-03-10T08:23:24Z</time>
      </trkpt>
      <trkpt lat="49.21302" lon="-0.06894">
        <ele>12.1</ele>
        <time>2024-03-10T08:23:25Z</time>
      </trkpt>
      <trkpt lat="49.21292" lon="-0.06893">
        <ele>11.9</ele>
        <time>2024-03-10T08:23:26Z</time>
      </trkpt>
      <trkpt lat="49.21283" lon="-0.06892">
        <ele>11.6</ele>
        <time>2024-03-10T08:23:27Z</time>
      </trkpt>
      <trkpt lat="49.21274" lon="-0.06891">
        <ele>11.3</ele>
        <time>2024-03-10T08:23:28Z</time>
      </trkpt>
      <trkpt lat="49.21266" lon="-0.0689">
        <ele>11.1</ele>
        <time>2024-03-10T08:23:29Z</time>
      </trkpt>
      <trkpt lat="49.21258" lon="-0.06889">
        <ele>10.8</ele>
        <time>2024-03-10T08:23:30Z</time>
      </trkpt>
      <trkpt lat="49.2125" lon="-0.06888">
        <ele>10.6</ele>
        <time>2024-03-10T08:23:31Z</time>
      </trkpt>
      <trkpt lat="49.21241" lon="-0.06887">
        <ele>10.3</ele>
        <time>2024-03-10T08:23:32Z</time>
      </trkpt>
      <trkpt lat="49.21231" lon="-0.06886">
        <ele>10.1</ele>
        <time>2024-03-10T08:23:33Z</time>
      </trkpt>
      <trkpt lat="49.21221" lon="-0.06884">
        <ele>9.9</ele>
        <time>2024-03-10T08:23:34Z</time>
      </trkpt>
      <trkpt lat="49.21212" lon="-0.06883">
        <ele>9.8</ele>
        <time>2024-03-10T08:23:35Z</time>
      </trkpt>
      <trkpt lat="49.21204" lon="-0.06882">
        <ele>9.6</ele>
        <time>2024-03-10T08:23:36Z</time>
      </trkpt>
      <trkpt lat="49.21195" lon="-0.06882">
        <ele>9.5</ele>
        <time>2024-03-10T08:23:37Z</time>
      </trkpt>
      <trkpt lat="49.21186" lon="-0.06881">
        <ele>9.4</ele>
        <time>2024-03-10T08:23:38Z</time>
      </trkpt>
      <trkpt lat="49.21178" lon="-0.0688">
        <ele>9.3</ele>
        <time>2024-03-10T08:23:39Z</time>
      </trkpt>
      <trkpt lat="49.21169" lon="-0.06879">
        <ele>9.1</ele>
        <time>2024-03-10T08:23:40Z</time>
      </trkpt>
      <trkpt lat="49.21161" lon="-0.06878">
        <ele>9</ele>
        <time>2024-03-10T08:23:41Z</time>
      </trkpt>
      <trkpt lat="49.21152" lon="-0.06877">
        <ele>8.9</ele>
        <time>2024-03-10T08:23:42Z</time>
      </trkpt>
      <trkpt lat="49.21144" lon="-0.06875">
        <ele>8.9</ele>
        <time>2024-03-10T08:23:43Z</time>
      </trkpt>
      <trkpt lat="49.21136" lon="-0.06874">
        <ele>8.9</ele>
        <time>2024-03-10T08:23:44Z</time>
      </trkpt>
      <trkpt lat="49.21127" lon="-0.06873">
        <ele>8.9</ele>
        <time>2024-03-10T08:23:45Z</time>
      </trkpt>
      <trkpt lat="49.21119" lon="-0.06871">
        <ele>8.9</ele>
        <time>2024-03-10T08:23:46Z</time>
      </trkpt>
      <trkpt lat="49.2111" lon="-0.06869">
        <ele>8.9</ele>
        <time>2024-03-10T08:23:47Z</time>
      </trkpt>
      <trkpt lat="49.21102" lon="-0.06867">
        <ele>8.9</ele>
        <time>2024-03-10T08:23:48Z</time>
      </trkpt>
      <trkpt lat="49.21094" lon="-0.06866">
        <ele>8.8</ele>
        <time>2024-03-10T08:23:49Z</time>
      </trkpt>
      <trkpt lat="49.21086" lon="-0.06864">
        <ele>8.8</ele>
        <time>2024-03-10T08:23:50Z</time>
      </trkpt>
      <trkpt lat="49.21078" lon="-0.06863">
        <ele>8.7</ele>
        <time>2024-03-10T08:23:51Z</time>
      </trkpt>
      <trkpt lat="49.2107" lon="-0.06862">
        <ele>8.7</ele>
        <time>2024-03-10T08:23:52Z</time>
      </trkpt>
      <trkpt lat="49.21062" lon="-0.06862">
        <ele>8.7</ele>
        <time>2024-03-10T08:23:53Z</time>
      </trkpt>
      <trkpt lat="49.21053" lon="-0.06863">
        <ele>8.6</ele>
        <time>2024-03-10T08:23:54Z</time>
      </trkpt>
      <trkpt lat="49.21045" lon="-0.06863">
        <ele>8.6</ele>
        <time>2024-03-10T08:23:55Z</time>
      </trkpt>
      <trkpt lat="49.21037" lon="-0.06863">
        <ele>8.6</ele>
        <time>2024-03-10T08:23:56Z</time>
      </trkpt>
      <trkpt lat="49.2103" lon="-0.06864">
        <ele>8.6</ele>
        <time>2024-03-10T08:23:57Z</time>
      </trkpt>
      <trkpt lat="49.21022" lon="-0.06865">
        <ele>8.6</ele>
        <time>2024-03-10T08:23:58Z</time>
      </trkpt>
      <trkpt lat="49.21014" lon="-0.06866">
        <ele>8.5</ele>
        <time>2024-03-10T08:23:59Z</time>
      </trkpt>
      <trkpt lat="49.21006" lon="-0.06867">
        <ele>8.5</ele>
        <time>2024-03-10T08:24:00Z</time>
      </trkpt>
      <trkpt lat="49.20999" lon="-0.06868">
        <ele>8.5</ele>
        <time>2024-03-10T08:24:01Z</time>
      </trkpt>
      <trkpt lat="49.20991" lon="-0.06869">
        <ele>8.4</ele>
        <time>2024-03-10T08:24:02Z</time>
      </trkpt>
      <trkpt lat="49.20982" lon="-0.0687">
        <ele>8.4</ele>
        <time>2024-03-10T08:24:03Z</time>
      </trkpt>
      <trkpt lat="49.20975" lon="-0.06871">
        <ele>8.3</ele>
        <time>2024-03-10T08:24:04Z</time>
      </trkpt>
      <trkpt lat="49.20966" lon="-0.06871">
        <ele>8.3</ele>
        <time>2024-03-10T08:24:05Z</time>
      </trkpt>
      <trkpt lat="49.20958" lon="-0.06872">
        <ele>8.3</ele>
        <time>2024-03-10T08:24:06Z</time>
      </trkpt>
      <trkpt lat="49.2095" lon="-0.06872">
        <ele>8.3</ele>
        <time>2024-03-10T08:24:07Z</time>
      </trkpt>
      <trkpt lat="49.20942" lon="-0.06873">
        <ele>8.3</ele>
        <time>2024-03-10T08:24:08Z</time>
      </trkpt>
      <trkpt lat="49.20933" lon="-0.06873">
        <ele>8.3</ele>
        <time>2024-03-10T08:24:09Z</time>
      </trkpt>
      <trkpt lat="49.20925" lon="-0.06873">
        <ele>8.3</ele>
        <time>2024-03-10T08:24:10Z</time>
      </trkpt>
      <trkpt lat="49.20918" lon="-0.06871">
        <ele>8.3</ele>
        <time>2024-03-10T08:24:11Z</time>
      </trkpt>
      <trkpt lat="49.2091" lon="-0.06869">
        <ele>8.3</ele>
        <time>2024-03-10T08:24:12Z</time>
      </trkpt>
      <trkpt lat="49.20902" lon="-0.06865">
        <ele>8.2</ele>
        <time>2024-03-10T08:24:13Z</time>
      </trkpt>
      <trkpt lat="49.20895" lon="-0.06861">
        <ele>8.2</ele>
        <time>2024-03-10T08:24:14Z</time>
      </trkpt>
      <trkpt lat="49.20887" lon="-0.06857">
        <ele>8.2</ele>
        <time>2024-03-10T08:24:15Z</time>
      </trkpt>
      <trkpt lat="49.20879" lon="-0.06853">
        <ele>8.2</ele>
        <time>2024-03-10T08:24:16Z</time>
      </trkpt>
      <trkpt lat="49.20872" lon="-0.06851">
        <ele>8.2</ele>
        <time>2024-03-10T08:24:17Z</time>
      </trkpt>
      <trkpt lat="49.20864" lon="-0.0685">
        <ele>8.2</ele>
        <time>2024-03-10T08:24:18Z</time>
      </trkpt>
      <trkpt lat="49.20856" lon="-0.06848">
        <ele>8.2</ele>
        <time>2024-03-10T08:24:19Z</time>
      </trkpt>
      <trkpt lat="49.20848" lon="-0.06846">
        <ele>8.3</ele>
        <time>2024-03-10T08:24:20Z</time>
      </trkpt>
      <trkpt lat="49.2084" lon="-0.06845">
        <ele>8.3</ele>
        <time>2024-03-10T08:24:21Z</time>
      </trkpt>
      <trkpt lat="49.20832" lon="-0.06843">
        <ele>8.3</ele>
        <time>2024-03-10T08:24:22Z</time>
      </trkpt>
      <trkpt lat="49.20824" lon="-0.06842">
        <ele>8.3</ele>
        <time>2024-03-10T08:24:23Z</time>
      </trkpt>
      <trkpt lat="49.20816" lon="-0.0684">
        <ele>8.4</ele>
        <time>2024-03-10T08:24:24Z</time>
      </trkpt>
      <trkpt lat="49.20809" lon="-0.06836">
        <ele>8.4</ele>
        <time>2024-03-10T08:24:25Z</time>
      </trkpt>
      <trkpt lat="49.20801" lon="-0.06832">
        <ele>8.5</ele>
        <time>2024-03-10T08:24:26Z</time>
      </trkpt>
      <trkpt lat="49.20794" lon="-0.06828">
        <ele>8.5</ele>
        <time>2024-03-10T08:24:27Z</time>
      </trkpt>
      <trkpt lat="49.20786" lon="-0.06824">
        <ele>8.5</ele>
        <time>2024-03-10T08:24:28Z</time>
      </trkpt>
      <trkpt lat="49.20779" lon="-0.06819">
        <ele>8.5</ele>
        <time>2024-03-10T08:24:29Z</time>
      </trkpt>
      <trkpt lat="49.20773" lon="-0.06812">
        <ele>8.6</ele>
        <time>2024-03-10T08:24:30Z</time>
      </trkpt>
      <trkpt lat="49.20767" lon="-0.06806">
        <ele>8.6</ele>
        <time>2024-03-10T08:24:31Z</time>
      </trkpt>
      <trkpt lat="49.20761" lon="-0.06799">
        <ele>8.7</ele>
        <time>2024-03-10T08:24:32Z</time>
      </trkpt>
      <trkpt lat="49.20755" lon="-0.06792">
        <ele>8.7</ele>
        <time>2024-03-10T08:24:33Z</time>
      </trkpt>
      <trkpt lat="49.20749" lon="-0.06786">
        <ele>8.7</ele>
        <time>2024-03-10T08:24:34Z</time>
      </trkpt>
      <trkpt lat="49.20742" lon="-0.06779">
        <ele>8.7</ele>
        <time>2024-03-10T08:24:35Z</time>
      </trkpt>
      <trkpt lat="49.20736" lon="-0.06772">
        <ele>8.8</ele>
        <time>2024-03-10T08:24:36Z</time>
      </trkpt>
      <trkpt lat="49.2073" lon="-0.06765">
        <ele>8.8</ele>
        <time>2024-03-10T08:24:37Z</time>
      </trkpt>
      <trkpt lat="49.20724" lon="-0.06759">
        <ele>8.8</ele>
        <time>2024-03-10T08:24:38Z</time>
      </trkpt>
      <trkpt lat="49.20718" lon="-0.06751">
        <ele>8.9</ele>
        <time>2024-03-10T08:24:39Z</time>
      </trkpt>
      <trkpt lat="49.20712" lon="-0.06744">
        <ele>8.9</ele>
        <time>2024-03-10T08:24:40Z</time>
      </trkpt>
      <trkpt lat="49.20706" lon="-0.06737">
        <ele>8.9</ele>
        <time>2024-03-10T08:24:41Z</time>
      </trkpt>
      <trkpt lat="49.20699" lon="-0.06731">
        <ele>8.9</ele>
        <time>2024-03-10T08:24:42Z</time>
      </trkpt>
      <trkpt lat="49.20693" lon="-0.06724">
        <ele>9</ele>
        <time>2024-03-10T08:24:43Z</time>
      </trkpt>
      <trkpt lat="49.20687" lon="-0.06717">
        <ele>9</ele>
        <time>2024-03-10T08:24:44Z</time>
      </trkpt>
      <trkpt lat="49.20681" lon="-0.06709">
        <ele>9</ele>
        <time>2024-03-10T08:24:45Z</time>
      </trkpt>
      <trkpt lat="49.20675" lon="-0.06702">
        <ele>9</ele>
        <time>2024-03-10T08:24:46Z</time>
      </trkpt>
      <trkpt lat="49.20668" lon="-0.06696">
        <ele>9</ele>
        <time>2024-03-10T08:24:47Z</time>
      </trkpt>
      <trkpt lat="49.20662" lon="-0.06689">
        <ele>9</ele>
        <time>2024-03-10T08:24:48Z</time>
      </trkpt>
      <trkpt lat="49.20656" lon="-0.06682">
        <ele>9</ele>
        <time>2024-03-10T08:24:49Z</time>
      </trkpt>
      <trkpt lat="49.2065" lon="-0.06675">
        <ele>9</ele>
        <time>2024-03-10T08:24:50Z</time>
      </trkpt>
      <trkpt lat="49.20644" lon="-0.06667">
        <ele>9</ele>
        <time>2024-03-10T08:24:51Z</time>
      </trkpt>
      <trkpt lat="49.20639" lon="-0.0666">
        <ele>9.1</ele>
        <time>2024-03-10T08:24:52Z</time>
      </trkpt>
      <trkpt lat="49.20633" lon="-0.06651">
        <ele>9.1</ele>
        <time>2024-03-10T08:24:53Z</time>
      </trkpt>
      <trkpt lat="49.20627" lon="-0.06642">
        <ele>9.1</ele>
        <time>2024-03-10T08:24:54Z</time>
      </trkpt>
      <trkpt lat="49.20622" lon="-0.06634">
        <ele>9.1</ele>
        <time>2024-03-10T08:24:55Z</time>
      </trkpt>
      <trkpt lat="49.20616" lon="-0.06626">
        <ele>9.2</ele>
        <time>2024-03-10T08:24:56Z</time>
      </trkpt>
      <trkpt lat="49.20611" lon="-0.06618">
        <ele>9.2</ele>
        <time>2024-03-10T08:24:57Z</time>
      </trkpt>
      <trkpt lat="49.20605" lon="-0.06608">
        <ele>9.2</ele>
        <time>2024-03-10T08:24:58Z</time>
      </trkpt>
      <trkpt lat="49.20599" lon="-0.066">
        <ele>9.2</ele>
        <time>2024-03-10T08:24:59Z</time>
      </trkpt>
      <trkpt lat="49.20594" lon="-0.06591">
        <ele>9.2</ele>
        <time>2024-03-10T08:25:00Z</time>
      </trkpt>
      <trkpt lat="49.20588" lon="-0.06581">
        <ele>9.2</ele>
        <time>2024-03-10T08:25:01Z</time>
      </trkpt>
      <trkpt lat="49.20582" lon="-0.06572">
        <ele>9.1</ele>
        <time>2024-03-10T08:25:02Z</time>
      </trkpt>
      <trkpt lat="49.20577" lon="-0.06563">
        <ele>9.1</ele>
        <time>2024-03-10T08:25:03Z</time>
      </trkpt>
      <trkpt lat="49.20571" lon="-0.06555">
        <ele>9.1</ele>
        <time>2024-03-10T08:25:04Z</time>
      </trkpt>
      <trkpt lat="49.20565" lon="-0.06548">
        <ele>9.1</ele>
        <time>2024-03-10T08:25:05Z</time>
      </trkpt>
      <trkpt lat="49.20558" lon="-0.06541">
        <ele>9</ele>
        <time>2024-03-10T08:25:06Z</time>
      </trkpt>
      <trkpt lat="49.20552" lon="-0.06535">
        <ele>9</ele>
        <time>2024-03-10T08:25:07Z</time>
      </trkpt>
      <trkpt lat="49.20545" lon="-0.06529">
        <ele>9</ele>
        <time>2024-03-10T08:25:08Z</time>
      </trkpt>
      <trkpt lat="49.20537" lon="-0.06523">
        <ele>9</ele>
        <time>2024-03-10T08:25:09Z</time>
      </trkpt>
      <trkpt lat="49.2053" lon="-0.06518">
        <ele>9</ele>
        <time>2024-03-10T08:25:10Z</time>
      </trkpt>
      <trkpt lat="49.20523" lon="-0.06513">
        <ele>9</ele>
        <time>2024-03-10T08:25:11Z</time>
      </trkpt>
      <trkpt lat="49.20517" lon="-0.06507">
        <ele>9</ele>
        <time>2024-03-10T08:25:12Z</time>
      </trkpt>
      <trkpt lat="49.2051" lon="-0.065">
        <ele>8.9</ele>
        <time>2024-03-10T08:25:13Z</time>
      </trkpt>
      <trkpt lat="49.20504" lon="-0.06492">
        <ele>8.9</ele>
        <time>2024-03-10T08:25:14Z</time>
      </trkpt>
      <trkpt lat="49.20498" lon="-0.06484">
        <ele>8.9</ele>
        <time>2024-03-10T08:25:15Z</time>
      </trkpt>
      <trkpt lat="49.20493" lon="-0.06475">
        <ele>8.9</ele>
        <time>2024-03-10T08:25:16Z</time>
      </trkpt>
      <trkpt lat="49.20487" lon="-0.06467">
        <ele>8.9</ele>
        <time>2024-03-10T08:25:17Z</time>
      </trkpt>
      <trkpt lat="49.20481" lon="-0.06459">
        <ele>8.9</ele>
        <time>2024-03-10T08:25:18Z</time>
      </trkpt>
      <trkpt lat="49.20475" lon="-0.06451">
        <ele>8.9</ele>
        <time>2024-03-10T08:25:19Z</time>
      </trkpt>
      <trkpt lat="49.20468" lon="-0.06445">
        <ele>8.8</ele>
        <time>2024-03-10T08:25:20Z</time>
      </trkpt>
      <trkpt lat="49.20461" lon="-0.06439">
        <ele>8.8</ele>
        <time>2024-03-10T08:25:21Z</time>
      </trkpt>
      <trkpt lat="49.20454" lon="-0.06434">
        <ele>8.8</ele>
        <time>2024-03-10T08:25:22Z</time>
      </trkpt>
      <trkpt lat="49.20446" lon="-0.06429">
        <ele>8.8</ele>
        <time>2024-03-10T08:25:23Z</time>
      </trkpt>
      <trkpt lat="49.20438" lon="-0.06426">
        <ele>8.9</ele>
        <time>2024-03-10T08:25:24Z</time>
      </trkpt>
      <trkpt lat="49.20431" lon="-0.06422">
        <ele>8.9</ele>
        <time>2024-03-10T08:25:25Z</time>
      </trkpt>
      <trkpt lat="49.20423" lon="-0.06419">
        <ele>8.9</ele>
        <time>2024-03-10T08:25:26Z</time>
      </trkpt>
      <trkpt lat="49.20415" lon="-0.06416">
        <ele>8.9</ele>
        <time>2024-03-10T08:25:27Z</time>
      </trkpt>
      <trkpt lat="49.20408" lon="-0.06412">
        <ele>8.9</ele>
        <time>2024-03-10T08:25:28Z</time>
      </trkpt>
      <trkpt lat="49.204" lon="-0.06408">
        <ele>8.9</ele>
        <time>2024-03-10T08:25:29Z</time>
      </trkpt>
      <trkpt lat="49.20393" lon="-0.06405">
        <ele>8.9</ele>
        <time>2024-03-10T08:25:30Z</time>
      </trkpt>
      <trkpt lat="49.20386" lon="-0.06401">
        <ele>8.8</ele>
        <time>2024-03-10T08:25:31Z</time>
      </trkpt>
      <trkpt lat="49.20379" lon="-0.06397">
        <ele>8.8</ele>
        <time>2024-03-10T08:25:32Z</time>
      </trkpt>
      <trkpt lat="49.20371" lon="-0.06393">
        <ele>8.8</ele>
        <time>2024-03-10T08:25:33Z</time>
      </trkpt>
      <trkpt lat="49.20364" lon="-0.06388">
        <ele>8.7</ele>
        <time>2024-03-10T08:25:34Z</time>
      </trkpt>
      <trkpt lat="49.20357" lon="-0.06384">
        <ele>8.7</ele>
        <time>2024-03-10T08:25:35Z</time>
      </trkpt>
      <trkpt lat="49.2035" lon="-0.0638">
        <ele>8.6</ele>
        <time>2024-03-10T08:25:36Z</time>
      </trkpt>
      <trkpt lat="49.20342" lon="-0.06376">
        <ele>8.6</ele>
        <time>2024-03-10T08:25:37Z</time>
      </trkpt>
      <trkpt lat="49.20335" lon="-0.06372">
        <ele>8.6</ele>
        <time>2024-03-10T08:25:38Z</time>
      </trkpt>
      <trkpt lat="49.20327" lon="-0.06369">
        <ele>8.6</ele>
        <time>2024-03-10T08:25:39Z</time>
      </trkpt>
      <trkpt lat="49.2032" lon="-0.06365">
        <ele>8.6</ele>
        <time>2024-03-10T08:25:40Z</time>
      </trkpt>
      <trkpt lat="49.20312" lon="-0.06362">
        <ele>8.5</ele>
        <time>2024-03-10T08:25:41Z</time>
      </trkpt>
      <trkpt lat="49.20305" lon="-0.06359">
        <ele>8.5</ele>
        <time>2024-03-10T08:25:42Z</time>
      </trkpt>
      <trkpt lat="49.20298" lon="-0.06357">
        <ele>8.5</ele>
        <time>2024-03-10T08:25:43Z</time>
      </trkpt>
      <trkpt lat="49.2029" lon="-0.06354">
        <ele>8.5</ele>
        <time>2024-03-10T08:25:44Z</time>
      </trkpt>
      <trkpt lat="49.20282" lon="-0.0635">
        <ele>8.4</ele>
        <time>2024-03-10T08:25:45Z</time>
      </trkpt>
      <trkpt lat="49.20274" lon="-0.06347">
        <ele>8.4</ele>
        <time>2024-03-10T08:25:46Z</time>
      </trkpt>
      <trkpt lat="49.20267" lon="-0.06343">
        <ele>8.3</ele>
        <time>2024-03-10T08:25:47Z</time>
      </trkpt>
      <trkpt lat="49.20259" lon="-0.0634">
        <ele>8.2</ele>
        <time>2024-03-10T08:25:48Z</time>
      </trkpt>
      <trkpt lat="49.20252" lon="-0.06336">
        <ele>8.2</ele>
        <time>2024-03-10T08:25:49Z</time>
      </trkpt>
      <trkpt lat="49.20245" lon="-0.06332">
        <ele>8.1</ele>
        <time>2024-03-10T08:25:50Z</time>
      </trkpt>
      <trkpt lat="49.20238" lon="-0.06328">
        <ele>8.1</ele>
        <time>2024-03-10T08:25:51Z</time>
      </trkpt>
      <trkpt lat="49.2023" lon="-0.06324">
        <ele>8</ele>
        <time>2024-03-10T08:25:52Z</time>
      </trkpt>
      <trkpt lat="49.20223" lon="-0.0632">
        <ele>8</ele>
        <time>2024-03-10T08:25:53Z</time>
      </trkpt>
      <trkpt lat="49.20215" lon="-0.06317">
        <ele>8</ele>
        <time>2024-03-10T08:25:54Z</time>
      </trkpt>
      <trkpt lat="49.20208" lon="-0.06316">
        <ele>8</ele>
        <time>2024-03-10T08:25:55Z</time>
      </trkpt>
      <trkpt lat="49.202" lon="-0.06315">
        <ele>7.9</ele>
        <time>2024-03-10T08:25:56Z</time>
      </trkpt>
      <trkpt lat="49.20192" lon="-0.06317">
        <ele>7.9</ele>
        <time>2024-03-10T08:25:57Z</time>
      </trkpt>
      <trkpt lat="49.20185" lon="-0.06322">
        <ele>7.9</ele>
        <time>2024-03-10T08:25:58Z</time>
      </trkpt>
      <trkpt lat="49.20178" lon="-0.06327">
        <ele>7.9</ele>
        <time>2024-03-10T08:25:59Z</time>
      </trkpt>
      <trkpt lat="49.20172" lon="-0.06334">
        <ele>7.9</ele>
        <time>2024-03-10T08:26:00Z</time>
      </trkpt>
      <trkpt lat="49.20167" lon="-0.06342">
        <ele>7.9</ele>
        <time>2024-03-10T08:26:01Z</time>
      </trkpt>
      <trkpt lat="49.20161" lon="-0.06349">
        <ele>7.8</ele>
        <time>2024-03-10T08:26:02Z</time>
      </trkpt>
      <trkpt lat="49.20156" lon="-0.06357">
        <ele>7.8</ele>
        <time>2024-03-10T08:26:03Z</time>
      </trkpt>
      <trkpt lat="49.2015" lon="-0.06365">
        <ele>7.8</ele>
        <time>2024-03-10T08:26:04Z</time>
      </trkpt>
      <trkpt lat="49.20145" lon="-0.06374">
        <ele>7.7</ele>
        <time>2024-03-10T08:26:05Z</time>
      </trkpt>
      <trkpt lat="49.20139" lon="-0.06383">
        <ele>7.7</ele>
        <time>2024-03-10T08:26:06Z</time>
      </trkpt>
      <trkpt lat="49.20134" lon="-0.06392">
        <ele>7.7</ele>
        <time>2024-03-10T08:26:07Z</time>
      </trkpt>
      <trkpt lat="49.2013" lon="-0.06402">
        <ele>7.6</ele>
        <time>2024-03-10T08:26:08Z</time>
      </trkpt>
      <trkpt lat="49.20125" lon="-0.06412">
        <ele>7.6</ele>
        <time>2024-03-10T08:26:09Z</time>
      </trkpt>
      <trkpt lat="49.20121" lon="-0.06422">
        <ele>7.6</ele>
        <time>2024-03-10T08:26:10Z</time>
      </trkpt>
      <trkpt lat="49.20117" lon="-0.06432">
        <ele>7.6</ele>
        <time>2024-03-10T08:26:11Z</time>
      </trkpt>
      <trkpt lat="49.20113" lon="-0.06443">
        <ele>7.6</ele>
        <time>2024-03-10T08:26:12Z</time>
      </trkpt>
      <trkpt lat="49.20108" lon="-0.06452">
        <ele>7.6</ele>
        <time>2024-03-10T08:26:13Z</time>
      </trkpt>
      <trkpt lat="49.20102" lon="-0.06461">
        <ele>7.5</ele>
        <time>2024-03-10T08:26:14Z</time>
      </trkpt>
      <trkpt lat="49.20095" lon="-0.06468">
        <ele>7.5</ele>
        <time>2024-03-10T08:26:15Z</time>
      </trkpt>
      <trkpt lat="49.20088" lon="-0.06475">
        <ele>7.4</ele>
        <time>2024-03-10T08:26:16Z</time>
      </trkpt>
      <trkpt lat="49.20081" lon="-0.0648">
        <ele>7.4</ele>
        <time>2024-03-10T08:26:17Z</time>
      </trkpt>
      <trkpt lat="49.20074" lon="-0.06486">
        <ele>7.4</ele>
        <time>2024-03-10T08:26:18Z</time>
      </trkpt>
      <trkpt lat="49.20068" lon="-0.06492">
        <ele>7.3</ele>
        <time>2024-03-10T08:26:19Z</time>
      </trkpt>
      <trkpt lat="49.20061" lon="-0.06498">
        <ele>7.3</ele>
        <time>2024-03-10T08:26:20Z</time>
      </trkpt>
      <trkpt lat="49.20055" lon="-0.06504">
        <ele>7.3</ele>
        <time>2024-03-10T08:26:21Z</time>
      </trkpt>
      <trkpt lat="49.20049" lon="-0.06511">
        <ele>7.3</ele>
        <time>2024-03-10T08:26:22Z</time>
      </trkpt>
      <trkpt lat="49.20044" lon="-0.06518">
        <ele>7.3</ele>
        <time>2024-03-10T08:26:23Z</time>
      </trkpt>
      <trkpt lat="49.20038" lon="-0.06526">
        <ele>7.3</ele>
        <time>2024-03-10T08:26:24Z</time>
      </trkpt>
      <trkpt lat="49.20031" lon="-0.06533">
        <ele>7.3</ele>
        <time>2024-03-10T08:26:25Z</time>
      </trkpt>
      <trkpt lat="49.20023" lon="-0.06539">
        <ele>7.3</ele>
        <time>2024-03-10T08:26:26Z</time>
      </trkpt>
      <trkpt lat="49.20015" lon="-0.06544">
        <ele>7.3</ele>
        <time>2024-03-10T08:26:27Z</time>
      </trkpt>
      <trkpt lat="49.20008" lon="-0.0655">
        <ele>7.2</ele>
        <time>2024-03-10T08:26:28Z</time>
      </trkpt>
      <trkpt lat="49.2" lon="-0.06554">
        <ele>7.2</ele>
        <time>2024-03-10T08:26:29Z</time>
      </trkpt>
      <trkpt lat="49.19992" lon="-0.06557">
        <ele>7.2</ele>
        <time>2024-03-10T08:26:30Z</time>
      </trkpt>
      <trkpt lat="49.19984" lon="-0.06559">
        <ele>7.2</ele>
        <time>2024-03-10T08:26:31Z</time>
      </trkpt>
      <trkpt lat="49.19976" lon="-0.06559">
        <ele>7.2</ele>
        <time>2024-03-10T08:26:32Z</time>
      </trkpt>
      <trkpt lat="49.19968" lon="-0.0656">
        <ele>7.2</ele>
        <time>2024-03-10T08:26:33Z</time>
      </trkpt>
      <trkpt lat="49.1996" lon="-0.06561">
        <ele>7.2</ele>
        <time>2024-03-10T08:26:34Z</time>
      </trkpt>
      <trkpt lat="49.19952" lon="-0.0656">
        <ele>7.2</ele>
        <time>2024-03-10T08:26:35Z</time>
      </trkpt>
      <trkpt lat="49.19945" lon="-0.06561">
        <ele>7.2</ele>
        <time>2024-03-10T08:26:36Z</time>
      </trkpt>
      <trkpt lat="49.19936" lon="-0.06562">
        <ele>7.2</ele>
        <time>2024-03-10T08:26:37Z</time>
      </trkpt>
      <trkpt lat="49.19928" lon="-0.06562">
        <ele>7.2</ele>
        <time>2024-03-10T08:26:38Z</time>
      </trkpt>
      <trkpt lat="49.19921" lon="-0.06563">
        <ele>7.2</ele>
        <time>2024-03-10T08:26:39Z</time>
      </trkpt>
      <trkpt lat="49.19913" lon="-0.06563">
        <ele>7.2</ele>
        <time>2024-03-10T08:26:40Z</time>
      </trkpt>
      <trkpt lat="49.19906" lon="-0.06564">
        <ele>7.2</ele>
        <time>2024-03-10T08:26:41Z</time>
      </trkpt>
      <trkpt lat="49.19898" lon="-0.06564">
        <ele>7.2</ele>
        <time>2024-03-10T08:26:42Z</time>
      </trkpt>
      <trkpt lat="49.1989" lon="-0.06563">
        <ele>7.2</ele>
        <time>2024-03-10T08:26:43Z</time>
      </trkpt>
      <trkpt lat="49.19883" lon="-0.06562">
        <ele>7.2</ele>
        <time>2024-03-10T08:26:44Z</time>
      </trkpt>
      <trkpt lat="49.19875" lon="-0.0656">
        <ele>7.2</ele>
        <time>2024-03-10T08:26:45Z</time>
      </trkpt>
      <trkpt lat="49.19868" lon="-0.06558">
        <ele>7.2</ele>
        <time>2024-03-10T08:26:46Z</time>
      </trkpt>
      <trkpt lat="49.19861" lon="-0.06555">
        <ele>7.2</ele>
        <time>2024-03-10T08:26:47Z</time>
      </trkpt>
      <trkpt lat="49.19854" lon="-0.06552">
        <ele>7.2</ele>
        <time>2024-03-10T08:26:48Z</time>
      </trkpt>
      <trkpt lat="49.19847" lon="-0.06549">
        <ele>7.2</ele>
        <time>2024-03-10T08:26:49Z</time>
      </trkpt>
      <trkpt lat="49.19842" lon="-0.06546">
        <ele>7.3</ele>
        <time>2024-03-10T08:26:50Z</time>
      </trkpt>
      <trkpt lat="49.19836" lon="-0.06547">
        <ele>7.4</ele>
        <time>2024-03-10T08:26:51Z</time>
      </trkpt>
      <trkpt lat="49.19832" lon="-0.06551">
        <ele>7.3</ele>
        <time>2024-03-10T08:26:52Z</time>
      </trkpt>
      <trkpt lat="49.19829" lon="-0.06559">
        <ele>7.3</ele>
        <time>2024-03-10T08:26:53Z</time>
      </trkpt>
      <trkpt lat="49.19827" lon="-0.06568">
        <ele>7.2</ele>
        <time>2024-03-10T08:26:54Z</time>
      </trkpt>
      <trkpt lat="49.19826" lon="-0.06578">
        <ele>7.1</ele>
        <time>2024-03-10T08:26:55Z</time>
      </trkpt>
      <trkpt lat="49.19824" lon="-0.06588">
        <ele>7.1</ele>
        <time>2024-03-10T08:26:56Z</time>
      </trkpt>
      <trkpt lat="49.19822" lon="-0.06598">
        <ele>7</ele>
        <time>2024-03-10T08:26:57Z</time>
      </trkpt>
      <trkpt lat="49.1982" lon="-0.06608">
        <ele>7</ele>
        <time>2024-03-10T08:26:58Z</time>
      </trkpt>
      <trkpt lat="49.19818" lon="-0.06618">
        <ele>7</ele>
        <time>2024-03-10T08:26:59Z</time>
      </trkpt>
      <trkpt lat="49.19815" lon="-0.06628">
        <ele>7</ele>
        <time>2024-03-10T08:27:00Z</time>
      </trkpt>
      <trkpt lat="49.19811" lon="-0.06638">
        <ele>7</ele>
        <time>2024-03-10T08:27:01Z</time>
      </trkpt>
      <trkpt lat="49.19807" lon="-0.06648">
        <ele>7.1</ele>
        <time>2024-03-10T08:27:02Z</time>
      </trkpt>
      <trkpt lat="49.19803" lon="-0.06657">
        <ele>7.1</ele>
        <time>2024-03-10T08:27:03Z</time>
      </trkpt>
      <trkpt lat="49.19799" lon="-0.06666">
        <ele>7.2</ele>
        <time>2024-03-10T08:27:04Z</time>
      </trkpt>
      <trkpt lat="49.19795" lon="-0.06675">
        <ele>7.3</ele>
        <time>2024-03-10T08:27:05Z</time>
      </trkpt>
      <trkpt lat="49.1979" lon="-0.06684">
        <ele>7.3</ele>
        <time>2024-03-10T08:27:06Z</time>
      </trkpt>
      <trkpt lat="49.19784" lon="-0.06691">
        <ele>7.4</ele>
        <time>2024-03-10T08:27:07Z</time>
      </trkpt>
      <trkpt lat="49.19778" lon="-0.06698">
        <ele>7.5</ele>
        <time>2024-03-10T08:27:08Z</time>
      </trkpt>
      <trkpt lat="49.19772" lon="-0.06705">
        <ele>7.6</ele>
        <time>2024-03-10T08:27:09Z</time>
      </trkpt>
      <trkpt lat="49.19765" lon="-0.0671">
        <ele>7.7</ele>
        <time>2024-03-10T08:27:10Z</time>
      </trkpt>
      <trkpt lat="49.19758" lon="-0.06715">
        <ele>7.7</ele>
        <time>2024-03-10T08:27:11Z</time>
      </trkpt>
      <trkpt lat="49.19752" lon="-0.0672">
        <ele>7.8</ele>
        <time>2024-03-10T08:27:12Z</time>
      </trkpt>
      <trkpt lat="49.19744" lon="-0.06725">
        <ele>7.9</ele>
        <time>2024-03-10T08:27:13Z</time>
      </trkpt>
      <trkpt lat="49.19737" lon="-0.06729">
        <ele>7.9</ele>
        <time>2024-03-10T08:27:14Z</time>
      </trkpt>
      <trkpt lat="49.1973" lon="-0.06734">
        <ele>7.9</ele>
        <time>2024-03-10T08:27:15Z</time>
      </trkpt>
      <trkpt lat="49.19723" lon="-0.06738">
        <ele>7.9</ele>
        <time>2024-03-10T08:27:16Z</time>
      </trkpt>
      <trkpt lat="49.19716" lon="-0.06742">
        <ele>7.9</ele>
        <time>2024-03-10T08:27:17Z</time>
      </trkpt>
      <trkpt lat="49.19709" lon="-0.06746">
        <ele>7.9</ele>
        <time>2024-03-10T08:27:18Z</time>
      </trkpt>
      <trkpt lat="49.19702" lon="-0.0675">
        <ele>7.9</ele>
        <time>2024-03-10T08:27:19Z</time>
      </trkpt>
      <trkpt lat="49.19694" lon="-0.06755">
        <ele>7.9</ele>
        <time>2024-03-10T08:27:20Z</time>
      </trkpt>
      <trkpt lat="49.19687" lon="-0.06759">
        <ele>7.9</ele>
        <time>2024-03-10T08:27:21Z</time>
      </trkpt>
      <trkpt lat="49.1968" lon="-0.06764">
        <ele>7.8</ele>
        <time>2024-03-10T08:27:22Z</time>
      </trkpt>
      <trkpt lat="49.19674" lon="-0.06769">
        <ele>7.8</ele>
        <time>2024-03-10T08:27:23Z</time>
      </trkpt>
      <trkpt lat="49.19667" lon="-0.06774">
        <ele>7.8</ele>
        <time>2024-03-10T08:27:24Z</time>
      </trkpt>
      <trkpt lat="49.1966" lon="-0.06779">
        <ele>7.8</ele>
        <time>2024-03-10T08:27:25Z</time>
      </trkpt>
      <trkpt lat="49.19653" lon="-0.06784">
        <ele>7.7</ele>
        <time>2024-03-10T08:27:26Z</time>
      </trkpt>
      <trkpt lat="49.19646" lon="-0.0679">
        <ele>7.7</ele>
        <time>2024-03-10T08:27:27Z</time>
      </trkpt>
      <trkpt lat="49.1964" lon="-0.06795">
        <ele>7.7</ele>
        <time>2024-03-10T08:27:28Z</time>
      </trkpt>
      <trkpt lat="49.19634" lon="-0.06801">
        <ele>7.7</ele>
        <time>2024-03-10T08:27:29Z</time>
      </trkpt>
      <trkpt lat="49.19627" lon="-0.06806">
        <ele>7.6</ele>
        <time>2024-03-10T08:27:30Z</time>
      </trkpt>
      <trkpt lat="49.1962" lon="-0.06812">
        <ele>7.6</ele>
        <time>2024-03-10T08:27:31Z</time>
      </trkpt>
      <trkpt lat="49.19614" lon="-0.06819">
        <ele>7.5</ele>
        <time>2024-03-10T08:27:32Z</time>
      </trkpt>
      <trkpt lat="49.19607" lon="-0.06825">
        <ele>7.5</ele>
        <time>2024-03-10T08:27:33Z</time>
      </trkpt>
      <trkpt lat="49.196" lon="-0.06831">
        <ele>7.4</ele>
        <time>2024-03-10T08:27:34Z</time>
      </trkpt>
      <trkpt lat="49.19593" lon="-0.06837">
        <ele>7.4</ele>
        <time>2024-03-10T08:27:35Z</time>
      </trkpt>
      <trkpt lat="49.19587" lon="-0.06843">
        <ele>7.4</ele>
        <time>2024-03-10T08:27:36Z</time>
      </trkpt>
      <trkpt lat="49.1958" lon="-0.0685">
        <ele>7.4</ele>
        <time>2024-03-10T08:27:37Z</time>
      </trkpt>
      <trkpt lat="49.19574" lon="-0.06857">
        <ele>7.4</ele>
        <time>2024-03-10T08:27:38Z</time>
      </trkpt>
      <trkpt lat="49.19568" lon="-0.06863">
        <ele>7.5</ele>
        <time>2024-03-10T08:27:39Z</time>
      </trkpt>
      <trkpt lat="49.19561" lon="-0.06869">
        <ele>7.5</ele>
        <time>2024-03-10T08:27:40Z</time>
      </trkpt>
      <trkpt lat="49.19554" lon="-0.06876">
        <ele>7.6</ele>
        <time>2024-03-10T08:27:41Z</time>
      </trkpt>
      <trkpt lat="49.19548" lon="-0.06882">
        <ele>7.6</ele>
        <time>2024-03-10T08:27:42Z</time>
      </trkpt>
      <trkpt lat="49.19541" lon="-0.06889">
        <ele>7.7</ele>
        <time>2024-03-10T08:27:43Z</time>
      </trkpt>
      <trkpt lat="49.19535" lon="-0.06895">
        <ele>7.8</ele>
        <time>2024-03-10T08:27:44Z</time>
      </trkpt>
      <trkpt lat="49.19528" lon="-0.06901">
        <ele>7.9</ele>
        <time>2024-03-10T08:27:45Z</time>
      </trkpt>
      <trkpt lat="49.19522" lon="-0.06906">
        <ele>8</ele>
        <time>2024-03-10T08:27:46Z</time>
      </trkpt>
      <trkpt lat="49.19515" lon="-0.06912">
        <ele>8.2</ele>
        <time>2024-03-10T08:27:47Z</time>
      </trkpt>
      <trkpt lat="49.19509" lon="-0.06917">
        <ele>8.4</ele>
        <time>2024-03-10T08:27:48Z</time>
      </trkpt>
      <trkpt lat="49.19502" lon="-0.06923">
        <ele>8.5</ele>
        <time>2024-03-10T08:27:49Z</time>
      </trkpt>
      <trkpt lat="49.19496" lon="-0.06928">
        <ele>8.7</ele>
        <time>2024-03-10T08:27:50Z</time>
      </trkpt>
      <trkpt lat="49.19489" lon="-0.06933">
        <ele>8.9</ele>
        <time>2024-03-10T08:27:51Z</time>
      </trkpt>
      <trkpt lat="49.19483" lon="-0.06938">
        <ele>9.2</ele>
        <time>2024-03-10T08:27:52Z</time>
      </trkpt>
      <trkpt lat="49.19477" lon="-0.06942">
        <ele>9.4</ele>
        <time>2024-03-10T08:27:53Z</time>
      </trkpt>
      <trkpt lat="49.1947" lon="-0.06947">
        <ele>9.6</ele>
        <time>2024-03-10T08:27:54Z</time>
      </trkpt>
      <trkpt lat="49.19464" lon="-0.06951">
        <ele>9.8</ele>
        <time>2024-03-10T08:27:55Z</time>
      </trkpt>
      <trkpt lat="49.19457" lon="-0.06955">
        <ele>10</ele>
        <time>2024-03-10T08:27:56Z</time>
      </trkpt>
      <trkpt lat="49.1945" lon="-0.06959">
        <ele>10.1</ele>
        <time>2024-03-10T08:27:57Z</time>
      </trkpt>
      <trkpt lat="49.19444" lon="-0.06963">
        <ele>10.2</ele>
        <time>2024-03-10T08:27:58Z</time>
      </trkpt>
      <trkpt lat="49.19438" lon="-0.06967">
        <ele>10.2</ele>
        <time>2024-03-10T08:27:59Z</time>
      </trkpt>
      <trkpt lat="49.19431" lon="-0.06971">
        <ele>10.2</ele>
        <time>2024-03-10T08:28:00Z</time>
      </trkpt>
      <trkpt lat="49.19425" lon="-0.06975">
        <ele>10.1</ele>
        <time>2024-03-10T08:28:01Z</time>
      </trkpt>
      <trkpt lat="49.19418" lon="-0.06979">
        <ele>9.9</ele>
        <time>2024-03-10T08:28:02Z</time>
      </trkpt>
      <trkpt lat="49.19411" lon="-0.06983">
        <ele>9.7</ele>
        <time>2024-03-10T08:28:03Z</time>
      </trkpt>
      <trkpt lat="49.19404" lon="-0.06988">
        <ele>9.5</ele>
        <time>2024-03-10T08:28:04Z</time>
      </trkpt>
      <trkpt lat="49.19397" lon="-0.06992">
        <ele>9.2</ele>
        <time>2024-03-10T08:28:05Z</time>
      </trkpt>
      <trkpt lat="49.1939" lon="-0.06997">
        <ele>9</ele>
        <time>2024-03-10T08:28:06Z</time>
      </trkpt>
      <trkpt lat="49.19382" lon="-0.07002">
        <ele>8.7</ele>
        <time>2024-03-10T08:28:07Z</time>
      </trkpt>
      <trkpt lat="49.19375" lon="-0.07006">
        <ele>8.4</ele>
        <time>2024-03-10T08:28:08Z</time>
      </trkpt>
      <trkpt lat="49.19367" lon="-0.07011">
        <ele>8.2</ele>
        <time>2024-03-10T08:28:09Z</time>
      </trkpt>
      <trkpt lat="49.1936" lon="-0.07017">
        <ele>8</ele>
        <time>2024-03-10T08:28:10Z</time>
      </trkpt>
      <trkpt lat="49.19352" lon="-0.07022">
        <ele>7.9</ele>
        <time>2024-03-10T08:28:11Z</time>
      </trkpt>
      <trkpt lat="49.19344" lon="-0.07028">
        <ele>7.7</ele>
        <time>2024-03-10T08:28:12Z</time>
      </trkpt>
      <trkpt lat="49.19337" lon="-0.07034">
        <ele>7.6</ele>
        <time>2024-03-10T08:28:13Z</time>
      </trkpt>
      <trkpt lat="49.19329" lon="-0.07041">
        <ele>7.5</ele>
        <time>2024-03-10T08:28:14Z</time>
      </trkpt>
      <trkpt lat="49.19321" lon="-0.07047">
        <ele>7.4</ele>
        <time>2024-03-10T08:28:15Z</time>
      </trkpt>
      <trkpt lat="49.19314" lon="-0.07054">
        <ele>7.3</ele>
        <time>2024-03-10T08:28:16Z</time>
      </trkpt>
      <trkpt lat="49.19306" lon="-0.07061">
        <ele>7.3</ele>
        <time>2024-03-10T08:28:17Z</time>
      </trkpt>
      <trkpt lat="49.19299" lon="-0.07067">
        <ele>7.2</ele>
        <time>2024-03-10T08:28:18Z</time>
      </trkpt>
      <trkpt lat="49.19292" lon="-0.07074">
        <ele>7.2</ele>
        <time>2024-03-10T08:28:19Z</time>
      </trkpt>
      <trkpt lat="49.19286" lon="-0.07081">
        <ele>7.1</ele>
        <time>2024-03-10T08:28:20Z</time>
      </trkpt>
      <trkpt lat="49.19279" lon="-0.07088">
        <ele>7.1</ele>
        <time>2024-03-10T08:28:21Z</time>
      </trkpt>
      <trkpt lat="49.19273" lon="-0.07095">
        <ele>7</ele>
        <time>2024-03-10T08:28:22Z</time>
      </trkpt>
      <trkpt lat="49.19267" lon="-0.07102">
        <ele>7</ele>
        <time>2024-03-10T08:28:23Z</time>
      </trkpt>
      <trkpt lat="49.1926" lon="-0.07108">
        <ele>7</ele>
        <time>2024-03-10T08:28:24Z</time>
      </trkpt>
      <trkpt lat="49.19254" lon="-0.07115">
        <ele>7</ele>
        <time>2024-03-10T08:28:25Z</time>
      </trkpt>
      <trkpt lat="49.19247" lon="-0.07122">
        <ele>7</ele>
        <time>2024-03-10T08:28:26Z</time>
      </trkpt>
      <trkpt lat="49.19241" lon="-0.07128">
        <ele>7</ele>
        <time>2024-03-10T08:28:27Z</time>
      </trkpt>
      <trkpt lat="49.19235" lon="-0.07135">
        <ele>7</ele>
        <time>2024-03-10T08:28:28Z</time>
      </trkpt>
      <trkpt lat="49.19229" lon="-0.07141">
        <ele>7</ele>
        <time>2024-03-10T08:28:29Z</time>
      </trkpt>
      <trkpt lat="49.19223" lon="-0.07148">
        <ele>7.1</ele>
        <time>2024-03-10T08:28:30Z</time>
      </trkpt>
      <trkpt lat="49.19217" lon="-0.07155">
        <ele>7.1</ele>
        <time>2024-03-10T08:28:31Z</time>
      </trkpt>
      <trkpt lat="49.19211" lon="-0.07161">
        <ele>7.1</ele>
        <time>2024-03-10T08:28:32Z</time>
      </trkpt>
      <trkpt lat="49.19205" lon="-0.07167">
        <ele>7.1</ele>
        <time>2024-03-10T08:28:33Z</time>
      </trkpt>
      <trkpt lat="49.19199" lon="-0.07174">
        <ele>7.2</ele>
        <time>2024-03-10T08:28:34Z</time>
      </trkpt>
      <trkpt lat="49.19193" lon="-0.0718">
        <ele>7.2</ele>
        <time>2024-03-10T08:28:35Z</time>
      </trkpt>
      <trkpt lat="49.19188" lon="-0.07186">
        <ele>7.3</ele>
        <time>2024-03-10T08:28:36Z</time>
      </trkpt>
      <trkpt lat="49.19182" lon="-0.07192">
        <ele>7.4</ele>
        <time>2024-03-10T08:28:37Z</time>
      </trkpt>
      <trkpt lat="49.19176" lon="-0.07198">
        <ele>7.5</ele>
        <time>2024-03-10T08:28:38Z</time>
      </trkpt>
      <trkpt lat="49.19171" lon="-0.07204">
        <ele>7.6</ele>
        <time>2024-03-10T08:28:39Z</time>
      </trkpt>
      <trkpt lat="49.19165" lon="-0.0721">
        <ele>7.7</ele>
        <time>2024-03-10T08:28:40Z</time>
      </trkpt>
      <trkpt lat="49.1916" lon="-0.07216">
        <ele>7.7</ele>
        <time>2024-03-10T08:28:41Z</time>
      </trkpt>
      <trkpt lat="49.19154" lon="-0.07222">
        <ele>7.7</ele>
        <time>2024-03-10T08:28:42Z</time>
      </trkpt>
      <trkpt lat="49.19149" lon="-0.07228">
        <ele>7.8</ele>
        <time>2024-03-10T08:28:43Z</time>
      </trkpt>
      <trkpt lat="49.19143" lon="-0.07234">
        <ele>7.9</ele>
        <time>2024-03-10T08:28:44Z</time>
      </trkpt>
      <trkpt lat="49.19137" lon="-0.0724">
        <ele>8</ele>
        <time>2024-03-10T08:28:45Z</time>
      </trkpt>
      <trkpt lat="49.19131" lon="-0.07247">
        <ele>8.1</ele>
        <time>2024-03-10T08:28:46Z</time>
      </trkpt>
      <trkpt lat="49.19125" lon="-0.07253">
        <ele>8.2</ele>
        <time>2024-03-10T08:28:47Z</time>
      </trkpt>
      <trkpt lat="49.19119" lon="-0.0726">
        <ele>8.3</ele>
        <time>2024-03-10T08:28:48Z</time>
      </trkpt>
      <trkpt lat="49.19113" lon="-0.07266">
        <ele>8.5</ele>
        <time>2024-03-10T08:28:49Z</time>
      </trkpt>
      <trkpt lat="49.19108" lon="-0.07272">
        <ele>8.6</ele>
        <time>2024-03-10T08:28:50Z</time>
      </trkpt>
      <trkpt lat="49.19102" lon="-0.07278">
        <ele>8.7</ele>
        <time>2024-03-10T08:28:51Z</time>
      </trkpt>
      <trkpt lat="49.19096" lon="-0.07283">
        <ele>8.8</ele>
        <time>2024-03-10T08:28:52Z</time>
      </trkpt>
      <trkpt lat="49.19091" lon="-0.07289">
        <ele>9</ele>
        <time>2024-03-10T08:28:53Z</time>
      </trkpt>
      <trkpt lat="49.19085" lon="-0.07295">
        <ele>9.1</ele>
        <time>2024-03-10T08:28:54Z</time>
      </trkpt>
      <trkpt lat="49.19079" lon="-0.07301">
        <ele>9.3</ele>
        <time>2024-03-10T08:28:55Z</time>
      </trkpt>
      <trkpt lat="49.19074" lon="-0.07307">
        <ele>9.5</ele>
        <time>2024-03-10T08:28:56Z</time>
      </trkpt>
      <trkpt lat="49.19069" lon="-0.07312">
        <ele>9.8</ele>
        <time>2024-03-10T08:28:57Z</time>
      </trkpt>
      <trkpt lat="49.19063" lon="-0.07318">
        <ele>10</ele>
        <time>2024-03-10T08:28:58Z</time>
      </trkpt>
      <trkpt lat="49.19057" lon="-0.07324">
        <ele>10.2</ele>
        <time>2024-03-10T08:28:59Z</time>
      </trkpt>
      <trkpt lat="49.19052" lon="-0.07329">
        <ele>10.4</ele>
        <time>2024-03-10T08:29:00Z</time>
      </trkpt>
      <trkpt lat="49.19047" lon="-0.07335">
        <ele>10.6</ele>
        <time>2024-03-10T08:29:01Z</time>
      </trkpt>
      <trkpt lat="49.19042" lon="-0.0734">
        <ele>10.7</ele>
        <time>2024-03-10T08:29:02Z</time>
      </trkpt>
      <trkpt lat="49.19037" lon="-0.07345">
        <ele>10.9</ele>
        <time>2024-03-10T08:29:03Z</time>
      </trkpt>
      <trkpt lat="49.19032" lon="-0.0735">
        <ele>11.1</ele>
        <time>2024-03-10T08:29:04Z</time>
      </trkpt>
      <trkpt lat="49.19028" lon="-0.07355">
        <ele>11.2</ele>
        <time>2024-03-10T08:29:05Z</time>
      </trkpt>
      <trkpt lat="49.19024" lon="-0.0736">
        <ele>11.3</ele>
        <time>2024-03-10T08:29:06Z</time>
      </trkpt>
      <trkpt lat="49.19019" lon="-0.07365">
        <ele>11.5</ele>
        <time>2024-03-10T08:29:07Z</time>
      </trkpt>
      <trkpt lat="49.19016" lon="-0.07368">
        <ele>11.6</ele>
        <time>2024-03-10T08:29:08Z</time>
      </trkpt>
      <trkpt lat="49.19012" lon="-0.07372">
        <ele>11.6</ele>
        <time>2024-03-10T08:29:09Z</time>
      </trkpt>
      <trkpt lat="49.19008" lon="-0.07375">
        <ele>11.7</ele>
        <time>2024-03-10T08:29:10Z</time>
      </trkpt>
      <trkpt lat="49.19005" lon="-0.07376">
        <ele>11.8</ele>
        <time>2024-03-10T08:29:11Z</time>
      </trkpt>
      <trkpt lat="49.19001" lon="-0.07374">
        <ele>11.8</ele>
        <time>2024-03-10T08:29:12Z</time>
      </trkpt>
      <trkpt lat="49.18997" lon="-0.07368">
        <ele>11.8</ele>
        <time>2024-03-10T08:29:13Z</time>
      </trkpt>
      <trkpt lat="49.18994" lon="-0.07361">
        <ele>11.7</ele>
        <time>2024-03-10T08:29:14Z</time>
      </trkpt>
      <trkpt lat="49.18992" lon="-0.07352">
        <ele>11.7</ele>
        <time>2024-03-10T08:29:15Z</time>
      </trkpt>
      <trkpt lat="49.1899" lon="-0.07342">
        <ele>11.6</ele>
        <time>2024-03-10T08:29:16Z</time>
      </trkpt>
      <trkpt lat="49.18987" lon="-0.07333">
        <ele>11.6</ele>
        <time>2024-03-10T08:29:17Z</time>
      </trkpt>
      <trkpt lat="49.18982" lon="-0.07327">
        <ele>11.7</ele>
        <time>2024-03-10T08:29:18Z</time>
      </trkpt>
      <trkpt lat="49.18976" lon="-0.07324">
        <ele>11.7</ele>
        <time>2024-03-10T08:29:19Z</time>
      </trkpt>
      <trkpt lat="49.18969" lon="-0.07326">
        <ele>11.7</ele>
        <time>2024-03-10T08:29:20Z</time>
      </trkpt>
      <trkpt lat="49.18964" lon="-0.07332">
        <ele>11.7</ele>
        <time>2024-03-10T08:29:21Z</time>
      </trkpt>
      <trkpt lat="49.1896" lon="-0.07339">
        <ele>11.7</ele>
        <time>2024-03-10T08:29:22Z</time>
      </trkpt>
      <trkpt lat="49.18956" lon="-0.07346">
        <ele>11.7</ele>
        <time>2024-03-10T08:29:23Z</time>
      </trkpt>
      <trkpt lat="49.18951" lon="-0.07353">
        <ele>11.7</ele>
        <time>2024-03-10T08:29:24Z</time>
      </trkpt>
      <trkpt lat="49.18947" lon="-0.07361">
        <ele>11.7</ele>
        <time>2024-03-10T08:29:25Z</time>
      </trkpt>
      <trkpt lat="49.18943" lon="-0.07368">
        <ele>11.8</ele>
        <time>2024-03-10T08:29:26Z</time>
      </trkpt>
      <trkpt lat="49.18937" lon="-0.07375">
        <ele>11.8</ele>
        <time>2024-03-10T08:29:27Z</time>
      </trkpt>
      <trkpt lat="49.18932" lon="-0.07381">
        <ele>11.9</ele>
        <time>2024-03-10T08:29:28Z</time>
      </trkpt>
      <trkpt lat="49.18925" lon="-0.07386">
        <ele>12</ele>
        <time>2024-03-10T08:29:29Z</time>
      </trkpt>
      <trkpt lat="49.18919" lon="-0.0739">
        <ele>12.1</ele>
        <time>2024-03-10T08:29:30Z</time>
      </trkpt>
      <trkpt lat="49.18911" lon="-0.07393">
        <ele>12.2</ele>
        <time>2024-03-10T08:29:31Z</time>
      </trkpt>
      <trkpt lat="49.18904" lon="-0.07397">
        <ele>12.3</ele>
        <time>2024-03-10T08:29:32Z</time>
      </trkpt>
      <trkpt lat="49.18898" lon="-0.07401">
        <ele>12.4</ele>
        <time>2024-03-10T08:29:33Z</time>
      </trkpt>
      <trkpt lat="49.18892" lon="-0.07405">
        <ele>12.6</ele>
        <time>2024-03-10T08:29:34Z</time>
      </trkpt>
      <trkpt lat="49.18885" lon="-0.07409">
        <ele>12.7</ele>
        <time>2024-03-10T08:29:35Z</time>
      </trkpt>
      <trkpt lat="49.18879" lon="-0.07412">
        <ele>12.8</ele>
        <time>2024-03-10T08:29:36Z</time>
      </trkpt>
      <trkpt lat="49.18872" lon="-0.07416">
        <ele>12.8</ele>
        <time>2024-03-10T08:29:37Z</time>
      </trkpt>
      <trkpt lat="49.18865" lon="-0.07419">
        <ele>12.9</ele>
        <time>2024-03-10T08:29:38Z</time>
      </trkpt>
      <trkpt lat="49.18858" lon="-0.07422">
        <ele>13</ele>
        <time>2024-03-10T08:29:39Z</time>
      </trkpt>
      <trkpt lat="49.18852" lon="-0.07426">
        <ele>13.1</ele>
        <time>2024-03-10T08:29:40Z</time>
      </trkpt>
      <trkpt lat="49.18846" lon="-0.0743">
        <ele>13.2</ele>
        <time>2024-03-10T08:29:41Z</time>
      </trkpt>
      <trkpt lat="49.1884" lon="-0.07433">
        <ele>13.3</ele>
        <time>2024-03-10T08:29:42Z</time>
      </trkpt>
      <trkpt lat="49.18833" lon="-0.07436">
        <ele>13.4</ele>
        <time>2024-03-10T08:29:43Z</time>
      </trkpt>
      <trkpt lat="49.18827" lon="-0.07439">
        <ele>13.5</ele>
        <time>2024-03-10T08:29:44Z</time>
      </trkpt>
      <trkpt lat="49.18821" lon="-0.07442">
        <ele>13.6</ele>
        <time>2024-03-10T08:29:45Z</time>
      </trkpt>
      <trkpt lat="49.18814" lon="-0.07444">
        <ele>13.7</ele>
        <time>2024-03-10T08:29:46Z</time>
      </trkpt>
      <trkpt lat="49.18807" lon="-0.07446">
        <ele>13.8</ele>
        <time>2024-03-10T08:29:47Z</time>
      </trkpt>
      <trkpt lat="49.188" lon="-0.07446">
        <ele>13.9</ele>
        <time>2024-03-10T08:29:48Z</time>
      </trkpt>
      <trkpt lat="49.18793" lon="-0.07446">
        <ele>14</ele>
        <time>2024-03-10T08:29:49Z</time>
      </trkpt>
      <trkpt lat="49.18786" lon="-0.07445">
        <ele>14</ele>
        <time>2024-03-10T08:29:50Z</time>
      </trkpt>
      <trkpt lat="49.1878" lon="-0.07444">
        <ele>14.1</ele>
        <time>2024-03-10T08:29:51Z</time>
      </trkpt>
      <trkpt lat="49.18773" lon="-0.07442">
        <ele>14.2</ele>
        <time>2024-03-10T08:29:52Z</time>
      </trkpt>
      <trkpt lat="49.18767" lon="-0.07439">
        <ele>14.3</ele>
        <time>2024-03-10T08:29:53Z</time>
      </trkpt>
      <trkpt lat="49.1876" lon="-0.07436">
        <ele>14.4</ele>
        <time>2024-03-10T08:29:54Z</time>
      </trkpt>
      <trkpt lat="49.18753" lon="-0.07433">
        <ele>14.5</ele>
        <time>2024-03-10T08:29:55Z</time>
      </trkpt>
      <trkpt lat="49.18747" lon="-0.07431">
        <ele>14.6</ele>
        <time>2024-03-10T08:29:56Z</time>
      </trkpt>
      <trkpt lat="49.18741" lon="-0.07431">
        <ele>14.7</ele>
        <time>2024-03-10T08:29:57Z</time>
      </trkpt>
      <trkpt lat="49.18734" lon="-0.07432">
        <ele>14.8</ele>
        <time>2024-03-10T08:29:58Z</time>
      </trkpt>
      <trkpt lat="49.18728" lon="-0.07436">
        <ele>14.9</ele>
        <time>2024-03-10T08:29:59Z</time>
      </trkpt>
      <trkpt lat="49.18722" lon="-0.0744">
        <ele>14.9</ele>
        <time>2024-03-10T08:30:00Z</time>
      </trkpt>
      <trkpt lat="49.18716" lon="-0.07444">
        <ele>14.9</ele>
        <time>2024-03-10T08:30:01Z</time>
      </trkpt>
      <trkpt lat="49.1871" lon="-0.07448">
        <ele>14.9</ele>
        <time>2024-03-10T08:30:02Z</time>
      </trkpt>
      <trkpt lat="49.18703" lon="-0.07451">
        <ele>15</ele>
        <time>2024-03-10T08:30:03Z</time>
      </trkpt>
      <trkpt lat="49.18697" lon="-0.07455">
        <ele>15</ele>
        <time>2024-03-10T08:30:04Z</time>
      </trkpt>
      <trkpt lat="49.18691" lon="-0.07459">
        <ele>15</ele>
        <time>2024-03-10T08:30:05Z</time>
      </trkpt>
      <trkpt lat="49.18684" lon="-0.07462">
        <ele>15</ele>
        <time>2024-03-10T08:30:06Z</time>
      </trkpt>
      <trkpt lat="49.18678" lon="-0.07465">
        <ele>15.1</ele>
        <time>2024-03-10T08:30:07Z</time>
      </trkpt>
      <trkpt lat="49.18672" lon="-0.07468">
        <ele>15.1</ele>
        <time>2024-03-10T08:30:08Z</time>
      </trkpt>
      <trkpt lat="49.18666" lon="-0.0747">
        <ele>15.1</ele>
        <time>2024-03-10T08:30:09Z</time>
      </trkpt>
      <trkpt lat="49.1866" lon="-0.07472">
        <ele>15.1</ele>
        <time>2024-03-10T08:30:10Z</time>
      </trkpt>
      <trkpt lat="49.18654" lon="-0.07475">
        <ele>15.1</ele>
        <time>2024-03-10T08:30:11Z</time>
      </trkpt>
      <trkpt lat="49.18647" lon="-0.07478">
        <ele>15.1</ele>
        <time>2024-03-10T08:30:12Z</time>
      </trkpt>
      <trkpt lat="49.18641" lon="-0.07481">
        <ele>15.1</ele>
        <time>2024-03-10T08:30:13Z</time>
      </trkpt>
      <trkpt lat="49.18634" lon="-0.07485">
        <ele>15.1</ele>
        <time>2024-03-10T08:30:14Z</time>
      </trkpt>
      <trkpt lat="49.18628" lon="-0.07489">
        <ele>15.1</ele>
        <time>2024-03-10T08:30:15Z</time>
      </trkpt>
      <trkpt lat="49.18622" lon="-0.07493">
        <ele>15.1</ele>
        <time>2024-03-10T08:30:16Z</time>
      </trkpt>
      <trkpt lat="49.18615" lon="-0.07497">
        <ele>15.1</ele>
        <time>2024-03-10T08:30:17Z</time>
      </trkpt>
      <trkpt lat="49.18609" lon="-0.07501">
        <ele>15.1</ele>
        <time>2024-03-10T08:30:18Z</time>
      </trkpt>
      <trkpt lat="49.18603" lon="-0.07506">
        <ele>15.2</ele>
        <time>2024-03-10T08:30:19Z</time>
      </trkpt>
      <trkpt lat="49.18596" lon="-0.07511">
        <ele>15.2</ele>
        <time>2024-03-10T08:30:20Z</time>
      </trkpt>
      <trkpt lat="49.18589" lon="-0.07515">
        <ele>15.1</ele>
        <time>2024-03-10T08:30:21Z</time>
      </trkpt>
      <trkpt lat="49.18583" lon="-0.0752">
        <ele>15.1</ele>
        <time>2024-03-10T08:30:22Z</time>
      </trkpt>
      <trkpt lat="49.18576" lon="-0.07525">
        <ele>15</ele>
        <time>2024-03-10T08:30:23Z</time>
      </trkpt>
      <trkpt lat="49.1857" lon="-0.0753">
        <ele>14.9</ele>
        <time>2024-03-10T08:30:24Z</time>
      </trkpt>
      <trkpt lat="49.18563" lon="-0.07536">
        <ele>14.8</ele>
        <time>2024-03-10T08:30:25Z</time>
      </trkpt>
      <trkpt lat="49.18557" lon="-0.07541">
        <ele>14.7</ele>
        <time>2024-03-10T08:30:26Z</time>
      </trkpt>
      <trkpt lat="49.1855" lon="-0.07547">
        <ele>14.6</ele>
        <time>2024-03-10T08:30:27Z</time>
      </trkpt>
      <trkpt lat="49.18544" lon="-0.07552">
        <ele>14.6</ele>
        <time>2024-03-10T08:30:28Z</time>
      </trkpt>
      <trkpt lat="49.18537" lon="-0.07557">
        <ele>14.6</ele>
        <time>2024-03-10T08:30:29Z</time>
      </trkpt>
      <trkpt lat="49.18531" lon="-0.07562">
        <ele>14.5</ele>
        <time>2024-03-10T08:30:30Z</time>
      </trkpt>
      <trkpt lat="49.18525" lon="-0.07568">
        <ele>14.5</ele>
        <time>2024-03-10T08:30:31Z</time>
      </trkpt>
      <trkpt lat="49.18518" lon="-0.07574">
        <ele>14.6</ele>
        <time>2024-03-10T08:30:32Z</time>
      </trkpt>
      <trkpt lat="49.18512" lon="-0.07579">
        <ele>14.6</ele>
        <time>2024-03-10T08:30:33Z</time>
      </trkpt>
      <trkpt lat="49.18506" lon="-0.07585">
        <ele>14.6</ele>
        <time>2024-03-10T08:30:34Z</time>
      </trkpt>
      <trkpt lat="49.185" lon="-0.0759">
        <ele>14.6</ele>
        <time>2024-03-10T08:30:35Z</time>
      </trkpt>
      <trkpt lat="49.18494" lon="-0.07596">
        <ele>14.6</ele>
        <time>2024-03-10T08:30:36Z</time>
      </trkpt>
      <trkpt lat="49.18487" lon="-0.07602">
        <ele>14.6</ele>
        <time>2024-03-10T08:30:37Z</time>
      </trkpt>
      <trkpt lat="49.1848" lon="-0.07608">
        <ele>14.6</ele>
        <time>2024-03-10T08:30:38Z</time>
      </trkpt>
      <trkpt lat="49.18474" lon="-0.07614">
        <ele>14.6</ele>
        <time>2024-03-10T08:30:39Z</time>
      </trkpt>
      <trkpt lat="49.18467" lon="-0.0762">
        <ele>14.6</ele>
        <time>2024-03-10T08:30:40Z</time>
      </trkpt>
      <trkpt lat="49.1846" lon="-0.07626">
        <ele>14.6</ele>
        <time>2024-03-10T08:30:41Z</time>
      </trkpt>
      <trkpt lat="49.18454" lon="-0.07633">
        <ele>14.7</ele>
        <time>2024-03-10T08:30:42Z</time>
      </trkpt>
      <trkpt lat="49.18447" lon="-0.07639">
        <ele>14.7</ele>
        <time>2024-03-10T08:30:43Z</time>
      </trkpt>
      <trkpt lat="49.18442" lon="-0.07645">
        <ele>14.8</ele>
        <time>2024-03-10T08:30:44Z</time>
      </trkpt>
      <trkpt lat="49.18436" lon="-0.07652">
        <ele>14.8</ele>
        <time>2024-03-10T08:30:45Z</time>
      </trkpt>
      <trkpt lat="49.1843" lon="-0.07658">
        <ele>14.9</ele>
        <time>2024-03-10T08:30:46Z</time>
      </trkpt>
      <trkpt lat="49.18423" lon="-0.07664">
        <ele>14.9</ele>
        <time>2024-03-10T08:30:47Z</time>
      </trkpt>
      <trkpt lat="49.18417" lon="-0.0767">
        <ele>15</ele>
        <time>2024-03-10T08:30:48Z</time>
      </trkpt>
      <trkpt lat="49.18411" lon="-0.07675">
        <ele>15.1</ele>
        <time>2024-03-10T08:30:49Z</time>
      </trkpt>
      <trkpt lat="49.18406" lon="-0.0768">
        <ele>15.1</ele>
        <time>2024-03-10T08:30:50Z</time>
      </trkpt>
      <trkpt lat="49.184" lon="-0.07686">
        <ele>15.2</ele>
        <time>2024-03-10T08:30:51Z</time>
      </trkpt>
      <trkpt lat="49.18394" lon="-0.07691">
        <ele>15.3</ele>
        <time>2024-03-10T08:30:52Z</time>
      </trkpt>
      <trkpt lat="49.18389" lon="-0.07696">
        <ele>15.4</ele>
        <time>2024-03-10T08:30:53Z</time>
      </trkpt>
      <trkpt lat="49.18384" lon="-0.07701">
        <ele>15.5</ele>
        <time>2024-03-10T08:30:54Z</time>
      </trkpt>
      <trkpt lat="49.18378" lon="-0.07706">
        <ele>15.6</ele>
        <time>2024-03-10T08:30:55Z</time>
      </trkpt>
      <trkpt lat="49.18372" lon="-0.07711">
        <ele>15.8</ele>
        <time>2024-03-10T08:30:56Z</time>
      </trkpt>
      <trkpt lat="49.18366" lon="-0.07715">
        <ele>15.9</ele>
        <time>2024-03-10T08:30:57Z</time>
      </trkpt>
      <trkpt lat="49.18361" lon="-0.0772">
        <ele>16.1</ele>
        <time>2024-03-10T08:30:58Z</time>
      </trkpt>
      <trkpt lat="49.18355" lon="-0.07724">
        <ele>16.2</ele>
        <time>2024-03-10T08:30:59Z</time>
      </trkpt>
      <trkpt lat="49.1835" lon="-0.07729">
        <ele>16.4</ele>
        <time>2024-03-10T08:31:00Z</time>
      </trkpt>
      <trkpt lat="49.18346" lon="-0.07735">
        <ele>16.5</ele>
        <time>2024-03-10T08:31:01Z</time>
      </trkpt>
      <trkpt lat="49.18341" lon="-0.07739">
        <ele>16.6</ele>
        <time>2024-03-10T08:31:02Z</time>
      </trkpt>
      <trkpt lat="49.18337" lon="-0.07744">
        <ele>16.8</ele>
        <time>2024-03-10T08:31:03Z</time>
      </trkpt>
      <trkpt lat="49.18331" lon="-0.0775">
        <ele>16.9</ele>
        <time>2024-03-10T08:31:04Z</time>
      </trkpt>
      <trkpt lat="49.18326" lon="-0.07756">
        <ele>17</ele>
        <time>2024-03-10T08:31:05Z</time>
      </trkpt>
      <trkpt lat="49.18321" lon="-0.07762">
        <ele>17.2</ele>
        <time>2024-03-10T08:31:06Z</time>
      </trkpt>
      <trkpt lat="49.18315" lon="-0.07769">
        <ele>17.4</ele>
        <time>2024-03-10T08:31:07Z</time>
      </trkpt>
      <trkpt lat="49.1831" lon="-0.07776">
        <ele>17.5</ele>
        <time>2024-03-10T08:31:08Z</time>
      </trkpt>
      <trkpt lat="49.18305" lon="-0.07782">
        <ele>17.6</ele>
        <time>2024-03-10T08:31:09Z</time>
      </trkpt>
      <trkpt lat="49.18299" lon="-0.07789">
        <ele>17.7</ele>
        <time>2024-03-10T08:31:10Z</time>
      </trkpt>
      <trkpt lat="49.18292" lon="-0.07796">
        <ele>17.8</ele>
        <time>2024-03-10T08:31:11Z</time>
      </trkpt>
      <trkpt lat="49.18287" lon="-0.07803">
        <ele>17.9</ele>
        <time>2024-03-10T08:31:12Z</time>
      </trkpt>
      <trkpt lat="49.18281" lon="-0.0781">
        <ele>18.1</ele>
        <time>2024-03-10T08:31:13Z</time>
      </trkpt>
      <trkpt lat="49.18276" lon="-0.07817">
        <ele>18.2</ele>
        <time>2024-03-10T08:31:14Z</time>
      </trkpt>
      <trkpt lat="49.1827" lon="-0.07825">
        <ele>18.4</ele>
        <time>2024-03-10T08:31:15Z</time>
      </trkpt>
      <trkpt lat="49.18265" lon="-0.07832">
        <ele>18.5</ele>
        <time>2024-03-10T08:31:16Z</time>
      </trkpt>
      <trkpt lat="49.18259" lon="-0.07839">
        <ele>18.7</ele>
        <time>2024-03-10T08:31:17Z</time>
      </trkpt>
      <trkpt lat="49.18254" lon="-0.07846">
        <ele>18.8</ele>
        <time>2024-03-10T08:31:18Z</time>
      </trkpt>
      <trkpt lat="49.18249" lon="-0.07853">
        <ele>19</ele>
        <time>2024-03-10T08:31:19Z</time>
      </trkpt>
      <trkpt lat="49.18243" lon="-0.0786">
        <ele>19.1</ele>
        <time>2024-03-10T08:31:20Z</time>
      </trkpt>
      <trkpt lat="49.18238" lon="-0.07865">
        <ele>19.3</ele>
        <time>2024-03-10T08:31:21Z</time>
      </trkpt>
      <trkpt lat="49.18232" lon="-0.07871">
        <ele>19.4</ele>
        <time>2024-03-10T08:31:22Z</time>
      </trkpt>
      <trkpt lat="49.18227" lon="-0.07877">
        <ele>19.6</ele>
        <time>2024-03-10T08:31:23Z</time>
      </trkpt>
      <trkpt lat="49.18222" lon="-0.07883">
        <ele>19.8</ele>
        <time>2024-03-10T08:31:24Z</time>
      </trkpt>
      <trkpt lat="49.18217" lon="-0.07888">
        <ele>19.9</ele>
        <time>2024-03-10T08:31:25Z</time>
      </trkpt>
      <trkpt lat="49.18212" lon="-0.07893">
        <ele>20.1</ele>
        <time>2024-03-10T08:31:26Z</time>
      </trkpt>
      <trkpt lat="49.18207" lon="-0.07898">
        <ele>20.3</ele>
        <time>2024-03-10T08:31:27Z</time>
      </trkpt>
      <trkpt lat="49.18203" lon="-0.07902">
        <ele>20.4</ele>
        <time>2024-03-10T08:31:28Z</time>
      </trkpt>
      <trkpt lat="49.18199" lon="-0.07904">
        <ele>20.6</ele>
        <time>2024-03-10T08:31:29Z</time>
      </trkpt>
      <trkpt lat="49.18197" lon="-0.07906">
        <ele>20.7</ele>
        <time>2024-03-10T08:31:30Z</time>
      </trkpt>
      <trkpt lat="49.18194" lon="-0.07908">
        <ele>20.8</ele>
        <time>2024-03-10T08:31:31Z</time>
      </trkpt>
      <trkpt lat="49.18191" lon="-0.0791">
        <ele>21</ele>
        <time>2024-03-10T08:31:32Z</time>
      </trkpt>
      <trkpt lat="49.18189" lon="-0.0791">
        <ele>21.1</ele>
        <time>2024-03-10T08:31:33Z</time>
      </trkpt>
      <trkpt lat="49.18186" lon="-0.07908">
        <ele>21.1</ele>
        <time>2024-03-10T08:31:34Z</time>
      </trkpt>
      <trkpt lat="49.18184" lon="-0.07905">
        <ele>21.1</ele>
        <time>2024-03-10T08:31:35Z</time>
      </trkpt>
      <trkpt lat="49.18181" lon="-0.07899">
        <ele>21.1</ele>
        <time>2024-03-10T08:31:36Z</time>
      </trkpt>
      <trkpt lat="49.18178" lon="-0.07893">
        <ele>21.1</ele>
        <time>2024-03-10T08:31:37Z</time>
      </trkpt>
      <trkpt lat="49.18176" lon="-0.07886">
        <ele>21.1</ele>
        <time>2024-03-10T08:31:38Z</time>
      </trkpt>
      <trkpt lat="49.18174" lon="-0.07879">
        <ele>21.1</ele>
        <time>2024-03-10T08:31:39Z</time>
      </trkpt>
      <trkpt lat="49.18173" lon="-0.07872">
        <ele>21.1</ele>
        <time>2024-03-10T08:31:40Z</time>
      </trkpt>
      <trkpt lat="49.18172" lon="-0.07864">
        <ele>21.1</ele>
        <time>2024-03-10T08:31:41Z</time>
      </trkpt>
      <trkpt lat="49.18171" lon="-0.07857">
        <ele>21.1</ele>
        <time>2024-03-10T08:31:42Z</time>
      </trkpt>
      <trkpt lat="49.1817" lon="-0.07848">
        <ele>21.1</ele>
        <time>2024-03-10T08:31:43Z</time>
      </trkpt>
      <trkpt lat="49.18169" lon="-0.0784">
        <ele>21.1</ele>
        <time>2024-03-10T08:31:44Z</time>
      </trkpt>
      <trkpt lat="49.18167" lon="-0.07832">
        <ele>21.1</ele>
        <time>2024-03-10T08:31:45Z</time>
      </trkpt>
      <trkpt lat="49.18165" lon="-0.07823">
        <ele>21.1</ele>
        <time>2024-03-10T08:31:46Z</time>
      </trkpt>
      <trkpt lat="49.18164" lon="-0.07814">
        <ele>21.1</ele>
        <time>2024-03-10T08:31:47Z</time>
      </trkpt>
      <trkpt lat="49.18162" lon="-0.07806">
        <ele>21</ele>
        <time>2024-03-10T08:31:48Z</time>
      </trkpt>
      <trkpt lat="49.1816" lon="-0.07796">
        <ele>21</ele>
        <time>2024-03-10T08:31:49Z</time>
      </trkpt>
      <trkpt lat="49.18158" lon="-0.07787">
        <ele>21</ele>
        <time>2024-03-10T08:31:50Z</time>
      </trkpt>
      <trkpt lat="49.18157" lon="-0.07777">
        <ele>20.9</ele>
        <time>2024-03-10T08:31:51Z</time>
      </trkpt>
      <trkpt lat="49.18155" lon="-0.07767">
        <ele>20.8</ele>
        <time>2024-03-10T08:31:52Z</time>
      </trkpt>
      <trkpt lat="49.18154" lon="-0.07756">
        <ele>20.7</ele>
        <time>2024-03-10T08:31:53Z</time>
      </trkpt>
      <trkpt lat="49.18152" lon="-0.07745">
        <ele>20.7</ele>
        <time>2024-03-10T08:31:54Z</time>
      </trkpt>
      <trkpt lat="49.1815" lon="-0.07734">
        <ele>20.6</ele>
        <time>2024-03-10T08:31:55Z</time>
      </trkpt>
      <trkpt lat="49.18148" lon="-0.07723">
        <ele>20.5</ele>
        <time>2024-03-10T08:31:56Z</time>
      </trkpt>
      <trkpt lat="49.18147" lon="-0.07711">
        <ele>20.4</ele>
        <time>2024-03-10T08:31:57Z</time>
      </trkpt>
      <trkpt lat="49.18145" lon="-0.077">
        <ele>20.3</ele>
        <time>2024-03-10T08:31:58Z</time>
      </trkpt>
      <trkpt lat="49.18142" lon="-0.07688">
        <ele>20.2</ele>
        <time>2024-03-10T08:31:59Z</time>
      </trkpt>
      <trkpt lat="49.18139" lon="-0.07676">
        <ele>20.1</ele>
        <time>2024-03-10T08:32:00Z</time>
      </trkpt>
      <trkpt lat="49.18136" lon="-0.07665">
        <ele>20</ele>
        <time>2024-03-10T08:32:01Z</time>
      </trkpt>
      <trkpt lat="49.18132" lon="-0.07655">
        <ele>19.9</ele>
        <time>2024-03-10T08:32:02Z</time>
      </trkpt>
      <trkpt lat="49.18128" lon="-0.07643">
        <ele>19.9</ele>
        <time>2024-03-10T08:32:03Z</time>
      </trkpt>
      <trkpt lat="49.18125" lon="-0.07632">
        <ele>19.8</ele>
        <time>2024-03-10T08:32:04Z</time>
      </trkpt>
      <trkpt lat="49.18121" lon="-0.07621">
        <ele>19.7</ele>
        <time>2024-03-10T08:32:05Z</time>
      </trkpt>
      <trkpt lat="49.18118" lon="-0.0761">
        <ele>19.6</ele>
        <time>2024-03-10T08:32:06Z</time>
      </trkpt>
      <trkpt lat="49.18114" lon="-0.076">
        <ele>19.5</ele>
        <time>2024-03-10T08:32:07Z</time>
      </trkpt>
      <trkpt lat="49.18111" lon="-0.07589">
        <ele>19.4</ele>
        <time>2024-03-10T08:32:08Z</time>
      </trkpt>
      <trkpt lat="49.18107" lon="-0.07578">
        <ele>19.3</ele>
        <time>2024-03-10T08:32:09Z</time>
      </trkpt>
      <trkpt lat="49.18103" lon="-0.07567">
        <ele>19.3</ele>
        <time>2024-03-10T08:32:10Z</time>
      </trkpt>
      <trkpt lat="49.181" lon="-0.07557">
        <ele>19.3</ele>
        <time>2024-03-10T08:32:11Z</time>
      </trkpt>
      <trkpt lat="49.18096" lon="-0.07546">
        <ele>19.3</ele>
        <time>2024-03-10T08:32:12Z</time>
      </trkpt>
      <trkpt lat="49.18093" lon="-0.07535">
        <ele>19.2</ele>
        <time>2024-03-10T08:32:13Z</time>
      </trkpt>
      <trkpt lat="49.1809" lon="-0.07525">
        <ele>19.3</ele>
        <time>2024-03-10T08:32:14Z</time>
      </trkpt>
      <trkpt lat="49.18086" lon="-0.07514">
        <ele>19.3</ele>
        <time>2024-03-10T08:32:15Z</time>
      </trkpt>
      <trkpt lat="49.18083" lon="-0.07504">
        <ele>19.3</ele>
        <time>2024-03-10T08:32:16Z</time>
      </trkpt>
      <trkpt lat="49.1808" lon="-0.07493">
        <ele>19.4</ele>
        <time>2024-03-10T08:32:17Z</time>
      </trkpt>
      <trkpt lat="49.18076" lon="-0.07483">
        <ele>19.4</ele>
        <time>2024-03-10T08:32:18Z</time>
      </trkpt>
      <trkpt lat="49.18073" lon="-0.07472">
        <ele>19.4</ele>
        <time>2024-03-10T08:32:19Z</time>
      </trkpt>
      <trkpt lat="49.18069" lon="-0.07462">
        <ele>19.5</ele>
        <time>2024-03-10T08:32:20Z</time>
      </trkpt>
      <trkpt lat="49.18065" lon="-0.07452">
        <ele>19.5</ele>
        <time>2024-03-10T08:32:21Z</time>
      </trkpt>
      <trkpt lat="49.1806" lon="-0.07442">
        <ele>19.6</ele>
        <time>2024-03-10T08:32:22Z</time>
      </trkpt>
      <trkpt lat="49.18056" lon="-0.07431">
        <ele>19.6</ele>
        <time>2024-03-10T08:32:23Z</time>
      </trkpt>
      <trkpt lat="49.18052" lon="-0.07421">
        <ele>19.6</ele>
        <time>2024-03-10T08:32:24Z</time>
      </trkpt>
      <trkpt lat="49.18048" lon="-0.07412">
        <ele>19.6</ele>
        <time>2024-03-10T08:32:25Z</time>
      </trkpt>
      <trkpt lat="49.18044" lon="-0.07402">
        <ele>19.7</ele>
        <time>2024-03-10T08:32:26Z</time>
      </trkpt>
      <trkpt lat="49.1804" lon="-0.07393">
        <ele>19.7</ele>
        <time>2024-03-10T08:32:27Z</time>
      </trkpt>
      <trkpt lat="49.18036" lon="-0.07384">
        <ele>19.7</ele>
        <time>2024-03-10T08:32:28Z</time>
      </trkpt>
      <trkpt lat="49.18031" lon="-0.07374">
        <ele>19.8</ele>
        <time>2024-03-10T08:32:29Z</time>
      </trkpt>
      <trkpt lat="49.18027" lon="-0.07365">
        <ele>19.8</ele>
        <time>2024-03-10T08:32:30Z</time>
      </trkpt>
      <trkpt lat="49.18023" lon="-0.07356">
        <ele>19.8</ele>
        <time>2024-03-10T08:32:31Z</time>
      </trkpt>
      <trkpt lat="49.18019" lon="-0.07347">
        <ele>19.9</ele>
        <time>2024-03-10T08:32:32Z</time>
      </trkpt>
      <trkpt lat="49.18014" lon="-0.07337">
        <ele>19.9</ele>
        <time>2024-03-10T08:32:33Z</time>
      </trkpt>
      <trkpt lat="49.1801" lon="-0.07328">
        <ele>20</ele>
        <time>2024-03-10T08:32:34Z</time>
      </trkpt>
      <trkpt lat="49.18006" lon="-0.07319">
        <ele>20.1</ele>
        <time>2024-03-10T08:32:35Z</time>
      </trkpt>
      <trkpt lat="49.18001" lon="-0.07309">
        <ele>20.1</ele>
        <time>2024-03-10T08:32:36Z</time>
      </trkpt>
      <trkpt lat="49.17997" lon="-0.073">
        <ele>20.2</ele>
        <time>2024-03-10T08:32:37Z</time>
      </trkpt>
      <trkpt lat="49.17992" lon="-0.0729">
        <ele>20.3</ele>
        <time>2024-03-10T08:32:38Z</time>
      </trkpt>
      <trkpt lat="49.17987" lon="-0.07281">
        <ele>20.3</ele>
        <time>2024-03-10T08:32:39Z</time>
      </trkpt>
      <trkpt lat="49.17983" lon="-0.07272">
        <ele>20.4</ele>
        <time>2024-03-10T08:32:40Z</time>
      </trkpt>
      <trkpt lat="49.17979" lon="-0.07262">
        <ele>20.4</ele>
        <time>2024-03-10T08:32:41Z</time>
      </trkpt>
      <trkpt lat="49.17974" lon="-0.07252">
        <ele>20.5</ele>
        <time>2024-03-10T08:32:42Z</time>
      </trkpt>
      <trkpt lat="49.17969" lon="-0.07243">
        <ele>20.5</ele>
        <time>2024-03-10T08:32:43Z</time>
      </trkpt>
      <trkpt lat="49.17965" lon="-0.07234">
        <ele>20.6</ele>
        <time>2024-03-10T08:32:44Z</time>
      </trkpt>
      <trkpt lat="49.1796" lon="-0.07224">
        <ele>20.5</ele>
        <time>2024-03-10T08:32:45Z</time>
      </trkpt>
      <trkpt lat="49.17956" lon="-0.07215">
        <ele>20.5</ele>
        <time>2024-03-10T08:32:46Z</time>
      </trkpt>
      <trkpt lat="49.17951" lon="-0.07206">
        <ele>20.5</ele>
        <time>2024-03-10T08:32:47Z</time>
      </trkpt>
      <trkpt lat="49.17946" lon="-0.07196">
        <ele>20.5</ele>
        <time>2024-03-10T08:32:48Z</time>
      </trkpt>
      <trkpt lat="49.17941" lon="-0.07186">
        <ele>20.6</ele>
        <time>2024-03-10T08:32:49Z</time>
      </trkpt>
      <trkpt lat="49.17937" lon="-0.07176">
        <ele>20.6</ele>
        <time>2024-03-10T08:32:50Z</time>
      </trkpt>
      <trkpt lat="49.17933" lon="-0.07165">
        <ele>20.6</ele>
        <time>2024-03-10T08:32:51Z</time>
      </trkpt>
      <trkpt lat="49.17929" lon="-0.07155">
        <ele>20.6</ele>
        <time>2024-03-10T08:32:52Z</time>
      </trkpt>
      <trkpt lat="49.17924" lon="-0.07145">
        <ele>20.6</ele>
        <time>2024-03-10T08:32:53Z</time>
      </trkpt>
      <trkpt lat="49.17919" lon="-0.07135">
        <ele>20.7</ele>
        <time>2024-03-10T08:32:54Z</time>
      </trkpt>
      <trkpt lat="49.17914" lon="-0.07125">
        <ele>20.7</ele>
        <time>2024-03-10T08:32:55Z</time>
      </trkpt>
      <trkpt lat="49.1791" lon="-0.07115">
        <ele>20.7</ele>
        <time>2024-03-10T08:32:56Z</time>
      </trkpt>
      <trkpt lat="49.17905" lon="-0.07105">
        <ele>20.7</ele>
        <time>2024-03-10T08:32:57Z</time>
      </trkpt>
      <trkpt lat="49.179" lon="-0.07096">
        <ele>20.8</ele>
        <time>2024-03-10T08:32:58Z</time>
      </trkpt>
      <trkpt lat="49.17896" lon="-0.07086">
        <ele>20.8</ele>
        <time>2024-03-10T08:32:59Z</time>
      </trkpt>
      <trkpt lat="49.17891" lon="-0.07076">
        <ele>20.8</ele>
        <time>2024-03-10T08:33:00Z</time>
      </trkpt>
      <trkpt lat="49.17886" lon="-0.07067">
        <ele>20.8</ele>
        <time>2024-03-10T08:33:01Z</time>
      </trkpt>
      <trkpt lat="49.17882" lon="-0.07057">
        <ele>20.8</ele>
        <time>2024-03-10T08:33:02Z</time>
      </trkpt>
      <trkpt lat="49.17877" lon="-0.07047">
        <ele>20.8</ele>
        <time>2024-03-10T08:33:03Z</time>
      </trkpt>
      <trkpt lat="49.17872" lon="-0.07037">
        <ele>20.8</ele>
        <time>2024-03-10T08:33:04Z</time>
      </trkpt>
      <trkpt lat="49.17868" lon="-0.07027">
        <ele>20.8</ele>
        <time>2024-03-10T08:33:05Z</time>
      </trkpt>
      <trkpt lat="49.17863" lon="-0.07017">
        <ele>20.8</ele>
        <time>2024-03-10T08:33:06Z</time>
      </trkpt>
      <trkpt lat="49.17858" lon="-0.07007">
        <ele>20.8</ele>
        <time>2024-03-10T08:33:07Z</time>
      </trkpt>
      <trkpt lat="49.17853" lon="-0.06996">
        <ele>20.8</ele>
        <time>2024-03-10T08:33:08Z</time>
      </trkpt>
      <trkpt lat="49.17849" lon="-0.06986">
        <ele>20.8</ele>
        <time>2024-03-10T08:33:09Z</time>
      </trkpt>
      <trkpt lat="49.17844" lon="-0.06976">
        <ele>20.8</ele>
        <time>2024-03-10T08:33:10Z</time>
      </trkpt>
      <trkpt lat="49.17839" lon="-0.06966">
        <ele>20.9</ele>
        <time>2024-03-10T08:33:11Z</time>
      </trkpt>
      <trkpt lat="49.17834" lon="-0.06957">
        <ele>20.9</ele>
        <time>2024-03-10T08:33:12Z</time>
      </trkpt>
      <trkpt lat="49.17829" lon="-0.06948">
        <ele>20.9</ele>
        <time>2024-03-10T08:33:13Z</time>
      </trkpt>
      <trkpt lat="49.17824" lon="-0.06939">
        <ele>20.9</ele>
        <time>2024-03-10T08:33:14Z</time>
      </trkpt>
      <trkpt lat="49.17818" lon="-0.06931">
        <ele>20.8</ele>
        <time>2024-03-10T08:33:15Z</time>
      </trkpt>
      <trkpt lat="49.17812" lon="-0.06922">
        <ele>20.8</ele>
        <time>2024-03-10T08:33:16Z</time>
      </trkpt>
      <trkpt lat="49.17805" lon="-0.06914">
        <ele>20.7</ele>
        <time>2024-03-10T08:33:17Z</time>
      </trkpt>
      <trkpt lat="49.17799" lon="-0.06906">
        <ele>20.7</ele>
        <time>2024-03-10T08:33:18Z</time>
      </trkpt>
      <trkpt lat="49.17793" lon="-0.06899">
        <ele>20.7</ele>
        <time>2024-03-10T08:33:19Z</time>
      </trkpt>
      <trkpt lat="49.17786" lon="-0.06891">
        <ele>20.7</ele>
        <time>2024-03-10T08:33:20Z</time>
      </trkpt>
      <trkpt lat="49.1778" lon="-0.06884">
        <ele>20.6</ele>
        <time>2024-03-10T08:33:21Z</time>
      </trkpt>
      <trkpt lat="49.17774" lon="-0.06876">
        <ele>20.6</ele>
        <time>2024-03-10T08:33:22Z</time>
      </trkpt>
      <trkpt lat="49.17767" lon="-0.06868">
        <ele>20.6</ele>
        <time>2024-03-10T08:33:23Z</time>
      </trkpt>
      <trkpt lat="49.17761" lon="-0.0686">
        <ele>20.6</ele>
        <time>2024-03-10T08:33:24Z</time>
      </trkpt>
      <trkpt lat="49.17755" lon="-0.06852">
        <ele>20.6</ele>
        <time>2024-03-10T08:33:25Z</time>
      </trkpt>
      <trkpt lat="49.17749" lon="-0.06844">
        <ele>20.5</ele>
        <time>2024-03-10T08:33:26Z</time>
      </trkpt>
      <trkpt lat="49.17743" lon="-0.06836">
        <ele>20.5</ele>
        <time>2024-03-10T08:33:27Z</time>
      </trkpt>
      <trkpt lat="49.17736" lon="-0.06828">
        <ele>20.5</ele>
        <time>2024-03-10T08:33:28Z</time>
      </trkpt>
      <trkpt lat="49.1773" lon="-0.0682">
        <ele>20.5</ele>
        <time>2024-03-10T08:33:29Z</time>
      </trkpt>
      <trkpt lat="49.17724" lon="-0.06813">
        <ele>20.5</ele>
        <time>2024-03-10T08:33:30Z</time>
      </trkpt>
      <trkpt lat="49.17718" lon="-0.06806">
        <ele>20.5</ele>
        <time>2024-03-10T08:33:31Z</time>
      </trkpt>
      <trkpt lat="49.17712" lon="-0.06798">
        <ele>20.5</ele>
        <time>2024-03-10T08:33:32Z</time>
      </trkpt>
      <trkpt lat="49.17706" lon="-0.0679">
        <ele>20.5</ele>
        <time>2024-03-10T08:33:33Z</time>
      </trkpt>
      <trkpt lat="49.17697" lon="-0.06779">
        <ele>20.5</ele>
        <time>2024-03-10T08:33:34Z</time>
      </trkpt>
      <trkpt lat="49.17694" lon="-0.06776">
        <ele>20.5</ele>
        <time>2024-03-10T08:33:35Z</time>
      </trkpt>
      <trkpt lat="49.17688" lon="-0.06769">
        <ele>20.6</ele>
        <time>2024-03-10T08:33:36Z</time>
      </trkpt>
      <trkpt lat="49.17683" lon="-0.06762">
        <ele>20.6</ele>
        <time>2024-03-10T08:33:37Z</time>
      </trkpt>
      <trkpt lat="49.17677" lon="-0.06754">
        <ele>20.6</ele>
        <time>2024-03-10T08:33:38Z</time>
      </trkpt>
      <trkpt lat="49.17671" lon="-0.06747">
        <ele>20.7</ele>
        <time>2024-03-10T08:33:39Z</time>
      </trkpt>
      <trkpt lat="49.17665" lon="-0.0674">
        <ele>20.7</ele>
        <time>2024-03-10T08:33:40Z</time>
      </trkpt>
      <trkpt lat="49.17656" lon="-0.06729">
        <ele>20.8</ele>
        <time>2024-03-10T08:33:41Z</time>
      </trkpt>
      <trkpt lat="49.17653" lon="-0.06726">
        <ele>20.8</ele>
        <time>2024-03-10T08:33:42Z</time>
      </trkpt>
      <trkpt lat="49.17647" lon="-0.06719">
        <ele>20.8</ele>
        <time>2024-03-10T08:33:43Z</time>
      </trkpt>
      <trkpt lat="49.17641" lon="-0.06712">
        <ele>20.9</ele>
        <time>2024-03-10T08:33:44Z</time>
      </trkpt>
      <trkpt lat="49.17635" lon="-0.06706">
        <ele>20.9</ele>
        <time>2024-03-10T08:33:45Z</time>
      </trkpt>
      <trkpt lat="49.17628" lon="-0.06699">
        <ele>20.9</ele>
        <time>2024-03-10T08:33:46Z</time>
      </trkpt>
      <trkpt lat="49.17622" lon="-0.06692">
        <ele>20.9</ele>
        <time>2024-03-10T08:33:47Z</time>
      </trkpt>
      <trkpt lat="49.17616" lon="-0.06686">
        <ele>20.8</ele>
        <time>2024-03-10T08:33:48Z</time>
      </trkpt>
      <trkpt lat="49.17609" lon="-0.06679">
        <ele>20.8</ele>
        <time>2024-03-10T08:33:49Z</time>
      </trkpt>
      <trkpt lat="49.17603" lon="-0.06672">
        <ele>20.8</ele>
        <time>2024-03-10T08:33:50Z</time>
      </trkpt>
      <trkpt lat="49.17596" lon="-0.06666">
        <ele>20.8</ele>
        <time>2024-03-10T08:33:51Z</time>
      </trkpt>
      <trkpt lat="49.1759" lon="-0.0666">
        <ele>20.8</ele>
        <time>2024-03-10T08:33:52Z</time>
      </trkpt>
      <trkpt lat="49.17584" lon="-0.06653">
        <ele>20.9</ele>
        <time>2024-03-10T08:33:53Z</time>
      </trkpt>
      <trkpt lat="49.17578" lon="-0.06647">
        <ele>20.9</ele>
        <time>2024-03-10T08:33:54Z</time>
      </trkpt>
      <trkpt lat="49.17571" lon="-0.0664">
        <ele>20.9</ele>
        <time>2024-03-10T08:33:55Z</time>
      </trkpt>
      <trkpt lat="49.17565" lon="-0.06635">
        <ele>21</ele>
        <time>2024-03-10T08:33:56Z</time>
      </trkpt>
      <trkpt lat="49.17559" lon="-0.06629">
        <ele>21</ele>
        <time>2024-03-10T08:33:57Z</time>
      </trkpt>
      <trkpt lat="49.17552" lon="-0.06623">
        <ele>21</ele>
        <time>2024-03-10T08:33:58Z</time>
      </trkpt>
      <trkpt lat="49.17546" lon="-0.06618">
        <ele>21.1</ele>
        <time>2024-03-10T08:33:59Z</time>
      </trkpt>
      <trkpt lat="49.17539" lon="-0.06612">
        <ele>21.1</ele>
        <time>2024-03-10T08:34:00Z</time>
      </trkpt>
      <trkpt lat="49.17533" lon="-0.06606">
        <ele>21.2</ele>
        <time>2024-03-10T08:34:01Z</time>
      </trkpt>
      <trkpt lat="49.17526" lon="-0.066">
        <ele>21.2</ele>
        <time>2024-03-10T08:34:02Z</time>
      </trkpt>
      <trkpt lat="49.1752" lon="-0.06595">
        <ele>21.2</ele>
        <time>2024-03-10T08:34:03Z</time>
      </trkpt>
      <trkpt lat="49.17514" lon="-0.06589">
        <ele>21.3</ele>
        <time>2024-03-10T08:34:04Z</time>
      </trkpt>
      <trkpt lat="49.17508" lon="-0.06584">
        <ele>21.4</ele>
        <time>2024-03-10T08:34:05Z</time>
      </trkpt>
      <trkpt lat="49.17502" lon="-0.0658">
        <ele>21.5</ele>
        <time>2024-03-10T08:34:06Z</time>
      </trkpt>
      <trkpt lat="49.17496" lon="-0.06575">
        <ele>21.6</ele>
        <time>2024-03-10T08:34:07Z</time>
      </trkpt>
      <trkpt lat="49.1749" lon="-0.0657">
        <ele>21.7</ele>
        <time>2024-03-10T08:34:08Z</time>
      </trkpt>
      <trkpt lat="49.17484" lon="-0.06565">
        <ele>21.9</ele>
        <time>2024-03-10T08:34:09Z</time>
      </trkpt>
      <trkpt lat="49.17478" lon="-0.0656">
        <ele>22.1</ele>
        <time>2024-03-10T08:34:10Z</time>
      </trkpt>
      <trkpt lat="49.17472" lon="-0.06555">
        <ele>22.3</ele>
        <time>2024-03-10T08:34:11Z</time>
      </trkpt>
      <trkpt lat="49.17466" lon="-0.0655">
        <ele>22.4</ele>
        <time>2024-03-10T08:34:12Z</time>
      </trkpt>
      <trkpt lat="49.1746" lon="-0.06545">
        <ele>22.6</ele>
        <time>2024-03-10T08:34:13Z</time>
      </trkpt>
      <trkpt lat="49.17454" lon="-0.0654">
        <ele>22.7</ele>
        <time>2024-03-10T08:34:14Z</time>
      </trkpt>
      <trkpt lat="49.17447" lon="-0.06536">
        <ele>22.9</ele>
        <time>2024-03-10T08:34:15Z</time>
      </trkpt>
      <trkpt lat="49.17441" lon="-0.06532">
        <ele>23.1</ele>
        <time>2024-03-10T08:34:16Z</time>
      </trkpt>
      <trkpt lat="49.17435" lon="-0.06527">
        <ele>23.3</ele>
        <time>2024-03-10T08:34:17Z</time>
      </trkpt>
      <trkpt lat="49.17429" lon="-0.06521">
        <ele>23.4</ele>
        <time>2024-03-10T08:34:18Z</time>
      </trkpt>
      <trkpt lat="49.17424" lon="-0.06515">
        <ele>23.6</ele>
        <time>2024-03-10T08:34:19Z</time>
      </trkpt>
      <trkpt lat="49.17419" lon="-0.0651">
        <ele>23.7</ele>
        <time>2024-03-10T08:34:20Z</time>
      </trkpt>
      <trkpt lat="49.17413" lon="-0.06504">
        <ele>23.9</ele>
        <time>2024-03-10T08:34:21Z</time>
      </trkpt>
      <trkpt lat="49.17408" lon="-0.06497">
        <ele>24</ele>
        <time>2024-03-10T08:34:22Z</time>
      </trkpt>
      <trkpt lat="49.17403" lon="-0.0649">
        <ele>24.1</ele>
        <time>2024-03-10T08:34:23Z</time>
      </trkpt>
      <trkpt lat="49.17399" lon="-0.06483">
        <ele>24.2</ele>
        <time>2024-03-10T08:34:24Z</time>
      </trkpt>
      <trkpt lat="49.17395" lon="-0.06474">
        <ele>24.3</ele>
        <time>2024-03-10T08:34:25Z</time>
      </trkpt>
      <trkpt lat="49.17392" lon="-0.06466">
        <ele>24.4</ele>
        <time>2024-03-10T08:34:26Z</time>
      </trkpt>
      <trkpt lat="49.17388" lon="-0.06458">
        <ele>24.5</ele>
        <time>2024-03-10T08:34:27Z</time>
      </trkpt>
      <trkpt lat="49.17385" lon="-0.06449">
        <ele>24.5</ele>
        <time>2024-03-10T08:34:28Z</time>
      </trkpt>
      <trkpt lat="49.17381" lon="-0.06439">
        <ele>24.6</ele>
        <time>2024-03-10T08:34:29Z</time>
      </trkpt>
      <trkpt lat="49.17378" lon="-0.06429">
        <ele>24.6</ele>
        <time>2024-03-10T08:34:30Z</time>
      </trkpt>
      <trkpt lat="49.17375" lon="-0.06418">
        <ele>24.7</ele>
        <time>2024-03-10T08:34:31Z</time>
      </trkpt>
      <trkpt lat="49.17371" lon="-0.06406">
        <ele>24.8</ele>
        <time>2024-03-10T08:34:32Z</time>
      </trkpt>
      <trkpt lat="49.17367" lon="-0.06393">
        <ele>24.9</ele>
        <time>2024-03-10T08:34:33Z</time>
      </trkpt>
      <trkpt lat="49.17364" lon="-0.06382">
        <ele>24.9</ele>
        <time>2024-03-10T08:34:34Z</time>
      </trkpt>
      <trkpt lat="49.17361" lon="-0.0637">
        <ele>25</ele>
        <time>2024-03-10T08:34:35Z</time>
      </trkpt>
      <trkpt lat="49.17357" lon="-0.0636">
        <ele>25.1</ele>
        <time>2024-03-10T08:34:36Z</time>
      </trkpt>
      <trkpt lat="49.17353" lon="-0.06349">
        <ele>25.2</ele>
        <time>2024-03-10T08:34:37Z</time>
      </trkpt>
      <trkpt lat="49.1735" lon="-0.06338">
        <ele>25.2</ele>
        <time>2024-03-10T08:34:38Z</time>
      </trkpt>
      <trkpt lat="49.17347" lon="-0.06328">
        <ele>25.3</ele>
        <time>2024-03-10T08:34:39Z</time>
      </trkpt>
      <trkpt lat="49.17343" lon="-0.06317">
        <ele>25.3</ele>
        <time>2024-03-10T08:34:40Z</time>
      </trkpt>
      <trkpt lat="49.1734" lon="-0.06306">
        <ele>25.4</ele>
        <time>2024-03-10T08:34:41Z</time>
      </trkpt>
      <trkpt lat="49.17336" lon="-0.06295">
        <ele>25.5</ele>
        <time>2024-03-10T08:34:42Z</time>
      </trkpt>
      <trkpt lat="49.17333" lon="-0.06285">
        <ele>25.5</ele>
        <time>2024-03-10T08:34:43Z</time>
      </trkpt>
      <trkpt lat="49.17329" lon="-0.06274">
        <ele>25.5</ele>
        <time>2024-03-10T08:34:44Z</time>
      </trkpt>
      <trkpt lat="49.17326" lon="-0.06264">
        <ele>25.5</ele>
        <time>2024-03-10T08:34:45Z</time>
      </trkpt>
      <trkpt lat="49.17323" lon="-0.06254">
        <ele>25.6</ele>
        <time>2024-03-10T08:34:46Z</time>
      </trkpt>
      <trkpt lat="49.1732" lon="-0.06244">
        <ele>25.6</ele>
        <time>2024-03-10T08:34:47Z</time>
      </trkpt>
      <trkpt lat="49.17317" lon="-0.06233">
        <ele>25.6</ele>
        <time>2024-03-10T08:34:48Z</time>
      </trkpt>
      <trkpt lat="49.17314" lon="-0.06223">
        <ele>25.6</ele>
        <time>2024-03-10T08:34:49Z</time>
      </trkpt>
      <trkpt lat="49.17311" lon="-0.06212">
        <ele>25.7</ele>
        <time>2024-03-10T08:34:50Z</time>
      </trkpt>
      <trkpt lat="49.17307" lon="-0.06202">
        <ele>25.7</ele>
        <time>2024-03-10T08:34:51Z</time>
      </trkpt>
      <trkpt lat="49.17304" lon="-0.06192">
        <ele>25.7</ele>
        <time>2024-03-10T08:34:52Z</time>
      </trkpt>
      <trkpt lat="49.173" lon="-0.06181">
        <ele>25.8</ele>
        <time>2024-03-10T08:34:53Z</time>
      </trkpt>
      <trkpt lat="49.17296" lon="-0.06171">
        <ele>25.8</ele>
        <time>2024-03-10T08:34:54Z</time>
      </trkpt>
      <trkpt lat="49.17292" lon="-0.0616">
        <ele>25.8</ele>
        <time>2024-03-10T08:34:55Z</time>
      </trkpt>
      <trkpt lat="49.17289" lon="-0.06151">
        <ele>25.8</ele>
        <time>2024-03-10T08:34:56Z</time>
      </trkpt>
      <trkpt lat="49.17285" lon="-0.06141">
        <ele>25.8</ele>
        <time>2024-03-10T08:34:57Z</time>
      </trkpt>
      <trkpt lat="49.17281" lon="-0.06131">
        <ele>25.8</ele>
        <time>2024-03-10T08:34:58Z</time>
      </trkpt>
      <trkpt lat="49.17277" lon="-0.06121">
        <ele>25.8</ele>
        <time>2024-03-10T08:34:59Z</time>
      </trkpt>
      <trkpt lat="49.17272" lon="-0.06112">
        <ele>25.7</ele>
        <time>2024-03-10T08:35:00Z</time>
      </trkpt>
      <trkpt lat="49.17268" lon="-0.06102">
        <ele>25.7</ele>
        <time>2024-03-10T08:35:01Z</time>
      </trkpt>
      <trkpt lat="49.17263" lon="-0.06092">
        <ele>25.7</ele>
        <time>2024-03-10T08:35:02Z</time>
      </trkpt>
      <trkpt lat="49.17258" lon="-0.06083">
        <ele>25.6</ele>
        <time>2024-03-10T08:35:03Z</time>
      </trkpt>
      <trkpt lat="49.17254" lon="-0.06074">
        <ele>25.5</ele>
        <time>2024-03-10T08:35:04Z</time>
      </trkpt>
      <trkpt lat="49.1725" lon="-0.06065">
        <ele>25.5</ele>
        <time>2024-03-10T08:35:05Z</time>
      </trkpt>
      <trkpt lat="49.17245" lon="-0.06056">
        <ele>25.4</ele>
        <time>2024-03-10T08:35:06Z</time>
      </trkpt>
      <trkpt lat="49.17241" lon="-0.06047">
        <ele>25.2</ele>
        <time>2024-03-10T08:35:07Z</time>
      </trkpt>
      <trkpt lat="49.17237" lon="-0.06037">
        <ele>25.1</ele>
        <time>2024-03-10T08:35:08Z</time>
      </trkpt>
      <trkpt lat="49.17232" lon="-0.06027">
        <ele>25</ele>
        <time>2024-03-10T08:35:09Z</time>
      </trkpt>
      <trkpt lat="49.17227" lon="-0.06018">
        <ele>24.8</ele>
        <time>2024-03-10T08:35:10Z</time>
      </trkpt>
      <trkpt lat="49.17223" lon="-0.06008">
        <ele>24.7</ele>
        <time>2024-03-10T08:35:11Z</time>
      </trkpt>
      <trkpt lat="49.17218" lon="-0.05998">
        <ele>24.6</ele>
        <time>2024-03-10T08:35:12Z</time>
      </trkpt>
      <trkpt lat="49.17214" lon="-0.05988">
        <ele>24.5</ele>
        <time>2024-03-10T08:35:13Z</time>
      </trkpt>
      <trkpt lat="49.17209" lon="-0.05977">
        <ele>24.4</ele>
        <time>2024-03-10T08:35:14Z</time>
      </trkpt>
      <trkpt lat="49.17204" lon="-0.05967">
        <ele>24.3</ele>
        <time>2024-03-10T08:35:15Z</time>
      </trkpt>
      <trkpt lat="49.17199" lon="-0.05958">
        <ele>24.2</ele>
        <time>2024-03-10T08:35:16Z</time>
      </trkpt>
      <trkpt lat="49.17195" lon="-0.05948">
        <ele>24</ele>
        <time>2024-03-10T08:35:17Z</time>
      </trkpt>
      <trkpt lat="49.1719" lon="-0.05938">
        <ele>23.9</ele>
        <time>2024-03-10T08:35:18Z</time>
      </trkpt>
      <trkpt lat="49.17185" lon="-0.05928">
        <ele>23.7</ele>
        <time>2024-03-10T08:35:19Z</time>
      </trkpt>
      <trkpt lat="49.1718" lon="-0.05918">
        <ele>23.6</ele>
        <time>2024-03-10T08:35:20Z</time>
      </trkpt>
      <trkpt lat="49.17175" lon="-0.05908">
        <ele>23.5</ele>
        <time>2024-03-10T08:35:21Z</time>
      </trkpt>
      <trkpt lat="49.17169" lon="-0.05898">
        <ele>23.4</ele>
        <time>2024-03-10T08:35:22Z</time>
      </trkpt>
      <trkpt lat="49.17164" lon="-0.05888">
        <ele>23.3</ele>
        <time>2024-03-10T08:35:23Z</time>
      </trkpt>
      <trkpt lat="49.17159" lon="-0.05879">
        <ele>23.2</ele>
        <time>2024-03-10T08:35:24Z</time>
      </trkpt>
      <trkpt lat="49.17153" lon="-0.05871">
        <ele>23.2</ele>
        <time>2024-03-10T08:35:25Z</time>
      </trkpt>
      <trkpt lat="49.17147" lon="-0.05863">
        <ele>23.1</ele>
        <time>2024-03-10T08:35:26Z</time>
      </trkpt>
      <trkpt lat="49.17141" lon="-0.05855">
        <ele>23.1</ele>
        <time>2024-03-10T08:35:27Z</time>
      </trkpt>
      <trkpt lat="49.17135" lon="-0.05848">
        <ele>23.1</ele>
        <time>2024-03-10T08:35:28Z</time>
      </trkpt>
      <trkpt lat="49.17128" lon="-0.05842">
        <ele>23.1</ele>
        <time>2024-03-10T08:35:29Z</time>
      </trkpt>
      <trkpt lat="49.17121" lon="-0.05836">
        <ele>23.1</ele>
        <time>2024-03-10T08:35:30Z</time>
      </trkpt>
      <trkpt lat="49.17115" lon="-0.0583">
        <ele>23.2</ele>
        <time>2024-03-10T08:35:31Z</time>
      </trkpt>
      <trkpt lat="49.17108" lon="-0.05823">
        <ele>23.2</ele>
        <time>2024-03-10T08:35:32Z</time>
      </trkpt>
      <trkpt lat="49.17102" lon="-0.05817">
        <ele>23.3</ele>
        <time>2024-03-10T08:35:33Z</time>
      </trkpt>
      <trkpt lat="49.17095" lon="-0.0581">
        <ele>23.3</ele>
        <time>2024-03-10T08:35:34Z</time>
      </trkpt>
      <trkpt lat="49.17088" lon="-0.05804">
        <ele>23.4</ele>
        <time>2024-03-10T08:35:35Z</time>
      </trkpt>
      <trkpt lat="49.17082" lon="-0.05797">
        <ele>23.5</ele>
        <time>2024-03-10T08:35:36Z</time>
      </trkpt>
      <trkpt lat="49.17075" lon="-0.05791">
        <ele>23.6</ele>
        <time>2024-03-10T08:35:37Z</time>
      </trkpt>
      <trkpt lat="49.17069" lon="-0.05784">
        <ele>23.8</ele>
        <time>2024-03-10T08:35:38Z</time>
      </trkpt>
      <trkpt lat="49.17062" lon="-0.05778">
        <ele>24</ele>
        <time>2024-03-10T08:35:39Z</time>
      </trkpt>
      <trkpt lat="49.17056" lon="-0.05772">
        <ele>24.1</ele>
        <time>2024-03-10T08:35:40Z</time>
      </trkpt>
      <trkpt lat="49.1705" lon="-0.05766">
        <ele>24.3</ele>
        <time>2024-03-10T08:35:41Z</time>
      </trkpt>
      <trkpt lat="49.17044" lon="-0.0576">
        <ele>24.5</ele>
        <time>2024-03-10T08:35:42Z</time>
      </trkpt>
      <trkpt lat="49.17038" lon="-0.05755">
        <ele>24.7</ele>
        <time>2024-03-10T08:35:43Z</time>
      </trkpt>
      <trkpt lat="49.17032" lon="-0.05749">
        <ele>24.8</ele>
        <time>2024-03-10T08:35:44Z</time>
      </trkpt>
      <trkpt lat="49.17026" lon="-0.05744">
        <ele>25</ele>
        <time>2024-03-10T08:35:45Z</time>
      </trkpt>
      <trkpt lat="49.1702" lon="-0.05738">
        <ele>25.1</ele>
        <time>2024-03-10T08:35:46Z</time>
      </trkpt>
      <trkpt lat="49.17014" lon="-0.05733">
        <ele>25.3</ele>
        <time>2024-03-10T08:35:47Z</time>
      </trkpt>
      <trkpt lat="49.17008" lon="-0.05727">
        <ele>25.5</ele>
        <time>2024-03-10T08:35:48Z</time>
      </trkpt>
      <trkpt lat="49.17002" lon="-0.05722">
        <ele>25.7</ele>
        <time>2024-03-10T08:35:49Z</time>
      </trkpt>
      <trkpt lat="49.16997" lon="-0.05716">
        <ele>25.8</ele>
        <time>2024-03-10T08:35:50Z</time>
      </trkpt>
      <trkpt lat="49.16991" lon="-0.05711">
        <ele>26</ele>
        <time>2024-03-10T08:35:51Z</time>
      </trkpt>
      <trkpt lat="49.16985" lon="-0.05706">
        <ele>26.2</ele>
        <time>2024-03-10T08:35:52Z</time>
      </trkpt>
      <trkpt lat="49.16979" lon="-0.05701">
        <ele>26.3</ele>
        <time>2024-03-10T08:35:53Z</time>
      </trkpt>
      <trkpt lat="49.16972" lon="-0.05695">
        <ele>26.5</ele>
        <time>2024-03-10T08:35:54Z</time>
      </trkpt>
      <trkpt lat="49.16967" lon="-0.0569">
        <ele>26.8</ele>
        <time>2024-03-10T08:35:55Z</time>
      </trkpt>
      <trkpt lat="49.16961" lon="-0.05684">
        <ele>27</ele>
        <time>2024-03-10T08:35:56Z</time>
      </trkpt>
      <trkpt lat="49.16956" lon="-0.05679">
        <ele>27.2</ele>
        <time>2024-03-10T08:35:57Z</time>
      </trkpt>
      <trkpt lat="49.1695" lon="-0.05673">
        <ele>27.5</ele>
        <time>2024-03-10T08:35:58Z</time>
      </trkpt>
      <trkpt lat="49.16945" lon="-0.05667">
        <ele>27.7</ele>
        <time>2024-03-10T08:35:59Z</time>
      </trkpt>
      <trkpt lat="49.16941" lon="-0.05661">
        <ele>27.9</ele>
        <time>2024-03-10T08:36:00Z</time>
      </trkpt>
      <trkpt lat="49.16936" lon="-0.05655">
        <ele>28.1</ele>
        <time>2024-03-10T08:36:01Z</time>
      </trkpt>
      <trkpt lat="49.16933" lon="-0.05648">
        <ele>28.3</ele>
        <time>2024-03-10T08:36:02Z</time>
      </trkpt>
      <trkpt lat="49.16929" lon="-0.05641">
        <ele>28.5</ele>
        <time>2024-03-10T08:36:03Z</time>
      </trkpt>
      <trkpt lat="49.16926" lon="-0.05633">
        <ele>28.7</ele>
        <time>2024-03-10T08:36:04Z</time>
      </trkpt>
      <trkpt lat="49.16924" lon="-0.05625">
        <ele>28.9</ele>
        <time>2024-03-10T08:36:05Z</time>
      </trkpt>
      <trkpt lat="49.16923" lon="-0.05616">
        <ele>29</ele>
        <time>2024-03-10T08:36:06Z</time>
      </trkpt>
      <trkpt lat="49.16922" lon="-0.05607">
        <ele>29.1</ele>
        <time>2024-03-10T08:36:07Z</time>
      </trkpt>
      <trkpt lat="49.16921" lon="-0.05598">
        <ele>29.2</ele>
        <time>2024-03-10T08:36:08Z</time>
      </trkpt>
      <trkpt lat="49.1692" lon="-0.0559">
        <ele>29.3</ele>
        <time>2024-03-10T08:36:09Z</time>
      </trkpt>
      <trkpt lat="49.16917" lon="-0.05584">
        <ele>29.4</ele>
        <time>2024-03-10T08:36:10Z</time>
      </trkpt>
      <trkpt lat="49.16912" lon="-0.05582">
        <ele>29.4</ele>
        <time>2024-03-10T08:36:11Z</time>
      </trkpt>
      <trkpt lat="49.16906" lon="-0.05582">
        <ele>29.6</ele>
        <time>2024-03-10T08:36:12Z</time>
      </trkpt>
      <trkpt lat="49.16901" lon="-0.05585">
        <ele>29.6</ele>
        <time>2024-03-10T08:36:13Z</time>
      </trkpt>
      <trkpt lat="49.16896" lon="-0.05587">
        <ele>29.7</ele>
        <time>2024-03-10T08:36:14Z</time>
      </trkpt>
      <trkpt lat="49.1689" lon="-0.0559">
        <ele>29.8</ele>
        <time>2024-03-10T08:36:15Z</time>
      </trkpt>
      <trkpt lat="49.16885" lon="-0.05593">
        <ele>29.8</ele>
        <time>2024-03-10T08:36:16Z</time>
      </trkpt>
      <trkpt lat="49.1688" lon="-0.05596">
        <ele>29.9</ele>
        <time>2024-03-10T08:36:17Z</time>
      </trkpt>
      <trkpt lat="49.16875" lon="-0.05598">
        <ele>29.9</ele>
        <time>2024-03-10T08:36:18Z</time>
      </trkpt>
      <trkpt lat="49.1687" lon="-0.05601">
        <ele>29.9</ele>
        <time>2024-03-10T08:36:19Z</time>
      </trkpt>
      <trkpt lat="49.16864" lon="-0.05604">
        <ele>29.9</ele>
        <time>2024-03-10T08:36:20Z</time>
      </trkpt>
      <trkpt lat="49.16858" lon="-0.05607">
        <ele>29.9</ele>
        <time>2024-03-10T08:36:21Z</time>
      </trkpt>
      <trkpt lat="49.16853" lon="-0.05609">
        <ele>29.9</ele>
        <time>2024-03-10T08:36:22Z</time>
      </trkpt>
      <trkpt lat="49.16847" lon="-0.05612">
        <ele>29.9</ele>
        <time>2024-03-10T08:36:23Z</time>
      </trkpt>
      <trkpt lat="49.16841" lon="-0.05615">
        <ele>29.9</ele>
        <time>2024-03-10T08:36:24Z</time>
      </trkpt>
      <trkpt lat="49.16836" lon="-0.05617">
        <ele>29.9</ele>
        <time>2024-03-10T08:36:25Z</time>
      </trkpt>
      <trkpt lat="49.1683" lon="-0.0562">
        <ele>29.9</ele>
        <time>2024-03-10T08:36:26Z</time>
      </trkpt>
      <trkpt lat="49.16824" lon="-0.05622">
        <ele>29.9</ele>
        <time>2024-03-10T08:36:27Z</time>
      </trkpt>
      <trkpt lat="49.16818" lon="-0.05625">
        <ele>29.9</ele>
        <time>2024-03-10T08:36:28Z</time>
      </trkpt>
      <trkpt lat="49.16812" lon="-0.05627">
        <ele>29.8</ele>
        <time>2024-03-10T08:36:29Z</time>
      </trkpt>
      <trkpt lat="49.16806" lon="-0.05629">
        <ele>29.8</ele>
        <time>2024-03-10T08:36:30Z</time>
      </trkpt>
      <trkpt lat="49.168" lon="-0.05631">
        <ele>29.6</ele>
        <time>2024-03-10T08:36:31Z</time>
      </trkpt>
      <trkpt lat="49.16794" lon="-0.05634">
        <ele>29.5</ele>
        <time>2024-03-10T08:36:32Z</time>
      </trkpt>
      <trkpt lat="49.16788" lon="-0.05637">
        <ele>29.4</ele>
        <time>2024-03-10T08:36:33Z</time>
      </trkpt>
      <trkpt lat="49.16782" lon="-0.0564">
        <ele>29.3</ele>
        <time>2024-03-10T08:36:34Z</time>
      </trkpt>
      <trkpt lat="49.16776" lon="-0.05643">
        <ele>29.2</ele>
        <time>2024-03-10T08:36:35Z</time>
      </trkpt>
      <trkpt lat="49.1677" lon="-0.05646">
        <ele>29.1</ele>
        <time>2024-03-10T08:36:36Z</time>
      </trkpt>
      <trkpt lat="49.16764" lon="-0.05649">
        <ele>28.9</ele>
        <time>2024-03-10T08:36:37Z</time>
      </trkpt>
      <trkpt lat="49.16757" lon="-0.05653">
        <ele>28.8</ele>
        <time>2024-03-10T08:36:38Z</time>
      </trkpt>
      <trkpt lat="49.16751" lon="-0.05655">
        <ele>28.7</ele>
        <time>2024-03-10T08:36:39Z</time>
      </trkpt>
      <trkpt lat="49.16745" lon="-0.05658">
        <ele>28.5</ele>
        <time>2024-03-10T08:36:40Z</time>
      </trkpt>
      <trkpt lat="49.16739" lon="-0.05661">
        <ele>28.4</ele>
        <time>2024-03-10T08:36:41Z</time>
      </trkpt>
      <trkpt lat="49.16732" lon="-0.05663">
        <ele>28.2</ele>
        <time>2024-03-10T08:36:42Z</time>
      </trkpt>
      <trkpt lat="49.16725" lon="-0.05667">
        <ele>28</ele>
        <time>2024-03-10T08:36:43Z</time>
      </trkpt>
      <trkpt lat="49.16717" lon="-0.0567">
        <ele>27.7</ele>
        <time>2024-03-10T08:36:44Z</time>
      </trkpt>
      <trkpt lat="49.1671" lon="-0.05673">
        <ele>27.5</ele>
        <time>2024-03-10T08:36:45Z</time>
      </trkpt>
      <trkpt lat="49.16702" lon="-0.05677">
        <ele>27.3</ele>
        <time>2024-03-10T08:36:46Z</time>
      </trkpt>
      <trkpt lat="49.16694" lon="-0.0568">
        <ele>27.1</ele>
        <time>2024-03-10T08:36:47Z</time>
      </trkpt>
      <trkpt lat="49.16686" lon="-0.05684">
        <ele>26.8</ele>
        <time>2024-03-10T08:36:48Z</time>
      </trkpt>
      <trkpt lat="49.16678" lon="-0.05687">
        <ele>26.6</ele>
        <time>2024-03-10T08:36:49Z</time>
      </trkpt>
      <trkpt lat="49.1667" lon="-0.0569">
        <ele>26.4</ele>
        <time>2024-03-10T08:36:50Z</time>
      </trkpt>
      <trkpt lat="49.16662" lon="-0.05693">
        <ele>26.1</ele>
        <time>2024-03-10T08:36:51Z</time>
      </trkpt>
      <trkpt lat="49.16654" lon="-0.05697">
        <ele>25.9</ele>
        <time>2024-03-10T08:36:52Z</time>
      </trkpt>
      <trkpt lat="49.16646" lon="-0.057">
        <ele>25.6</ele>
        <time>2024-03-10T08:36:53Z</time>
      </trkpt>
      <trkpt lat="49.16637" lon="-0.05703">
        <ele>25.3</ele>
        <time>2024-03-10T08:36:54Z</time>
      </trkpt>
      <trkpt lat="49.16629" lon="-0.05707">
        <ele>24.9</ele>
        <time>2024-03-10T08:36:55Z</time>
      </trkpt>
      <trkpt lat="49.1662" lon="-0.0571">
        <ele>24.6</ele>
        <time>2024-03-10T08:36:56Z</time>
      </trkpt>
      <trkpt lat="49.16612" lon="-0.05714">
        <ele>24.3</ele>
        <time>2024-03-10T08:36:57Z</time>
      </trkpt>
      <trkpt lat="49.16603" lon="-0.05717">
        <ele>24</ele>
        <time>2024-03-10T08:36:58Z</time>
      </trkpt>
      <trkpt lat="49.16594" lon="-0.05721">
        <ele>23.7</ele>
        <time>2024-03-10T08:36:59Z</time>
      </trkpt>
      <trkpt lat="49.16585" lon="-0.05723">
        <ele>23.4</ele>
        <time>2024-03-10T08:37:00Z</time>
      </trkpt>
      <trkpt lat="49.16576" lon="-0.05727">
        <ele>23.3</ele>
        <time>2024-03-10T08:37:01Z</time>
      </trkpt>
      <trkpt lat="49.16567" lon="-0.05731">
        <ele>23.2</ele>
        <time>2024-03-10T08:37:02Z</time>
      </trkpt>
      <trkpt lat="49.16557" lon="-0.05735">
        <ele>23</ele>
        <time>2024-03-10T08:37:03Z</time>
      </trkpt>
      <trkpt lat="49.16548" lon="-0.05739">
        <ele>22.7</ele>
        <time>2024-03-10T08:37:04Z</time>
      </trkpt>
      <trkpt lat="49.16539" lon="-0.05743">
        <ele>22.5</ele>
        <time>2024-03-10T08:37:05Z</time>
      </trkpt>
      <trkpt lat="49.1653" lon="-0.05747">
        <ele>22.2</ele>
        <time>2024-03-10T08:37:06Z</time>
      </trkpt>
      <trkpt lat="49.16521" lon="-0.0575">
        <ele>22</ele>
        <time>2024-03-10T08:37:07Z</time>
      </trkpt>
      <trkpt lat="49.16512" lon="-0.05754">
        <ele>21.8</ele>
        <time>2024-03-10T08:37:08Z</time>
      </trkpt>
      <trkpt lat="49.16504" lon="-0.05757">
        <ele>21.7</ele>
        <time>2024-03-10T08:37:09Z</time>
      </trkpt>
      <trkpt lat="49.16495" lon="-0.0576">
        <ele>21.5</ele>
        <time>2024-03-10T08:37:10Z</time>
      </trkpt>
      <trkpt lat="49.16487" lon="-0.05764">
        <ele>21.4</ele>
        <time>2024-03-10T08:37:11Z</time>
      </trkpt>
      <trkpt lat="49.16479" lon="-0.05767">
        <ele>21.3</ele>
        <time>2024-03-10T08:37:12Z</time>
      </trkpt>
      <trkpt lat="49.16471" lon="-0.05771">
        <ele>21.2</ele>
        <time>2024-03-10T08:37:13Z</time>
      </trkpt>
      <trkpt lat="49.16463" lon="-0.05774">
        <ele>21.2</ele>
        <time>2024-03-10T08:37:14Z</time>
      </trkpt>
      <trkpt lat="49.16455" lon="-0.05777">
        <ele>21.1</ele>
        <time>2024-03-10T08:37:15Z</time>
      </trkpt>
      <trkpt lat="49.16447" lon="-0.0578">
        <ele>21.1</ele>
        <time>2024-03-10T08:37:16Z</time>
      </trkpt>
      <trkpt lat="49.1644" lon="-0.05783">
        <ele>21</ele>
        <time>2024-03-10T08:37:17Z</time>
      </trkpt>
      <trkpt lat="49.16432" lon="-0.05787">
        <ele>21</ele>
        <time>2024-03-10T08:37:18Z</time>
      </trkpt>
      <trkpt lat="49.16424" lon="-0.0579">
        <ele>20.9</ele>
        <time>2024-03-10T08:37:19Z</time>
      </trkpt>
      <trkpt lat="49.16416" lon="-0.05793">
        <ele>20.9</ele>
        <time>2024-03-10T08:37:20Z</time>
      </trkpt>
      <trkpt lat="49.16409" lon="-0.05796">
        <ele>20.8</ele>
        <time>2024-03-10T08:37:21Z</time>
      </trkpt>
      <trkpt lat="49.16401" lon="-0.058">
        <ele>20.7</ele>
        <time>2024-03-10T08:37:22Z</time>
      </trkpt>
      <trkpt lat="49.16394" lon="-0.05803">
        <ele>20.7</ele>
        <time>2024-03-10T08:37:23Z</time>
      </trkpt>
      <trkpt lat="49.16387" lon="-0.05806">
        <ele>20.6</ele>
        <time>2024-03-10T08:37:24Z</time>
      </trkpt>
      <trkpt lat="49.16379" lon="-0.0581">
        <ele>20.5</ele>
        <time>2024-03-10T08:37:25Z</time>
      </trkpt>
      <trkpt lat="49.16371" lon="-0.05813">
        <ele>20.4</ele>
        <time>2024-03-10T08:37:26Z</time>
      </trkpt>
      <trkpt lat="49.16363" lon="-0.05816">
        <ele>20.2</ele>
        <time>2024-03-10T08:37:27Z</time>
      </trkpt>
      <trkpt lat="49.16355" lon="-0.0582">
        <ele>20</ele>
        <time>2024-03-10T08:37:28Z</time>
      </trkpt>
      <trkpt lat="49.16347" lon="-0.05823">
        <ele>19.9</ele>
        <time>2024-03-10T08:37:29Z</time>
      </trkpt>
      <trkpt lat="49.16339" lon="-0.05826">
        <ele>19.7</ele>
        <time>2024-03-10T08:37:30Z</time>
      </trkpt>
      <trkpt lat="49.1633" lon="-0.0583">
        <ele>19.5</ele>
        <time>2024-03-10T08:37:31Z</time>
      </trkpt>
      <trkpt lat="49.16322" lon="-0.05833">
        <ele>19.3</ele>
        <time>2024-03-10T08:37:32Z</time>
      </trkpt>
      <trkpt lat="49.16314" lon="-0.05836">
        <ele>19.1</ele>
        <time>2024-03-10T08:37:33Z</time>
      </trkpt>
      <trkpt lat="49.16306" lon="-0.05839">
        <ele>18.9</ele>
        <time>2024-03-10T08:37:34Z</time>
      </trkpt>
      <trkpt lat="49.16298" lon="-0.05843">
        <ele>18.7</ele>
        <time>2024-03-10T08:37:35Z</time>
      </trkpt>
      <trkpt lat="49.1629" lon="-0.05846">
        <ele>18.5</ele>
        <time>2024-03-10T08:37:36Z</time>
      </trkpt>
      <trkpt lat="49.16282" lon="-0.0585">
        <ele>18.3</ele>
        <time>2024-03-10T08:37:37Z</time>
      </trkpt>
      <trkpt lat="49.16274" lon="-0.05853">
        <ele>18.1</ele>
        <time>2024-03-10T08:37:38Z</time>
      </trkpt>
      <trkpt lat="49.16266" lon="-0.05857">
        <ele>17.8</ele>
        <time>2024-03-10T08:37:39Z</time>
      </trkpt>
      <trkpt lat="49.16258" lon="-0.0586">
        <ele>17.6</ele>
        <time>2024-03-10T08:37:40Z</time>
      </trkpt>
      <trkpt lat="49.1625" lon="-0.05864">
        <ele>17.4</ele>
        <time>2024-03-10T08:37:41Z</time>
      </trkpt>
      <trkpt lat="49.16242" lon="-0.05867">
        <ele>17.2</ele>
        <time>2024-03-10T08:37:42Z</time>
      </trkpt>
      <trkpt lat="49.16234" lon="-0.0587">
        <ele>17</ele>
        <time>2024-03-10T08:37:43Z</time>
      </trkpt>
      <trkpt lat="49.16226" lon="-0.05873">
        <ele>16.7</ele>
        <time>2024-03-10T08:37:44Z</time>
      </trkpt>
      <trkpt lat="49.16218" lon="-0.05876">
        <ele>16.5</ele>
        <time>2024-03-10T08:37:45Z</time>
      </trkpt>
      <trkpt lat="49.1621" lon="-0.05879">
        <ele>16.2</ele>
        <time>2024-03-10T08:37:46Z</time>
      </trkpt>
      <trkpt lat="49.16201" lon="-0.05883">
        <ele>16</ele>
        <time>2024-03-10T08:37:47Z</time>
      </trkpt>
      <trkpt lat="49.16193" lon="-0.05886">
        <ele>15.7</ele>
        <time>2024-03-10T08:37:48Z</time>
      </trkpt>
      <trkpt lat="49.16185" lon="-0.05889">
        <ele>15.3</ele>
        <time>2024-03-10T08:37:49Z</time>
      </trkpt>
      <trkpt lat="49.16176" lon="-0.05893">
        <ele>15</ele>
        <time>2024-03-10T08:37:50Z</time>
      </trkpt>
      <trkpt lat="49.16168" lon="-0.05896">
        <ele>14.7</ele>
        <time>2024-03-10T08:37:51Z</time>
      </trkpt>
      <trkpt lat="49.16159" lon="-0.05899">
        <ele>14.4</ele>
        <time>2024-03-10T08:37:52Z</time>
      </trkpt>
      <trkpt lat="49.16151" lon="-0.05903">
        <ele>14.2</ele>
        <time>2024-03-10T08:37:53Z</time>
      </trkpt>
      <trkpt lat="49.16143" lon="-0.05906">
        <ele>13.9</ele>
        <time>2024-03-10T08:37:54Z</time>
      </trkpt>
      <trkpt lat="49.16135" lon="-0.0591">
        <ele>13.5</ele>
        <time>2024-03-10T08:37:55Z</time>
      </trkpt>
      <trkpt lat="49.16127" lon="-0.05914">
        <ele>13.2</ele>
        <time>2024-03-10T08:37:56Z</time>
      </trkpt>
      <trkpt lat="49.16118" lon="-0.05918">
        <ele>12.9</ele>
        <time>2024-03-10T08:37:57Z</time>
      </trkpt>
      <trkpt lat="49.1611" lon="-0.05922">
        <ele>12.6</ele>
        <time>2024-03-10T08:37:58Z</time>
      </trkpt>
      <trkpt lat="49.16101" lon="-0.05925">
        <ele>12.2</ele>
        <time>2024-03-10T08:37:59Z</time>
      </trkpt>
      <trkpt lat="49.16093" lon="-0.05929">
        <ele>11.9</ele>
        <time>2024-03-10T08:38:00Z</time>
      </trkpt>
      <trkpt lat="49.16084" lon="-0.05933">
        <ele>11.5</ele>
        <time>2024-03-10T08:38:01Z</time>
      </trkpt>
      <trkpt lat="49.16075" lon="-0.05938">
        <ele>11.2</ele>
        <time>2024-03-10T08:38:02Z</time>
      </trkpt>
      <trkpt lat="49.16066" lon="-0.05941">
        <ele>10.8</ele>
        <time>2024-03-10T08:38:03Z</time>
      </trkpt>
      <trkpt lat="49.16057" lon="-0.05945">
        <ele>10.5</ele>
        <time>2024-03-10T08:38:04Z</time>
      </trkpt>
      <trkpt lat="49.16048" lon="-0.05949">
        <ele>10.1</ele>
        <time>2024-03-10T08:38:05Z</time>
      </trkpt>
      <trkpt lat="49.16039" lon="-0.05952">
        <ele>9.8</ele>
        <time>2024-03-10T08:38:06Z</time>
      </trkpt>
      <trkpt lat="49.1603" lon="-0.05956">
        <ele>9.5</ele>
        <time>2024-03-10T08:38:07Z</time>
      </trkpt>
      <trkpt lat="49.16021" lon="-0.05959">
        <ele>9.2</ele>
        <time>2024-03-10T08:38:08Z</time>
      </trkpt>
      <trkpt lat="49.16012" lon="-0.05963">
        <ele>8.9</ele>
        <time>2024-03-10T08:38:09Z</time>
      </trkpt>
      <trkpt lat="49.16003" lon="-0.05967">
        <ele>8.7</ele>
        <time>2024-03-10T08:38:10Z</time>
      </trkpt>
      <trkpt lat="49.15995" lon="-0.05971">
        <ele>8.5</ele>
        <time>2024-03-10T08:38:11Z</time>
      </trkpt>
      <trkpt lat="49.15987" lon="-0.05974">
        <ele>8.2</ele>
        <time>2024-03-10T08:38:12Z</time>
      </trkpt>
      <trkpt lat="49.15978" lon="-0.05977">
        <ele>8</ele>
        <time>2024-03-10T08:38:13Z</time>
      </trkpt>
      <trkpt lat="49.15969" lon="-0.0598">
        <ele>7.8</ele>
        <time>2024-03-10T08:38:14Z</time>
      </trkpt>
      <trkpt lat="49.15961" lon="-0.05984">
        <ele>7.6</ele>
        <time>2024-03-10T08:38:15Z</time>
      </trkpt>
      <trkpt lat="49.15952" lon="-0.05988">
        <ele>7.5</ele>
        <time>2024-03-10T08:38:16Z</time>
      </trkpt>
      <trkpt lat="49.15943" lon="-0.05991">
        <ele>7.4</ele>
        <time>2024-03-10T08:38:17Z</time>
      </trkpt>
      <trkpt lat="49.15935" lon="-0.05995">
        <ele>7.2</ele>
        <time>2024-03-10T08:38:18Z</time>
      </trkpt>
      <trkpt lat="49.15926" lon="-0.05999">
        <ele>7.1</ele>
        <time>2024-03-10T08:38:19Z</time>
      </trkpt>
      <trkpt lat="49.15918" lon="-0.06003">
        <ele>7</ele>
        <time>2024-03-10T08:38:20Z</time>
      </trkpt>
      <trkpt lat="49.15909" lon="-0.06006">
        <ele>6.9</ele>
        <time>2024-03-10T08:38:21Z</time>
      </trkpt>
      <trkpt lat="49.15901" lon="-0.06009">
        <ele>6.8</ele>
        <time>2024-03-10T08:38:22Z</time>
      </trkpt>
      <trkpt lat="49.15892" lon="-0.06013">
        <ele>6.7</ele>
        <time>2024-03-10T08:38:23Z</time>
      </trkpt>
      <trkpt lat="49.15884" lon="-0.06017">
        <ele>6.7</ele>
        <time>2024-03-10T08:38:24Z</time>
      </trkpt>
      <trkpt lat="49.15876" lon="-0.0602">
        <ele>6.7</ele>
        <time>2024-03-10T08:38:25Z</time>
      </trkpt>
      <trkpt lat="49.15868" lon="-0.06024">
        <ele>6.7</ele>
        <time>2024-03-10T08:38:26Z</time>
      </trkpt>
      <trkpt lat="49.1586" lon="-0.06027">
        <ele>6.7</ele>
        <time>2024-03-10T08:38:27Z</time>
      </trkpt>
      <trkpt lat="49.15853" lon="-0.06031">
        <ele>6.8</ele>
        <time>2024-03-10T08:38:28Z</time>
      </trkpt>
      <trkpt lat="49.15845" lon="-0.06034">
        <ele>6.8</ele>
        <time>2024-03-10T08:38:29Z</time>
      </trkpt>
      <trkpt lat="49.15837" lon="-0.06037">
        <ele>6.9</ele>
        <time>2024-03-10T08:38:30Z</time>
      </trkpt>
      <trkpt lat="49.1583" lon="-0.0604">
        <ele>6.9</ele>
        <time>2024-03-10T08:38:31Z</time>
      </trkpt>
      <trkpt lat="49.15822" lon="-0.06043">
        <ele>6.9</ele>
        <time>2024-03-10T08:38:32Z</time>
      </trkpt>
      <trkpt lat="49.15814" lon="-0.06047">
        <ele>6.8</ele>
        <time>2024-03-10T08:38:33Z</time>
      </trkpt>
      <trkpt lat="49.15806" lon="-0.06051">
        <ele>6.6</ele>
        <time>2024-03-10T08:38:34Z</time>
      </trkpt>
      <trkpt lat="49.15798" lon="-0.06055">
        <ele>6.5</ele>
        <time>2024-03-10T08:38:35Z</time>
      </trkpt>
      <trkpt lat="49.1579" lon="-0.06058">
        <ele>6.4</ele>
        <time>2024-03-10T08:38:36Z</time>
      </trkpt>
      <trkpt lat="49.15782" lon="-0.06061">
        <ele>6.3</ele>
        <time>2024-03-10T08:38:37Z</time>
      </trkpt>
      <trkpt lat="49.15774" lon="-0.06064">
        <ele>6.2</ele>
        <time>2024-03-10T08:38:38Z</time>
      </trkpt>
      <trkpt lat="49.15767" lon="-0.06067">
        <ele>6.1</ele>
        <time>2024-03-10T08:38:39Z</time>
      </trkpt>
      <trkpt lat="49.15759" lon="-0.0607">
        <ele>6</ele>
        <time>2024-03-10T08:38:40Z</time>
      </trkpt>
      <trkpt lat="49.15752" lon="-0.06073">
        <ele>5.9</ele>
        <time>2024-03-10T08:38:41Z</time>
      </trkpt>
      <trkpt lat="49.15744" lon="-0.06077">
        <ele>5.9</ele>
        <time>2024-03-10T08:38:42Z</time>
      </trkpt>
      <trkpt lat="49.15737" lon="-0.06081">
        <ele>5.8</ele>
        <time>2024-03-10T08:38:43Z</time>
      </trkpt>
      <trkpt lat="49.15729" lon="-0.06084">
        <ele>5.7</ele>
        <time>2024-03-10T08:38:44Z</time>
      </trkpt>
      <trkpt lat="49.15721" lon="-0.06087">
        <ele>5.7</ele>
        <time>2024-03-10T08:38:45Z</time>
      </trkpt>
      <trkpt lat="49.15713" lon="-0.0609">
        <ele>5.6</ele>
        <time>2024-03-10T08:38:46Z</time>
      </trkpt>
      <trkpt lat="49.15705" lon="-0.06092">
        <ele>5.6</ele>
        <time>2024-03-10T08:38:47Z</time>
      </trkpt>
      <trkpt lat="49.15697" lon="-0.06095">
        <ele>5.6</ele>
        <time>2024-03-10T08:38:48Z</time>
      </trkpt>
      <trkpt lat="49.15689" lon="-0.06099">
        <ele>5.5</ele>
        <time>2024-03-10T08:38:49Z</time>
      </trkpt>
      <trkpt lat="49.15682" lon="-0.06102">
        <ele>5.5</ele>
        <time>2024-03-10T08:38:50Z</time>
      </trkpt>
      <trkpt lat="49.15674" lon="-0.06106">
        <ele>5.5</ele>
        <time>2024-03-10T08:38:51Z</time>
      </trkpt>
      <trkpt lat="49.15666" lon="-0.06109">
        <ele>5.5</ele>
        <time>2024-03-10T08:38:52Z</time>
      </trkpt>
      <trkpt lat="49.15659" lon="-0.06112">
        <ele>5.5</ele>
        <time>2024-03-10T08:38:53Z</time>
      </trkpt>
      <trkpt lat="49.15651" lon="-0.06115">
        <ele>5.5</ele>
        <time>2024-03-10T08:38:54Z</time>
      </trkpt>
      <trkpt lat="49.15644" lon="-0.06118">
        <ele>5.5</ele>
        <time>2024-03-10T08:38:55Z</time>
      </trkpt>
      <trkpt lat="49.15636" lon="-0.06121">
        <ele>5.5</ele>
        <time>2024-03-10T08:38:56Z</time>
      </trkpt>
      <trkpt lat="49.15629" lon="-0.06124">
        <ele>5.5</ele>
        <time>2024-03-10T08:38:57Z</time>
      </trkpt>
      <trkpt lat="49.15621" lon="-0.06127">
        <ele>5.5</ele>
        <time>2024-03-10T08:38:58Z</time>
      </trkpt>
      <trkpt lat="49.15614" lon="-0.0613">
        <ele>5.5</ele>
        <time>2024-03-10T08:38:59Z</time>
      </trkpt>
      <trkpt lat="49.15607" lon="-0.06134">
        <ele>5.5</ele>
        <time>2024-03-10T08:39:00Z</time>
      </trkpt>
      <trkpt lat="49.156" lon="-0.06137">
        <ele>5.5</ele>
        <time>2024-03-10T08:39:01Z</time>
      </trkpt>
      <trkpt lat="49.15593" lon="-0.0614">
        <ele>5.5</ele>
        <time>2024-03-10T08:39:02Z</time>
      </trkpt>
      <trkpt lat="49.15586" lon="-0.06143">
        <ele>5.5</ele>
        <time>2024-03-10T08:39:03Z</time>
      </trkpt>
      <trkpt lat="49.15578" lon="-0.06146">
        <ele>5.5</ele>
        <time>2024-03-10T08:39:04Z</time>
      </trkpt>
      <trkpt lat="49.15571" lon="-0.06149">
        <ele>5.5</ele>
        <time>2024-03-10T08:39:05Z</time>
      </trkpt>
      <trkpt lat="49.15563" lon="-0.06153">
        <ele>5.5</ele>
        <time>2024-03-10T08:39:06Z</time>
      </trkpt>
      <trkpt lat="49.15556" lon="-0.06155">
        <ele>5.5</ele>
        <time>2024-03-10T08:39:07Z</time>
      </trkpt>
      <trkpt lat="49.15549" lon="-0.06158">
        <ele>5.5</ele>
        <time>2024-03-10T08:39:08Z</time>
      </trkpt>
      <trkpt lat="49.15542" lon="-0.06161">
        <ele>5.5</ele>
        <time>2024-03-10T08:39:09Z</time>
      </trkpt>
      <trkpt lat="49.15535" lon="-0.06164">
        <ele>5.5</ele>
        <time>2024-03-10T08:39:10Z</time>
      </trkpt>
      <trkpt lat="49.15527" lon="-0.06167">
        <ele>5.5</ele>
        <time>2024-03-10T08:39:11Z</time>
      </trkpt>
      <trkpt lat="49.1552" lon="-0.06171">
        <ele>5.5</ele>
        <time>2024-03-10T08:39:12Z</time>
      </trkpt>
      <trkpt lat="49.15513" lon="-0.06173">
        <ele>5.5</ele>
        <time>2024-03-10T08:39:13Z</time>
      </trkpt>
      <trkpt lat="49.15506" lon="-0.06176">
        <ele>5.5</ele>
        <time>2024-03-10T08:39:14Z</time>
      </trkpt>
      <trkpt lat="49.15499" lon="-0.06179">
        <ele>5.6</ele>
        <time>2024-03-10T08:39:15Z</time>
      </trkpt>
      <trkpt lat="49.15492" lon="-0.06182">
        <ele>5.6</ele>
        <time>2024-03-10T08:39:16Z</time>
      </trkpt>
      <trkpt lat="49.15484" lon="-0.06185">
        <ele>5.6</ele>
        <time>2024-03-10T08:39:17Z</time>
      </trkpt>
      <trkpt lat="49.15477" lon="-0.06187">
        <ele>5.6</ele>
        <time>2024-03-10T08:39:18Z</time>
      </trkpt>
      <trkpt lat="49.1547" lon="-0.0619">
        <ele>5.6</ele>
        <time>2024-03-10T08:39:19Z</time>
      </trkpt>
      <trkpt lat="49.15463" lon="-0.06193">
        <ele>5.6</ele>
        <time>2024-03-10T08:39:20Z</time>
      </trkpt>
      <trkpt lat="49.15457" lon="-0.06196">
        <ele>5.6</ele>
        <time>2024-03-10T08:39:21Z</time>
      </trkpt>
      <trkpt lat="49.15449" lon="-0.062">
        <ele>5.6</ele>
        <time>2024-03-10T08:39:22Z</time>
      </trkpt>
      <trkpt lat="49.15442" lon="-0.06203">
        <ele>5.6</ele>
        <time>2024-03-10T08:39:23Z</time>
      </trkpt>
      <trkpt lat="49.15436" lon="-0.06206">
        <ele>5.6</ele>
        <time>2024-03-10T08:39:24Z</time>
      </trkpt>
      <trkpt lat="49.15429" lon="-0.06208">
        <ele>5.6</ele>
        <time>2024-03-10T08:39:25Z</time>
      </trkpt>
      <trkpt lat="49.15423" lon="-0.06211">
        <ele>5.6</ele>
        <time>2024-03-10T08:39:26Z</time>
      </trkpt>
      <trkpt lat="49.15416" lon="-0.06214">
        <ele>5.6</ele>
        <time>2024-03-10T08:39:27Z</time>
      </trkpt>
      <trkpt lat="49.15409" lon="-0.06216">
        <ele>5.6</ele>
        <time>2024-03-10T08:39:28Z</time>
      </trkpt>
      <trkpt lat="49.15402" lon="-0.06219">
        <ele>5.6</ele>
        <time>2024-03-10T08:39:29Z</time>
      </trkpt>
      <trkpt lat="49.15395" lon="-0.06222">
        <ele>5.6</ele>
        <time>2024-03-10T08:39:30Z</time>
      </trkpt>
      <trkpt lat="49.15388" lon="-0.06225">
        <ele>5.6</ele>
        <time>2024-03-10T08:39:31Z</time>
      </trkpt>
      <trkpt lat="49.15381" lon="-0.06228">
        <ele>5.6</ele>
        <time>2024-03-10T08:39:32Z</time>
      </trkpt>
      <trkpt lat="49.15374" lon="-0.06231">
        <ele>5.7</ele>
        <time>2024-03-10T08:39:33Z</time>
      </trkpt>
      <trkpt lat="49.15367" lon="-0.06234">
        <ele>5.7</ele>
        <time>2024-03-10T08:39:34Z</time>
      </trkpt>
      <trkpt lat="49.1536" lon="-0.06237">
        <ele>5.7</ele>
        <time>2024-03-10T08:39:35Z</time>
      </trkpt>
      <trkpt lat="49.15353" lon="-0.0624">
        <ele>5.7</ele>
        <time>2024-03-10T08:39:36Z</time>
      </trkpt>
      <trkpt lat="49.15345" lon="-0.06244">
        <ele>5.7</ele>
        <time>2024-03-10T08:39:37Z</time>
      </trkpt>
      <trkpt lat="49.15338" lon="-0.06247">
        <ele>5.7</ele>
        <time>2024-03-10T08:39:38Z</time>
      </trkpt>
      <trkpt lat="49.15331" lon="-0.0625">
        <ele>5.7</ele>
        <time>2024-03-10T08:39:39Z</time>
      </trkpt>
      <trkpt lat="49.15324" lon="-0.06252">
        <ele>5.7</ele>
        <time>2024-03-10T08:39:40Z</time>
      </trkpt>
      <trkpt lat="49.15316" lon="-0.06255">
        <ele>5.7</ele>
        <time>2024-03-10T08:39:41Z</time>
      </trkpt>
      <trkpt lat="49.15309" lon="-0.06258">
        <ele>5.8</ele>
        <time>2024-03-10T08:39:42Z</time>
      </trkpt>
      <trkpt lat="49.15302" lon="-0.06261">
        <ele>5.8</ele>
        <time>2024-03-10T08:39:43Z</time>
      </trkpt>
      <trkpt lat="49.15295" lon="-0.06264">
        <ele>5.8</ele>
        <time>2024-03-10T08:39:44Z</time>
      </trkpt>
      <trkpt lat="49.15288" lon="-0.06267">
        <ele>5.8</ele>
        <time>2024-03-10T08:39:45Z</time>
      </trkpt>
      <trkpt lat="49.1528" lon="-0.06271">
        <ele>5.8</ele>
        <time>2024-03-10T08:39:46Z</time>
      </trkpt>
      <trkpt lat="49.15273" lon="-0.06273">
        <ele>5.8</ele>
        <time>2024-03-10T08:39:47Z</time>
      </trkpt>
      <trkpt lat="49.15266" lon="-0.06276">
        <ele>5.7</ele>
        <time>2024-03-10T08:39:48Z</time>
      </trkpt>
      <trkpt lat="49.15258" lon="-0.0628">
        <ele>5.7</ele>
        <time>2024-03-10T08:39:49Z</time>
      </trkpt>
      <trkpt lat="49.15251" lon="-0.06283">
        <ele>5.8</ele>
        <time>2024-03-10T08:39:50Z</time>
      </trkpt>
      <trkpt lat="49.15244" lon="-0.06286">
        <ele>5.8</ele>
        <time>2024-03-10T08:39:51Z</time>
      </trkpt>
      <trkpt lat="49.15237" lon="-0.06289">
        <ele>5.8</ele>
        <time>2024-03-10T08:39:52Z</time>
      </trkpt>
      <trkpt lat="49.1523" lon="-0.06292">
        <ele>5.8</ele>
        <time>2024-03-10T08:39:53Z</time>
      </trkpt>
      <trkpt lat="49.15222" lon="-0.06296">
        <ele>5.7</ele>
        <time>2024-03-10T08:39:54Z</time>
      </trkpt>
      <trkpt lat="49.15215" lon="-0.06299">
        <ele>5.7</ele>
        <time>2024-03-10T08:39:55Z</time>
      </trkpt>
      <trkpt lat="49.15207" lon="-0.06302">
        <ele>5.8</ele>
        <time>2024-03-10T08:39:56Z</time>
      </trkpt>
      <trkpt lat="49.152" lon="-0.06305">
        <ele>5.8</ele>
        <time>2024-03-10T08:39:57Z</time>
      </trkpt>
      <trkpt lat="49.15193" lon="-0.06308">
        <ele>5.8</ele>
        <time>2024-03-10T08:39:58Z</time>
      </trkpt>
      <trkpt lat="49.15185" lon="-0.0631">
        <ele>5.8</ele>
        <time>2024-03-10T08:39:59Z</time>
      </trkpt>
      <trkpt lat="49.15178" lon="-0.06313">
        <ele>5.9</ele>
        <time>2024-03-10T08:40:00Z</time>
      </trkpt>
      <trkpt lat="49.15171" lon="-0.06316">
        <ele>5.9</ele>
        <time>2024-03-10T08:40:01Z</time>
      </trkpt>
      <trkpt lat="49.15165" lon="-0.06318">
        <ele>6</ele>
        <time>2024-03-10T08:40:02Z</time>
      </trkpt>
      <trkpt lat="49.15157" lon="-0.06321">
        <ele>6</ele>
        <time>2024-03-10T08:40:03Z</time>
      </trkpt>
      <trkpt lat="49.1515" lon="-0.06324">
        <ele>6.1</ele>
        <time>2024-03-10T08:40:04Z</time>
      </trkpt>
      <trkpt lat="49.15144" lon="-0.06327">
        <ele>6.1</ele>
        <time>2024-03-10T08:40:05Z</time>
      </trkpt>
      <trkpt lat="49.15137" lon="-0.0633">
        <ele>6.2</ele>
        <time>2024-03-10T08:40:06Z</time>
      </trkpt>
      <trkpt lat="49.1513" lon="-0.06333">
        <ele>6.2</ele>
        <time>2024-03-10T08:40:07Z</time>
      </trkpt>
      <trkpt lat="49.15123" lon="-0.06337">
        <ele>6.3</ele>
        <time>2024-03-10T08:40:08Z</time>
      </trkpt>
      <trkpt lat="49.15116" lon="-0.0634">
        <ele>6.3</ele>
        <time>2024-03-10T08:40:09Z</time>
      </trkpt>
      <trkpt lat="49.15109" lon="-0.06342">
        <ele>6.4</ele>
        <time>2024-03-10T08:40:10Z</time>
      </trkpt>
      <trkpt lat="49.15102" lon="-0.06345">
        <ele>6.4</ele>
        <time>2024-03-10T08:40:11Z</time>
      </trkpt>
      <trkpt lat="49.15095" lon="-0.06347">
        <ele>6.4</ele>
        <time>2024-03-10T08:40:12Z</time>
      </trkpt>
      <trkpt lat="49.15088" lon="-0.0635">
        <ele>6.5</ele>
        <time>2024-03-10T08:40:13Z</time>
      </trkpt>
      <trkpt lat="49.15081" lon="-0.06354">
        <ele>6.5</ele>
        <time>2024-03-10T08:40:14Z</time>
      </trkpt>
      <trkpt lat="49.15074" lon="-0.06357">
        <ele>6.6</ele>
        <time>2024-03-10T08:40:15Z</time>
      </trkpt>
      <trkpt lat="49.15067" lon="-0.06359">
        <ele>6.7</ele>
        <time>2024-03-10T08:40:16Z</time>
      </trkpt>
      <trkpt lat="49.1506" lon="-0.06362">
        <ele>6.7</ele>
        <time>2024-03-10T08:40:17Z</time>
      </trkpt>
      <trkpt lat="49.15053" lon="-0.06365">
        <ele>6.8</ele>
        <time>2024-03-10T08:40:18Z</time>
      </trkpt>
      <trkpt lat="49.15046" lon="-0.06367">
        <ele>6.9</ele>
        <time>2024-03-10T08:40:19Z</time>
      </trkpt>
      <trkpt lat="49.15039" lon="-0.0637">
        <ele>6.9</ele>
        <time>2024-03-10T08:40:20Z</time>
      </trkpt>
      <trkpt lat="49.15032" lon="-0.06373">
        <ele>7</ele>
        <time>2024-03-10T08:40:21Z</time>
      </trkpt>
      <trkpt lat="49.15025" lon="-0.06376">
        <ele>7.1</ele>
        <time>2024-03-10T08:40:22Z</time>
      </trkpt>
      <trkpt lat="49.15018" lon="-0.06379">
        <ele>7.2</ele>
        <time>2024-03-10T08:40:23Z</time>
      </trkpt>
      <trkpt lat="49.15011" lon="-0.06383">
        <ele>7.3</ele>
        <time>2024-03-10T08:40:24Z</time>
      </trkpt>
      <trkpt lat="49.15004" lon="-0.06387">
        <ele>7.4</ele>
        <time>2024-03-10T08:40:25Z</time>
      </trkpt>
      <trkpt lat="49.14997" lon="-0.06391">
        <ele>7.6</ele>
        <time>2024-03-10T08:40:26Z</time>
      </trkpt>
      <trkpt lat="49.14991" lon="-0.06395">
        <ele>7.7</ele>
        <time>2024-03-10T08:40:27Z</time>
      </trkpt>
      <trkpt lat="49.14984" lon="-0.064">
        <ele>7.9</ele>
        <time>2024-03-10T08:40:28Z</time>
      </trkpt>
      <trkpt lat="49.14976" lon="-0.06408">
        <ele>8.1</ele>
        <time>2024-03-10T08:40:29Z</time>
      </trkpt>
      <trkpt lat="49.14973" lon="-0.0641">
        <ele>8.2</ele>
        <time>2024-03-10T08:40:30Z</time>
      </trkpt>
      <trkpt lat="49.14967" lon="-0.06416">
        <ele>8.4</ele>
        <time>2024-03-10T08:40:31Z</time>
      </trkpt>
      <trkpt lat="49.14961" lon="-0.06422">
        <ele>8.4</ele>
        <time>2024-03-10T08:40:32Z</time>
      </trkpt>
      <trkpt lat="49.14955" lon="-0.06427">
        <ele>8.5</ele>
        <time>2024-03-10T08:40:33Z</time>
      </trkpt>
      <trkpt lat="49.1495" lon="-0.06433">
        <ele>8.5</ele>
        <time>2024-03-10T08:40:34Z</time>
      </trkpt>
      <trkpt lat="49.14944" lon="-0.06439">
        <ele>8.5</ele>
        <time>2024-03-10T08:40:35Z</time>
      </trkpt>
      <trkpt lat="49.14938" lon="-0.06445">
        <ele>8.6</ele>
        <time>2024-03-10T08:40:36Z</time>
      </trkpt>
      <trkpt lat="49.14933" lon="-0.06452">
        <ele>8.6</ele>
        <time>2024-03-10T08:40:37Z</time>
      </trkpt>
      <trkpt lat="49.14928" lon="-0.06459">
        <ele>8.6</ele>
        <time>2024-03-10T08:40:38Z</time>
      </trkpt>
      <trkpt lat="49.14923" lon="-0.06467">
        <ele>8.6</ele>
        <time>2024-03-10T08:40:39Z</time>
      </trkpt>
      <trkpt lat="49.14917" lon="-0.06474">
        <ele>8.6</ele>
        <time>2024-03-10T08:40:40Z</time>
      </trkpt>
      <trkpt lat="49.14912" lon="-0.06482">
        <ele>8.5</ele>
        <time>2024-03-10T08:40:41Z</time>
      </trkpt>
      <trkpt lat="49.14907" lon="-0.0649">
        <ele>8.5</ele>
        <time>2024-03-10T08:40:42Z</time>
      </trkpt>
      <trkpt lat="49.14902" lon="-0.06499">
        <ele>8.4</ele>
        <time>2024-03-10T08:40:43Z</time>
      </trkpt>
      <trkpt lat="49.14897" lon="-0.06507">
        <ele>8.4</ele>
        <time>2024-03-10T08:40:44Z</time>
      </trkpt>
      <trkpt lat="49.14891" lon="-0.06515">
        <ele>8.3</ele>
        <time>2024-03-10T08:40:45Z</time>
      </trkpt>
      <trkpt lat="49.14885" lon="-0.06522">
        <ele>8.3</ele>
        <time>2024-03-10T08:40:46Z</time>
      </trkpt>
      <trkpt lat="49.14878" lon="-0.06528">
        <ele>8.3</ele>
        <time>2024-03-10T08:40:47Z</time>
      </trkpt>
      <trkpt lat="49.14871" lon="-0.06535">
        <ele>8.2</ele>
        <time>2024-03-10T08:40:48Z</time>
      </trkpt>
      <trkpt lat="49.14863" lon="-0.06539">
        <ele>8.1</ele>
        <time>2024-03-10T08:40:49Z</time>
      </trkpt>
      <trkpt lat="49.14855" lon="-0.06543">
        <ele>8.1</ele>
        <time>2024-03-10T08:40:50Z</time>
      </trkpt>
      <trkpt lat="49.14847" lon="-0.06547">
        <ele>8</ele>
        <time>2024-03-10T08:40:51Z</time>
      </trkpt>
      <trkpt lat="49.14838" lon="-0.06549">
        <ele>8</ele>
        <time>2024-03-10T08:40:52Z</time>
      </trkpt>
      <trkpt lat="49.1483" lon="-0.06551">
        <ele>8</ele>
        <time>2024-03-10T08:40:53Z</time>
      </trkpt>
      <trkpt lat="49.14822" lon="-0.06553">
        <ele>8</ele>
        <time>2024-03-10T08:40:54Z</time>
      </trkpt>
      <trkpt lat="49.14814" lon="-0.06554">
        <ele>8</ele>
        <time>2024-03-10T08:40:55Z</time>
      </trkpt>
      <trkpt lat="49.14806" lon="-0.06556">
        <ele>8.1</ele>
        <time>2024-03-10T08:40:56Z</time>
      </trkpt>
      <trkpt lat="49.14798" lon="-0.06557">
        <ele>8.1</ele>
        <time>2024-03-10T08:40:57Z</time>
      </trkpt>
      <trkpt lat="49.14791" lon="-0.06559">
        <ele>8.2</ele>
        <time>2024-03-10T08:40:58Z</time>
      </trkpt>
      <trkpt lat="49.14783" lon="-0.0656">
        <ele>8.3</ele>
        <time>2024-03-10T08:40:59Z</time>
      </trkpt>
      <trkpt lat="49.14776" lon="-0.06561">
        <ele>8.4</ele>
        <time>2024-03-10T08:41:00Z</time>
      </trkpt>
      <trkpt lat="49.14769" lon="-0.06563">
        <ele>8.6</ele>
        <time>2024-03-10T08:41:01Z</time>
      </trkpt>
      <trkpt lat="49.14762" lon="-0.06565">
        <ele>8.7</ele>
        <time>2024-03-10T08:41:02Z</time>
      </trkpt>
      <trkpt lat="49.14754" lon="-0.06567">
        <ele>8.8</ele>
        <time>2024-03-10T08:41:03Z</time>
      </trkpt>
      <trkpt lat="49.14747" lon="-0.0657">
        <ele>9</ele>
        <time>2024-03-10T08:41:04Z</time>
      </trkpt>
      <trkpt lat="49.1474" lon="-0.06575">
        <ele>9.2</ele>
        <time>2024-03-10T08:41:05Z</time>
      </trkpt>
      <trkpt lat="49.14734" lon="-0.06581">
        <ele>9.3</ele>
        <time>2024-03-10T08:41:06Z</time>
      </trkpt>
      <trkpt lat="49.14728" lon="-0.06588">
        <ele>9.5</ele>
        <time>2024-03-10T08:41:07Z</time>
      </trkpt>
      <trkpt lat="49.14723" lon="-0.06595">
        <ele>9.7</ele>
        <time>2024-03-10T08:41:08Z</time>
      </trkpt>
      <trkpt lat="49.14718" lon="-0.06603">
        <ele>9.9</ele>
        <time>2024-03-10T08:41:09Z</time>
      </trkpt>
      <trkpt lat="49.14714" lon="-0.06612">
        <ele>10</ele>
        <time>2024-03-10T08:41:10Z</time>
      </trkpt>
      <trkpt lat="49.1471" lon="-0.06621">
        <ele>10.2</ele>
        <time>2024-03-10T08:41:11Z</time>
      </trkpt>
      <trkpt lat="49.14708" lon="-0.06631">
        <ele>10.4</ele>
        <time>2024-03-10T08:41:12Z</time>
      </trkpt>
      <trkpt lat="49.14705" lon="-0.0664">
        <ele>10.6</ele>
        <time>2024-03-10T08:41:13Z</time>
      </trkpt>
      <trkpt lat="49.14702" lon="-0.06649">
        <ele>10.7</ele>
        <time>2024-03-10T08:41:14Z</time>
      </trkpt>
      <trkpt lat="49.147" lon="-0.06659">
        <ele>10.9</ele>
        <time>2024-03-10T08:41:15Z</time>
      </trkpt>
      <trkpt lat="49.14697" lon="-0.06668">
        <ele>11.1</ele>
        <time>2024-03-10T08:41:16Z</time>
      </trkpt>
      <trkpt lat="49.14695" lon="-0.06677">
        <ele>11.3</ele>
        <time>2024-03-10T08:41:17Z</time>
      </trkpt>
      <trkpt lat="49.14693" lon="-0.06686">
        <ele>11.4</ele>
        <time>2024-03-10T08:41:18Z</time>
      </trkpt>
      <trkpt lat="49.1469" lon="-0.06695">
        <ele>11.6</ele>
        <time>2024-03-10T08:41:19Z</time>
      </trkpt>
      <trkpt lat="49.14688" lon="-0.06704">
        <ele>11.8</ele>
        <time>2024-03-10T08:41:20Z</time>
      </trkpt>
      <trkpt lat="49.14686" lon="-0.06712">
        <ele>11.9</ele>
        <time>2024-03-10T08:41:21Z</time>
      </trkpt>
      <trkpt lat="49.14683" lon="-0.06721">
        <ele>12</ele>
        <time>2024-03-10T08:41:22Z</time>
      </trkpt>
      <trkpt lat="49.1468" lon="-0.06731">
        <ele>12.1</ele>
        <time>2024-03-10T08:41:23Z</time>
      </trkpt>
      <trkpt lat="49.14676" lon="-0.0674">
        <ele>12.2</ele>
        <time>2024-03-10T08:41:24Z</time>
      </trkpt>
      <trkpt lat="49.14673" lon="-0.0675">
        <ele>12.3</ele>
        <time>2024-03-10T08:41:25Z</time>
      </trkpt>
      <trkpt lat="49.14669" lon="-0.06759">
        <ele>12.4</ele>
        <time>2024-03-10T08:41:26Z</time>
      </trkpt>
      <trkpt lat="49.14665" lon="-0.06767">
        <ele>12.4</ele>
        <time>2024-03-10T08:41:27Z</time>
      </trkpt>
      <trkpt lat="49.14662" lon="-0.06774">
        <ele>12.4</ele>
        <time>2024-03-10T08:41:28Z</time>
      </trkpt>
      <trkpt lat="49.14658" lon="-0.06782">
        <ele>12.4</ele>
        <time>2024-03-10T08:41:29Z</time>
      </trkpt>
      <trkpt lat="49.14653" lon="-0.0679">
        <ele>12.5</ele>
        <time>2024-03-10T08:41:30Z</time>
      </trkpt>
      <trkpt lat="49.14649" lon="-0.06798">
        <ele>12.5</ele>
        <time>2024-03-10T08:41:31Z</time>
      </trkpt>
      <trkpt lat="49.14644" lon="-0.06807">
        <ele>12.5</ele>
        <time>2024-03-10T08:41:32Z</time>
      </trkpt>
      <trkpt lat="49.14639" lon="-0.06816">
        <ele>12.6</ele>
        <time>2024-03-10T08:41:33Z</time>
      </trkpt>
      <trkpt lat="49.14633" lon="-0.06825">
        <ele>12.6</ele>
        <time>2024-03-10T08:41:34Z</time>
      </trkpt>
      <trkpt lat="49.14628" lon="-0.06834">
        <ele>12.6</ele>
        <time>2024-03-10T08:41:35Z</time>
      </trkpt>
      <trkpt lat="49.14623" lon="-0.06843">
        <ele>12.7</ele>
        <time>2024-03-10T08:41:36Z</time>
      </trkpt>
      <trkpt lat="49.14618" lon="-0.06852">
        <ele>12.7</ele>
        <time>2024-03-10T08:41:37Z</time>
      </trkpt>
      <trkpt lat="49.14612" lon="-0.06861">
        <ele>12.7</ele>
        <time>2024-03-10T08:41:38Z</time>
      </trkpt>
      <trkpt lat="49.14607" lon="-0.06869">
        <ele>12.8</ele>
        <time>2024-03-10T08:41:39Z</time>
      </trkpt>
      <trkpt lat="49.14603" lon="-0.06877">
        <ele>12.8</ele>
        <time>2024-03-10T08:41:40Z</time>
      </trkpt>
      <trkpt lat="49.14598" lon="-0.06886">
        <ele>12.9</ele>
        <time>2024-03-10T08:41:41Z</time>
      </trkpt>
      <trkpt lat="49.14592" lon="-0.06894">
        <ele>12.9</ele>
        <time>2024-03-10T08:41:42Z</time>
      </trkpt>
      <trkpt lat="49.14587" lon="-0.06903">
        <ele>12.9</ele>
        <time>2024-03-10T08:41:43Z</time>
      </trkpt>
      <trkpt lat="49.14581" lon="-0.06912">
        <ele>12.9</ele>
        <time>2024-03-10T08:41:44Z</time>
      </trkpt>
      <trkpt lat="49.14576" lon="-0.06921">
        <ele>13</ele>
        <time>2024-03-10T08:41:45Z</time>
      </trkpt>
      <trkpt lat="49.14571" lon="-0.0693">
        <ele>13</ele>
        <time>2024-03-10T08:41:46Z</time>
      </trkpt>
      <trkpt lat="49.14565" lon="-0.06938">
        <ele>13</ele>
        <time>2024-03-10T08:41:47Z</time>
      </trkpt>
      <trkpt lat="49.1456" lon="-0.06947">
        <ele>13</ele>
        <time>2024-03-10T08:41:48Z</time>
      </trkpt>
      <trkpt lat="49.14554" lon="-0.06956">
        <ele>13.1</ele>
        <time>2024-03-10T08:41:49Z</time>
      </trkpt>
      <trkpt lat="49.14548" lon="-0.06965">
        <ele>13.2</ele>
        <time>2024-03-10T08:41:50Z</time>
      </trkpt>
      <trkpt lat="49.14542" lon="-0.06973">
        <ele>13.1</ele>
        <time>2024-03-10T08:41:51Z</time>
      </trkpt>
      <trkpt lat="49.14538" lon="-0.06982">
        <ele>13.1</ele>
        <time>2024-03-10T08:41:52Z</time>
      </trkpt>
      <trkpt lat="49.14532" lon="-0.0699">
        <ele>13.1</ele>
        <time>2024-03-10T08:41:53Z</time>
      </trkpt>
      <trkpt lat="49.14527" lon="-0.06998">
        <ele>13.1</ele>
        <time>2024-03-10T08:41:54Z</time>
      </trkpt>
      <trkpt lat="49.14522" lon="-0.07007">
        <ele>13</ele>
        <time>2024-03-10T08:41:55Z</time>
      </trkpt>
      <trkpt lat="49.14516" lon="-0.07015">
        <ele>13</ele>
        <time>2024-03-10T08:41:56Z</time>
      </trkpt>
      <trkpt lat="49.14511" lon="-0.07023">
        <ele>12.9</ele>
        <time>2024-03-10T08:41:57Z</time>
      </trkpt>
      <trkpt lat="49.14506" lon="-0.07031">
        <ele>12.8</ele>
        <time>2024-03-10T08:41:58Z</time>
      </trkpt>
      <trkpt lat="49.14501" lon="-0.07039">
        <ele>12.8</ele>
        <time>2024-03-10T08:41:59Z</time>
      </trkpt>
      <trkpt lat="49.14495" lon="-0.07047">
        <ele>12.7</ele>
        <time>2024-03-10T08:42:00Z</time>
      </trkpt>
      <trkpt lat="49.1449" lon="-0.07055">
        <ele>12.6</ele>
        <time>2024-03-10T08:42:01Z</time>
      </trkpt>
      <trkpt lat="49.14484" lon="-0.07063">
        <ele>12.5</ele>
        <time>2024-03-10T08:42:02Z</time>
      </trkpt>
      <trkpt lat="49.14477" lon="-0.07071">
        <ele>12.3</ele>
        <time>2024-03-10T08:42:03Z</time>
      </trkpt>
      <trkpt lat="49.14471" lon="-0.07079">
        <ele>12.2</ele>
        <time>2024-03-10T08:42:04Z</time>
      </trkpt>
      <trkpt lat="49.14465" lon="-0.07086">
        <ele>12.1</ele>
        <time>2024-03-10T08:42:05Z</time>
      </trkpt>
      <trkpt lat="49.14458" lon="-0.07094">
        <ele>11.9</ele>
        <time>2024-03-10T08:42:06Z</time>
      </trkpt>
      <trkpt lat="49.14452" lon="-0.07102">
        <ele>11.7</ele>
        <time>2024-03-10T08:42:07Z</time>
      </trkpt>
      <trkpt lat="49.14445" lon="-0.07109">
        <ele>11.5</ele>
        <time>2024-03-10T08:42:08Z</time>
      </trkpt>
      <trkpt lat="49.14439" lon="-0.07116">
        <ele>11.3</ele>
        <time>2024-03-10T08:42:09Z</time>
      </trkpt>
      <trkpt lat="49.14432" lon="-0.07123">
        <ele>11.1</ele>
        <time>2024-03-10T08:42:10Z</time>
      </trkpt>
      <trkpt lat="49.14426" lon="-0.07131">
        <ele>10.9</ele>
        <time>2024-03-10T08:42:11Z</time>
      </trkpt>
      <trkpt lat="49.14419" lon="-0.07139">
        <ele>10.6</ele>
        <time>2024-03-10T08:42:12Z</time>
      </trkpt>
      <trkpt lat="49.14412" lon="-0.07146">
        <ele>10.3</ele>
        <time>2024-03-10T08:42:13Z</time>
      </trkpt>
      <trkpt lat="49.14405" lon="-0.07154">
        <ele>10.1</ele>
        <time>2024-03-10T08:42:14Z</time>
      </trkpt>
      <trkpt lat="49.14398" lon="-0.07162">
        <ele>9.8</ele>
        <time>2024-03-10T08:42:15Z</time>
      </trkpt>
      <trkpt lat="49.14391" lon="-0.0717">
        <ele>9.5</ele>
        <time>2024-03-10T08:42:16Z</time>
      </trkpt>
      <trkpt lat="49.14385" lon="-0.07177">
        <ele>9.2</ele>
        <time>2024-03-10T08:42:17Z</time>
      </trkpt>
      <trkpt lat="49.14378" lon="-0.07185">
        <ele>8.9</ele>
        <time>2024-03-10T08:42:18Z</time>
      </trkpt>
      <trkpt lat="49.14371" lon="-0.07193">
        <ele>8.7</ele>
        <time>2024-03-10T08:42:19Z</time>
      </trkpt>
      <trkpt lat="49.14364" lon="-0.07201">
        <ele>8.5</ele>
        <time>2024-03-10T08:42:20Z</time>
      </trkpt>
      <trkpt lat="49.14357" lon="-0.07208">
        <ele>8.3</ele>
        <time>2024-03-10T08:42:21Z</time>
      </trkpt>
      <trkpt lat="49.1435" lon="-0.07217">
        <ele>8.2</ele>
        <time>2024-03-10T08:42:22Z</time>
      </trkpt>
      <trkpt lat="49.14344" lon="-0.07225">
        <ele>8.1</ele>
        <time>2024-03-10T08:42:23Z</time>
      </trkpt>
      <trkpt lat="49.14337" lon="-0.07233">
        <ele>8</ele>
        <time>2024-03-10T08:42:24Z</time>
      </trkpt>
      <trkpt lat="49.14331" lon="-0.07241">
        <ele>7.9</ele>
        <time>2024-03-10T08:42:25Z</time>
      </trkpt>
      <trkpt lat="49.14325" lon="-0.07249">
        <ele>7.8</ele>
        <time>2024-03-10T08:42:26Z</time>
      </trkpt>
      <trkpt lat="49.14319" lon="-0.07258">
        <ele>7.7</ele>
        <time>2024-03-10T08:42:27Z</time>
      </trkpt>
      <trkpt lat="49.14314" lon="-0.07266">
        <ele>7.6</ele>
        <time>2024-03-10T08:42:28Z</time>
      </trkpt>
      <trkpt lat="49.14308" lon="-0.07275">
        <ele>7.5</ele>
        <time>2024-03-10T08:42:29Z</time>
      </trkpt>
      <trkpt lat="49.14303" lon="-0.07285">
        <ele>7.4</ele>
        <time>2024-03-10T08:42:30Z</time>
      </trkpt>
      <trkpt lat="49.14297" lon="-0.07294">
        <ele>7.4</ele>
        <time>2024-03-10T08:42:31Z</time>
      </trkpt>
      <trkpt lat="49.14292" lon="-0.07303">
        <ele>7.3</ele>
        <time>2024-03-10T08:42:32Z</time>
      </trkpt>
      <trkpt lat="49.14287" lon="-0.07311">
        <ele>7.3</ele>
        <time>2024-03-10T08:42:33Z</time>
      </trkpt>
      <trkpt lat="49.14282" lon="-0.0732">
        <ele>7.2</ele>
        <time>2024-03-10T08:42:34Z</time>
      </trkpt>
      <trkpt lat="49.14276" lon="-0.07329">
        <ele>7.2</ele>
        <time>2024-03-10T08:42:35Z</time>
      </trkpt>
      <trkpt lat="49.1427" lon="-0.07338">
        <ele>7.2</ele>
        <time>2024-03-10T08:42:36Z</time>
      </trkpt>
      <trkpt lat="49.14264" lon="-0.07347">
        <ele>7.3</ele>
        <time>2024-03-10T08:42:37Z</time>
      </trkpt>
      <trkpt lat="49.14258" lon="-0.07355">
        <ele>7.3</ele>
        <time>2024-03-10T08:42:38Z</time>
      </trkpt>
      <trkpt lat="49.14252" lon="-0.07362">
        <ele>7.3</ele>
        <time>2024-03-10T08:42:39Z</time>
      </trkpt>
      <trkpt lat="49.14246" lon="-0.0737">
        <ele>7.4</ele>
        <time>2024-03-10T08:42:40Z</time>
      </trkpt>
      <trkpt lat="49.1424" lon="-0.07377">
        <ele>7.4</ele>
        <time>2024-03-10T08:42:41Z</time>
      </trkpt>
      <trkpt lat="49.14235" lon="-0.07384">
        <ele>7.4</ele>
        <time>2024-03-10T08:42:42Z</time>
      </trkpt>
      <trkpt lat="49.14229" lon="-0.07392">
        <ele>7.5</ele>
        <time>2024-03-10T08:42:43Z</time>
      </trkpt>
      <trkpt lat="49.14224" lon="-0.07399">
        <ele>7.5</ele>
        <time>2024-03-10T08:42:44Z</time>
      </trkpt>
      <trkpt lat="49.14218" lon="-0.07406">
        <ele>7.5</ele>
        <time>2024-03-10T08:42:45Z</time>
      </trkpt>
      <trkpt lat="49.14212" lon="-0.07412">
        <ele>7.5</ele>
        <time>2024-03-10T08:42:46Z</time>
      </trkpt>
      <trkpt lat="49.14207" lon="-0.07418">
        <ele>7.6</ele>
        <time>2024-03-10T08:42:47Z</time>
      </trkpt>
      <trkpt lat="49.14201" lon="-0.07425">
        <ele>7.6</ele>
        <time>2024-03-10T08:42:48Z</time>
      </trkpt>
      <trkpt lat="49.14195" lon="-0.07431">
        <ele>7.6</ele>
        <time>2024-03-10T08:42:49Z</time>
      </trkpt>
      <trkpt lat="49.14189" lon="-0.07438">
        <ele>7.6</ele>
        <time>2024-03-10T08:42:50Z</time>
      </trkpt>
      <trkpt lat="49.14182" lon="-0.07444">
        <ele>7.6</ele>
        <time>2024-03-10T08:42:51Z</time>
      </trkpt>
      <trkpt lat="49.14176" lon="-0.0745">
        <ele>7.6</ele>
        <time>2024-03-10T08:42:52Z</time>
      </trkpt>
      <trkpt lat="49.14169" lon="-0.07456">
        <ele>7.5</ele>
        <time>2024-03-10T08:42:53Z</time>
      </trkpt>
      <trkpt lat="49.14162" lon="-0.07461">
        <ele>7.5</ele>
        <time>2024-03-10T08:42:54Z</time>
      </trkpt>
      <trkpt lat="49.14156" lon="-0.07467">
        <ele>7.5</ele>
        <time>2024-03-10T08:42:55Z</time>
      </trkpt>
      <trkpt lat="49.14149" lon="-0.07472">
        <ele>7.4</ele>
        <time>2024-03-10T08:42:56Z</time>
      </trkpt>
      <trkpt lat="49.14142" lon="-0.07476">
        <ele>7.4</ele>
        <time>2024-03-10T08:42:57Z</time>
      </trkpt>
      <trkpt lat="49.14135" lon="-0.07481">
        <ele>7.4</ele>
        <time>2024-03-10T08:42:58Z</time>
      </trkpt>
      <trkpt lat="49.14128" lon="-0.07485">
        <ele>7.4</ele>
        <time>2024-03-10T08:42:59Z</time>
      </trkpt>
      <trkpt lat="49.14121" lon="-0.07489">
        <ele>7.4</ele>
        <time>2024-03-10T08:43:00Z</time>
      </trkpt>
      <trkpt lat="49.14114" lon="-0.07493">
        <ele>7.3</ele>
        <time>2024-03-10T08:43:01Z</time>
      </trkpt>
      <trkpt lat="49.14107" lon="-0.07497">
        <ele>7.3</ele>
        <time>2024-03-10T08:43:02Z</time>
      </trkpt>
      <trkpt lat="49.141" lon="-0.07501">
        <ele>7.3</ele>
        <time>2024-03-10T08:43:03Z</time>
      </trkpt>
      <trkpt lat="49.14093" lon="-0.07505">
        <ele>7.2</ele>
        <time>2024-03-10T08:43:04Z</time>
      </trkpt>
      <trkpt lat="49.14086" lon="-0.07509">
        <ele>7.1</ele>
        <time>2024-03-10T08:43:05Z</time>
      </trkpt>
      <trkpt lat="49.14079" lon="-0.07513">
        <ele>7</ele>
        <time>2024-03-10T08:43:06Z</time>
      </trkpt>
      <trkpt lat="49.14072" lon="-0.07518">
        <ele>6.9</ele>
        <time>2024-03-10T08:43:07Z</time>
      </trkpt>
      <trkpt lat="49.14065" lon="-0.07524">
        <ele>6.9</ele>
        <time>2024-03-10T08:43:08Z</time>
      </trkpt>
      <trkpt lat="49.14058" lon="-0.0753">
        <ele>6.8</ele>
        <time>2024-03-10T08:43:09Z</time>
      </trkpt>
      <trkpt lat="49.14052" lon="-0.07538">
        <ele>6.8</ele>
        <time>2024-03-10T08:43:10Z</time>
      </trkpt>
      <trkpt lat="49.14046" lon="-0.07547">
        <ele>6.8</ele>
        <time>2024-03-10T08:43:11Z</time>
      </trkpt>
      <trkpt lat="49.1404" lon="-0.07556">
        <ele>6.8</ele>
        <time>2024-03-10T08:43:12Z</time>
      </trkpt>
      <trkpt lat="49.14035" lon="-0.07564">
        <ele>6.9</ele>
        <time>2024-03-10T08:43:13Z</time>
      </trkpt>
      <trkpt lat="49.14029" lon="-0.07572">
        <ele>6.9</ele>
        <time>2024-03-10T08:43:14Z</time>
      </trkpt>
      <trkpt lat="49.14024" lon="-0.0758">
        <ele>6.9</ele>
        <time>2024-03-10T08:43:15Z</time>
      </trkpt>
      <trkpt lat="49.14019" lon="-0.07588">
        <ele>7</ele>
        <time>2024-03-10T08:43:16Z</time>
      </trkpt>
      <trkpt lat="49.14014" lon="-0.07596">
        <ele>7</ele>
        <time>2024-03-10T08:43:17Z</time>
      </trkpt>
      <trkpt lat="49.14009" lon="-0.07604">
        <ele>7.1</ele>
        <time>2024-03-10T08:43:18Z</time>
      </trkpt>
      <trkpt lat="49.14003" lon="-0.07612">
        <ele>7.2</ele>
        <time>2024-03-10T08:43:19Z</time>
      </trkpt>
      <trkpt lat="49.13998" lon="-0.07619">
        <ele>7.2</ele>
        <time>2024-03-10T08:43:20Z</time>
      </trkpt>
      <trkpt lat="49.13992" lon="-0.07626">
        <ele>7.2</ele>
        <time>2024-03-10T08:43:21Z</time>
      </trkpt>
      <trkpt lat="49.13987" lon="-0.07633">
        <ele>7.3</ele>
        <time>2024-03-10T08:43:22Z</time>
      </trkpt>
      <trkpt lat="49.13981" lon="-0.0764">
        <ele>7.3</ele>
        <time>2024-03-10T08:43:23Z</time>
      </trkpt>
      <trkpt lat="49.13975" lon="-0.07646">
        <ele>7.4</ele>
        <time>2024-03-10T08:43:24Z</time>
      </trkpt>
      <trkpt lat="49.13969" lon="-0.07651">
        <ele>7.5</ele>
        <time>2024-03-10T08:43:25Z</time>
      </trkpt>
      <trkpt lat="49.13962" lon="-0.07656">
        <ele>7.5</ele>
        <time>2024-03-10T08:43:26Z</time>
      </trkpt>
      <trkpt lat="49.13955" lon="-0.0766">
        <ele>7.5</ele>
        <time>2024-03-10T08:43:27Z</time>
      </trkpt>
      <trkpt lat="49.13948" lon="-0.07662">
        <ele>7.6</ele>
        <time>2024-03-10T08:43:28Z</time>
      </trkpt>
      <trkpt lat="49.13941" lon="-0.07664">
        <ele>7.7</ele>
        <time>2024-03-10T08:43:29Z</time>
      </trkpt>
      <trkpt lat="49.13934" lon="-0.07664">
        <ele>7.7</ele>
        <time>2024-03-10T08:43:30Z</time>
      </trkpt>
      <trkpt lat="49.13927" lon="-0.07664">
        <ele>7.8</ele>
        <time>2024-03-10T08:43:31Z</time>
      </trkpt>
      <trkpt lat="49.13921" lon="-0.07663">
        <ele>7.9</ele>
        <time>2024-03-10T08:43:32Z</time>
      </trkpt>
      <trkpt lat="49.13914" lon="-0.07663">
        <ele>8</ele>
        <time>2024-03-10T08:43:33Z</time>
      </trkpt>
      <trkpt lat="49.13909" lon="-0.07662">
        <ele>8.1</ele>
        <time>2024-03-10T08:43:34Z</time>
      </trkpt>
      <trkpt lat="49.13903" lon="-0.07662">
        <ele>8.1</ele>
        <time>2024-03-10T08:43:35Z</time>
      </trkpt>
      <trkpt lat="49.13898" lon="-0.07662">
        <ele>8.2</ele>
        <time>2024-03-10T08:43:36Z</time>
      </trkpt>
      <trkpt lat="49.13893" lon="-0.07661">
        <ele>8.3</ele>
        <time>2024-03-10T08:43:37Z</time>
      </trkpt>
      <trkpt lat="49.13888" lon="-0.0766">
        <ele>8.3</ele>
        <time>2024-03-10T08:43:38Z</time>
      </trkpt>
      <trkpt lat="49.13882" lon="-0.07657">
        <ele>8.3</ele>
        <time>2024-03-10T08:43:39Z</time>
      </trkpt>
      <trkpt lat="49.13877" lon="-0.07654">
        <ele>8.3</ele>
        <time>2024-03-10T08:43:40Z</time>
      </trkpt>
      <trkpt lat="49.13871" lon="-0.0765">
        <ele>8.3</ele>
        <time>2024-03-10T08:43:41Z</time>
      </trkpt>
      <trkpt lat="49.13866" lon="-0.07647">
        <ele>8.4</ele>
        <time>2024-03-10T08:43:42Z</time>
      </trkpt>
      <trkpt lat="49.13859" lon="-0.07644">
        <ele>8.4</ele>
        <time>2024-03-10T08:43:43Z</time>
      </trkpt>
      <trkpt lat="49.13853" lon="-0.07641">
        <ele>8.4</ele>
        <time>2024-03-10T08:43:44Z</time>
      </trkpt>
      <trkpt lat="49.13847" lon="-0.07639">
        <ele>8.5</ele>
        <time>2024-03-10T08:43:45Z</time>
      </trkpt>
      <trkpt lat="49.1384" lon="-0.07635">
        <ele>8.5</ele>
        <time>2024-03-10T08:43:46Z</time>
      </trkpt>
      <trkpt lat="49.13834" lon="-0.07632">
        <ele>8.6</ele>
        <time>2024-03-10T08:43:47Z</time>
      </trkpt>
      <trkpt lat="49.13827" lon="-0.07628">
        <ele>8.6</ele>
        <time>2024-03-10T08:43:48Z</time>
      </trkpt>
      <trkpt lat="49.13821" lon="-0.07624">
        <ele>8.7</ele>
        <time>2024-03-10T08:43:49Z</time>
      </trkpt>
      <trkpt lat="49.13814" lon="-0.0762">
        <ele>8.8</ele>
        <time>2024-03-10T08:43:50Z</time>
      </trkpt>
      <trkpt lat="49.13808" lon="-0.07617">
        <ele>8.9</ele>
        <time>2024-03-10T08:43:51Z</time>
      </trkpt>
      <trkpt lat="49.13801" lon="-0.07614">
        <ele>9</ele>
        <time>2024-03-10T08:43:52Z</time>
      </trkpt>
      <trkpt lat="49.13795" lon="-0.0761">
        <ele>9.1</ele>
        <time>2024-03-10T08:43:53Z</time>
      </trkpt>
      <trkpt lat="49.13789" lon="-0.07606">
        <ele>9.2</ele>
        <time>2024-03-10T08:43:54Z</time>
      </trkpt>
      <trkpt lat="49.13783" lon="-0.07603">
        <ele>9.3</ele>
        <time>2024-03-10T08:43:55Z</time>
      </trkpt>
      <trkpt lat="49.13777" lon="-0.076">
        <ele>9.3</ele>
        <time>2024-03-10T08:43:56Z</time>
      </trkpt>
      <trkpt lat="49.1377" lon="-0.07596">
        <ele>9.4</ele>
        <time>2024-03-10T08:43:57Z</time>
      </trkpt>
      <trkpt lat="49.13763" lon="-0.07593">
        <ele>9.4</ele>
        <time>2024-03-10T08:43:58Z</time>
      </trkpt>
      <trkpt lat="49.13756" lon="-0.07588">
        <ele>9.5</ele>
        <time>2024-03-10T08:43:59Z</time>
      </trkpt>
      <trkpt lat="49.13749" lon="-0.07585">
        <ele>9.5</ele>
        <time>2024-03-10T08:44:00Z</time>
      </trkpt>
      <trkpt lat="49.13743" lon="-0.07581">
        <ele>9.5</ele>
        <time>2024-03-10T08:44:01Z</time>
      </trkpt>
      <trkpt lat="49.13736" lon="-0.07578">
        <ele>9.6</ele>
        <time>2024-03-10T08:44:02Z</time>
      </trkpt>
      <trkpt lat="49.13729" lon="-0.07574">
        <ele>9.6</ele>
        <time>2024-03-10T08:44:03Z</time>
      </trkpt>
      <trkpt lat="49.13723" lon="-0.07571">
        <ele>9.7</ele>
        <time>2024-03-10T08:44:04Z</time>
      </trkpt>
      <trkpt lat="49.13716" lon="-0.07568">
        <ele>9.8</ele>
        <time>2024-03-10T08:44:05Z</time>
      </trkpt>
      <trkpt lat="49.13709" lon="-0.07565">
        <ele>9.9</ele>
        <time>2024-03-10T08:44:06Z</time>
      </trkpt>
      <trkpt lat="49.13702" lon="-0.07563">
        <ele>10</ele>
        <time>2024-03-10T08:44:07Z</time>
      </trkpt>
      <trkpt lat="49.13695" lon="-0.07562">
        <ele>10.1</ele>
        <time>2024-03-10T08:44:08Z</time>
      </trkpt>
      <trkpt lat="49.13688" lon="-0.07561">
        <ele>10.2</ele>
        <time>2024-03-10T08:44:09Z</time>
      </trkpt>
      <trkpt lat="49.13681" lon="-0.07562">
        <ele>10.2</ele>
        <time>2024-03-10T08:44:10Z</time>
      </trkpt>
      <trkpt lat="49.13674" lon="-0.07562">
        <ele>10.2</ele>
        <time>2024-03-10T08:44:11Z</time>
      </trkpt>
      <trkpt lat="49.13668" lon="-0.07564">
        <ele>10.2</ele>
        <time>2024-03-10T08:44:12Z</time>
      </trkpt>
      <trkpt lat="49.13661" lon="-0.07565">
        <ele>10.2</ele>
        <time>2024-03-10T08:44:13Z</time>
      </trkpt>
      <trkpt lat="49.13654" lon="-0.07567">
        <ele>10.1</ele>
        <time>2024-03-10T08:44:14Z</time>
      </trkpt>
      <trkpt lat="49.13647" lon="-0.07569">
        <ele>10</ele>
        <time>2024-03-10T08:44:15Z</time>
      </trkpt>
      <trkpt lat="49.1364" lon="-0.07571">
        <ele>9.9</ele>
        <time>2024-03-10T08:44:16Z</time>
      </trkpt>
      <trkpt lat="49.13632" lon="-0.07574">
        <ele>9.7</ele>
        <time>2024-03-10T08:44:17Z</time>
      </trkpt>
      <trkpt lat="49.13625" lon="-0.07575">
        <ele>9.6</ele>
        <time>2024-03-10T08:44:18Z</time>
      </trkpt>
      <trkpt lat="49.13618" lon="-0.07578">
        <ele>9.5</ele>
        <time>2024-03-10T08:44:19Z</time>
      </trkpt>
      <trkpt lat="49.1361" lon="-0.07579">
        <ele>9.5</ele>
        <time>2024-03-10T08:44:20Z</time>
      </trkpt>
      <trkpt lat="49.13603" lon="-0.07581">
        <ele>9.4</ele>
        <time>2024-03-10T08:44:21Z</time>
      </trkpt>
      <trkpt lat="49.13595" lon="-0.07582">
        <ele>9.4</ele>
        <time>2024-03-10T08:44:22Z</time>
      </trkpt>
      <trkpt lat="49.13588" lon="-0.07582">
        <ele>9.3</ele>
        <time>2024-03-10T08:44:23Z</time>
      </trkpt>
      <trkpt lat="49.13581" lon="-0.07583">
        <ele>9.3</ele>
        <time>2024-03-10T08:44:24Z</time>
      </trkpt>
      <trkpt lat="49.13574" lon="-0.07581">
        <ele>9.3</ele>
        <time>2024-03-10T08:44:25Z</time>
      </trkpt>
      <trkpt lat="49.13567" lon="-0.0758">
        <ele>9.3</ele>
        <time>2024-03-10T08:44:26Z</time>
      </trkpt>
      <trkpt lat="49.1356" lon="-0.07578">
        <ele>9.2</ele>
        <time>2024-03-10T08:44:27Z</time>
      </trkpt>
      <trkpt lat="49.13553" lon="-0.07576">
        <ele>9.2</ele>
        <time>2024-03-10T08:44:28Z</time>
      </trkpt>
      <trkpt lat="49.13545" lon="-0.07573">
        <ele>9.2</ele>
        <time>2024-03-10T08:44:29Z</time>
      </trkpt>
      <trkpt lat="49.13538" lon="-0.07571">
        <ele>9.2</ele>
        <time>2024-03-10T08:44:30Z</time>
      </trkpt>
      <trkpt lat="49.1353" lon="-0.07569">
        <ele>9.2</ele>
        <time>2024-03-10T08:44:31Z</time>
      </trkpt>
      <trkpt lat="49.13523" lon="-0.07568">
        <ele>9.2</ele>
        <time>2024-03-10T08:44:32Z</time>
      </trkpt>
      <trkpt lat="49.13515" lon="-0.07567">
        <ele>9.3</ele>
        <time>2024-03-10T08:44:33Z</time>
      </trkpt>
      <trkpt lat="49.13507" lon="-0.07566">
        <ele>9.4</ele>
        <time>2024-03-10T08:44:34Z</time>
      </trkpt>
      <trkpt lat="49.135" lon="-0.07565">
        <ele>9.4</ele>
        <time>2024-03-10T08:44:35Z</time>
      </trkpt>
      <trkpt lat="49.13492" lon="-0.07564">
        <ele>9.5</ele>
        <time>2024-03-10T08:44:36Z</time>
      </trkpt>
      <trkpt lat="49.13485" lon="-0.07562">
        <ele>9.6</ele>
        <time>2024-03-10T08:44:37Z</time>
      </trkpt>
      <trkpt lat="49.13478" lon="-0.07561">
        <ele>9.7</ele>
        <time>2024-03-10T08:44:38Z</time>
      </trkpt>
      <trkpt lat="49.13471" lon="-0.0756">
        <ele>9.7</ele>
        <time>2024-03-10T08:44:39Z</time>
      </trkpt>
      <trkpt lat="49.13465" lon="-0.07559">
        <ele>9.7</ele>
        <time>2024-03-10T08:44:40Z</time>
      </trkpt>
      <trkpt lat="49.13458" lon="-0.07558">
        <ele>9.8</ele>
        <time>2024-03-10T08:44:41Z</time>
      </trkpt>
      <trkpt lat="49.13452" lon="-0.07557">
        <ele>9.8</ele>
        <time>2024-03-10T08:44:42Z</time>
      </trkpt>
      <trkpt lat="49.13446" lon="-0.07556">
        <ele>9.8</ele>
        <time>2024-03-10T08:44:43Z</time>
      </trkpt>
      <trkpt lat="49.1344" lon="-0.07556">
        <ele>9.8</ele>
        <time>2024-03-10T08:44:44Z</time>
      </trkpt>
      <trkpt lat="49.13435" lon="-0.07556">
        <ele>9.8</ele>
        <time>2024-03-10T08:44:45Z</time>
      </trkpt>
      <trkpt lat="49.1343" lon="-0.07556">
        <ele>9.8</ele>
        <time>2024-03-10T08:44:46Z</time>
      </trkpt>
      <trkpt lat="49.13425" lon="-0.07555">
        <ele>9.8</ele>
        <time>2024-03-10T08:44:47Z</time>
      </trkpt>
      <trkpt lat="49.13421" lon="-0.07554">
        <ele>9.8</ele>
        <time>2024-03-10T08:44:48Z</time>
      </trkpt>
      <trkpt lat="49.13417" lon="-0.07554">
        <ele>9.8</ele>
        <time>2024-03-10T08:44:49Z</time>
      </trkpt>
      <trkpt lat="49.13414" lon="-0.07552">
        <ele>9.8</ele>
        <time>2024-03-10T08:44:50Z</time>
      </trkpt>
      <trkpt lat="49.13412" lon="-0.07548">
        <ele>9.9</ele>
        <time>2024-03-10T08:44:51Z</time>
      </trkpt>
      <trkpt lat="49.1341" lon="-0.07542">
        <ele>10</ele>
        <time>2024-03-10T08:44:52Z</time>
      </trkpt>
      <trkpt lat="49.13409" lon="-0.07535">
        <ele>10.1</ele>
        <time>2024-03-10T08:44:53Z</time>
      </trkpt>
      <trkpt lat="49.13409" lon="-0.07527">
        <ele>10.1</ele>
        <time>2024-03-10T08:44:54Z</time>
      </trkpt>
      <trkpt lat="49.1341" lon="-0.0752">
        <ele>10.2</ele>
        <time>2024-03-10T08:44:55Z</time>
      </trkpt>
      <trkpt lat="49.1341" lon="-0.07511">
        <ele>10.3</ele>
        <time>2024-03-10T08:44:56Z</time>
      </trkpt>
      <trkpt lat="49.13411" lon="-0.07503">
        <ele>10.4</ele>
        <time>2024-03-10T08:44:57Z</time>
      </trkpt>
      <trkpt lat="49.13411" lon="-0.07494">
        <ele>10.5</ele>
        <time>2024-03-10T08:44:58Z</time>
      </trkpt>
      <trkpt lat="49.13412" lon="-0.07485">
        <ele>10.5</ele>
        <time>2024-03-10T08:44:59Z</time>
      </trkpt>
      <trkpt lat="49.13412" lon="-0.07475">
        <ele>10.6</ele>
        <time>2024-03-10T08:45:00Z</time>
      </trkpt>
      <trkpt lat="49.13412" lon="-0.07466">
        <ele>10.7</ele>
        <time>2024-03-10T08:45:01Z</time>
      </trkpt>
      <trkpt lat="49.13413" lon="-0.07457">
        <ele>10.7</ele>
        <time>2024-03-10T08:45:02Z</time>
      </trkpt>
      <trkpt lat="49.13413" lon="-0.07448">
        <ele>10.7</ele>
        <time>2024-03-10T08:45:03Z</time>
      </trkpt>
      <trkpt lat="49.13413" lon="-0.07438">
        <ele>10.8</ele>
        <time>2024-03-10T08:45:04Z</time>
      </trkpt>
      <trkpt lat="49.13414" lon="-0.07429">
        <ele>10.8</ele>
        <time>2024-03-10T08:45:05Z</time>
      </trkpt>
      <trkpt lat="49.13415" lon="-0.07419">
        <ele>10.8</ele>
        <time>2024-03-10T08:45:06Z</time>
      </trkpt>
      <trkpt lat="49.13415" lon="-0.07408">
        <ele>10.8</ele>
        <time>2024-03-10T08:45:07Z</time>
      </trkpt>
      <trkpt lat="49.13415" lon="-0.07398">
        <ele>10.8</ele>
        <time>2024-03-10T08:45:08Z</time>
      </trkpt>
      <trkpt lat="49.13416" lon="-0.07387">
        <ele>10.8</ele>
        <time>2024-03-10T08:45:09Z</time>
      </trkpt>
      <trkpt lat="49.13417" lon="-0.07377">
        <ele>10.8</ele>
        <time>2024-03-10T08:45:10Z</time>
      </trkpt>
      <trkpt lat="49.13417" lon="-0.07367">
        <ele>10.8</ele>
        <time>2024-03-10T08:45:11Z</time>
      </trkpt>
      <trkpt lat="49.13418" lon="-0.07356">
        <ele>10.8</ele>
        <time>2024-03-10T08:45:12Z</time>
      </trkpt>
      <trkpt lat="49.13419" lon="-0.07346">
        <ele>10.8</ele>
        <time>2024-03-10T08:45:13Z</time>
      </trkpt>
      <trkpt lat="49.13419" lon="-0.07336">
        <ele>10.8</ele>
        <time>2024-03-10T08:45:14Z</time>
      </trkpt>
      <trkpt lat="49.13419" lon="-0.07325">
        <ele>10.8</ele>
        <time>2024-03-10T08:45:15Z</time>
      </trkpt>
      <trkpt lat="49.1342" lon="-0.07314">
        <ele>10.8</ele>
        <time>2024-03-10T08:45:16Z</time>
      </trkpt>
      <trkpt lat="49.1342" lon="-0.07304">
        <ele>10.8</ele>
        <time>2024-03-10T08:45:17Z</time>
      </trkpt>
      <trkpt lat="49.13421" lon="-0.07293">
        <ele>10.8</ele>
        <time>2024-03-10T08:45:18Z</time>
      </trkpt>
      <trkpt lat="49.13422" lon="-0.07283">
        <ele>10.8</ele>
        <time>2024-03-10T08:45:19Z</time>
      </trkpt>
      <trkpt lat="49.13422" lon="-0.07272">
        <ele>10.8</ele>
        <time>2024-03-10T08:45:20Z</time>
      </trkpt>
      <trkpt lat="49.13423" lon="-0.07261">
        <ele>10.8</ele>
        <time>2024-03-10T08:45:21Z</time>
      </trkpt>
      <trkpt lat="49.13423" lon="-0.07251">
        <ele>10.8</ele>
        <time>2024-03-10T08:45:22Z</time>
      </trkpt>
      <trkpt lat="49.13424" lon="-0.0724">
        <ele>10.8</ele>
        <time>2024-03-10T08:45:23Z</time>
      </trkpt>
      <trkpt lat="49.13424" lon="-0.07229">
        <ele>10.8</ele>
        <time>2024-03-10T08:45:24Z</time>
      </trkpt>
      <trkpt lat="49.13424" lon="-0.07218">
        <ele>10.9</ele>
        <time>2024-03-10T08:45:25Z</time>
      </trkpt>
      <trkpt lat="49.13425" lon="-0.07207">
        <ele>10.9</ele>
        <time>2024-03-10T08:45:26Z</time>
      </trkpt>
      <trkpt lat="49.13425" lon="-0.07196">
        <ele>10.9</ele>
        <time>2024-03-10T08:45:27Z</time>
      </trkpt>
      <trkpt lat="49.13425" lon="-0.07185">
        <ele>10.9</ele>
        <time>2024-03-10T08:45:28Z</time>
      </trkpt>
      <trkpt lat="49.13425" lon="-0.07174">
        <ele>10.9</ele>
        <time>2024-03-10T08:45:29Z</time>
      </trkpt>
      <trkpt lat="49.13426" lon="-0.07163">
        <ele>10.9</ele>
        <time>2024-03-10T08:45:30Z</time>
      </trkpt>
      <trkpt lat="49.13426" lon="-0.07153">
        <ele>10.9</ele>
        <time>2024-03-10T08:45:31Z</time>
      </trkpt>
      <trkpt lat="49.13427" lon="-0.07142">
        <ele>10.9</ele>
        <time>2024-03-10T08:45:32Z</time>
      </trkpt>
      <trkpt lat="49.13427" lon="-0.07131">
        <ele>10.9</ele>
        <time>2024-03-10T08:45:33Z</time>
      </trkpt>
      <trkpt lat="49.13428" lon="-0.07121">
        <ele>10.9</ele>
        <time>2024-03-10T08:45:34Z</time>
      </trkpt>
      <trkpt lat="49.13429" lon="-0.0711">
        <ele>11</ele>
        <time>2024-03-10T08:45:35Z</time>
      </trkpt>
      <trkpt lat="49.13429" lon="-0.071">
        <ele>11</ele>
        <time>2024-03-10T08:45:36Z</time>
      </trkpt>
      <trkpt lat="49.1343" lon="-0.07089">
        <ele>11</ele>
        <time>2024-03-10T08:45:37Z</time>
      </trkpt>
      <trkpt lat="49.1343" lon="-0.07078">
        <ele>11</ele>
        <time>2024-03-10T08:45:38Z</time>
      </trkpt>
      <trkpt lat="49.13431" lon="-0.07067">
        <ele>11</ele>
        <time>2024-03-10T08:45:39Z</time>
      </trkpt>
      <trkpt lat="49.13431" lon="-0.07057">
        <ele>11.1</ele>
        <time>2024-03-10T08:45:40Z</time>
      </trkpt>
      <trkpt lat="49.13431" lon="-0.07046">
        <ele>11.1</ele>
        <time>2024-03-10T08:45:41Z</time>
      </trkpt>
      <trkpt lat="49.13432" lon="-0.07035">
        <ele>11.1</ele>
        <time>2024-03-10T08:45:42Z</time>
      </trkpt>
      <trkpt lat="49.13432" lon="-0.07024">
        <ele>11.2</ele>
        <time>2024-03-10T08:45:43Z</time>
      </trkpt>
      <trkpt lat="49.13432" lon="-0.07013">
        <ele>11.2</ele>
        <time>2024-03-10T08:45:44Z</time>
      </trkpt>
      <trkpt lat="49.13433" lon="-0.07003">
        <ele>11.2</ele>
        <time>2024-03-10T08:45:45Z</time>
      </trkpt>
      <trkpt lat="49.13434" lon="-0.06992">
        <ele>11.2</ele>
        <time>2024-03-10T08:45:46Z</time>
      </trkpt>
      <trkpt lat="49.13434" lon="-0.06982">
        <ele>11.2</ele>
        <time>2024-03-10T08:45:47Z</time>
      </trkpt>
      <trkpt lat="49.13435" lon="-0.0697">
        <ele>11.2</ele>
        <time>2024-03-10T08:45:48Z</time>
      </trkpt>
      <trkpt lat="49.13435" lon="-0.06959">
        <ele>11.2</ele>
        <time>2024-03-10T08:45:49Z</time>
      </trkpt>
      <trkpt lat="49.13436" lon="-0.06948">
        <ele>11.1</ele>
        <time>2024-03-10T08:45:50Z</time>
      </trkpt>
      <trkpt lat="49.13436" lon="-0.06937">
        <ele>11.1</ele>
        <time>2024-03-10T08:45:51Z</time>
      </trkpt>
      <trkpt lat="49.13436" lon="-0.06926">
        <ele>11.1</ele>
        <time>2024-03-10T08:45:52Z</time>
      </trkpt>
      <trkpt lat="49.13436" lon="-0.06915">
        <ele>11.1</ele>
        <time>2024-03-10T08:45:53Z</time>
      </trkpt>
      <trkpt lat="49.13437" lon="-0.06904">
        <ele>11.1</ele>
        <time>2024-03-10T08:45:54Z</time>
      </trkpt>
      <trkpt lat="49.13437" lon="-0.06893">
        <ele>11.1</ele>
        <time>2024-03-10T08:45:55Z</time>
      </trkpt>
      <trkpt lat="49.13438" lon="-0.06882">
        <ele>11</ele>
        <time>2024-03-10T08:45:56Z</time>
      </trkpt>
      <trkpt lat="49.13438" lon="-0.06871">
        <ele>11</ele>
        <time>2024-03-10T08:45:57Z</time>
      </trkpt>
      <trkpt lat="49.13439" lon="-0.0686">
        <ele>11</ele>
        <time>2024-03-10T08:45:58Z</time>
      </trkpt>
      <trkpt lat="49.1344" lon="-0.06849">
        <ele>11</ele>
        <time>2024-03-10T08:45:59Z</time>
      </trkpt>
      <trkpt lat="49.1344" lon="-0.06838">
        <ele>11</ele>
        <time>2024-03-10T08:46:00Z</time>
      </trkpt>
      <trkpt lat="49.13441" lon="-0.06827">
        <ele>10.9</ele>
        <time>2024-03-10T08:46:01Z</time>
      </trkpt>
      <trkpt lat="49.13441" lon="-0.06817">
        <ele>10.9</ele>
        <time>2024-03-10T08:46:02Z</time>
      </trkpt>
      <trkpt lat="49.1344" lon="-0.06806">
        <ele>10.9</ele>
        <time>2024-03-10T08:46:03Z</time>
      </trkpt>
      <trkpt lat="49.13437" lon="-0.06796">
        <ele>10.8</ele>
        <time>2024-03-10T08:46:04Z</time>
      </trkpt>
      <trkpt lat="49.13434" lon="-0.06786">
        <ele>10.8</ele>
        <time>2024-03-10T08:46:05Z</time>
      </trkpt>
      <trkpt lat="49.13429" lon="-0.06778">
        <ele>10.8</ele>
        <time>2024-03-10T08:46:06Z</time>
      </trkpt>
      <trkpt lat="49.13423" lon="-0.06771">
        <ele>10.7</ele>
        <time>2024-03-10T08:46:07Z</time>
      </trkpt>
      <trkpt lat="49.13416" lon="-0.06765">
        <ele>10.7</ele>
        <time>2024-03-10T08:46:08Z</time>
      </trkpt>
      <trkpt lat="49.13408" lon="-0.06761">
        <ele>10.7</ele>
        <time>2024-03-10T08:46:09Z</time>
      </trkpt>
      <trkpt lat="49.13401" lon="-0.06759">
        <ele>10.7</ele>
        <time>2024-03-10T08:46:10Z</time>
      </trkpt>
      <trkpt lat="49.13393" lon="-0.06758">
        <ele>10.7</ele>
        <time>2024-03-10T08:46:11Z</time>
      </trkpt>
      <trkpt lat="49.13386" lon="-0.06758">
        <ele>10.7</ele>
        <time>2024-03-10T08:46:12Z</time>
      </trkpt>
      <trkpt lat="49.13379" lon="-0.06757">
        <ele>10.7</ele>
        <time>2024-03-10T08:46:13Z</time>
      </trkpt>
      <trkpt lat="49.13371" lon="-0.06757">
        <ele>10.7</ele>
        <time>2024-03-10T08:46:14Z</time>
      </trkpt>
      <trkpt lat="49.13364" lon="-0.06757">
        <ele>10.7</ele>
        <time>2024-03-10T08:46:15Z</time>
      </trkpt>
      <trkpt lat="49.13357" lon="-0.06756">
        <ele>10.7</ele>
        <time>2024-03-10T08:46:16Z</time>
      </trkpt>
      <trkpt lat="49.13349" lon="-0.06756">
        <ele>10.7</ele>
        <time>2024-03-10T08:46:17Z</time>
      </trkpt>
      <trkpt lat="49.13342" lon="-0.06756">
        <ele>10.7</ele>
        <time>2024-03-10T08:46:18Z</time>
      </trkpt>
      <trkpt lat="49.13335" lon="-0.06756">
        <ele>10.7</ele>
        <time>2024-03-10T08:46:19Z</time>
      </trkpt>
      <trkpt lat="49.13328" lon="-0.06756">
        <ele>10.7</ele>
        <time>2024-03-10T08:46:20Z</time>
      </trkpt>
      <trkpt lat="49.1332" lon="-0.06756">
        <ele>10.7</ele>
        <time>2024-03-10T08:46:21Z</time>
      </trkpt>
      <trkpt lat="49.13313" lon="-0.06756">
        <ele>10.7</ele>
        <time>2024-03-10T08:46:22Z</time>
      </trkpt>
      <trkpt lat="49.13306" lon="-0.06756">
        <ele>10.7</ele>
        <time>2024-03-10T08:46:23Z</time>
      </trkpt>
      <trkpt lat="49.13299" lon="-0.06756">
        <ele>10.7</ele>
        <time>2024-03-10T08:46:24Z</time>
      </trkpt>
      <trkpt lat="49.13291" lon="-0.06756">
        <ele>10.7</ele>
        <time>2024-03-10T08:46:25Z</time>
      </trkpt>
      <trkpt lat="49.13284" lon="-0.06756">
        <ele>10.7</ele>
        <time>2024-03-10T08:46:26Z</time>
      </trkpt>
      <trkpt lat="49.13277" lon="-0.06756">
        <ele>10.6</ele>
        <time>2024-03-10T08:46:27Z</time>
      </trkpt>
      <trkpt lat="49.13269" lon="-0.06756">
        <ele>10.6</ele>
        <time>2024-03-10T08:46:28Z</time>
      </trkpt>
      <trkpt lat="49.13262" lon="-0.06757">
        <ele>10.6</ele>
        <time>2024-03-10T08:46:29Z</time>
      </trkpt>
      <trkpt lat="49.13255" lon="-0.06757">
        <ele>10.6</ele>
        <time>2024-03-10T08:46:30Z</time>
      </trkpt>
      <trkpt lat="49.13247" lon="-0.06757">
        <ele>10.6</ele>
        <time>2024-03-10T08:46:31Z</time>
      </trkpt>
      <trkpt lat="49.1324" lon="-0.06757">
        <ele>10.6</ele>
        <time>2024-03-10T08:46:32Z</time>
      </trkpt>
      <trkpt lat="49.13233" lon="-0.06757">
        <ele>10.6</ele>
        <time>2024-03-10T08:46:33Z</time>
      </trkpt>
      <trkpt lat="49.13226" lon="-0.06758">
        <ele>10.6</ele>
        <time>2024-03-10T08:46:34Z</time>
      </trkpt>
      <trkpt lat="49.13218" lon="-0.06758">
        <ele>10.6</ele>
        <time>2024-03-10T08:46:35Z</time>
      </trkpt>
      <trkpt lat="49.13211" lon="-0.06759">
        <ele>10.7</ele>
        <time>2024-03-10T08:46:36Z</time>
      </trkpt>
      <trkpt lat="49.13204" lon="-0.0676">
        <ele>10.7</ele>
        <time>2024-03-10T08:46:37Z</time>
      </trkpt>
      <trkpt lat="49.13196" lon="-0.06761">
        <ele>10.7</ele>
        <time>2024-03-10T08:46:38Z</time>
      </trkpt>
      <trkpt lat="49.13189" lon="-0.06762">
        <ele>10.7</ele>
        <time>2024-03-10T08:46:39Z</time>
      </trkpt>
      <trkpt lat="49.13182" lon="-0.06763">
        <ele>10.8</ele>
        <time>2024-03-10T08:46:40Z</time>
      </trkpt>
      <trkpt lat="49.13175" lon="-0.06765">
        <ele>10.8</ele>
        <time>2024-03-10T08:46:41Z</time>
      </trkpt>
      <trkpt lat="49.13168" lon="-0.06766">
        <ele>10.8</ele>
        <time>2024-03-10T08:46:42Z</time>
      </trkpt>
      <trkpt lat="49.13161" lon="-0.06767">
        <ele>10.8</ele>
        <time>2024-03-10T08:46:43Z</time>
      </trkpt>
      <trkpt lat="49.13154" lon="-0.06769">
        <ele>10.9</ele>
        <time>2024-03-10T08:46:44Z</time>
      </trkpt>
      <trkpt lat="49.13147" lon="-0.06771">
        <ele>10.9</ele>
        <time>2024-03-10T08:46:45Z</time>
      </trkpt>
      <trkpt lat="49.1314" lon="-0.06773">
        <ele>10.9</ele>
        <time>2024-03-10T08:46:46Z</time>
      </trkpt>
      <trkpt lat="49.13133" lon="-0.06775">
        <ele>10.9</ele>
        <time>2024-03-10T08:46:47Z</time>
      </trkpt>
      <trkpt lat="49.13126" lon="-0.06777">
        <ele>10.9</ele>
        <time>2024-03-10T08:46:48Z</time>
      </trkpt>
      <trkpt lat="49.13119" lon="-0.06779">
        <ele>10.9</ele>
        <time>2024-03-10T08:46:49Z</time>
      </trkpt>
      <trkpt lat="49.13112" lon="-0.0678">
        <ele>11</ele>
        <time>2024-03-10T08:46:50Z</time>
      </trkpt>
      <trkpt lat="49.13104" lon="-0.06782">
        <ele>11</ele>
        <time>2024-03-10T08:46:51Z</time>
      </trkpt>
      <trkpt lat="49.13097" lon="-0.06783">
        <ele>11</ele>
        <time>2024-03-10T08:46:52Z</time>
      </trkpt>
      <trkpt lat="49.1309" lon="-0.06785">
        <ele>11</ele>
        <time>2024-03-10T08:46:53Z</time>
      </trkpt>
      <trkpt lat="49.13083" lon="-0.06787">
        <ele>11.1</ele>
        <time>2024-03-10T08:46:54Z</time>
      </trkpt>
      <trkpt lat="49.13076" lon="-0.06788">
        <ele>11.1</ele>
        <time>2024-03-10T08:46:55Z</time>
      </trkpt>
      <trkpt lat="49.13068" lon="-0.0679">
        <ele>11.1</ele>
        <time>2024-03-10T08:46:56Z</time>
      </trkpt>
      <trkpt lat="49.13061" lon="-0.06791">
        <ele>11.1</ele>
        <time>2024-03-10T08:46:57Z</time>
      </trkpt>
      <trkpt lat="49.13054" lon="-0.06793">
        <ele>11.1</ele>
        <time>2024-03-10T08:46:58Z</time>
      </trkpt>
      <trkpt lat="49.13046" lon="-0.06794">
        <ele>11.2</ele>
        <time>2024-03-10T08:46:59Z</time>
      </trkpt>
      <trkpt lat="49.13039" lon="-0.06796">
        <ele>11.2</ele>
        <time>2024-03-10T08:47:00Z</time>
      </trkpt>
      <trkpt lat="49.13032" lon="-0.06797">
        <ele>11.2</ele>
        <time>2024-03-10T08:47:01Z</time>
      </trkpt>
      <trkpt lat="49.13025" lon="-0.06798">
        <ele>11.2</ele>
        <time>2024-03-10T08:47:02Z</time>
      </trkpt>
      <trkpt lat="49.13017" lon="-0.06799">
        <ele>11.2</ele>
        <time>2024-03-10T08:47:03Z</time>
      </trkpt>
      <trkpt lat="49.1301" lon="-0.068">
        <ele>11.2</ele>
        <time>2024-03-10T08:47:04Z</time>
      </trkpt>
      <trkpt lat="49.13003" lon="-0.068">
        <ele>11.3</ele>
        <time>2024-03-10T08:47:05Z</time>
      </trkpt>
      <trkpt lat="49.12995" lon="-0.06799">
        <ele>11.3</ele>
        <time>2024-03-10T08:47:06Z</time>
      </trkpt>
      <trkpt lat="49.12988" lon="-0.06797">
        <ele>11.3</ele>
        <time>2024-03-10T08:47:07Z</time>
      </trkpt>
      <trkpt lat="49.12981" lon="-0.06794">
        <ele>11.4</ele>
        <time>2024-03-10T08:47:08Z</time>
      </trkpt>
      <trkpt lat="49.12974" lon="-0.06791">
        <ele>11.4</ele>
        <time>2024-03-10T08:47:09Z</time>
      </trkpt>
      <trkpt lat="49.12967" lon="-0.06787">
        <ele>11.5</ele>
        <time>2024-03-10T08:47:10Z</time>
      </trkpt>
      <trkpt lat="49.1296" lon="-0.06783">
        <ele>11.5</ele>
        <time>2024-03-10T08:47:11Z</time>
      </trkpt>
      <trkpt lat="49.12953" lon="-0.06779">
        <ele>11.5</ele>
        <time>2024-03-10T08:47:12Z</time>
      </trkpt>
      <trkpt lat="49.12946" lon="-0.06774">
        <ele>11.6</ele>
        <time>2024-03-10T08:47:13Z</time>
      </trkpt>
      <trkpt lat="49.12939" lon="-0.0677">
        <ele>11.6</ele>
        <time>2024-03-10T08:47:14Z</time>
      </trkpt>
      <trkpt lat="49.12932" lon="-0.06765">
        <ele>11.6</ele>
        <time>2024-03-10T08:47:15Z</time>
      </trkpt>
      <trkpt lat="49.12926" lon="-0.06761">
        <ele>11.6</ele>
        <time>2024-03-10T08:47:16Z</time>
      </trkpt>
      <trkpt lat="49.12919" lon="-0.06756">
        <ele>11.6</ele>
        <time>2024-03-10T08:47:17Z</time>
      </trkpt>
      <trkpt lat="49.12912" lon="-0.06751">
        <ele>11.6</ele>
        <time>2024-03-10T08:47:18Z</time>
      </trkpt>
      <trkpt lat="49.12905" lon="-0.06747">
        <ele>11.7</ele>
        <time>2024-03-10T08:47:19Z</time>
      </trkpt>
      <trkpt lat="49.12898" lon="-0.06742">
        <ele>11.7</ele>
        <time>2024-03-10T08:47:20Z</time>
      </trkpt>
      <trkpt lat="49.12891" lon="-0.06738">
        <ele>11.7</ele>
        <time>2024-03-10T08:47:21Z</time>
      </trkpt>
      <trkpt lat="49.12884" lon="-0.06734">
        <ele>11.7</ele>
        <time>2024-03-10T08:47:22Z</time>
      </trkpt>
      <trkpt lat="49.12877" lon="-0.0673">
        <ele>11.7</ele>
        <time>2024-03-10T08:47:23Z</time>
      </trkpt>
      <trkpt lat="49.12871" lon="-0.06726">
        <ele>11.7</ele>
        <time>2024-03-10T08:47:24Z</time>
      </trkpt>
      <trkpt lat="49.12864" lon="-0.06722">
        <ele>11.8</ele>
        <time>2024-03-10T08:47:25Z</time>
      </trkpt>
      <trkpt lat="49.12857" lon="-0.06718">
        <ele>11.8</ele>
        <time>2024-03-10T08:47:26Z</time>
      </trkpt>
      <trkpt lat="49.12851" lon="-0.06715">
        <ele>11.8</ele>
        <time>2024-03-10T08:47:27Z</time>
      </trkpt>
      <trkpt lat="49.12844" lon="-0.06712">
        <ele>11.9</ele>
        <time>2024-03-10T08:47:28Z</time>
      </trkpt>
      <trkpt lat="49.12837" lon="-0.06709">
        <ele>11.9</ele>
        <time>2024-03-10T08:47:29Z</time>
      </trkpt>
      <trkpt lat="49.1283" lon="-0.06706">
        <ele>11.9</ele>
        <time>2024-03-10T08:47:30Z</time>
      </trkpt>
      <trkpt lat="49.12823" lon="-0.06704">
        <ele>11.9</ele>
        <time>2024-03-10T08:47:31Z</time>
      </trkpt>
      <trkpt lat="49.12816" lon="-0.06702">
        <ele>12</ele>
        <time>2024-03-10T08:47:32Z</time>
      </trkpt>
      <trkpt lat="49.12809" lon="-0.06699">
        <ele>12</ele>
        <time>2024-03-10T08:47:33Z</time>
      </trkpt>
      <trkpt lat="49.12802" lon="-0.06697">
        <ele>12</ele>
        <time>2024-03-10T08:47:34Z</time>
      </trkpt>
      <trkpt lat="49.12795" lon="-0.06695">
        <ele>12.1</ele>
        <time>2024-03-10T08:47:35Z</time>
      </trkpt>
      <trkpt lat="49.12787" lon="-0.06693">
        <ele>12.1</ele>
        <time>2024-03-10T08:47:36Z</time>
      </trkpt>
      <trkpt lat="49.1278" lon="-0.06691">
        <ele>12.1</ele>
        <time>2024-03-10T08:47:37Z</time>
      </trkpt>
      <trkpt lat="49.12773" lon="-0.0669">
        <ele>12.2</ele>
        <time>2024-03-10T08:47:38Z</time>
      </trkpt>
      <trkpt lat="49.12765" lon="-0.0669">
        <ele>12.2</ele>
        <time>2024-03-10T08:47:39Z</time>
      </trkpt>
      <trkpt lat="49.12758" lon="-0.0669">
        <ele>12.2</ele>
        <time>2024-03-10T08:47:40Z</time>
      </trkpt>
      <trkpt lat="49.12751" lon="-0.0669">
        <ele>12.2</ele>
        <time>2024-03-10T08:47:41Z</time>
      </trkpt>
      <trkpt lat="49.12744" lon="-0.0669">
        <ele>12.2</ele>
        <time>2024-03-10T08:47:42Z</time>
      </trkpt>
      <trkpt lat="49.12738" lon="-0.0669">
        <ele>12.2</ele>
        <time>2024-03-10T08:47:43Z</time>
      </trkpt>
      <trkpt lat="49.12731" lon="-0.06691">
        <ele>12.2</ele>
        <time>2024-03-10T08:47:44Z</time>
      </trkpt>
      <trkpt lat="49.12725" lon="-0.06691">
        <ele>12.2</ele>
        <time>2024-03-10T08:47:45Z</time>
      </trkpt>
      <trkpt lat="49.12718" lon="-0.06692">
        <ele>12.2</ele>
        <time>2024-03-10T08:47:46Z</time>
      </trkpt>
      <trkpt lat="49.12712" lon="-0.06692">
        <ele>12.2</ele>
        <time>2024-03-10T08:47:47Z</time>
      </trkpt>
      <trkpt lat="49.12707" lon="-0.06692">
        <ele>12.2</ele>
        <time>2024-03-10T08:47:48Z</time>
      </trkpt>
      <trkpt lat="49.12702" lon="-0.06692">
        <ele>12.2</ele>
        <time>2024-03-10T08:47:49Z</time>
      </trkpt>
      <trkpt lat="49.12696" lon="-0.06692">
        <ele>12.1</ele>
        <time>2024-03-10T08:47:50Z</time>
      </trkpt>
      <trkpt lat="49.12691" lon="-0.06692">
        <ele>12.1</ele>
        <time>2024-03-10T08:47:51Z</time>
      </trkpt>
      <trkpt lat="49.12687" lon="-0.06692">
        <ele>12.1</ele>
        <time>2024-03-10T08:47:52Z</time>
      </trkpt>
      <trkpt lat="49.12682" lon="-0.06692">
        <ele>12.1</ele>
        <time>2024-03-10T08:47:53Z</time>
      </trkpt>
      <trkpt lat="49.12676" lon="-0.06692">
        <ele>12.1</ele>
        <time>2024-03-10T08:47:54Z</time>
      </trkpt>
      <trkpt lat="49.12671" lon="-0.06692">
        <ele>12</ele>
        <time>2024-03-10T08:47:55Z</time>
      </trkpt>
      <trkpt lat="49.12665" lon="-0.06692">
        <ele>12</ele>
        <time>2024-03-10T08:47:56Z</time>
      </trkpt>
      <trkpt lat="49.12659" lon="-0.06692">
        <ele>12</ele>
        <time>2024-03-10T08:47:57Z</time>
      </trkpt>
      <trkpt lat="49.12652" lon="-0.06691">
        <ele>12</ele>
        <time>2024-03-10T08:47:58Z</time>
      </trkpt>
      <trkpt lat="49.12645" lon="-0.06691">
        <ele>12</ele>
        <time>2024-03-10T08:47:59Z</time>
      </trkpt>
      <trkpt lat="49.12638" lon="-0.06691">
        <ele>12</ele>
        <time>2024-03-10T08:48:00Z</time>
      </trkpt>
      <trkpt lat="49.1263" lon="-0.06691">
        <ele>11.9</ele>
        <time>2024-03-10T08:48:01Z</time>
      </trkpt>
      <trkpt lat="49.12623" lon="-0.06692">
        <ele>11.9</ele>
        <time>2024-03-10T08:48:02Z</time>
      </trkpt>
      <trkpt lat="49.12615" lon="-0.06691">
        <ele>11.9</ele>
        <time>2024-03-10T08:48:03Z</time>
      </trkpt>
      <trkpt lat="49.12607" lon="-0.06691">
        <ele>11.9</ele>
        <time>2024-03-10T08:48:04Z</time>
      </trkpt>
      <trkpt lat="49.12599" lon="-0.06691">
        <ele>11.8</ele>
        <time>2024-03-10T08:48:05Z</time>
      </trkpt>
      <trkpt lat="49.12591" lon="-0.0669">
        <ele>11.8</ele>
        <time>2024-03-10T08:48:06Z</time>
      </trkpt>
      <trkpt lat="49.12583" lon="-0.06689">
        <ele>11.8</ele>
        <time>2024-03-10T08:48:07Z</time>
      </trkpt>
      <trkpt lat="49.12575" lon="-0.06689">
        <ele>11.8</ele>
        <time>2024-03-10T08:48:08Z</time>
      </trkpt>
      <trkpt lat="49.12567" lon="-0.06689">
        <ele>11.8</ele>
        <time>2024-03-10T08:48:09Z</time>
      </trkpt>
      <trkpt lat="49.12559" lon="-0.06689">
        <ele>11.8</ele>
        <time>2024-03-10T08:48:10Z</time>
      </trkpt>
      <trkpt lat="49.1255" lon="-0.0669">
        <ele>11.8</ele>
        <time>2024-03-10T08:48:11Z</time>
      </trkpt>
      <trkpt lat="49.12542" lon="-0.06691">
        <ele>11.8</ele>
        <time>2024-03-10T08:48:12Z</time>
      </trkpt>
      <trkpt lat="49.12534" lon="-0.06692">
        <ele>11.8</ele>
        <time>2024-03-10T08:48:13Z</time>
      </trkpt>
      <trkpt lat="49.12525" lon="-0.06691">
        <ele>11.8</ele>
        <time>2024-03-10T08:48:14Z</time>
      </trkpt>
      <trkpt lat="49.12517" lon="-0.06692">
        <ele>11.8</ele>
        <time>2024-03-10T08:48:15Z</time>
      </trkpt>
      <trkpt lat="49.12508" lon="-0.06692">
        <ele>11.8</ele>
        <time>2024-03-10T08:48:16Z</time>
      </trkpt>
      <trkpt lat="49.125" lon="-0.06692">
        <ele>11.8</ele>
        <time>2024-03-10T08:48:17Z</time>
      </trkpt>
      <trkpt lat="49.12493" lon="-0.06693">
        <ele>11.8</ele>
        <time>2024-03-10T08:48:18Z</time>
      </trkpt>
      <trkpt lat="49.12485" lon="-0.06693">
        <ele>11.8</ele>
        <time>2024-03-10T08:48:19Z</time>
      </trkpt>
      <trkpt lat="49.12477" lon="-0.06693">
        <ele>11.8</ele>
        <time>2024-03-10T08:48:20Z</time>
      </trkpt>
      <trkpt lat="49.1247" lon="-0.06692">
        <ele>11.8</ele>
        <time>2024-03-10T08:48:21Z</time>
      </trkpt>
      <trkpt lat="49.12463" lon="-0.06692">
        <ele>11.7</ele>
        <time>2024-03-10T08:48:22Z</time>
      </trkpt>
      <trkpt lat="49.12456" lon="-0.06692">
        <ele>11.7</ele>
        <time>2024-03-10T08:48:23Z</time>
      </trkpt>
      <trkpt lat="49.12448" lon="-0.06692">
        <ele>11.7</ele>
        <time>2024-03-10T08:48:24Z</time>
      </trkpt>
      <trkpt lat="49.12441" lon="-0.06692">
        <ele>11.7</ele>
        <time>2024-03-10T08:48:25Z</time>
      </trkpt>
      <trkpt lat="49.12434" lon="-0.06692">
        <ele>11.8</ele>
        <time>2024-03-10T08:48:26Z</time>
      </trkpt>
      <trkpt lat="49.12426" lon="-0.06693">
        <ele>11.8</ele>
        <time>2024-03-10T08:48:27Z</time>
      </trkpt>
      <trkpt lat="49.12419" lon="-0.06693">
        <ele>11.8</ele>
        <time>2024-03-10T08:48:28Z</time>
      </trkpt>
      <trkpt lat="49.12412" lon="-0.06693">
        <ele>11.8</ele>
        <time>2024-03-10T08:48:29Z</time>
      </trkpt>
      <trkpt lat="49.12405" lon="-0.06693">
        <ele>11.8</ele>
        <time>2024-03-10T08:48:30Z</time>
      </trkpt>
      <trkpt lat="49.12398" lon="-0.06693">
        <ele>11.8</ele>
        <time>2024-03-10T08:48:31Z</time>
      </trkpt>
      <trkpt lat="49.12391" lon="-0.06693">
        <ele>11.9</ele>
        <time>2024-03-10T08:48:32Z</time>
      </trkpt>
      <trkpt lat="49.12383" lon="-0.06693">
        <ele>11.9</ele>
        <time>2024-03-10T08:48:33Z</time>
      </trkpt>
      <trkpt lat="49.12376" lon="-0.06693">
        <ele>11.9</ele>
        <time>2024-03-10T08:48:34Z</time>
      </trkpt>
      <trkpt lat="49.12369" lon="-0.06693">
        <ele>11.9</ele>
        <time>2024-03-10T08:48:35Z</time>
      </trkpt>
      <trkpt lat="49.12361" lon="-0.06693">
        <ele>12</ele>
        <time>2024-03-10T08:48:36Z</time>
      </trkpt>
      <trkpt lat="49.12354" lon="-0.06693">
        <ele>12</ele>
        <time>2024-03-10T08:48:37Z</time>
      </trkpt>
      <trkpt lat="49.12347" lon="-0.06693">
        <ele>12</ele>
        <time>2024-03-10T08:48:38Z</time>
      </trkpt>
      <trkpt lat="49.12339" lon="-0.06694">
        <ele>12</ele>
        <time>2024-03-10T08:48:39Z</time>
      </trkpt>
      <trkpt lat="49.12332" lon="-0.06693">
        <ele>12.1</ele>
        <time>2024-03-10T08:48:40Z</time>
      </trkpt>
      <trkpt lat="49.12324" lon="-0.06693">
        <ele>12.1</ele>
        <time>2024-03-10T08:48:41Z</time>
      </trkpt>
      <trkpt lat="49.12317" lon="-0.06693">
        <ele>12.3</ele>
        <time>2024-03-10T08:48:42Z</time>
      </trkpt>
      <trkpt lat="49.12309" lon="-0.06694">
        <ele>12.3</ele>
        <time>2024-03-10T08:48:43Z</time>
      </trkpt>
      <trkpt lat="49.12301" lon="-0.06694">
        <ele>12.3</ele>
        <time>2024-03-10T08:48:44Z</time>
      </trkpt>
      <trkpt lat="49.12294" lon="-0.06694">
        <ele>12.3</ele>
        <time>2024-03-10T08:48:45Z</time>
      </trkpt>
      <trkpt lat="49.12287" lon="-0.06694">
        <ele>12.4</ele>
        <time>2024-03-10T08:48:46Z</time>
      </trkpt>
      <trkpt lat="49.1228" lon="-0.06694">
        <ele>12.4</ele>
        <time>2024-03-10T08:48:47Z</time>
      </trkpt>
      <trkpt lat="49.12273" lon="-0.06694">
        <ele>12.5</ele>
        <time>2024-03-10T08:48:48Z</time>
      </trkpt>
      <trkpt lat="49.12266" lon="-0.06694">
        <ele>12.5</ele>
        <time>2024-03-10T08:48:49Z</time>
      </trkpt>
      <trkpt lat="49.12259" lon="-0.06694">
        <ele>12.5</ele>
        <time>2024-03-10T08:48:50Z</time>
      </trkpt>
      <trkpt lat="49.12252" lon="-0.06695">
        <ele>12.5</ele>
        <time>2024-03-10T08:48:51Z</time>
      </trkpt>
      <trkpt lat="49.12245" lon="-0.06695">
        <ele>12.6</ele>
        <time>2024-03-10T08:48:52Z</time>
      </trkpt>
      <trkpt lat="49.12239" lon="-0.06695">
        <ele>12.6</ele>
        <time>2024-03-10T08:48:53Z</time>
      </trkpt>
      <trkpt lat="49.12232" lon="-0.06695">
        <ele>12.6</ele>
        <time>2024-03-10T08:48:54Z</time>
      </trkpt>
      <trkpt lat="49.12225" lon="-0.06695">
        <ele>12.5</ele>
        <time>2024-03-10T08:48:55Z</time>
      </trkpt>
      <trkpt lat="49.12218" lon="-0.06695">
        <ele>12.5</ele>
        <time>2024-03-10T08:48:56Z</time>
      </trkpt>
      <trkpt lat="49.12211" lon="-0.06695">
        <ele>12.5</ele>
        <time>2024-03-10T08:48:57Z</time>
      </trkpt>
      <trkpt lat="49.12204" lon="-0.06695">
        <ele>12.5</ele>
        <time>2024-03-10T08:48:58Z</time>
      </trkpt>
      <trkpt lat="49.12196" lon="-0.06695">
        <ele>12.4</ele>
        <time>2024-03-10T08:48:59Z</time>
      </trkpt>
      <trkpt lat="49.12189" lon="-0.06696">
        <ele>12.4</ele>
        <time>2024-03-10T08:49:00Z</time>
      </trkpt>
      <trkpt lat="49.12182" lon="-0.06697">
        <ele>12.4</ele>
        <time>2024-03-10T08:49:01Z</time>
      </trkpt>
      <trkpt lat="49.12175" lon="-0.06698">
        <ele>12.4</ele>
        <time>2024-03-10T08:49:02Z</time>
      </trkpt>
      <trkpt lat="49.12168" lon="-0.06698">
        <ele>12.4</ele>
        <time>2024-03-10T08:49:03Z</time>
      </trkpt>
      <trkpt lat="49.12161" lon="-0.06699">
        <ele>12.4</ele>
        <time>2024-03-10T08:49:04Z</time>
      </trkpt>
      <trkpt lat="49.12154" lon="-0.06701">
        <ele>12.3</ele>
        <time>2024-03-10T08:49:05Z</time>
      </trkpt>
      <trkpt lat="49.12147" lon="-0.06702">
        <ele>12.3</ele>
        <time>2024-03-10T08:49:06Z</time>
      </trkpt>
      <trkpt lat="49.1214" lon="-0.06703">
        <ele>12.3</ele>
        <time>2024-03-10T08:49:07Z</time>
      </trkpt>
      <trkpt lat="49.12133" lon="-0.06705">
        <ele>12.3</ele>
        <time>2024-03-10T08:49:08Z</time>
      </trkpt>
      <trkpt lat="49.12126" lon="-0.06707">
        <ele>12.3</ele>
        <time>2024-03-10T08:49:09Z</time>
      </trkpt>
      <trkpt lat="49.1212" lon="-0.06709">
        <ele>12.3</ele>
        <time>2024-03-10T08:49:10Z</time>
      </trkpt>
      <trkpt lat="49.12113" lon="-0.06712">
        <ele>12.3</ele>
        <time>2024-03-10T08:49:11Z</time>
      </trkpt>
      <trkpt lat="49.12107" lon="-0.06713">
        <ele>12.4</ele>
        <time>2024-03-10T08:49:12Z</time>
      </trkpt>
      <trkpt lat="49.121" lon="-0.06715">
        <ele>12.4</ele>
        <time>2024-03-10T08:49:13Z</time>
      </trkpt>
      <trkpt lat="49.12093" lon="-0.06717">
        <ele>12.5</ele>
        <time>2024-03-10T08:49:14Z</time>
      </trkpt>
      <trkpt lat="49.12087" lon="-0.0672">
        <ele>12.5</ele>
        <time>2024-03-10T08:49:15Z</time>
      </trkpt>
      <trkpt lat="49.1208" lon="-0.06722">
        <ele>12.6</ele>
        <time>2024-03-10T08:49:16Z</time>
      </trkpt>
      <trkpt lat="49.12073" lon="-0.06724">
        <ele>12.7</ele>
        <time>2024-03-10T08:49:17Z</time>
      </trkpt>
      <trkpt lat="49.12067" lon="-0.06726">
        <ele>12.8</ele>
        <time>2024-03-10T08:49:18Z</time>
      </trkpt>
      <trkpt lat="49.12061" lon="-0.06729">
        <ele>12.8</ele>
        <time>2024-03-10T08:49:19Z</time>
      </trkpt>
      <trkpt lat="49.12055" lon="-0.06731">
        <ele>12.9</ele>
        <time>2024-03-10T08:49:20Z</time>
      </trkpt>
      <trkpt lat="49.1205" lon="-0.06734">
        <ele>13</ele>
        <time>2024-03-10T08:49:21Z</time>
      </trkpt>
      <trkpt lat="49.12045" lon="-0.06736">
        <ele>13.1</ele>
        <time>2024-03-10T08:49:22Z</time>
      </trkpt>
      <trkpt lat="49.1204" lon="-0.06739">
        <ele>13.2</ele>
        <time>2024-03-10T08:49:23Z</time>
      </trkpt>
      <trkpt lat="49.12035" lon="-0.06741">
        <ele>13.3</ele>
        <time>2024-03-10T08:49:24Z</time>
      </trkpt>
      <trkpt lat="49.1203" lon="-0.06743">
        <ele>13.4</ele>
        <time>2024-03-10T08:49:25Z</time>
      </trkpt>
      <trkpt lat="49.12025" lon="-0.06744">
        <ele>13.5</ele>
        <time>2024-03-10T08:49:26Z</time>
      </trkpt>
      <trkpt lat="49.12021" lon="-0.06745">
        <ele>13.5</ele>
        <time>2024-03-10T08:49:27Z</time>
      </trkpt>
      <trkpt lat="49.12017" lon="-0.06747">
        <ele>13.6</ele>
        <time>2024-03-10T08:49:28Z</time>
      </trkpt>
      <trkpt lat="49.12013" lon="-0.06748">
        <ele>13.7</ele>
        <time>2024-03-10T08:49:29Z</time>
      </trkpt>
      <trkpt lat="49.12008" lon="-0.06749">
        <ele>13.8</ele>
        <time>2024-03-10T08:49:30Z</time>
      </trkpt>
      <trkpt lat="49.12005" lon="-0.0675">
        <ele>13.9</ele>
        <time>2024-03-10T08:49:31Z</time>
      </trkpt>
      <trkpt lat="49.12001" lon="-0.06751">
        <ele>14</ele>
        <time>2024-03-10T08:49:32Z</time>
      </trkpt>
      <trkpt lat="49.11999" lon="-0.06751">
        <ele>14.1</ele>
        <time>2024-03-10T08:49:33Z</time>
      </trkpt>
      <trkpt lat="49.11995" lon="-0.06751">
        <ele>14.2</ele>
        <time>2024-03-10T08:49:34Z</time>
      </trkpt>
      <trkpt lat="49.11994" lon="-0.06751">
        <ele>14.2</ele>
        <time>2024-03-10T08:49:35Z</time>
      </trkpt>
      <trkpt lat="49.11993" lon="-0.06751">
        <ele>14.3</ele>
        <time>2024-03-10T08:49:36Z</time>
      </trkpt>
      <trkpt lat="49.11993" lon="-0.06751">
        <ele>14.3</ele>
        <time>2024-03-10T08:49:37Z</time>
      </trkpt>
      <trkpt lat="49.11993" lon="-0.06751">
        <ele>14.3</ele>
        <time>2024-03-10T08:49:38Z</time>
      </trkpt>
      <trkpt lat="49.11993" lon="-0.06751">
        <ele>14.3</ele>
        <time>2024-03-10T08:49:39Z</time>
      </trkpt>
      <trkpt lat="49.11993" lon="-0.06751">
        <ele>14.3</ele>
        <time>2024-03-10T08:49:40Z</time>
      </trkpt>
      <trkpt lat="49.11992" lon="-0.06751">
        <ele>14.3</ele>
        <time>2024-03-10T08:49:41Z</time>
      </trkpt>
      <trkpt lat="49.11992" lon="-0.06751">
        <ele>14.3</ele>
        <time>2024-03-10T08:49:42Z</time>
      </trkpt>
      <trkpt lat="49.11992" lon="-0.06751">
        <ele>14.3</ele>
        <time>2024-03-10T08:49:43Z</time>
      </trkpt>
      <trkpt lat="49.11992" lon="-0.06751">
        <ele>14.3</ele>
        <time>2024-03-10T08:49:44Z</time>
      </trkpt>
      <trkpt lat="49.11992" lon="-0.06751">
        <ele>14.3</ele>
        <time>2024-03-10T08:49:45Z</time>
      </trkpt>
      <trkpt lat="49.11992" lon="-0.06751">
        <ele>14.3</ele>
        <time>2024-03-10T08:49:46Z</time>
      </trkpt>
      <trkpt lat="49.11992" lon="-0.06751">
        <ele>14.3</ele>
        <time>2024-03-10T08:49:47Z</time>
      </trkpt>
      <trkpt lat="49.11992" lon="-0.06751">
        <ele>14.3</ele>
        <time>2024-03-10T08:49:48Z</time>
      </trkpt>
      <trkpt lat="49.11991" lon="-0.06751">
        <ele>14.3</ele>
        <time>2024-03-10T08:49:49Z</time>
      </trkpt>
      <trkpt lat="49.11991" lon="-0.06751">
        <ele>14.3</ele>
        <time>2024-03-10T08:49:50Z</time>
      </trkpt>
      <trkpt lat="49.11991" lon="-0.06751">
        <ele>14.3</ele>
        <time>2024-03-10T08:49:51Z</time>
      </trkpt>
      <trkpt lat="49.11991" lon="-0.06751">
        <ele>14.3</ele>
        <time>2024-03-10T08:49:52Z</time>
      </trkpt>
      <trkpt lat="49.11991" lon="-0.06751">
        <ele>14.3</ele>
        <time>2024-03-10T08:49:53Z</time>
      </trkpt>
      <trkpt lat="49.11991" lon="-0.06751">
        <ele>14.4</ele>
        <time>2024-03-10T08:49:54Z</time>
      </trkpt>
      <trkpt lat="49.11991" lon="-0.06751">
        <ele>14.4</ele>
        <time>2024-03-10T08:49:55Z</time>
      </trkpt>
      <trkpt lat="49.11989" lon="-0.06751">
        <ele>14.4</ele>
        <time>2024-03-10T08:49:56Z</time>
      </trkpt>
      <trkpt lat="49.11988" lon="-0.06749">
        <ele>14.4</ele>
        <time>2024-03-10T08:49:57Z</time>
      </trkpt>
      <trkpt lat="49.11986" lon="-0.06745">
        <ele>14.3</ele>
        <time>2024-03-10T08:49:58Z</time>
      </trkpt>
      <trkpt lat="49.11985" lon="-0.06744">
        <ele>14.3</ele>
        <time>2024-03-10T08:49:59Z</time>
      </trkpt>
      <trkpt lat="49.11984" lon="-0.06738">
        <ele>14.3</ele>
        <time>2024-03-10T08:50:00Z</time>
      </trkpt>
      <trkpt lat="49.11984" lon="-0.06736">
        <ele>14.3</ele>
        <time>2024-03-10T08:50:01Z</time>
      </trkpt>
      <trkpt lat="49.11984" lon="-0.06731">
        <ele>14.2</ele>
        <time>2024-03-10T08:50:02Z</time>
      </trkpt>
      <trkpt lat="49.11983" lon="-0.06726">
        <ele>14.2</ele>
        <time>2024-03-10T08:50:03Z</time>
      </trkpt>
      <trkpt lat="49.11983" lon="-0.06721">
        <ele>14.2</ele>
        <time>2024-03-10T08:50:04Z</time>
      </trkpt>
      <trkpt lat="49.11982" lon="-0.06715">
        <ele>14.1</ele>
        <time>2024-03-10T08:50:05Z</time>
      </trkpt>
      <trkpt lat="49.11981" lon="-0.0671">
        <ele>14.1</ele>
        <time>2024-03-10T08:50:06Z</time>
      </trkpt>
      <trkpt lat="49.1198" lon="-0.06703">
        <ele>14.1</ele>
        <time>2024-03-10T08:50:07Z</time>
      </trkpt>
      <trkpt lat="49.11979" lon="-0.06697">
        <ele>14</ele>
        <time>2024-03-10T08:50:08Z</time>
      </trkpt>
      <trkpt lat="49.11978" lon="-0.0669">
        <ele>14</ele>
        <time>2024-03-10T08:50:09Z</time>
      </trkpt>
      <trkpt lat="49.11978" lon="-0.06683">
        <ele>13.9</ele>
        <time>2024-03-10T08:50:10Z</time>
      </trkpt>
      <trkpt lat="49.11977" lon="-0.06676">
        <ele>13.9</ele>
        <time>2024-03-10T08:50:11Z</time>
      </trkpt>
      <trkpt lat="49.11977" lon="-0.0667">
        <ele>13.8</ele>
        <time>2024-03-10T08:50:12Z</time>
      </trkpt>
      <trkpt lat="49.11976" lon="-0.06663">
        <ele>13.8</ele>
        <time>2024-03-10T08:50:13Z</time>
      </trkpt>
      <trkpt lat="49.11976" lon="-0.06657">
        <ele>13.7</ele>
        <time>2024-03-10T08:50:14Z</time>
      </trkpt>
      <trkpt lat="49.11976" lon="-0.06651">
        <ele>13.7</ele>
        <time>2024-03-10T08:50:15Z</time>
      </trkpt>
      <trkpt lat="49.11976" lon="-0.06645">
        <ele>13.7</ele>
        <time>2024-03-10T08:50:16Z</time>
      </trkpt>
      <trkpt lat="49.11975" lon="-0.06639">
        <ele>13.6</ele>
        <time>2024-03-10T08:50:17Z</time>
      </trkpt>
      <trkpt lat="49.11975" lon="-0.06633">
        <ele>13.6</ele>
        <time>2024-03-10T08:50:18Z</time>
      </trkpt>
      <trkpt lat="49.11975" lon="-0.06627">
        <ele>13.6</ele>
        <time>2024-03-10T08:50:19Z</time>
      </trkpt>
      <trkpt lat="49.11975" lon="-0.06621">
        <ele>13.5</ele>
        <time>2024-03-10T08:50:20Z</time>
      </trkpt>
      <trkpt lat="49.11975" lon="-0.06614">
        <ele>13.5</ele>
        <time>2024-03-10T08:50:21Z</time>
      </trkpt>
      <trkpt lat="49.11974" lon="-0.06607">
        <ele>13.4</ele>
        <time>2024-03-10T08:50:22Z</time>
      </trkpt>
      <trkpt lat="49.11974" lon="-0.066">
        <ele>13.4</ele>
        <time>2024-03-10T08:50:23Z</time>
      </trkpt>
      <trkpt lat="49.11975" lon="-0.06592">
        <ele>13.3</ele>
        <time>2024-03-10T08:50:24Z</time>
      </trkpt>
      <trkpt lat="49.11975" lon="-0.06584">
        <ele>13.3</ele>
        <time>2024-03-10T08:50:25Z</time>
      </trkpt>
      <trkpt lat="49.11975" lon="-0.06577">
        <ele>13.2</ele>
        <time>2024-03-10T08:50:26Z</time>
      </trkpt>
      <trkpt lat="49.11975" lon="-0.06569">
        <ele>13.2</ele>
        <time>2024-03-10T08:50:27Z</time>
      </trkpt>
      <trkpt lat="49.11976" lon="-0.06561">
        <ele>13.1</ele>
        <time>2024-03-10T08:50:28Z</time>
      </trkpt>
      <trkpt lat="49.11976" lon="-0.06553">
        <ele>13.1</ele>
        <time>2024-03-10T08:50:29Z</time>
      </trkpt>
      <trkpt lat="49.11977" lon="-0.06545">
        <ele>13</ele>
        <time>2024-03-10T08:50:30Z</time>
      </trkpt>
      <trkpt lat="49.11977" lon="-0.06536">
        <ele>13</ele>
        <time>2024-03-10T08:50:31Z</time>
      </trkpt>
      <trkpt lat="49.11978" lon="-0.06528">
        <ele>12.9</ele>
        <time>2024-03-10T08:50:32Z</time>
      </trkpt>
      <trkpt lat="49.11979" lon="-0.0652">
        <ele>12.8</ele>
        <time>2024-03-10T08:50:33Z</time>
      </trkpt>
      <trkpt lat="49.1198" lon="-0.06511">
        <ele>12.7</ele>
        <time>2024-03-10T08:50:34Z</time>
      </trkpt>
      <trkpt lat="49.1198" lon="-0.06503">
        <ele>12.7</ele>
        <time>2024-03-10T08:50:35Z</time>
      </trkpt>
      <trkpt lat="49.11981" lon="-0.06494">
        <ele>12.6</ele>
        <time>2024-03-10T08:50:36Z</time>
      </trkpt>
      <trkpt lat="49.11982" lon="-0.06485">
        <ele>12.5</ele>
        <time>2024-03-10T08:50:37Z</time>
      </trkpt>
      <trkpt lat="49.11983" lon="-0.06476">
        <ele>12.4</ele>
        <time>2024-03-10T08:50:38Z</time>
      </trkpt>
      <trkpt lat="49.11984" lon="-0.06467">
        <ele>12.4</ele>
        <time>2024-03-10T08:50:39Z</time>
      </trkpt>
      <trkpt lat="49.11986" lon="-0.06458">
        <ele>12.3</ele>
        <time>2024-03-10T08:50:40Z</time>
      </trkpt>
      <trkpt lat="49.11987" lon="-0.0645">
        <ele>12.2</ele>
        <time>2024-03-10T08:50:41Z</time>
      </trkpt>
      <trkpt lat="49.11988" lon="-0.06441">
        <ele>12.1</ele>
        <time>2024-03-10T08:50:42Z</time>
      </trkpt>
      <trkpt lat="49.1199" lon="-0.06432">
        <ele>12</ele>
        <time>2024-03-10T08:50:43Z</time>
      </trkpt>
      <trkpt lat="49.11991" lon="-0.06423">
        <ele>12</ele>
        <time>2024-03-10T08:50:44Z</time>
      </trkpt>
      <trkpt lat="49.11993" lon="-0.06415">
        <ele>11.9</ele>
        <time>2024-03-10T08:50:45Z</time>
      </trkpt>
      <trkpt lat="49.11995" lon="-0.06406">
        <ele>11.8</ele>
        <time>2024-03-10T08:50:46Z</time>
      </trkpt>
      <trkpt lat="49.11997" lon="-0.06397">
        <ele>11.8</ele>
        <time>2024-03-10T08:50:47Z</time>
      </trkpt>
      <trkpt lat="49.11999" lon="-0.06388">
        <ele>11.7</ele>
        <time>2024-03-10T08:50:48Z</time>
      </trkpt>
      <trkpt lat="49.12001" lon="-0.06379">
        <ele>11.7</ele>
        <time>2024-03-10T08:50:49Z</time>
      </trkpt>
      <trkpt lat="49.12003" lon="-0.0637">
        <ele>11.6</ele>
        <time>2024-03-10T08:50:50Z</time>
      </trkpt>
      <trkpt lat="49.12006" lon="-0.06361">
        <ele>11.6</ele>
        <time>2024-03-10T08:50:51Z</time>
      </trkpt>
      <trkpt lat="49.12008" lon="-0.06351">
        <ele>11.5</ele>
        <time>2024-03-10T08:50:52Z</time>
      </trkpt>
      <trkpt lat="49.1201" lon="-0.06342">
        <ele>11.5</ele>
        <time>2024-03-10T08:50:53Z</time>
      </trkpt>
      <trkpt lat="49.12012" lon="-0.06333">
        <ele>11.4</ele>
        <time>2024-03-10T08:50:54Z</time>
      </trkpt>
      <trkpt lat="49.12014" lon="-0.06323">
        <ele>11.3</ele>
        <time>2024-03-10T08:50:55Z</time>
      </trkpt>
      <trkpt lat="49.12016" lon="-0.06314">
        <ele>11.2</ele>
        <time>2024-03-10T08:50:56Z</time>
      </trkpt>
      <trkpt lat="49.12018" lon="-0.06304">
        <ele>11.1</ele>
        <time>2024-03-10T08:50:57Z</time>
      </trkpt>
      <trkpt lat="49.1202" lon="-0.06295">
        <ele>11</ele>
        <time>2024-03-10T08:50:58Z</time>
      </trkpt>
      <trkpt lat="49.12022" lon="-0.06285">
        <ele>11</ele>
        <time>2024-03-10T08:50:59Z</time>
      </trkpt>
      <trkpt lat="49.12025" lon="-0.06276">
        <ele>10.9</ele>
        <time>2024-03-10T08:51:00Z</time>
      </trkpt>
      <trkpt lat="49.12027" lon="-0.06266">
        <ele>10.9</ele>
        <time>2024-03-10T08:51:01Z</time>
      </trkpt>
      <trkpt lat="49.12029" lon="-0.06257">
        <ele>10.8</ele>
        <time>2024-03-10T08:51:02Z</time>
      </trkpt>
      <trkpt lat="49.12032" lon="-0.06247">
        <ele>10.7</ele>
        <time>2024-03-10T08:51:03Z</time>
      </trkpt>
      <trkpt lat="49.12034" lon="-0.06237">
        <ele>10.7</ele>
        <time>2024-03-10T08:51:04Z</time>
      </trkpt>
      <trkpt lat="49.12036" lon="-0.06228">
        <ele>10.6</ele>
        <time>2024-03-10T08:51:05Z</time>
      </trkpt>
      <trkpt lat="49.12038" lon="-0.06218">
        <ele>10.6</ele>
        <time>2024-03-10T08:51:06Z</time>
      </trkpt>
      <trkpt lat="49.12041" lon="-0.06209">
        <ele>10.5</ele>
        <time>2024-03-10T08:51:07Z</time>
      </trkpt>
      <trkpt lat="49.12043" lon="-0.062">
        <ele>10.4</ele>
        <time>2024-03-10T08:51:08Z</time>
      </trkpt>
      <trkpt lat="49.12045" lon="-0.06189">
        <ele>10.4</ele>
        <time>2024-03-10T08:51:09Z</time>
      </trkpt>
      <trkpt lat="49.12047" lon="-0.06179">
        <ele>10.3</ele>
        <time>2024-03-10T08:51:10Z</time>
      </trkpt>
      <trkpt lat="49.12049" lon="-0.06169">
        <ele>10.3</ele>
        <time>2024-03-10T08:51:11Z</time>
      </trkpt>
      <trkpt lat="49.12052" lon="-0.06158">
        <ele>10.2</ele>
        <time>2024-03-10T08:51:12Z</time>
      </trkpt>
      <trkpt lat="49.12054" lon="-0.06148">
        <ele>10.2</ele>
        <time>2024-03-10T08:51:13Z</time>
      </trkpt>
      <trkpt lat="49.12056" lon="-0.06138">
        <ele>10.2</ele>
        <time>2024-03-10T08:51:14Z</time>
      </trkpt>
      <trkpt lat="49.12058" lon="-0.06127">
        <ele>10.1</ele>
        <time>2024-03-10T08:51:15Z</time>
      </trkpt>
      <trkpt lat="49.1206" lon="-0.06117">
        <ele>10.1</ele>
        <time>2024-03-10T08:51:16Z</time>
      </trkpt>
      <trkpt lat="49.12063" lon="-0.06107">
        <ele>10.1</ele>
        <time>2024-03-10T08:51:17Z</time>
      </trkpt>
      <trkpt lat="49.12065" lon="-0.06097">
        <ele>10.1</ele>
        <time>2024-03-10T08:51:18Z</time>
      </trkpt>
      <trkpt lat="49.12068" lon="-0.06087">
        <ele>10.1</ele>
        <time>2024-03-10T08:51:19Z</time>
      </trkpt>
      <trkpt lat="49.1207" lon="-0.06076">
        <ele>10.1</ele>
        <time>2024-03-10T08:51:20Z</time>
      </trkpt>
      <trkpt lat="49.12072" lon="-0.06066">
        <ele>10</ele>
        <time>2024-03-10T08:51:21Z</time>
      </trkpt>
      <trkpt lat="49.12075" lon="-0.06056">
        <ele>10</ele>
        <time>2024-03-10T08:51:22Z</time>
      </trkpt>
      <trkpt lat="49.12077" lon="-0.06046">
        <ele>10</ele>
        <time>2024-03-10T08:51:23Z</time>
      </trkpt>
      <trkpt lat="49.12079" lon="-0.06036">
        <ele>10</ele>
        <time>2024-03-10T08:51:24Z</time>
      </trkpt>
      <trkpt lat="49.12081" lon="-0.06026">
        <ele>10</ele>
        <time>2024-03-10T08:51:25Z</time>
      </trkpt>
      <trkpt lat="49.12084" lon="-0.06016">
        <ele>10</ele>
        <time>2024-03-10T08:51:26Z</time>
      </trkpt>
      <trkpt lat="49.12086" lon="-0.06007">
        <ele>10</ele>
        <time>2024-03-10T08:51:27Z</time>
      </trkpt>
      <trkpt lat="49.12088" lon="-0.05997">
        <ele>9.9</ele>
        <time>2024-03-10T08:51:28Z</time>
      </trkpt>
      <trkpt lat="49.1209" lon="-0.05987">
        <ele>9.9</ele>
        <time>2024-03-10T08:51:29Z</time>
      </trkpt>
      <trkpt lat="49.12092" lon="-0.05977">
        <ele>9.9</ele>
        <time>2024-03-10T08:51:30Z</time>
      </trkpt>
      <trkpt lat="49.12094" lon="-0.05967">
        <ele>9.8</ele>
        <time>2024-03-10T08:51:31Z</time>
      </trkpt>
      <trkpt lat="49.12096" lon="-0.05958">
        <ele>9.8</ele>
        <time>2024-03-10T08:51:32Z</time>
      </trkpt>
      <trkpt lat="49.12098" lon="-0.05948">
        <ele>9.8</ele>
        <time>2024-03-10T08:51:33Z</time>
      </trkpt>
      <trkpt lat="49.121" lon="-0.05938">
        <ele>9.8</ele>
        <time>2024-03-10T08:51:34Z</time>
      </trkpt>
      <trkpt lat="49.12102" lon="-0.05928">
        <ele>9.8</ele>
        <time>2024-03-10T08:51:35Z</time>
      </trkpt>
      <trkpt lat="49.12105" lon="-0.05918">
        <ele>9.7</ele>
        <time>2024-03-10T08:51:36Z</time>
      </trkpt>
      <trkpt lat="49.12107" lon="-0.05908">
        <ele>9.7</ele>
        <time>2024-03-10T08:51:37Z</time>
      </trkpt>
      <trkpt lat="49.12109" lon="-0.05898">
        <ele>9.7</ele>
        <time>2024-03-10T08:51:38Z</time>
      </trkpt>
      <trkpt lat="49.12111" lon="-0.05888">
        <ele>9.6</ele>
        <time>2024-03-10T08:51:39Z</time>
      </trkpt>
      <trkpt lat="49.12114" lon="-0.05878">
        <ele>9.6</ele>
        <time>2024-03-10T08:51:40Z</time>
      </trkpt>
      <trkpt lat="49.12116" lon="-0.05869">
        <ele>9.5</ele>
        <time>2024-03-10T08:51:41Z</time>
      </trkpt>
      <trkpt lat="49.12119" lon="-0.05859">
        <ele>9.5</ele>
        <time>2024-03-10T08:51:42Z</time>
      </trkpt>
      <trkpt lat="49.12121" lon="-0.05849">
        <ele>9.5</ele>
        <time>2024-03-10T08:51:43Z</time>
      </trkpt>
      <trkpt lat="49.12123" lon="-0.05838">
        <ele>9.5</ele>
        <time>2024-03-10T08:51:44Z</time>
      </trkpt>
      <trkpt lat="49.12125" lon="-0.05828">
        <ele>9.5</ele>
        <time>2024-03-10T08:51:45Z</time>
      </trkpt>
      <trkpt lat="49.12127" lon="-0.05818">
        <ele>9.5</ele>
        <time>2024-03-10T08:51:46Z</time>
      </trkpt>
      <trkpt lat="49.12129" lon="-0.05807">
        <ele>9.5</ele>
        <time>2024-03-10T08:51:47Z</time>
      </trkpt>
      <trkpt lat="49.12132" lon="-0.05797">
        <ele>9.5</ele>
        <time>2024-03-10T08:51:48Z</time>
      </trkpt>
      <trkpt lat="49.12134" lon="-0.05787">
        <ele>9.5</ele>
        <time>2024-03-10T08:51:49Z</time>
      </trkpt>
      <trkpt lat="49.12137" lon="-0.05776">
        <ele>9.4</ele>
        <time>2024-03-10T08:51:50Z</time>
      </trkpt>
      <trkpt lat="49.12139" lon="-0.05766">
        <ele>9.4</ele>
        <time>2024-03-10T08:51:51Z</time>
      </trkpt>
      <trkpt lat="49.12141" lon="-0.05756">
        <ele>9.3</ele>
        <time>2024-03-10T08:51:52Z</time>
      </trkpt>
      <trkpt lat="49.12143" lon="-0.05747">
        <ele>9.2</ele>
        <time>2024-03-10T08:51:53Z</time>
      </trkpt>
      <trkpt lat="49.12145" lon="-0.05737">
        <ele>9.2</ele>
        <time>2024-03-10T08:51:54Z</time>
      </trkpt>
      <trkpt lat="49.12147" lon="-0.05727">
        <ele>9.2</ele>
        <time>2024-03-10T08:51:55Z</time>
      </trkpt>
      <trkpt lat="49.12149" lon="-0.05718">
        <ele>9.1</ele>
        <time>2024-03-10T08:51:56Z</time>
      </trkpt>
      <trkpt lat="49.12151" lon="-0.05707">
        <ele>9.1</ele>
        <time>2024-03-10T08:51:57Z</time>
      </trkpt>
      <trkpt lat="49.12154" lon="-0.05697">
        <ele>9</ele>
        <time>2024-03-10T08:51:58Z</time>
      </trkpt>
      <trkpt lat="49.12156" lon="-0.05688">
        <ele>9</ele>
        <time>2024-03-10T08:51:59Z</time>
      </trkpt>
      <trkpt lat="49.12158" lon="-0.05677">
        <ele>8.9</ele>
        <time>2024-03-10T08:52:00Z</time>
      </trkpt>
      <trkpt lat="49.12161" lon="-0.05666">
        <ele>8.9</ele>
        <time>2024-03-10T08:52:01Z</time>
      </trkpt>
      <trkpt lat="49.12163" lon="-0.05656">
        <ele>8.8</ele>
        <time>2024-03-10T08:52:02Z</time>
      </trkpt>
      <trkpt lat="49.12165" lon="-0.05645">
        <ele>8.8</ele>
        <time>2024-03-10T08:52:03Z</time>
      </trkpt>
      <trkpt lat="49.12167" lon="-0.05635">
        <ele>8.7</ele>
        <time>2024-03-10T08:52:04Z</time>
      </trkpt>
      <trkpt lat="49.12169" lon="-0.05624">
        <ele>8.7</ele>
        <time>2024-03-10T08:52:05Z</time>
      </trkpt>
      <trkpt lat="49.12172" lon="-0.05613">
        <ele>8.6</ele>
        <time>2024-03-10T08:52:06Z</time>
      </trkpt>
      <trkpt lat="49.12175" lon="-0.05603">
        <ele>8.6</ele>
        <time>2024-03-10T08:52:07Z</time>
      </trkpt>
      <trkpt lat="49.12177" lon="-0.05592">
        <ele>8.5</ele>
        <time>2024-03-10T08:52:08Z</time>
      </trkpt>
      <trkpt lat="49.12179" lon="-0.05582">
        <ele>8.5</ele>
        <time>2024-03-10T08:52:09Z</time>
      </trkpt>
      <trkpt lat="49.12181" lon="-0.05571">
        <ele>8.5</ele>
        <time>2024-03-10T08:52:10Z</time>
      </trkpt>
      <trkpt lat="49.12184" lon="-0.0556">
        <ele>8.4</ele>
        <time>2024-03-10T08:52:11Z</time>
      </trkpt>
      <trkpt lat="49.12186" lon="-0.05549">
        <ele>8.4</ele>
        <time>2024-03-10T08:52:12Z</time>
      </trkpt>
      <trkpt lat="49.12188" lon="-0.05538">
        <ele>8.3</ele>
        <time>2024-03-10T08:52:13Z</time>
      </trkpt>
      <trkpt lat="49.12191" lon="-0.05527">
        <ele>8.3</ele>
        <time>2024-03-10T08:52:14Z</time>
      </trkpt>
      <trkpt lat="49.12193" lon="-0.05517">
        <ele>8.3</ele>
        <time>2024-03-10T08:52:15Z</time>
      </trkpt>
      <trkpt lat="49.12195" lon="-0.05507">
        <ele>8.2</ele>
        <time>2024-03-10T08:52:16Z</time>
      </trkpt>
      <trkpt lat="49.12198" lon="-0.05496">
        <ele>8.2</ele>
        <time>2024-03-10T08:52:17Z</time>
      </trkpt>
      <trkpt lat="49.122" lon="-0.05486">
        <ele>8.2</ele>
        <time>2024-03-10T08:52:18Z</time>
      </trkpt>
      <trkpt lat="49.12203" lon="-0.05476">
        <ele>8.1</ele>
        <time>2024-03-10T08:52:19Z</time>
      </trkpt>
      <trkpt lat="49.12205" lon="-0.05466">
        <ele>8.1</ele>
        <time>2024-03-10T08:52:20Z</time>
      </trkpt>
      <trkpt lat="49.12208" lon="-0.05455">
        <ele>8.1</ele>
        <time>2024-03-10T08:52:21Z</time>
      </trkpt>
      <trkpt lat="49.1221" lon="-0.05444">
        <ele>8</ele>
        <time>2024-03-10T08:52:22Z</time>
      </trkpt>
      <trkpt lat="49.12213" lon="-0.05434">
        <ele>8</ele>
        <time>2024-03-10T08:52:23Z</time>
      </trkpt>
      <trkpt lat="49.12215" lon="-0.05424">
        <ele>8</ele>
        <time>2024-03-10T08:52:24Z</time>
      </trkpt>
      <trkpt lat="49.12218" lon="-0.05413">
        <ele>8</ele>
        <time>2024-03-10T08:52:25Z</time>
      </trkpt>
      <trkpt lat="49.12221" lon="-0.05403">
        <ele>8</ele>
        <time>2024-03-10T08:52:26Z</time>
      </trkpt>
      <trkpt lat="49.12224" lon="-0.05393">
        <ele>8</ele>
        <time>2024-03-10T08:52:27Z</time>
      </trkpt>
      <trkpt lat="49.12227" lon="-0.05383">
        <ele>8</ele>
        <time>2024-03-10T08:52:28Z</time>
      </trkpt>
      <trkpt lat="49.12231" lon="-0.05372">
        <ele>8</ele>
        <time>2024-03-10T08:52:29Z</time>
      </trkpt>
      <trkpt lat="49.12234" lon="-0.05362">
        <ele>7.9</ele>
        <time>2024-03-10T08:52:30Z</time>
      </trkpt>
      <trkpt lat="49.12238" lon="-0.05352">
        <ele>7.9</ele>
        <time>2024-03-10T08:52:31Z</time>
      </trkpt>
      <trkpt lat="49.12242" lon="-0.05342">
        <ele>7.9</ele>
        <time>2024-03-10T08:52:32Z</time>
      </trkpt>
      <trkpt lat="49.12245" lon="-0.05332">
        <ele>7.9</ele>
        <time>2024-03-10T08:52:33Z</time>
      </trkpt>
      <trkpt lat="49.12249" lon="-0.05323">
        <ele>7.9</ele>
        <time>2024-03-10T08:52:34Z</time>
      </trkpt>
      <trkpt lat="49.12253" lon="-0.05313">
        <ele>7.9</ele>
        <time>2024-03-10T08:52:35Z</time>
      </trkpt>
      <trkpt lat="49.12257" lon="-0.05304">
        <ele>7.9</ele>
        <time>2024-03-10T08:52:36Z</time>
      </trkpt>
      <trkpt lat="49.12261" lon="-0.05295">
        <ele>7.9</ele>
        <time>2024-03-10T08:52:37Z</time>
      </trkpt>
      <trkpt lat="49.12265" lon="-0.05286">
        <ele>7.9</ele>
        <time>2024-03-10T08:52:38Z</time>
      </trkpt>
      <trkpt lat="49.12269" lon="-0.05277">
        <ele>8</ele>
        <time>2024-03-10T08:52:39Z</time>
      </trkpt>
      <trkpt lat="49.12273" lon="-0.05269">
        <ele>8</ele>
        <time>2024-03-10T08:52:40Z</time>
      </trkpt>
      <trkpt lat="49.12277" lon="-0.0526">
        <ele>8.1</ele>
        <time>2024-03-10T08:52:41Z</time>
      </trkpt>
      <trkpt lat="49.12281" lon="-0.05251">
        <ele>8.1</ele>
        <time>2024-03-10T08:52:42Z</time>
      </trkpt>
      <trkpt lat="49.12285" lon="-0.05243">
        <ele>8.2</ele>
        <time>2024-03-10T08:52:43Z</time>
      </trkpt>
      <trkpt lat="49.12289" lon="-0.05235">
        <ele>8.3</ele>
        <time>2024-03-10T08:52:44Z</time>
      </trkpt>
      <trkpt lat="49.12292" lon="-0.05228">
        <ele>8.4</ele>
        <time>2024-03-10T08:52:45Z</time>
      </trkpt>
      <trkpt lat="49.12296" lon="-0.05221">
        <ele>8.4</ele>
        <time>2024-03-10T08:52:46Z</time>
      </trkpt>
      <trkpt lat="49.12298" lon="-0.05214">
        <ele>8.5</ele>
        <time>2024-03-10T08:52:47Z</time>
      </trkpt>
      <trkpt lat="49.12299" lon="-0.05207">
        <ele>8.5</ele>
        <time>2024-03-10T08:52:48Z</time>
      </trkpt>
      <trkpt lat="49.12299" lon="-0.05199">
        <ele>8.5</ele>
        <time>2024-03-10T08:52:49Z</time>
      </trkpt>
      <trkpt lat="49.12298" lon="-0.05194">
        <ele>8.4</ele>
        <time>2024-03-10T08:52:50Z</time>
      </trkpt>
      <trkpt lat="49.12295" lon="-0.05189">
        <ele>8.4</ele>
        <time>2024-03-10T08:52:51Z</time>
      </trkpt>
      <trkpt lat="49.12293" lon="-0.05185">
        <ele>8.3</ele>
        <time>2024-03-10T08:52:52Z</time>
      </trkpt>
      <trkpt lat="49.12291" lon="-0.05182">
        <ele>8.3</ele>
        <time>2024-03-10T08:52:53Z</time>
      </trkpt>
      <trkpt lat="49.12288" lon="-0.05179">
        <ele>8.2</ele>
        <time>2024-03-10T08:52:54Z</time>
      </trkpt>
      <trkpt lat="49.12285" lon="-0.05176">
        <ele>8.2</ele>
        <time>2024-03-10T08:52:55Z</time>
      </trkpt>
      <trkpt lat="49.12284" lon="-0.05175">
        <ele>8.2</ele>
        <time>2024-03-10T08:52:56Z</time>
      </trkpt>
      <trkpt lat="49.12283" lon="-0.05174">
        <ele>8.2</ele>
        <time>2024-03-10T08:52:57Z</time>
      </trkpt>
      <trkpt lat="49.12281" lon="-0.05172">
        <ele>8.1</ele>
        <time>2024-03-10T08:52:58Z</time>
      </trkpt>
      <trkpt lat="49.1228" lon="-0.05171">
        <ele>8.1</ele>
        <time>2024-03-10T08:52:59Z</time>
      </trkpt>
      <trkpt lat="49.1228" lon="-0.0517">
        <ele>8.1</ele>
        <time>2024-03-10T08:53:00Z</time>
      </trkpt>
      <trkpt lat="49.1228" lon="-0.05169">
        <ele>8.1</ele>
        <time>2024-03-10T08:53:01Z</time>
      </trkpt>
      <trkpt lat="49.12281" lon="-0.05168">
        <ele>8.1</ele>
        <time>2024-03-10T08:53:02Z</time>
      </trkpt>
      <trkpt lat="49.12281" lon="-0.05168">
        <ele>8.1</ele>
        <time>2024-03-10T08:53:03Z</time>
      </trkpt>
      <trkpt lat="49.12281" lon="-0.05167">
        <ele>8.1</ele>
        <time>2024-03-10T08:53:04Z</time>
      </trkpt>
      <trkpt lat="49.12281" lon="-0.05167">
        <ele>8.1</ele>
        <time>2024-03-10T08:53:05Z</time>
      </trkpt>
      <trkpt lat="49.12281" lon="-0.05167">
        <ele>8.1</ele>
        <time>2024-03-10T08:53:06Z</time>
      </trkpt>
      <trkpt lat="49.12281" lon="-0.05167">
        <ele>8.1</ele>
        <time>2024-03-10T08:53:07Z</time>
      </trkpt>
      <trkpt lat="49.12281" lon="-0.05167">
        <ele>8.1</ele>
        <time>2024-03-10T08:53:08Z</time>
      </trkpt>
      <trkpt lat="49.12281" lon="-0.05167">
        <ele>8.1</ele>
        <time>2024-03-10T08:53:09Z</time>
      </trkpt>
      <trkpt lat="49.12281" lon="-0.05167">
        <ele>8.1</ele>
        <time>2024-03-10T08:53:10Z</time>
      </trkpt>
      <trkpt lat="49.12281" lon="-0.05167">
        <ele>8.1</ele>
        <time>2024-03-10T08:53:11Z</time>
      </trkpt>
      <trkpt lat="49.12281" lon="-0.05167">
        <ele>8.1</ele>
        <time>2024-03-10T08:53:12Z</time>
      </trkpt>
      <trkpt lat="49.12281" lon="-0.05167">
        <ele>8.1</ele>
        <time>2024-03-10T08:53:13Z</time>
      </trkpt>
      <trkpt lat="49.12281" lon="-0.05167">
        <ele>8.1</ele>
        <time>2024-03-10T08:53:14Z</time>
      </trkpt>
      <trkpt lat="49.12281" lon="-0.05167">
        <ele>8.1</ele>
        <time>2024-03-10T08:53:15Z</time>
      </trkpt>
      <trkpt lat="49.12281" lon="-0.05167">
        <ele>8.1</ele>
        <time>2024-03-10T08:53:16Z</time>
      </trkpt>
      <trkpt lat="49.12281" lon="-0.05167">
        <ele>8.1</ele>
        <time>2024-03-10T08:53:17Z</time>
      </trkpt>
      <trkpt lat="49.12281" lon="-0.05167">
        <ele>8.1</ele>
        <time>2024-03-10T08:53:18Z</time>
      </trkpt>
      <trkpt lat="49.12281" lon="-0.05167">
        <ele>8.1</ele>
        <time>2024-03-10T08:53:19Z</time>
      </trkpt>
      <trkpt lat="49.12281" lon="-0.05167">
        <ele>8.1</ele>
        <time>2024-03-10T08:53:20Z</time>
      </trkpt>
      <trkpt lat="49.12281" lon="-0.05167">
        <ele>8.1</ele>
        <time>2024-03-10T08:53:21Z</time>
      </trkpt>
      <trkpt lat="49.12281" lon="-0.05167">
        <ele>8.1</ele>
        <time>2024-03-10T08:53:22Z</time>
      </trkpt>
      <trkpt lat="49.12281" lon="-0.05167">
        <ele>8.1</ele>
        <time>2024-03-10T08:53:23Z</time>
      </trkpt>
      <trkpt lat="49.12281" lon="-0.05167">
        <ele>8.1</ele>
        <time>2024-03-10T08:53:24Z</time>
      </trkpt>
      <trkpt lat="49.12281" lon="-0.05167">
        <ele>8.1</ele>
        <time>2024-03-10T08:53:25Z</time>
      </trkpt>
      <trkpt lat="49.12281" lon="-0.05167">
        <ele>8.1</ele>
        <time>2024-03-10T08:53:26Z</time>
      </trkpt>
      <trkpt lat="49.12281" lon="-0.05167">
        <ele>8.1</ele>
        <time>2024-03-10T08:53:27Z</time>
      </trkpt>
      <trkpt lat="49.12281" lon="-0.05167">
        <ele>8.1</ele>
        <time>2024-03-10T08:53:28Z</time>
      </trkpt>
      <trkpt lat="49.12281" lon="-0.05167">
        <ele>8.1</ele>
        <time>2024-03-10T08:53:29Z</time>
      </trkpt>
      <trkpt lat="49.12281" lon="-0.05167">
        <ele>8.1</ele>
        <time>2024-03-10T08:53:30Z</time>
      </trkpt>
      <trkpt lat="49.12281" lon="-0.05167">
        <ele>8.1</ele>
        <time>2024-03-10T08:53:31Z</time>
      </trkpt>
      <trkpt lat="49.12281" lon="-0.05167">
        <ele>8.1</ele>
        <time>2024-03-10T08:53:32Z</time>
      </trkpt>
      <trkpt lat="49.12281" lon="-0.05167">
        <ele>8.1</ele>
        <time>2024-03-10T08:53:33Z</time>
      </trkpt>
      <trkpt lat="49.12281" lon="-0.05167">
        <ele>8.1</ele>
        <time>2024-03-10T08:53:34Z</time>
      </trkpt>
      <trkpt lat="49.12281" lon="-0.05167">
        <ele>8.1</ele>
        <time>2024-03-10T08:53:35Z</time>
      </trkpt>
      <trkpt lat="49.12281" lon="-0.05167">
        <ele>8.1</ele>
        <time>2024-03-10T08:53:36Z</time>
      </trkpt>
      <trkpt lat="49.12281" lon="-0.05167">
        <ele>8.1</ele>
        <time>2024-03-10T08:53:37Z</time>
      </trkpt>
      <trkpt lat="49.12281" lon="-0.05167">
        <ele>8.1</ele>
        <time>2024-03-10T08:53:38Z</time>
      </trkpt>
      <trkpt lat="49.12281" lon="-0.05167">
        <ele>8.1</ele>
        <time>2024-03-10T08:53:39Z</time>
      </trkpt>
      <trkpt lat="49.12281" lon="-0.05167">
        <ele>8.1</ele>
        <time>2024-03-10T08:53:40Z</time>
      </trkpt>
      <trkpt lat="49.12281" lon="-0.05167">
        <ele>8.1</ele>
        <time>2024-03-10T08:53:41Z</time>
      </trkpt>
      <trkpt lat="49.12281" lon="-0.05167">
        <ele>8.1</ele>
        <time>2024-03-10T08:53:42Z</time>
      </trkpt>
      <trkpt lat="49.12281" lon="-0.05167">
        <ele>8.1</ele>
        <time>2024-03-10T08:53:43Z</time>
      </trkpt>
      <trkpt lat="49.12281" lon="-0.05167">
        <ele>8.1</ele>
        <time>2024-03-10T08:53:44Z</time>
      </trkpt>
      <trkpt lat="49.12281" lon="-0.05167">
        <ele>8.1</ele>
        <time>2024-03-10T08:53:45Z</time>
      </trkpt>
      <trkpt lat="49.12281" lon="-0.05167">
        <ele>8.1</ele>
        <time>2024-03-10T08:53:46Z</time>
      </trkpt>
      <trkpt lat="49.12281" lon="-0.05167">
        <ele>8.1</ele>
        <time>2024-03-10T08:53:47Z</time>
      </trkpt>
      <trkpt lat="49.12281" lon="-0.05167">
        <ele>8.1</ele>
        <time>2024-03-10T08:53:48Z</time>
      </trkpt>
      <trkpt lat="49.12281" lon="-0.05167">
        <ele>8.1</ele>
        <time>2024-03-10T08:53:49Z</time>
      </trkpt>
      <trkpt lat="49.12281" lon="-0.05167">
        <ele>8.1</ele>
        <time>2024-03-10T08:53:50Z</time>
      </trkpt>
      <trkpt lat="49.12281" lon="-0.05167">
        <ele>8.1</ele>
        <time>2024-03-10T08:53:51Z</time>
      </trkpt>
      <trkpt lat="49.12281" lon="-0.05167">
        <ele>8.1</ele>
        <time>2024-03-10T08:53:52Z</time>
      </trkpt>
      <trkpt lat="49.12281" lon="-0.05167">
        <ele>8.1</ele>
        <time>2024-03-10T08:53:53Z</time>
      </trkpt>
      <trkpt lat="49.12281" lon="-0.05167">
        <ele>8.1</ele>
        <time>2024-03-10T08:53:54Z</time>
      </trkpt>
      <trkpt lat="49.12281" lon="-0.05167">
        <ele>8.1</ele>
        <time>2024-03-10T08:53:55Z</time>
      </trkpt>
      <trkpt lat="49.12281" lon="-0.05167">
        <ele>8.1</ele>
        <time>2024-03-10T08:53:56Z</time>
      </trkpt>
      <trkpt lat="49.12281" lon="-0.05167">
        <ele>8.1</ele>
        <time>2024-03-10T08:53:57Z</time>
      </trkpt>
      <trkpt lat="49.12281" lon="-0.05167">
        <ele>8.1</ele>
        <time>2024-03-10T08:53:58Z</time>
      </trkpt>
      <trkpt lat="49.12281" lon="-0.05167">
        <ele>8.1</ele>
        <time>2024-03-10T08:53:59Z</time>
      </trkpt>
      <trkpt lat="49.12281" lon="-0.05167">
        <ele>8.1</ele>
        <time>2024-03-10T08:54:00Z</time>
      </trkpt>
      <trkpt lat="49.12281" lon="-0.05167">
        <ele>8.1</ele>
        <time>2024-03-10T08:54:01Z</time>
      </trkpt>
      <trkpt lat="49.12281" lon="-0.05167">
        <ele>8.1</ele>
        <time>2024-03-10T08:54:02Z</time>
      </trkpt>
      <trkpt lat="49.12281" lon="-0.05167">
        <ele>8.1</ele>
        <time>2024-03-10T08:54:03Z</time>
      </trkpt>
      <trkpt lat="49.12281" lon="-0.05167">
        <ele>8.1</ele>
        <time>2024-03-10T08:54:04Z</time>
      </trkpt>
      <trkpt lat="49.12281" lon="-0.05167">
        <ele>8.1</ele>
        <time>2024-03-10T08:54:05Z</time>
      </trkpt>
      <trkpt lat="49.12281" lon="-0.05167">
        <ele>8.1</ele>
        <time>2024-03-10T08:54:06Z</time>
      </trkpt>
      <trkpt lat="49.12281" lon="-0.05167">
        <ele>8.1</ele>
        <time>2024-03-10T08:54:07Z</time>
      </trkpt>
      <trkpt lat="49.12281" lon="-0.05167">
        <ele>8.1</ele>
        <time>2024-03-10T08:54:08Z</time>
      </trkpt>
      <trkpt lat="49.12281" lon="-0.05167">
        <ele>8.1</ele>
        <time>2024-03-10T08:54:09Z</time>
      </trkpt>
      <trkpt lat="49.12281" lon="-0.05167">
        <ele>8.1</ele>
        <time>2024-03-10T08:54:10Z</time>
      </trkpt>
      <trkpt lat="49.12281" lon="-0.05167">
        <ele>8.1</ele>
        <time>2024-03-10T08:54:11Z</time>
      </trkpt>
      <trkpt lat="49.12281" lon="-0.05167">
        <ele>8.1</ele>
        <time>2024-03-10T08:54:12Z</time>
      </trkpt>
      <trkpt lat="49.12281" lon="-0.05167">
        <ele>8.1</ele>
        <time>2024-03-10T08:54:13Z</time>
      </trkpt>
      <trkpt lat="49.12281" lon="-0.05167">
        <ele>8.1</ele>
        <time>2024-03-10T08:54:14Z</time>
      </trkpt>
      <trkpt lat="49.12281" lon="-0.05167">
        <ele>8.1</ele>
        <time>2024-03-10T08:54:15Z</time>
      </trkpt>
      <trkpt lat="49.12281" lon="-0.05167">
        <ele>8.1</ele>
        <time>2024-03-10T08:54:16Z</time>
      </trkpt>
      <trkpt lat="49.12281" lon="-0.05167">
        <ele>8.1</ele>
        <time>2024-03-10T08:54:17Z</time>
      </trkpt>
      <trkpt lat="49.12281" lon="-0.05167">
        <ele>8.1</ele>
        <time>2024-03-10T08:54:18Z</time>
      </trkpt>
      <trkpt lat="49.12281" lon="-0.05167">
        <ele>8.1</ele>
        <time>2024-03-10T08:54:19Z</time>
      </trkpt>
      <trkpt lat="49.12281" lon="-0.05167">
        <ele>8.1</ele>
        <time>2024-03-10T08:54:20Z</time>
      </trkpt>
      <trkpt lat="49.12281" lon="-0.05167">
        <ele>8.1</ele>
        <time>2024-03-10T08:54:21Z</time>
      </trkpt>
      <trkpt lat="49.12281" lon="-0.05167">
        <ele>8.1</ele>
        <time>2024-03-10T08:54:22Z</time>
      </trkpt>
      <trkpt lat="49.12281" lon="-0.05167">
        <ele>8.1</ele>
        <time>2024-03-10T08:54:23Z</time>
      </trkpt>
      <trkpt lat="49.12281" lon="-0.05167">
        <ele>8.1</ele>
        <time>2024-03-10T08:54:24Z</time>
      </trkpt>
      <trkpt lat="49.12281" lon="-0.05167">
        <ele>8.1</ele>
        <time>2024-03-10T08:54:25Z</time>
      </trkpt>
      <trkpt lat="49.12281" lon="-0.05167">
        <ele>8.1</ele>
        <time>2024-03-10T08:54:26Z</time>
      </trkpt>
      <trkpt lat="49.12281" lon="-0.05167">
        <ele>8.1</ele>
        <time>2024-03-10T08:54:27Z</time>
      </trkpt>
      <trkpt lat="49.12281" lon="-0.05167">
        <ele>8.1</ele>
        <time>2024-03-10T08:54:28Z</time>
      </trkpt>
      <trkpt lat="49.12281" lon="-0.05167">
        <ele>8.1</ele>
        <time>2024-03-10T08:54:29Z</time>
      </trkpt>
      <trkpt lat="49.12281" lon="-0.05167">
        <ele>8.1</ele>
        <time>2024-03-10T08:54:30Z</time>
      </trkpt>
      <trkpt lat="49.12281" lon="-0.05167">
        <ele>8.1</ele>
        <time>2024-03-10T08:54:31Z</time>
      </trkpt>
      <trkpt lat="49.12281" lon="-0.05167">
        <ele>8.1</ele>
        <time>2024-03-10T08:54:32Z</time>
      </trkpt>
      <trkpt lat="49.12281" lon="-0.05167">
        <ele>8.1</ele>
        <time>2024-03-10T08:54:33Z</time>
      </trkpt>
      <trkpt lat="49.12281" lon="-0.05167">
        <ele>8.1</ele>
        <time>2024-03-10T08:54:34Z</time>
      </trkpt>
      <trkpt lat="49.12281" lon="-0.05167">
        <ele>8.1</ele>
        <time>2024-03-10T08:54:35Z</time>
      </trkpt>
      <trkpt lat="49.12281" lon="-0.05167">
        <ele>8.1</ele>
        <time>2024-03-10T08:54:36Z</time>
      </trkpt>
      <trkpt lat="49.12281" lon="-0.05167">
        <ele>8.1</ele>
        <time>2024-03-10T08:54:37Z</time>
      </trkpt>
      <trkpt lat="49.12281" lon="-0.05167">
        <ele>8.1</ele>
        <time>2024-03-10T08:54:38Z</time>
      </trkpt>
      <trkpt lat="49.12281" lon="-0.05167">
        <ele>8.1</ele>
        <time>2024-03-10T08:54:39Z</time>
      </trkpt>
      <trkpt lat="49.12281" lon="-0.05167">
        <ele>8.1</ele>
        <time>2024-03-10T08:54:40Z</time>
      </trkpt>
      <trkpt lat="49.12281" lon="-0.05167">
        <ele>8.1</ele>
        <time>2024-03-10T08:54:41Z</time>
      </trkpt>
      <trkpt lat="49.12281" lon="-0.05167">
        <ele>8.1</ele>
        <time>2024-03-10T08:54:42Z</time>
      </trkpt>
      <trkpt lat="49.12281" lon="-0.05167">
        <ele>8.1</ele>
        <time>2024-03-10T08:54:43Z</time>
      </trkpt>
      <trkpt lat="49.12281" lon="-0.05167">
        <ele>8.1</ele>
        <time>2024-03-10T08:54:44Z</time>
      </trkpt>
      <trkpt lat="49.12281" lon="-0.05167">
        <ele>8.1</ele>
        <time>2024-03-10T08:54:45Z</time>
      </trkpt>
      <trkpt lat="49.12281" lon="-0.05167">
        <ele>8.1</ele>
        <time>2024-03-10T08:54:46Z</time>
      </trkpt>
      <trkpt lat="49.12281" lon="-0.05167">
        <ele>8.1</ele>
        <time>2024-03-10T08:54:47Z</time>
      </trkpt>
      <trkpt lat="49.12281" lon="-0.05167">
        <ele>8.1</ele>
        <time>2024-03-10T08:54:48Z</time>
      </trkpt>
      <trkpt lat="49.12281" lon="-0.05167">
        <ele>8.1</ele>
        <time>2024-03-10T08:54:49Z</time>
      </trkpt>
      <trkpt lat="49.12281" lon="-0.05167">
        <ele>8.1</ele>
        <time>2024-03-10T08:54:50Z</time>
      </trkpt>
      <trkpt lat="49.12281" lon="-0.05167">
        <ele>8.1</ele>
        <time>2024-03-10T08:54:51Z</time>
      </trkpt>
      <trkpt lat="49.12281" lon="-0.05167">
        <ele>8.1</ele>
        <time>2024-03-10T08:54:52Z</time>
      </trkpt>
      <trkpt lat="49.12281" lon="-0.05167">
        <ele>8.1</ele>
        <time>2024-03-10T08:54:53Z</time>
      </trkpt>
      <trkpt lat="49.12281" lon="-0.05167">
        <ele>8.1</ele>
        <time>2024-03-10T08:54:54Z</time>
      </trkpt>
      <trkpt lat="49.12281" lon="-0.05167">
        <ele>8.1</ele>
        <time>2024-03-10T08:54:55Z</time>
      </trkpt>
      <trkpt lat="49.12281" lon="-0.05166">
        <ele>8.1</ele>
        <time>2024-03-10T08:54:56Z</time>
      </trkpt>
      <trkpt lat="49.12281" lon="-0.05165">
        <ele>8.1</ele>
        <time>2024-03-10T08:54:57Z</time>
      </trkpt>
      <trkpt lat="49.12282" lon="-0.05164">
        <ele>8.1</ele>
        <time>2024-03-10T08:54:58Z</time>
      </trkpt>
      <trkpt lat="49.12283" lon="-0.05164">
        <ele>8.1</ele>
        <time>2024-03-10T08:54:59Z</time>
      </trkpt>
      <trkpt lat="49.12283" lon="-0.05163">
        <ele>8.1</ele>
        <time>2024-03-10T08:55:00Z</time>
      </trkpt>
      <trkpt lat="49.12283" lon="-0.05163">
        <ele>8.1</ele>
        <time>2024-03-10T08:55:01Z</time>
      </trkpt>
      <trkpt lat="49.12283" lon="-0.05163">
        <ele>8.1</ele>
        <time>2024-03-10T08:55:02Z</time>
      </trkpt>
      <trkpt lat="49.12284" lon="-0.05162">
        <ele>8.1</ele>
        <time>2024-03-10T08:55:03Z</time>
      </trkpt>
      <trkpt lat="49.12284" lon="-0.05161">
        <ele>8.1</ele>
        <time>2024-03-10T08:55:04Z</time>
      </trkpt>
      <trkpt lat="49.12285" lon="-0.0516">
        <ele>8.1</ele>
        <time>2024-03-10T08:55:05Z</time>
      </trkpt>
      <trkpt lat="49.12286" lon="-0.05159">
        <ele>8.1</ele>
        <time>2024-03-10T08:55:06Z</time>
      </trkpt>
      <trkpt lat="49.12287" lon="-0.05154">
        <ele>8</ele>
        <time>2024-03-10T08:55:07Z</time>
      </trkpt>
      <trkpt lat="49.12287" lon="-0.05153">
        <ele>8</ele>
        <time>2024-03-10T08:55:08Z</time>
      </trkpt>
      <trkpt lat="49.12288" lon="-0.05147">
        <ele>8</ele>
        <time>2024-03-10T08:55:09Z</time>
      </trkpt>
      <trkpt lat="49.12289" lon="-0.05145">
        <ele>8</ele>
        <time>2024-03-10T08:55:10Z</time>
      </trkpt>
      <trkpt lat="49.1229" lon="-0.05139">
        <ele>7.9</ele>
        <time>2024-03-10T08:55:11Z</time>
      </trkpt>
      <trkpt lat="49.12291" lon="-0.05137">
        <ele>7.9</ele>
        <time>2024-03-10T08:55:12Z</time>
      </trkpt>
      <trkpt lat="49.12292" lon="-0.05133">
        <ele>7.8</ele>
        <time>2024-03-10T08:55:13Z</time>
      </trkpt>
      <trkpt lat="49.12292" lon="-0.05129">
        <ele>7.8</ele>
        <time>2024-03-10T08:55:14Z</time>
      </trkpt>
      <trkpt lat="49.12293" lon="-0.05124">
        <ele>7.8</ele>
        <time>2024-03-10T08:55:15Z</time>
      </trkpt>
      <trkpt lat="49.12294" lon="-0.05119">
        <ele>7.7</ele>
        <time>2024-03-10T08:55:16Z</time>
      </trkpt>
      <trkpt lat="49.12295" lon="-0.05113">
        <ele>7.7</ele>
        <time>2024-03-10T08:55:17Z</time>
      </trkpt>
      <trkpt lat="49.12296" lon="-0.05107">
        <ele>7.6</ele>
        <time>2024-03-10T08:55:18Z</time>
      </trkpt>
      <trkpt lat="49.12297" lon="-0.05101">
        <ele>7.6</ele>
        <time>2024-03-10T08:55:19Z</time>
      </trkpt>
      <trkpt lat="49.12298" lon="-0.05095">
        <ele>7.6</ele>
        <time>2024-03-10T08:55:20Z</time>
      </trkpt>
      <trkpt lat="49.12299" lon="-0.0509">
        <ele>7.5</ele>
        <time>2024-03-10T08:55:21Z</time>
      </trkpt>
      <trkpt lat="49.123" lon="-0.05085">
        <ele>7.5</ele>
        <time>2024-03-10T08:55:22Z</time>
      </trkpt>
      <trkpt lat="49.12301" lon="-0.05079">
        <ele>7.5</ele>
        <time>2024-03-10T08:55:23Z</time>
      </trkpt>
      <trkpt lat="49.12301" lon="-0.05074">
        <ele>7.4</ele>
        <time>2024-03-10T08:55:24Z</time>
      </trkpt>
      <trkpt lat="49.12302" lon="-0.05068">
        <ele>7.4</ele>
        <time>2024-03-10T08:55:25Z</time>
      </trkpt>
      <trkpt lat="49.12303" lon="-0.05062">
        <ele>7.4</ele>
        <time>2024-03-10T08:55:26Z</time>
      </trkpt>
      <trkpt lat="49.12305" lon="-0.05056">
        <ele>7.4</ele>
        <time>2024-03-10T08:55:27Z</time>
      </trkpt>
      <trkpt lat="49.12306" lon="-0.05048">
        <ele>7.4</ele>
        <time>2024-03-10T08:55:28Z</time>
      </trkpt>
      <trkpt lat="49.12307" lon="-0.05041">
        <ele>7.4</ele>
        <time>2024-03-10T08:55:29Z</time>
      </trkpt>
      <trkpt lat="49.12309" lon="-0.05032">
        <ele>7.4</ele>
        <time>2024-03-10T08:55:30Z</time>
      </trkpt>
      <trkpt lat="49.12311" lon="-0.05024">
        <ele>7.3</ele>
        <time>2024-03-10T08:55:31Z</time>
      </trkpt>
      <trkpt lat="49.12313" lon="-0.05015">
        <ele>7.3</ele>
        <time>2024-03-10T08:55:32Z</time>
      </trkpt>
      <trkpt lat="49.12315" lon="-0.05006">
        <ele>7.3</ele>
        <time>2024-03-10T08:55:33Z</time>
      </trkpt>
      <trkpt lat="49.12317" lon="-0.04996">
        <ele>7.3</ele>
        <time>2024-03-10T08:55:34Z</time>
      </trkpt>
      <trkpt lat="49.12319" lon="-0.04987">
        <ele>7.3</ele>
        <time>2024-03-10T08:55:35Z</time>
      </trkpt>
      <trkpt lat="49.12321" lon="-0.04977">
        <ele>7.3</ele>
        <time>2024-03-10T08:55:36Z</time>
      </trkpt>
      <trkpt lat="49.12323" lon="-0.04966">
        <ele>7.2</ele>
        <time>2024-03-10T08:55:37Z</time>
      </trkpt>
      <trkpt lat="49.12325" lon="-0.04956">
        <ele>7.2</ele>
        <time>2024-03-10T08:55:38Z</time>
      </trkpt>
      <trkpt lat="49.12328" lon="-0.04945">
        <ele>7.1</ele>
        <time>2024-03-10T08:55:39Z</time>
      </trkpt>
      <trkpt lat="49.1233" lon="-0.04933">
        <ele>7</ele>
        <time>2024-03-10T08:55:40Z</time>
      </trkpt>
      <trkpt lat="49.12333" lon="-0.04921">
        <ele>7</ele>
        <time>2024-03-10T08:55:41Z</time>
      </trkpt>
      <trkpt lat="49.12336" lon="-0.04908">
        <ele>6.9</ele>
        <time>2024-03-10T08:55:42Z</time>
      </trkpt>
      <trkpt lat="49.12338" lon="-0.04896">
        <ele>6.9</ele>
        <time>2024-03-10T08:55:43Z</time>
      </trkpt>
      <trkpt lat="49.12341" lon="-0.04884">
        <ele>6.9</ele>
        <time>2024-03-10T08:55:44Z</time>
      </trkpt>
      <trkpt lat="49.12343" lon="-0.04872">
        <ele>6.9</ele>
        <time>2024-03-10T08:55:45Z</time>
      </trkpt>
      <trkpt lat="49.12345" lon="-0.0486">
        <ele>6.9</ele>
        <time>2024-03-10T08:55:46Z</time>
      </trkpt>
      <trkpt lat="49.12347" lon="-0.04847">
        <ele>6.9</ele>
        <time>2024-03-10T08:55:47Z</time>
      </trkpt>
      <trkpt lat="49.12349" lon="-0.04835">
        <ele>6.9</ele>
        <time>2024-03-10T08:55:48Z</time>
      </trkpt>
      <trkpt lat="49.1235" lon="-0.04823">
        <ele>6.9</ele>
        <time>2024-03-10T08:55:49Z</time>
      </trkpt>
      <trkpt lat="49.1235" lon="-0.04811">
        <ele>6.9</ele>
        <time>2024-03-10T08:55:50Z</time>
      </trkpt>
      <trkpt lat="49.12351" lon="-0.048">
        <ele>6.9</ele>
        <time>2024-03-10T08:55:51Z</time>
      </trkpt>
      <trkpt lat="49.12352" lon="-0.04788">
        <ele>6.8</ele>
        <time>2024-03-10T08:55:52Z</time>
      </trkpt>
      <trkpt lat="49.12353" lon="-0.04776">
        <ele>6.8</ele>
        <time>2024-03-10T08:55:53Z</time>
      </trkpt>
      <trkpt lat="49.12355" lon="-0.04763">
        <ele>6.8</ele>
        <time>2024-03-10T08:55:54Z</time>
      </trkpt>
      <trkpt lat="49.12357" lon="-0.04751">
        <ele>6.8</ele>
        <time>2024-03-10T08:55:55Z</time>
      </trkpt>
      <trkpt lat="49.1236" lon="-0.04739">
        <ele>6.8</ele>
        <time>2024-03-10T08:55:56Z</time>
      </trkpt>
      <trkpt lat="49.12363" lon="-0.04727">
        <ele>6.8</ele>
        <time>2024-03-10T08:55:57Z</time>
      </trkpt>
      <trkpt lat="49.12366" lon="-0.04715">
        <ele>6.8</ele>
        <time>2024-03-10T08:55:58Z</time>
      </trkpt>
      <trkpt lat="49.1237" lon="-0.04704">
        <ele>6.8</ele>
        <time>2024-03-10T08:55:59Z</time>
      </trkpt>
      <trkpt lat="49.12374" lon="-0.04693">
        <ele>6.8</ele>
        <time>2024-03-10T08:56:00Z</time>
      </trkpt>
      <trkpt lat="49.12378" lon="-0.04683">
        <ele>6.8</ele>
        <time>2024-03-10T08:56:01Z</time>
      </trkpt>
      <trkpt lat="49.12382" lon="-0.04673">
        <ele>6.8</ele>
        <time>2024-03-10T08:56:02Z</time>
      </trkpt>
      <trkpt lat="49.12386" lon="-0.04664">
        <ele>6.8</ele>
        <time>2024-03-10T08:56:03Z</time>
      </trkpt>
      <trkpt lat="49.1239" lon="-0.04655">
        <ele>6.9</ele>
        <time>2024-03-10T08:56:04Z</time>
      </trkpt>
      <trkpt lat="49.12393" lon="-0.04646">
        <ele>6.9</ele>
        <time>2024-03-10T08:56:05Z</time>
      </trkpt>
      <trkpt lat="49.12397" lon="-0.04636">
        <ele>6.9</ele>
        <time>2024-03-10T08:56:06Z</time>
      </trkpt>
      <trkpt lat="49.124" lon="-0.04626">
        <ele>6.9</ele>
        <time>2024-03-10T08:56:07Z</time>
      </trkpt>
      <trkpt lat="49.12404" lon="-0.04616">
        <ele>6.9</ele>
        <time>2024-03-10T08:56:08Z</time>
      </trkpt>
      <trkpt lat="49.12408" lon="-0.04606">
        <ele>6.9</ele>
        <time>2024-03-10T08:56:09Z</time>
      </trkpt>
      <trkpt lat="49.12412" lon="-0.04595">
        <ele>6.9</ele>
        <time>2024-03-10T08:56:10Z</time>
      </trkpt>
      <trkpt lat="49.12416" lon="-0.04585">
        <ele>6.9</ele>
        <time>2024-03-10T08:56:11Z</time>
      </trkpt>
      <trkpt lat="49.12419" lon="-0.04575">
        <ele>6.9</ele>
        <time>2024-03-10T08:56:12Z</time>
      </trkpt>
      <trkpt lat="49.12423" lon="-0.04565">
        <ele>6.9</ele>
        <time>2024-03-10T08:56:13Z</time>
      </trkpt>
      <trkpt lat="49.12426" lon="-0.04555">
        <ele>6.9</ele>
        <time>2024-03-10T08:56:14Z</time>
      </trkpt>
      <trkpt lat="49.1243" lon="-0.04545">
        <ele>6.9</ele>
        <time>2024-03-10T08:56:15Z</time>
      </trkpt>
      <trkpt lat="49.12433" lon="-0.04536">
        <ele>6.9</ele>
        <time>2024-03-10T08:56:16Z</time>
      </trkpt>
      <trkpt lat="49.12437" lon="-0.04526">
        <ele>6.9</ele>
        <time>2024-03-10T08:56:17Z</time>
      </trkpt>
      <trkpt lat="49.1244" lon="-0.04517">
        <ele>6.9</ele>
        <time>2024-03-10T08:56:18Z</time>
      </trkpt>
      <trkpt lat="49.12444" lon="-0.04507">
        <ele>6.9</ele>
        <time>2024-03-10T08:56:19Z</time>
      </trkpt>
      <trkpt lat="49.12447" lon="-0.04498">
        <ele>6.8</ele>
        <time>2024-03-10T08:56:20Z</time>
      </trkpt>
      <trkpt lat="49.1245" lon="-0.04488">
        <ele>6.8</ele>
        <time>2024-03-10T08:56:21Z</time>
      </trkpt>
      <trkpt lat="49.12454" lon="-0.04478">
        <ele>6.8</ele>
        <time>2024-03-10T08:56:22Z</time>
      </trkpt>
      <trkpt lat="49.12457" lon="-0.04468">
        <ele>6.8</ele>
        <time>2024-03-10T08:56:23Z</time>
      </trkpt>
      <trkpt lat="49.1246" lon="-0.04458">
        <ele>6.8</ele>
        <time>2024-03-10T08:56:24Z</time>
      </trkpt>
      <trkpt lat="49.12464" lon="-0.04447">
        <ele>6.7</ele>
        <time>2024-03-10T08:56:25Z</time>
      </trkpt>
      <trkpt lat="49.12467" lon="-0.04436">
        <ele>6.7</ele>
        <time>2024-03-10T08:56:26Z</time>
      </trkpt>
      <trkpt lat="49.1247" lon="-0.04426">
        <ele>6.7</ele>
        <time>2024-03-10T08:56:27Z</time>
      </trkpt>
      <trkpt lat="49.12474" lon="-0.04416">
        <ele>6.7</ele>
        <time>2024-03-10T08:56:28Z</time>
      </trkpt>
      <trkpt lat="49.12477" lon="-0.04406">
        <ele>6.7</ele>
        <time>2024-03-10T08:56:29Z</time>
      </trkpt>
      <trkpt lat="49.12481" lon="-0.04396">
        <ele>6.7</ele>
        <time>2024-03-10T08:56:30Z</time>
      </trkpt>
      <trkpt lat="49.12484" lon="-0.04386">
        <ele>6.7</ele>
        <time>2024-03-10T08:56:31Z</time>
      </trkpt>
      <trkpt lat="49.12487" lon="-0.04375">
        <ele>6.7</ele>
        <time>2024-03-10T08:56:32Z</time>
      </trkpt>
      <trkpt lat="49.1249" lon="-0.04365">
        <ele>6.7</ele>
        <time>2024-03-10T08:56:33Z</time>
      </trkpt>
      <trkpt lat="49.12493" lon="-0.04355">
        <ele>6.7</ele>
        <time>2024-03-10T08:56:34Z</time>
      </trkpt>
      <trkpt lat="49.12496" lon="-0.04344">
        <ele>6.7</ele>
        <time>2024-03-10T08:56:35Z</time>
      </trkpt>
      <trkpt lat="49.12498" lon="-0.04334">
        <ele>6.7</ele>
        <time>2024-03-10T08:56:36Z</time>
      </trkpt>
      <trkpt lat="49.12501" lon="-0.04323">
        <ele>6.7</ele>
        <time>2024-03-10T08:56:37Z</time>
      </trkpt>
      <trkpt lat="49.12503" lon="-0.04313">
        <ele>6.7</ele>
        <time>2024-03-10T08:56:38Z</time>
      </trkpt>
      <trkpt lat="49.12505" lon="-0.04302">
        <ele>6.7</ele>
        <time>2024-03-10T08:56:39Z</time>
      </trkpt>
      <trkpt lat="49.12507" lon="-0.04291">
        <ele>6.7</ele>
        <time>2024-03-10T08:56:40Z</time>
      </trkpt>
      <trkpt lat="49.12509" lon="-0.04281">
        <ele>6.7</ele>
        <time>2024-03-10T08:56:41Z</time>
      </trkpt>
      <trkpt lat="49.12511" lon="-0.04271">
        <ele>6.7</ele>
        <time>2024-03-10T08:56:42Z</time>
      </trkpt>
      <trkpt lat="49.12513" lon="-0.04261">
        <ele>6.7</ele>
        <time>2024-03-10T08:56:43Z</time>
      </trkpt>
      <trkpt lat="49.12514" lon="-0.0425">
        <ele>6.7</ele>
        <time>2024-03-10T08:56:44Z</time>
      </trkpt>
      <trkpt lat="49.12516" lon="-0.0424">
        <ele>6.8</ele>
        <time>2024-03-10T08:56:45Z</time>
      </trkpt>
      <trkpt lat="49.12518" lon="-0.04229">
        <ele>6.8</ele>
        <time>2024-03-10T08:56:46Z</time>
      </trkpt>
      <trkpt lat="49.1252" lon="-0.04219">
        <ele>6.8</ele>
        <time>2024-03-10T08:56:47Z</time>
      </trkpt>
      <trkpt lat="49.12522" lon="-0.04209">
        <ele>6.9</ele>
        <time>2024-03-10T08:56:48Z</time>
      </trkpt>
      <trkpt lat="49.12524" lon="-0.04199">
        <ele>6.9</ele>
        <time>2024-03-10T08:56:49Z</time>
      </trkpt>
      <trkpt lat="49.12526" lon="-0.04189">
        <ele>7</ele>
        <time>2024-03-10T08:56:50Z</time>
      </trkpt>
      <trkpt lat="49.12528" lon="-0.04179">
        <ele>7.1</ele>
        <time>2024-03-10T08:56:51Z</time>
      </trkpt>
      <trkpt lat="49.12531" lon="-0.0417">
        <ele>7.1</ele>
        <time>2024-03-10T08:56:52Z</time>
      </trkpt>
      <trkpt lat="49.12533" lon="-0.04161">
        <ele>7.2</ele>
        <time>2024-03-10T08:56:53Z</time>
      </trkpt>
      <trkpt lat="49.12536" lon="-0.04152">
        <ele>7.3</ele>
        <time>2024-03-10T08:56:54Z</time>
      </trkpt>
      <trkpt lat="49.1254" lon="-0.04144">
        <ele>7.3</ele>
        <time>2024-03-10T08:56:55Z</time>
      </trkpt>
      <trkpt lat="49.12543" lon="-0.04136">
        <ele>7.4</ele>
        <time>2024-03-10T08:56:56Z</time>
      </trkpt>
      <trkpt lat="49.12547" lon="-0.04128">
        <ele>7.4</ele>
        <time>2024-03-10T08:56:57Z</time>
      </trkpt>
      <trkpt lat="49.12551" lon="-0.0412">
        <ele>7.5</ele>
        <time>2024-03-10T08:56:58Z</time>
      </trkpt>
      <trkpt lat="49.12554" lon="-0.04113">
        <ele>7.5</ele>
        <time>2024-03-10T08:56:59Z</time>
      </trkpt>
      <trkpt lat="49.12557" lon="-0.04106">
        <ele>7.6</ele>
        <time>2024-03-10T08:57:00Z</time>
      </trkpt>
      <trkpt lat="49.1256" lon="-0.04099">
        <ele>7.6</ele>
        <time>2024-03-10T08:57:01Z</time>
      </trkpt>
      <trkpt lat="49.12563" lon="-0.04092">
        <ele>7.7</ele>
        <time>2024-03-10T08:57:02Z</time>
      </trkpt>
      <trkpt lat="49.12567" lon="-0.04085">
        <ele>7.7</ele>
        <time>2024-03-10T08:57:03Z</time>
      </trkpt>
      <trkpt lat="49.1257" lon="-0.04079">
        <ele>7.7</ele>
        <time>2024-03-10T08:57:04Z</time>
      </trkpt>
      <trkpt lat="49.12573" lon="-0.04073">
        <ele>7.8</ele>
        <time>2024-03-10T08:57:05Z</time>
      </trkpt>
      <trkpt lat="49.12576" lon="-0.04066">
        <ele>7.8</ele>
        <time>2024-03-10T08:57:06Z</time>
      </trkpt>
      <trkpt lat="49.12579" lon="-0.0406">
        <ele>7.8</ele>
        <time>2024-03-10T08:57:07Z</time>
      </trkpt>
      <trkpt lat="49.12582" lon="-0.04053">
        <ele>7.8</ele>
        <time>2024-03-10T08:57:08Z</time>
      </trkpt>
      <trkpt lat="49.12585" lon="-0.04045">
        <ele>7.9</ele>
        <time>2024-03-10T08:57:09Z</time>
      </trkpt>
      <trkpt lat="49.12588" lon="-0.04039">
        <ele>7.9</ele>
        <time>2024-03-10T08:57:10Z</time>
      </trkpt>
      <trkpt lat="49.1259" lon="-0.04034">
        <ele>7.9</ele>
        <time>2024-03-10T08:57:11Z</time>
      </trkpt>
      <trkpt lat="49.12593" lon="-0.04029">
        <ele>7.9</ele>
        <time>2024-03-10T08:57:12Z</time>
      </trkpt>
      <trkpt lat="49.12595" lon="-0.04024">
        <ele>8</ele>
        <time>2024-03-10T08:57:13Z</time>
      </trkpt>
      <trkpt lat="49.12597" lon="-0.04019">
        <ele>8</ele>
        <time>2024-03-10T08:57:14Z</time>
      </trkpt>
      <trkpt lat="49.12599" lon="-0.04015">
        <ele>8.1</ele>
        <time>2024-03-10T08:57:15Z</time>
      </trkpt>
      <trkpt lat="49.12601" lon="-0.0401">
        <ele>8.1</ele>
        <time>2024-03-10T08:57:16Z</time>
      </trkpt>
      <trkpt lat="49.12602" lon="-0.04006">
        <ele>8.2</ele>
        <time>2024-03-10T08:57:17Z</time>
      </trkpt>
      <trkpt lat="49.12604" lon="-0.04002">
        <ele>8.2</ele>
        <time>2024-03-10T08:57:18Z</time>
      </trkpt>
      <trkpt lat="49.12605" lon="-0.04">
        <ele>8.2</ele>
        <time>2024-03-10T08:57:19Z</time>
      </trkpt>
      <trkpt lat="49.12606" lon="-0.03996">
        <ele>8.3</ele>
        <time>2024-03-10T08:57:20Z</time>
      </trkpt>
      <trkpt lat="49.12607" lon="-0.03994">
        <ele>8.3</ele>
        <time>2024-03-10T08:57:21Z</time>
      </trkpt>
      <trkpt lat="49.12608" lon="-0.03988">
        <ele>8.4</ele>
        <time>2024-03-10T08:57:22Z</time>
      </trkpt>
      <trkpt lat="49.12609" lon="-0.03986">
        <ele>8.4</ele>
        <time>2024-03-10T08:57:23Z</time>
      </trkpt>
      <trkpt lat="49.12609" lon="-0.03981">
        <ele>8.4</ele>
        <time>2024-03-10T08:57:24Z</time>
      </trkpt>
      <trkpt lat="49.1261" lon="-0.03974">
        <ele>8.4</ele>
        <time>2024-03-10T08:57:25Z</time>
      </trkpt>
      <trkpt lat="49.1261" lon="-0.03964">
        <ele>8.3</ele>
        <time>2024-03-10T08:57:26Z</time>
      </trkpt>
      <trkpt lat="49.1261" lon="-0.03954">
        <ele>8.3</ele>
        <time>2024-03-10T08:57:27Z</time>
      </trkpt>
      <trkpt lat="49.12611" lon="-0.03944">
        <ele>8.3</ele>
        <time>2024-03-10T08:57:28Z</time>
      </trkpt>
      <trkpt lat="49.12612" lon="-0.03934">
        <ele>8.3</ele>
        <time>2024-03-10T08:57:29Z</time>
      </trkpt>
      <trkpt lat="49.12615" lon="-0.03923">
        <ele>8.3</ele>
        <time>2024-03-10T08:57:30Z</time>
      </trkpt>
      <trkpt lat="49.12616" lon="-0.03912">
        <ele>8.4</ele>
        <time>2024-03-10T08:57:31Z</time>
      </trkpt>
      <trkpt lat="49.12618" lon="-0.03902">
        <ele>8.4</ele>
        <time>2024-03-10T08:57:32Z</time>
      </trkpt>
      <trkpt lat="49.1262" lon="-0.03892">
        <ele>8.4</ele>
        <time>2024-03-10T08:57:33Z</time>
      </trkpt>
      <trkpt lat="49.12622" lon="-0.03882">
        <ele>8.5</ele>
        <time>2024-03-10T08:57:34Z</time>
      </trkpt>
      <trkpt lat="49.12624" lon="-0.03872">
        <ele>8.5</ele>
        <time>2024-03-10T08:57:35Z</time>
      </trkpt>
      <trkpt lat="49.12626" lon="-0.03862">
        <ele>8.6</ele>
        <time>2024-03-10T08:57:36Z</time>
      </trkpt>
      <trkpt lat="49.12628" lon="-0.03852">
        <ele>8.6</ele>
        <time>2024-03-10T08:57:37Z</time>
      </trkpt>
      <trkpt lat="49.1263" lon="-0.03841">
        <ele>8.6</ele>
        <time>2024-03-10T08:57:38Z</time>
      </trkpt>
      <trkpt lat="49.12631" lon="-0.03831">
        <ele>8.6</ele>
        <time>2024-03-10T08:57:39Z</time>
      </trkpt>
      <trkpt lat="49.12631" lon="-0.03819">
        <ele>8.6</ele>
        <time>2024-03-10T08:57:40Z</time>
      </trkpt>
      <trkpt lat="49.12631" lon="-0.03808">
        <ele>8.5</ele>
        <time>2024-03-10T08:57:41Z</time>
      </trkpt>
      <trkpt lat="49.12631" lon="-0.03796">
        <ele>8.5</ele>
        <time>2024-03-10T08:57:42Z</time>
      </trkpt>
      <trkpt lat="49.1263" lon="-0.03784">
        <ele>8.5</ele>
        <time>2024-03-10T08:57:43Z</time>
      </trkpt>
      <trkpt lat="49.12628" lon="-0.03773">
        <ele>8.5</ele>
        <time>2024-03-10T08:57:44Z</time>
      </trkpt>
      <trkpt lat="49.12626" lon="-0.03762">
        <ele>8.5</ele>
        <time>2024-03-10T08:57:45Z</time>
      </trkpt>
      <trkpt lat="49.12624" lon="-0.03751">
        <ele>8.5</ele>
        <time>2024-03-10T08:57:46Z</time>
      </trkpt>
      <trkpt lat="49.12621" lon="-0.0374">
        <ele>8.5</ele>
        <time>2024-03-10T08:57:47Z</time>
      </trkpt>
      <trkpt lat="49.12619" lon="-0.03729">
        <ele>8.5</ele>
        <time>2024-03-10T08:57:48Z</time>
      </trkpt>
      <trkpt lat="49.12616" lon="-0.03718">
        <ele>8.5</ele>
        <time>2024-03-10T08:57:49Z</time>
      </trkpt>
      <trkpt lat="49.12613" lon="-0.03706">
        <ele>8.5</ele>
        <time>2024-03-10T08:57:50Z</time>
      </trkpt>
      <trkpt lat="49.12611" lon="-0.03695">
        <ele>8.4</ele>
        <time>2024-03-10T08:57:51Z</time>
      </trkpt>
      <trkpt lat="49.12608" lon="-0.03684">
        <ele>8.4</ele>
        <time>2024-03-10T08:57:52Z</time>
      </trkpt>
      <trkpt lat="49.12606" lon="-0.03673">
        <ele>8.4</ele>
        <time>2024-03-10T08:57:53Z</time>
      </trkpt>
      <trkpt lat="49.12604" lon="-0.03661">
        <ele>8.3</ele>
        <time>2024-03-10T08:57:54Z</time>
      </trkpt>
      <trkpt lat="49.12601" lon="-0.0365">
        <ele>8.2</ele>
        <time>2024-03-10T08:57:55Z</time>
      </trkpt>
      <trkpt lat="49.12599" lon="-0.03639">
        <ele>8.2</ele>
        <time>2024-03-10T08:57:56Z</time>
      </trkpt>
      <trkpt lat="49.12596" lon="-0.03627">
        <ele>8.1</ele>
        <time>2024-03-10T08:57:57Z</time>
      </trkpt>
      <trkpt lat="49.12594" lon="-0.03616">
        <ele>8.1</ele>
        <time>2024-03-10T08:57:58Z</time>
      </trkpt>
      <trkpt lat="49.12591" lon="-0.03605">
        <ele>8.1</ele>
        <time>2024-03-10T08:57:59Z</time>
      </trkpt>
      <trkpt lat="49.12589" lon="-0.03593">
        <ele>8</ele>
        <time>2024-03-10T08:58:00Z</time>
      </trkpt>
      <trkpt lat="49.12587" lon="-0.03582">
        <ele>8</ele>
        <time>2024-03-10T08:58:01Z</time>
      </trkpt>
      <trkpt lat="49.12584" lon="-0.03571">
        <ele>7.9</ele>
        <time>2024-03-10T08:58:02Z</time>
      </trkpt>
      <trkpt lat="49.12581" lon="-0.03559">
        <ele>7.9</ele>
        <time>2024-03-10T08:58:03Z</time>
      </trkpt>
      <trkpt lat="49.12579" lon="-0.03548">
        <ele>7.9</ele>
        <time>2024-03-10T08:58:04Z</time>
      </trkpt>
      <trkpt lat="49.12576" lon="-0.03536">
        <ele>7.8</ele>
        <time>2024-03-10T08:58:05Z</time>
      </trkpt>
      <trkpt lat="49.12573" lon="-0.03525">
        <ele>7.8</ele>
        <time>2024-03-10T08:58:06Z</time>
      </trkpt>
      <trkpt lat="49.12571" lon="-0.03513">
        <ele>7.8</ele>
        <time>2024-03-10T08:58:07Z</time>
      </trkpt>
      <trkpt lat="49.12568" lon="-0.03502">
        <ele>7.7</ele>
        <time>2024-03-10T08:58:08Z</time>
      </trkpt>
      <trkpt lat="49.12566" lon="-0.03491">
        <ele>7.8</ele>
        <time>2024-03-10T08:58:09Z</time>
      </trkpt>
      <trkpt lat="49.12563" lon="-0.03479">
        <ele>7.8</ele>
        <time>2024-03-10T08:58:10Z</time>
      </trkpt>
      <trkpt lat="49.12561" lon="-0.03467">
        <ele>7.8</ele>
        <time>2024-03-10T08:58:11Z</time>
      </trkpt>
      <trkpt lat="49.12559" lon="-0.03456">
        <ele>7.8</ele>
        <time>2024-03-10T08:58:12Z</time>
      </trkpt>
      <trkpt lat="49.12557" lon="-0.03444">
        <ele>7.8</ele>
        <time>2024-03-10T08:58:13Z</time>
      </trkpt>
      <trkpt lat="49.12554" lon="-0.03432">
        <ele>7.7</ele>
        <time>2024-03-10T08:58:14Z</time>
      </trkpt>
      <trkpt lat="49.12553" lon="-0.0342">
        <ele>7.7</ele>
        <time>2024-03-10T08:58:15Z</time>
      </trkpt>
      <trkpt lat="49.12551" lon="-0.03408">
        <ele>7.6</ele>
        <time>2024-03-10T08:58:16Z</time>
      </trkpt>
      <trkpt lat="49.1255" lon="-0.03396">
        <ele>7.6</ele>
        <time>2024-03-10T08:58:17Z</time>
      </trkpt>
      <trkpt lat="49.12548" lon="-0.03384">
        <ele>7.6</ele>
        <time>2024-03-10T08:58:18Z</time>
      </trkpt>
      <trkpt lat="49.12547" lon="-0.03373">
        <ele>7.6</ele>
        <time>2024-03-10T08:58:19Z</time>
      </trkpt>
      <trkpt lat="49.12545" lon="-0.03361">
        <ele>7.6</ele>
        <time>2024-03-10T08:58:20Z</time>
      </trkpt>
      <trkpt lat="49.12544" lon="-0.0335">
        <ele>7.6</ele>
        <time>2024-03-10T08:58:21Z</time>
      </trkpt>
      <trkpt lat="49.12543" lon="-0.03339">
        <ele>7.5</ele>
        <time>2024-03-10T08:58:22Z</time>
      </trkpt>
      <trkpt lat="49.12542" lon="-0.03328">
        <ele>7.5</ele>
        <time>2024-03-10T08:58:23Z</time>
      </trkpt>
      <trkpt lat="49.12541" lon="-0.03317">
        <ele>7.5</ele>
        <time>2024-03-10T08:58:24Z</time>
      </trkpt>
      <trkpt lat="49.1254" lon="-0.03305">
        <ele>7.5</ele>
        <time>2024-03-10T08:58:25Z</time>
      </trkpt>
      <trkpt lat="49.1254" lon="-0.03294">
        <ele>7.5</ele>
        <time>2024-03-10T08:58:26Z</time>
      </trkpt>
      <trkpt lat="49.12539" lon="-0.03283">
        <ele>7.5</ele>
        <time>2024-03-10T08:58:27Z</time>
      </trkpt>
      <trkpt lat="49.12538" lon="-0.03271">
        <ele>7.4</ele>
        <time>2024-03-10T08:58:28Z</time>
      </trkpt>
      <trkpt lat="49.12538" lon="-0.0326">
        <ele>7.4</ele>
        <time>2024-03-10T08:58:29Z</time>
      </trkpt>
      <trkpt lat="49.12537" lon="-0.03248">
        <ele>7.4</ele>
        <time>2024-03-10T08:58:30Z</time>
      </trkpt>
      <trkpt lat="49.12537" lon="-0.03236">
        <ele>7.3</ele>
        <time>2024-03-10T08:58:31Z</time>
      </trkpt>
      <trkpt lat="49.12536" lon="-0.03224">
        <ele>7.3</ele>
        <time>2024-03-10T08:58:32Z</time>
      </trkpt>
      <trkpt lat="49.12536" lon="-0.03212">
        <ele>7.2</ele>
        <time>2024-03-10T08:58:33Z</time>
      </trkpt>
      <trkpt lat="49.12535" lon="-0.03201">
        <ele>7.2</ele>
        <time>2024-03-10T08:58:34Z</time>
      </trkpt>
      <trkpt lat="49.12534" lon="-0.03189">
        <ele>7.2</ele>
        <time>2024-03-10T08:58:35Z</time>
      </trkpt>
      <trkpt lat="49.12534" lon="-0.03179">
        <ele>7.2</ele>
        <time>2024-03-10T08:58:36Z</time>
      </trkpt>
      <trkpt lat="49.12533" lon="-0.03167">
        <ele>7.2</ele>
        <time>2024-03-10T08:58:37Z</time>
      </trkpt>
      <trkpt lat="49.12533" lon="-0.03156">
        <ele>7.2</ele>
        <time>2024-03-10T08:58:38Z</time>
      </trkpt>
      <trkpt lat="49.12532" lon="-0.03145">
        <ele>7.2</ele>
        <time>2024-03-10T08:58:39Z</time>
      </trkpt>
      <trkpt lat="49.12531" lon="-0.03133">
        <ele>7.3</ele>
        <time>2024-03-10T08:58:40Z</time>
      </trkpt>
      <trkpt lat="49.12531" lon="-0.03121">
        <ele>7.3</ele>
        <time>2024-03-10T08:58:41Z</time>
      </trkpt>
      <trkpt lat="49.1253" lon="-0.0311">
        <ele>7.3</ele>
        <time>2024-03-10T08:58:42Z</time>
      </trkpt>
      <trkpt lat="49.1253" lon="-0.03098">
        <ele>7.4</ele>
        <time>2024-03-10T08:58:43Z</time>
      </trkpt>
      <trkpt lat="49.12529" lon="-0.03087">
        <ele>7.5</ele>
        <time>2024-03-10T08:58:44Z</time>
      </trkpt>
      <trkpt lat="49.12528" lon="-0.03076">
        <ele>7.6</ele>
        <time>2024-03-10T08:58:45Z</time>
      </trkpt>
      <trkpt lat="49.12528" lon="-0.03065">
        <ele>7.8</ele>
        <time>2024-03-10T08:58:46Z</time>
      </trkpt>
      <trkpt lat="49.12527" lon="-0.03054">
        <ele>7.9</ele>
        <time>2024-03-10T08:58:47Z</time>
      </trkpt>
      <trkpt lat="49.12526" lon="-0.03043">
        <ele>7.9</ele>
        <time>2024-03-10T08:58:48Z</time>
      </trkpt>
      <trkpt lat="49.12526" lon="-0.03033">
        <ele>7.9</ele>
        <time>2024-03-10T08:58:49Z</time>
      </trkpt>
      <trkpt lat="49.12526" lon="-0.03022">
        <ele>7.9</ele>
        <time>2024-03-10T08:58:50Z</time>
      </trkpt>
      <trkpt lat="49.12526" lon="-0.03011">
        <ele>7.8</ele>
        <time>2024-03-10T08:58:51Z</time>
      </trkpt>
      <trkpt lat="49.12525" lon="-0.03">
        <ele>7.7</ele>
        <time>2024-03-10T08:58:52Z</time>
      </trkpt>
      <trkpt lat="49.12525" lon="-0.02989">
        <ele>7.6</ele>
        <time>2024-03-10T08:58:53Z</time>
      </trkpt>
      <trkpt lat="49.12524" lon="-0.02977">
        <ele>7.5</ele>
        <time>2024-03-10T08:58:54Z</time>
      </trkpt>
      <trkpt lat="49.12524" lon="-0.02965">
        <ele>7.4</ele>
        <time>2024-03-10T08:58:55Z</time>
      </trkpt>
      <trkpt lat="49.12523" lon="-0.02953">
        <ele>7.3</ele>
        <time>2024-03-10T08:58:56Z</time>
      </trkpt>
      <trkpt lat="49.12522" lon="-0.02941">
        <ele>7.3</ele>
        <time>2024-03-10T08:58:57Z</time>
      </trkpt>
      <trkpt lat="49.12522" lon="-0.02929">
        <ele>7.3</ele>
        <time>2024-03-10T08:58:58Z</time>
      </trkpt>
      <trkpt lat="49.12521" lon="-0.02917">
        <ele>7.2</ele>
        <time>2024-03-10T08:58:59Z</time>
      </trkpt>
      <trkpt lat="49.12521" lon="-0.02905">
        <ele>7.2</ele>
        <time>2024-03-10T08:59:00Z</time>
      </trkpt>
      <trkpt lat="49.1252" lon="-0.02893">
        <ele>7.2</ele>
        <time>2024-03-10T08:59:01Z</time>
      </trkpt>
      <trkpt lat="49.12519" lon="-0.02881">
        <ele>7.2</ele>
        <time>2024-03-10T08:59:02Z</time>
      </trkpt>
      <trkpt lat="49.12519" lon="-0.0287">
        <ele>7.2</ele>
        <time>2024-03-10T08:59:03Z</time>
      </trkpt>
      <trkpt lat="49.12519" lon="-0.02858">
        <ele>7.2</ele>
        <time>2024-03-10T08:59:04Z</time>
      </trkpt>
      <trkpt lat="49.12518" lon="-0.02846">
        <ele>7.2</ele>
        <time>2024-03-10T08:59:05Z</time>
      </trkpt>
      <trkpt lat="49.12517" lon="-0.02834">
        <ele>7.2</ele>
        <time>2024-03-10T08:59:06Z</time>
      </trkpt>
      <trkpt lat="49.12516" lon="-0.02822">
        <ele>7.2</ele>
        <time>2024-03-10T08:59:07Z</time>
      </trkpt>
      <trkpt lat="49.12515" lon="-0.0281">
        <ele>7.2</ele>
        <time>2024-03-10T08:59:08Z</time>
      </trkpt>
      <trkpt lat="49.12515" lon="-0.02798">
        <ele>7.2</ele>
        <time>2024-03-10T08:59:09Z</time>
      </trkpt>
      <trkpt lat="49.12514" lon="-0.02786">
        <ele>7.1</ele>
        <time>2024-03-10T08:59:10Z</time>
      </trkpt>
      <trkpt lat="49.12514" lon="-0.02774">
        <ele>7.1</ele>
        <time>2024-03-10T08:59:11Z</time>
      </trkpt>
      <trkpt lat="49.12513" lon="-0.02762">
        <ele>7.1</ele>
        <time>2024-03-10T08:59:12Z</time>
      </trkpt>
      <trkpt lat="49.12513" lon="-0.02751">
        <ele>7.1</ele>
        <time>2024-03-10T08:59:13Z</time>
      </trkpt>
      <trkpt lat="49.12512" lon="-0.02739">
        <ele>7.1</ele>
        <time>2024-03-10T08:59:14Z</time>
      </trkpt>
      <trkpt lat="49.12512" lon="-0.02728">
        <ele>7.1</ele>
        <time>2024-03-10T08:59:15Z</time>
      </trkpt>
      <trkpt lat="49.12511" lon="-0.02716">
        <ele>7.1</ele>
        <time>2024-03-10T08:59:16Z</time>
      </trkpt>
      <trkpt lat="49.1251" lon="-0.02705">
        <ele>7.1</ele>
        <time>2024-03-10T08:59:17Z</time>
      </trkpt>
      <trkpt lat="49.1251" lon="-0.02693">
        <ele>7.1</ele>
        <time>2024-03-10T08:59:18Z</time>
      </trkpt>
      <trkpt lat="49.12509" lon="-0.02681">
        <ele>7.1</ele>
        <time>2024-03-10T08:59:19Z</time>
      </trkpt>
      <trkpt lat="49.12509" lon="-0.0267">
        <ele>7.1</ele>
        <time>2024-03-10T08:59:20Z</time>
      </trkpt>
      <trkpt lat="49.12508" lon="-0.02658">
        <ele>7.1</ele>
        <time>2024-03-10T08:59:21Z</time>
      </trkpt>
      <trkpt lat="49.12508" lon="-0.02647">
        <ele>7.1</ele>
        <time>2024-03-10T08:59:22Z</time>
      </trkpt>
      <trkpt lat="49.12507" lon="-0.02635">
        <ele>7.2</ele>
        <time>2024-03-10T08:59:23Z</time>
      </trkpt>
      <trkpt lat="49.12506" lon="-0.02624">
        <ele>7.2</ele>
        <time>2024-03-10T08:59:24Z</time>
      </trkpt>
      <trkpt lat="49.12506" lon="-0.02612">
        <ele>7.2</ele>
        <time>2024-03-10T08:59:25Z</time>
      </trkpt>
      <trkpt lat="49.12505" lon="-0.026">
        <ele>7.2</ele>
        <time>2024-03-10T08:59:26Z</time>
      </trkpt>
      <trkpt lat="49.12505" lon="-0.02588">
        <ele>7.2</ele>
        <time>2024-03-10T08:59:27Z</time>
      </trkpt>
      <trkpt lat="49.12504" lon="-0.02576">
        <ele>7.2</ele>
        <time>2024-03-10T08:59:28Z</time>
      </trkpt>
      <trkpt lat="49.12504" lon="-0.02564">
        <ele>7.2</ele>
        <time>2024-03-10T08:59:29Z</time>
      </trkpt>
      <trkpt lat="49.12503" lon="-0.02552">
        <ele>7.2</ele>
        <time>2024-03-10T08:59:30Z</time>
      </trkpt>
      <trkpt lat="49.12503" lon="-0.02541">
        <ele>7.3</ele>
        <time>2024-03-10T08:59:31Z</time>
      </trkpt>
      <trkpt lat="49.12503" lon="-0.0253">
        <ele>7.3</ele>
        <time>2024-03-10T08:59:32Z</time>
      </trkpt>
      <trkpt lat="49.12502" lon="-0.02518">
        <ele>7.3</ele>
        <time>2024-03-10T08:59:33Z</time>
      </trkpt>
      <trkpt lat="49.12502" lon="-0.02507">
        <ele>7.3</ele>
        <time>2024-03-10T08:59:34Z</time>
      </trkpt>
      <trkpt lat="49.12501" lon="-0.02495">
        <ele>7.2</ele>
        <time>2024-03-10T08:59:35Z</time>
      </trkpt>
      <trkpt lat="49.125" lon="-0.02483">
        <ele>7.2</ele>
        <time>2024-03-10T08:59:36Z</time>
      </trkpt>
      <trkpt lat="49.125" lon="-0.02472">
        <ele>7.3</ele>
        <time>2024-03-10T08:59:37Z</time>
      </trkpt>
      <trkpt lat="49.12499" lon="-0.02461">
        <ele>7.3</ele>
        <time>2024-03-10T08:59:38Z</time>
      </trkpt>
      <trkpt lat="49.12499" lon="-0.02449">
        <ele>7.3</ele>
        <time>2024-03-10T08:59:39Z</time>
      </trkpt>
      <trkpt lat="49.12498" lon="-0.02438">
        <ele>7.3</ele>
        <time>2024-03-10T08:59:40Z</time>
      </trkpt>
      <trkpt lat="49.12498" lon="-0.02427">
        <ele>7.3</ele>
        <time>2024-03-10T08:59:41Z</time>
      </trkpt>
      <trkpt lat="49.12497" lon="-0.02416">
        <ele>7.3</ele>
        <time>2024-03-10T08:59:42Z</time>
      </trkpt>
      <trkpt lat="49.12497" lon="-0.02405">
        <ele>7.4</ele>
        <time>2024-03-10T08:59:43Z</time>
      </trkpt>
      <trkpt lat="49.12496" lon="-0.02394">
        <ele>7.4</ele>
        <time>2024-03-10T08:59:44Z</time>
      </trkpt>
      <trkpt lat="49.12496" lon="-0.02383">
        <ele>7.4</ele>
        <time>2024-03-10T08:59:45Z</time>
      </trkpt>
      <trkpt lat="49.12495" lon="-0.02372">
        <ele>7.4</ele>
        <time>2024-03-10T08:59:46Z</time>
      </trkpt>
      <trkpt lat="49.12494" lon="-0.02361">
        <ele>7.5</ele>
        <time>2024-03-10T08:59:47Z</time>
      </trkpt>
      <trkpt lat="49.12494" lon="-0.02351">
        <ele>7.5</ele>
        <time>2024-03-10T08:59:48Z</time>
      </trkpt>
      <trkpt lat="49.12493" lon="-0.02339">
        <ele>7.6</ele>
        <time>2024-03-10T08:59:49Z</time>
      </trkpt>
      <trkpt lat="49.12492" lon="-0.02328">
        <ele>7.7</ele>
        <time>2024-03-10T08:59:50Z</time>
      </trkpt>
      <trkpt lat="49.12492" lon="-0.02317">
        <ele>7.7</ele>
        <time>2024-03-10T08:59:51Z</time>
      </trkpt>
      <trkpt lat="49.12491" lon="-0.02305">
        <ele>7.8</ele>
        <time>2024-03-10T08:59:52Z</time>
      </trkpt>
      <trkpt lat="49.12491" lon="-0.02293">
        <ele>7.9</ele>
        <time>2024-03-10T08:59:53Z</time>
      </trkpt>
      <trkpt lat="49.1249" lon="-0.02281">
        <ele>7.9</ele>
        <time>2024-03-10T08:59:54Z</time>
      </trkpt>
      <trkpt lat="49.1249" lon="-0.02269">
        <ele>8</ele>
        <time>2024-03-10T08:59:55Z</time>
      </trkpt>
      <trkpt lat="49.12489" lon="-0.02257">
        <ele>8.1</ele>
        <time>2024-03-10T08:59:56Z</time>
      </trkpt>
      <trkpt lat="49.12489" lon="-0.02246">
        <ele>8.2</ele>
        <time>2024-03-10T08:59:57Z</time>
      </trkpt>
      <trkpt lat="49.12489" lon="-0.02235">
        <ele>8.2</ele>
        <time>2024-03-10T08:59:58Z</time>
      </trkpt>
      <trkpt lat="49.12489" lon="-0.02224">
        <ele>8.1</ele>
        <time>2024-03-10T08:59:59Z</time>
      </trkpt>
      <trkpt lat="49.12489" lon="-0.02212">
        <ele>8.1</ele>
        <time>2024-03-10T09:00:00Z</time>
      </trkpt>
      <trkpt lat="49.1249" lon="-0.022">
        <ele>8</ele>
        <time>2024-03-10T09:00:01Z</time>
      </trkpt>
      <trkpt lat="49.1249" lon="-0.02188">
        <ele>7.9</ele>
        <time>2024-03-10T09:00:02Z</time>
      </trkpt>
      <trkpt lat="49.12491" lon="-0.02175">
        <ele>7.7</ele>
        <time>2024-03-10T09:00:03Z</time>
      </trkpt>
      <trkpt lat="49.12492" lon="-0.02162">
        <ele>7.6</ele>
        <time>2024-03-10T09:00:04Z</time>
      </trkpt>
      <trkpt lat="49.12493" lon="-0.02149">
        <ele>7.6</ele>
        <time>2024-03-10T09:00:05Z</time>
      </trkpt>
      <trkpt lat="49.12494" lon="-0.02136">
        <ele>7.5</ele>
        <time>2024-03-10T09:00:06Z</time>
      </trkpt>
      <trkpt lat="49.12495" lon="-0.02124">
        <ele>7.4</ele>
        <time>2024-03-10T09:00:07Z</time>
      </trkpt>
      <trkpt lat="49.12496" lon="-0.02111">
        <ele>7.3</ele>
        <time>2024-03-10T09:00:08Z</time>
      </trkpt>
      <trkpt lat="49.12498" lon="-0.02098">
        <ele>7.3</ele>
        <time>2024-03-10T09:00:09Z</time>
      </trkpt>
      <trkpt lat="49.12499" lon="-0.02085">
        <ele>7.3</ele>
        <time>2024-03-10T09:00:10Z</time>
      </trkpt>
      <trkpt lat="49.125" lon="-0.02072">
        <ele>7.3</ele>
        <time>2024-03-10T09:00:11Z</time>
      </trkpt>
      <trkpt lat="49.12501" lon="-0.02059">
        <ele>7.3</ele>
        <time>2024-03-10T09:00:12Z</time>
      </trkpt>
      <trkpt lat="49.12502" lon="-0.02047">
        <ele>7.3</ele>
        <time>2024-03-10T09:00:13Z</time>
      </trkpt>
      <trkpt lat="49.12503" lon="-0.02034">
        <ele>7.4</ele>
        <time>2024-03-10T09:00:14Z</time>
      </trkpt>
      <trkpt lat="49.12504" lon="-0.02022">
        <ele>7.4</ele>
        <time>2024-03-10T09:00:15Z</time>
      </trkpt>
      <trkpt lat="49.12505" lon="-0.0201">
        <ele>7.4</ele>
        <time>2024-03-10T09:00:16Z</time>
      </trkpt>
      <trkpt lat="49.12506" lon="-0.01999">
        <ele>7.5</ele>
        <time>2024-03-10T09:00:17Z</time>
      </trkpt>
      <trkpt lat="49.12507" lon="-0.01988">
        <ele>7.5</ele>
        <time>2024-03-10T09:00:18Z</time>
      </trkpt>
      <trkpt lat="49.12508" lon="-0.01977">
        <ele>7.5</ele>
        <time>2024-03-10T09:00:19Z</time>
      </trkpt>
      <trkpt lat="49.12509" lon="-0.01966">
        <ele>7.5</ele>
        <time>2024-03-10T09:00:20Z</time>
      </trkpt>
      <trkpt lat="49.1251" lon="-0.01955">
        <ele>7.5</ele>
        <time>2024-03-10T09:00:21Z</time>
      </trkpt>
      <trkpt lat="49.12511" lon="-0.01944">
        <ele>7.5</ele>
        <time>2024-03-10T09:00:22Z</time>
      </trkpt>
      <trkpt lat="49.12512" lon="-0.01933">
        <ele>7.5</ele>
        <time>2024-03-10T09:00:23Z</time>
      </trkpt>
      <trkpt lat="49.12513" lon="-0.01921">
        <ele>7.5</ele>
        <time>2024-03-10T09:00:24Z</time>
      </trkpt>
      <trkpt lat="49.12513" lon="-0.0191">
        <ele>7.5</ele>
        <time>2024-03-10T09:00:25Z</time>
      </trkpt>
      <trkpt lat="49.12514" lon="-0.01898">
        <ele>7.5</ele>
        <time>2024-03-10T09:00:26Z</time>
      </trkpt>
      <trkpt lat="49.12515" lon="-0.01887">
        <ele>7.6</ele>
        <time>2024-03-10T09:00:27Z</time>
      </trkpt>
      <trkpt lat="49.12516" lon="-0.01875">
        <ele>7.6</ele>
        <time>2024-03-10T09:00:28Z</time>
      </trkpt>
      <trkpt lat="49.12517" lon="-0.01864">
        <ele>7.7</ele>
        <time>2024-03-10T09:00:29Z</time>
      </trkpt>
      <trkpt lat="49.12518" lon="-0.01853">
        <ele>7.7</ele>
        <time>2024-03-10T09:00:30Z</time>
      </trkpt>
      <trkpt lat="49.12519" lon="-0.01841">
        <ele>7.7</ele>
        <time>2024-03-10T09:00:31Z</time>
      </trkpt>
      <trkpt lat="49.1252" lon="-0.0183">
        <ele>7.7</ele>
        <time>2024-03-10T09:00:32Z</time>
      </trkpt>
      <trkpt lat="49.1252" lon="-0.01819">
        <ele>7.7</ele>
        <time>2024-03-10T09:00:33Z</time>
      </trkpt>
      <trkpt lat="49.12521" lon="-0.01807">
        <ele>7.8</ele>
        <time>2024-03-10T09:00:34Z</time>
      </trkpt>
      <trkpt lat="49.12522" lon="-0.01796">
        <ele>7.8</ele>
        <time>2024-03-10T09:00:35Z</time>
      </trkpt>
      <trkpt lat="49.12523" lon="-0.01785">
        <ele>7.8</ele>
        <time>2024-03-10T09:00:36Z</time>
      </trkpt>
      <trkpt lat="49.12524" lon="-0.01773">
        <ele>7.8</ele>
        <time>2024-03-10T09:00:37Z</time>
      </trkpt>
      <trkpt lat="49.12525" lon="-0.01761">
        <ele>7.8</ele>
        <time>2024-03-10T09:00:38Z</time>
      </trkpt>
      <trkpt lat="49.12526" lon="-0.0175">
        <ele>7.8</ele>
        <time>2024-03-10T09:00:39Z</time>
      </trkpt>
      <trkpt lat="49.12527" lon="-0.01738">
        <ele>7.8</ele>
        <time>2024-03-10T09:00:40Z</time>
      </trkpt>
      <trkpt lat="49.12528" lon="-0.01726">
        <ele>7.8</ele>
        <time>2024-03-10T09:00:41Z</time>
      </trkpt>
      <trkpt lat="49.12529" lon="-0.01714">
        <ele>7.8</ele>
        <time>2024-03-10T09:00:42Z</time>
      </trkpt>
      <trkpt lat="49.1253" lon="-0.01702">
        <ele>7.8</ele>
        <time>2024-03-10T09:00:43Z</time>
      </trkpt>
      <trkpt lat="49.12531" lon="-0.0169">
        <ele>7.8</ele>
        <time>2024-03-10T09:00:44Z</time>
      </trkpt>
      <trkpt lat="49.12532" lon="-0.01678">
        <ele>7.8</ele>
        <time>2024-03-10T09:00:45Z</time>
      </trkpt>
      <trkpt lat="49.12533" lon="-0.01666">
        <ele>7.9</ele>
        <time>2024-03-10T09:00:46Z</time>
      </trkpt>
      <trkpt lat="49.12534" lon="-0.01654">
        <ele>7.9</ele>
        <time>2024-03-10T09:00:47Z</time>
      </trkpt>
      <trkpt lat="49.12535" lon="-0.01641">
        <ele>7.9</ele>
        <time>2024-03-10T09:00:48Z</time>
      </trkpt>
      <trkpt lat="49.12536" lon="-0.0163">
        <ele>8</ele>
        <time>2024-03-10T09:00:49Z</time>
      </trkpt>
      <trkpt lat="49.12537" lon="-0.01618">
        <ele>8</ele>
        <time>2024-03-10T09:00:50Z</time>
      </trkpt>
      <trkpt lat="49.12538" lon="-0.01607">
        <ele>8.1</ele>
        <time>2024-03-10T09:00:51Z</time>
      </trkpt>
      <trkpt lat="49.12539" lon="-0.01596">
        <ele>8.1</ele>
        <time>2024-03-10T09:00:52Z</time>
      </trkpt>
      <trkpt lat="49.1254" lon="-0.01585">
        <ele>8.1</ele>
        <time>2024-03-10T09:00:53Z</time>
      </trkpt>
      <trkpt lat="49.12541" lon="-0.01573">
        <ele>8.1</ele>
        <time>2024-03-10T09:00:54Z</time>
      </trkpt>
      <trkpt lat="49.12542" lon="-0.01561">
        <ele>8.1</ele>
        <time>2024-03-10T09:00:55Z</time>
      </trkpt>
      <trkpt lat="49.12543" lon="-0.01549">
        <ele>8.1</ele>
        <time>2024-03-10T09:00:56Z</time>
      </trkpt>
      <trkpt lat="49.12543" lon="-0.01538">
        <ele>8.1</ele>
        <time>2024-03-10T09:00:57Z</time>
      </trkpt>
      <trkpt lat="49.12544" lon="-0.01526">
        <ele>8.1</ele>
        <time>2024-03-10T09:00:58Z</time>
      </trkpt>
      <trkpt lat="49.12545" lon="-0.01514">
        <ele>8.1</ele>
        <time>2024-03-10T09:00:59Z</time>
      </trkpt>
      <trkpt lat="49.12546" lon="-0.01503">
        <ele>8.1</ele>
        <time>2024-03-10T09:01:00Z</time>
      </trkpt>
      <trkpt lat="49.12547" lon="-0.01491">
        <ele>8.2</ele>
        <time>2024-03-10T09:01:01Z</time>
      </trkpt>
      <trkpt lat="49.12547" lon="-0.0148">
        <ele>8.2</ele>
        <time>2024-03-10T09:01:02Z</time>
      </trkpt>
      <trkpt lat="49.12547" lon="-0.01468">
        <ele>8.2</ele>
        <time>2024-03-10T09:01:03Z</time>
      </trkpt>
      <trkpt lat="49.12547" lon="-0.01457">
        <ele>8.2</ele>
        <time>2024-03-10T09:01:04Z</time>
      </trkpt>
      <trkpt lat="49.12547" lon="-0.01445">
        <ele>8.2</ele>
        <time>2024-03-10T09:01:05Z</time>
      </trkpt>
      <trkpt lat="49.12546" lon="-0.01434">
        <ele>8.2</ele>
        <time>2024-03-10T09:01:06Z</time>
      </trkpt>
      <trkpt lat="49.12546" lon="-0.01423">
        <ele>8.3</ele>
        <time>2024-03-10T09:01:07Z</time>
      </trkpt>
      <trkpt lat="49.12546" lon="-0.01412">
        <ele>8.3</ele>
        <time>2024-03-10T09:01:08Z</time>
      </trkpt>
      <trkpt lat="49.12546" lon="-0.01402">
        <ele>8.3</ele>
        <time>2024-03-10T09:01:09Z</time>
      </trkpt>
      <trkpt lat="49.12545" lon="-0.01391">
        <ele>8.4</ele>
        <time>2024-03-10T09:01:10Z</time>
      </trkpt>
      <trkpt lat="49.12545" lon="-0.0138">
        <ele>8.4</ele>
        <time>2024-03-10T09:01:11Z</time>
      </trkpt>
      <trkpt lat="49.12544" lon="-0.01369">
        <ele>8.4</ele>
        <time>2024-03-10T09:01:12Z</time>
      </trkpt>
      <trkpt lat="49.12543" lon="-0.01358">
        <ele>8.5</ele>
        <time>2024-03-10T09:01:13Z</time>
      </trkpt>
      <trkpt lat="49.12542" lon="-0.01347">
        <ele>8.5</ele>
        <time>2024-03-10T09:01:14Z</time>
      </trkpt>
      <trkpt lat="49.12541" lon="-0.01336">
        <ele>8.5</ele>
        <time>2024-03-10T09:01:15Z</time>
      </trkpt>
      <trkpt lat="49.1254" lon="-0.01325">
        <ele>8.5</ele>
        <time>2024-03-10T09:01:16Z</time>
      </trkpt>
      <trkpt lat="49.12539" lon="-0.01313">
        <ele>8.5</ele>
        <time>2024-03-10T09:01:17Z</time>
      </trkpt>
      <trkpt lat="49.12537" lon="-0.01302">
        <ele>8.6</ele>
        <time>2024-03-10T09:01:18Z</time>
      </trkpt>
      <trkpt lat="49.12536" lon="-0.01291">
        <ele>8.6</ele>
        <time>2024-03-10T09:01:19Z</time>
      </trkpt>
      <trkpt lat="49.12534" lon="-0.0128">
        <ele>8.6</ele>
        <time>2024-03-10T09:01:20Z</time>
      </trkpt>
      <trkpt lat="49.12532" lon="-0.01269">
        <ele>8.6</ele>
        <time>2024-03-10T09:01:21Z</time>
      </trkpt>
      <trkpt lat="49.1253" lon="-0.01258">
        <ele>8.6</ele>
        <time>2024-03-10T09:01:22Z</time>
      </trkpt>
      <trkpt lat="49.12528" lon="-0.01246">
        <ele>8.6</ele>
        <time>2024-03-10T09:01:23Z</time>
      </trkpt>
      <trkpt lat="49.12526" lon="-0.01235">
        <ele>8.6</ele>
        <time>2024-03-10T09:01:24Z</time>
      </trkpt>
      <trkpt lat="49.12523" lon="-0.01225">
        <ele>8.7</ele>
        <time>2024-03-10T09:01:25Z</time>
      </trkpt>
      <trkpt lat="49.1252" lon="-0.01214">
        <ele>8.7</ele>
        <time>2024-03-10T09:01:26Z</time>
      </trkpt>
      <trkpt lat="49.12518" lon="-0.01203">
        <ele>8.7</ele>
        <time>2024-03-10T09:01:27Z</time>
      </trkpt>
      <trkpt lat="49.12515" lon="-0.01193">
        <ele>8.8</ele>
        <time>2024-03-10T09:01:28Z</time>
      </trkpt>
      <trkpt lat="49.12512" lon="-0.01182">
        <ele>8.8</ele>
        <time>2024-03-10T09:01:29Z</time>
      </trkpt>
      <trkpt lat="49.12509" lon="-0.01171">
        <ele>8.8</ele>
        <time>2024-03-10T09:01:30Z</time>
      </trkpt>
      <trkpt lat="49.12506" lon="-0.01161">
        <ele>8.9</ele>
        <time>2024-03-10T09:01:31Z</time>
      </trkpt>
      <trkpt lat="49.12503" lon="-0.01151">
        <ele>8.9</ele>
        <time>2024-03-10T09:01:32Z</time>
      </trkpt>
      <trkpt lat="49.125" lon="-0.0114">
        <ele>8.9</ele>
        <time>2024-03-10T09:01:33Z</time>
      </trkpt>
      <trkpt lat="49.12497" lon="-0.0113">
        <ele>9</ele>
        <time>2024-03-10T09:01:34Z</time>
      </trkpt>
      <trkpt lat="49.12494" lon="-0.01119">
        <ele>9</ele>
        <time>2024-03-10T09:01:35Z</time>
      </trkpt>
      <trkpt lat="49.1249" lon="-0.01108">
        <ele>9.1</ele>
        <time>2024-03-10T09:01:36Z</time>
      </trkpt>
      <trkpt lat="49.12487" lon="-0.01098">
        <ele>9.1</ele>
        <time>2024-03-10T09:01:37Z</time>
      </trkpt>
      <trkpt lat="49.12484" lon="-0.01088">
        <ele>9.1</ele>
        <time>2024-03-10T09:01:38Z</time>
      </trkpt>
      <trkpt lat="49.12481" lon="-0.01077">
        <ele>9.1</ele>
        <time>2024-03-10T09:01:39Z</time>
      </trkpt>
      <trkpt lat="49.12478" lon="-0.01068">
        <ele>9</ele>
        <time>2024-03-10T09:01:40Z</time>
      </trkpt>
      <trkpt lat="49.12475" lon="-0.01058">
        <ele>9</ele>
        <time>2024-03-10T09:01:41Z</time>
      </trkpt>
      <trkpt lat="49.12472" lon="-0.01048">
        <ele>9</ele>
        <time>2024-03-10T09:01:42Z</time>
      </trkpt>
      <trkpt lat="49.12468" lon="-0.01038">
        <ele>9</ele>
        <time>2024-03-10T09:01:43Z</time>
      </trkpt>
      <trkpt lat="49.12465" lon="-0.01029">
        <ele>9</ele>
        <time>2024-03-10T09:01:44Z</time>
      </trkpt>
      <trkpt lat="49.12461" lon="-0.01019">
        <ele>8.9</ele>
        <time>2024-03-10T09:01:45Z</time>
      </trkpt>
      <trkpt lat="49.12457" lon="-0.01009">
        <ele>8.9</ele>
        <time>2024-03-10T09:01:46Z</time>
      </trkpt>
      <trkpt lat="49.12453" lon="-0.00999">
        <ele>9</ele>
        <time>2024-03-10T09:01:47Z</time>
      </trkpt>
      <trkpt lat="49.12449" lon="-0.00989">
        <ele>9</ele>
        <time>2024-03-10T09:01:48Z</time>
      </trkpt>
      <trkpt lat="49.12445" lon="-0.0098">
        <ele>9</ele>
        <time>2024-03-10T09:01:49Z</time>
      </trkpt>
      <trkpt lat="49.12441" lon="-0.0097">
        <ele>9</ele>
        <time>2024-03-10T09:01:50Z</time>
      </trkpt>
      <trkpt lat="49.12437" lon="-0.0096">
        <ele>9</ele>
        <time>2024-03-10T09:01:51Z</time>
      </trkpt>
      <trkpt lat="49.12433" lon="-0.0095">
        <ele>9.1</ele>
        <time>2024-03-10T09:01:52Z</time>
      </trkpt>
      <trkpt lat="49.12429" lon="-0.00941">
        <ele>9.1</ele>
        <time>2024-03-10T09:01:53Z</time>
      </trkpt>
      <trkpt lat="49.12425" lon="-0.00931">
        <ele>9.1</ele>
        <time>2024-03-10T09:01:54Z</time>
      </trkpt>
      <trkpt lat="49.12421" lon="-0.00921">
        <ele>9.1</ele>
        <time>2024-03-10T09:01:55Z</time>
      </trkpt>
      <trkpt lat="49.12417" lon="-0.00912">
        <ele>9.1</ele>
        <time>2024-03-10T09:01:56Z</time>
      </trkpt>
      <trkpt lat="49.12413" lon="-0.00902">
        <ele>9.1</ele>
        <time>2024-03-10T09:01:57Z</time>
      </trkpt>
      <trkpt lat="49.12409" lon="-0.00892">
        <ele>9.1</ele>
        <time>2024-03-10T09:01:58Z</time>
      </trkpt>
      <trkpt lat="49.12405" lon="-0.00883">
        <ele>9.1</ele>
        <time>2024-03-10T09:01:59Z</time>
      </trkpt>
      <trkpt lat="49.124" lon="-0.00874">
        <ele>9.2</ele>
        <time>2024-03-10T09:02:00Z</time>
      </trkpt>
      <trkpt lat="49.12395" lon="-0.00865">
        <ele>9.2</ele>
        <time>2024-03-10T09:02:01Z</time>
      </trkpt>
      <trkpt lat="49.1239" lon="-0.00857">
        <ele>9.2</ele>
        <time>2024-03-10T09:02:02Z</time>
      </trkpt>
      <trkpt lat="49.12384" lon="-0.00849">
        <ele>9.2</ele>
        <time>2024-03-10T09:02:03Z</time>
      </trkpt>
      <trkpt lat="49.12378" lon="-0.00842">
        <ele>9.2</ele>
        <time>2024-03-10T09:02:04Z</time>
      </trkpt>
      <trkpt lat="49.12372" lon="-0.00835">
        <ele>9.2</ele>
        <time>2024-03-10T09:02:05Z</time>
      </trkpt>
      <trkpt lat="49.12366" lon="-0.00828">
        <ele>9.2</ele>
        <time>2024-03-10T09:02:06Z</time>
      </trkpt>
      <trkpt lat="49.1236" lon="-0.00822">
        <ele>9.2</ele>
        <time>2024-03-10T09:02:07Z</time>
      </trkpt>
      <trkpt lat="49.12354" lon="-0.00817">
        <ele>9.3</ele>
        <time>2024-03-10T09:02:08Z</time>
      </trkpt>
      <trkpt lat="49.12347" lon="-0.00812">
        <ele>9.3</ele>
        <time>2024-03-10T09:02:09Z</time>
      </trkpt>
      <trkpt lat="49.12341" lon="-0.00807">
        <ele>9.3</ele>
        <time>2024-03-10T09:02:10Z</time>
      </trkpt>
      <trkpt lat="49.12334" lon="-0.00803">
        <ele>9.3</ele>
        <time>2024-03-10T09:02:11Z</time>
      </trkpt>
      <trkpt lat="49.12327" lon="-0.00799">
        <ele>9.3</ele>
        <time>2024-03-10T09:02:12Z</time>
      </trkpt>
      <trkpt lat="49.1232" lon="-0.00796">
        <ele>9.3</ele>
        <time>2024-03-10T09:02:13Z</time>
      </trkpt>
      <trkpt lat="49.12313" lon="-0.00793">
        <ele>9.3</ele>
        <time>2024-03-10T09:02:14Z</time>
      </trkpt>
      <trkpt lat="49.12306" lon="-0.00789">
        <ele>9.3</ele>
        <time>2024-03-10T09:02:15Z</time>
      </trkpt>
      <trkpt lat="49.123" lon="-0.00785">
        <ele>9.3</ele>
        <time>2024-03-10T09:02:16Z</time>
      </trkpt>
      <trkpt lat="49.12293" lon="-0.0078">
        <ele>9.3</ele>
        <time>2024-03-10T09:02:17Z</time>
      </trkpt>
      <trkpt lat="49.12288" lon="-0.00773">
        <ele>9.3</ele>
        <time>2024-03-10T09:02:18Z</time>
      </trkpt>
      <trkpt lat="49.12283" lon="-0.00764">
        <ele>9.3</ele>
        <time>2024-03-10T09:02:19Z</time>
      </trkpt>
      <trkpt lat="49.12278" lon="-0.00755">
        <ele>9.4</ele>
        <time>2024-03-10T09:02:20Z</time>
      </trkpt>
      <trkpt lat="49.12274" lon="-0.00745">
        <ele>9.5</ele>
        <time>2024-03-10T09:02:21Z</time>
      </trkpt>
      <trkpt lat="49.1227" lon="-0.00735">
        <ele>9.5</ele>
        <time>2024-03-10T09:02:22Z</time>
      </trkpt>
      <trkpt lat="49.12266" lon="-0.00725">
        <ele>9.6</ele>
        <time>2024-03-10T09:02:23Z</time>
      </trkpt>
      <trkpt lat="49.12263" lon="-0.00715">
        <ele>9.6</ele>
        <time>2024-03-10T09:02:24Z</time>
      </trkpt>
      <trkpt lat="49.1226" lon="-0.00705">
        <ele>9.6</ele>
        <time>2024-03-10T09:02:25Z</time>
      </trkpt>
      <trkpt lat="49.12257" lon="-0.00694">
        <ele>9.6</ele>
        <time>2024-03-10T09:02:26Z</time>
      </trkpt>
      <trkpt lat="49.12255" lon="-0.00683">
        <ele>9.6</ele>
        <time>2024-03-10T09:02:27Z</time>
      </trkpt>
      <trkpt lat="49.12252" lon="-0.00672">
        <ele>9.6</ele>
        <time>2024-03-10T09:02:28Z</time>
      </trkpt>
      <trkpt lat="49.12249" lon="-0.00661">
        <ele>9.6</ele>
        <time>2024-03-10T09:02:29Z</time>
      </trkpt>
      <trkpt lat="49.12246" lon="-0.0065">
        <ele>9.6</ele>
        <time>2024-03-10T09:02:30Z</time>
      </trkpt>
      <trkpt lat="49.12242" lon="-0.0064">
        <ele>9.6</ele>
        <time>2024-03-10T09:02:31Z</time>
      </trkpt>
      <trkpt lat="49.12239" lon="-0.0063">
        <ele>9.7</ele>
        <time>2024-03-10T09:02:32Z</time>
      </trkpt>
      <trkpt lat="49.12235" lon="-0.0062">
        <ele>9.7</ele>
        <time>2024-03-10T09:02:33Z</time>
      </trkpt>
      <trkpt lat="49.1223" lon="-0.00611">
        <ele>9.8</ele>
        <time>2024-03-10T09:02:34Z</time>
      </trkpt>
      <trkpt lat="49.12225" lon="-0.00602">
        <ele>9.8</ele>
        <time>2024-03-10T09:02:35Z</time>
      </trkpt>
      <trkpt lat="49.12219" lon="-0.00594">
        <ele>9.9</ele>
        <time>2024-03-10T09:02:36Z</time>
      </trkpt>
      <trkpt lat="49.12213" lon="-0.00587">
        <ele>9.8</ele>
        <time>2024-03-10T09:02:37Z</time>
      </trkpt>
      <trkpt lat="49.12206" lon="-0.0058">
        <ele>9.8</ele>
        <time>2024-03-10T09:02:38Z</time>
      </trkpt>
      <trkpt lat="49.122" lon="-0.00574">
        <ele>9.8</ele>
        <time>2024-03-10T09:02:39Z</time>
      </trkpt>
      <trkpt lat="49.12193" lon="-0.00567">
        <ele>9.7</ele>
        <time>2024-03-10T09:02:40Z</time>
      </trkpt>
      <trkpt lat="49.12187" lon="-0.00561">
        <ele>9.7</ele>
        <time>2024-03-10T09:02:41Z</time>
      </trkpt>
      <trkpt lat="49.12181" lon="-0.00555">
        <ele>9.7</ele>
        <time>2024-03-10T09:02:42Z</time>
      </trkpt>
      <trkpt lat="49.12174" lon="-0.00549">
        <ele>9.7</ele>
        <time>2024-03-10T09:02:43Z</time>
      </trkpt>
      <trkpt lat="49.12168" lon="-0.00543">
        <ele>9.7</ele>
        <time>2024-03-10T09:02:44Z</time>
      </trkpt>
      <trkpt lat="49.12162" lon="-0.00536">
        <ele>9.7</ele>
        <time>2024-03-10T09:02:45Z</time>
      </trkpt>
      <trkpt lat="49.12156" lon="-0.00529">
        <ele>9.7</ele>
        <time>2024-03-10T09:02:46Z</time>
      </trkpt>
      <trkpt lat="49.1215" lon="-0.00523">
        <ele>9.7</ele>
        <time>2024-03-10T09:02:47Z</time>
      </trkpt>
      <trkpt lat="49.12144" lon="-0.00516">
        <ele>9.7</ele>
        <time>2024-03-10T09:02:48Z</time>
      </trkpt>
      <trkpt lat="49.12137" lon="-0.0051">
        <ele>9.7</ele>
        <time>2024-03-10T09:02:49Z</time>
      </trkpt>
      <trkpt lat="49.12131" lon="-0.00504">
        <ele>9.6</ele>
        <time>2024-03-10T09:02:50Z</time>
      </trkpt>
      <trkpt lat="49.12125" lon="-0.00498">
        <ele>9.7</ele>
        <time>2024-03-10T09:02:51Z</time>
      </trkpt>
      <trkpt lat="49.12119" lon="-0.00492">
        <ele>9.7</ele>
        <time>2024-03-10T09:02:52Z</time>
      </trkpt>
      <trkpt lat="49.12112" lon="-0.00487">
        <ele>9.7</ele>
        <time>2024-03-10T09:02:53Z</time>
      </trkpt>
      <trkpt lat="49.12106" lon="-0.00483">
        <ele>9.7</ele>
        <time>2024-03-10T09:02:54Z</time>
      </trkpt>
      <trkpt lat="49.121" lon="-0.0048">
        <ele>9.8</ele>
        <time>2024-03-10T09:02:55Z</time>
      </trkpt>
      <trkpt lat="49.12093" lon="-0.00476">
        <ele>9.8</ele>
        <time>2024-03-10T09:02:56Z</time>
      </trkpt>
      <trkpt lat="49.12087" lon="-0.00473">
        <ele>9.8</ele>
        <time>2024-03-10T09:02:57Z</time>
      </trkpt>
      <trkpt lat="49.1208" lon="-0.0047">
        <ele>9.8</ele>
        <time>2024-03-10T09:02:58Z</time>
      </trkpt>
      <trkpt lat="49.12073" lon="-0.00467">
        <ele>9.8</ele>
        <time>2024-03-10T09:02:59Z</time>
      </trkpt>
      <trkpt lat="49.12066" lon="-0.00463">
        <ele>9.8</ele>
        <time>2024-03-10T09:03:00Z</time>
      </trkpt>
      <trkpt lat="49.12059" lon="-0.00459">
        <ele>9.8</ele>
        <time>2024-03-10T09:03:01Z</time>
      </trkpt>
      <trkpt lat="49.12052" lon="-0.00456">
        <ele>9.8</ele>
        <time>2024-03-10T09:03:02Z</time>
      </trkpt>
      <trkpt lat="49.12045" lon="-0.00452">
        <ele>9.8</ele>
        <time>2024-03-10T09:03:03Z</time>
      </trkpt>
      <trkpt lat="49.12039" lon="-0.00448">
        <ele>9.8</ele>
        <time>2024-03-10T09:03:04Z</time>
      </trkpt>
      <trkpt lat="49.12032" lon="-0.00444">
        <ele>9.8</ele>
        <time>2024-03-10T09:03:05Z</time>
      </trkpt>
      <trkpt lat="49.12025" lon="-0.0044">
        <ele>9.8</ele>
        <time>2024-03-10T09:03:06Z</time>
      </trkpt>
      <trkpt lat="49.12019" lon="-0.00437">
        <ele>9.8</ele>
        <time>2024-03-10T09:03:07Z</time>
      </trkpt>
      <trkpt lat="49.12013" lon="-0.00435">
        <ele>9.8</ele>
        <time>2024-03-10T09:03:08Z</time>
      </trkpt>
      <trkpt lat="49.12007" lon="-0.00433">
        <ele>9.7</ele>
        <time>2024-03-10T09:03:09Z</time>
      </trkpt>
      <trkpt lat="49.12001" lon="-0.00431">
        <ele>9.7</ele>
        <time>2024-03-10T09:03:10Z</time>
      </trkpt>
      <trkpt lat="49.11994" lon="-0.0043">
        <ele>9.6</ele>
        <time>2024-03-10T09:03:11Z</time>
      </trkpt>
      <trkpt lat="49.11987" lon="-0.00431">
        <ele>9.6</ele>
        <time>2024-03-10T09:03:12Z</time>
      </trkpt>
      <trkpt lat="49.11979" lon="-0.00431">
        <ele>9.6</ele>
        <time>2024-03-10T09:03:13Z</time>
      </trkpt>
      <trkpt lat="49.11972" lon="-0.00433">
        <ele>9.6</ele>
        <time>2024-03-10T09:03:14Z</time>
      </trkpt>
      <trkpt lat="49.11965" lon="-0.00435">
        <ele>9.6</ele>
        <time>2024-03-10T09:03:15Z</time>
      </trkpt>
      <trkpt lat="49.11958" lon="-0.00437">
        <ele>9.6</ele>
        <time>2024-03-10T09:03:16Z</time>
      </trkpt>
      <trkpt lat="49.1195" lon="-0.00438">
        <ele>9.6</ele>
        <time>2024-03-10T09:03:17Z</time>
      </trkpt>
      <trkpt lat="49.11943" lon="-0.00438">
        <ele>9.7</ele>
        <time>2024-03-10T09:03:18Z</time>
      </trkpt>
      <trkpt lat="49.11936" lon="-0.00437">
        <ele>9.7</ele>
        <time>2024-03-10T09:03:19Z</time>
      </trkpt>
      <trkpt lat="49.11929" lon="-0.00436">
        <ele>9.7</ele>
        <time>2024-03-10T09:03:20Z</time>
      </trkpt>
      <trkpt lat="49.11922" lon="-0.00434">
        <ele>9.7</ele>
        <time>2024-03-10T09:03:21Z</time>
      </trkpt>
      <trkpt lat="49.11915" lon="-0.00432">
        <ele>9.7</ele>
        <time>2024-03-10T09:03:22Z</time>
      </trkpt>
      <trkpt lat="49.11908" lon="-0.00429">
        <ele>9.8</ele>
        <time>2024-03-10T09:03:23Z</time>
      </trkpt>
      <trkpt lat="49.11901" lon="-0.00427">
        <ele>9.8</ele>
        <time>2024-03-10T09:03:24Z</time>
      </trkpt>
      <trkpt lat="49.11895" lon="-0.00424">
        <ele>9.8</ele>
        <time>2024-03-10T09:03:25Z</time>
      </trkpt>
      <trkpt lat="49.11888" lon="-0.00421">
        <ele>9.8</ele>
        <time>2024-03-10T09:03:26Z</time>
      </trkpt>
      <trkpt lat="49.11881" lon="-0.00417">
        <ele>9.8</ele>
        <time>2024-03-10T09:03:27Z</time>
      </trkpt>
      <trkpt lat="49.11875" lon="-0.00414">
        <ele>9.8</ele>
        <time>2024-03-10T09:03:28Z</time>
      </trkpt>
      <trkpt lat="49.11869" lon="-0.00411">
        <ele>9.9</ele>
        <time>2024-03-10T09:03:29Z</time>
      </trkpt>
      <trkpt lat="49.11864" lon="-0.00409">
        <ele>9.9</ele>
        <time>2024-03-10T09:03:30Z</time>
      </trkpt>
      <trkpt lat="49.11858" lon="-0.00407">
        <ele>9.9</ele>
        <time>2024-03-10T09:03:31Z</time>
      </trkpt>
      <trkpt lat="49.11852" lon="-0.00405">
        <ele>9.8</ele>
        <time>2024-03-10T09:03:32Z</time>
      </trkpt>
      <trkpt lat="49.11846" lon="-0.00402">
        <ele>9.8</ele>
        <time>2024-03-10T09:03:33Z</time>
      </trkpt>
      <trkpt lat="49.1184" lon="-0.004">
        <ele>9.8</ele>
        <time>2024-03-10T09:03:34Z</time>
      </trkpt>
      <trkpt lat="49.11834" lon="-0.00397">
        <ele>9.8</ele>
        <time>2024-03-10T09:03:35Z</time>
      </trkpt>
      <trkpt lat="49.11827" lon="-0.00395">
        <ele>9.8</ele>
        <time>2024-03-10T09:03:36Z</time>
      </trkpt>
      <trkpt lat="49.1182" lon="-0.00395">
        <ele>9.8</ele>
        <time>2024-03-10T09:03:37Z</time>
      </trkpt>
      <trkpt lat="49.11812" lon="-0.00395">
        <ele>9.8</ele>
        <time>2024-03-10T09:03:38Z</time>
      </trkpt>
      <trkpt lat="49.11805" lon="-0.00395">
        <ele>9.8</ele>
        <time>2024-03-10T09:03:39Z</time>
      </trkpt>
      <trkpt lat="49.11797" lon="-0.00395">
        <ele>9.8</ele>
        <time>2024-03-10T09:03:40Z</time>
      </trkpt>
      <trkpt lat="49.1179" lon="-0.00396">
        <ele>9.8</ele>
        <time>2024-03-10T09:03:41Z</time>
      </trkpt>
      <trkpt lat="49.11782" lon="-0.00396">
        <ele>9.8</ele>
        <time>2024-03-10T09:03:42Z</time>
      </trkpt>
      <trkpt lat="49.11775" lon="-0.00395">
        <ele>9.8</ele>
        <time>2024-03-10T09:03:43Z</time>
      </trkpt>
      <trkpt lat="49.11768" lon="-0.00394">
        <ele>9.9</ele>
        <time>2024-03-10T09:03:44Z</time>
      </trkpt>
      <trkpt lat="49.1176" lon="-0.00393">
        <ele>9.9</ele>
        <time>2024-03-10T09:03:45Z</time>
      </trkpt>
      <trkpt lat="49.11753" lon="-0.00392">
        <ele>9.9</ele>
        <time>2024-03-10T09:03:46Z</time>
      </trkpt>
      <trkpt lat="49.11746" lon="-0.00391">
        <ele>10</ele>
        <time>2024-03-10T09:03:47Z</time>
      </trkpt>
      <trkpt lat="49.11739" lon="-0.0039">
        <ele>10</ele>
        <time>2024-03-10T09:03:48Z</time>
      </trkpt>
      <trkpt lat="49.11733" lon="-0.00389">
        <ele>10</ele>
        <time>2024-03-10T09:03:49Z</time>
      </trkpt>
      <trkpt lat="49.11726" lon="-0.00388">
        <ele>10.1</ele>
        <time>2024-03-10T09:03:50Z</time>
      </trkpt>
      <trkpt lat="49.11719" lon="-0.00387">
        <ele>10.1</ele>
        <time>2024-03-10T09:03:51Z</time>
      </trkpt>
      <trkpt lat="49.11712" lon="-0.00387">
        <ele>10.2</ele>
        <time>2024-03-10T09:03:52Z</time>
      </trkpt>
      <trkpt lat="49.11706" lon="-0.00386">
        <ele>10.2</ele>
        <time>2024-03-10T09:03:53Z</time>
      </trkpt>
      <trkpt lat="49.11699" lon="-0.00386">
        <ele>10.2</ele>
        <time>2024-03-10T09:03:54Z</time>
      </trkpt>
      <trkpt lat="49.11693" lon="-0.00385">
        <ele>10.3</ele>
        <time>2024-03-10T09:03:55Z</time>
      </trkpt>
      <trkpt lat="49.11686" lon="-0.00384">
        <ele>10.3</ele>
        <time>2024-03-10T09:03:56Z</time>
      </trkpt>
      <trkpt lat="49.1168" lon="-0.00383">
        <ele>10.3</ele>
        <time>2024-03-10T09:03:57Z</time>
      </trkpt>
      <trkpt lat="49.11673" lon="-0.00383">
        <ele>10.3</ele>
        <time>2024-03-10T09:03:58Z</time>
      </trkpt>
      <trkpt lat="49.11667" lon="-0.00384">
        <ele>10.3</ele>
        <time>2024-03-10T09:03:59Z</time>
      </trkpt>
      <trkpt lat="49.1166" lon="-0.00383">
        <ele>10.3</ele>
        <time>2024-03-10T09:04:00Z</time>
      </trkpt>
      <trkpt lat="49.11654" lon="-0.00383">
        <ele>10.3</ele>
        <time>2024-03-10T09:04:01Z</time>
      </trkpt>
      <trkpt lat="49.11648" lon="-0.00383">
        <ele>10.3</ele>
        <time>2024-03-10T09:04:02Z</time>
      </trkpt>
      <trkpt lat="49.11641" lon="-0.00382">
        <ele>10.2</ele>
        <time>2024-03-10T09:04:03Z</time>
      </trkpt>
      <trkpt lat="49.11634" lon="-0.00382">
        <ele>10.2</ele>
        <time>2024-03-10T09:04:04Z</time>
      </trkpt>
      <trkpt lat="49.11627" lon="-0.00381">
        <ele>10.2</ele>
        <time>2024-03-10T09:04:05Z</time>
      </trkpt>
      <trkpt lat="49.11619" lon="-0.0038">
        <ele>10.2</ele>
        <time>2024-03-10T09:04:06Z</time>
      </trkpt>
      <trkpt lat="49.11612" lon="-0.00378">
        <ele>10.2</ele>
        <time>2024-03-10T09:04:07Z</time>
      </trkpt>
      <trkpt lat="49.11605" lon="-0.00378">
        <ele>10.2</ele>
        <time>2024-03-10T09:04:08Z</time>
      </trkpt>
      <trkpt lat="49.11598" lon="-0.00378">
        <ele>10.1</ele>
        <time>2024-03-10T09:04:09Z</time>
      </trkpt>
      <trkpt lat="49.11591" lon="-0.00379">
        <ele>10.1</ele>
        <time>2024-03-10T09:04:10Z</time>
      </trkpt>
      <trkpt lat="49.11583" lon="-0.0038">
        <ele>10.1</ele>
        <time>2024-03-10T09:04:11Z</time>
      </trkpt>
      <trkpt lat="49.11575" lon="-0.0038">
        <ele>10.1</ele>
        <time>2024-03-10T09:04:12Z</time>
      </trkpt>
      <trkpt lat="49.11566" lon="-0.0038">
        <ele>10.2</ele>
        <time>2024-03-10T09:04:13Z</time>
      </trkpt>
      <trkpt lat="49.11558" lon="-0.0038">
        <ele>10.2</ele>
        <time>2024-03-10T09:04:14Z</time>
      </trkpt>
      <trkpt lat="49.11551" lon="-0.0038">
        <ele>10.2</ele>
        <time>2024-03-10T09:04:15Z</time>
      </trkpt>
      <trkpt lat="49.11543" lon="-0.0038">
        <ele>10.2</ele>
        <time>2024-03-10T09:04:16Z</time>
      </trkpt>
      <trkpt lat="49.11535" lon="-0.0038">
        <ele>10.2</ele>
        <time>2024-03-10T09:04:17Z</time>
      </trkpt>
      <trkpt lat="49.11528" lon="-0.0038">
        <ele>10.3</ele>
        <time>2024-03-10T09:04:18Z</time>
      </trkpt>
      <trkpt lat="49.11521" lon="-0.00379">
        <ele>10.3</ele>
        <time>2024-03-10T09:04:19Z</time>
      </trkpt>
      <trkpt lat="49.11514" lon="-0.00379">
        <ele>10.3</ele>
        <time>2024-03-10T09:04:20Z</time>
      </trkpt>
      <trkpt lat="49.11507" lon="-0.00379">
        <ele>10.3</ele>
        <time>2024-03-10T09:04:21Z</time>
      </trkpt>
      <trkpt lat="49.11499" lon="-0.00379">
        <ele>10.4</ele>
        <time>2024-03-10T09:04:22Z</time>
      </trkpt>
      <trkpt lat="49.11492" lon="-0.00379">
        <ele>10.4</ele>
        <time>2024-03-10T09:04:23Z</time>
      </trkpt>
      <trkpt lat="49.11485" lon="-0.00379">
        <ele>10.4</ele>
        <time>2024-03-10T09:04:24Z</time>
      </trkpt>
      <trkpt lat="49.11477" lon="-0.00378">
        <ele>10.4</ele>
        <time>2024-03-10T09:04:25Z</time>
      </trkpt>
      <trkpt lat="49.1147" lon="-0.00378">
        <ele>10.4</ele>
        <time>2024-03-10T09:04:26Z</time>
      </trkpt>
      <trkpt lat="49.11462" lon="-0.00378">
        <ele>10.4</ele>
        <time>2024-03-10T09:04:27Z</time>
      </trkpt>
      <trkpt lat="49.11454" lon="-0.00378">
        <ele>10.4</ele>
        <time>2024-03-10T09:04:28Z</time>
      </trkpt>
      <trkpt lat="49.11447" lon="-0.00378">
        <ele>10.4</ele>
        <time>2024-03-10T09:04:29Z</time>
      </trkpt>
      <trkpt lat="49.11439" lon="-0.00377">
        <ele>10.4</ele>
        <time>2024-03-10T09:04:30Z</time>
      </trkpt>
      <trkpt lat="49.11431" lon="-0.00378">
        <ele>10.4</ele>
        <time>2024-03-10T09:04:31Z</time>
      </trkpt>
      <trkpt lat="49.11424" lon="-0.00378">
        <ele>10.4</ele>
        <time>2024-03-10T09:04:32Z</time>
      </trkpt>
      <trkpt lat="49.11416" lon="-0.00377">
        <ele>10.5</ele>
        <time>2024-03-10T09:04:33Z</time>
      </trkpt>
      <trkpt lat="49.11408" lon="-0.00377">
        <ele>10.5</ele>
        <time>2024-03-10T09:04:34Z</time>
      </trkpt>
      <trkpt lat="49.114" lon="-0.00377">
        <ele>10.5</ele>
        <time>2024-03-10T09:04:35Z</time>
      </trkpt>
      <trkpt lat="49.11392" lon="-0.00377">
        <ele>10.5</ele>
        <time>2024-03-10T09:04:36Z</time>
      </trkpt>
      <trkpt lat="49.11384" lon="-0.00377">
        <ele>10.6</ele>
        <time>2024-03-10T09:04:37Z</time>
      </trkpt>
      <trkpt lat="49.11377" lon="-0.00377">
        <ele>10.5</ele>
        <time>2024-03-10T09:04:38Z</time>
      </trkpt>
      <trkpt lat="49.11369" lon="-0.00376">
        <ele>10.5</ele>
        <time>2024-03-10T09:04:39Z</time>
      </trkpt>
      <trkpt lat="49.11362" lon="-0.00376">
        <ele>10.5</ele>
        <time>2024-03-10T09:04:40Z</time>
      </trkpt>
      <trkpt lat="49.11354" lon="-0.00377">
        <ele>10.4</ele>
        <time>2024-03-10T09:04:41Z</time>
      </trkpt>
      <trkpt lat="49.11346" lon="-0.00377">
        <ele>10.4</ele>
        <time>2024-03-10T09:04:42Z</time>
      </trkpt>
      <trkpt lat="49.11338" lon="-0.00377">
        <ele>10.3</ele>
        <time>2024-03-10T09:04:43Z</time>
      </trkpt>
      <trkpt lat="49.1133" lon="-0.00377">
        <ele>10.3</ele>
        <time>2024-03-10T09:04:44Z</time>
      </trkpt>
      <trkpt lat="49.11322" lon="-0.00377">
        <ele>10.2</ele>
        <time>2024-03-10T09:04:45Z</time>
      </trkpt>
      <trkpt lat="49.11313" lon="-0.00377">
        <ele>10.2</ele>
        <time>2024-03-10T09:04:46Z</time>
      </trkpt>
      <trkpt lat="49.11305" lon="-0.00377">
        <ele>10.2</ele>
        <time>2024-03-10T09:04:47Z</time>
      </trkpt>
      <trkpt lat="49.11297" lon="-0.00377">
        <ele>10.2</ele>
        <time>2024-03-10T09:04:48Z</time>
      </trkpt>
      <trkpt lat="49.11288" lon="-0.00377">
        <ele>10.2</ele>
        <time>2024-03-10T09:04:49Z</time>
      </trkpt>
      <trkpt lat="49.1128" lon="-0.00377">
        <ele>10.2</ele>
        <time>2024-03-10T09:04:50Z</time>
      </trkpt>
      <trkpt lat="49.11272" lon="-0.00377">
        <ele>10.2</ele>
        <time>2024-03-10T09:04:51Z</time>
      </trkpt>
      <trkpt lat="49.11264" lon="-0.00376">
        <ele>10.2</ele>
        <time>2024-03-10T09:04:52Z</time>
      </trkpt>
      <trkpt lat="49.11256" lon="-0.00375">
        <ele>10.2</ele>
        <time>2024-03-10T09:04:53Z</time>
      </trkpt>
      <trkpt lat="49.11249" lon="-0.00374">
        <ele>10.2</ele>
        <time>2024-03-10T09:04:54Z</time>
      </trkpt>
      <trkpt lat="49.11241" lon="-0.00371">
        <ele>10.2</ele>
        <time>2024-03-10T09:04:55Z</time>
      </trkpt>
      <trkpt lat="49.11233" lon="-0.00369">
        <ele>10.2</ele>
        <time>2024-03-10T09:04:56Z</time>
      </trkpt>
      <trkpt lat="49.11226" lon="-0.00367">
        <ele>10.2</ele>
        <time>2024-03-10T09:04:57Z</time>
      </trkpt>
      <trkpt lat="49.11219" lon="-0.00365">
        <ele>10.2</ele>
        <time>2024-03-10T09:04:58Z</time>
      </trkpt>
      <trkpt lat="49.11212" lon="-0.00363">
        <ele>10.2</ele>
        <time>2024-03-10T09:04:59Z</time>
      </trkpt>
      <trkpt lat="49.11204" lon="-0.0036">
        <ele>10.2</ele>
        <time>2024-03-10T09:05:00Z</time>
      </trkpt>
      <trkpt lat="49.11197" lon="-0.00358">
        <ele>10.2</ele>
        <time>2024-03-10T09:05:01Z</time>
      </trkpt>
      <trkpt lat="49.11191" lon="-0.00357">
        <ele>10.2</ele>
        <time>2024-03-10T09:05:02Z</time>
      </trkpt>
      <trkpt lat="49.11184" lon="-0.00356">
        <ele>10.2</ele>
        <time>2024-03-10T09:05:03Z</time>
      </trkpt>
      <trkpt lat="49.11177" lon="-0.00355">
        <ele>10.2</ele>
        <time>2024-03-10T09:05:04Z</time>
      </trkpt>
      <trkpt lat="49.11171" lon="-0.00354">
        <ele>10.2</ele>
        <time>2024-03-10T09:05:05Z</time>
      </trkpt>
      <trkpt lat="49.11164" lon="-0.00354">
        <ele>10.2</ele>
        <time>2024-03-10T09:05:06Z</time>
      </trkpt>
      <trkpt lat="49.11157" lon="-0.00355">
        <ele>10.2</ele>
        <time>2024-03-10T09:05:07Z</time>
      </trkpt>
      <trkpt lat="49.11149" lon="-0.00355">
        <ele>10.2</ele>
        <time>2024-03-10T09:05:08Z</time>
      </trkpt>
      <trkpt lat="49.11141" lon="-0.00356">
        <ele>10.2</ele>
        <time>2024-03-10T09:05:09Z</time>
      </trkpt>
      <trkpt lat="49.11133" lon="-0.00356">
        <ele>10.2</ele>
        <time>2024-03-10T09:05:10Z</time>
      </trkpt>
      <trkpt lat="49.11126" lon="-0.00357">
        <ele>10.3</ele>
        <time>2024-03-10T09:05:11Z</time>
      </trkpt>
      <trkpt lat="49.1112" lon="-0.00358">
        <ele>10.4</ele>
        <time>2024-03-10T09:05:12Z</time>
      </trkpt>
      <trkpt lat="49.11114" lon="-0.00358">
        <ele>10.6</ele>
        <time>2024-03-10T09:05:13Z</time>
      </trkpt>
      <trkpt lat="49.11109" lon="-0.00358">
        <ele>10.8</ele>
        <time>2024-03-10T09:05:14Z</time>
      </trkpt>
      <trkpt lat="49.11106" lon="-0.00358">
        <ele>11</ele>
        <time>2024-03-10T09:05:15Z</time>
      </trkpt>
      <trkpt lat="49.11102" lon="-0.00358">
        <ele>11.2</ele>
        <time>2024-03-10T09:05:16Z</time>
      </trkpt>
      <trkpt lat="49.11099" lon="-0.00359">
        <ele>11.4</ele>
        <time>2024-03-10T09:05:17Z</time>
      </trkpt>
      <trkpt lat="49.11095" lon="-0.0036">
        <ele>11.7</ele>
        <time>2024-03-10T09:05:18Z</time>
      </trkpt>
      <trkpt lat="49.11093" lon="-0.0036">
        <ele>11.9</ele>
        <time>2024-03-10T09:05:19Z</time>
      </trkpt>
      <trkpt lat="49.11089" lon="-0.00358">
        <ele>12.6</ele>
        <time>2024-03-10T09:05:20Z</time>
      </trkpt>
      <trkpt lat="49.11088" lon="-0.00357">
        <ele>12.6</ele>
        <time>2024-03-10T09:05:21Z</time>
      </trkpt>
      <trkpt lat="49.11086" lon="-0.00351">
        <ele>12.6</ele>
        <time>2024-03-10T09:05:22Z</time>
      </trkpt>
      <trkpt lat="49.11085" lon="-0.00343">
        <ele>12.7</ele>
        <time>2024-03-10T09:05:23Z</time>
      </trkpt>
      <trkpt lat="49.11085" lon="-0.00335">
        <ele>12.7</ele>
        <time>2024-03-10T09:05:24Z</time>
      </trkpt>
      <trkpt lat="49.11084" lon="-0.00327">
        <ele>12.7</ele>
        <time>2024-03-10T09:05:25Z</time>
      </trkpt>
      <trkpt lat="49.11084" lon="-0.00319">
        <ele>12.7</ele>
        <time>2024-03-10T09:05:26Z</time>
      </trkpt>
      <trkpt lat="49.11084" lon="-0.0031">
        <ele>12.7</ele>
        <time>2024-03-10T09:05:27Z</time>
      </trkpt>
      <trkpt lat="49.11083" lon="-0.00301">
        <ele>12.7</ele>
        <time>2024-03-10T09:05:28Z</time>
      </trkpt>
      <trkpt lat="49.11084" lon="-0.00292">
        <ele>12.8</ele>
        <time>2024-03-10T09:05:29Z</time>
      </trkpt>
      <trkpt lat="49.11084" lon="-0.00282">
        <ele>12.8</ele>
        <time>2024-03-10T09:05:30Z</time>
      </trkpt>
      <trkpt lat="49.11084" lon="-0.00272">
        <ele>12.8</ele>
        <time>2024-03-10T09:05:31Z</time>
      </trkpt>
      <trkpt lat="49.11085" lon="-0.00262">
        <ele>12.9</ele>
        <time>2024-03-10T09:05:32Z</time>
      </trkpt>
      <trkpt lat="49.11085" lon="-0.00252">
        <ele>12.9</ele>
        <time>2024-03-10T09:05:33Z</time>
      </trkpt>
      <trkpt lat="49.11086" lon="-0.00241">
        <ele>12.9</ele>
        <time>2024-03-10T09:05:34Z</time>
      </trkpt>
      <trkpt lat="49.11086" lon="-0.00229">
        <ele>12.9</ele>
        <time>2024-03-10T09:05:35Z</time>
      </trkpt>
      <trkpt lat="49.11087" lon="-0.00218">
        <ele>12.9</ele>
        <time>2024-03-10T09:05:36Z</time>
      </trkpt>
      <trkpt lat="49.11087" lon="-0.00207">
        <ele>12.9</ele>
        <time>2024-03-10T09:05:37Z</time>
      </trkpt>
      <trkpt lat="49.11087" lon="-0.00196">
        <ele>12.9</ele>
        <time>2024-03-10T09:05:38Z</time>
      </trkpt>
      <trkpt lat="49.11087" lon="-0.00184">
        <ele>12.9</ele>
        <time>2024-03-10T09:05:39Z</time>
      </trkpt>
      <trkpt lat="49.11087" lon="-0.00172">
        <ele>12.8</ele>
        <time>2024-03-10T09:05:40Z</time>
      </trkpt>
      <trkpt lat="49.11088" lon="-0.0016">
        <ele>12.7</ele>
        <time>2024-03-10T09:05:41Z</time>
      </trkpt>
      <trkpt lat="49.11088" lon="-0.00148">
        <ele>12.6</ele>
        <time>2024-03-10T09:05:42Z</time>
      </trkpt>
      <trkpt lat="49.11089" lon="-0.00135">
        <ele>12.5</ele>
        <time>2024-03-10T09:05:43Z</time>
      </trkpt>
      <trkpt lat="49.11089" lon="-0.00122">
        <ele>12.3</ele>
        <time>2024-03-10T09:05:44Z</time>
      </trkpt>
      <trkpt lat="49.11089" lon="-0.0011">
        <ele>12.2</ele>
        <time>2024-03-10T09:05:45Z</time>
      </trkpt>
      <trkpt lat="49.1109" lon="-0.00097">
        <ele>12</ele>
        <time>2024-03-10T09:05:46Z</time>
      </trkpt>
      <trkpt lat="49.1109" lon="-0.00085">
        <ele>11.9</ele>
        <time>2024-03-10T09:05:47Z</time>
      </trkpt>
      <trkpt lat="49.1109" lon="-0.00072">
        <ele>11.9</ele>
        <time>2024-03-10T09:05:48Z</time>
      </trkpt>
      <trkpt lat="49.1109" lon="-0.0006">
        <ele>11.8</ele>
        <time>2024-03-10T09:05:49Z</time>
      </trkpt>
      <trkpt lat="49.11091" lon="-0.00047">
        <ele>11.8</ele>
        <time>2024-03-10T09:05:50Z</time>
      </trkpt>
      <trkpt lat="49.11091" lon="-0.00036">
        <ele>11.8</ele>
        <time>2024-03-10T09:05:51Z</time>
      </trkpt>
      <trkpt lat="49.1109" lon="-0.00024">
        <ele>11.9</ele>
        <time>2024-03-10T09:05:52Z</time>
      </trkpt>
      <trkpt lat="49.1109" lon="-0.00012">
        <ele>11.9</ele>
        <time>2024-03-10T09:05:53Z</time>
      </trkpt>
      <trkpt lat="49.11089" lon="-1.0E-5">
        <ele>11.9</ele>
        <time>2024-03-10T09:05:54Z</time>
      </trkpt>
      <trkpt lat="49.11088" lon="0.00012">
        <ele>11.9</ele>
        <time>2024-03-10T09:05:55Z</time>
      </trkpt>
      <trkpt lat="49.11088" lon="0.00024">
        <ele>11.9</ele>
        <time>2024-03-10T09:05:56Z</time>
      </trkpt>
      <trkpt lat="49.11087" lon="0.00036">
        <ele>11.9</ele>
        <time>2024-03-10T09:05:57Z</time>
      </trkpt>
      <trkpt lat="49.11087" lon="0.00048">
        <ele>12</ele>
        <time>2024-03-10T09:05:58Z</time>
      </trkpt>
      <trkpt lat="49.11086" lon="0.0006">
        <ele>12</ele>
        <time>2024-03-10T09:05:59Z</time>
      </trkpt>
      <trkpt lat="49.11086" lon="0.00073">
        <ele>12</ele>
        <time>2024-03-10T09:06:00Z</time>
      </trkpt>
      <trkpt lat="49.11085" lon="0.00085">
        <ele>11.9</ele>
        <time>2024-03-10T09:06:01Z</time>
      </trkpt>
      <trkpt lat="49.11084" lon="0.00097">
        <ele>11.9</ele>
        <time>2024-03-10T09:06:02Z</time>
      </trkpt>
      <trkpt lat="49.11083" lon="0.00109">
        <ele>11.9</ele>
        <time>2024-03-10T09:06:03Z</time>
      </trkpt>
      <trkpt lat="49.11082" lon="0.00121">
        <ele>11.9</ele>
        <time>2024-03-10T09:06:04Z</time>
      </trkpt>
      <trkpt lat="49.11082" lon="0.00133">
        <ele>12</ele>
        <time>2024-03-10T09:06:05Z</time>
      </trkpt>
      <trkpt lat="49.11082" lon="0.00144">
        <ele>12</ele>
        <time>2024-03-10T09:06:06Z</time>
      </trkpt>
      <trkpt lat="49.11082" lon="0.00156">
        <ele>12</ele>
        <time>2024-03-10T09:06:07Z</time>
      </trkpt>
      <trkpt lat="49.11081" lon="0.00168">
        <ele>12.1</ele>
        <time>2024-03-10T09:06:08Z</time>
      </trkpt>
      <trkpt lat="49.11081" lon="0.0018">
        <ele>12.1</ele>
        <time>2024-03-10T09:06:09Z</time>
      </trkpt>
      <trkpt lat="49.11081" lon="0.00192">
        <ele>12.2</ele>
        <time>2024-03-10T09:06:10Z</time>
      </trkpt>
      <trkpt lat="49.11081" lon="0.00204">
        <ele>12.3</ele>
        <time>2024-03-10T09:06:11Z</time>
      </trkpt>
      <trkpt lat="49.11081" lon="0.00216">
        <ele>12.4</ele>
        <time>2024-03-10T09:06:12Z</time>
      </trkpt>
      <trkpt lat="49.11081" lon="0.00228">
        <ele>12.5</ele>
        <time>2024-03-10T09:06:13Z</time>
      </trkpt>
      <trkpt lat="49.11081" lon="0.0024">
        <ele>12.7</ele>
        <time>2024-03-10T09:06:14Z</time>
      </trkpt>
      <trkpt lat="49.11081" lon="0.00251">
        <ele>12.8</ele>
        <time>2024-03-10T09:06:15Z</time>
      </trkpt>
      <trkpt lat="49.11081" lon="0.00263">
        <ele>12.9</ele>
        <time>2024-03-10T09:06:16Z</time>
      </trkpt>
      <trkpt lat="49.11082" lon="0.00273">
        <ele>13.1</ele>
        <time>2024-03-10T09:06:17Z</time>
      </trkpt>
      <trkpt lat="49.11082" lon="0.00284">
        <ele>13.2</ele>
        <time>2024-03-10T09:06:18Z</time>
      </trkpt>
      <trkpt lat="49.11082" lon="0.00294">
        <ele>13.4</ele>
        <time>2024-03-10T09:06:19Z</time>
      </trkpt>
      <trkpt lat="49.11083" lon="0.00303">
        <ele>13.5</ele>
        <time>2024-03-10T09:06:20Z</time>
      </trkpt>
      <trkpt lat="49.11083" lon="0.00312">
        <ele>13.6</ele>
        <time>2024-03-10T09:06:21Z</time>
      </trkpt>
      <trkpt lat="49.11083" lon="0.0032">
        <ele>13.8</ele>
        <time>2024-03-10T09:06:22Z</time>
      </trkpt>
      <trkpt lat="49.11083" lon="0.00328">
        <ele>13.9</ele>
        <time>2024-03-10T09:06:23Z</time>
      </trkpt>
      <trkpt lat="49.11083" lon="0.00336">
        <ele>14</ele>
        <time>2024-03-10T09:06:24Z</time>
      </trkpt>
      <trkpt lat="49.11082" lon="0.00344">
        <ele>14.1</ele>
        <time>2024-03-10T09:06:25Z</time>
      </trkpt>
      <trkpt lat="49.1108" lon="0.00352">
        <ele>14.2</ele>
        <time>2024-03-10T09:06:26Z</time>
      </trkpt>
      <trkpt lat="49.11076" lon="0.00359">
        <ele>14.3</ele>
        <time>2024-03-10T09:06:27Z</time>
      </trkpt>
      <trkpt lat="49.11072" lon="0.00366">
        <ele>14.4</ele>
        <time>2024-03-10T09:06:28Z</time>
      </trkpt>
      <trkpt lat="49.11068" lon="0.00373">
        <ele>14.5</ele>
        <time>2024-03-10T09:06:29Z</time>
      </trkpt>
      <trkpt lat="49.11064" lon="0.0038">
        <ele>14.7</ele>
        <time>2024-03-10T09:06:30Z</time>
      </trkpt>
      <trkpt lat="49.1106" lon="0.00388">
        <ele>14.8</ele>
        <time>2024-03-10T09:06:31Z</time>
      </trkpt>
      <trkpt lat="49.11056" lon="0.00396">
        <ele>15</ele>
        <time>2024-03-10T09:06:32Z</time>
      </trkpt>
      <trkpt lat="49.11051" lon="0.00404">
        <ele>15.2</ele>
        <time>2024-03-10T09:06:33Z</time>
      </trkpt>
      <trkpt lat="49.11047" lon="0.00412">
        <ele>15.3</ele>
        <time>2024-03-10T09:06:34Z</time>
      </trkpt>
      <trkpt lat="49.11042" lon="0.00419">
        <ele>15.5</ele>
        <time>2024-03-10T09:06:35Z</time>
      </trkpt>
      <trkpt lat="49.11038" lon="0.00427">
        <ele>15.6</ele>
        <time>2024-03-10T09:06:36Z</time>
      </trkpt>
      <trkpt lat="49.11033" lon="0.00434">
        <ele>15.7</ele>
        <time>2024-03-10T09:06:37Z</time>
      </trkpt>
      <trkpt lat="49.11029" lon="0.00442">
        <ele>15.9</ele>
        <time>2024-03-10T09:06:38Z</time>
      </trkpt>
      <trkpt lat="49.11024" lon="0.00449">
        <ele>16</ele>
        <time>2024-03-10T09:06:39Z</time>
      </trkpt>
      <trkpt lat="49.1102" lon="0.00457">
        <ele>16.1</ele>
        <time>2024-03-10T09:06:40Z</time>
      </trkpt>
      <trkpt lat="49.11016" lon="0.00465">
        <ele>16.3</ele>
        <time>2024-03-10T09:06:41Z</time>
      </trkpt>
      <trkpt lat="49.11011" lon="0.00473">
        <ele>16.4</ele>
        <time>2024-03-10T09:06:42Z</time>
      </trkpt>
      <trkpt lat="49.11007" lon="0.00481">
        <ele>16.5</ele>
        <time>2024-03-10T09:06:43Z</time>
      </trkpt>
      <trkpt lat="49.11003" lon="0.00489">
        <ele>16.7</ele>
        <time>2024-03-10T09:06:44Z</time>
      </trkpt>
      <trkpt lat="49.10999" lon="0.00498">
        <ele>16.8</ele>
        <time>2024-03-10T09:06:45Z</time>
      </trkpt>
      <trkpt lat="49.10994" lon="0.00506">
        <ele>17</ele>
        <time>2024-03-10T09:06:46Z</time>
      </trkpt>
      <trkpt lat="49.1099" lon="0.00514">
        <ele>17.1</ele>
        <time>2024-03-10T09:06:47Z</time>
      </trkpt>
      <trkpt lat="49.10986" lon="0.00523">
        <ele>17.3</ele>
        <time>2024-03-10T09:06:48Z</time>
      </trkpt>
      <trkpt lat="49.10982" lon="0.00531">
        <ele>17.5</ele>
        <time>2024-03-10T09:06:49Z</time>
      </trkpt>
      <trkpt lat="49.10978" lon="0.00539">
        <ele>17.7</ele>
        <time>2024-03-10T09:06:50Z</time>
      </trkpt>
      <trkpt lat="49.10974" lon="0.00547">
        <ele>17.9</ele>
        <time>2024-03-10T09:06:51Z</time>
      </trkpt>
      <trkpt lat="49.10971" lon="0.00555">
        <ele>18.1</ele>
        <time>2024-03-10T09:06:52Z</time>
      </trkpt>
      <trkpt lat="49.10967" lon="0.00563">
        <ele>18.2</ele>
        <time>2024-03-10T09:06:53Z</time>
      </trkpt>
      <trkpt lat="49.10964" lon="0.0057">
        <ele>18.4</ele>
        <time>2024-03-10T09:06:54Z</time>
      </trkpt>
      <trkpt lat="49.1096" lon="0.00578">
        <ele>18.6</ele>
        <time>2024-03-10T09:06:55Z</time>
      </trkpt>
      <trkpt lat="49.10956" lon="0.00585">
        <ele>18.8</ele>
        <time>2024-03-10T09:06:56Z</time>
      </trkpt>
      <trkpt lat="49.10953" lon="0.00593">
        <ele>18.9</ele>
        <time>2024-03-10T09:06:57Z</time>
      </trkpt>
      <trkpt lat="49.1095" lon="0.00601">
        <ele>19.1</ele>
        <time>2024-03-10T09:06:58Z</time>
      </trkpt>
      <trkpt lat="49.10947" lon="0.0061">
        <ele>19.3</ele>
        <time>2024-03-10T09:06:59Z</time>
      </trkpt>
      <trkpt lat="49.10943" lon="0.00618">
        <ele>19.5</ele>
        <time>2024-03-10T09:07:00Z</time>
      </trkpt>
      <trkpt lat="49.1094" lon="0.00626">
        <ele>19.7</ele>
        <time>2024-03-10T09:07:01Z</time>
      </trkpt>
      <trkpt lat="49.10938" lon="0.00633">
        <ele>19.9</ele>
        <time>2024-03-10T09:07:02Z</time>
      </trkpt>
      <trkpt lat="49.10935" lon="0.0064">
        <ele>20.1</ele>
        <time>2024-03-10T09:07:03Z</time>
      </trkpt>
      <trkpt lat="49.10932" lon="0.00647">
        <ele>20.4</ele>
        <time>2024-03-10T09:07:04Z</time>
      </trkpt>
      <trkpt lat="49.1093" lon="0.00653">
        <ele>20.6</ele>
        <time>2024-03-10T09:07:05Z</time>
      </trkpt>
      <trkpt lat="49.10928" lon="0.00658">
        <ele>20.9</ele>
        <time>2024-03-10T09:07:06Z</time>
      </trkpt>
      <trkpt lat="49.10926" lon="0.00662">
        <ele>21.1</ele>
        <time>2024-03-10T09:07:07Z</time>
      </trkpt>
      <trkpt lat="49.10924" lon="0.00666">
        <ele>21.3</ele>
        <time>2024-03-10T09:07:08Z</time>
      </trkpt>
      <trkpt lat="49.10923" lon="0.00671">
        <ele>21.6</ele>
        <time>2024-03-10T09:07:09Z</time>
      </trkpt>
      <trkpt lat="49.10922" lon="0.00672">
        <ele>21.6</ele>
        <time>2024-03-10T09:07:10Z</time>
      </trkpt>
      <trkpt lat="49.10922" lon="0.00675">
        <ele>21.8</ele>
        <time>2024-03-10T09:07:11Z</time>
      </trkpt>
      <trkpt lat="49.10921" lon="0.00676">
        <ele>21.9</ele>
        <time>2024-03-10T09:07:12Z</time>
      </trkpt>
      <trkpt lat="49.1092" lon="0.00678">
        <ele>22</ele>
        <time>2024-03-10T09:07:13Z</time>
      </trkpt>
      <trkpt lat="49.1092" lon="0.0068">
        <ele>22.1</ele>
        <time>2024-03-10T09:07:14Z</time>
      </trkpt>
      <trkpt lat="49.10921" lon="0.00681">
        <ele>22.1</ele>
        <time>2024-03-10T09:07:15Z</time>
      </trkpt>
      <trkpt lat="49.1092" lon="0.00681">
        <ele>22.2</ele>
        <time>2024-03-10T09:07:16Z</time>
      </trkpt>
      <trkpt lat="49.10919" lon="0.00681">
        <ele>22.2</ele>
        <time>2024-03-10T09:07:17Z</time>
      </trkpt>
      <trkpt lat="49.10918" lon="0.00681">
        <ele>22.3</ele>
        <time>2024-03-10T09:07:18Z</time>
      </trkpt>
      <trkpt lat="49.10918" lon="0.00682">
        <ele>22.3</ele>
        <time>2024-03-10T09:07:19Z</time>
      </trkpt>
      <trkpt lat="49.10917" lon="0.00682">
        <ele>22.4</ele>
        <time>2024-03-10T09:07:20Z</time>
      </trkpt>
      <trkpt lat="49.10915" lon="0.00682">
        <ele>22.5</ele>
        <time>2024-03-10T09:07:21Z</time>
      </trkpt>
      <trkpt lat="49.10913" lon="0.00681">
        <ele>22.7</ele>
        <time>2024-03-10T09:07:22Z</time>
      </trkpt>
      <trkpt lat="49.1091" lon="0.00679">
        <ele>22.7</ele>
        <time>2024-03-10T09:07:23Z</time>
      </trkpt>
      <trkpt lat="49.10908" lon="0.00679">
        <ele>22.7</ele>
        <time>2024-03-10T09:07:24Z</time>
      </trkpt>
      <trkpt lat="49.10905" lon="0.00677">
        <ele>22.7</ele>
        <time>2024-03-10T09:07:25Z</time>
      </trkpt>
      <trkpt lat="49.10902" lon="0.00675">
        <ele>22.7</ele>
        <time>2024-03-10T09:07:26Z</time>
      </trkpt>
      <trkpt lat="49.10898" lon="0.00674">
        <ele>22.7</ele>
        <time>2024-03-10T09:07:27Z</time>
      </trkpt>
      <trkpt lat="49.10895" lon="0.00672">
        <ele>22.7</ele>
        <time>2024-03-10T09:07:28Z</time>
      </trkpt>
      <trkpt lat="49.10891" lon="0.00669">
        <ele>22.7</ele>
        <time>2024-03-10T09:07:29Z</time>
      </trkpt>
      <trkpt lat="49.10887" lon="0.00668">
        <ele>22.7</ele>
        <time>2024-03-10T09:07:30Z</time>
      </trkpt>
      <trkpt lat="49.10881" lon="0.00665">
        <ele>22.8</ele>
        <time>2024-03-10T09:07:31Z</time>
      </trkpt>
      <trkpt lat="49.10875" lon="0.00663">
        <ele>22.8</ele>
        <time>2024-03-10T09:07:32Z</time>
      </trkpt>
      <trkpt lat="49.10869" lon="0.00661">
        <ele>22.8</ele>
        <time>2024-03-10T09:07:33Z</time>
      </trkpt>
      <trkpt lat="49.10862" lon="0.00658">
        <ele>22.9</ele>
        <time>2024-03-10T09:07:34Z</time>
      </trkpt>
      <trkpt lat="49.10856" lon="0.00655">
        <ele>22.9</ele>
        <time>2024-03-10T09:07:35Z</time>
      </trkpt>
      <trkpt lat="49.1085" lon="0.00652">
        <ele>22.9</ele>
        <time>2024-03-10T09:07:36Z</time>
      </trkpt>
      <trkpt lat="49.10843" lon="0.00648">
        <ele>23</ele>
        <time>2024-03-10T09:07:37Z</time>
      </trkpt>
      <trkpt lat="49.10836" lon="0.00644">
        <ele>23</ele>
        <time>2024-03-10T09:07:38Z</time>
      </trkpt>
      <trkpt lat="49.10829" lon="0.00641">
        <ele>23.1</ele>
        <time>2024-03-10T09:07:39Z</time>
      </trkpt>
      <trkpt lat="49.10822" lon="0.00638">
        <ele>23.1</ele>
        <time>2024-03-10T09:07:40Z</time>
      </trkpt>
      <trkpt lat="49.10815" lon="0.00636">
        <ele>23.1</ele>
        <time>2024-03-10T09:07:41Z</time>
      </trkpt>
      <trkpt lat="49.10807" lon="0.00632">
        <ele>23.1</ele>
        <time>2024-03-10T09:07:42Z</time>
      </trkpt>
      <trkpt lat="49.108" lon="0.00628">
        <ele>23.2</ele>
        <time>2024-03-10T09:07:43Z</time>
      </trkpt>
      <trkpt lat="49.10792" lon="0.00625">
        <ele>23.2</ele>
        <time>2024-03-10T09:07:44Z</time>
      </trkpt>
      <trkpt lat="49.10785" lon="0.00621">
        <ele>23.2</ele>
        <time>2024-03-10T09:07:45Z</time>
      </trkpt>
      <trkpt lat="49.10777" lon="0.00618">
        <ele>23.3</ele>
        <time>2024-03-10T09:07:46Z</time>
      </trkpt>
      <trkpt lat="49.10769" lon="0.00614">
        <ele>23.3</ele>
        <time>2024-03-10T09:07:47Z</time>
      </trkpt>
      <trkpt lat="49.10762" lon="0.0061">
        <ele>23.3</ele>
        <time>2024-03-10T09:07:48Z</time>
      </trkpt>
      <trkpt lat="49.10755" lon="0.00606">
        <ele>23.3</ele>
        <time>2024-03-10T09:07:49Z</time>
      </trkpt>
      <trkpt lat="49.10747" lon="0.00603">
        <ele>23.3</ele>
        <time>2024-03-10T09:07:50Z</time>
      </trkpt>
      <trkpt lat="49.10739" lon="0.00599">
        <ele>23.2</ele>
        <time>2024-03-10T09:07:51Z</time>
      </trkpt>
      <trkpt lat="49.10731" lon="0.00595">
        <ele>23.1</ele>
        <time>2024-03-10T09:07:52Z</time>
      </trkpt>
      <trkpt lat="49.10722" lon="0.00591">
        <ele>23.1</ele>
        <time>2024-03-10T09:07:53Z</time>
      </trkpt>
      <trkpt lat="49.10714" lon="0.00587">
        <ele>23</ele>
        <time>2024-03-10T09:07:54Z</time>
      </trkpt>
      <trkpt lat="49.10706" lon="0.00582">
        <ele>22.9</ele>
        <time>2024-03-10T09:07:55Z</time>
      </trkpt>
      <trkpt lat="49.10698" lon="0.00578">
        <ele>22.8</ele>
        <time>2024-03-10T09:07:56Z</time>
      </trkpt>
      <trkpt lat="49.10689" lon="0.00573">
        <ele>22.7</ele>
        <time>2024-03-10T09:07:57Z</time>
      </trkpt>
      <trkpt lat="49.1068" lon="0.00569">
        <ele>22.5</ele>
        <time>2024-03-10T09:07:58Z</time>
      </trkpt>
      <trkpt lat="49.10671" lon="0.00565">
        <ele>22.4</ele>
        <time>2024-03-10T09:07:59Z</time>
      </trkpt>
      <trkpt lat="49.10662" lon="0.0056">
        <ele>22.2</ele>
        <time>2024-03-10T09:08:00Z</time>
      </trkpt>
      <trkpt lat="49.10653" lon="0.00556">
        <ele>22.1</ele>
        <time>2024-03-10T09:08:01Z</time>
      </trkpt>
      <trkpt lat="49.10645" lon="0.00552">
        <ele>22</ele>
        <time>2024-03-10T09:08:02Z</time>
      </trkpt>
      <trkpt lat="49.10636" lon="0.00548">
        <ele>21.9</ele>
        <time>2024-03-10T09:08:03Z</time>
      </trkpt>
      <trkpt lat="49.10627" lon="0.00544">
        <ele>21.7</ele>
        <time>2024-03-10T09:08:04Z</time>
      </trkpt>
      <trkpt lat="49.10619" lon="0.0054">
        <ele>21.6</ele>
        <time>2024-03-10T09:08:05Z</time>
      </trkpt>
      <trkpt lat="49.1061" lon="0.00535">
        <ele>21.4</ele>
        <time>2024-03-10T09:08:06Z</time>
      </trkpt>
      <trkpt lat="49.10602" lon="0.00531">
        <ele>21.2</ele>
        <time>2024-03-10T09:08:07Z</time>
      </trkpt>
      <trkpt lat="49.10593" lon="0.00528">
        <ele>21</ele>
        <time>2024-03-10T09:08:08Z</time>
      </trkpt>
      <trkpt lat="49.10585" lon="0.00523">
        <ele>20.8</ele>
        <time>2024-03-10T09:08:09Z</time>
      </trkpt>
      <trkpt lat="49.10576" lon="0.00519">
        <ele>20.5</ele>
        <time>2024-03-10T09:08:10Z</time>
      </trkpt>
      <trkpt lat="49.10567" lon="0.00516">
        <ele>20.3</ele>
        <time>2024-03-10T09:08:11Z</time>
      </trkpt>
      <trkpt lat="49.10558" lon="0.00512">
        <ele>20.1</ele>
        <time>2024-03-10T09:08:12Z</time>
      </trkpt>
      <trkpt lat="49.10549" lon="0.00508">
        <ele>19.9</ele>
        <time>2024-03-10T09:08:13Z</time>
      </trkpt>
      <trkpt lat="49.1054" lon="0.00503">
        <ele>19.6</ele>
        <time>2024-03-10T09:08:14Z</time>
      </trkpt>
      <trkpt lat="49.10531" lon="0.00499">
        <ele>19.3</ele>
        <time>2024-03-10T09:08:15Z</time>
      </trkpt>
      <trkpt lat="49.10522" lon="0.00494">
        <ele>19.1</ele>
        <time>2024-03-10T09:08:16Z</time>
      </trkpt>
      <trkpt lat="49.10513" lon="0.0049">
        <ele>18.8</ele>
        <time>2024-03-10T09:08:17Z</time>
      </trkpt>
      <trkpt lat="49.10503" lon="0.00485">
        <ele>18.6</ele>
        <time>2024-03-10T09:08:18Z</time>
      </trkpt>
      <trkpt lat="49.10494" lon="0.00481">
        <ele>18.4</ele>
        <time>2024-03-10T09:08:19Z</time>
      </trkpt>
      <trkpt lat="49.10484" lon="0.00476">
        <ele>18.1</ele>
        <time>2024-03-10T09:08:20Z</time>
      </trkpt>
      <trkpt lat="49.10475" lon="0.00472">
        <ele>17.8</ele>
        <time>2024-03-10T09:08:21Z</time>
      </trkpt>
      <trkpt lat="49.10465" lon="0.00468">
        <ele>17.6</ele>
        <time>2024-03-10T09:08:22Z</time>
      </trkpt>
      <trkpt lat="49.10455" lon="0.00463">
        <ele>17.3</ele>
        <time>2024-03-10T09:08:23Z</time>
      </trkpt>
      <trkpt lat="49.10445" lon="0.00459">
        <ele>17</ele>
        <time>2024-03-10T09:08:24Z</time>
      </trkpt>
      <trkpt lat="49.10435" lon="0.00454">
        <ele>16.8</ele>
        <time>2024-03-10T09:08:25Z</time>
      </trkpt>
      <trkpt lat="49.10425" lon="0.00449">
        <ele>16.7</ele>
        <time>2024-03-10T09:08:26Z</time>
      </trkpt>
      <trkpt lat="49.10416" lon="0.00445">
        <ele>16.5</ele>
        <time>2024-03-10T09:08:27Z</time>
      </trkpt>
      <trkpt lat="49.10406" lon="0.0044">
        <ele>16.4</ele>
        <time>2024-03-10T09:08:28Z</time>
      </trkpt>
      <trkpt lat="49.10396" lon="0.00435">
        <ele>16.2</ele>
        <time>2024-03-10T09:08:29Z</time>
      </trkpt>
      <trkpt lat="49.10386" lon="0.00431">
        <ele>16.1</ele>
        <time>2024-03-10T09:08:30Z</time>
      </trkpt>
      <trkpt lat="49.10377" lon="0.00427">
        <ele>16</ele>
        <time>2024-03-10T09:08:31Z</time>
      </trkpt>
      <trkpt lat="49.10367" lon="0.00422">
        <ele>15.9</ele>
        <time>2024-03-10T09:08:32Z</time>
      </trkpt>
      <trkpt lat="49.10358" lon="0.00417">
        <ele>15.8</ele>
        <time>2024-03-10T09:08:33Z</time>
      </trkpt>
      <trkpt lat="49.10348" lon="0.00412">
        <ele>15.7</ele>
        <time>2024-03-10T09:08:34Z</time>
      </trkpt>
      <trkpt lat="49.10339" lon="0.00407">
        <ele>15.6</ele>
        <time>2024-03-10T09:08:35Z</time>
      </trkpt>
      <trkpt lat="49.1033" lon="0.00403">
        <ele>15.5</ele>
        <time>2024-03-10T09:08:36Z</time>
      </trkpt>
      <trkpt lat="49.10321" lon="0.00399">
        <ele>15.4</ele>
        <time>2024-03-10T09:08:37Z</time>
      </trkpt>
      <trkpt lat="49.10312" lon="0.00394">
        <ele>15.3</ele>
        <time>2024-03-10T09:08:38Z</time>
      </trkpt>
      <trkpt lat="49.10303" lon="0.0039">
        <ele>15.2</ele>
        <time>2024-03-10T09:08:39Z</time>
      </trkpt>
      <trkpt lat="49.10294" lon="0.00386">
        <ele>15.1</ele>
        <time>2024-03-10T09:08:40Z</time>
      </trkpt>
      <trkpt lat="49.10285" lon="0.00382">
        <ele>15</ele>
        <time>2024-03-10T09:08:41Z</time>
      </trkpt>
      <trkpt lat="49.10276" lon="0.00378">
        <ele>14.9</ele>
        <time>2024-03-10T09:08:42Z</time>
      </trkpt>
      <trkpt lat="49.10268" lon="0.00374">
        <ele>14.9</ele>
        <time>2024-03-10T09:08:43Z</time>
      </trkpt>
      <trkpt lat="49.10259" lon="0.0037">
        <ele>14.8</ele>
        <time>2024-03-10T09:08:44Z</time>
      </trkpt>
      <trkpt lat="49.10251" lon="0.00366">
        <ele>14.8</ele>
        <time>2024-03-10T09:08:45Z</time>
      </trkpt>
      <trkpt lat="49.10243" lon="0.00363">
        <ele>14.7</ele>
        <time>2024-03-10T09:08:46Z</time>
      </trkpt>
      <trkpt lat="49.10236" lon="0.00359">
        <ele>14.7</ele>
        <time>2024-03-10T09:08:47Z</time>
      </trkpt>
      <trkpt lat="49.1023" lon="0.00356">
        <ele>14.7</ele>
        <time>2024-03-10T09:08:48Z</time>
      </trkpt>
      <trkpt lat="49.10225" lon="0.00353">
        <ele>14.7</ele>
        <time>2024-03-10T09:08:49Z</time>
      </trkpt>
      <trkpt lat="49.1022" lon="0.00351">
        <ele>14.6</ele>
        <time>2024-03-10T09:08:50Z</time>
      </trkpt>
      <trkpt lat="49.10216" lon="0.00348">
        <ele>14.6</ele>
        <time>2024-03-10T09:08:51Z</time>
      </trkpt>
      <trkpt lat="49.10211" lon="0.00349">
        <ele>14.5</ele>
        <time>2024-03-10T09:08:52Z</time>
      </trkpt>
      <trkpt lat="49.10206" lon="0.00352">
        <ele>14.5</ele>
        <time>2024-03-10T09:08:53Z</time>
      </trkpt>
      <trkpt lat="49.10201" lon="0.00358">
        <ele>14.4</ele>
        <time>2024-03-10T09:08:54Z</time>
      </trkpt>
      <trkpt lat="49.10196" lon="0.00365">
        <ele>14.2</ele>
        <time>2024-03-10T09:08:55Z</time>
      </trkpt>
      <trkpt lat="49.10191" lon="0.00374">
        <ele>13.9</ele>
        <time>2024-03-10T09:08:56Z</time>
      </trkpt>
      <trkpt lat="49.10186" lon="0.00383">
        <ele>13.7</ele>
        <time>2024-03-10T09:08:57Z</time>
      </trkpt>
      <trkpt lat="49.10181" lon="0.00392">
        <ele>13.5</ele>
        <time>2024-03-10T09:08:58Z</time>
      </trkpt>
      <trkpt lat="49.10176" lon="0.00402">
        <ele>13.4</ele>
        <time>2024-03-10T09:08:59Z</time>
      </trkpt>
      <trkpt lat="49.1017" lon="0.00411">
        <ele>13.3</ele>
        <time>2024-03-10T09:09:00Z</time>
      </trkpt>
      <trkpt lat="49.10165" lon="0.0042">
        <ele>13.3</ele>
        <time>2024-03-10T09:09:01Z</time>
      </trkpt>
      <trkpt lat="49.10159" lon="0.00429">
        <ele>13.2</ele>
        <time>2024-03-10T09:09:02Z</time>
      </trkpt>
      <trkpt lat="49.10154" lon="0.00439">
        <ele>13.2</ele>
        <time>2024-03-10T09:09:03Z</time>
      </trkpt>
      <trkpt lat="49.10148" lon="0.00449">
        <ele>13.2</ele>
        <time>2024-03-10T09:09:04Z</time>
      </trkpt>
      <trkpt lat="49.10143" lon="0.0046">
        <ele>13.1</ele>
        <time>2024-03-10T09:09:05Z</time>
      </trkpt>
      <trkpt lat="49.10137" lon="0.0047">
        <ele>13.1</ele>
        <time>2024-03-10T09:09:06Z</time>
      </trkpt>
      <trkpt lat="49.10131" lon="0.0048">
        <ele>13.1</ele>
        <time>2024-03-10T09:09:07Z</time>
      </trkpt>
      <trkpt lat="49.10126" lon="0.0049">
        <ele>13.1</ele>
        <time>2024-03-10T09:09:08Z</time>
      </trkpt>
      <trkpt lat="49.1012" lon="0.00501">
        <ele>13.1</ele>
        <time>2024-03-10T09:09:09Z</time>
      </trkpt>
      <trkpt lat="49.10115" lon="0.0051">
        <ele>13</ele>
        <time>2024-03-10T09:09:10Z</time>
      </trkpt>
      <trkpt lat="49.10109" lon="0.00521">
        <ele>13.1</ele>
        <time>2024-03-10T09:09:11Z</time>
      </trkpt>
      <trkpt lat="49.10104" lon="0.00531">
        <ele>13.1</ele>
        <time>2024-03-10T09:09:12Z</time>
      </trkpt>
      <trkpt lat="49.10099" lon="0.00542">
        <ele>13.1</ele>
        <time>2024-03-10T09:09:13Z</time>
      </trkpt>
      <trkpt lat="49.10093" lon="0.00551">
        <ele>13.2</ele>
        <time>2024-03-10T09:09:14Z</time>
      </trkpt>
      <trkpt lat="49.10088" lon="0.00562">
        <ele>13.2</ele>
        <time>2024-03-10T09:09:15Z</time>
      </trkpt>
      <trkpt lat="49.10082" lon="0.00572">
        <ele>13.3</ele>
        <time>2024-03-10T09:09:16Z</time>
      </trkpt>
      <trkpt lat="49.10077" lon="0.00581">
        <ele>13.3</ele>
        <time>2024-03-10T09:09:17Z</time>
      </trkpt>
      <trkpt lat="49.10072" lon="0.00591">
        <ele>13.4</ele>
        <time>2024-03-10T09:09:18Z</time>
      </trkpt>
      <trkpt lat="49.10066" lon="0.006">
        <ele>13.4</ele>
        <time>2024-03-10T09:09:19Z</time>
      </trkpt>
      <trkpt lat="49.10061" lon="0.0061">
        <ele>13.4</ele>
        <time>2024-03-10T09:09:20Z</time>
      </trkpt>
      <trkpt lat="49.10056" lon="0.00619">
        <ele>13.4</ele>
        <time>2024-03-10T09:09:21Z</time>
      </trkpt>
      <trkpt lat="49.10051" lon="0.00628">
        <ele>13.5</ele>
        <time>2024-03-10T09:09:22Z</time>
      </trkpt>
      <trkpt lat="49.10046" lon="0.00637">
        <ele>13.5</ele>
        <time>2024-03-10T09:09:23Z</time>
      </trkpt>
      <trkpt lat="49.10041" lon="0.00645">
        <ele>13.6</ele>
        <time>2024-03-10T09:09:24Z</time>
      </trkpt>
      <trkpt lat="49.10037" lon="0.00654">
        <ele>13.6</ele>
        <time>2024-03-10T09:09:25Z</time>
      </trkpt>
      <trkpt lat="49.10032" lon="0.00662">
        <ele>13.6</ele>
        <time>2024-03-10T09:09:26Z</time>
      </trkpt>
      <trkpt lat="49.10027" lon="0.00671">
        <ele>13.7</ele>
        <time>2024-03-10T09:09:27Z</time>
      </trkpt>
      <trkpt lat="49.10023" lon="0.00679">
        <ele>13.7</ele>
        <time>2024-03-10T09:09:28Z</time>
      </trkpt>
      <trkpt lat="49.10018" lon="0.00688">
        <ele>13.7</ele>
        <time>2024-03-10T09:09:29Z</time>
      </trkpt>
      <trkpt lat="49.10014" lon="0.00697">
        <ele>13.7</ele>
        <time>2024-03-10T09:09:30Z</time>
      </trkpt>
      <trkpt lat="49.10009" lon="0.00705">
        <ele>13.8</ele>
        <time>2024-03-10T09:09:31Z</time>
      </trkpt>
      <trkpt lat="49.10005" lon="0.00714">
        <ele>13.8</ele>
        <time>2024-03-10T09:09:32Z</time>
      </trkpt>
      <trkpt lat="49.10001" lon="0.00722">
        <ele>13.8</ele>
        <time>2024-03-10T09:09:33Z</time>
      </trkpt>
      <trkpt lat="49.09996" lon="0.00731">
        <ele>13.9</ele>
        <time>2024-03-10T09:09:34Z</time>
      </trkpt>
      <trkpt lat="49.09991" lon="0.00739">
        <ele>13.9</ele>
        <time>2024-03-10T09:09:35Z</time>
      </trkpt>
      <trkpt lat="49.09987" lon="0.00748">
        <ele>13.9</ele>
        <time>2024-03-10T09:09:36Z</time>
      </trkpt>
      <trkpt lat="49.09982" lon="0.00757">
        <ele>14</ele>
        <time>2024-03-10T09:09:37Z</time>
      </trkpt>
      <trkpt lat="49.09977" lon="0.00766">
        <ele>14</ele>
        <time>2024-03-10T09:09:38Z</time>
      </trkpt>
      <trkpt lat="49.09972" lon="0.00774">
        <ele>14</ele>
        <time>2024-03-10T09:09:39Z</time>
      </trkpt>
      <trkpt lat="49.09967" lon="0.00783">
        <ele>14.1</ele>
        <time>2024-03-10T09:09:40Z</time>
      </trkpt>
      <trkpt lat="49.09962" lon="0.00791">
        <ele>14.1</ele>
        <time>2024-03-10T09:09:41Z</time>
      </trkpt>
      <trkpt lat="49.09957" lon="0.00799">
        <ele>14.2</ele>
        <time>2024-03-10T09:09:42Z</time>
      </trkpt>
      <trkpt lat="49.09952" lon="0.00808">
        <ele>14.2</ele>
        <time>2024-03-10T09:09:43Z</time>
      </trkpt>
      <trkpt lat="49.09947" lon="0.00817">
        <ele>14.3</ele>
        <time>2024-03-10T09:09:44Z</time>
      </trkpt>
      <trkpt lat="49.09942" lon="0.00826">
        <ele>14.3</ele>
        <time>2024-03-10T09:09:45Z</time>
      </trkpt>
      <trkpt lat="49.09937" lon="0.00835">
        <ele>14.4</ele>
        <time>2024-03-10T09:09:46Z</time>
      </trkpt>
      <trkpt lat="49.09932" lon="0.00845">
        <ele>14.5</ele>
        <time>2024-03-10T09:09:47Z</time>
      </trkpt>
      <trkpt lat="49.09927" lon="0.00853">
        <ele>14.5</ele>
        <time>2024-03-10T09:09:48Z</time>
      </trkpt>
      <trkpt lat="49.09923" lon="0.00862">
        <ele>14.6</ele>
        <time>2024-03-10T09:09:49Z</time>
      </trkpt>
      <trkpt lat="49.09918" lon="0.00871">
        <ele>14.6</ele>
        <time>2024-03-10T09:09:50Z</time>
      </trkpt>
      <trkpt lat="49.09913" lon="0.0088">
        <ele>14.7</ele>
        <time>2024-03-10T09:09:51Z</time>
      </trkpt>
      <trkpt lat="49.09908" lon="0.00889">
        <ele>14.7</ele>
        <time>2024-03-10T09:09:52Z</time>
      </trkpt>
      <trkpt lat="49.09903" lon="0.00898">
        <ele>14.8</ele>
        <time>2024-03-10T09:09:53Z</time>
      </trkpt>
      <trkpt lat="49.09899" lon="0.00907">
        <ele>14.8</ele>
        <time>2024-03-10T09:09:54Z</time>
      </trkpt>
      <trkpt lat="49.09894" lon="0.00915">
        <ele>14.8</ele>
        <time>2024-03-10T09:09:55Z</time>
      </trkpt>
      <trkpt lat="49.09889" lon="0.00924">
        <ele>14.9</ele>
        <time>2024-03-10T09:09:56Z</time>
      </trkpt>
      <trkpt lat="49.09884" lon="0.00933">
        <ele>14.9</ele>
        <time>2024-03-10T09:09:57Z</time>
      </trkpt>
      <trkpt lat="49.09879" lon="0.00942">
        <ele>14.9</ele>
        <time>2024-03-10T09:09:58Z</time>
      </trkpt>
      <trkpt lat="49.09874" lon="0.00951">
        <ele>14.9</ele>
        <time>2024-03-10T09:09:59Z</time>
      </trkpt>
      <trkpt lat="49.0987" lon="0.00959">
        <ele>15</ele>
        <time>2024-03-10T09:10:00Z</time>
      </trkpt>
      <trkpt lat="49.09865" lon="0.00968">
        <ele>15</ele>
        <time>2024-03-10T09:10:01Z</time>
      </trkpt>
      <trkpt lat="49.0986" lon="0.00977">
        <ele>15</ele>
        <time>2024-03-10T09:10:02Z</time>
      </trkpt>
      <trkpt lat="49.09855" lon="0.00985">
        <ele>15.1</ele>
        <time>2024-03-10T09:10:03Z</time>
      </trkpt>
      <trkpt lat="49.0985" lon="0.00994">
        <ele>15.1</ele>
        <time>2024-03-10T09:10:04Z</time>
      </trkpt>
      <trkpt lat="49.09845" lon="0.01003">
        <ele>15.1</ele>
        <time>2024-03-10T09:10:05Z</time>
      </trkpt>
      <trkpt lat="49.09841" lon="0.01011">
        <ele>15.1</ele>
        <time>2024-03-10T09:10:06Z</time>
      </trkpt>
      <trkpt lat="49.09836" lon="0.0102">
        <ele>15.2</ele>
        <time>2024-03-10T09:10:07Z</time>
      </trkpt>
      <trkpt lat="49.09832" lon="0.01029">
        <ele>15.2</ele>
        <time>2024-03-10T09:10:08Z</time>
      </trkpt>
      <trkpt lat="49.09827" lon="0.01037">
        <ele>15.3</ele>
        <time>2024-03-10T09:10:09Z</time>
      </trkpt>
      <trkpt lat="49.09823" lon="0.01045">
        <ele>15.3</ele>
        <time>2024-03-10T09:10:10Z</time>
      </trkpt>
      <trkpt lat="49.09818" lon="0.01054">
        <ele>15.3</ele>
        <time>2024-03-10T09:10:11Z</time>
      </trkpt>
      <trkpt lat="49.09814" lon="0.01063">
        <ele>15.4</ele>
        <time>2024-03-10T09:10:12Z</time>
      </trkpt>
      <trkpt lat="49.09809" lon="0.01072">
        <ele>15.4</ele>
        <time>2024-03-10T09:10:13Z</time>
      </trkpt>
      <trkpt lat="49.09804" lon="0.01081">
        <ele>15.4</ele>
        <time>2024-03-10T09:10:14Z</time>
      </trkpt>
      <trkpt lat="49.098" lon="0.01089">
        <ele>15.4</ele>
        <time>2024-03-10T09:10:15Z</time>
      </trkpt>
      <trkpt lat="49.09795" lon="0.01097">
        <ele>15.4</ele>
        <time>2024-03-10T09:10:16Z</time>
      </trkpt>
      <trkpt lat="49.09791" lon="0.01106">
        <ele>15.4</ele>
        <time>2024-03-10T09:10:17Z</time>
      </trkpt>
      <trkpt lat="49.09786" lon="0.01115">
        <ele>15.4</ele>
        <time>2024-03-10T09:10:18Z</time>
      </trkpt>
      <trkpt lat="49.09781" lon="0.01124">
        <ele>15.5</ele>
        <time>2024-03-10T09:10:19Z</time>
      </trkpt>
      <trkpt lat="49.09776" lon="0.01133">
        <ele>15.5</ele>
        <time>2024-03-10T09:10:20Z</time>
      </trkpt>
      <trkpt lat="49.09771" lon="0.01142">
        <ele>15.5</ele>
        <time>2024-03-10T09:10:21Z</time>
      </trkpt>
      <trkpt lat="49.09766" lon="0.01151">
        <ele>15.5</ele>
        <time>2024-03-10T09:10:22Z</time>
      </trkpt>
      <trkpt lat="49.09761" lon="0.0116">
        <ele>15.6</ele>
        <time>2024-03-10T09:10:23Z</time>
      </trkpt>
      <trkpt lat="49.09756" lon="0.01169">
        <ele>15.6</ele>
        <time>2024-03-10T09:10:24Z</time>
      </trkpt>
      <trkpt lat="49.09751" lon="0.01178">
        <ele>15.6</ele>
        <time>2024-03-10T09:10:25Z</time>
      </trkpt>
      <trkpt lat="49.09747" lon="0.01187">
        <ele>15.6</ele>
        <time>2024-03-10T09:10:26Z</time>
      </trkpt>
      <trkpt lat="49.09742" lon="0.01197">
        <ele>15.7</ele>
        <time>2024-03-10T09:10:27Z</time>
      </trkpt>
      <trkpt lat="49.09737" lon="0.01206">
        <ele>15.7</ele>
        <time>2024-03-10T09:10:28Z</time>
      </trkpt>
      <trkpt lat="49.09732" lon="0.01214">
        <ele>15.7</ele>
        <time>2024-03-10T09:10:29Z</time>
      </trkpt>
      <trkpt lat="49.09727" lon="0.01223">
        <ele>15.7</ele>
        <time>2024-03-10T09:10:30Z</time>
      </trkpt>
      <trkpt lat="49.09722" lon="0.01233">
        <ele>15.8</ele>
        <time>2024-03-10T09:10:31Z</time>
      </trkpt>
      <trkpt lat="49.09717" lon="0.01242">
        <ele>15.8</ele>
        <time>2024-03-10T09:10:32Z</time>
      </trkpt>
      <trkpt lat="49.09712" lon="0.01252">
        <ele>15.8</ele>
        <time>2024-03-10T09:10:33Z</time>
      </trkpt>
      <trkpt lat="49.09707" lon="0.01261">
        <ele>15.8</ele>
        <time>2024-03-10T09:10:34Z</time>
      </trkpt>
      <trkpt lat="49.09702" lon="0.0127">
        <ele>15.8</ele>
        <time>2024-03-10T09:10:35Z</time>
      </trkpt>
      <trkpt lat="49.09697" lon="0.0128">
        <ele>15.8</ele>
        <time>2024-03-10T09:10:36Z</time>
      </trkpt>
      <trkpt lat="49.09692" lon="0.01289">
        <ele>15.8</ele>
        <time>2024-03-10T09:10:37Z</time>
      </trkpt>
      <trkpt lat="49.09687" lon="0.01298">
        <ele>15.8</ele>
        <time>2024-03-10T09:10:38Z</time>
      </trkpt>
      <trkpt lat="49.09682" lon="0.01307">
        <ele>15.9</ele>
        <time>2024-03-10T09:10:39Z</time>
      </trkpt>
      <trkpt lat="49.09677" lon="0.01316">
        <ele>15.9</ele>
        <time>2024-03-10T09:10:40Z</time>
      </trkpt>
      <trkpt lat="49.09672" lon="0.01325">
        <ele>15.9</ele>
        <time>2024-03-10T09:10:41Z</time>
      </trkpt>
      <trkpt lat="49.09667" lon="0.01334">
        <ele>15.9</ele>
        <time>2024-03-10T09:10:42Z</time>
      </trkpt>
      <trkpt lat="49.09662" lon="0.01343">
        <ele>16</ele>
        <time>2024-03-10T09:10:43Z</time>
      </trkpt>
      <trkpt lat="49.09657" lon="0.01352">
        <ele>16</ele>
        <time>2024-03-10T09:10:44Z</time>
      </trkpt>
      <trkpt lat="49.09653" lon="0.0136">
        <ele>16</ele>
        <time>2024-03-10T09:10:45Z</time>
      </trkpt>
      <trkpt lat="49.09648" lon="0.01369">
        <ele>16</ele>
        <time>2024-03-10T09:10:46Z</time>
      </trkpt>
      <trkpt lat="49.09644" lon="0.01378">
        <ele>16.1</ele>
        <time>2024-03-10T09:10:47Z</time>
      </trkpt>
      <trkpt lat="49.09639" lon="0.01386">
        <ele>16.1</ele>
        <time>2024-03-10T09:10:48Z</time>
      </trkpt>
      <trkpt lat="49.09634" lon="0.01396">
        <ele>16.1</ele>
        <time>2024-03-10T09:10:49Z</time>
      </trkpt>
      <trkpt lat="49.09629" lon="0.01405">
        <ele>16.1</ele>
        <time>2024-03-10T09:10:50Z</time>
      </trkpt>
      <trkpt lat="49.09624" lon="0.01414">
        <ele>16.1</ele>
        <time>2024-03-10T09:10:51Z</time>
      </trkpt>
      <trkpt lat="49.09619" lon="0.01423">
        <ele>16.1</ele>
        <time>2024-03-10T09:10:52Z</time>
      </trkpt>
      <trkpt lat="49.09614" lon="0.01432">
        <ele>16.1</ele>
        <time>2024-03-10T09:10:53Z</time>
      </trkpt>
      <trkpt lat="49.09609" lon="0.01441">
        <ele>16.1</ele>
        <time>2024-03-10T09:10:54Z</time>
      </trkpt>
      <trkpt lat="49.09604" lon="0.0145">
        <ele>16.1</ele>
        <time>2024-03-10T09:10:55Z</time>
      </trkpt>
      <trkpt lat="49.09599" lon="0.01459">
        <ele>16.2</ele>
        <time>2024-03-10T09:10:56Z</time>
      </trkpt>
      <trkpt lat="49.09594" lon="0.01468">
        <ele>16.2</ele>
        <time>2024-03-10T09:10:57Z</time>
      </trkpt>
      <trkpt lat="49.09589" lon="0.01477">
        <ele>16.2</ele>
        <time>2024-03-10T09:10:58Z</time>
      </trkpt>
      <trkpt lat="49.09585" lon="0.01486">
        <ele>16.2</ele>
        <time>2024-03-10T09:10:59Z</time>
      </trkpt>
      <trkpt lat="49.0958" lon="0.01495">
        <ele>16.2</ele>
        <time>2024-03-10T09:11:00Z</time>
      </trkpt>
      <trkpt lat="49.09575" lon="0.01504">
        <ele>16.2</ele>
        <time>2024-03-10T09:11:01Z</time>
      </trkpt>
      <trkpt lat="49.0957" lon="0.01512">
        <ele>16.2</ele>
        <time>2024-03-10T09:11:02Z</time>
      </trkpt>
      <trkpt lat="49.09565" lon="0.01521">
        <ele>16.2</ele>
        <time>2024-03-10T09:11:03Z</time>
      </trkpt>
      <trkpt lat="49.0956" lon="0.0153">
        <ele>16.2</ele>
        <time>2024-03-10T09:11:04Z</time>
      </trkpt>
      <trkpt lat="49.09555" lon="0.01539">
        <ele>16.2</ele>
        <time>2024-03-10T09:11:05Z</time>
      </trkpt>
      <trkpt lat="49.09549" lon="0.01547">
        <ele>16.2</ele>
        <time>2024-03-10T09:11:06Z</time>
      </trkpt>
      <trkpt lat="49.09544" lon="0.01556">
        <ele>16.3</ele>
        <time>2024-03-10T09:11:07Z</time>
      </trkpt>
      <trkpt lat="49.09539" lon="0.01564">
        <ele>16.3</ele>
        <time>2024-03-10T09:11:08Z</time>
      </trkpt>
      <trkpt lat="49.09534" lon="0.01572">
        <ele>16.3</ele>
        <time>2024-03-10T09:11:09Z</time>
      </trkpt>
      <trkpt lat="49.09528" lon="0.01579">
        <ele>16.3</ele>
        <time>2024-03-10T09:11:10Z</time>
      </trkpt>
      <trkpt lat="49.09522" lon="0.01587">
        <ele>16.3</ele>
        <time>2024-03-10T09:11:11Z</time>
      </trkpt>
      <trkpt lat="49.09517" lon="0.01594">
        <ele>16.4</ele>
        <time>2024-03-10T09:11:12Z</time>
      </trkpt>
      <trkpt lat="49.09511" lon="0.01602">
        <ele>16.4</ele>
        <time>2024-03-10T09:11:13Z</time>
      </trkpt>
      <trkpt lat="49.09505" lon="0.01609">
        <ele>16.4</ele>
        <time>2024-03-10T09:11:14Z</time>
      </trkpt>
      <trkpt lat="49.09499" lon="0.01616">
        <ele>16.4</ele>
        <time>2024-03-10T09:11:15Z</time>
      </trkpt>
      <trkpt lat="49.09493" lon="0.01622">
        <ele>16.4</ele>
        <time>2024-03-10T09:11:16Z</time>
      </trkpt>
      <trkpt lat="49.09487" lon="0.01628">
        <ele>16.4</ele>
        <time>2024-03-10T09:11:17Z</time>
      </trkpt>
      <trkpt lat="49.0948" lon="0.01634">
        <ele>16.4</ele>
        <time>2024-03-10T09:11:18Z</time>
      </trkpt>
      <trkpt lat="49.09474" lon="0.0164">
        <ele>16.4</ele>
        <time>2024-03-10T09:11:19Z</time>
      </trkpt>
      <trkpt lat="49.09467" lon="0.01646">
        <ele>16.4</ele>
        <time>2024-03-10T09:11:20Z</time>
      </trkpt>
      <trkpt lat="49.09461" lon="0.01652">
        <ele>16.3</ele>
        <time>2024-03-10T09:11:21Z</time>
      </trkpt>
      <trkpt lat="49.09454" lon="0.01657">
        <ele>16.3</ele>
        <time>2024-03-10T09:11:22Z</time>
      </trkpt>
      <trkpt lat="49.09447" lon="0.01662">
        <ele>16.3</ele>
        <time>2024-03-10T09:11:23Z</time>
      </trkpt>
      <trkpt lat="49.09441" lon="0.01667">
        <ele>16.3</ele>
        <time>2024-03-10T09:11:24Z</time>
      </trkpt>
      <trkpt lat="49.09434" lon="0.01672">
        <ele>16.3</ele>
        <time>2024-03-10T09:11:25Z</time>
      </trkpt>
      <trkpt lat="49.09427" lon="0.01677">
        <ele>16.3</ele>
        <time>2024-03-10T09:11:26Z</time>
      </trkpt>
      <trkpt lat="49.09419" lon="0.01682">
        <ele>16.3</ele>
        <time>2024-03-10T09:11:27Z</time>
      </trkpt>
      <trkpt lat="49.09412" lon="0.01686">
        <ele>16.3</ele>
        <time>2024-03-10T09:11:28Z</time>
      </trkpt>
      <trkpt lat="49.09405" lon="0.0169">
        <ele>16.3</ele>
        <time>2024-03-10T09:11:29Z</time>
      </trkpt>
      <trkpt lat="49.09398" lon="0.01694">
        <ele>16.3</ele>
        <time>2024-03-10T09:11:30Z</time>
      </trkpt>
      <trkpt lat="49.0939" lon="0.01699">
        <ele>16.2</ele>
        <time>2024-03-10T09:11:31Z</time>
      </trkpt>
      <trkpt lat="49.09383" lon="0.01703">
        <ele>16.2</ele>
        <time>2024-03-10T09:11:32Z</time>
      </trkpt>
      <trkpt lat="49.09375" lon="0.01707">
        <ele>16.2</ele>
        <time>2024-03-10T09:11:33Z</time>
      </trkpt>
      <trkpt lat="49.09368" lon="0.0171">
        <ele>16.2</ele>
        <time>2024-03-10T09:11:34Z</time>
      </trkpt>
      <trkpt lat="49.09361" lon="0.01714">
        <ele>16.2</ele>
        <time>2024-03-10T09:11:35Z</time>
      </trkpt>
      <trkpt lat="49.09353" lon="0.01718">
        <ele>16.2</ele>
        <time>2024-03-10T09:11:36Z</time>
      </trkpt>
      <trkpt lat="49.09345" lon="0.01722">
        <ele>16.2</ele>
        <time>2024-03-10T09:11:37Z</time>
      </trkpt>
      <trkpt lat="49.09338" lon="0.01726">
        <ele>16.2</ele>
        <time>2024-03-10T09:11:38Z</time>
      </trkpt>
      <trkpt lat="49.09331" lon="0.01729">
        <ele>16.3</ele>
        <time>2024-03-10T09:11:39Z</time>
      </trkpt>
      <trkpt lat="49.09323" lon="0.01733">
        <ele>16.3</ele>
        <time>2024-03-10T09:11:40Z</time>
      </trkpt>
      <trkpt lat="49.09316" lon="0.01736">
        <ele>16.3</ele>
        <time>2024-03-10T09:11:41Z</time>
      </trkpt>
      <trkpt lat="49.09309" lon="0.01739">
        <ele>16.3</ele>
        <time>2024-03-10T09:11:42Z</time>
      </trkpt>
      <trkpt lat="49.09301" lon="0.01743">
        <ele>16.3</ele>
        <time>2024-03-10T09:11:43Z</time>
      </trkpt>
      <trkpt lat="49.09294" lon="0.01747">
        <ele>16.2</ele>
        <time>2024-03-10T09:11:44Z</time>
      </trkpt>
      <trkpt lat="49.09287" lon="0.0175">
        <ele>16.2</ele>
        <time>2024-03-10T09:11:45Z</time>
      </trkpt>
      <trkpt lat="49.09279" lon="0.01754">
        <ele>16.2</ele>
        <time>2024-03-10T09:11:46Z</time>
      </trkpt>
      <trkpt lat="49.09272" lon="0.01757">
        <ele>16.2</ele>
        <time>2024-03-10T09:11:47Z</time>
      </trkpt>
      <trkpt lat="49.09265" lon="0.01761">
        <ele>16.2</ele>
        <time>2024-03-10T09:11:48Z</time>
      </trkpt>
      <trkpt lat="49.09258" lon="0.01765">
        <ele>16.2</ele>
        <time>2024-03-10T09:11:49Z</time>
      </trkpt>
      <trkpt lat="49.09251" lon="0.01768">
        <ele>16.2</ele>
        <time>2024-03-10T09:11:50Z</time>
      </trkpt>
      <trkpt lat="49.09244" lon="0.01772">
        <ele>16.2</ele>
        <time>2024-03-10T09:11:51Z</time>
      </trkpt>
      <trkpt lat="49.09236" lon="0.01776">
        <ele>16.2</ele>
        <time>2024-03-10T09:11:52Z</time>
      </trkpt>
      <trkpt lat="49.09229" lon="0.0178">
        <ele>16.2</ele>
        <time>2024-03-10T09:11:53Z</time>
      </trkpt>
      <trkpt lat="49.09222" lon="0.01784">
        <ele>16.3</ele>
        <time>2024-03-10T09:11:54Z</time>
      </trkpt>
      <trkpt lat="49.09214" lon="0.01787">
        <ele>16.3</ele>
        <time>2024-03-10T09:11:55Z</time>
      </trkpt>
      <trkpt lat="49.09206" lon="0.01791">
        <ele>16.3</ele>
        <time>2024-03-10T09:11:56Z</time>
      </trkpt>
      <trkpt lat="49.09199" lon="0.01794">
        <ele>16.4</ele>
        <time>2024-03-10T09:11:57Z</time>
      </trkpt>
      <trkpt lat="49.09191" lon="0.01798">
        <ele>16.4</ele>
        <time>2024-03-10T09:11:58Z</time>
      </trkpt>
      <trkpt lat="49.09184" lon="0.01802">
        <ele>16.4</ele>
        <time>2024-03-10T09:11:59Z</time>
      </trkpt>
      <trkpt lat="49.09177" lon="0.01805">
        <ele>16.5</ele>
        <time>2024-03-10T09:12:00Z</time>
      </trkpt>
      <trkpt lat="49.09169" lon="0.01809">
        <ele>16.6</ele>
        <time>2024-03-10T09:12:01Z</time>
      </trkpt>
      <trkpt lat="49.09162" lon="0.01812">
        <ele>16.6</ele>
        <time>2024-03-10T09:12:02Z</time>
      </trkpt>
      <trkpt lat="49.09156" lon="0.01816">
        <ele>16.7</ele>
        <time>2024-03-10T09:12:03Z</time>
      </trkpt>
      <trkpt lat="49.09149" lon="0.01819">
        <ele>16.7</ele>
        <time>2024-03-10T09:12:04Z</time>
      </trkpt>
      <trkpt lat="49.09142" lon="0.01822">
        <ele>16.8</ele>
        <time>2024-03-10T09:12:05Z</time>
      </trkpt>
      <trkpt lat="49.09136" lon="0.01825">
        <ele>16.9</ele>
        <time>2024-03-10T09:12:06Z</time>
      </trkpt>
      <trkpt lat="49.09129" lon="0.01829">
        <ele>16.9</ele>
        <time>2024-03-10T09:12:07Z</time>
      </trkpt>
      <trkpt lat="49.09122" lon="0.01832">
        <ele>17</ele>
        <time>2024-03-10T09:12:08Z</time>
      </trkpt>
      <trkpt lat="49.09115" lon="0.01835">
        <ele>17.1</ele>
        <time>2024-03-10T09:12:09Z</time>
      </trkpt>
      <trkpt lat="49.09108" lon="0.01838">
        <ele>17.2</ele>
        <time>2024-03-10T09:12:10Z</time>
      </trkpt>
      <trkpt lat="49.09102" lon="0.01842">
        <ele>17.3</ele>
        <time>2024-03-10T09:12:11Z</time>
      </trkpt>
      <trkpt lat="49.09095" lon="0.01845">
        <ele>17.4</ele>
        <time>2024-03-10T09:12:12Z</time>
      </trkpt>
      <trkpt lat="49.09088" lon="0.01849">
        <ele>17.6</ele>
        <time>2024-03-10T09:12:13Z</time>
      </trkpt>
      <trkpt lat="49.09081" lon="0.01852">
        <ele>17.7</ele>
        <time>2024-03-10T09:12:14Z</time>
      </trkpt>
      <trkpt lat="49.09075" lon="0.01856">
        <ele>17.9</ele>
        <time>2024-03-10T09:12:15Z</time>
      </trkpt>
      <trkpt lat="49.09068" lon="0.01859">
        <ele>18.1</ele>
        <time>2024-03-10T09:12:16Z</time>
      </trkpt>
      <trkpt lat="49.09062" lon="0.01862">
        <ele>18.3</ele>
        <time>2024-03-10T09:12:17Z</time>
      </trkpt>
      <trkpt lat="49.09056" lon="0.01865">
        <ele>18.5</ele>
        <time>2024-03-10T09:12:18Z</time>
      </trkpt>
      <trkpt lat="49.09051" lon="0.01868">
        <ele>18.6</ele>
        <time>2024-03-10T09:12:19Z</time>
      </trkpt>
      <trkpt lat="49.09045" lon="0.01871">
        <ele>18.8</ele>
        <time>2024-03-10T09:12:20Z</time>
      </trkpt>
      <trkpt lat="49.0904" lon="0.01874">
        <ele>19</ele>
        <time>2024-03-10T09:12:21Z</time>
      </trkpt>
      <trkpt lat="49.09035" lon="0.01877">
        <ele>19.2</ele>
        <time>2024-03-10T09:12:22Z</time>
      </trkpt>
      <trkpt lat="49.09029" lon="0.01879">
        <ele>19.4</ele>
        <time>2024-03-10T09:12:23Z</time>
      </trkpt>
      <trkpt lat="49.09024" lon="0.01882">
        <ele>19.7</ele>
        <time>2024-03-10T09:12:24Z</time>
      </trkpt>
      <trkpt lat="49.09019" lon="0.01885">
        <ele>19.9</ele>
        <time>2024-03-10T09:12:25Z</time>
      </trkpt>
      <trkpt lat="49.09014" lon="0.01887">
        <ele>20.2</ele>
        <time>2024-03-10T09:12:26Z</time>
      </trkpt>
      <trkpt lat="49.0901" lon="0.0189">
        <ele>20.3</ele>
        <time>2024-03-10T09:12:27Z</time>
      </trkpt>
      <trkpt lat="49.09008" lon="0.01896">
        <ele>20.5</ele>
        <time>2024-03-10T09:12:28Z</time>
      </trkpt>
      <trkpt lat="49.09007" lon="0.01904">
        <ele>20.3</ele>
        <time>2024-03-10T09:12:29Z</time>
      </trkpt>
      <trkpt lat="49.09007" lon="0.01913">
        <ele>20.1</ele>
        <time>2024-03-10T09:12:30Z</time>
      </trkpt>
      <trkpt lat="49.09009" lon="0.01923">
        <ele>19.9</ele>
        <time>2024-03-10T09:12:31Z</time>
      </trkpt>
      <trkpt lat="49.0901" lon="0.01933">
        <ele>19.8</ele>
        <time>2024-03-10T09:12:32Z</time>
      </trkpt>
      <trkpt lat="49.09012" lon="0.01943">
        <ele>19.6</ele>
        <time>2024-03-10T09:12:33Z</time>
      </trkpt>
      <trkpt lat="49.09012" lon="0.01954">
        <ele>19.5</ele>
        <time>2024-03-10T09:12:34Z</time>
      </trkpt>
      <trkpt lat="49.09013" lon="0.01966">
        <ele>19.4</ele>
        <time>2024-03-10T09:12:35Z</time>
      </trkpt>
      <trkpt lat="49.09013" lon="0.01978">
        <ele>19.3</ele>
        <time>2024-03-10T09:12:36Z</time>
      </trkpt>
      <trkpt lat="49.09013" lon="0.0199">
        <ele>19.3</ele>
        <time>2024-03-10T09:12:37Z</time>
      </trkpt>
      <trkpt lat="49.09014" lon="0.02002">
        <ele>19.2</ele>
        <time>2024-03-10T09:12:38Z</time>
      </trkpt>
      <trkpt lat="49.09014" lon="0.02014">
        <ele>19.1</ele>
        <time>2024-03-10T09:12:39Z</time>
      </trkpt>
      <trkpt lat="49.09014" lon="0.02026">
        <ele>19</ele>
        <time>2024-03-10T09:12:40Z</time>
      </trkpt>
      <trkpt lat="49.09014" lon="0.02039">
        <ele>18.9</ele>
        <time>2024-03-10T09:12:41Z</time>
      </trkpt>
      <trkpt lat="49.09013" lon="0.02051">
        <ele>18.8</ele>
        <time>2024-03-10T09:12:42Z</time>
      </trkpt>
      <trkpt lat="49.09014" lon="0.02063">
        <ele>18.8</ele>
        <time>2024-03-10T09:12:43Z</time>
      </trkpt>
      <trkpt lat="49.09014" lon="0.02076">
        <ele>18.7</ele>
        <time>2024-03-10T09:12:44Z</time>
      </trkpt>
      <trkpt lat="49.09015" lon="0.02089">
        <ele>18.7</ele>
        <time>2024-03-10T09:12:45Z</time>
      </trkpt>
      <trkpt lat="49.09015" lon="0.02101">
        <ele>18.6</ele>
        <time>2024-03-10T09:12:46Z</time>
      </trkpt>
      <trkpt lat="49.09016" lon="0.02114">
        <ele>18.7</ele>
        <time>2024-03-10T09:12:47Z</time>
      </trkpt>
      <trkpt lat="49.09016" lon="0.02126">
        <ele>18.7</ele>
        <time>2024-03-10T09:12:48Z</time>
      </trkpt>
      <trkpt lat="49.09018" lon="0.02138">
        <ele>18.7</ele>
        <time>2024-03-10T09:12:49Z</time>
      </trkpt>
      <trkpt lat="49.09019" lon="0.0215">
        <ele>18.8</ele>
        <time>2024-03-10T09:12:50Z</time>
      </trkpt>
      <trkpt lat="49.0902" lon="0.02162">
        <ele>18.9</ele>
        <time>2024-03-10T09:12:51Z</time>
      </trkpt>
      <trkpt lat="49.09021" lon="0.02173">
        <ele>18.9</ele>
        <time>2024-03-10T09:12:52Z</time>
      </trkpt>
      <trkpt lat="49.09021" lon="0.02185">
        <ele>19</ele>
        <time>2024-03-10T09:12:53Z</time>
      </trkpt>
      <trkpt lat="49.09022" lon="0.02196">
        <ele>19.1</ele>
        <time>2024-03-10T09:12:54Z</time>
      </trkpt>
      <trkpt lat="49.09022" lon="0.02206">
        <ele>19.2</ele>
        <time>2024-03-10T09:12:55Z</time>
      </trkpt>
      <trkpt lat="49.09021" lon="0.02217">
        <ele>19.2</ele>
        <time>2024-03-10T09:12:56Z</time>
      </trkpt>
      <trkpt lat="49.0902" lon="0.02227">
        <ele>19.3</ele>
        <time>2024-03-10T09:12:57Z</time>
      </trkpt>
      <trkpt lat="49.09018" lon="0.02238">
        <ele>19.4</ele>
        <time>2024-03-10T09:12:58Z</time>
      </trkpt>
      <trkpt lat="49.09016" lon="0.02248">
        <ele>19.4</ele>
        <time>2024-03-10T09:12:59Z</time>
      </trkpt>
      <trkpt lat="49.09013" lon="0.0226">
        <ele>19.5</ele>
        <time>2024-03-10T09:13:00Z</time>
      </trkpt>
      <trkpt lat="49.0901" lon="0.02272">
        <ele>19.6</ele>
        <time>2024-03-10T09:13:01Z</time>
      </trkpt>
      <trkpt lat="49.09008" lon="0.02283">
        <ele>19.7</ele>
        <time>2024-03-10T09:13:02Z</time>
      </trkpt>
      <trkpt lat="49.09005" lon="0.02293">
        <ele>19.7</ele>
        <time>2024-03-10T09:13:03Z</time>
      </trkpt>
      <trkpt lat="49.09002" lon="0.02304">
        <ele>19.8</ele>
        <time>2024-03-10T09:13:04Z</time>
      </trkpt>
      <trkpt lat="49.09" lon="0.02314">
        <ele>19.9</ele>
        <time>2024-03-10T09:13:05Z</time>
      </trkpt>
      <trkpt lat="49.08997" lon="0.02324">
        <ele>20</ele>
        <time>2024-03-10T09:13:06Z</time>
      </trkpt>
      <trkpt lat="49.08994" lon="0.02333">
        <ele>20.1</ele>
        <time>2024-03-10T09:13:07Z</time>
      </trkpt>
      <trkpt lat="49.0899" lon="0.02342">
        <ele>20.2</ele>
        <time>2024-03-10T09:13:08Z</time>
      </trkpt>
      <trkpt lat="49.08985" lon="0.0235">
        <ele>20.3</ele>
        <time>2024-03-10T09:13:09Z</time>
      </trkpt>
      <trkpt lat="49.0898" lon="0.02357">
        <ele>20.4</ele>
        <time>2024-03-10T09:13:10Z</time>
      </trkpt>
      <trkpt lat="49.08974" lon="0.02363">
        <ele>20.5</ele>
        <time>2024-03-10T09:13:11Z</time>
      </trkpt>
      <trkpt lat="49.08968" lon="0.02369">
        <ele>20.6</ele>
        <time>2024-03-10T09:13:12Z</time>
      </trkpt>
      <trkpt lat="49.08963" lon="0.02373">
        <ele>20.7</ele>
        <time>2024-03-10T09:13:13Z</time>
      </trkpt>
      <trkpt lat="49.08957" lon="0.02378">
        <ele>20.8</ele>
        <time>2024-03-10T09:13:14Z</time>
      </trkpt>
      <trkpt lat="49.08951" lon="0.02382">
        <ele>21</ele>
        <time>2024-03-10T09:13:15Z</time>
      </trkpt>
      <trkpt lat="49.08944" lon="0.02387">
        <ele>21.1</ele>
        <time>2024-03-10T09:13:16Z</time>
      </trkpt>
      <trkpt lat="49.08938" lon="0.02392">
        <ele>21.2</ele>
        <time>2024-03-10T09:13:17Z</time>
      </trkpt>
      <trkpt lat="49.08932" lon="0.02397">
        <ele>21.4</ele>
        <time>2024-03-10T09:13:18Z</time>
      </trkpt>
      <trkpt lat="49.08926" lon="0.02402">
        <ele>21.5</ele>
        <time>2024-03-10T09:13:19Z</time>
      </trkpt>
      <trkpt lat="49.08919" lon="0.02407">
        <ele>21.6</ele>
        <time>2024-03-10T09:13:20Z</time>
      </trkpt>
      <trkpt lat="49.08913" lon="0.02413">
        <ele>21.7</ele>
        <time>2024-03-10T09:13:21Z</time>
      </trkpt>
      <trkpt lat="49.08908" lon="0.02419">
        <ele>21.8</ele>
        <time>2024-03-10T09:13:22Z</time>
      </trkpt>
      <trkpt lat="49.08903" lon="0.02426">
        <ele>22</ele>
        <time>2024-03-10T09:13:23Z</time>
      </trkpt>
      <trkpt lat="49.08899" lon="0.02432">
        <ele>22.1</ele>
        <time>2024-03-10T09:13:24Z</time>
      </trkpt>
      <trkpt lat="49.08894" lon="0.02439">
        <ele>22.2</ele>
        <time>2024-03-10T09:13:25Z</time>
      </trkpt>
      <trkpt lat="49.0889" lon="0.02445">
        <ele>22.3</ele>
        <time>2024-03-10T09:13:26Z</time>
      </trkpt>
      <trkpt lat="49.08885" lon="0.02451">
        <ele>22.5</ele>
        <time>2024-03-10T09:13:27Z</time>
      </trkpt>
      <trkpt lat="49.08879" lon="0.02455">
        <ele>22.7</ele>
        <time>2024-03-10T09:13:28Z</time>
      </trkpt>
      <trkpt lat="49.08872" lon="0.02458">
        <ele>22.9</ele>
        <time>2024-03-10T09:13:29Z</time>
      </trkpt>
      <trkpt lat="49.08866" lon="0.02459">
        <ele>23.2</ele>
        <time>2024-03-10T09:13:30Z</time>
      </trkpt>
      <trkpt lat="49.08859" lon="0.02458">
        <ele>23.5</ele>
        <time>2024-03-10T09:13:31Z</time>
      </trkpt>
      <trkpt lat="49.08853" lon="0.02457">
        <ele>23.8</ele>
        <time>2024-03-10T09:13:32Z</time>
      </trkpt>
      <trkpt lat="49.08847" lon="0.02455">
        <ele>24.1</ele>
        <time>2024-03-10T09:13:33Z</time>
      </trkpt>
      <trkpt lat="49.08841" lon="0.02453">
        <ele>24.4</ele>
        <time>2024-03-10T09:13:34Z</time>
      </trkpt>
      <trkpt lat="49.08835" lon="0.0245">
        <ele>24.7</ele>
        <time>2024-03-10T09:13:35Z</time>
      </trkpt>
      <trkpt lat="49.0883" lon="0.02447">
        <ele>25</ele>
        <time>2024-03-10T09:13:36Z</time>
      </trkpt>
      <trkpt lat="49.08824" lon="0.02444">
        <ele>25.4</ele>
        <time>2024-03-10T09:13:37Z</time>
      </trkpt>
      <trkpt lat="49.08819" lon="0.02441">
        <ele>25.7</ele>
        <time>2024-03-10T09:13:38Z</time>
      </trkpt>
      <trkpt lat="49.08813" lon="0.02439">
        <ele>26</ele>
        <time>2024-03-10T09:13:39Z</time>
      </trkpt>
      <trkpt lat="49.08808" lon="0.02437">
        <ele>26.3</ele>
        <time>2024-03-10T09:13:40Z</time>
      </trkpt>
      <trkpt lat="49.08802" lon="0.02435">
        <ele>26.6</ele>
        <time>2024-03-10T09:13:41Z</time>
      </trkpt>
      <trkpt lat="49.08797" lon="0.02433">
        <ele>26.8</ele>
        <time>2024-03-10T09:13:42Z</time>
      </trkpt>
      <trkpt lat="49.08792" lon="0.02433">
        <ele>27</ele>
        <time>2024-03-10T09:13:43Z</time>
      </trkpt>
      <trkpt lat="49.08787" lon="0.02436">
        <ele>27.1</ele>
        <time>2024-03-10T09:13:44Z</time>
      </trkpt>
      <trkpt lat="49.08782" lon="0.02439">
        <ele>27.1</ele>
        <time>2024-03-10T09:13:45Z</time>
      </trkpt>
      <trkpt lat="49.08778" lon="0.02442">
        <ele>27.1</ele>
        <time>2024-03-10T09:13:46Z</time>
      </trkpt>
      <trkpt lat="49.08773" lon="0.02447">
        <ele>27.1</ele>
        <time>2024-03-10T09:13:47Z</time>
      </trkpt>
      <trkpt lat="49.08769" lon="0.02454">
        <ele>26.9</ele>
        <time>2024-03-10T09:13:48Z</time>
      </trkpt>
      <trkpt lat="49.08767" lon="0.02463">
        <ele>26.8</ele>
        <time>2024-03-10T09:13:49Z</time>
      </trkpt>
      <trkpt lat="49.08767" lon="0.02474">
        <ele>26.6</ele>
        <time>2024-03-10T09:13:50Z</time>
      </trkpt>
      <trkpt lat="49.08767" lon="0.02485">
        <ele>26.4</ele>
        <time>2024-03-10T09:13:51Z</time>
      </trkpt>
      <trkpt lat="49.08768" lon="0.02495">
        <ele>26.1</ele>
        <time>2024-03-10T09:13:52Z</time>
      </trkpt>
      <trkpt lat="49.08769" lon="0.02507">
        <ele>25.8</ele>
        <time>2024-03-10T09:13:53Z</time>
      </trkpt>
      <trkpt lat="49.0877" lon="0.0252">
        <ele>25.6</ele>
        <time>2024-03-10T09:13:54Z</time>
      </trkpt>
      <trkpt lat="49.08771" lon="0.02532">
        <ele>25.4</ele>
        <time>2024-03-10T09:13:55Z</time>
      </trkpt>
      <trkpt lat="49.08772" lon="0.02544">
        <ele>25.3</ele>
        <time>2024-03-10T09:13:56Z</time>
      </trkpt>
      <trkpt lat="49.08772" lon="0.02557">
        <ele>25.2</ele>
        <time>2024-03-10T09:13:57Z</time>
      </trkpt>
      <trkpt lat="49.08773" lon="0.0257">
        <ele>25.1</ele>
        <time>2024-03-10T09:13:58Z</time>
      </trkpt>
      <trkpt lat="49.08774" lon="0.02582">
        <ele>25.1</ele>
        <time>2024-03-10T09:13:59Z</time>
      </trkpt>
      <trkpt lat="49.08774" lon="0.02594">
        <ele>25</ele>
        <time>2024-03-10T09:14:00Z</time>
      </trkpt>
      <trkpt lat="49.08773" lon="0.02606">
        <ele>25</ele>
        <time>2024-03-10T09:14:01Z</time>
      </trkpt>
      <trkpt lat="49.08771" lon="0.02618">
        <ele>25</ele>
        <time>2024-03-10T09:14:02Z</time>
      </trkpt>
      <trkpt lat="49.08767" lon="0.02628">
        <ele>25</ele>
        <time>2024-03-10T09:14:03Z</time>
      </trkpt>
      <trkpt lat="49.08761" lon="0.02638">
        <ele>25</ele>
        <time>2024-03-10T09:14:04Z</time>
      </trkpt>
      <trkpt lat="49.08754" lon="0.02646">
        <ele>25</ele>
        <time>2024-03-10T09:14:05Z</time>
      </trkpt>
      <trkpt lat="49.08747" lon="0.02654">
        <ele>25</ele>
        <time>2024-03-10T09:14:06Z</time>
      </trkpt>
      <trkpt lat="49.0874" lon="0.02662">
        <ele>25</ele>
        <time>2024-03-10T09:14:07Z</time>
      </trkpt>
      <trkpt lat="49.08733" lon="0.0267">
        <ele>25.1</ele>
        <time>2024-03-10T09:14:08Z</time>
      </trkpt>
      <trkpt lat="49.08726" lon="0.02678">
        <ele>25.1</ele>
        <time>2024-03-10T09:14:09Z</time>
      </trkpt>
      <trkpt lat="49.0872" lon="0.02687">
        <ele>25.1</ele>
        <time>2024-03-10T09:14:10Z</time>
      </trkpt>
      <trkpt lat="49.08713" lon="0.02695">
        <ele>25.2</ele>
        <time>2024-03-10T09:14:11Z</time>
      </trkpt>
      <trkpt lat="49.08707" lon="0.02703">
        <ele>25.2</ele>
        <time>2024-03-10T09:14:12Z</time>
      </trkpt>
      <trkpt lat="49.08701" lon="0.02711">
        <ele>25.2</ele>
        <time>2024-03-10T09:14:13Z</time>
      </trkpt>
      <trkpt lat="49.08695" lon="0.0272">
        <ele>25.3</ele>
        <time>2024-03-10T09:14:14Z</time>
      </trkpt>
      <trkpt lat="49.08689" lon="0.0273">
        <ele>25.3</ele>
        <time>2024-03-10T09:14:15Z</time>
      </trkpt>
      <trkpt lat="49.08684" lon="0.0274">
        <ele>25.3</ele>
        <time>2024-03-10T09:14:16Z</time>
      </trkpt>
      <trkpt lat="49.08679" lon="0.02751">
        <ele>25.3</ele>
        <time>2024-03-10T09:14:17Z</time>
      </trkpt>
      <trkpt lat="49.08674" lon="0.02761">
        <ele>25.3</ele>
        <time>2024-03-10T09:14:18Z</time>
      </trkpt>
      <trkpt lat="49.08668" lon="0.02771">
        <ele>25.3</ele>
        <time>2024-03-10T09:14:19Z</time>
      </trkpt>
      <trkpt lat="49.08664" lon="0.0278">
        <ele>25.2</ele>
        <time>2024-03-10T09:14:20Z</time>
      </trkpt>
      <trkpt lat="49.08659" lon="0.0279">
        <ele>25.2</ele>
        <time>2024-03-10T09:14:21Z</time>
      </trkpt>
      <trkpt lat="49.08655" lon="0.028">
        <ele>25.1</ele>
        <time>2024-03-10T09:14:22Z</time>
      </trkpt>
      <trkpt lat="49.0865" lon="0.0281">
        <ele>25.1</ele>
        <time>2024-03-10T09:14:23Z</time>
      </trkpt>
      <trkpt lat="49.08646" lon="0.0282">
        <ele>25</ele>
        <time>2024-03-10T09:14:24Z</time>
      </trkpt>
      <trkpt lat="49.08641" lon="0.02829">
        <ele>25</ele>
        <time>2024-03-10T09:14:25Z</time>
      </trkpt>
      <trkpt lat="49.08636" lon="0.02839">
        <ele>24.9</ele>
        <time>2024-03-10T09:14:26Z</time>
      </trkpt>
      <trkpt lat="49.08632" lon="0.02848">
        <ele>24.9</ele>
        <time>2024-03-10T09:14:27Z</time>
      </trkpt>
      <trkpt lat="49.08628" lon="0.02859">
        <ele>24.9</ele>
        <time>2024-03-10T09:14:28Z</time>
      </trkpt>
      <trkpt lat="49.08624" lon="0.02869">
        <ele>24.9</ele>
        <time>2024-03-10T09:14:29Z</time>
      </trkpt>
      <trkpt lat="49.0862" lon="0.02879">
        <ele>25</ele>
        <time>2024-03-10T09:14:30Z</time>
      </trkpt>
      <trkpt lat="49.08617" lon="0.0289">
        <ele>25</ele>
        <time>2024-03-10T09:14:31Z</time>
      </trkpt>
      <trkpt lat="49.08613" lon="0.029">
        <ele>25</ele>
        <time>2024-03-10T09:14:32Z</time>
      </trkpt>
      <trkpt lat="49.08609" lon="0.0291">
        <ele>25</ele>
        <time>2024-03-10T09:14:33Z</time>
      </trkpt>
      <trkpt lat="49.08605" lon="0.02919">
        <ele>25.1</ele>
        <time>2024-03-10T09:14:34Z</time>
      </trkpt>
      <trkpt lat="49.08601" lon="0.02928">
        <ele>25.1</ele>
        <time>2024-03-10T09:14:35Z</time>
      </trkpt>
      <trkpt lat="49.08597" lon="0.02937">
        <ele>25.1</ele>
        <time>2024-03-10T09:14:36Z</time>
      </trkpt>
      <trkpt lat="49.08592" lon="0.02947">
        <ele>25.2</ele>
        <time>2024-03-10T09:14:37Z</time>
      </trkpt>
      <trkpt lat="49.08588" lon="0.02956">
        <ele>25.2</ele>
        <time>2024-03-10T09:14:38Z</time>
      </trkpt>
      <trkpt lat="49.08583" lon="0.02964">
        <ele>25.2</ele>
        <time>2024-03-10T09:14:39Z</time>
      </trkpt>
      <trkpt lat="49.08579" lon="0.02973">
        <ele>25.1</ele>
        <time>2024-03-10T09:14:40Z</time>
      </trkpt>
      <trkpt lat="49.08575" lon="0.02981">
        <ele>25.1</ele>
        <time>2024-03-10T09:14:41Z</time>
      </trkpt>
      <trkpt lat="49.08571" lon="0.0299">
        <ele>25.1</ele>
        <time>2024-03-10T09:14:42Z</time>
      </trkpt>
      <trkpt lat="49.08568" lon="0.02998">
        <ele>25.1</ele>
        <time>2024-03-10T09:14:43Z</time>
      </trkpt>
      <trkpt lat="49.08564" lon="0.03005">
        <ele>25.1</ele>
        <time>2024-03-10T09:14:44Z</time>
      </trkpt>
      <trkpt lat="49.08561" lon="0.03011">
        <ele>25.1</ele>
        <time>2024-03-10T09:14:45Z</time>
      </trkpt>
      <trkpt lat="49.08558" lon="0.03016">
        <ele>25.1</ele>
        <time>2024-03-10T09:14:46Z</time>
      </trkpt>
      <trkpt lat="49.08554" lon="0.03021">
        <ele>25.1</ele>
        <time>2024-03-10T09:14:47Z</time>
      </trkpt>
      <trkpt lat="49.0855" lon="0.03027">
        <ele>25.1</ele>
        <time>2024-03-10T09:14:48Z</time>
      </trkpt>
      <trkpt lat="49.08547" lon="0.03032">
        <ele>25.1</ele>
        <time>2024-03-10T09:14:49Z</time>
      </trkpt>
      <trkpt lat="49.08543" lon="0.03038">
        <ele>25.1</ele>
        <time>2024-03-10T09:14:50Z</time>
      </trkpt>
      <trkpt lat="49.08538" lon="0.03043">
        <ele>25.2</ele>
        <time>2024-03-10T09:14:51Z</time>
      </trkpt>
      <trkpt lat="49.08534" lon="0.03049">
        <ele>25.2</ele>
        <time>2024-03-10T09:14:52Z</time>
      </trkpt>
      <trkpt lat="49.08529" lon="0.03056">
        <ele>25.3</ele>
        <time>2024-03-10T09:14:53Z</time>
      </trkpt>
      <trkpt lat="49.08525" lon="0.03061">
        <ele>25.4</ele>
        <time>2024-03-10T09:14:54Z</time>
      </trkpt>
      <trkpt lat="49.08521" lon="0.03069">
        <ele>25.5</ele>
        <time>2024-03-10T09:14:55Z</time>
      </trkpt>
      <trkpt lat="49.08517" lon="0.03076">
        <ele>25.6</ele>
        <time>2024-03-10T09:14:56Z</time>
      </trkpt>
      <trkpt lat="49.08512" lon="0.03083">
        <ele>25.6</ele>
        <time>2024-03-10T09:14:57Z</time>
      </trkpt>
      <trkpt lat="49.08508" lon="0.0309">
        <ele>25.7</ele>
        <time>2024-03-10T09:14:58Z</time>
      </trkpt>
      <trkpt lat="49.08503" lon="0.03097">
        <ele>25.8</ele>
        <time>2024-03-10T09:14:59Z</time>
      </trkpt>
      <trkpt lat="49.08498" lon="0.03105">
        <ele>25.9</ele>
        <time>2024-03-10T09:15:00Z</time>
      </trkpt>
      <trkpt lat="49.08493" lon="0.03112">
        <ele>26</ele>
        <time>2024-03-10T09:15:01Z</time>
      </trkpt>
      <trkpt lat="49.08487" lon="0.0312">
        <ele>26.1</ele>
        <time>2024-03-10T09:15:02Z</time>
      </trkpt>
      <trkpt lat="49.08482" lon="0.03128">
        <ele>26.2</ele>
        <time>2024-03-10T09:15:03Z</time>
      </trkpt>
      <trkpt lat="49.08477" lon="0.03136">
        <ele>26.2</ele>
        <time>2024-03-10T09:15:04Z</time>
      </trkpt>
      <trkpt lat="49.08472" lon="0.03145">
        <ele>26.3</ele>
        <time>2024-03-10T09:15:05Z</time>
      </trkpt>
      <trkpt lat="49.08466" lon="0.03153">
        <ele>26.4</ele>
        <time>2024-03-10T09:15:06Z</time>
      </trkpt>
      <trkpt lat="49.0846" lon="0.03161">
        <ele>26.4</ele>
        <time>2024-03-10T09:15:07Z</time>
      </trkpt>
      <trkpt lat="49.08455" lon="0.03169">
        <ele>26.4</ele>
        <time>2024-03-10T09:15:08Z</time>
      </trkpt>
      <trkpt lat="49.08449" lon="0.03177">
        <ele>26.4</ele>
        <time>2024-03-10T09:15:09Z</time>
      </trkpt>
      <trkpt lat="49.08443" lon="0.03185">
        <ele>26.4</ele>
        <time>2024-03-10T09:15:10Z</time>
      </trkpt>
      <trkpt lat="49.08436" lon="0.03194">
        <ele>26.4</ele>
        <time>2024-03-10T09:15:11Z</time>
      </trkpt>
      <trkpt lat="49.0843" lon="0.03202">
        <ele>26.4</ele>
        <time>2024-03-10T09:15:12Z</time>
      </trkpt>
      <trkpt lat="49.08425" lon="0.03211">
        <ele>26.4</ele>
        <time>2024-03-10T09:15:13Z</time>
      </trkpt>
      <trkpt lat="49.08419" lon="0.03219">
        <ele>26.5</ele>
        <time>2024-03-10T09:15:14Z</time>
      </trkpt>
      <trkpt lat="49.08413" lon="0.03228">
        <ele>26.5</ele>
        <time>2024-03-10T09:15:15Z</time>
      </trkpt>
      <trkpt lat="49.08408" lon="0.03236">
        <ele>26.5</ele>
        <time>2024-03-10T09:15:16Z</time>
      </trkpt>
      <trkpt lat="49.08403" lon="0.03245">
        <ele>26.5</ele>
        <time>2024-03-10T09:15:17Z</time>
      </trkpt>
      <trkpt lat="49.08398" lon="0.03254">
        <ele>26.6</ele>
        <time>2024-03-10T09:15:18Z</time>
      </trkpt>
      <trkpt lat="49.08393" lon="0.03263">
        <ele>26.6</ele>
        <time>2024-03-10T09:15:19Z</time>
      </trkpt>
      <trkpt lat="49.0839" lon="0.03273">
        <ele>26.7</ele>
        <time>2024-03-10T09:15:20Z</time>
      </trkpt>
      <trkpt lat="49.08386" lon="0.03282">
        <ele>26.8</ele>
        <time>2024-03-10T09:15:21Z</time>
      </trkpt>
      <trkpt lat="49.08383" lon="0.03292">
        <ele>26.8</ele>
        <time>2024-03-10T09:15:22Z</time>
      </trkpt>
      <trkpt lat="49.0838" lon="0.03302">
        <ele>26.7</ele>
        <time>2024-03-10T09:15:23Z</time>
      </trkpt>
      <trkpt lat="49.08377" lon="0.03312">
        <ele>26.5</ele>
        <time>2024-03-10T09:15:24Z</time>
      </trkpt>
      <trkpt lat="49.08375" lon="0.03323">
        <ele>26.4</ele>
        <time>2024-03-10T09:15:25Z</time>
      </trkpt>
      <trkpt lat="49.08373" lon="0.03333">
        <ele>26.2</ele>
        <time>2024-03-10T09:15:26Z</time>
      </trkpt>
      <trkpt lat="49.08371" lon="0.03344">
        <ele>26.1</ele>
        <time>2024-03-10T09:15:27Z</time>
      </trkpt>
      <trkpt lat="49.08368" lon="0.03354">
        <ele>25.9</ele>
        <time>2024-03-10T09:15:28Z</time>
      </trkpt>
      <trkpt lat="49.08366" lon="0.03365">
        <ele>25.8</ele>
        <time>2024-03-10T09:15:29Z</time>
      </trkpt>
      <trkpt lat="49.08363" lon="0.03376">
        <ele>25.6</ele>
        <time>2024-03-10T09:15:30Z</time>
      </trkpt>
      <trkpt lat="49.0836" lon="0.03388">
        <ele>25.5</ele>
        <time>2024-03-10T09:15:31Z</time>
      </trkpt>
      <trkpt lat="49.08358" lon="0.03399">
        <ele>25.5</ele>
        <time>2024-03-10T09:15:32Z</time>
      </trkpt>
      <trkpt lat="49.08355" lon="0.0341">
        <ele>25.5</ele>
        <time>2024-03-10T09:15:33Z</time>
      </trkpt>
      <trkpt lat="49.08352" lon="0.03421">
        <ele>25.5</ele>
        <time>2024-03-10T09:15:34Z</time>
      </trkpt>
      <trkpt lat="49.0835" lon="0.03433">
        <ele>25.6</ele>
        <time>2024-03-10T09:15:35Z</time>
      </trkpt>
      <trkpt lat="49.08348" lon="0.03444">
        <ele>25.7</ele>
        <time>2024-03-10T09:15:36Z</time>
      </trkpt>
      <trkpt lat="49.08345" lon="0.03455">
        <ele>25.9</ele>
        <time>2024-03-10T09:15:37Z</time>
      </trkpt>
      <trkpt lat="49.08343" lon="0.03466">
        <ele>26.1</ele>
        <time>2024-03-10T09:15:38Z</time>
      </trkpt>
      <trkpt lat="49.0834" lon="0.03476">
        <ele>26.3</ele>
        <time>2024-03-10T09:15:39Z</time>
      </trkpt>
      <trkpt lat="49.08338" lon="0.03487">
        <ele>26.5</ele>
        <time>2024-03-10T09:15:40Z</time>
      </trkpt>
      <trkpt lat="49.08335" lon="0.03497">
        <ele>26.8</ele>
        <time>2024-03-10T09:15:41Z</time>
      </trkpt>
      <trkpt lat="49.08333" lon="0.03508">
        <ele>27.1</ele>
        <time>2024-03-10T09:15:42Z</time>
      </trkpt>
      <trkpt lat="49.08331" lon="0.03518">
        <ele>27.3</ele>
        <time>2024-03-10T09:15:43Z</time>
      </trkpt>
      <trkpt lat="49.08328" lon="0.03528">
        <ele>27.6</ele>
        <time>2024-03-10T09:15:44Z</time>
      </trkpt>
      <trkpt lat="49.08326" lon="0.03538">
        <ele>27.8</ele>
        <time>2024-03-10T09:15:45Z</time>
      </trkpt>
      <trkpt lat="49.08323" lon="0.03548">
        <ele>28.1</ele>
        <time>2024-03-10T09:15:46Z</time>
      </trkpt>
      <trkpt lat="49.08321" lon="0.03557">
        <ele>28.3</ele>
        <time>2024-03-10T09:15:47Z</time>
      </trkpt>
      <trkpt lat="49.08318" lon="0.03567">
        <ele>28.6</ele>
        <time>2024-03-10T09:15:48Z</time>
      </trkpt>
      <trkpt lat="49.08316" lon="0.03577">
        <ele>28.8</ele>
        <time>2024-03-10T09:15:49Z</time>
      </trkpt>
      <trkpt lat="49.08314" lon="0.03586">
        <ele>29</ele>
        <time>2024-03-10T09:15:50Z</time>
      </trkpt>
      <trkpt lat="49.08311" lon="0.03596">
        <ele>29.2</ele>
        <time>2024-03-10T09:15:51Z</time>
      </trkpt>
      <trkpt lat="49.08309" lon="0.03605">
        <ele>29.4</ele>
        <time>2024-03-10T09:15:52Z</time>
      </trkpt>
      <trkpt lat="49.08307" lon="0.03613">
        <ele>29.6</ele>
        <time>2024-03-10T09:15:53Z</time>
      </trkpt>
      <trkpt lat="49.08305" lon="0.03621">
        <ele>29.7</ele>
        <time>2024-03-10T09:15:54Z</time>
      </trkpt>
      <trkpt lat="49.08302" lon="0.03629">
        <ele>29.8</ele>
        <time>2024-03-10T09:15:55Z</time>
      </trkpt>
      <trkpt lat="49.08299" lon="0.03637">
        <ele>29.9</ele>
        <time>2024-03-10T09:15:56Z</time>
      </trkpt>
      <trkpt lat="49.08296" lon="0.03645">
        <ele>30</ele>
        <time>2024-03-10T09:15:57Z</time>
      </trkpt>
      <trkpt lat="49.08291" lon="0.03653">
        <ele>30.1</ele>
        <time>2024-03-10T09:15:58Z</time>
      </trkpt>
      <trkpt lat="49.08287" lon="0.03661">
        <ele>30.3</ele>
        <time>2024-03-10T09:15:59Z</time>
      </trkpt>
      <trkpt lat="49.08282" lon="0.03669">
        <ele>30.4</ele>
        <time>2024-03-10T09:16:00Z</time>
      </trkpt>
      <trkpt lat="49.08277" lon="0.03676">
        <ele>30.6</ele>
        <time>2024-03-10T09:16:01Z</time>
      </trkpt>
      <trkpt lat="49.08273" lon="0.03683">
        <ele>30.7</ele>
        <time>2024-03-10T09:16:02Z</time>
      </trkpt>
      <trkpt lat="49.08269" lon="0.03691">
        <ele>30.8</ele>
        <time>2024-03-10T09:16:03Z</time>
      </trkpt>
      <trkpt lat="49.08264" lon="0.03698">
        <ele>31</ele>
        <time>2024-03-10T09:16:04Z</time>
      </trkpt>
      <trkpt lat="49.08259" lon="0.03706">
        <ele>31.1</ele>
        <time>2024-03-10T09:16:05Z</time>
      </trkpt>
      <trkpt lat="49.08254" lon="0.03714">
        <ele>31.2</ele>
        <time>2024-03-10T09:16:06Z</time>
      </trkpt>
      <trkpt lat="49.08249" lon="0.03721">
        <ele>31.4</ele>
        <time>2024-03-10T09:16:07Z</time>
      </trkpt>
      <trkpt lat="49.08244" lon="0.03728">
        <ele>31.5</ele>
        <time>2024-03-10T09:16:08Z</time>
      </trkpt>
      <trkpt lat="49.08238" lon="0.03734">
        <ele>31.7</ele>
        <time>2024-03-10T09:16:09Z</time>
      </trkpt>
      <trkpt lat="49.08233" lon="0.0374">
        <ele>31.8</ele>
        <time>2024-03-10T09:16:10Z</time>
      </trkpt>
      <trkpt lat="49.08226" lon="0.03744">
        <ele>32</ele>
        <time>2024-03-10T09:16:11Z</time>
      </trkpt>
      <trkpt lat="49.0822" lon="0.03748">
        <ele>32.2</ele>
        <time>2024-03-10T09:16:12Z</time>
      </trkpt>
      <trkpt lat="49.08214" lon="0.03753">
        <ele>32.4</ele>
        <time>2024-03-10T09:16:13Z</time>
      </trkpt>
      <trkpt lat="49.08208" lon="0.03757">
        <ele>32.6</ele>
        <time>2024-03-10T09:16:14Z</time>
      </trkpt>
      <trkpt lat="49.08201" lon="0.03762">
        <ele>32.8</ele>
        <time>2024-03-10T09:16:15Z</time>
      </trkpt>
      <trkpt lat="49.08196" lon="0.03768">
        <ele>32.8</ele>
        <time>2024-03-10T09:16:16Z</time>
      </trkpt>
      <trkpt lat="49.08191" lon="0.03776">
        <ele>32.9</ele>
        <time>2024-03-10T09:16:17Z</time>
      </trkpt>
      <trkpt lat="49.08187" lon="0.03785">
        <ele>33</ele>
        <time>2024-03-10T09:16:18Z</time>
      </trkpt>
      <trkpt lat="49.08183" lon="0.03793">
        <ele>33</ele>
        <time>2024-03-10T09:16:19Z</time>
      </trkpt>
      <trkpt lat="49.08179" lon="0.03802">
        <ele>33.1</ele>
        <time>2024-03-10T09:16:20Z</time>
      </trkpt>
      <trkpt lat="49.08175" lon="0.0381">
        <ele>33.2</ele>
        <time>2024-03-10T09:16:21Z</time>
      </trkpt>
      <trkpt lat="49.08171" lon="0.03819">
        <ele>33.3</ele>
        <time>2024-03-10T09:16:22Z</time>
      </trkpt>
      <trkpt lat="49.08167" lon="0.03827">
        <ele>33.3</ele>
        <time>2024-03-10T09:16:23Z</time>
      </trkpt>
      <trkpt lat="49.08164" lon="0.03836">
        <ele>33.4</ele>
        <time>2024-03-10T09:16:24Z</time>
      </trkpt>
      <trkpt lat="49.0816" lon="0.03844">
        <ele>33.5</ele>
        <time>2024-03-10T09:16:25Z</time>
      </trkpt>
      <trkpt lat="49.08157" lon="0.03852">
        <ele>33.6</ele>
        <time>2024-03-10T09:16:26Z</time>
      </trkpt>
      <trkpt lat="49.08154" lon="0.0386">
        <ele>33.6</ele>
        <time>2024-03-10T09:16:27Z</time>
      </trkpt>
      <trkpt lat="49.08151" lon="0.03868">
        <ele>33.7</ele>
        <time>2024-03-10T09:16:28Z</time>
      </trkpt>
      <trkpt lat="49.08149" lon="0.03877">
        <ele>33.8</ele>
        <time>2024-03-10T09:16:29Z</time>
      </trkpt>
      <trkpt lat="49.08146" lon="0.03886">
        <ele>33.9</ele>
        <time>2024-03-10T09:16:30Z</time>
      </trkpt>
      <trkpt lat="49.08142" lon="0.03895">
        <ele>34</ele>
        <time>2024-03-10T09:16:31Z</time>
      </trkpt>
      <trkpt lat="49.08138" lon="0.03903">
        <ele>34.1</ele>
        <time>2024-03-10T09:16:32Z</time>
      </trkpt>
      <trkpt lat="49.08133" lon="0.0391">
        <ele>34.3</ele>
        <time>2024-03-10T09:16:33Z</time>
      </trkpt>
      <trkpt lat="49.08128" lon="0.03915">
        <ele>34.5</ele>
        <time>2024-03-10T09:16:34Z</time>
      </trkpt>
      <trkpt lat="49.08122" lon="0.0392">
        <ele>34.6</ele>
        <time>2024-03-10T09:16:35Z</time>
      </trkpt>
      <trkpt lat="49.08117" lon="0.03924">
        <ele>34.7</ele>
        <time>2024-03-10T09:16:36Z</time>
      </trkpt>
      <trkpt lat="49.08111" lon="0.0393">
        <ele>34.8</ele>
        <time>2024-03-10T09:16:37Z</time>
      </trkpt>
      <trkpt lat="49.08106" lon="0.03935">
        <ele>34.9</ele>
        <time>2024-03-10T09:16:38Z</time>
      </trkpt>
      <trkpt lat="49.081" lon="0.03941">
        <ele>35.1</ele>
        <time>2024-03-10T09:16:39Z</time>
      </trkpt>
      <trkpt lat="49.08095" lon="0.03948">
        <ele>35.2</ele>
        <time>2024-03-10T09:16:40Z</time>
      </trkpt>
      <trkpt lat="49.0809" lon="0.03954">
        <ele>35.3</ele>
        <time>2024-03-10T09:16:41Z</time>
      </trkpt>
      <trkpt lat="49.08085" lon="0.0396">
        <ele>35.4</ele>
        <time>2024-03-10T09:16:42Z</time>
      </trkpt>
      <trkpt lat="49.08081" lon="0.03968">
        <ele>35.5</ele>
        <time>2024-03-10T09:16:43Z</time>
      </trkpt>
      <trkpt lat="49.08078" lon="0.03977">
        <ele>35.6</ele>
        <time>2024-03-10T09:16:44Z</time>
      </trkpt>
      <trkpt lat="49.08075" lon="0.03986">
        <ele>35.6</ele>
        <time>2024-03-10T09:16:45Z</time>
      </trkpt>
      <trkpt lat="49.08073" lon="0.03996">
        <ele>35.6</ele>
        <time>2024-03-10T09:16:46Z</time>
      </trkpt>
      <trkpt lat="49.08072" lon="0.04006">
        <ele>35.7</ele>
        <time>2024-03-10T09:16:47Z</time>
      </trkpt>
      <trkpt lat="49.08071" lon="0.04017">
        <ele>35.7</ele>
        <time>2024-03-10T09:16:48Z</time>
      </trkpt>
      <trkpt lat="49.0807" lon="0.04028">
        <ele>35.6</ele>
        <time>2024-03-10T09:16:49Z</time>
      </trkpt>
      <trkpt lat="49.08069" lon="0.04039">
        <ele>35.6</ele>
        <time>2024-03-10T09:16:50Z</time>
      </trkpt>
      <trkpt lat="49.08068" lon="0.0405">
        <ele>35.6</ele>
        <time>2024-03-10T09:16:51Z</time>
      </trkpt>
      <trkpt lat="49.08067" lon="0.04061">
        <ele>35.6</ele>
        <time>2024-03-10T09:16:52Z</time>
      </trkpt>
      <trkpt lat="49.08065" lon="0.04071">
        <ele>35.5</ele>
        <time>2024-03-10T09:16:53Z</time>
      </trkpt>
      <trkpt lat="49.08064" lon="0.04082">
        <ele>35.5</ele>
        <time>2024-03-10T09:16:54Z</time>
      </trkpt>
      <trkpt lat="49.08063" lon="0.04093">
        <ele>35.5</ele>
        <time>2024-03-10T09:16:55Z</time>
      </trkpt>
      <trkpt lat="49.08062" lon="0.04104">
        <ele>35.5</ele>
        <time>2024-03-10T09:16:56Z</time>
      </trkpt>
      <trkpt lat="49.0806" lon="0.04114">
        <ele>35.5</ele>
        <time>2024-03-10T09:16:57Z</time>
      </trkpt>
      <trkpt lat="49.08059" lon="0.04125">
        <ele>35.5</ele>
        <time>2024-03-10T09:16:58Z</time>
      </trkpt>
      <trkpt lat="49.08058" lon="0.04135">
        <ele>35.4</ele>
        <time>2024-03-10T09:16:59Z</time>
      </trkpt>
      <trkpt lat="49.08057" lon="0.04145">
        <ele>35.4</ele>
        <time>2024-03-10T09:17:00Z</time>
      </trkpt>
      <trkpt lat="49.08055" lon="0.04155">
        <ele>35.4</ele>
        <time>2024-03-10T09:17:01Z</time>
      </trkpt>
      <trkpt lat="49.08054" lon="0.04166">
        <ele>35.4</ele>
        <time>2024-03-10T09:17:02Z</time>
      </trkpt>
      <trkpt lat="49.08053" lon="0.04176">
        <ele>35.4</ele>
        <time>2024-03-10T09:17:03Z</time>
      </trkpt>
      <trkpt lat="49.08053" lon="0.04187">
        <ele>35.4</ele>
        <time>2024-03-10T09:17:04Z</time>
      </trkpt>
      <trkpt lat="49.08055" lon="0.04197">
        <ele>35.4</ele>
        <time>2024-03-10T09:17:05Z</time>
      </trkpt>
      <trkpt lat="49.08058" lon="0.04209">
        <ele>35.4</ele>
        <time>2024-03-10T09:17:06Z</time>
      </trkpt>
      <trkpt lat="49.08062" lon="0.0422">
        <ele>35.4</ele>
        <time>2024-03-10T09:17:07Z</time>
      </trkpt>
      <trkpt lat="49.08066" lon="0.0423">
        <ele>35.4</ele>
        <time>2024-03-10T09:17:08Z</time>
      </trkpt>
      <trkpt lat="49.08069" lon="0.0424">
        <ele>35.4</ele>
        <time>2024-03-10T09:17:09Z</time>
      </trkpt>
      <trkpt lat="49.08074" lon="0.04251">
        <ele>35.4</ele>
        <time>2024-03-10T09:17:10Z</time>
      </trkpt>
      <trkpt lat="49.08078" lon="0.04261">
        <ele>35.4</ele>
        <time>2024-03-10T09:17:11Z</time>
      </trkpt>
      <trkpt lat="49.08082" lon="0.04272">
        <ele>35.3</ele>
        <time>2024-03-10T09:17:12Z</time>
      </trkpt>
      <trkpt lat="49.08085" lon="0.04283">
        <ele>35.2</ele>
        <time>2024-03-10T09:17:13Z</time>
      </trkpt>
      <trkpt lat="49.08089" lon="0.04294">
        <ele>35</ele>
        <time>2024-03-10T09:17:14Z</time>
      </trkpt>
      <trkpt lat="49.08093" lon="0.04306">
        <ele>34.9</ele>
        <time>2024-03-10T09:17:15Z</time>
      </trkpt>
      <trkpt lat="49.08095" lon="0.04317">
        <ele>34.7</ele>
        <time>2024-03-10T09:17:16Z</time>
      </trkpt>
      <trkpt lat="49.08098" lon="0.0433">
        <ele>34.5</ele>
        <time>2024-03-10T09:17:17Z</time>
      </trkpt>
      <trkpt lat="49.081" lon="0.04342">
        <ele>34.3</ele>
        <time>2024-03-10T09:17:18Z</time>
      </trkpt>
      <trkpt lat="49.08102" lon="0.04355">
        <ele>34.1</ele>
        <time>2024-03-10T09:17:19Z</time>
      </trkpt>
      <trkpt lat="49.08104" lon="0.04367">
        <ele>33.9</ele>
        <time>2024-03-10T09:17:20Z</time>
      </trkpt>
      <trkpt lat="49.08106" lon="0.0438">
        <ele>33.8</ele>
        <time>2024-03-10T09:17:21Z</time>
      </trkpt>
      <trkpt lat="49.08109" lon="0.04393">
        <ele>33.7</ele>
        <time>2024-03-10T09:17:22Z</time>
      </trkpt>
      <trkpt lat="49.0811" lon="0.04405">
        <ele>33.6</ele>
        <time>2024-03-10T09:17:23Z</time>
      </trkpt>
      <trkpt lat="49.08112" lon="0.04418">
        <ele>33.5</ele>
        <time>2024-03-10T09:17:24Z</time>
      </trkpt>
      <trkpt lat="49.08114" lon="0.04431">
        <ele>33.4</ele>
        <time>2024-03-10T09:17:25Z</time>
      </trkpt>
      <trkpt lat="49.08116" lon="0.04444">
        <ele>33.3</ele>
        <time>2024-03-10T09:17:26Z</time>
      </trkpt>
      <trkpt lat="49.08117" lon="0.04456">
        <ele>33.1</ele>
        <time>2024-03-10T09:17:27Z</time>
      </trkpt>
      <trkpt lat="49.08119" lon="0.04469">
        <ele>32.9</ele>
        <time>2024-03-10T09:17:28Z</time>
      </trkpt>
      <trkpt lat="49.08121" lon="0.04482">
        <ele>32.8</ele>
        <time>2024-03-10T09:17:29Z</time>
      </trkpt>
      <trkpt lat="49.08122" lon="0.04495">
        <ele>32.6</ele>
        <time>2024-03-10T09:17:30Z</time>
      </trkpt>
      <trkpt lat="49.08124" lon="0.04507">
        <ele>32.4</ele>
        <time>2024-03-10T09:17:31Z</time>
      </trkpt>
      <trkpt lat="49.08125" lon="0.0452">
        <ele>32.3</ele>
        <time>2024-03-10T09:17:32Z</time>
      </trkpt>
      <trkpt lat="49.08127" lon="0.04534">
        <ele>32.1</ele>
        <time>2024-03-10T09:17:33Z</time>
      </trkpt>
      <trkpt lat="49.08128" lon="0.04547">
        <ele>31.9</ele>
        <time>2024-03-10T09:17:34Z</time>
      </trkpt>
      <trkpt lat="49.08129" lon="0.04561">
        <ele>31.8</ele>
        <time>2024-03-10T09:17:35Z</time>
      </trkpt>
      <trkpt lat="49.0813" lon="0.04575">
        <ele>31.7</ele>
        <time>2024-03-10T09:17:36Z</time>
      </trkpt>
      <trkpt lat="49.08131" lon="0.04588">
        <ele>31.6</ele>
        <time>2024-03-10T09:17:37Z</time>
      </trkpt>
      <trkpt lat="49.08132" lon="0.04601">
        <ele>31.5</ele>
        <time>2024-03-10T09:17:38Z</time>
      </trkpt>
      <trkpt lat="49.08133" lon="0.04615">
        <ele>31.5</ele>
        <time>2024-03-10T09:17:39Z</time>
      </trkpt>
      <trkpt lat="49.08133" lon="0.04628">
        <ele>31.6</ele>
        <time>2024-03-10T09:17:40Z</time>
      </trkpt>
      <trkpt lat="49.08132" lon="0.04641">
        <ele>31.7</ele>
        <time>2024-03-10T09:17:41Z</time>
      </trkpt>
      <trkpt lat="49.08132" lon="0.04654">
        <ele>31.8</ele>
        <time>2024-03-10T09:17:42Z</time>
      </trkpt>
      <trkpt lat="49.08131" lon="0.04665">
        <ele>31.9</ele>
        <time>2024-03-10T09:17:43Z</time>
      </trkpt>
      <trkpt lat="49.0813" lon="0.04676">
        <ele>32</ele>
        <time>2024-03-10T09:17:44Z</time>
      </trkpt>
      <trkpt lat="49.08129" lon="0.04688">
        <ele>32.1</ele>
        <time>2024-03-10T09:17:45Z</time>
      </trkpt>
      <trkpt lat="49.08128" lon="0.04699">
        <ele>32</ele>
        <time>2024-03-10T09:17:46Z</time>
      </trkpt>
      <trkpt lat="49.08127" lon="0.0471">
        <ele>31.9</ele>
        <time>2024-03-10T09:17:47Z</time>
      </trkpt>
      <trkpt lat="49.08125" lon="0.04721">
        <ele>31.8</ele>
        <time>2024-03-10T09:17:48Z</time>
      </trkpt>
      <trkpt lat="49.08124" lon="0.04733">
        <ele>31.7</ele>
        <time>2024-03-10T09:17:49Z</time>
      </trkpt>
      <trkpt lat="49.08123" lon="0.04745">
        <ele>31.5</ele>
        <time>2024-03-10T09:17:50Z</time>
      </trkpt>
      <trkpt lat="49.08121" lon="0.04757">
        <ele>31.3</ele>
        <time>2024-03-10T09:17:51Z</time>
      </trkpt>
      <trkpt lat="49.0812" lon="0.0477">
        <ele>31.1</ele>
        <time>2024-03-10T09:17:52Z</time>
      </trkpt>
      <trkpt lat="49.08118" lon="0.04783">
        <ele>30.8</ele>
        <time>2024-03-10T09:17:53Z</time>
      </trkpt>
      <trkpt lat="49.08117" lon="0.04796">
        <ele>30.6</ele>
        <time>2024-03-10T09:17:54Z</time>
      </trkpt>
      <trkpt lat="49.08115" lon="0.04809">
        <ele>30.4</ele>
        <time>2024-03-10T09:17:55Z</time>
      </trkpt>
      <trkpt lat="49.08114" lon="0.04821">
        <ele>30.2</ele>
        <time>2024-03-10T09:17:56Z</time>
      </trkpt>
      <trkpt lat="49.08112" lon="0.04834">
        <ele>30</ele>
        <time>2024-03-10T09:17:57Z</time>
      </trkpt>
      <trkpt lat="49.0811" lon="0.04847">
        <ele>29.9</ele>
        <time>2024-03-10T09:17:58Z</time>
      </trkpt>
      <trkpt lat="49.08108" lon="0.0486">
        <ele>29.8</ele>
        <time>2024-03-10T09:17:59Z</time>
      </trkpt>
      <trkpt lat="49.08105" lon="0.04873">
        <ele>29.7</ele>
        <time>2024-03-10T09:18:00Z</time>
      </trkpt>
      <trkpt lat="49.08102" lon="0.04886">
        <ele>29.7</ele>
        <time>2024-03-10T09:18:01Z</time>
      </trkpt>
      <trkpt lat="49.08098" lon="0.04898">
        <ele>29.7</ele>
        <time>2024-03-10T09:18:02Z</time>
      </trkpt>
      <trkpt lat="49.08095" lon="0.04909">
        <ele>29.7</ele>
        <time>2024-03-10T09:18:03Z</time>
      </trkpt>
      <trkpt lat="49.08091" lon="0.04921">
        <ele>29.7</ele>
        <time>2024-03-10T09:18:04Z</time>
      </trkpt>
      <trkpt lat="49.08087" lon="0.04932">
        <ele>29.6</ele>
        <time>2024-03-10T09:18:05Z</time>
      </trkpt>
      <trkpt lat="49.08084" lon="0.04943">
        <ele>29.6</ele>
        <time>2024-03-10T09:18:06Z</time>
      </trkpt>
      <trkpt lat="49.08082" lon="0.04955">
        <ele>29.5</ele>
        <time>2024-03-10T09:18:07Z</time>
      </trkpt>
      <trkpt lat="49.0808" lon="0.04967">
        <ele>29.5</ele>
        <time>2024-03-10T09:18:08Z</time>
      </trkpt>
      <trkpt lat="49.08079" lon="0.04979">
        <ele>29.5</ele>
        <time>2024-03-10T09:18:09Z</time>
      </trkpt>
      <trkpt lat="49.08079" lon="0.04992">
        <ele>29.5</ele>
        <time>2024-03-10T09:18:10Z</time>
      </trkpt>
      <trkpt lat="49.0808" lon="0.05005">
        <ele>29.5</ele>
        <time>2024-03-10T09:18:11Z</time>
      </trkpt>
      <trkpt lat="49.08083" lon="0.05017">
        <ele>29.5</ele>
        <time>2024-03-10T09:18:12Z</time>
      </trkpt>
      <trkpt lat="49.08086" lon="0.05029">
        <ele>29.5</ele>
        <time>2024-03-10T09:18:13Z</time>
      </trkpt>
      <trkpt lat="49.0809" lon="0.05041">
        <ele>29.5</ele>
        <time>2024-03-10T09:18:14Z</time>
      </trkpt>
      <trkpt lat="49.08095" lon="0.05052">
        <ele>29.5</ele>
        <time>2024-03-10T09:18:15Z</time>
      </trkpt>
      <trkpt lat="49.08099" lon="0.05062">
        <ele>29.5</ele>
        <time>2024-03-10T09:18:16Z</time>
      </trkpt>
      <trkpt lat="49.08103" lon="0.05073">
        <ele>29.5</ele>
        <time>2024-03-10T09:18:17Z</time>
      </trkpt>
      <trkpt lat="49.08106" lon="0.05083">
        <ele>29.5</ele>
        <time>2024-03-10T09:18:18Z</time>
      </trkpt>
      <trkpt lat="49.0811" lon="0.05094">
        <ele>29.5</ele>
        <time>2024-03-10T09:18:19Z</time>
      </trkpt>
      <trkpt lat="49.08113" lon="0.05105">
        <ele>29.6</ele>
        <time>2024-03-10T09:18:20Z</time>
      </trkpt>
      <trkpt lat="49.08116" lon="0.05116">
        <ele>29.6</ele>
        <time>2024-03-10T09:18:21Z</time>
      </trkpt>
      <trkpt lat="49.0812" lon="0.05127">
        <ele>29.7</ele>
        <time>2024-03-10T09:18:22Z</time>
      </trkpt>
      <trkpt lat="49.08123" lon="0.05138">
        <ele>29.7</ele>
        <time>2024-03-10T09:18:23Z</time>
      </trkpt>
      <trkpt lat="49.08127" lon="0.05148">
        <ele>29.7</ele>
        <time>2024-03-10T09:18:24Z</time>
      </trkpt>
      <trkpt lat="49.0813" lon="0.05159">
        <ele>29.7</ele>
        <time>2024-03-10T09:18:25Z</time>
      </trkpt>
      <trkpt lat="49.08133" lon="0.0517">
        <ele>29.7</ele>
        <time>2024-03-10T09:18:26Z</time>
      </trkpt>
      <trkpt lat="49.08136" lon="0.0518">
        <ele>29.7</ele>
        <time>2024-03-10T09:18:27Z</time>
      </trkpt>
      <trkpt lat="49.08139" lon="0.0519">
        <ele>29.7</ele>
        <time>2024-03-10T09:18:28Z</time>
      </trkpt>
      <trkpt lat="49.08142" lon="0.052">
        <ele>29.7</ele>
        <time>2024-03-10T09:18:29Z</time>
      </trkpt>
      <trkpt lat="49.08145" lon="0.0521">
        <ele>29.7</ele>
        <time>2024-03-10T09:18:30Z</time>
      </trkpt>
      <trkpt lat="49.08149" lon="0.0522">
        <ele>29.8</ele>
        <time>2024-03-10T09:18:31Z</time>
      </trkpt>
      <trkpt lat="49.08152" lon="0.05231">
        <ele>29.8</ele>
        <time>2024-03-10T09:18:32Z</time>
      </trkpt>
      <trkpt lat="49.08155" lon="0.05241">
        <ele>29.9</ele>
        <time>2024-03-10T09:18:33Z</time>
      </trkpt>
      <trkpt lat="49.08158" lon="0.05251">
        <ele>29.9</ele>
        <time>2024-03-10T09:18:34Z</time>
      </trkpt>
      <trkpt lat="49.08162" lon="0.05262">
        <ele>30</ele>
        <time>2024-03-10T09:18:35Z</time>
      </trkpt>
      <trkpt lat="49.08165" lon="0.05272">
        <ele>30</ele>
        <time>2024-03-10T09:18:36Z</time>
      </trkpt>
      <trkpt lat="49.08167" lon="0.05282">
        <ele>30</ele>
        <time>2024-03-10T09:18:37Z</time>
      </trkpt>
      <trkpt lat="49.0817" lon="0.05292">
        <ele>30.1</ele>
        <time>2024-03-10T09:18:38Z</time>
      </trkpt>
      <trkpt lat="49.08173" lon="0.05302">
        <ele>30.1</ele>
        <time>2024-03-10T09:18:39Z</time>
      </trkpt>
      <trkpt lat="49.08177" lon="0.05313">
        <ele>30.2</ele>
        <time>2024-03-10T09:18:40Z</time>
      </trkpt>
      <trkpt lat="49.08181" lon="0.05322">
        <ele>30.2</ele>
        <time>2024-03-10T09:18:41Z</time>
      </trkpt>
      <trkpt lat="49.08185" lon="0.0533">
        <ele>30.2</ele>
        <time>2024-03-10T09:18:42Z</time>
      </trkpt>
      <trkpt lat="49.08189" lon="0.05339">
        <ele>30.3</ele>
        <time>2024-03-10T09:18:43Z</time>
      </trkpt>
      <trkpt lat="49.08195" lon="0.05346">
        <ele>30.3</ele>
        <time>2024-03-10T09:18:44Z</time>
      </trkpt>
      <trkpt lat="49.08202" lon="0.05354">
        <ele>30.3</ele>
        <time>2024-03-10T09:18:45Z</time>
      </trkpt>
      <trkpt lat="49.08208" lon="0.0536">
        <ele>30.3</ele>
        <time>2024-03-10T09:18:46Z</time>
      </trkpt>
      <trkpt lat="49.08216" lon="0.05366">
        <ele>30.3</ele>
        <time>2024-03-10T09:18:47Z</time>
      </trkpt>
      <trkpt lat="49.08223" lon="0.05371">
        <ele>30.3</ele>
        <time>2024-03-10T09:18:48Z</time>
      </trkpt>
      <trkpt lat="49.0823" lon="0.05376">
        <ele>30.3</ele>
        <time>2024-03-10T09:18:49Z</time>
      </trkpt>
      <trkpt lat="49.08236" lon="0.05383">
        <ele>30.4</ele>
        <time>2024-03-10T09:18:50Z</time>
      </trkpt>
      <trkpt lat="49.08242" lon="0.0539">
        <ele>30.4</ele>
        <time>2024-03-10T09:18:51Z</time>
      </trkpt>
      <trkpt lat="49.08247" lon="0.05399">
        <ele>30.4</ele>
        <time>2024-03-10T09:18:52Z</time>
      </trkpt>
      <trkpt lat="49.08253" lon="0.05407">
        <ele>30.3</ele>
        <time>2024-03-10T09:18:53Z</time>
      </trkpt>
      <trkpt lat="49.08257" lon="0.05416">
        <ele>30.3</ele>
        <time>2024-03-10T09:18:54Z</time>
      </trkpt>
      <trkpt lat="49.08261" lon="0.05427">
        <ele>30.3</ele>
        <time>2024-03-10T09:18:55Z</time>
      </trkpt>
      <trkpt lat="49.08265" lon="0.05437">
        <ele>30.3</ele>
        <time>2024-03-10T09:18:56Z</time>
      </trkpt>
      <trkpt lat="49.08268" lon="0.05448">
        <ele>30.4</ele>
        <time>2024-03-10T09:18:57Z</time>
      </trkpt>
      <trkpt lat="49.08271" lon="0.05458">
        <ele>30.4</ele>
        <time>2024-03-10T09:18:58Z</time>
      </trkpt>
      <trkpt lat="49.08274" lon="0.05469">
        <ele>30.4</ele>
        <time>2024-03-10T09:18:59Z</time>
      </trkpt>
      <trkpt lat="49.08277" lon="0.05479">
        <ele>30.4</ele>
        <time>2024-03-10T09:19:00Z</time>
      </trkpt>
      <trkpt lat="49.0828" lon="0.05489">
        <ele>30.4</ele>
        <time>2024-03-10T09:19:01Z</time>
      </trkpt>
      <trkpt lat="49.08282" lon="0.05499">
        <ele>30.4</ele>
        <time>2024-03-10T09:19:02Z</time>
      </trkpt>
      <trkpt lat="49.08285" lon="0.05509">
        <ele>30.3</ele>
        <time>2024-03-10T09:19:03Z</time>
      </trkpt>
      <trkpt lat="49.08287" lon="0.0552">
        <ele>30.3</ele>
        <time>2024-03-10T09:19:04Z</time>
      </trkpt>
      <trkpt lat="49.08288" lon="0.05531">
        <ele>30.3</ele>
        <time>2024-03-10T09:19:05Z</time>
      </trkpt>
      <trkpt lat="49.08289" lon="0.05542">
        <ele>30.3</ele>
        <time>2024-03-10T09:19:06Z</time>
      </trkpt>
      <trkpt lat="49.08289" lon="0.05553">
        <ele>30.3</ele>
        <time>2024-03-10T09:19:07Z</time>
      </trkpt>
      <trkpt lat="49.08289" lon="0.05565">
        <ele>30.3</ele>
        <time>2024-03-10T09:19:08Z</time>
      </trkpt>
      <trkpt lat="49.08289" lon="0.05578">
        <ele>30.4</ele>
        <time>2024-03-10T09:19:09Z</time>
      </trkpt>
      <trkpt lat="49.08289" lon="0.05591">
        <ele>30.4</ele>
        <time>2024-03-10T09:19:10Z</time>
      </trkpt>
      <trkpt lat="49.08289" lon="0.05605">
        <ele>30.4</ele>
        <time>2024-03-10T09:19:11Z</time>
      </trkpt>
      <trkpt lat="49.08289" lon="0.05618">
        <ele>30.4</ele>
        <time>2024-03-10T09:19:12Z</time>
      </trkpt>
      <trkpt lat="49.08289" lon="0.0563">
        <ele>30.4</ele>
        <time>2024-03-10T09:19:13Z</time>
      </trkpt>
      <trkpt lat="49.08289" lon="0.05642">
        <ele>30.4</ele>
        <time>2024-03-10T09:19:14Z</time>
      </trkpt>
      <trkpt lat="49.08289" lon="0.05653">
        <ele>30.5</ele>
        <time>2024-03-10T09:19:15Z</time>
      </trkpt>
      <trkpt lat="49.08289" lon="0.05665">
        <ele>30.5</ele>
        <time>2024-03-10T09:19:16Z</time>
      </trkpt>
      <trkpt lat="49.08289" lon="0.05677">
        <ele>30.5</ele>
        <time>2024-03-10T09:19:17Z</time>
      </trkpt>
      <trkpt lat="49.08289" lon="0.05688">
        <ele>30.5</ele>
        <time>2024-03-10T09:19:18Z</time>
      </trkpt>
      <trkpt lat="49.08289" lon="0.05699">
        <ele>30.5</ele>
        <time>2024-03-10T09:19:19Z</time>
      </trkpt>
      <trkpt lat="49.08289" lon="0.05709">
        <ele>30.5</ele>
        <time>2024-03-10T09:19:20Z</time>
      </trkpt>
      <trkpt lat="49.08289" lon="0.05719">
        <ele>30.5</ele>
        <time>2024-03-10T09:19:21Z</time>
      </trkpt>
      <trkpt lat="49.08289" lon="0.0573">
        <ele>30.6</ele>
        <time>2024-03-10T09:19:22Z</time>
      </trkpt>
      <trkpt lat="49.08288" lon="0.05741">
        <ele>30.6</ele>
        <time>2024-03-10T09:19:23Z</time>
      </trkpt>
      <trkpt lat="49.08288" lon="0.05752">
        <ele>30.6</ele>
        <time>2024-03-10T09:19:24Z</time>
      </trkpt>
      <trkpt lat="49.08288" lon="0.05763">
        <ele>30.6</ele>
        <time>2024-03-10T09:19:25Z</time>
      </trkpt>
      <trkpt lat="49.08288" lon="0.05775">
        <ele>30.6</ele>
        <time>2024-03-10T09:19:26Z</time>
      </trkpt>
      <trkpt lat="49.08288" lon="0.05786">
        <ele>30.6</ele>
        <time>2024-03-10T09:19:27Z</time>
      </trkpt>
      <trkpt lat="49.08287" lon="0.05798">
        <ele>30.7</ele>
        <time>2024-03-10T09:19:28Z</time>
      </trkpt>
      <trkpt lat="49.08286" lon="0.05809">
        <ele>30.7</ele>
        <time>2024-03-10T09:19:29Z</time>
      </trkpt>
      <trkpt lat="49.08284" lon="0.05821">
        <ele>30.8</ele>
        <time>2024-03-10T09:19:30Z</time>
      </trkpt>
      <trkpt lat="49.08282" lon="0.05832">
        <ele>30.9</ele>
        <time>2024-03-10T09:19:31Z</time>
      </trkpt>
      <trkpt lat="49.08279" lon="0.05842">
        <ele>31</ele>
        <time>2024-03-10T09:19:32Z</time>
      </trkpt>
      <trkpt lat="49.08277" lon="0.05853">
        <ele>31.1</ele>
        <time>2024-03-10T09:19:33Z</time>
      </trkpt>
      <trkpt lat="49.08274" lon="0.05863">
        <ele>31.2</ele>
        <time>2024-03-10T09:19:34Z</time>
      </trkpt>
      <trkpt lat="49.08271" lon="0.05873">
        <ele>31.3</ele>
        <time>2024-03-10T09:19:35Z</time>
      </trkpt>
      <trkpt lat="49.08268" lon="0.05884">
        <ele>31.4</ele>
        <time>2024-03-10T09:19:36Z</time>
      </trkpt>
      <trkpt lat="49.08265" lon="0.05894">
        <ele>31.5</ele>
        <time>2024-03-10T09:19:37Z</time>
      </trkpt>
      <trkpt lat="49.08262" lon="0.05904">
        <ele>31.6</ele>
        <time>2024-03-10T09:19:38Z</time>
      </trkpt>
      <trkpt lat="49.08259" lon="0.05914">
        <ele>31.8</ele>
        <time>2024-03-10T09:19:39Z</time>
      </trkpt>
      <trkpt lat="49.08257" lon="0.05924">
        <ele>31.9</ele>
        <time>2024-03-10T09:19:40Z</time>
      </trkpt>
      <trkpt lat="49.08254" lon="0.05934">
        <ele>31.9</ele>
        <time>2024-03-10T09:19:41Z</time>
      </trkpt>
      <trkpt lat="49.08251" lon="0.05944">
        <ele>32</ele>
        <time>2024-03-10T09:19:42Z</time>
      </trkpt>
      <trkpt lat="49.08248" lon="0.05953">
        <ele>32</ele>
        <time>2024-03-10T09:19:43Z</time>
      </trkpt>
      <trkpt lat="49.08245" lon="0.05963">
        <ele>32</ele>
        <time>2024-03-10T09:19:44Z</time>
      </trkpt>
      <trkpt lat="49.08241" lon="0.05972">
        <ele>32</ele>
        <time>2024-03-10T09:19:45Z</time>
      </trkpt>
      <trkpt lat="49.08236" lon="0.05981">
        <ele>32</ele>
        <time>2024-03-10T09:19:46Z</time>
      </trkpt>
      <trkpt lat="49.08232" lon="0.05989">
        <ele>32</ele>
        <time>2024-03-10T09:19:47Z</time>
      </trkpt>
      <trkpt lat="49.08226" lon="0.05997">
        <ele>32</ele>
        <time>2024-03-10T09:19:48Z</time>
      </trkpt>
      <trkpt lat="49.08221" lon="0.06004">
        <ele>32</ele>
        <time>2024-03-10T09:19:49Z</time>
      </trkpt>
      <trkpt lat="49.08216" lon="0.06012">
        <ele>32</ele>
        <time>2024-03-10T09:19:50Z</time>
      </trkpt>
      <trkpt lat="49.0821" lon="0.06019">
        <ele>32</ele>
        <time>2024-03-10T09:19:51Z</time>
      </trkpt>
      <trkpt lat="49.08205" lon="0.06027">
        <ele>32</ele>
        <time>2024-03-10T09:19:52Z</time>
      </trkpt>
      <trkpt lat="49.082" lon="0.06034">
        <ele>32</ele>
        <time>2024-03-10T09:19:53Z</time>
      </trkpt>
      <trkpt lat="49.08194" lon="0.06043">
        <ele>31.9</ele>
        <time>2024-03-10T09:19:54Z</time>
      </trkpt>
      <trkpt lat="49.08189" lon="0.06052">
        <ele>31.9</ele>
        <time>2024-03-10T09:19:55Z</time>
      </trkpt>
      <trkpt lat="49.08184" lon="0.06061">
        <ele>31.9</ele>
        <time>2024-03-10T09:19:56Z</time>
      </trkpt>
      <trkpt lat="49.0818" lon="0.06071">
        <ele>31.8</ele>
        <time>2024-03-10T09:19:57Z</time>
      </trkpt>
      <trkpt lat="49.08176" lon="0.06081">
        <ele>31.7</ele>
        <time>2024-03-10T09:19:58Z</time>
      </trkpt>
      <trkpt lat="49.08172" lon="0.06091">
        <ele>31.7</ele>
        <time>2024-03-10T09:19:59Z</time>
      </trkpt>
      <trkpt lat="49.08169" lon="0.06101">
        <ele>31.6</ele>
        <time>2024-03-10T09:20:00Z</time>
      </trkpt>
      <trkpt lat="49.08166" lon="0.06112">
        <ele>31.5</ele>
        <time>2024-03-10T09:20:01Z</time>
      </trkpt>
      <trkpt lat="49.08163" lon="0.06122">
        <ele>31.4</ele>
        <time>2024-03-10T09:20:02Z</time>
      </trkpt>
      <trkpt lat="49.0816" lon="0.06133">
        <ele>31.3</ele>
        <time>2024-03-10T09:20:03Z</time>
      </trkpt>
      <trkpt lat="49.08157" lon="0.06145">
        <ele>31.2</ele>
        <time>2024-03-10T09:20:04Z</time>
      </trkpt>
      <trkpt lat="49.08153" lon="0.06156">
        <ele>31.2</ele>
        <time>2024-03-10T09:20:05Z</time>
      </trkpt>
      <trkpt lat="49.0815" lon="0.06167">
        <ele>31.2</ele>
        <time>2024-03-10T09:20:06Z</time>
      </trkpt>
      <trkpt lat="49.08146" lon="0.06177">
        <ele>31.2</ele>
        <time>2024-03-10T09:20:07Z</time>
      </trkpt>
      <trkpt lat="49.08142" lon="0.06187">
        <ele>31.2</ele>
        <time>2024-03-10T09:20:08Z</time>
      </trkpt>
      <trkpt lat="49.08139" lon="0.06196">
        <ele>31.3</ele>
        <time>2024-03-10T09:20:09Z</time>
      </trkpt>
      <trkpt lat="49.08135" lon="0.06204">
        <ele>31.4</ele>
        <time>2024-03-10T09:20:10Z</time>
      </trkpt>
      <trkpt lat="49.08131" lon="0.06212">
        <ele>31.4</ele>
        <time>2024-03-10T09:20:11Z</time>
      </trkpt>
      <trkpt lat="49.08127" lon="0.0622">
        <ele>31.5</ele>
        <time>2024-03-10T09:20:12Z</time>
      </trkpt>
      <trkpt lat="49.08123" lon="0.06229">
        <ele>31.6</ele>
        <time>2024-03-10T09:20:13Z</time>
      </trkpt>
      <trkpt lat="49.0812" lon="0.06237">
        <ele>31.6</ele>
        <time>2024-03-10T09:20:14Z</time>
      </trkpt>
      <trkpt lat="49.08115" lon="0.06246">
        <ele>31.7</ele>
        <time>2024-03-10T09:20:15Z</time>
      </trkpt>
      <trkpt lat="49.08111" lon="0.06255">
        <ele>31.8</ele>
        <time>2024-03-10T09:20:16Z</time>
      </trkpt>
      <trkpt lat="49.08107" lon="0.06263">
        <ele>31.9</ele>
        <time>2024-03-10T09:20:17Z</time>
      </trkpt>
      <trkpt lat="49.08102" lon="0.06272">
        <ele>32.1</ele>
        <time>2024-03-10T09:20:18Z</time>
      </trkpt>
      <trkpt lat="49.08098" lon="0.06281">
        <ele>32.2</ele>
        <time>2024-03-10T09:20:19Z</time>
      </trkpt>
      <trkpt lat="49.08093" lon="0.06291">
        <ele>32.3</ele>
        <time>2024-03-10T09:20:20Z</time>
      </trkpt>
      <trkpt lat="49.08089" lon="0.06301">
        <ele>32.3</ele>
        <time>2024-03-10T09:20:21Z</time>
      </trkpt>
      <trkpt lat="49.08084" lon="0.0631">
        <ele>32.4</ele>
        <time>2024-03-10T09:20:22Z</time>
      </trkpt>
      <trkpt lat="49.0808" lon="0.06319">
        <ele>32.4</ele>
        <time>2024-03-10T09:20:23Z</time>
      </trkpt>
      <trkpt lat="49.08076" lon="0.06329">
        <ele>32.4</ele>
        <time>2024-03-10T09:20:24Z</time>
      </trkpt>
      <trkpt lat="49.08071" lon="0.06338">
        <ele>32.4</ele>
        <time>2024-03-10T09:20:25Z</time>
      </trkpt>
      <trkpt lat="49.08067" lon="0.06348">
        <ele>32.4</ele>
        <time>2024-03-10T09:20:26Z</time>
      </trkpt>
      <trkpt lat="49.08063" lon="0.06359">
        <ele>32.4</ele>
        <time>2024-03-10T09:20:27Z</time>
      </trkpt>
      <trkpt lat="49.08059" lon="0.06369">
        <ele>32.4</ele>
        <time>2024-03-10T09:20:28Z</time>
      </trkpt>
      <trkpt lat="49.08055" lon="0.0638">
        <ele>32.4</ele>
        <time>2024-03-10T09:20:29Z</time>
      </trkpt>
      <trkpt lat="49.08051" lon="0.06391">
        <ele>32.3</ele>
        <time>2024-03-10T09:20:30Z</time>
      </trkpt>
      <trkpt lat="49.08047" lon="0.06401">
        <ele>32.3</ele>
        <time>2024-03-10T09:20:31Z</time>
      </trkpt>
      <trkpt lat="49.08043" lon="0.06411">
        <ele>32.3</ele>
        <time>2024-03-10T09:20:32Z</time>
      </trkpt>
      <trkpt lat="49.08039" lon="0.06422">
        <ele>32.3</ele>
        <time>2024-03-10T09:20:33Z</time>
      </trkpt>
      <trkpt lat="49.08034" lon="0.06431">
        <ele>32.3</ele>
        <time>2024-03-10T09:20:34Z</time>
      </trkpt>
      <trkpt lat="49.0803" lon="0.06441">
        <ele>32.3</ele>
        <time>2024-03-10T09:20:35Z</time>
      </trkpt>
      <trkpt lat="49.08025" lon="0.06451">
        <ele>32.3</ele>
        <time>2024-03-10T09:20:36Z</time>
      </trkpt>
      <trkpt lat="49.08021" lon="0.0646">
        <ele>32.2</ele>
        <time>2024-03-10T09:20:37Z</time>
      </trkpt>
      <trkpt lat="49.08016" lon="0.0647">
        <ele>32.2</ele>
        <time>2024-03-10T09:20:38Z</time>
      </trkpt>
      <trkpt lat="49.08012" lon="0.06479">
        <ele>32.1</ele>
        <time>2024-03-10T09:20:39Z</time>
      </trkpt>
      <trkpt lat="49.08007" lon="0.06488">
        <ele>32.1</ele>
        <time>2024-03-10T09:20:40Z</time>
      </trkpt>
      <trkpt lat="49.08002" lon="0.06498">
        <ele>32.1</ele>
        <time>2024-03-10T09:20:41Z</time>
      </trkpt>
      <trkpt lat="49.07997" lon="0.06507">
        <ele>32</ele>
        <time>2024-03-10T09:20:42Z</time>
      </trkpt>
      <trkpt lat="49.07993" lon="0.06517">
        <ele>32</ele>
        <time>2024-03-10T09:20:43Z</time>
      </trkpt>
      <trkpt lat="49.07988" lon="0.06527">
        <ele>32</ele>
        <time>2024-03-10T09:20:44Z</time>
      </trkpt>
      <trkpt lat="49.07983" lon="0.06536">
        <ele>31.9</ele>
        <time>2024-03-10T09:20:45Z</time>
      </trkpt>
      <trkpt lat="49.07979" lon="0.06547">
        <ele>32</ele>
        <time>2024-03-10T09:20:46Z</time>
      </trkpt>
      <trkpt lat="49.07974" lon="0.06557">
        <ele>32</ele>
        <time>2024-03-10T09:20:47Z</time>
      </trkpt>
      <trkpt lat="49.07969" lon="0.06567">
        <ele>32</ele>
        <time>2024-03-10T09:20:48Z</time>
      </trkpt>
      <trkpt lat="49.07965" lon="0.06576">
        <ele>32.1</ele>
        <time>2024-03-10T09:20:49Z</time>
      </trkpt>
      <trkpt lat="49.0796" lon="0.06586">
        <ele>32.1</ele>
        <time>2024-03-10T09:20:50Z</time>
      </trkpt>
      <trkpt lat="49.07956" lon="0.06596">
        <ele>32.2</ele>
        <time>2024-03-10T09:20:51Z</time>
      </trkpt>
      <trkpt lat="49.07952" lon="0.06605">
        <ele>32.2</ele>
        <time>2024-03-10T09:20:52Z</time>
      </trkpt>
      <trkpt lat="49.07947" lon="0.06615">
        <ele>32.2</ele>
        <time>2024-03-10T09:20:53Z</time>
      </trkpt>
      <trkpt lat="49.07943" lon="0.06625">
        <ele>32.2</ele>
        <time>2024-03-10T09:20:54Z</time>
      </trkpt>
      <trkpt lat="49.07939" lon="0.06635">
        <ele>32.3</ele>
        <time>2024-03-10T09:20:55Z</time>
      </trkpt>
      <trkpt lat="49.07935" lon="0.06646">
        <ele>32.3</ele>
        <time>2024-03-10T09:20:56Z</time>
      </trkpt>
      <trkpt lat="49.07931" lon="0.06657">
        <ele>32.3</ele>
        <time>2024-03-10T09:20:57Z</time>
      </trkpt>
      <trkpt lat="49.07928" lon="0.06667">
        <ele>32.3</ele>
        <time>2024-03-10T09:20:58Z</time>
      </trkpt>
      <trkpt lat="49.07924" lon="0.06678">
        <ele>32.4</ele>
        <time>2024-03-10T09:20:59Z</time>
      </trkpt>
      <trkpt lat="49.07921" lon="0.06689">
        <ele>32.4</ele>
        <time>2024-03-10T09:21:00Z</time>
      </trkpt>
      <trkpt lat="49.07918" lon="0.06699">
        <ele>32.4</ele>
        <time>2024-03-10T09:21:01Z</time>
      </trkpt>
      <trkpt lat="49.07915" lon="0.0671">
        <ele>32.5</ele>
        <time>2024-03-10T09:21:02Z</time>
      </trkpt>
      <trkpt lat="49.07912" lon="0.0672">
        <ele>32.5</ele>
        <time>2024-03-10T09:21:03Z</time>
      </trkpt>
      <trkpt lat="49.07908" lon="0.06731">
        <ele>32.5</ele>
        <time>2024-03-10T09:21:04Z</time>
      </trkpt>
      <trkpt lat="49.07905" lon="0.06742">
        <ele>32.5</ele>
        <time>2024-03-10T09:21:05Z</time>
      </trkpt>
      <trkpt lat="49.07902" lon="0.06752">
        <ele>32.5</ele>
        <time>2024-03-10T09:21:06Z</time>
      </trkpt>
      <trkpt lat="49.07899" lon="0.06763">
        <ele>32.5</ele>
        <time>2024-03-10T09:21:07Z</time>
      </trkpt>
      <trkpt lat="49.07896" lon="0.06774">
        <ele>32.5</ele>
        <time>2024-03-10T09:21:08Z</time>
      </trkpt>
      <trkpt lat="49.07893" lon="0.06784">
        <ele>32.6</ele>
        <time>2024-03-10T09:21:09Z</time>
      </trkpt>
      <trkpt lat="49.0789" lon="0.06795">
        <ele>32.6</ele>
        <time>2024-03-10T09:21:10Z</time>
      </trkpt>
      <trkpt lat="49.07887" lon="0.06806">
        <ele>32.6</ele>
        <time>2024-03-10T09:21:11Z</time>
      </trkpt>
      <trkpt lat="49.07885" lon="0.06817">
        <ele>32.6</ele>
        <time>2024-03-10T09:21:12Z</time>
      </trkpt>
      <trkpt lat="49.07883" lon="0.06828">
        <ele>32.6</ele>
        <time>2024-03-10T09:21:13Z</time>
      </trkpt>
      <trkpt lat="49.07881" lon="0.0684">
        <ele>32.6</ele>
        <time>2024-03-10T09:21:14Z</time>
      </trkpt>
      <trkpt lat="49.07879" lon="0.06851">
        <ele>32.6</ele>
        <time>2024-03-10T09:21:15Z</time>
      </trkpt>
      <trkpt lat="49.07878" lon="0.06863">
        <ele>32.6</ele>
        <time>2024-03-10T09:21:16Z</time>
      </trkpt>
      <trkpt lat="49.07876" lon="0.06874">
        <ele>32.7</ele>
        <time>2024-03-10T09:21:17Z</time>
      </trkpt>
      <trkpt lat="49.07875" lon="0.06886">
        <ele>32.7</ele>
        <time>2024-03-10T09:21:18Z</time>
      </trkpt>
      <trkpt lat="49.07873" lon="0.06898">
        <ele>32.7</ele>
        <time>2024-03-10T09:21:19Z</time>
      </trkpt>
      <trkpt lat="49.07871" lon="0.06909">
        <ele>32.8</ele>
        <time>2024-03-10T09:21:20Z</time>
      </trkpt>
      <trkpt lat="49.0787" lon="0.06919">
        <ele>32.8</ele>
        <time>2024-03-10T09:21:21Z</time>
      </trkpt>
      <trkpt lat="49.07868" lon="0.0693">
        <ele>32.8</ele>
        <time>2024-03-10T09:21:22Z</time>
      </trkpt>
      <trkpt lat="49.07866" lon="0.0694">
        <ele>32.9</ele>
        <time>2024-03-10T09:21:23Z</time>
      </trkpt>
      <trkpt lat="49.07864" lon="0.06951">
        <ele>32.9</ele>
        <time>2024-03-10T09:21:24Z</time>
      </trkpt>
      <trkpt lat="49.07861" lon="0.06961">
        <ele>32.8</ele>
        <time>2024-03-10T09:21:25Z</time>
      </trkpt>
      <trkpt lat="49.07859" lon="0.06972">
        <ele>32.8</ele>
        <time>2024-03-10T09:21:26Z</time>
      </trkpt>
      <trkpt lat="49.07856" lon="0.06983">
        <ele>32.7</ele>
        <time>2024-03-10T09:21:27Z</time>
      </trkpt>
      <trkpt lat="49.07852" lon="0.06993">
        <ele>32.6</ele>
        <time>2024-03-10T09:21:28Z</time>
      </trkpt>
      <trkpt lat="49.0785" lon="0.07004">
        <ele>32.5</ele>
        <time>2024-03-10T09:21:29Z</time>
      </trkpt>
      <trkpt lat="49.07847" lon="0.07015">
        <ele>32.5</ele>
        <time>2024-03-10T09:21:30Z</time>
      </trkpt>
      <trkpt lat="49.07844" lon="0.07026">
        <ele>32.4</ele>
        <time>2024-03-10T09:21:31Z</time>
      </trkpt>
      <trkpt lat="49.07842" lon="0.07037">
        <ele>32.3</ele>
        <time>2024-03-10T09:21:32Z</time>
      </trkpt>
      <trkpt lat="49.07839" lon="0.07047">
        <ele>32.3</ele>
        <time>2024-03-10T09:21:33Z</time>
      </trkpt>
      <trkpt lat="49.07836" lon="0.07058">
        <ele>32.3</ele>
        <time>2024-03-10T09:21:34Z</time>
      </trkpt>
      <trkpt lat="49.07833" lon="0.07069">
        <ele>32.2</ele>
        <time>2024-03-10T09:21:35Z</time>
      </trkpt>
      <trkpt lat="49.07831" lon="0.0708">
        <ele>32.2</ele>
        <time>2024-03-10T09:21:36Z</time>
      </trkpt>
      <trkpt lat="49.07828" lon="0.07091">
        <ele>32.2</ele>
        <time>2024-03-10T09:21:37Z</time>
      </trkpt>
      <trkpt lat="49.07826" lon="0.07101">
        <ele>32.2</ele>
        <time>2024-03-10T09:21:38Z</time>
      </trkpt>
      <trkpt lat="49.07824" lon="0.07111">
        <ele>32.2</ele>
        <time>2024-03-10T09:21:39Z</time>
      </trkpt>
      <trkpt lat="49.07821" lon="0.07121">
        <ele>32.1</ele>
        <time>2024-03-10T09:21:40Z</time>
      </trkpt>
      <trkpt lat="49.07819" lon="0.0713">
        <ele>32.1</ele>
        <time>2024-03-10T09:21:41Z</time>
      </trkpt>
      <trkpt lat="49.07816" lon="0.0714">
        <ele>32.1</ele>
        <time>2024-03-10T09:21:42Z</time>
      </trkpt>
      <trkpt lat="49.07814" lon="0.07151">
        <ele>32.1</ele>
        <time>2024-03-10T09:21:43Z</time>
      </trkpt>
      <trkpt lat="49.07811" lon="0.07161">
        <ele>32.1</ele>
        <time>2024-03-10T09:21:44Z</time>
      </trkpt>
      <trkpt lat="49.07809" lon="0.07172">
        <ele>32.2</ele>
        <time>2024-03-10T09:21:45Z</time>
      </trkpt>
      <trkpt lat="49.07807" lon="0.07183">
        <ele>32.2</ele>
        <time>2024-03-10T09:21:46Z</time>
      </trkpt>
      <trkpt lat="49.07805" lon="0.07194">
        <ele>32.3</ele>
        <time>2024-03-10T09:21:47Z</time>
      </trkpt>
      <trkpt lat="49.07803" lon="0.07204">
        <ele>32.4</ele>
        <time>2024-03-10T09:21:48Z</time>
      </trkpt>
      <trkpt lat="49.078" lon="0.07215">
        <ele>32.4</ele>
        <time>2024-03-10T09:21:49Z</time>
      </trkpt>
      <trkpt lat="49.07798" lon="0.07225">
        <ele>32.5</ele>
        <time>2024-03-10T09:21:50Z</time>
      </trkpt>
      <trkpt lat="49.07795" lon="0.07235">
        <ele>32.6</ele>
        <time>2024-03-10T09:21:51Z</time>
      </trkpt>
      <trkpt lat="49.07793" lon="0.07246">
        <ele>32.7</ele>
        <time>2024-03-10T09:21:52Z</time>
      </trkpt>
      <trkpt lat="49.07791" lon="0.07256">
        <ele>32.8</ele>
        <time>2024-03-10T09:21:53Z</time>
      </trkpt>
      <trkpt lat="49.07789" lon="0.07266">
        <ele>32.9</ele>
        <time>2024-03-10T09:21:54Z</time>
      </trkpt>
      <trkpt lat="49.07787" lon="0.07276">
        <ele>33</ele>
        <time>2024-03-10T09:21:55Z</time>
      </trkpt>
      <trkpt lat="49.07784" lon="0.07285">
        <ele>33.1</ele>
        <time>2024-03-10T09:21:56Z</time>
      </trkpt>
      <trkpt lat="49.07782" lon="0.07295">
        <ele>33.2</ele>
        <time>2024-03-10T09:21:57Z</time>
      </trkpt>
      <trkpt lat="49.0778" lon="0.07305">
        <ele>33.2</ele>
        <time>2024-03-10T09:21:58Z</time>
      </trkpt>
      <trkpt lat="49.07777" lon="0.07314">
        <ele>33.2</ele>
        <time>2024-03-10T09:21:59Z</time>
      </trkpt>
      <trkpt lat="49.07773" lon="0.07324">
        <ele>33.2</ele>
        <time>2024-03-10T09:22:00Z</time>
      </trkpt>
      <trkpt lat="49.07769" lon="0.07333">
        <ele>33.3</ele>
        <time>2024-03-10T09:22:01Z</time>
      </trkpt>
      <trkpt lat="49.07766" lon="0.07341">
        <ele>33.3</ele>
        <time>2024-03-10T09:22:02Z</time>
      </trkpt>
      <trkpt lat="49.07762" lon="0.07351">
        <ele>33.3</ele>
        <time>2024-03-10T09:22:03Z</time>
      </trkpt>
      <trkpt lat="49.07758" lon="0.07359">
        <ele>33.4</ele>
        <time>2024-03-10T09:22:04Z</time>
      </trkpt>
      <trkpt lat="49.07753" lon="0.07368">
        <ele>33.4</ele>
        <time>2024-03-10T09:22:05Z</time>
      </trkpt>
      <trkpt lat="49.07749" lon="0.07377">
        <ele>33.4</ele>
        <time>2024-03-10T09:22:06Z</time>
      </trkpt>
      <trkpt lat="49.07744" lon="0.07386">
        <ele>33.5</ele>
        <time>2024-03-10T09:22:07Z</time>
      </trkpt>
      <trkpt lat="49.0774" lon="0.07395">
        <ele>33.5</ele>
        <time>2024-03-10T09:22:08Z</time>
      </trkpt>
      <trkpt lat="49.07736" lon="0.07405">
        <ele>33.5</ele>
        <time>2024-03-10T09:22:09Z</time>
      </trkpt>
      <trkpt lat="49.07733" lon="0.07415">
        <ele>33.6</ele>
        <time>2024-03-10T09:22:10Z</time>
      </trkpt>
      <trkpt lat="49.07729" lon="0.07425">
        <ele>33.6</ele>
        <time>2024-03-10T09:22:11Z</time>
      </trkpt>
      <trkpt lat="49.07726" lon="0.07434">
        <ele>33.7</ele>
        <time>2024-03-10T09:22:12Z</time>
      </trkpt>
      <trkpt lat="49.07723" lon="0.07445">
        <ele>33.8</ele>
        <time>2024-03-10T09:22:13Z</time>
      </trkpt>
      <trkpt lat="49.0772" lon="0.07455">
        <ele>33.8</ele>
        <time>2024-03-10T09:22:14Z</time>
      </trkpt>
      <trkpt lat="49.07716" lon="0.07465">
        <ele>33.9</ele>
        <time>2024-03-10T09:22:15Z</time>
      </trkpt>
      <trkpt lat="49.07713" lon="0.07475">
        <ele>33.9</ele>
        <time>2024-03-10T09:22:16Z</time>
      </trkpt>
      <trkpt lat="49.0771" lon="0.07485">
        <ele>34</ele>
        <time>2024-03-10T09:22:17Z</time>
      </trkpt>
      <trkpt lat="49.07706" lon="0.07494">
        <ele>34</ele>
        <time>2024-03-10T09:22:18Z</time>
      </trkpt>
      <trkpt lat="49.07702" lon="0.07504">
        <ele>34.1</ele>
        <time>2024-03-10T09:22:19Z</time>
      </trkpt>
      <trkpt lat="49.07698" lon="0.07514">
        <ele>34.1</ele>
        <time>2024-03-10T09:22:20Z</time>
      </trkpt>
      <trkpt lat="49.07695" lon="0.07523">
        <ele>34.2</ele>
        <time>2024-03-10T09:22:21Z</time>
      </trkpt>
      <trkpt lat="49.07692" lon="0.07532">
        <ele>34.2</ele>
        <time>2024-03-10T09:22:22Z</time>
      </trkpt>
      <trkpt lat="49.07689" lon="0.07541">
        <ele>34.3</ele>
        <time>2024-03-10T09:22:23Z</time>
      </trkpt>
      <trkpt lat="49.07687" lon="0.07549">
        <ele>34.3</ele>
        <time>2024-03-10T09:22:24Z</time>
      </trkpt>
      <trkpt lat="49.07684" lon="0.07557">
        <ele>34.3</ele>
        <time>2024-03-10T09:22:25Z</time>
      </trkpt>
      <trkpt lat="49.07682" lon="0.07566">
        <ele>34.4</ele>
        <time>2024-03-10T09:22:26Z</time>
      </trkpt>
      <trkpt lat="49.0768" lon="0.07574">
        <ele>34.4</ele>
        <time>2024-03-10T09:22:27Z</time>
      </trkpt>
      <trkpt lat="49.07677" lon="0.07582">
        <ele>34.4</ele>
        <time>2024-03-10T09:22:28Z</time>
      </trkpt>
      <trkpt lat="49.07675" lon="0.07591">
        <ele>34.5</ele>
        <time>2024-03-10T09:22:29Z</time>
      </trkpt>
      <trkpt lat="49.07672" lon="0.076">
        <ele>34.5</ele>
        <time>2024-03-10T09:22:30Z</time>
      </trkpt>
      <trkpt lat="49.07669" lon="0.07609">
        <ele>34.6</ele>
        <time>2024-03-10T09:22:31Z</time>
      </trkpt>
      <trkpt lat="49.07666" lon="0.07618">
        <ele>34.6</ele>
        <time>2024-03-10T09:22:32Z</time>
      </trkpt>
      <trkpt lat="49.07663" lon="0.07627">
        <ele>34.7</ele>
        <time>2024-03-10T09:22:33Z</time>
      </trkpt>
      <trkpt lat="49.0766" lon="0.07637">
        <ele>34.7</ele>
        <time>2024-03-10T09:22:34Z</time>
      </trkpt>
      <trkpt lat="49.07657" lon="0.07646">
        <ele>34.8</ele>
        <time>2024-03-10T09:22:35Z</time>
      </trkpt>
      <trkpt lat="49.07653" lon="0.07656">
        <ele>34.8</ele>
        <time>2024-03-10T09:22:36Z</time>
      </trkpt>
      <trkpt lat="49.0765" lon="0.07666">
        <ele>34.7</ele>
        <time>2024-03-10T09:22:37Z</time>
      </trkpt>
      <trkpt lat="49.07646" lon="0.07676">
        <ele>34.7</ele>
        <time>2024-03-10T09:22:38Z</time>
      </trkpt>
      <trkpt lat="49.07642" lon="0.07685">
        <ele>34.6</ele>
        <time>2024-03-10T09:22:39Z</time>
      </trkpt>
      <trkpt lat="49.07638" lon="0.07695">
        <ele>34.4</ele>
        <time>2024-03-10T09:22:40Z</time>
      </trkpt>
      <trkpt lat="49.07634" lon="0.07705">
        <ele>34.2</ele>
        <time>2024-03-10T09:22:41Z</time>
      </trkpt>
      <trkpt lat="49.07629" lon="0.07715">
        <ele>34</ele>
        <time>2024-03-10T09:22:42Z</time>
      </trkpt>
      <trkpt lat="49.07625" lon="0.07726">
        <ele>33.7</ele>
        <time>2024-03-10T09:22:43Z</time>
      </trkpt>
      <trkpt lat="49.0762" lon="0.07737">
        <ele>33.5</ele>
        <time>2024-03-10T09:22:44Z</time>
      </trkpt>
      <trkpt lat="49.07615" lon="0.07748">
        <ele>33.3</ele>
        <time>2024-03-10T09:22:45Z</time>
      </trkpt>
      <trkpt lat="49.07611" lon="0.0776">
        <ele>33.1</ele>
        <time>2024-03-10T09:22:46Z</time>
      </trkpt>
      <trkpt lat="49.07606" lon="0.0777">
        <ele>33</ele>
        <time>2024-03-10T09:22:47Z</time>
      </trkpt>
      <trkpt lat="49.07601" lon="0.07781">
        <ele>32.9</ele>
        <time>2024-03-10T09:22:48Z</time>
      </trkpt>
      <trkpt lat="49.07597" lon="0.07792">
        <ele>32.8</ele>
        <time>2024-03-10T09:22:49Z</time>
      </trkpt>
      <trkpt lat="49.07592" lon="0.07802">
        <ele>32.9</ele>
        <time>2024-03-10T09:22:50Z</time>
      </trkpt>
      <trkpt lat="49.07587" lon="0.07812">
        <ele>32.9</ele>
        <time>2024-03-10T09:22:51Z</time>
      </trkpt>
      <trkpt lat="49.07583" lon="0.07822">
        <ele>33.1</ele>
        <time>2024-03-10T09:22:52Z</time>
      </trkpt>
      <trkpt lat="49.07578" lon="0.07831">
        <ele>33.2</ele>
        <time>2024-03-10T09:22:53Z</time>
      </trkpt>
      <trkpt lat="49.07574" lon="0.07841">
        <ele>33.4</ele>
        <time>2024-03-10T09:22:54Z</time>
      </trkpt>
      <trkpt lat="49.0757" lon="0.07849">
        <ele>33.5</ele>
        <time>2024-03-10T09:22:55Z</time>
      </trkpt>
      <trkpt lat="49.07566" lon="0.07858">
        <ele>33.6</ele>
        <time>2024-03-10T09:22:56Z</time>
      </trkpt>
      <trkpt lat="49.07561" lon="0.07866">
        <ele>33.7</ele>
        <time>2024-03-10T09:22:57Z</time>
      </trkpt>
      <trkpt lat="49.07556" lon="0.07874">
        <ele>33.7</ele>
        <time>2024-03-10T09:22:58Z</time>
      </trkpt>
      <trkpt lat="49.0755" lon="0.07882">
        <ele>33.8</ele>
        <time>2024-03-10T09:22:59Z</time>
      </trkpt>
      <trkpt lat="49.07544" lon="0.07889">
        <ele>33.8</ele>
        <time>2024-03-10T09:23:00Z</time>
      </trkpt>
      <trkpt lat="49.07538" lon="0.07896">
        <ele>33.8</ele>
        <time>2024-03-10T09:23:01Z</time>
      </trkpt>
      <trkpt lat="49.07532" lon="0.07903">
        <ele>33.8</ele>
        <time>2024-03-10T09:23:02Z</time>
      </trkpt>
      <trkpt lat="49.07526" lon="0.0791">
        <ele>33.8</ele>
        <time>2024-03-10T09:23:03Z</time>
      </trkpt>
      <trkpt lat="49.07521" lon="0.07917">
        <ele>33.8</ele>
        <time>2024-03-10T09:23:04Z</time>
      </trkpt>
      <trkpt lat="49.07515" lon="0.07925">
        <ele>33.7</ele>
        <time>2024-03-10T09:23:05Z</time>
      </trkpt>
      <trkpt lat="49.0751" lon="0.07934">
        <ele>33.7</ele>
        <time>2024-03-10T09:23:06Z</time>
      </trkpt>
      <trkpt lat="49.07504" lon="0.07942">
        <ele>33.7</ele>
        <time>2024-03-10T09:23:07Z</time>
      </trkpt>
      <trkpt lat="49.07499" lon="0.07952">
        <ele>33.7</ele>
        <time>2024-03-10T09:23:08Z</time>
      </trkpt>
      <trkpt lat="49.07494" lon="0.07962">
        <ele>33.7</ele>
        <time>2024-03-10T09:23:09Z</time>
      </trkpt>
      <trkpt lat="49.07489" lon="0.07973">
        <ele>33.7</ele>
        <time>2024-03-10T09:23:10Z</time>
      </trkpt>
      <trkpt lat="49.07484" lon="0.07983">
        <ele>33.7</ele>
        <time>2024-03-10T09:23:11Z</time>
      </trkpt>
      <trkpt lat="49.0748" lon="0.07993">
        <ele>33.7</ele>
        <time>2024-03-10T09:23:12Z</time>
      </trkpt>
      <trkpt lat="49.07474" lon="0.08003">
        <ele>33.7</ele>
        <time>2024-03-10T09:23:13Z</time>
      </trkpt>
      <trkpt lat="49.0747" lon="0.08013">
        <ele>33.7</ele>
        <time>2024-03-10T09:23:14Z</time>
      </trkpt>
      <trkpt lat="49.07465" lon="0.08022">
        <ele>33.7</ele>
        <time>2024-03-10T09:23:15Z</time>
      </trkpt>
      <trkpt lat="49.07459" lon="0.08031">
        <ele>33.7</ele>
        <time>2024-03-10T09:23:16Z</time>
      </trkpt>
      <trkpt lat="49.07454" lon="0.08039">
        <ele>33.8</ele>
        <time>2024-03-10T09:23:17Z</time>
      </trkpt>
      <trkpt lat="49.07447" lon="0.08046">
        <ele>33.8</ele>
        <time>2024-03-10T09:23:18Z</time>
      </trkpt>
      <trkpt lat="49.07441" lon="0.08053">
        <ele>33.8</ele>
        <time>2024-03-10T09:23:19Z</time>
      </trkpt>
      <trkpt lat="49.07435" lon="0.08059">
        <ele>33.9</ele>
        <time>2024-03-10T09:23:20Z</time>
      </trkpt>
      <trkpt lat="49.07429" lon="0.08066">
        <ele>33.9</ele>
        <time>2024-03-10T09:23:21Z</time>
      </trkpt>
      <trkpt lat="49.07423" lon="0.08072">
        <ele>33.9</ele>
        <time>2024-03-10T09:23:22Z</time>
      </trkpt>
      <trkpt lat="49.07417" lon="0.0808">
        <ele>34</ele>
        <time>2024-03-10T09:23:23Z</time>
      </trkpt>
      <trkpt lat="49.07411" lon="0.08087">
        <ele>34</ele>
        <time>2024-03-10T09:23:24Z</time>
      </trkpt>
      <trkpt lat="49.07405" lon="0.08093">
        <ele>34</ele>
        <time>2024-03-10T09:23:25Z</time>
      </trkpt>
      <trkpt lat="49.07399" lon="0.081">
        <ele>34.1</ele>
        <time>2024-03-10T09:23:26Z</time>
      </trkpt>
      <trkpt lat="49.07393" lon="0.08106">
        <ele>34.2</ele>
        <time>2024-03-10T09:23:27Z</time>
      </trkpt>
      <trkpt lat="49.07387" lon="0.08113">
        <ele>34.2</ele>
        <time>2024-03-10T09:23:28Z</time>
      </trkpt>
      <trkpt lat="49.07381" lon="0.08119">
        <ele>34.3</ele>
        <time>2024-03-10T09:23:29Z</time>
      </trkpt>
      <trkpt lat="49.07375" lon="0.08126">
        <ele>34.3</ele>
        <time>2024-03-10T09:23:30Z</time>
      </trkpt>
      <trkpt lat="49.07369" lon="0.08133">
        <ele>34.4</ele>
        <time>2024-03-10T09:23:31Z</time>
      </trkpt>
      <trkpt lat="49.07362" lon="0.0814">
        <ele>34.4</ele>
        <time>2024-03-10T09:23:32Z</time>
      </trkpt>
      <trkpt lat="49.07356" lon="0.08146">
        <ele>34.5</ele>
        <time>2024-03-10T09:23:33Z</time>
      </trkpt>
      <trkpt lat="49.0735" lon="0.08153">
        <ele>34.5</ele>
        <time>2024-03-10T09:23:34Z</time>
      </trkpt>
      <trkpt lat="49.07345" lon="0.0816">
        <ele>34.6</ele>
        <time>2024-03-10T09:23:35Z</time>
      </trkpt>
      <trkpt lat="49.07339" lon="0.08168">
        <ele>34.7</ele>
        <time>2024-03-10T09:23:36Z</time>
      </trkpt>
      <trkpt lat="49.07333" lon="0.08175">
        <ele>34.8</ele>
        <time>2024-03-10T09:23:37Z</time>
      </trkpt>
      <trkpt lat="49.07327" lon="0.08182">
        <ele>34.8</ele>
        <time>2024-03-10T09:23:38Z</time>
      </trkpt>
      <trkpt lat="49.07321" lon="0.08189">
        <ele>34.9</ele>
        <time>2024-03-10T09:23:39Z</time>
      </trkpt>
      <trkpt lat="49.07315" lon="0.08196">
        <ele>35</ele>
        <time>2024-03-10T09:23:40Z</time>
      </trkpt>
      <trkpt lat="49.0731" lon="0.08203">
        <ele>35.1</ele>
        <time>2024-03-10T09:23:41Z</time>
      </trkpt>
      <trkpt lat="49.07304" lon="0.08211">
        <ele>35.2</ele>
        <time>2024-03-10T09:23:42Z</time>
      </trkpt>
      <trkpt lat="49.07299" lon="0.08218">
        <ele>35.2</ele>
        <time>2024-03-10T09:23:43Z</time>
      </trkpt>
      <trkpt lat="49.07294" lon="0.08225">
        <ele>35.3</ele>
        <time>2024-03-10T09:23:44Z</time>
      </trkpt>
      <trkpt lat="49.07289" lon="0.08233">
        <ele>35.4</ele>
        <time>2024-03-10T09:23:45Z</time>
      </trkpt>
      <trkpt lat="49.07284" lon="0.08239">
        <ele>35.4</ele>
        <time>2024-03-10T09:23:46Z</time>
      </trkpt>
      <trkpt lat="49.07279" lon="0.08246">
        <ele>35.5</ele>
        <time>2024-03-10T09:23:47Z</time>
      </trkpt>
      <trkpt lat="49.07275" lon="0.08253">
        <ele>35.5</ele>
        <time>2024-03-10T09:23:48Z</time>
      </trkpt>
      <trkpt lat="49.07269" lon="0.0826">
        <ele>35.6</ele>
        <time>2024-03-10T09:23:49Z</time>
      </trkpt>
      <trkpt lat="49.07264" lon="0.08267">
        <ele>35.6</ele>
        <time>2024-03-10T09:23:50Z</time>
      </trkpt>
      <trkpt lat="49.07259" lon="0.08274">
        <ele>35.6</ele>
        <time>2024-03-10T09:23:51Z</time>
      </trkpt>
      <trkpt lat="49.07254" lon="0.08282">
        <ele>35.6</ele>
        <time>2024-03-10T09:23:52Z</time>
      </trkpt>
      <trkpt lat="49.07249" lon="0.08289">
        <ele>35.6</ele>
        <time>2024-03-10T09:23:53Z</time>
      </trkpt>
      <trkpt lat="49.07243" lon="0.08296">
        <ele>35.6</ele>
        <time>2024-03-10T09:23:54Z</time>
      </trkpt>
      <trkpt lat="49.07237" lon="0.08304">
        <ele>35.6</ele>
        <time>2024-03-10T09:23:55Z</time>
      </trkpt>
      <trkpt lat="49.07232" lon="0.08312">
        <ele>35.6</ele>
        <time>2024-03-10T09:23:56Z</time>
      </trkpt>
      <trkpt lat="49.07226" lon="0.08319">
        <ele>35.6</ele>
        <time>2024-03-10T09:23:57Z</time>
      </trkpt>
      <trkpt lat="49.07221" lon="0.08327">
        <ele>35.6</ele>
        <time>2024-03-10T09:23:58Z</time>
      </trkpt>
      <trkpt lat="49.07216" lon="0.08334">
        <ele>35.6</ele>
        <time>2024-03-10T09:23:59Z</time>
      </trkpt>
      <trkpt lat="49.07211" lon="0.08341">
        <ele>35.6</ele>
        <time>2024-03-10T09:24:00Z</time>
      </trkpt>
      <trkpt lat="49.07206" lon="0.08348">
        <ele>35.5</ele>
        <time>2024-03-10T09:24:01Z</time>
      </trkpt>
      <trkpt lat="49.07201" lon="0.08355">
        <ele>35.5</ele>
        <time>2024-03-10T09:24:02Z</time>
      </trkpt>
      <trkpt lat="49.07195" lon="0.08363">
        <ele>35.4</ele>
        <time>2024-03-10T09:24:03Z</time>
      </trkpt>
      <trkpt lat="49.07189" lon="0.08371">
        <ele>35.3</ele>
        <time>2024-03-10T09:24:04Z</time>
      </trkpt>
      <trkpt lat="49.07183" lon="0.08379">
        <ele>35.2</ele>
        <time>2024-03-10T09:24:05Z</time>
      </trkpt>
      <trkpt lat="49.07177" lon="0.08387">
        <ele>35.1</ele>
        <time>2024-03-10T09:24:06Z</time>
      </trkpt>
      <trkpt lat="49.07172" lon="0.08395">
        <ele>35</ele>
        <time>2024-03-10T09:24:07Z</time>
      </trkpt>
      <trkpt lat="49.07166" lon="0.08403">
        <ele>34.9</ele>
        <time>2024-03-10T09:24:08Z</time>
      </trkpt>
      <trkpt lat="49.0716" lon="0.08411">
        <ele>34.8</ele>
        <time>2024-03-10T09:24:09Z</time>
      </trkpt>
      <trkpt lat="49.07154" lon="0.08419">
        <ele>34.7</ele>
        <time>2024-03-10T09:24:10Z</time>
      </trkpt>
      <trkpt lat="49.07148" lon="0.08426">
        <ele>34.7</ele>
        <time>2024-03-10T09:24:11Z</time>
      </trkpt>
      <trkpt lat="49.07143" lon="0.08434">
        <ele>34.6</ele>
        <time>2024-03-10T09:24:12Z</time>
      </trkpt>
      <trkpt lat="49.07137" lon="0.08441">
        <ele>34.6</ele>
        <time>2024-03-10T09:24:13Z</time>
      </trkpt>
      <trkpt lat="49.07131" lon="0.08449">
        <ele>34.6</ele>
        <time>2024-03-10T09:24:14Z</time>
      </trkpt>
      <trkpt lat="49.07125" lon="0.08456">
        <ele>34.7</ele>
        <time>2024-03-10T09:24:15Z</time>
      </trkpt>
      <trkpt lat="49.07119" lon="0.08462">
        <ele>34.8</ele>
        <time>2024-03-10T09:24:16Z</time>
      </trkpt>
      <trkpt lat="49.07112" lon="0.08468">
        <ele>34.9</ele>
        <time>2024-03-10T09:24:17Z</time>
      </trkpt>
      <trkpt lat="49.07106" lon="0.08473">
        <ele>35</ele>
        <time>2024-03-10T09:24:18Z</time>
      </trkpt>
      <trkpt lat="49.07099" lon="0.08478">
        <ele>35</ele>
        <time>2024-03-10T09:24:19Z</time>
      </trkpt>
      <trkpt lat="49.07093" lon="0.08483">
        <ele>35.1</ele>
        <time>2024-03-10T09:24:20Z</time>
      </trkpt>
      <trkpt lat="49.07087" lon="0.08487">
        <ele>35.1</ele>
        <time>2024-03-10T09:24:21Z</time>
      </trkpt>
      <trkpt lat="49.07082" lon="0.08492">
        <ele>35.2</ele>
        <time>2024-03-10T09:24:22Z</time>
      </trkpt>
      <trkpt lat="49.07077" lon="0.08496">
        <ele>35.2</ele>
        <time>2024-03-10T09:24:23Z</time>
      </trkpt>
      <trkpt lat="49.07071" lon="0.085">
        <ele>35.2</ele>
        <time>2024-03-10T09:24:24Z</time>
      </trkpt>
      <trkpt lat="49.07066" lon="0.08505">
        <ele>35.3</ele>
        <time>2024-03-10T09:24:25Z</time>
      </trkpt>
      <trkpt lat="49.07061" lon="0.0851">
        <ele>35.3</ele>
        <time>2024-03-10T09:24:26Z</time>
      </trkpt>
      <trkpt lat="49.07056" lon="0.08515">
        <ele>35.4</ele>
        <time>2024-03-10T09:24:27Z</time>
      </trkpt>
      <trkpt lat="49.0705" lon="0.08521">
        <ele>35.4</ele>
        <time>2024-03-10T09:24:28Z</time>
      </trkpt>
      <trkpt lat="49.07045" lon="0.08527">
        <ele>35.4</ele>
        <time>2024-03-10T09:24:29Z</time>
      </trkpt>
      <trkpt lat="49.0704" lon="0.08534">
        <ele>35.5</ele>
        <time>2024-03-10T09:24:30Z</time>
      </trkpt>
      <trkpt lat="49.07036" lon="0.08541">
        <ele>35.5</ele>
        <time>2024-03-10T09:24:31Z</time>
      </trkpt>
      <trkpt lat="49.07031" lon="0.08547">
        <ele>35.6</ele>
        <time>2024-03-10T09:24:32Z</time>
      </trkpt>
      <trkpt lat="49.07027" lon="0.08554">
        <ele>35.7</ele>
        <time>2024-03-10T09:24:33Z</time>
      </trkpt>
      <trkpt lat="49.07023" lon="0.08561">
        <ele>35.7</ele>
        <time>2024-03-10T09:24:34Z</time>
      </trkpt>
      <trkpt lat="49.07019" lon="0.08567">
        <ele>35.8</ele>
        <time>2024-03-10T09:24:35Z</time>
      </trkpt>
      <trkpt lat="49.07014" lon="0.08574">
        <ele>35.9</ele>
        <time>2024-03-10T09:24:36Z</time>
      </trkpt>
      <trkpt lat="49.07011" lon="0.08579">
        <ele>36</ele>
        <time>2024-03-10T09:24:37Z</time>
      </trkpt>
      <trkpt lat="49.07008" lon="0.08585">
        <ele>36.1</ele>
        <time>2024-03-10T09:24:38Z</time>
      </trkpt>
      <trkpt lat="49.07004" lon="0.0859">
        <ele>36.2</ele>
        <time>2024-03-10T09:24:39Z</time>
      </trkpt>
      <trkpt lat="49.07001" lon="0.08596">
        <ele>36.3</ele>
        <time>2024-03-10T09:24:40Z</time>
      </trkpt>
      <trkpt lat="49.06998" lon="0.08599">
        <ele>36.4</ele>
        <time>2024-03-10T09:24:41Z</time>
      </trkpt>
      <trkpt lat="49.06995" lon="0.08601">
        <ele>36.5</ele>
        <time>2024-03-10T09:24:42Z</time>
      </trkpt>
      <trkpt lat="49.06991" lon="0.08603">
        <ele>36.6</ele>
        <time>2024-03-10T09:24:43Z</time>
      </trkpt>
      <trkpt lat="49.06987" lon="0.08603">
        <ele>36.7</ele>
        <time>2024-03-10T09:24:44Z</time>
      </trkpt>
      <trkpt lat="49.06983" lon="0.08603">
        <ele>36.7</ele>
        <time>2024-03-10T09:24:45Z</time>
      </trkpt>
      <trkpt lat="49.0698" lon="0.08603">
        <ele>36.8</ele>
        <time>2024-03-10T09:24:46Z</time>
      </trkpt>
      <trkpt lat="49.06977" lon="0.08604">
        <ele>36.9</ele>
        <time>2024-03-10T09:24:47Z</time>
      </trkpt>
      <trkpt lat="49.06973" lon="0.08604">
        <ele>37</ele>
        <time>2024-03-10T09:24:48Z</time>
      </trkpt>
      <trkpt lat="49.06972" lon="0.08604">
        <ele>37</ele>
        <time>2024-03-10T09:24:49Z</time>
      </trkpt>
      <trkpt lat="49.06969" lon="0.08604">
        <ele>37</ele>
        <time>2024-03-10T09:24:50Z</time>
      </trkpt>
      <trkpt lat="49.06968" lon="0.08605">
        <ele>37.1</ele>
        <time>2024-03-10T09:24:51Z</time>
      </trkpt>
      <trkpt lat="49.06966" lon="0.08606">
        <ele>37.1</ele>
        <time>2024-03-10T09:24:52Z</time>
      </trkpt>
      <trkpt lat="49.06963" lon="0.08608">
        <ele>37.2</ele>
        <time>2024-03-10T09:24:53Z</time>
      </trkpt>
      <trkpt lat="49.06961" lon="0.08611">
        <ele>37.2</ele>
        <time>2024-03-10T09:24:54Z</time>
      </trkpt>
      <trkpt lat="49.06961" lon="0.08616">
        <ele>37.2</ele>
        <time>2024-03-10T09:24:55Z</time>
      </trkpt>
      <trkpt lat="49.06961" lon="0.08623">
        <ele>37.2</ele>
        <time>2024-03-10T09:24:56Z</time>
      </trkpt>
      <trkpt lat="49.06963" lon="0.08629">
        <ele>37.2</ele>
        <time>2024-03-10T09:24:57Z</time>
      </trkpt>
      <trkpt lat="49.06965" lon="0.08636">
        <ele>37.2</ele>
        <time>2024-03-10T09:24:58Z</time>
      </trkpt>
      <trkpt lat="49.06966" lon="0.08644">
        <ele>37.2</ele>
        <time>2024-03-10T09:24:59Z</time>
      </trkpt>
      <trkpt lat="49.06967" lon="0.08651">
        <ele>37.2</ele>
        <time>2024-03-10T09:25:00Z</time>
      </trkpt>
      <trkpt lat="49.06968" lon="0.08658">
        <ele>37.2</ele>
        <time>2024-03-10T09:25:01Z</time>
      </trkpt>
      <trkpt lat="49.0697" lon="0.08666">
        <ele>37.2</ele>
        <time>2024-03-10T09:25:02Z</time>
      </trkpt>
      <trkpt lat="49.06971" lon="0.08674">
        <ele>37.1</ele>
        <time>2024-03-10T09:25:03Z</time>
      </trkpt>
      <trkpt lat="49.06972" lon="0.08682">
        <ele>37.1</ele>
        <time>2024-03-10T09:25:04Z</time>
      </trkpt>
      <trkpt lat="49.06973" lon="0.08689">
        <ele>37.1</ele>
        <time>2024-03-10T09:25:05Z</time>
      </trkpt>
      <trkpt lat="49.06974" lon="0.08697">
        <ele>37.1</ele>
        <time>2024-03-10T09:25:06Z</time>
      </trkpt>
      <trkpt lat="49.06975" lon="0.08705">
        <ele>37.1</ele>
        <time>2024-03-10T09:25:07Z</time>
      </trkpt>
      <trkpt lat="49.06976" lon="0.08711">
        <ele>37.1</ele>
        <time>2024-03-10T09:25:08Z</time>
      </trkpt>
      <trkpt lat="49.06978" lon="0.08719">
        <ele>37.1</ele>
        <time>2024-03-10T09:25:09Z</time>
      </trkpt>
      <trkpt lat="49.06979" lon="0.08727">
        <ele>37.1</ele>
        <time>2024-03-10T09:25:10Z</time>
      </trkpt>
      <trkpt lat="49.06981" lon="0.08735">
        <ele>37</ele>
        <time>2024-03-10T09:25:11Z</time>
      </trkpt>
      <trkpt lat="49.06983" lon="0.08744">
        <ele>37</ele>
        <time>2024-03-10T09:25:12Z</time>
      </trkpt>
      <trkpt lat="49.06985" lon="0.08753">
        <ele>36.9</ele>
        <time>2024-03-10T09:25:13Z</time>
      </trkpt>
      <trkpt lat="49.06987" lon="0.08762">
        <ele>36.8</ele>
        <time>2024-03-10T09:25:14Z</time>
      </trkpt>
      <trkpt lat="49.06988" lon="0.08772">
        <ele>36.7</ele>
        <time>2024-03-10T09:25:15Z</time>
      </trkpt>
      <trkpt lat="49.0699" lon="0.0878">
        <ele>36.7</ele>
        <time>2024-03-10T09:25:16Z</time>
      </trkpt>
      <trkpt lat="49.06991" lon="0.08789">
        <ele>36.6</ele>
        <time>2024-03-10T09:25:17Z</time>
      </trkpt>
      <trkpt lat="49.06994" lon="0.08798">
        <ele>36.5</ele>
        <time>2024-03-10T09:25:18Z</time>
      </trkpt>
      <trkpt lat="49.06995" lon="0.08807">
        <ele>36.4</ele>
        <time>2024-03-10T09:25:19Z</time>
      </trkpt>
      <trkpt lat="49.06997" lon="0.08815">
        <ele>36.3</ele>
        <time>2024-03-10T09:25:20Z</time>
      </trkpt>
      <trkpt lat="49.06999" lon="0.08824">
        <ele>36.2</ele>
        <time>2024-03-10T09:25:21Z</time>
      </trkpt>
      <trkpt lat="49.07" lon="0.08833">
        <ele>36.1</ele>
        <time>2024-03-10T09:25:22Z</time>
      </trkpt>
      <trkpt lat="49.07002" lon="0.08843">
        <ele>36</ele>
        <time>2024-03-10T09:25:23Z</time>
      </trkpt>
      <trkpt lat="49.07004" lon="0.08853">
        <ele>35.8</ele>
        <time>2024-03-10T09:25:24Z</time>
      </trkpt>
      <trkpt lat="49.07007" lon="0.08863">
        <ele>35.7</ele>
        <time>2024-03-10T09:25:25Z</time>
      </trkpt>
      <trkpt lat="49.07011" lon="0.08873">
        <ele>35.6</ele>
        <time>2024-03-10T09:25:26Z</time>
      </trkpt>
      <trkpt lat="49.07015" lon="0.08882">
        <ele>35.4</ele>
        <time>2024-03-10T09:25:27Z</time>
      </trkpt>
      <trkpt lat="49.0702" lon="0.08891">
        <ele>35.3</ele>
        <time>2024-03-10T09:25:28Z</time>
      </trkpt>
      <trkpt lat="49.07025" lon="0.089">
        <ele>35.2</ele>
        <time>2024-03-10T09:25:29Z</time>
      </trkpt>
      <trkpt lat="49.07031" lon="0.08909">
        <ele>35</ele>
        <time>2024-03-10T09:25:30Z</time>
      </trkpt>
      <trkpt lat="49.07038" lon="0.08917">
        <ele>34.8</ele>
        <time>2024-03-10T09:25:31Z</time>
      </trkpt>
      <trkpt lat="49.07044" lon="0.08924">
        <ele>34.6</ele>
        <time>2024-03-10T09:25:32Z</time>
      </trkpt>
      <trkpt lat="49.0705" lon="0.08932">
        <ele>34.4</ele>
        <time>2024-03-10T09:25:33Z</time>
      </trkpt>
      <trkpt lat="49.07056" lon="0.08941">
        <ele>34.3</ele>
        <time>2024-03-10T09:25:34Z</time>
      </trkpt>
      <trkpt lat="49.07063" lon="0.0895">
        <ele>34.1</ele>
        <time>2024-03-10T09:25:35Z</time>
      </trkpt>
      <trkpt lat="49.0707" lon="0.08959">
        <ele>34</ele>
        <time>2024-03-10T09:25:36Z</time>
      </trkpt>
      <trkpt lat="49.07077" lon="0.08967">
        <ele>33.9</ele>
        <time>2024-03-10T09:25:37Z</time>
      </trkpt>
      <trkpt lat="49.07084" lon="0.08976">
        <ele>33.8</ele>
        <time>2024-03-10T09:25:38Z</time>
      </trkpt>
      <trkpt lat="49.07091" lon="0.08985">
        <ele>33.8</ele>
        <time>2024-03-10T09:25:39Z</time>
      </trkpt>
      <trkpt lat="49.07098" lon="0.08992">
        <ele>33.7</ele>
        <time>2024-03-10T09:25:40Z</time>
      </trkpt>
      <trkpt lat="49.07105" lon="0.08999">
        <ele>33.6</ele>
        <time>2024-03-10T09:25:41Z</time>
      </trkpt>
      <trkpt lat="49.07113" lon="0.09006">
        <ele>33.6</ele>
        <time>2024-03-10T09:25:42Z</time>
      </trkpt>
      <trkpt lat="49.0712" lon="0.09013">
        <ele>33.6</ele>
        <time>2024-03-10T09:25:43Z</time>
      </trkpt>
      <trkpt lat="49.07127" lon="0.0902">
        <ele>33.6</ele>
        <time>2024-03-10T09:25:44Z</time>
      </trkpt>
      <trkpt lat="49.07135" lon="0.09027">
        <ele>33.6</ele>
        <time>2024-03-10T09:25:45Z</time>
      </trkpt>
      <trkpt lat="49.07142" lon="0.09033">
        <ele>33.6</ele>
        <time>2024-03-10T09:25:46Z</time>
      </trkpt>
      <trkpt lat="49.0715" lon="0.09039">
        <ele>33.6</ele>
        <time>2024-03-10T09:25:47Z</time>
      </trkpt>
      <trkpt lat="49.07157" lon="0.09046">
        <ele>33.5</ele>
        <time>2024-03-10T09:25:48Z</time>
      </trkpt>
      <trkpt lat="49.07164" lon="0.09052">
        <ele>33.5</ele>
        <time>2024-03-10T09:25:49Z</time>
      </trkpt>
      <trkpt lat="49.07171" lon="0.09059">
        <ele>33.5</ele>
        <time>2024-03-10T09:25:50Z</time>
      </trkpt>
      <trkpt lat="49.07178" lon="0.09065">
        <ele>33.6</ele>
        <time>2024-03-10T09:25:51Z</time>
      </trkpt>
      <trkpt lat="49.07186" lon="0.09071">
        <ele>33.6</ele>
        <time>2024-03-10T09:25:52Z</time>
      </trkpt>
      <trkpt lat="49.07193" lon="0.09077">
        <ele>33.6</ele>
        <time>2024-03-10T09:25:53Z</time>
      </trkpt>
      <trkpt lat="49.072" lon="0.09084">
        <ele>33.5</ele>
        <time>2024-03-10T09:25:54Z</time>
      </trkpt>
      <trkpt lat="49.07207" lon="0.0909">
        <ele>33.5</ele>
        <time>2024-03-10T09:25:55Z</time>
      </trkpt>
      <trkpt lat="49.07213" lon="0.09096">
        <ele>33.5</ele>
        <time>2024-03-10T09:25:56Z</time>
      </trkpt>
      <trkpt lat="49.07221" lon="0.09102">
        <ele>33.5</ele>
        <time>2024-03-10T09:25:57Z</time>
      </trkpt>
      <trkpt lat="49.07228" lon="0.09108">
        <ele>33.5</ele>
        <time>2024-03-10T09:25:58Z</time>
      </trkpt>
      <trkpt lat="49.07235" lon="0.09115">
        <ele>33.6</ele>
        <time>2024-03-10T09:25:59Z</time>
      </trkpt>
      <trkpt lat="49.07242" lon="0.09121">
        <ele>33.6</ele>
        <time>2024-03-10T09:26:00Z</time>
      </trkpt>
      <trkpt lat="49.07248" lon="0.09127">
        <ele>33.6</ele>
        <time>2024-03-10T09:26:01Z</time>
      </trkpt>
      <trkpt lat="49.07255" lon="0.09133">
        <ele>33.6</ele>
        <time>2024-03-10T09:26:02Z</time>
      </trkpt>
      <trkpt lat="49.07262" lon="0.0914">
        <ele>33.6</ele>
        <time>2024-03-10T09:26:03Z</time>
      </trkpt>
      <trkpt lat="49.07269" lon="0.09146">
        <ele>33.6</ele>
        <time>2024-03-10T09:26:04Z</time>
      </trkpt>
      <trkpt lat="49.07277" lon="0.09151">
        <ele>33.7</ele>
        <time>2024-03-10T09:26:05Z</time>
      </trkpt>
      <trkpt lat="49.07284" lon="0.09157">
        <ele>33.6</ele>
        <time>2024-03-10T09:26:06Z</time>
      </trkpt>
      <trkpt lat="49.07291" lon="0.09163">
        <ele>33.6</ele>
        <time>2024-03-10T09:26:07Z</time>
      </trkpt>
      <trkpt lat="49.07298" lon="0.09169">
        <ele>33.6</ele>
        <time>2024-03-10T09:26:08Z</time>
      </trkpt>
      <trkpt lat="49.07305" lon="0.09175">
        <ele>33.6</ele>
        <time>2024-03-10T09:26:09Z</time>
      </trkpt>
      <trkpt lat="49.07312" lon="0.09181">
        <ele>33.6</ele>
        <time>2024-03-10T09:26:10Z</time>
      </trkpt>
      <trkpt lat="49.07319" lon="0.09186">
        <ele>33.7</ele>
        <time>2024-03-10T09:26:11Z</time>
      </trkpt>
      <trkpt lat="49.07326" lon="0.09192">
        <ele>33.7</ele>
        <time>2024-03-10T09:26:12Z</time>
      </trkpt>
      <trkpt lat="49.07332" lon="0.09197">
        <ele>33.8</ele>
        <time>2024-03-10T09:26:13Z</time>
      </trkpt>
      <trkpt lat="49.07339" lon="0.09202">
        <ele>33.9</ele>
        <time>2024-03-10T09:26:14Z</time>
      </trkpt>
      <trkpt lat="49.07345" lon="0.09207">
        <ele>33.9</ele>
        <time>2024-03-10T09:26:15Z</time>
      </trkpt>
      <trkpt lat="49.07351" lon="0.09212">
        <ele>34</ele>
        <time>2024-03-10T09:26:16Z</time>
      </trkpt>
      <trkpt lat="49.07357" lon="0.09216">
        <ele>34.2</ele>
        <time>2024-03-10T09:26:17Z</time>
      </trkpt>
      <trkpt lat="49.07363" lon="0.09222">
        <ele>34.3</ele>
        <time>2024-03-10T09:26:18Z</time>
      </trkpt>
      <trkpt lat="49.0737" lon="0.09227">
        <ele>34.5</ele>
        <time>2024-03-10T09:26:19Z</time>
      </trkpt>
      <trkpt lat="49.07376" lon="0.09232">
        <ele>34.7</ele>
        <time>2024-03-10T09:26:20Z</time>
      </trkpt>
      <trkpt lat="49.07382" lon="0.09237">
        <ele>34.9</ele>
        <time>2024-03-10T09:26:21Z</time>
      </trkpt>
      <trkpt lat="49.07388" lon="0.09241">
        <ele>35.2</ele>
        <time>2024-03-10T09:26:22Z</time>
      </trkpt>
      <trkpt lat="49.07394" lon="0.09246">
        <ele>35.5</ele>
        <time>2024-03-10T09:26:23Z</time>
      </trkpt>
      <trkpt lat="49.074" lon="0.0925">
        <ele>35.7</ele>
        <time>2024-03-10T09:26:24Z</time>
      </trkpt>
      <trkpt lat="49.07405" lon="0.09253">
        <ele>36</ele>
        <time>2024-03-10T09:26:25Z</time>
      </trkpt>
      <trkpt lat="49.07411" lon="0.09257">
        <ele>36.3</ele>
        <time>2024-03-10T09:26:26Z</time>
      </trkpt>
      <trkpt lat="49.07416" lon="0.0926">
        <ele>36.6</ele>
        <time>2024-03-10T09:26:27Z</time>
      </trkpt>
      <trkpt lat="49.07421" lon="0.09264">
        <ele>36.9</ele>
        <time>2024-03-10T09:26:28Z</time>
      </trkpt>
      <trkpt lat="49.07426" lon="0.09268">
        <ele>37.2</ele>
        <time>2024-03-10T09:26:29Z</time>
      </trkpt>
      <trkpt lat="49.07431" lon="0.09271">
        <ele>37.5</ele>
        <time>2024-03-10T09:26:30Z</time>
      </trkpt>
      <trkpt lat="49.07436" lon="0.09274">
        <ele>37.7</ele>
        <time>2024-03-10T09:26:31Z</time>
      </trkpt>
      <trkpt lat="49.07441" lon="0.09277">
        <ele>38</ele>
        <time>2024-03-10T09:26:32Z</time>
      </trkpt>
      <trkpt lat="49.07446" lon="0.0928">
        <ele>38.3</ele>
        <time>2024-03-10T09:26:33Z</time>
      </trkpt>
      <trkpt lat="49.0745" lon="0.09283">
        <ele>38.7</ele>
        <time>2024-03-10T09:26:34Z</time>
      </trkpt>
      <trkpt lat="49.07455" lon="0.09287">
        <ele>39</ele>
        <time>2024-03-10T09:26:35Z</time>
      </trkpt>
      <trkpt lat="49.07458" lon="0.09292">
        <ele>39.4</ele>
        <time>2024-03-10T09:26:36Z</time>
      </trkpt>
      <trkpt lat="49.0746" lon="0.09299">
        <ele>39.2</ele>
        <time>2024-03-10T09:26:37Z</time>
      </trkpt>
      <trkpt lat="49.07461" lon="0.09307">
        <ele>39</ele>
        <time>2024-03-10T09:26:38Z</time>
      </trkpt>
      <trkpt lat="49.0746" lon="0.09316">
        <ele>38.8</ele>
        <time>2024-03-10T09:26:39Z</time>
      </trkpt>
      <trkpt lat="49.07458" lon="0.09325">
        <ele>38.7</ele>
        <time>2024-03-10T09:26:40Z</time>
      </trkpt>
      <trkpt lat="49.07456" lon="0.09334">
        <ele>38.5</ele>
        <time>2024-03-10T09:26:41Z</time>
      </trkpt>
      <trkpt lat="49.07455" lon="0.09343">
        <ele>38.4</ele>
        <time>2024-03-10T09:26:42Z</time>
      </trkpt>
      <trkpt lat="49.07452" lon="0.09352">
        <ele>38.3</ele>
        <time>2024-03-10T09:26:43Z</time>
      </trkpt>
      <trkpt lat="49.0745" lon="0.09361">
        <ele>38.2</ele>
        <time>2024-03-10T09:26:44Z</time>
      </trkpt>
      <trkpt lat="49.07447" lon="0.0937">
        <ele>38.1</ele>
        <time>2024-03-10T09:26:45Z</time>
      </trkpt>
      <trkpt lat="49.07445" lon="0.09379">
        <ele>38</ele>
        <time>2024-03-10T09:26:46Z</time>
      </trkpt>
      <trkpt lat="49.07443" lon="0.09388">
        <ele>37.9</ele>
        <time>2024-03-10T09:26:47Z</time>
      </trkpt>
      <trkpt lat="49.0744" lon="0.09398">
        <ele>37.8</ele>
        <time>2024-03-10T09:26:48Z</time>
      </trkpt>
      <trkpt lat="49.07438" lon="0.09407">
        <ele>37.8</ele>
        <time>2024-03-10T09:26:49Z</time>
      </trkpt>
      <trkpt lat="49.07436" lon="0.09416">
        <ele>37.7</ele>
        <time>2024-03-10T09:26:50Z</time>
      </trkpt>
      <trkpt lat="49.07434" lon="0.09426">
        <ele>37.6</ele>
        <time>2024-03-10T09:26:51Z</time>
      </trkpt>
      <trkpt lat="49.07432" lon="0.09435">
        <ele>37.6</ele>
        <time>2024-03-10T09:26:52Z</time>
      </trkpt>
      <trkpt lat="49.07429" lon="0.09444">
        <ele>37.5</ele>
        <time>2024-03-10T09:26:53Z</time>
      </trkpt>
      <trkpt lat="49.07427" lon="0.09453">
        <ele>37.5</ele>
        <time>2024-03-10T09:26:54Z</time>
      </trkpt>
      <trkpt lat="49.07424" lon="0.09462">
        <ele>37.5</ele>
        <time>2024-03-10T09:26:55Z</time>
      </trkpt>
      <trkpt lat="49.07422" lon="0.09471">
        <ele>37.5</ele>
        <time>2024-03-10T09:26:56Z</time>
      </trkpt>
      <trkpt lat="49.07421" lon="0.09481">
        <ele>37.4</ele>
        <time>2024-03-10T09:26:57Z</time>
      </trkpt>
      <trkpt lat="49.07422" lon="0.09491">
        <ele>37.4</ele>
        <time>2024-03-10T09:26:58Z</time>
      </trkpt>
      <trkpt lat="49.07424" lon="0.09501">
        <ele>37.3</ele>
        <time>2024-03-10T09:26:59Z</time>
      </trkpt>
      <trkpt lat="49.07427" lon="0.09511">
        <ele>37.2</ele>
        <time>2024-03-10T09:27:00Z</time>
      </trkpt>
      <trkpt lat="49.07431" lon="0.09519">
        <ele>37.2</ele>
        <time>2024-03-10T09:27:01Z</time>
      </trkpt>
      <trkpt lat="49.07435" lon="0.09527">
        <ele>37.1</ele>
        <time>2024-03-10T09:27:02Z</time>
      </trkpt>
      <trkpt lat="49.07438" lon="0.09536">
        <ele>37</ele>
        <time>2024-03-10T09:27:03Z</time>
      </trkpt>
      <trkpt lat="49.07441" lon="0.09546">
        <ele>37</ele>
        <time>2024-03-10T09:27:04Z</time>
      </trkpt>
      <trkpt lat="49.07443" lon="0.09556">
        <ele>36.9</ele>
        <time>2024-03-10T09:27:05Z</time>
      </trkpt>
      <trkpt lat="49.07444" lon="0.09566">
        <ele>36.8</ele>
        <time>2024-03-10T09:27:06Z</time>
      </trkpt>
      <trkpt lat="49.07444" lon="0.09577">
        <ele>36.7</ele>
        <time>2024-03-10T09:27:07Z</time>
      </trkpt>
      <trkpt lat="49.07443" lon="0.09589">
        <ele>36.6</ele>
        <time>2024-03-10T09:27:08Z</time>
      </trkpt>
      <trkpt lat="49.07441" lon="0.096">
        <ele>36.5</ele>
        <time>2024-03-10T09:27:09Z</time>
      </trkpt>
      <trkpt lat="49.07437" lon="0.0961">
        <ele>36.4</ele>
        <time>2024-03-10T09:27:10Z</time>
      </trkpt>
      <trkpt lat="49.07433" lon="0.09621">
        <ele>36.4</ele>
        <time>2024-03-10T09:27:11Z</time>
      </trkpt>
      <trkpt lat="49.07429" lon="0.09631">
        <ele>36.5</ele>
        <time>2024-03-10T09:27:12Z</time>
      </trkpt>
      <trkpt lat="49.07425" lon="0.09641">
        <ele>36.8</ele>
        <time>2024-03-10T09:27:13Z</time>
      </trkpt>
      <trkpt lat="49.0742" lon="0.0965">
        <ele>37</ele>
        <time>2024-03-10T09:27:14Z</time>
      </trkpt>
      <trkpt lat="49.07416" lon="0.0966">
        <ele>37.4</ele>
        <time>2024-03-10T09:27:15Z</time>
      </trkpt>
      <trkpt lat="49.07413" lon="0.09669">
        <ele>37.7</ele>
        <time>2024-03-10T09:27:16Z</time>
      </trkpt>
      <trkpt lat="49.07409" lon="0.09678">
        <ele>38.1</ele>
        <time>2024-03-10T09:27:17Z</time>
      </trkpt>
      <trkpt lat="49.07405" lon="0.09685">
        <ele>38.5</ele>
        <time>2024-03-10T09:27:18Z</time>
      </trkpt>
      <trkpt lat="49.07402" lon="0.09693">
        <ele>39</ele>
        <time>2024-03-10T09:27:19Z</time>
      </trkpt>
      <trkpt lat="49.07399" lon="0.097">
        <ele>39.4</ele>
        <time>2024-03-10T09:27:20Z</time>
      </trkpt>
      <trkpt lat="49.07396" lon="0.09707">
        <ele>39.8</ele>
        <time>2024-03-10T09:27:21Z</time>
      </trkpt>
      <trkpt lat="49.07394" lon="0.09714">
        <ele>40.1</ele>
        <time>2024-03-10T09:27:22Z</time>
      </trkpt>
      <trkpt lat="49.07391" lon="0.0972">
        <ele>40.5</ele>
        <time>2024-03-10T09:27:23Z</time>
      </trkpt>
      <trkpt lat="49.07389" lon="0.09726">
        <ele>40.9</ele>
        <time>2024-03-10T09:27:24Z</time>
      </trkpt>
      <trkpt lat="49.07386" lon="0.09732">
        <ele>41.2</ele>
        <time>2024-03-10T09:27:25Z</time>
      </trkpt>
      <trkpt lat="49.07384" lon="0.09738">
        <ele>41.6</ele>
        <time>2024-03-10T09:27:26Z</time>
      </trkpt>
      <trkpt lat="49.07381" lon="0.09744">
        <ele>41.9</ele>
        <time>2024-03-10T09:27:27Z</time>
      </trkpt>
      <trkpt lat="49.07379" lon="0.09749">
        <ele>42.2</ele>
        <time>2024-03-10T09:27:28Z</time>
      </trkpt>
      <trkpt lat="49.07376" lon="0.09755">
        <ele>42.6</ele>
        <time>2024-03-10T09:27:29Z</time>
      </trkpt>
      <trkpt lat="49.07374" lon="0.0976">
        <ele>42.9</ele>
        <time>2024-03-10T09:27:30Z</time>
      </trkpt>
      <trkpt lat="49.07372" lon="0.09766">
        <ele>43.3</ele>
        <time>2024-03-10T09:27:31Z</time>
      </trkpt>
      <trkpt lat="49.07369" lon="0.09772">
        <ele>43.6</ele>
        <time>2024-03-10T09:27:32Z</time>
      </trkpt>
      <trkpt lat="49.07367" lon="0.09778">
        <ele>44</ele>
        <time>2024-03-10T09:27:33Z</time>
      </trkpt>
      <trkpt lat="49.07365" lon="0.09784">
        <ele>44.3</ele>
        <time>2024-03-10T09:27:34Z</time>
      </trkpt>
      <trkpt lat="49.07364" lon="0.09791">
        <ele>44.6</ele>
        <time>2024-03-10T09:27:35Z</time>
      </trkpt>
      <trkpt lat="49.07362" lon="0.09797">
        <ele>45</ele>
        <time>2024-03-10T09:27:36Z</time>
      </trkpt>
      <trkpt lat="49.07361" lon="0.09804">
        <ele>45.3</ele>
        <time>2024-03-10T09:27:37Z</time>
      </trkpt>
      <trkpt lat="49.0736" lon="0.0981">
        <ele>45.6</ele>
        <time>2024-03-10T09:27:38Z</time>
      </trkpt>
      <trkpt lat="49.07359" lon="0.09817">
        <ele>45.9</ele>
        <time>2024-03-10T09:27:39Z</time>
      </trkpt>
      <trkpt lat="49.07358" lon="0.09824">
        <ele>46.2</ele>
        <time>2024-03-10T09:27:40Z</time>
      </trkpt>
      <trkpt lat="49.07358" lon="0.09831">
        <ele>46.5</ele>
        <time>2024-03-10T09:27:41Z</time>
      </trkpt>
      <trkpt lat="49.07358" lon="0.09838">
        <ele>46.8</ele>
        <time>2024-03-10T09:27:42Z</time>
      </trkpt>
      <trkpt lat="49.07358" lon="0.09845">
        <ele>47</ele>
        <time>2024-03-10T09:27:43Z</time>
      </trkpt>
      <trkpt lat="49.07359" lon="0.09853">
        <ele>47.2</ele>
        <time>2024-03-10T09:27:44Z</time>
      </trkpt>
      <trkpt lat="49.0736" lon="0.0986">
        <ele>47.5</ele>
        <time>2024-03-10T09:27:45Z</time>
      </trkpt>
      <trkpt lat="49.07361" lon="0.09867">
        <ele>47.7</ele>
        <time>2024-03-10T09:27:46Z</time>
      </trkpt>
      <trkpt lat="49.07362" lon="0.09874">
        <ele>47.9</ele>
        <time>2024-03-10T09:27:47Z</time>
      </trkpt>
      <trkpt lat="49.07362" lon="0.0988">
        <ele>48.1</ele>
        <time>2024-03-10T09:27:48Z</time>
      </trkpt>
      <trkpt lat="49.07363" lon="0.09887">
        <ele>48.4</ele>
        <time>2024-03-10T09:27:49Z</time>
      </trkpt>
      <trkpt lat="49.07364" lon="0.09894">
        <ele>48.6</ele>
        <time>2024-03-10T09:27:50Z</time>
      </trkpt>
      <trkpt lat="49.07366" lon="0.09901">
        <ele>48.8</ele>
        <time>2024-03-10T09:27:51Z</time>
      </trkpt>
      <trkpt lat="49.07366" lon="0.09908">
        <ele>49.1</ele>
        <time>2024-03-10T09:27:52Z</time>
      </trkpt>
      <trkpt lat="49.07367" lon="0.09915">
        <ele>49.3</ele>
        <time>2024-03-10T09:27:53Z</time>
      </trkpt>
      <trkpt lat="49.07368" lon="0.09922">
        <ele>49.6</ele>
        <time>2024-03-10T09:27:54Z</time>
      </trkpt>
      <trkpt lat="49.0737" lon="0.0993">
        <ele>49.8</ele>
        <time>2024-03-10T09:27:55Z</time>
      </trkpt>
      <trkpt lat="49.07371" lon="0.09937">
        <ele>50.1</ele>
        <time>2024-03-10T09:27:56Z</time>
      </trkpt>
      <trkpt lat="49.07373" lon="0.09945">
        <ele>50.3</ele>
        <time>2024-03-10T09:27:57Z</time>
      </trkpt>
      <trkpt lat="49.07374" lon="0.09952">
        <ele>50.5</ele>
        <time>2024-03-10T09:27:58Z</time>
      </trkpt>
      <trkpt lat="49.07376" lon="0.09959">
        <ele>50.7</ele>
        <time>2024-03-10T09:27:59Z</time>
      </trkpt>
      <trkpt lat="49.07378" lon="0.09966">
        <ele>50.9</ele>
        <time>2024-03-10T09:28:00Z</time>
      </trkpt>
      <trkpt lat="49.0738" lon="0.09973">
        <ele>51</ele>
        <time>2024-03-10T09:28:01Z</time>
      </trkpt>
      <trkpt lat="49.07382" lon="0.0998">
        <ele>51.2</ele>
        <time>2024-03-10T09:28:02Z</time>
      </trkpt>
      <trkpt lat="49.07384" lon="0.09988">
        <ele>51.3</ele>
        <time>2024-03-10T09:28:03Z</time>
      </trkpt>
      <trkpt lat="49.07387" lon="0.09995">
        <ele>51.4</ele>
        <time>2024-03-10T09:28:04Z</time>
      </trkpt>
      <trkpt lat="49.07389" lon="0.10003">
        <ele>51.4</ele>
        <time>2024-03-10T09:28:05Z</time>
      </trkpt>
      <trkpt lat="49.07391" lon="0.1001">
        <ele>51.5</ele>
        <time>2024-03-10T09:28:06Z</time>
      </trkpt>
      <trkpt lat="49.07394" lon="0.10017">
        <ele>51.5</ele>
        <time>2024-03-10T09:28:07Z</time>
      </trkpt>
      <trkpt lat="49.07397" lon="0.10024">
        <ele>51.5</ele>
        <time>2024-03-10T09:28:08Z</time>
      </trkpt>
      <trkpt lat="49.07399" lon="0.10031">
        <ele>51.5</ele>
        <time>2024-03-10T09:28:09Z</time>
      </trkpt>
      <trkpt lat="49.07402" lon="0.10039">
        <ele>51.4</ele>
        <time>2024-03-10T09:28:10Z</time>
      </trkpt>
      <trkpt lat="49.07406" lon="0.10046">
        <ele>51.4</ele>
        <time>2024-03-10T09:28:11Z</time>
      </trkpt>
      <trkpt lat="49.0741" lon="0.10052">
        <ele>51.3</ele>
        <time>2024-03-10T09:28:12Z</time>
      </trkpt>
      <trkpt lat="49.07414" lon="0.10059">
        <ele>51.3</ele>
        <time>2024-03-10T09:28:13Z</time>
      </trkpt>
      <trkpt lat="49.07418" lon="0.10065">
        <ele>51.3</ele>
        <time>2024-03-10T09:28:14Z</time>
      </trkpt>
      <trkpt lat="49.07422" lon="0.10072">
        <ele>51.2</ele>
        <time>2024-03-10T09:28:15Z</time>
      </trkpt>
      <trkpt lat="49.07426" lon="0.10079">
        <ele>51.2</ele>
        <time>2024-03-10T09:28:16Z</time>
      </trkpt>
      <trkpt lat="49.0743" lon="0.10085">
        <ele>51.2</ele>
        <time>2024-03-10T09:28:17Z</time>
      </trkpt>
      <trkpt lat="49.07433" lon="0.10093">
        <ele>51.1</ele>
        <time>2024-03-10T09:28:18Z</time>
      </trkpt>
      <trkpt lat="49.07437" lon="0.101">
        <ele>51.1</ele>
        <time>2024-03-10T09:28:19Z</time>
      </trkpt>
      <trkpt lat="49.0744" lon="0.10109">
        <ele>51.1</ele>
        <time>2024-03-10T09:28:20Z</time>
      </trkpt>
      <trkpt lat="49.07443" lon="0.10117">
        <ele>51.2</ele>
        <time>2024-03-10T09:28:21Z</time>
      </trkpt>
      <trkpt lat="49.07447" lon="0.10125">
        <ele>51.2</ele>
        <time>2024-03-10T09:28:22Z</time>
      </trkpt>
      <trkpt lat="49.0745" lon="0.10134">
        <ele>51.3</ele>
        <time>2024-03-10T09:28:23Z</time>
      </trkpt>
      <trkpt lat="49.07453" lon="0.10143">
        <ele>51.5</ele>
        <time>2024-03-10T09:28:24Z</time>
      </trkpt>
      <trkpt lat="49.07457" lon="0.10152">
        <ele>51.6</ele>
        <time>2024-03-10T09:28:25Z</time>
      </trkpt>
      <trkpt lat="49.07461" lon="0.10161">
        <ele>51.8</ele>
        <time>2024-03-10T09:28:26Z</time>
      </trkpt>
      <trkpt lat="49.07464" lon="0.1017">
        <ele>52</ele>
        <time>2024-03-10T09:28:27Z</time>
      </trkpt>
      <trkpt lat="49.07467" lon="0.10178">
        <ele>52.2</ele>
        <time>2024-03-10T09:28:28Z</time>
      </trkpt>
      <trkpt lat="49.0747" lon="0.10187">
        <ele>52.3</ele>
        <time>2024-03-10T09:28:29Z</time>
      </trkpt>
      <trkpt lat="49.07474" lon="0.10194">
        <ele>52.5</ele>
        <time>2024-03-10T09:28:30Z</time>
      </trkpt>
      <trkpt lat="49.07477" lon="0.10202">
        <ele>52.7</ele>
        <time>2024-03-10T09:28:31Z</time>
      </trkpt>
      <trkpt lat="49.07481" lon="0.1021">
        <ele>52.9</ele>
        <time>2024-03-10T09:28:32Z</time>
      </trkpt>
      <trkpt lat="49.07484" lon="0.10217">
        <ele>53</ele>
        <time>2024-03-10T09:28:33Z</time>
      </trkpt>
      <trkpt lat="49.07487" lon="0.10225">
        <ele>53.2</ele>
        <time>2024-03-10T09:28:34Z</time>
      </trkpt>
      <trkpt lat="49.07491" lon="0.10232">
        <ele>53.4</ele>
        <time>2024-03-10T09:28:35Z</time>
      </trkpt>
      <trkpt lat="49.07494" lon="0.10239">
        <ele>53.6</ele>
        <time>2024-03-10T09:28:36Z</time>
      </trkpt>
      <trkpt lat="49.07497" lon="0.10246">
        <ele>53.9</ele>
        <time>2024-03-10T09:28:37Z</time>
      </trkpt>
      <trkpt lat="49.07501" lon="0.10253">
        <ele>54.1</ele>
        <time>2024-03-10T09:28:38Z</time>
      </trkpt>
      <trkpt lat="49.07504" lon="0.10261">
        <ele>54.4</ele>
        <time>2024-03-10T09:28:39Z</time>
      </trkpt>
      <trkpt lat="49.07507" lon="0.10268">
        <ele>54.6</ele>
        <time>2024-03-10T09:28:40Z</time>
      </trkpt>
      <trkpt lat="49.07509" lon="0.10274">
        <ele>54.9</ele>
        <time>2024-03-10T09:28:41Z</time>
      </trkpt>
      <trkpt lat="49.07512" lon="0.10281">
        <ele>55.2</ele>
        <time>2024-03-10T09:28:42Z</time>
      </trkpt>
      <trkpt lat="49.07514" lon="0.10288">
        <ele>55.4</ele>
        <time>2024-03-10T09:28:43Z</time>
      </trkpt>
      <trkpt lat="49.07516" lon="0.10294">
        <ele>55.7</ele>
        <time>2024-03-10T09:28:44Z</time>
      </trkpt>
      <trkpt lat="49.07517" lon="0.10302">
        <ele>56.1</ele>
        <time>2024-03-10T09:28:45Z</time>
      </trkpt>
      <trkpt lat="49.07519" lon="0.10308">
        <ele>56.4</ele>
        <time>2024-03-10T09:28:46Z</time>
      </trkpt>
      <trkpt lat="49.07521" lon="0.10315">
        <ele>56.7</ele>
        <time>2024-03-10T09:28:47Z</time>
      </trkpt>
      <trkpt lat="49.07523" lon="0.10322">
        <ele>57</ele>
        <time>2024-03-10T09:28:48Z</time>
      </trkpt>
      <trkpt lat="49.07524" lon="0.10328">
        <ele>57.4</ele>
        <time>2024-03-10T09:28:49Z</time>
      </trkpt>
      <trkpt lat="49.07526" lon="0.10335">
        <ele>57.7</ele>
        <time>2024-03-10T09:28:50Z</time>
      </trkpt>
      <trkpt lat="49.07527" lon="0.1034">
        <ele>58</ele>
        <time>2024-03-10T09:28:51Z</time>
      </trkpt>
      <trkpt lat="49.07528" lon="0.10346">
        <ele>58.4</ele>
        <time>2024-03-10T09:28:52Z</time>
      </trkpt>
      <trkpt lat="49.07529" lon="0.10351">
        <ele>58.6</ele>
        <time>2024-03-10T09:28:53Z</time>
      </trkpt>
      <trkpt lat="49.07531" lon="0.10357">
        <ele>59</ele>
        <time>2024-03-10T09:28:54Z</time>
      </trkpt>
      <trkpt lat="49.07532" lon="0.10362">
        <ele>59.2</ele>
        <time>2024-03-10T09:28:55Z</time>
      </trkpt>
      <trkpt lat="49.07533" lon="0.10366">
        <ele>59.5</ele>
        <time>2024-03-10T09:28:56Z</time>
      </trkpt>
      <trkpt lat="49.07534" lon="0.10371">
        <ele>59.8</ele>
        <time>2024-03-10T09:28:57Z</time>
      </trkpt>
      <trkpt lat="49.07535" lon="0.10376">
        <ele>60.1</ele>
        <time>2024-03-10T09:28:58Z</time>
      </trkpt>
      <trkpt lat="49.07536" lon="0.10381">
        <ele>60.4</ele>
        <time>2024-03-10T09:28:59Z</time>
      </trkpt>
      <trkpt lat="49.07537" lon="0.10388">
        <ele>60.8</ele>
        <time>2024-03-10T09:29:00Z</time>
      </trkpt>
      <trkpt lat="49.07538" lon="0.10393">
        <ele>61.1</ele>
        <time>2024-03-10T09:29:01Z</time>
      </trkpt>
      <trkpt lat="49.07539" lon="0.10397">
        <ele>61.3</ele>
        <time>2024-03-10T09:29:02Z</time>
      </trkpt>
      <trkpt lat="49.07539" lon="0.10402">
        <ele>61.6</ele>
        <time>2024-03-10T09:29:03Z</time>
      </trkpt>
      <trkpt lat="49.0754" lon="0.10407">
        <ele>61.9</ele>
        <time>2024-03-10T09:29:04Z</time>
      </trkpt>
      <trkpt lat="49.0754" lon="0.10412">
        <ele>62.1</ele>
        <time>2024-03-10T09:29:05Z</time>
      </trkpt>
      <trkpt lat="49.0754" lon="0.10417">
        <ele>62.4</ele>
        <time>2024-03-10T09:29:06Z</time>
      </trkpt>
      <trkpt lat="49.0754" lon="0.10422">
        <ele>62.6</ele>
        <time>2024-03-10T09:29:07Z</time>
      </trkpt>
      <trkpt lat="49.0754" lon="0.10426">
        <ele>62.8</ele>
        <time>2024-03-10T09:29:08Z</time>
      </trkpt>
      <trkpt lat="49.07539" lon="0.10432">
        <ele>63.1</ele>
        <time>2024-03-10T09:29:09Z</time>
      </trkpt>
      <trkpt lat="49.07539" lon="0.10438">
        <ele>63.4</ele>
        <time>2024-03-10T09:29:10Z</time>
      </trkpt>
      <trkpt lat="49.07538" lon="0.10444">
        <ele>63.7</ele>
        <time>2024-03-10T09:29:11Z</time>
      </trkpt>
      <trkpt lat="49.07537" lon="0.10449">
        <ele>63.9</ele>
        <time>2024-03-10T09:29:12Z</time>
      </trkpt>
      <trkpt lat="49.07536" lon="0.10454">
        <ele>64.2</ele>
        <time>2024-03-10T09:29:13Z</time>
      </trkpt>
      <trkpt lat="49.07535" lon="0.1046">
        <ele>64.5</ele>
        <time>2024-03-10T09:29:14Z</time>
      </trkpt>
      <trkpt lat="49.07534" lon="0.10467">
        <ele>64.8</ele>
        <time>2024-03-10T09:29:15Z</time>
      </trkpt>
      <trkpt lat="49.07533" lon="0.10474">
        <ele>65.1</ele>
        <time>2024-03-10T09:29:16Z</time>
      </trkpt>
      <trkpt lat="49.07531" lon="0.1048">
        <ele>65.4</ele>
        <time>2024-03-10T09:29:17Z</time>
      </trkpt>
      <trkpt lat="49.07529" lon="0.10487">
        <ele>65.7</ele>
        <time>2024-03-10T09:29:18Z</time>
      </trkpt>
      <trkpt lat="49.07527" lon="0.10494">
        <ele>65.9</ele>
        <time>2024-03-10T09:29:19Z</time>
      </trkpt>
      <trkpt lat="49.07526" lon="0.10502">
        <ele>66.2</ele>
        <time>2024-03-10T09:29:20Z</time>
      </trkpt>
      <trkpt lat="49.07525" lon="0.10508">
        <ele>66.5</ele>
        <time>2024-03-10T09:29:21Z</time>
      </trkpt>
      <trkpt lat="49.07524" lon="0.10515">
        <ele>66.7</ele>
        <time>2024-03-10T09:29:22Z</time>
      </trkpt>
      <trkpt lat="49.07522" lon="0.10521">
        <ele>67</ele>
        <time>2024-03-10T09:29:23Z</time>
      </trkpt>
      <trkpt lat="49.07521" lon="0.10527">
        <ele>67.2</ele>
        <time>2024-03-10T09:29:24Z</time>
      </trkpt>
      <trkpt lat="49.0752" lon="0.10533">
        <ele>67.4</ele>
        <time>2024-03-10T09:29:25Z</time>
      </trkpt>
      <trkpt lat="49.07519" lon="0.10539">
        <ele>67.6</ele>
        <time>2024-03-10T09:29:26Z</time>
      </trkpt>
      <trkpt lat="49.07518" lon="0.10545">
        <ele>67.8</ele>
        <time>2024-03-10T09:29:27Z</time>
      </trkpt>
      <trkpt lat="49.07517" lon="0.10552">
        <ele>68</ele>
        <time>2024-03-10T09:29:28Z</time>
      </trkpt>
      <trkpt lat="49.07516" lon="0.10558">
        <ele>68.2</ele>
        <time>2024-03-10T09:29:29Z</time>
      </trkpt>
      <trkpt lat="49.07515" lon="0.10564">
        <ele>68.5</ele>
        <time>2024-03-10T09:29:30Z</time>
      </trkpt>
      <trkpt lat="49.07514" lon="0.1057">
        <ele>68.7</ele>
        <time>2024-03-10T09:29:31Z</time>
      </trkpt>
      <trkpt lat="49.07513" lon="0.10576">
        <ele>68.9</ele>
        <time>2024-03-10T09:29:32Z</time>
      </trkpt>
      <trkpt lat="49.07512" lon="0.10581">
        <ele>69.1</ele>
        <time>2024-03-10T09:29:33Z</time>
      </trkpt>
      <trkpt lat="49.0751" lon="0.10587">
        <ele>69.3</ele>
        <time>2024-03-10T09:29:34Z</time>
      </trkpt>
      <trkpt lat="49.07509" lon="0.10592">
        <ele>69.5</ele>
        <time>2024-03-10T09:29:35Z</time>
      </trkpt>
      <trkpt lat="49.07507" lon="0.10597">
        <ele>69.7</ele>
        <time>2024-03-10T09:29:36Z</time>
      </trkpt>
      <trkpt lat="49.07505" lon="0.10601">
        <ele>69.9</ele>
        <time>2024-03-10T09:29:37Z</time>
      </trkpt>
      <trkpt lat="49.07504" lon="0.10606">
        <ele>70.2</ele>
        <time>2024-03-10T09:29:38Z</time>
      </trkpt>
      <trkpt lat="49.07502" lon="0.10611">
        <ele>70.4</ele>
        <time>2024-03-10T09:29:39Z</time>
      </trkpt>
      <trkpt lat="49.075" lon="0.10615">
        <ele>70.6</ele>
        <time>2024-03-10T09:29:40Z</time>
      </trkpt>
      <trkpt lat="49.07498" lon="0.10619">
        <ele>70.8</ele>
        <time>2024-03-10T09:29:41Z</time>
      </trkpt>
      <trkpt lat="49.07496" lon="0.10623">
        <ele>71</ele>
        <time>2024-03-10T09:29:42Z</time>
      </trkpt>
      <trkpt lat="49.07494" lon="0.10627">
        <ele>71.2</ele>
        <time>2024-03-10T09:29:43Z</time>
      </trkpt>
      <trkpt lat="49.07491" lon="0.10631">
        <ele>71.4</ele>
        <time>2024-03-10T09:29:44Z</time>
      </trkpt>
      <trkpt lat="49.07489" lon="0.10634">
        <ele>71.6</ele>
        <time>2024-03-10T09:29:45Z</time>
      </trkpt>
      <trkpt lat="49.07486" lon="0.10637">
        <ele>71.8</ele>
        <time>2024-03-10T09:29:46Z</time>
      </trkpt>
      <trkpt lat="49.07483" lon="0.10641">
        <ele>72</ele>
        <time>2024-03-10T09:29:47Z</time>
      </trkpt>
      <trkpt lat="49.07481" lon="0.10644">
        <ele>72.3</ele>
        <time>2024-03-10T09:29:48Z</time>
      </trkpt>
      <trkpt lat="49.07477" lon="0.10648">
        <ele>72.5</ele>
        <time>2024-03-10T09:29:49Z</time>
      </trkpt>
      <trkpt lat="49.07474" lon="0.10651">
        <ele>72.8</ele>
        <time>2024-03-10T09:29:50Z</time>
      </trkpt>
      <trkpt lat="49.07472" lon="0.10654">
        <ele>73</ele>
        <time>2024-03-10T09:29:51Z</time>
      </trkpt>
      <trkpt lat="49.07469" lon="0.10658">
        <ele>73.2</ele>
        <time>2024-03-10T09:29:52Z</time>
      </trkpt>
      <trkpt lat="49.07467" lon="0.10662">
        <ele>73.4</ele>
        <time>2024-03-10T09:29:53Z</time>
      </trkpt>
      <trkpt lat="49.07465" lon="0.10666">
        <ele>73.6</ele>
        <time>2024-03-10T09:29:54Z</time>
      </trkpt>
      <trkpt lat="49.07463" lon="0.10671">
        <ele>73.9</ele>
        <time>2024-03-10T09:29:55Z</time>
      </trkpt>
      <trkpt lat="49.07461" lon="0.10676">
        <ele>74.1</ele>
        <time>2024-03-10T09:29:56Z</time>
      </trkpt>
      <trkpt lat="49.0746" lon="0.1068">
        <ele>74.2</ele>
        <time>2024-03-10T09:29:57Z</time>
      </trkpt>
      <trkpt lat="49.07459" lon="0.10685">
        <ele>74.4</ele>
        <time>2024-03-10T09:29:58Z</time>
      </trkpt>
      <trkpt lat="49.07459" lon="0.1069">
        <ele>74.6</ele>
        <time>2024-03-10T09:29:59Z</time>
      </trkpt>
      <trkpt lat="49.07459" lon="0.10696">
        <ele>74.8</ele>
        <time>2024-03-10T09:30:00Z</time>
      </trkpt>
      <trkpt lat="49.07459" lon="0.10702">
        <ele>75</ele>
        <time>2024-03-10T09:30:01Z</time>
      </trkpt>
      <trkpt lat="49.0746" lon="0.10708">
        <ele>75.2</ele>
        <time>2024-03-10T09:30:02Z</time>
      </trkpt>
      <trkpt lat="49.0746" lon="0.10713">
        <ele>75.4</ele>
        <time>2024-03-10T09:30:03Z</time>
      </trkpt>
      <trkpt lat="49.0746" lon="0.10718">
        <ele>75.6</ele>
        <time>2024-03-10T09:30:04Z</time>
      </trkpt>
      <trkpt lat="49.07461" lon="0.10723">
        <ele>75.8</ele>
        <time>2024-03-10T09:30:05Z</time>
      </trkpt>
      <trkpt lat="49.07461" lon="0.10728">
        <ele>75.9</ele>
        <time>2024-03-10T09:30:06Z</time>
      </trkpt>
      <trkpt lat="49.07461" lon="0.10734">
        <ele>76.1</ele>
        <time>2024-03-10T09:30:07Z</time>
      </trkpt>
      <trkpt lat="49.07461" lon="0.10739">
        <ele>76.3</ele>
        <time>2024-03-10T09:30:08Z</time>
      </trkpt>
      <trkpt lat="49.07462" lon="0.10744">
        <ele>76.5</ele>
        <time>2024-03-10T09:30:09Z</time>
      </trkpt>
      <trkpt lat="49.07462" lon="0.1075">
        <ele>76.7</ele>
        <time>2024-03-10T09:30:10Z</time>
      </trkpt>
      <trkpt lat="49.07463" lon="0.10755">
        <ele>76.9</ele>
        <time>2024-03-10T09:30:11Z</time>
      </trkpt>
      <trkpt lat="49.07464" lon="0.1076">
        <ele>77.1</ele>
        <time>2024-03-10T09:30:12Z</time>
      </trkpt>
      <trkpt lat="49.07464" lon="0.10766">
        <ele>77.3</ele>
        <time>2024-03-10T09:30:13Z</time>
      </trkpt>
      <trkpt lat="49.07465" lon="0.10771">
        <ele>77.6</ele>
        <time>2024-03-10T09:30:14Z</time>
      </trkpt>
      <trkpt lat="49.07465" lon="0.10777">
        <ele>77.8</ele>
        <time>2024-03-10T09:30:15Z</time>
      </trkpt>
      <trkpt lat="49.07466" lon="0.10783">
        <ele>78</ele>
        <time>2024-03-10T09:30:16Z</time>
      </trkpt>
      <trkpt lat="49.07466" lon="0.10788">
        <ele>78.2</ele>
        <time>2024-03-10T09:30:17Z</time>
      </trkpt>
      <trkpt lat="49.07467" lon="0.10792">
        <ele>78.4</ele>
        <time>2024-03-10T09:30:18Z</time>
      </trkpt>
      <trkpt lat="49.07467" lon="0.10797">
        <ele>78.7</ele>
        <time>2024-03-10T09:30:19Z</time>
      </trkpt>
      <trkpt lat="49.07468" lon="0.10802">
        <ele>78.9</ele>
        <time>2024-03-10T09:30:20Z</time>
      </trkpt>
      <trkpt lat="49.07468" lon="0.10809">
        <ele>79.1</ele>
        <time>2024-03-10T09:30:21Z</time>
      </trkpt>
      <trkpt lat="49.07468" lon="0.10811">
        <ele>79.2</ele>
        <time>2024-03-10T09:30:22Z</time>
      </trkpt>
      <trkpt lat="49.07468" lon="0.10816">
        <ele>79.5</ele>
        <time>2024-03-10T09:30:23Z</time>
      </trkpt>
      <trkpt lat="49.07468" lon="0.10821">
        <ele>79.7</ele>
        <time>2024-03-10T09:30:24Z</time>
      </trkpt>
      <trkpt lat="49.07467" lon="0.10826">
        <ele>79.9</ele>
        <time>2024-03-10T09:30:25Z</time>
      </trkpt>
      <trkpt lat="49.07467" lon="0.10831">
        <ele>80.1</ele>
        <time>2024-03-10T09:30:26Z</time>
      </trkpt>
      <trkpt lat="49.07467" lon="0.10836">
        <ele>80.3</ele>
        <time>2024-03-10T09:30:27Z</time>
      </trkpt>
      <trkpt lat="49.07467" lon="0.10841">
        <ele>80.5</ele>
        <time>2024-03-10T09:30:28Z</time>
      </trkpt>
      <trkpt lat="49.07467" lon="0.10847">
        <ele>80.8</ele>
        <time>2024-03-10T09:30:29Z</time>
      </trkpt>
      <trkpt lat="49.07466" lon="0.10852">
        <ele>81</ele>
        <time>2024-03-10T09:30:30Z</time>
      </trkpt>
      <trkpt lat="49.07466" lon="0.10857">
        <ele>81.2</ele>
        <time>2024-03-10T09:30:31Z</time>
      </trkpt>
      <trkpt lat="49.07466" lon="0.10862">
        <ele>81.4</ele>
        <time>2024-03-10T09:30:32Z</time>
      </trkpt>
      <trkpt lat="49.07465" lon="0.10868">
        <ele>81.7</ele>
        <time>2024-03-10T09:30:33Z</time>
      </trkpt>
      <trkpt lat="49.07465" lon="0.10873">
        <ele>81.9</ele>
        <time>2024-03-10T09:30:34Z</time>
      </trkpt>
      <trkpt lat="49.07465" lon="0.10878">
        <ele>82.1</ele>
        <time>2024-03-10T09:30:35Z</time>
      </trkpt>
      <trkpt lat="49.07464" lon="0.10883">
        <ele>82.3</ele>
        <time>2024-03-10T09:30:36Z</time>
      </trkpt>
      <trkpt lat="49.07464" lon="0.10888">
        <ele>82.5</ele>
        <time>2024-03-10T09:30:37Z</time>
      </trkpt>
      <trkpt lat="49.07464" lon="0.10892">
        <ele>82.7</ele>
        <time>2024-03-10T09:30:38Z</time>
      </trkpt>
      <trkpt lat="49.07463" lon="0.10897">
        <ele>83</ele>
        <time>2024-03-10T09:30:39Z</time>
      </trkpt>
      <trkpt lat="49.07463" lon="0.10902">
        <ele>83.2</ele>
        <time>2024-03-10T09:30:40Z</time>
      </trkpt>
      <trkpt lat="49.07463" lon="0.10907">
        <ele>83.4</ele>
        <time>2024-03-10T09:30:41Z</time>
      </trkpt>
      <trkpt lat="49.07463" lon="0.10911">
        <ele>83.6</ele>
        <time>2024-03-10T09:30:42Z</time>
      </trkpt>
      <trkpt lat="49.07463" lon="0.10916">
        <ele>83.9</ele>
        <time>2024-03-10T09:30:43Z</time>
      </trkpt>
      <trkpt lat="49.07463" lon="0.10921">
        <ele>84.1</ele>
        <time>2024-03-10T09:30:44Z</time>
      </trkpt>
      <trkpt lat="49.07463" lon="0.10926">
        <ele>84.3</ele>
        <time>2024-03-10T09:30:45Z</time>
      </trkpt>
      <trkpt lat="49.07463" lon="0.1093">
        <ele>84.6</ele>
        <time>2024-03-10T09:30:46Z</time>
      </trkpt>
      <trkpt lat="49.07463" lon="0.10934">
        <ele>84.9</ele>
        <time>2024-03-10T09:30:47Z</time>
      </trkpt>
      <trkpt lat="49.07464" lon="0.1094">
        <ele>85.2</ele>
        <time>2024-03-10T09:30:48Z</time>
      </trkpt>
      <trkpt lat="49.07464" lon="0.10942">
        <ele>85.3</ele>
        <time>2024-03-10T09:30:49Z</time>
      </trkpt>
      <trkpt lat="49.07464" lon="0.10948">
        <ele>85.7</ele>
        <time>2024-03-10T09:30:50Z</time>
      </trkpt>
      <trkpt lat="49.07465" lon="0.10949">
        <ele>85.8</ele>
        <time>2024-03-10T09:30:51Z</time>
      </trkpt>
      <trkpt lat="49.07465" lon="0.10955">
        <ele>86.2</ele>
        <time>2024-03-10T09:30:52Z</time>
      </trkpt>
      <trkpt lat="49.07465" lon="0.10957">
        <ele>86.3</ele>
        <time>2024-03-10T09:30:53Z</time>
      </trkpt>
      <trkpt lat="49.07465" lon="0.10962">
        <ele>86.6</ele>
        <time>2024-03-10T09:30:54Z</time>
      </trkpt>
      <trkpt lat="49.07465" lon="0.10964">
        <ele>86.7</ele>
        <time>2024-03-10T09:30:55Z</time>
      </trkpt>
      <trkpt lat="49.07464" lon="0.1097">
        <ele>87.1</ele>
        <time>2024-03-10T09:30:56Z</time>
      </trkpt>
      <trkpt lat="49.07464" lon="0.10971">
        <ele>87.2</ele>
        <time>2024-03-10T09:30:57Z</time>
      </trkpt>
      <trkpt lat="49.07464" lon="0.10977">
        <ele>87.6</ele>
        <time>2024-03-10T09:30:58Z</time>
      </trkpt>
      <trkpt lat="49.07464" lon="0.10979">
        <ele>87.8</ele>
        <time>2024-03-10T09:30:59Z</time>
      </trkpt>
      <trkpt lat="49.07464" lon="0.10984">
        <ele>88.1</ele>
        <time>2024-03-10T09:31:00Z</time>
      </trkpt>
      <trkpt lat="49.07464" lon="0.10986">
        <ele>88.2</ele>
        <time>2024-03-10T09:31:01Z</time>
      </trkpt>
      <trkpt lat="49.07464" lon="0.10992">
        <ele>88.6</ele>
        <time>2024-03-10T09:31:02Z</time>
      </trkpt>
      <trkpt lat="49.07463" lon="0.10993">
        <ele>88.8</ele>
        <time>2024-03-10T09:31:03Z</time>
      </trkpt>
      <trkpt lat="49.07463" lon="0.10999">
        <ele>89.2</ele>
        <time>2024-03-10T09:31:04Z</time>
      </trkpt>
      <trkpt lat="49.07463" lon="0.11001">
        <ele>89.3</ele>
        <time>2024-03-10T09:31:05Z</time>
      </trkpt>
      <trkpt lat="49.07463" lon="0.11006">
        <ele>89.7</ele>
        <time>2024-03-10T09:31:06Z</time>
      </trkpt>
      <trkpt lat="49.07462" lon="0.11008">
        <ele>89.8</ele>
        <time>2024-03-10T09:31:07Z</time>
      </trkpt>
      <trkpt lat="49.07462" lon="0.11013">
        <ele>90.2</ele>
        <time>2024-03-10T09:31:08Z</time>
      </trkpt>
      <trkpt lat="49.07462" lon="0.11015">
        <ele>90.3</ele>
        <time>2024-03-10T09:31:09Z</time>
      </trkpt>
      <trkpt lat="49.07461" lon="0.1102">
        <ele>90.7</ele>
        <time>2024-03-10T09:31:10Z</time>
      </trkpt>
      <trkpt lat="49.07461" lon="0.11022">
        <ele>90.8</ele>
        <time>2024-03-10T09:31:11Z</time>
      </trkpt>
      <trkpt lat="49.07461" lon="0.11028">
        <ele>91.2</ele>
        <time>2024-03-10T09:31:12Z</time>
      </trkpt>
      <trkpt lat="49.07461" lon="0.11029">
        <ele>91.3</ele>
        <time>2024-03-10T09:31:13Z</time>
      </trkpt>
      <trkpt lat="49.0746" lon="0.11034">
        <ele>91.6</ele>
        <time>2024-03-10T09:31:14Z</time>
      </trkpt>
      <trkpt lat="49.0746" lon="0.11036">
        <ele>91.7</ele>
        <time>2024-03-10T09:31:15Z</time>
      </trkpt>
      <trkpt lat="49.07459" lon="0.1104">
        <ele>92.1</ele>
        <time>2024-03-10T09:31:16Z</time>
      </trkpt>
      <trkpt lat="49.07459" lon="0.11042">
        <ele>92.2</ele>
        <time>2024-03-10T09:31:17Z</time>
      </trkpt>
      <trkpt lat="49.07458" lon="0.11047">
        <ele>92.5</ele>
        <time>2024-03-10T09:31:18Z</time>
      </trkpt>
      <trkpt lat="49.07457" lon="0.11049">
        <ele>92.7</ele>
        <time>2024-03-10T09:31:19Z</time>
      </trkpt>
      <trkpt lat="49.07456" lon="0.11054">
        <ele>93</ele>
        <time>2024-03-10T09:31:20Z</time>
      </trkpt>
      <trkpt lat="49.07456" lon="0.11056">
        <ele>93.1</ele>
        <time>2024-03-10T09:31:21Z</time>
      </trkpt>
      <trkpt lat="49.07455" lon="0.11061">
        <ele>93.5</ele>
        <time>2024-03-10T09:31:22Z</time>
      </trkpt>
      <trkpt lat="49.07454" lon="0.11063">
        <ele>93.6</ele>
        <time>2024-03-10T09:31:23Z</time>
      </trkpt>
      <trkpt lat="49.07453" lon="0.11068">
        <ele>94</ele>
        <time>2024-03-10T09:31:24Z</time>
      </trkpt>
      <trkpt lat="49.07452" lon="0.11069">
        <ele>94.1</ele>
        <time>2024-03-10T09:31:25Z</time>
      </trkpt>
      <trkpt lat="49.0745" lon="0.11074">
        <ele>94.5</ele>
        <time>2024-03-10T09:31:26Z</time>
      </trkpt>
      <trkpt lat="49.07449" lon="0.11075">
        <ele>94.6</ele>
        <time>2024-03-10T09:31:27Z</time>
      </trkpt>
      <trkpt lat="49.07447" lon="0.1108">
        <ele>95</ele>
        <time>2024-03-10T09:31:28Z</time>
      </trkpt>
      <trkpt lat="49.07447" lon="0.11081">
        <ele>95.1</ele>
        <time>2024-03-10T09:31:29Z</time>
      </trkpt>
      <trkpt lat="49.07445" lon="0.11087">
        <ele>95.5</ele>
        <time>2024-03-10T09:31:30Z</time>
      </trkpt>
      <trkpt lat="49.07445" lon="0.11088">
        <ele>95.6</ele>
        <time>2024-03-10T09:31:31Z</time>
      </trkpt>
      <trkpt lat="49.07443" lon="0.11093">
        <ele>96</ele>
        <time>2024-03-10T09:31:32Z</time>
      </trkpt>
      <trkpt lat="49.07443" lon="0.11094">
        <ele>96.1</ele>
        <time>2024-03-10T09:31:33Z</time>
      </trkpt>
      <trkpt lat="49.07441" lon="0.11099">
        <ele>96.5</ele>
        <time>2024-03-10T09:31:34Z</time>
      </trkpt>
      <trkpt lat="49.0744" lon="0.11101">
        <ele>96.6</ele>
        <time>2024-03-10T09:31:35Z</time>
      </trkpt>
      <trkpt lat="49.07439" lon="0.11106">
        <ele>97</ele>
        <time>2024-03-10T09:31:36Z</time>
      </trkpt>
      <trkpt lat="49.07439" lon="0.11108">
        <ele>97.1</ele>
        <time>2024-03-10T09:31:37Z</time>
      </trkpt>
      <trkpt lat="49.07438" lon="0.11113">
        <ele>97.5</ele>
        <time>2024-03-10T09:31:38Z</time>
      </trkpt>
      <trkpt lat="49.07438" lon="0.11114">
        <ele>97.6</ele>
        <time>2024-03-10T09:31:39Z</time>
      </trkpt>
      <trkpt lat="49.07436" lon="0.1112">
        <ele>98</ele>
        <time>2024-03-10T09:31:40Z</time>
      </trkpt>
      <trkpt lat="49.07436" lon="0.11121">
        <ele>98.2</ele>
        <time>2024-03-10T09:31:41Z</time>
      </trkpt>
      <trkpt lat="49.07435" lon="0.11126">
        <ele>98.6</ele>
        <time>2024-03-10T09:31:42Z</time>
      </trkpt>
      <trkpt lat="49.07434" lon="0.11128">
        <ele>98.7</ele>
        <time>2024-03-10T09:31:43Z</time>
      </trkpt>
      <trkpt lat="49.07433" lon="0.11133">
        <ele>99.2</ele>
        <time>2024-03-10T09:31:44Z</time>
      </trkpt>
      <trkpt lat="49.07433" lon="0.11135">
        <ele>99.3</ele>
        <time>2024-03-10T09:31:45Z</time>
      </trkpt>
      <trkpt lat="49.07432" lon="0.1114">
        <ele>99.7</ele>
        <time>2024-03-10T09:31:46Z</time>
      </trkpt>
      <trkpt lat="49.07432" lon="0.11142">
        <ele>99.8</ele>
        <time>2024-03-10T09:31:47Z</time>
      </trkpt>
      <trkpt lat="49.07431" lon="0.11147">
        <ele>100.2</ele>
        <time>2024-03-10T09:31:48Z</time>
      </trkpt>
      <trkpt lat="49.0743" lon="0.11149">
        <ele>100.4</ele>
        <time>2024-03-10T09:31:49Z</time>
      </trkpt>
      <trkpt lat="49.07429" lon="0.11154">
        <ele>100.7</ele>
        <time>2024-03-10T09:31:50Z</time>
      </trkpt>
      <trkpt lat="49.07429" lon="0.11155">
        <ele>100.9</ele>
        <time>2024-03-10T09:31:51Z</time>
      </trkpt>
      <trkpt lat="49.07428" lon="0.1116">
        <ele>101.2</ele>
        <time>2024-03-10T09:31:52Z</time>
      </trkpt>
      <trkpt lat="49.07428" lon="0.11162">
        <ele>101.3</ele>
        <time>2024-03-10T09:31:53Z</time>
      </trkpt>
      <trkpt lat="49.07427" lon="0.11167">
        <ele>101.7</ele>
        <time>2024-03-10T09:31:54Z</time>
      </trkpt>
      <trkpt lat="49.07427" lon="0.11169">
        <ele>101.9</ele>
        <time>2024-03-10T09:31:55Z</time>
      </trkpt>
      <trkpt lat="49.07426" lon="0.11174">
        <ele>102.2</ele>
        <time>2024-03-10T09:31:56Z</time>
      </trkpt>
      <trkpt lat="49.07425" lon="0.11176">
        <ele>102.4</ele>
        <time>2024-03-10T09:31:57Z</time>
      </trkpt>
      <trkpt lat="49.07425" lon="0.11181">
        <ele>102.8</ele>
        <time>2024-03-10T09:31:58Z</time>
      </trkpt>
      <trkpt lat="49.07424" lon="0.11183">
        <ele>102.9</ele>
        <time>2024-03-10T09:31:59Z</time>
      </trkpt>
      <trkpt lat="49.07423" lon="0.11188">
        <ele>103.3</ele>
        <time>2024-03-10T09:32:00Z</time>
      </trkpt>
      <trkpt lat="49.07423" lon="0.11189">
        <ele>103.4</ele>
        <time>2024-03-10T09:32:01Z</time>
      </trkpt>
      <trkpt lat="49.07422" lon="0.11194">
        <ele>103.8</ele>
        <time>2024-03-10T09:32:02Z</time>
      </trkpt>
      <trkpt lat="49.07421" lon="0.11196">
        <ele>103.9</ele>
        <time>2024-03-10T09:32:03Z</time>
      </trkpt>
      <trkpt lat="49.0742" lon="0.112">
        <ele>104.3</ele>
        <time>2024-03-10T09:32:04Z</time>
      </trkpt>
      <trkpt lat="49.07419" lon="0.11202">
        <ele>104.4</ele>
        <time>2024-03-10T09:32:05Z</time>
      </trkpt>
      <trkpt lat="49.07418" lon="0.11207">
        <ele>104.8</ele>
        <time>2024-03-10T09:32:06Z</time>
      </trkpt>
      <trkpt lat="49.07418" lon="0.11209">
        <ele>104.9</ele>
        <time>2024-03-10T09:32:07Z</time>
      </trkpt>
      <trkpt lat="49.07416" lon="0.11213">
        <ele>105.3</ele>
        <time>2024-03-10T09:32:08Z</time>
      </trkpt>
      <trkpt lat="49.07416" lon="0.11214">
        <ele>105.4</ele>
        <time>2024-03-10T09:32:09Z</time>
      </trkpt>
      <trkpt lat="49.07414" lon="0.11219">
        <ele>105.7</ele>
        <time>2024-03-10T09:32:10Z</time>
      </trkpt>
      <trkpt lat="49.07414" lon="0.1122">
        <ele>105.8</ele>
        <time>2024-03-10T09:32:11Z</time>
      </trkpt>
      <trkpt lat="49.07412" lon="0.11225">
        <ele>106.2</ele>
        <time>2024-03-10T09:32:12Z</time>
      </trkpt>
      <trkpt lat="49.07412" lon="0.11226">
        <ele>106.3</ele>
        <time>2024-03-10T09:32:13Z</time>
      </trkpt>
      <trkpt lat="49.0741" lon="0.1123">
        <ele>106.6</ele>
        <time>2024-03-10T09:32:14Z</time>
      </trkpt>
      <trkpt lat="49.0741" lon="0.11232">
        <ele>106.7</ele>
        <time>2024-03-10T09:32:15Z</time>
      </trkpt>
      <trkpt lat="49.07408" lon="0.11236">
        <ele>107.1</ele>
        <time>2024-03-10T09:32:16Z</time>
      </trkpt>
      <trkpt lat="49.07407" lon="0.11238">
        <ele>107.2</ele>
        <time>2024-03-10T09:32:17Z</time>
      </trkpt>
      <trkpt lat="49.07406" lon="0.11242">
        <ele>107.5</ele>
        <time>2024-03-10T09:32:18Z</time>
      </trkpt>
      <trkpt lat="49.07405" lon="0.11244">
        <ele>107.6</ele>
        <time>2024-03-10T09:32:19Z</time>
      </trkpt>
      <trkpt lat="49.07403" lon="0.11248">
        <ele>108</ele>
        <time>2024-03-10T09:32:20Z</time>
      </trkpt>
      <trkpt lat="49.07403" lon="0.1125">
        <ele>108.1</ele>
        <time>2024-03-10T09:32:21Z</time>
      </trkpt>
      <trkpt lat="49.07401" lon="0.11254">
        <ele>108.5</ele>
        <time>2024-03-10T09:32:22Z</time>
      </trkpt>
      <trkpt lat="49.074" lon="0.11256">
        <ele>108.6</ele>
        <time>2024-03-10T09:32:23Z</time>
      </trkpt>
      <trkpt lat="49.07399" lon="0.1126">
        <ele>108.9</ele>
        <time>2024-03-10T09:32:24Z</time>
      </trkpt>
      <trkpt lat="49.07398" lon="0.11262">
        <ele>109.1</ele>
        <time>2024-03-10T09:32:25Z</time>
      </trkpt>
      <trkpt lat="49.07396" lon="0.11266">
        <ele>109.4</ele>
        <time>2024-03-10T09:32:26Z</time>
      </trkpt>
      <trkpt lat="49.07396" lon="0.11268">
        <ele>109.6</ele>
        <time>2024-03-10T09:32:27Z</time>
      </trkpt>
      <trkpt lat="49.07394" lon="0.11272">
        <ele>109.9</ele>
        <time>2024-03-10T09:32:28Z</time>
      </trkpt>
      <trkpt lat="49.07394" lon="0.11274">
        <ele>110</ele>
        <time>2024-03-10T09:32:29Z</time>
      </trkpt>
      <trkpt lat="49.07392" lon="0.11278">
        <ele>110.4</ele>
        <time>2024-03-10T09:32:30Z</time>
      </trkpt>
      <trkpt lat="49.07391" lon="0.11279">
        <ele>110.5</ele>
        <time>2024-03-10T09:32:31Z</time>
      </trkpt>
      <trkpt lat="49.07389" lon="0.11283">
        <ele>110.9</ele>
        <time>2024-03-10T09:32:32Z</time>
      </trkpt>
      <trkpt lat="49.07389" lon="0.11285">
        <ele>111</ele>
        <time>2024-03-10T09:32:33Z</time>
      </trkpt>
      <trkpt lat="49.07387" lon="0.11289">
        <ele>111.3</ele>
        <time>2024-03-10T09:32:34Z</time>
      </trkpt>
      <trkpt lat="49.07386" lon="0.1129">
        <ele>111.5</ele>
        <time>2024-03-10T09:32:35Z</time>
      </trkpt>
      <trkpt lat="49.07385" lon="0.11295">
        <ele>111.8</ele>
        <time>2024-03-10T09:32:36Z</time>
      </trkpt>
      <trkpt lat="49.07384" lon="0.11296">
        <ele>112</ele>
        <time>2024-03-10T09:32:37Z</time>
      </trkpt>
      <trkpt lat="49.07383" lon="0.113">
        <ele>112.3</ele>
        <time>2024-03-10T09:32:38Z</time>
      </trkpt>
      <trkpt lat="49.07382" lon="0.11302">
        <ele>112.4</ele>
        <time>2024-03-10T09:32:39Z</time>
      </trkpt>
      <trkpt lat="49.0738" lon="0.11306">
        <ele>112.8</ele>
        <time>2024-03-10T09:32:40Z</time>
      </trkpt>
      <trkpt lat="49.0738" lon="0.11307">
        <ele>112.9</ele>
        <time>2024-03-10T09:32:41Z</time>
      </trkpt>
      <trkpt lat="49.07378" lon="0.11311">
        <ele>113.3</ele>
        <time>2024-03-10T09:32:42Z</time>
      </trkpt>
      <trkpt lat="49.07378" lon="0.11312">
        <ele>113.4</ele>
        <time>2024-03-10T09:32:43Z</time>
      </trkpt>
      <trkpt lat="49.07377" lon="0.11317">
        <ele>113.8</ele>
        <time>2024-03-10T09:32:44Z</time>
      </trkpt>
      <trkpt lat="49.07376" lon="0.11318">
        <ele>113.9</ele>
        <time>2024-03-10T09:32:45Z</time>
      </trkpt>
      <trkpt lat="49.07376" lon="0.11323">
        <ele>114.2</ele>
        <time>2024-03-10T09:32:46Z</time>
      </trkpt>
      <trkpt lat="49.07375" lon="0.11324">
        <ele>114.3</ele>
        <time>2024-03-10T09:32:47Z</time>
      </trkpt>
      <trkpt lat="49.07375" lon="0.11328">
        <ele>114.6</ele>
        <time>2024-03-10T09:32:48Z</time>
      </trkpt>
      <trkpt lat="49.07374" lon="0.11329">
        <ele>114.7</ele>
        <time>2024-03-10T09:32:49Z</time>
      </trkpt>
      <trkpt lat="49.07374" lon="0.11333">
        <ele>115</ele>
        <time>2024-03-10T09:32:50Z</time>
      </trkpt>
      <trkpt lat="49.07373" lon="0.11335">
        <ele>115.1</ele>
        <time>2024-03-10T09:32:51Z</time>
      </trkpt>
      <trkpt lat="49.07373" lon="0.11339">
        <ele>115.4</ele>
        <time>2024-03-10T09:32:52Z</time>
      </trkpt>
      <trkpt lat="49.07373" lon="0.11341">
        <ele>115.5</ele>
        <time>2024-03-10T09:32:53Z</time>
      </trkpt>
      <trkpt lat="49.07373" lon="0.11346">
        <ele>115.8</ele>
        <time>2024-03-10T09:32:54Z</time>
      </trkpt>
      <trkpt lat="49.07373" lon="0.11348">
        <ele>115.9</ele>
        <time>2024-03-10T09:32:55Z</time>
      </trkpt>
      <trkpt lat="49.07373" lon="0.11352">
        <ele>116.1</ele>
        <time>2024-03-10T09:32:56Z</time>
      </trkpt>
      <trkpt lat="49.07373" lon="0.11354">
        <ele>116.2</ele>
        <time>2024-03-10T09:32:57Z</time>
      </trkpt>
      <trkpt lat="49.07373" lon="0.11359">
        <ele>116.5</ele>
        <time>2024-03-10T09:32:58Z</time>
      </trkpt>
      <trkpt lat="49.07373" lon="0.1136">
        <ele>116.6</ele>
        <time>2024-03-10T09:32:59Z</time>
      </trkpt>
      <trkpt lat="49.07373" lon="0.11366">
        <ele>116.9</ele>
        <time>2024-03-10T09:33:00Z</time>
      </trkpt>
      <trkpt lat="49.07373" lon="0.11367">
        <ele>117</ele>
        <time>2024-03-10T09:33:01Z</time>
      </trkpt>
      <trkpt lat="49.07373" lon="0.11372">
        <ele>117.3</ele>
        <time>2024-03-10T09:33:02Z</time>
      </trkpt>
      <trkpt lat="49.07373" lon="0.11374">
        <ele>117.4</ele>
        <time>2024-03-10T09:33:03Z</time>
      </trkpt>
      <trkpt lat="49.07373" lon="0.11379">
        <ele>117.7</ele>
        <time>2024-03-10T09:33:04Z</time>
      </trkpt>
      <trkpt lat="49.07374" lon="0.1138">
        <ele>117.8</ele>
        <time>2024-03-10T09:33:05Z</time>
      </trkpt>
      <trkpt lat="49.07373" lon="0.11385">
        <ele>118.1</ele>
        <time>2024-03-10T09:33:06Z</time>
      </trkpt>
      <trkpt lat="49.07373" lon="0.11387">
        <ele>118.2</ele>
        <time>2024-03-10T09:33:07Z</time>
      </trkpt>
      <trkpt lat="49.07373" lon="0.11392">
        <ele>118.4</ele>
        <time>2024-03-10T09:33:08Z</time>
      </trkpt>
      <trkpt lat="49.07373" lon="0.11393">
        <ele>118.5</ele>
        <time>2024-03-10T09:33:09Z</time>
      </trkpt>
      <trkpt lat="49.07373" lon="0.11398">
        <ele>118.8</ele>
        <time>2024-03-10T09:33:10Z</time>
      </trkpt>
      <trkpt lat="49.07373" lon="0.11399">
        <ele>118.9</ele>
        <time>2024-03-10T09:33:11Z</time>
      </trkpt>
      <trkpt lat="49.07373" lon="0.11403">
        <ele>119.2</ele>
        <time>2024-03-10T09:33:12Z</time>
      </trkpt>
      <trkpt lat="49.07373" lon="0.11405">
        <ele>119.2</ele>
        <time>2024-03-10T09:33:13Z</time>
      </trkpt>
      <trkpt lat="49.07373" lon="0.1141">
        <ele>119.6</ele>
        <time>2024-03-10T09:33:14Z</time>
      </trkpt>
      <trkpt lat="49.07373" lon="0.11412">
        <ele>119.7</ele>
        <time>2024-03-10T09:33:15Z</time>
      </trkpt>
      <trkpt lat="49.07373" lon="0.11417">
        <ele>120</ele>
        <time>2024-03-10T09:33:16Z</time>
      </trkpt>
      <trkpt lat="49.07373" lon="0.11418">
        <ele>120.1</ele>
        <time>2024-03-10T09:33:17Z</time>
      </trkpt>
      <trkpt lat="49.07372" lon="0.11423">
        <ele>120.3</ele>
        <time>2024-03-10T09:33:18Z</time>
      </trkpt>
      <trkpt lat="49.07372" lon="0.11424">
        <ele>120.4</ele>
        <time>2024-03-10T09:33:19Z</time>
      </trkpt>
      <trkpt lat="49.07372" lon="0.11429">
        <ele>120.7</ele>
        <time>2024-03-10T09:33:20Z</time>
      </trkpt>
      <trkpt lat="49.07372" lon="0.11431">
        <ele>120.9</ele>
        <time>2024-03-10T09:33:21Z</time>
      </trkpt>
      <trkpt lat="49.07371" lon="0.11437">
        <ele>121.2</ele>
        <time>2024-03-10T09:33:22Z</time>
      </trkpt>
      <trkpt lat="49.07371" lon="0.11438">
        <ele>121.3</ele>
        <time>2024-03-10T09:33:23Z</time>
      </trkpt>
      <trkpt lat="49.07371" lon="0.11443">
        <ele>121.6</ele>
        <time>2024-03-10T09:33:24Z</time>
      </trkpt>
      <trkpt lat="49.07371" lon="0.11444">
        <ele>121.7</ele>
        <time>2024-03-10T09:33:25Z</time>
      </trkpt>
      <trkpt lat="49.07372" lon="0.11449">
        <ele>121.9</ele>
        <time>2024-03-10T09:33:26Z</time>
      </trkpt>
      <trkpt lat="49.07372" lon="0.1145">
        <ele>122</ele>
        <time>2024-03-10T09:33:27Z</time>
      </trkpt>
      <trkpt lat="49.07372" lon="0.11455">
        <ele>122.3</ele>
        <time>2024-03-10T09:33:28Z</time>
      </trkpt>
      <trkpt lat="49.07372" lon="0.11457">
        <ele>122.4</ele>
        <time>2024-03-10T09:33:29Z</time>
      </trkpt>
      <trkpt lat="49.07371" lon="0.11461">
        <ele>122.7</ele>
        <time>2024-03-10T09:33:30Z</time>
      </trkpt>
      <trkpt lat="49.07371" lon="0.11463">
        <ele>122.8</ele>
        <time>2024-03-10T09:33:31Z</time>
      </trkpt>
      <trkpt lat="49.0737" lon="0.11468">
        <ele>123.1</ele>
        <time>2024-03-10T09:33:32Z</time>
      </trkpt>
      <trkpt lat="49.07371" lon="0.11469">
        <ele>123.2</ele>
        <time>2024-03-10T09:33:33Z</time>
      </trkpt>
      <trkpt lat="49.07371" lon="0.11474">
        <ele>123.6</ele>
        <time>2024-03-10T09:33:34Z</time>
      </trkpt>
      <trkpt lat="49.07371" lon="0.11475">
        <ele>123.7</ele>
        <time>2024-03-10T09:33:35Z</time>
      </trkpt>
      <trkpt lat="49.07371" lon="0.1148">
        <ele>124</ele>
        <time>2024-03-10T09:33:36Z</time>
      </trkpt>
      <trkpt lat="49.07371" lon="0.11481">
        <ele>124.1</ele>
        <time>2024-03-10T09:33:37Z</time>
      </trkpt>
      <trkpt lat="49.07371" lon="0.11486">
        <ele>124.4</ele>
        <time>2024-03-10T09:33:38Z</time>
      </trkpt>
      <trkpt lat="49.07371" lon="0.11487">
        <ele>124.5</ele>
        <time>2024-03-10T09:33:39Z</time>
      </trkpt>
      <trkpt lat="49.07371" lon="0.11492">
        <ele>124.8</ele>
        <time>2024-03-10T09:33:40Z</time>
      </trkpt>
      <trkpt lat="49.07371" lon="0.11493">
        <ele>124.9</ele>
        <time>2024-03-10T09:33:41Z</time>
      </trkpt>
      <trkpt lat="49.07372" lon="0.11498">
        <ele>125.3</ele>
        <time>2024-03-10T09:33:42Z</time>
      </trkpt>
      <trkpt lat="49.07372" lon="0.11499">
        <ele>125.4</ele>
        <time>2024-03-10T09:33:43Z</time>
      </trkpt>
      <trkpt lat="49.07371" lon="0.11504">
        <ele>125.7</ele>
        <time>2024-03-10T09:33:44Z</time>
      </trkpt>
      <trkpt lat="49.07371" lon="0.11505">
        <ele>125.8</ele>
        <time>2024-03-10T09:33:45Z</time>
      </trkpt>
      <trkpt lat="49.07371" lon="0.1151">
        <ele>126.2</ele>
        <time>2024-03-10T09:33:46Z</time>
      </trkpt>
      <trkpt lat="49.07371" lon="0.11511">
        <ele>126.3</ele>
        <time>2024-03-10T09:33:47Z</time>
      </trkpt>
      <trkpt lat="49.07372" lon="0.11516">
        <ele>126.6</ele>
        <time>2024-03-10T09:33:48Z</time>
      </trkpt>
      <trkpt lat="49.07372" lon="0.11517">
        <ele>126.6</ele>
        <time>2024-03-10T09:33:49Z</time>
      </trkpt>
      <trkpt lat="49.07372" lon="0.11522">
        <ele>127</ele>
        <time>2024-03-10T09:33:50Z</time>
      </trkpt>
      <trkpt lat="49.07372" lon="0.11523">
        <ele>127.1</ele>
        <time>2024-03-10T09:33:51Z</time>
      </trkpt>
      <trkpt lat="49.07371" lon="0.11528">
        <ele>127.4</ele>
        <time>2024-03-10T09:33:52Z</time>
      </trkpt>
      <trkpt lat="49.07371" lon="0.1153">
        <ele>127.5</ele>
        <time>2024-03-10T09:33:53Z</time>
      </trkpt>
      <trkpt lat="49.07372" lon="0.11535">
        <ele>127.8</ele>
        <time>2024-03-10T09:33:54Z</time>
      </trkpt>
      <trkpt lat="49.07372" lon="0.11537">
        <ele>127.9</ele>
        <time>2024-03-10T09:33:55Z</time>
      </trkpt>
      <trkpt lat="49.07372" lon="0.11542">
        <ele>128.3</ele>
        <time>2024-03-10T09:33:56Z</time>
      </trkpt>
      <trkpt lat="49.07372" lon="0.11543">
        <ele>128.4</ele>
        <time>2024-03-10T09:33:57Z</time>
      </trkpt>
      <trkpt lat="49.07371" lon="0.11548">
        <ele>128.7</ele>
        <time>2024-03-10T09:33:58Z</time>
      </trkpt>
      <trkpt lat="49.07371" lon="0.1155">
        <ele>128.8</ele>
        <time>2024-03-10T09:33:59Z</time>
      </trkpt>
      <trkpt lat="49.07371" lon="0.11555">
        <ele>129.2</ele>
        <time>2024-03-10T09:34:00Z</time>
      </trkpt>
      <trkpt lat="49.07371" lon="0.11557">
        <ele>129.3</ele>
        <time>2024-03-10T09:34:01Z</time>
      </trkpt>
      <trkpt lat="49.07371" lon="0.11563">
        <ele>129.7</ele>
        <time>2024-03-10T09:34:02Z</time>
      </trkpt>
      <trkpt lat="49.07371" lon="0.11565">
        <ele>129.8</ele>
        <time>2024-03-10T09:34:03Z</time>
      </trkpt>
      <trkpt lat="49.0737" lon="0.1157">
        <ele>130.2</ele>
        <time>2024-03-10T09:34:04Z</time>
      </trkpt>
      <trkpt lat="49.0737" lon="0.11572">
        <ele>130.3</ele>
        <time>2024-03-10T09:34:05Z</time>
      </trkpt>
      <trkpt lat="49.0737" lon="0.11577">
        <ele>130.7</ele>
        <time>2024-03-10T09:34:06Z</time>
      </trkpt>
      <trkpt lat="49.0737" lon="0.11578">
        <ele>130.8</ele>
        <time>2024-03-10T09:34:07Z</time>
      </trkpt>
      <trkpt lat="49.0737" lon="0.11583">
        <ele>131.1</ele>
        <time>2024-03-10T09:34:08Z</time>
      </trkpt>
      <trkpt lat="49.0737" lon="0.11585">
        <ele>131.2</ele>
        <time>2024-03-10T09:34:09Z</time>
      </trkpt>
      <trkpt lat="49.0737" lon="0.11589">
        <ele>131.5</ele>
        <time>2024-03-10T09:34:10Z</time>
      </trkpt>
      <trkpt lat="49.0737" lon="0.11591">
        <ele>131.7</ele>
        <time>2024-03-10T09:34:11Z</time>
      </trkpt>
      <trkpt lat="49.0737" lon="0.11596">
        <ele>132</ele>
        <time>2024-03-10T09:34:12Z</time>
      </trkpt>
      <trkpt lat="49.0737" lon="0.11598">
        <ele>132.1</ele>
        <time>2024-03-10T09:34:13Z</time>
      </trkpt>
      <trkpt lat="49.07371" lon="0.11603">
        <ele>132.5</ele>
        <time>2024-03-10T09:34:14Z</time>
      </trkpt>
      <trkpt lat="49.07371" lon="0.11605">
        <ele>132.6</ele>
        <time>2024-03-10T09:34:15Z</time>
      </trkpt>
      <trkpt lat="49.07371" lon="0.1161">
        <ele>133</ele>
        <time>2024-03-10T09:34:16Z</time>
      </trkpt>
      <trkpt lat="49.07371" lon="0.11611">
        <ele>133.1</ele>
        <time>2024-03-10T09:34:17Z</time>
      </trkpt>
      <trkpt lat="49.07371" lon="0.11616">
        <ele>133.4</ele>
        <time>2024-03-10T09:34:18Z</time>
      </trkpt>
      <trkpt lat="49.07371" lon="0.11618">
        <ele>133.5</ele>
        <time>2024-03-10T09:34:19Z</time>
      </trkpt>
      <trkpt lat="49.07371" lon="0.11623">
        <ele>133.8</ele>
        <time>2024-03-10T09:34:20Z</time>
      </trkpt>
      <trkpt lat="49.07372" lon="0.11624">
        <ele>134</ele>
        <time>2024-03-10T09:34:21Z</time>
      </trkpt>
      <trkpt lat="49.07372" lon="0.11629">
        <ele>134.3</ele>
        <time>2024-03-10T09:34:22Z</time>
      </trkpt>
      <trkpt lat="49.07372" lon="0.1163">
        <ele>134.4</ele>
        <time>2024-03-10T09:34:23Z</time>
      </trkpt>
      <trkpt lat="49.07372" lon="0.11635">
        <ele>134.7</ele>
        <time>2024-03-10T09:34:24Z</time>
      </trkpt>
      <trkpt lat="49.07371" lon="0.11637">
        <ele>134.8</ele>
        <time>2024-03-10T09:34:25Z</time>
      </trkpt>
      <trkpt lat="49.07371" lon="0.11642">
        <ele>135.1</ele>
        <time>2024-03-10T09:34:26Z</time>
      </trkpt>
      <trkpt lat="49.07371" lon="0.11644">
        <ele>135.1</ele>
        <time>2024-03-10T09:34:27Z</time>
      </trkpt>
      <trkpt lat="49.07371" lon="0.11649">
        <ele>135.4</ele>
        <time>2024-03-10T09:34:28Z</time>
      </trkpt>
      <trkpt lat="49.07371" lon="0.1165">
        <ele>135.5</ele>
        <time>2024-03-10T09:34:29Z</time>
      </trkpt>
      <trkpt lat="49.07371" lon="0.11655">
        <ele>135.8</ele>
        <time>2024-03-10T09:34:30Z</time>
      </trkpt>
      <trkpt lat="49.07371" lon="0.11657">
        <ele>135.9</ele>
        <time>2024-03-10T09:34:31Z</time>
      </trkpt>
      <trkpt lat="49.07371" lon="0.11661">
        <ele>136.3</ele>
        <time>2024-03-10T09:34:32Z</time>
      </trkpt>
      <trkpt lat="49.07371" lon="0.11663">
        <ele>136.4</ele>
        <time>2024-03-10T09:34:33Z</time>
      </trkpt>
      <trkpt lat="49.0737" lon="0.11668">
        <ele>136.8</ele>
        <time>2024-03-10T09:34:34Z</time>
      </trkpt>
      <trkpt lat="49.0737" lon="0.1167">
        <ele>136.9</ele>
        <time>2024-03-10T09:34:35Z</time>
      </trkpt>
      <trkpt lat="49.0737" lon="0.11675">
        <ele>137.4</ele>
        <time>2024-03-10T09:34:36Z</time>
      </trkpt>
      <trkpt lat="49.07369" lon="0.11677">
        <ele>137.5</ele>
        <time>2024-03-10T09:34:37Z</time>
      </trkpt>
      <trkpt lat="49.07369" lon="0.11681">
        <ele>137.9</ele>
        <time>2024-03-10T09:34:38Z</time>
      </trkpt>
      <trkpt lat="49.07369" lon="0.11683">
        <ele>138</ele>
        <time>2024-03-10T09:34:39Z</time>
      </trkpt>
      <trkpt lat="49.07369" lon="0.11687">
        <ele>138.3</ele>
        <time>2024-03-10T09:34:40Z</time>
      </trkpt>
      <trkpt lat="49.07369" lon="0.11689">
        <ele>138.5</ele>
        <time>2024-03-10T09:34:41Z</time>
      </trkpt>
      <trkpt lat="49.07369" lon="0.11691">
        <ele>138.7</ele>
        <time>2024-03-10T09:34:42Z</time>
      </trkpt>
      <trkpt lat="49.07368" lon="0.11694">
        <ele>138.9</ele>
        <time>2024-03-10T09:34:43Z</time>
      </trkpt>
      <trkpt lat="49.07368" lon="0.11698">
        <ele>139.3</ele>
        <time>2024-03-10T09:34:44Z</time>
      </trkpt>
      <trkpt lat="49.07368" lon="0.117">
        <ele>139.4</ele>
        <time>2024-03-10T09:34:45Z</time>
      </trkpt>
      <trkpt lat="49.07367" lon="0.11705">
        <ele>139.7</ele>
        <time>2024-03-10T09:34:46Z</time>
      </trkpt>
      <trkpt lat="49.07367" lon="0.11706">
        <ele>139.9</ele>
        <time>2024-03-10T09:34:47Z</time>
      </trkpt>
      <trkpt lat="49.07368" lon="0.11711">
        <ele>140.2</ele>
        <time>2024-03-10T09:34:48Z</time>
      </trkpt>
      <trkpt lat="49.07367" lon="0.11712">
        <ele>140.3</ele>
        <time>2024-03-10T09:34:49Z</time>
      </trkpt>
      <trkpt lat="49.07367" lon="0.11718">
        <ele>140.7</ele>
        <time>2024-03-10T09:34:50Z</time>
      </trkpt>
      <trkpt lat="49.07367" lon="0.11719">
        <ele>140.8</ele>
        <time>2024-03-10T09:34:51Z</time>
      </trkpt>
      <trkpt lat="49.07367" lon="0.11724">
        <ele>141.2</ele>
        <time>2024-03-10T09:34:52Z</time>
      </trkpt>
      <trkpt lat="49.07367" lon="0.11725">
        <ele>141.2</ele>
        <time>2024-03-10T09:34:53Z</time>
      </trkpt>
      <trkpt lat="49.07367" lon="0.11727">
        <ele>141.4</ele>
        <time>2024-03-10T09:34:54Z</time>
      </trkpt>
      <trkpt lat="49.07367" lon="0.1173">
        <ele>141.6</ele>
        <time>2024-03-10T09:34:55Z</time>
      </trkpt>
      <trkpt lat="49.07367" lon="0.11735">
        <ele>142</ele>
        <time>2024-03-10T09:34:56Z</time>
      </trkpt>
      <trkpt lat="49.07367" lon="0.11736">
        <ele>142.1</ele>
        <time>2024-03-10T09:34:57Z</time>
      </trkpt>
      <trkpt lat="49.07367" lon="0.11741">
        <ele>142.4</ele>
        <time>2024-03-10T09:34:58Z</time>
      </trkpt>
      <trkpt lat="49.07367" lon="0.11743">
        <ele>142.5</ele>
        <time>2024-03-10T09:34:59Z</time>
      </trkpt>
      <trkpt lat="49.07366" lon="0.11748">
        <ele>142.9</ele>
        <time>2024-03-10T09:35:00Z</time>
      </trkpt>
      <trkpt lat="49.07366" lon="0.11749">
        <ele>143</ele>
        <time>2024-03-10T09:35:01Z</time>
      </trkpt>
      <trkpt lat="49.07366" lon="0.11755">
        <ele>143.4</ele>
        <time>2024-03-10T09:35:02Z</time>
      </trkpt>
      <trkpt lat="49.07366" lon="0.11758">
        <ele>143.6</ele>
        <time>2024-03-10T09:35:03Z</time>
      </trkpt>
      <trkpt lat="49.07366" lon="0.11762">
        <ele>143.9</ele>
        <time>2024-03-10T09:35:04Z</time>
      </trkpt>
      <trkpt lat="49.07367" lon="0.11766">
        <ele>144.1</ele>
        <time>2024-03-10T09:35:05Z</time>
      </trkpt>
      <trkpt lat="49.07367" lon="0.11772">
        <ele>144.4</ele>
        <time>2024-03-10T09:35:06Z</time>
      </trkpt>
      <trkpt lat="49.07367" lon="0.11774">
        <ele>144.5</ele>
        <time>2024-03-10T09:35:07Z</time>
      </trkpt>
      <trkpt lat="49.07367" lon="0.11779">
        <ele>144.7</ele>
        <time>2024-03-10T09:35:08Z</time>
      </trkpt>
      <trkpt lat="49.07366" lon="0.11783">
        <ele>144.9</ele>
        <time>2024-03-10T09:35:09Z</time>
      </trkpt>
      <trkpt lat="49.07367" lon="0.11787">
        <ele>145.1</ele>
        <time>2024-03-10T09:35:10Z</time>
      </trkpt>
      <trkpt lat="49.07367" lon="0.11791">
        <ele>145.3</ele>
        <time>2024-03-10T09:35:11Z</time>
      </trkpt>
      <trkpt lat="49.07367" lon="0.11796">
        <ele>145.5</ele>
        <time>2024-03-10T09:35:12Z</time>
      </trkpt>
      <trkpt lat="49.07366" lon="0.11802">
        <ele>145.7</ele>
        <time>2024-03-10T09:35:13Z</time>
      </trkpt>
      <trkpt lat="49.07366" lon="0.11804">
        <ele>145.8</ele>
        <time>2024-03-10T09:35:14Z</time>
      </trkpt>
      <trkpt lat="49.07366" lon="0.11809">
        <ele>146</ele>
        <time>2024-03-10T09:35:15Z</time>
      </trkpt>
      <trkpt lat="49.07366" lon="0.11814">
        <ele>146.2</ele>
        <time>2024-03-10T09:35:16Z</time>
      </trkpt>
      <trkpt lat="49.07367" lon="0.11819">
        <ele>146.4</ele>
        <time>2024-03-10T09:35:17Z</time>
      </trkpt>
      <trkpt lat="49.07367" lon="0.11824">
        <ele>146.6</ele>
        <time>2024-03-10T09:35:18Z</time>
      </trkpt>
      <trkpt lat="49.07367" lon="0.11828">
        <ele>146.7</ele>
        <time>2024-03-10T09:35:19Z</time>
      </trkpt>
      <trkpt lat="49.07367" lon="0.11833">
        <ele>146.9</ele>
        <time>2024-03-10T09:35:20Z</time>
      </trkpt>
      <trkpt lat="49.07367" lon="0.11838">
        <ele>147</ele>
        <time>2024-03-10T09:35:21Z</time>
      </trkpt>
      <trkpt lat="49.07367" lon="0.11844">
        <ele>147.2</ele>
        <time>2024-03-10T09:35:22Z</time>
      </trkpt>
      <trkpt lat="49.07367" lon="0.11849">
        <ele>147.4</ele>
        <time>2024-03-10T09:35:23Z</time>
      </trkpt>
      <trkpt lat="49.07367" lon="0.11854">
        <ele>147.5</ele>
        <time>2024-03-10T09:35:24Z</time>
      </trkpt>
      <trkpt lat="49.07366" lon="0.1186">
        <ele>147.7</ele>
        <time>2024-03-10T09:35:25Z</time>
      </trkpt>
      <trkpt lat="49.07366" lon="0.11865">
        <ele>147.9</ele>
        <time>2024-03-10T09:35:26Z</time>
      </trkpt>
      <trkpt lat="49.07366" lon="0.11871">
        <ele>148</ele>
        <time>2024-03-10T09:35:27Z</time>
      </trkpt>
      <trkpt lat="49.07366" lon="0.11877">
        <ele>148.2</ele>
        <time>2024-03-10T09:35:28Z</time>
      </trkpt>
      <trkpt lat="49.07367" lon="0.11883">
        <ele>148.3</ele>
        <time>2024-03-10T09:35:29Z</time>
      </trkpt>
      <trkpt lat="49.07367" lon="0.11888">
        <ele>148.4</ele>
        <time>2024-03-10T09:35:30Z</time>
      </trkpt>
      <trkpt lat="49.07368" lon="0.11894">
        <ele>148.6</ele>
        <time>2024-03-10T09:35:31Z</time>
      </trkpt>
      <trkpt lat="49.07369" lon="0.119">
        <ele>148.7</ele>
        <time>2024-03-10T09:35:32Z</time>
      </trkpt>
      <trkpt lat="49.0737" lon="0.11906">
        <ele>148.8</ele>
        <time>2024-03-10T09:35:33Z</time>
      </trkpt>
      <trkpt lat="49.07371" lon="0.11911">
        <ele>148.9</ele>
        <time>2024-03-10T09:35:34Z</time>
      </trkpt>
      <trkpt lat="49.07372" lon="0.11916">
        <ele>149</ele>
        <time>2024-03-10T09:35:35Z</time>
      </trkpt>
      <trkpt lat="49.07373" lon="0.11921">
        <ele>149.1</ele>
        <time>2024-03-10T09:35:36Z</time>
      </trkpt>
      <trkpt lat="49.07375" lon="0.11926">
        <ele>149.2</ele>
        <time>2024-03-10T09:35:37Z</time>
      </trkpt>
      <trkpt lat="49.07377" lon="0.11931">
        <ele>149.2</ele>
        <time>2024-03-10T09:35:38Z</time>
      </trkpt>
      <trkpt lat="49.07378" lon="0.11936">
        <ele>149.3</ele>
        <time>2024-03-10T09:35:39Z</time>
      </trkpt>
      <trkpt lat="49.07379" lon="0.1194">
        <ele>149.3</ele>
        <time>2024-03-10T09:35:40Z</time>
      </trkpt>
      <trkpt lat="49.07381" lon="0.11945">
        <ele>149.4</ele>
        <time>2024-03-10T09:35:41Z</time>
      </trkpt>
      <trkpt lat="49.07382" lon="0.11949">
        <ele>149.4</ele>
        <time>2024-03-10T09:35:42Z</time>
      </trkpt>
      <trkpt lat="49.07384" lon="0.11953">
        <ele>149.4</ele>
        <time>2024-03-10T09:35:43Z</time>
      </trkpt>
      <trkpt lat="49.07385" lon="0.11957">
        <ele>149.5</ele>
        <time>2024-03-10T09:35:44Z</time>
      </trkpt>
      <trkpt lat="49.07387" lon="0.1196">
        <ele>149.5</ele>
        <time>2024-03-10T09:35:45Z</time>
      </trkpt>
      <trkpt lat="49.07388" lon="0.11965">
        <ele>149.6</ele>
        <time>2024-03-10T09:35:46Z</time>
      </trkpt>
      <trkpt lat="49.07389" lon="0.11967">
        <ele>149.6</ele>
        <time>2024-03-10T09:35:47Z</time>
      </trkpt>
      <trkpt lat="49.07391" lon="0.11972">
        <ele>149.6</ele>
        <time>2024-03-10T09:35:48Z</time>
      </trkpt>
      <trkpt lat="49.07392" lon="0.11973">
        <ele>149.6</ele>
        <time>2024-03-10T09:35:49Z</time>
      </trkpt>
      <trkpt lat="49.07393" lon="0.11978">
        <ele>149.7</ele>
        <time>2024-03-10T09:35:50Z</time>
      </trkpt>
      <trkpt lat="49.07394" lon="0.11979">
        <ele>149.7</ele>
        <time>2024-03-10T09:35:51Z</time>
      </trkpt>
      <trkpt lat="49.07395" lon="0.11981">
        <ele>149.7</ele>
        <time>2024-03-10T09:35:52Z</time>
      </trkpt>
      <trkpt lat="49.07396" lon="0.11984">
        <ele>149.7</ele>
        <time>2024-03-10T09:35:53Z</time>
      </trkpt>
      <trkpt lat="49.07396" lon="0.11985">
        <ele>149.7</ele>
        <time>2024-03-10T09:35:54Z</time>
      </trkpt>
      <trkpt lat="49.07397" lon="0.11987">
        <ele>149.8</ele>
        <time>2024-03-10T09:35:55Z</time>
      </trkpt>
      <trkpt lat="49.07397" lon="0.11989">
        <ele>149.8</ele>
        <time>2024-03-10T09:35:56Z</time>
      </trkpt>
      <trkpt lat="49.07397" lon="0.1199">
        <ele>149.8</ele>
        <time>2024-03-10T09:35:57Z</time>
      </trkpt>
      <trkpt lat="49.07397" lon="0.11991">
        <ele>149.8</ele>
        <time>2024-03-10T09:35:58Z</time>
      </trkpt>
      <trkpt lat="49.07397" lon="0.11991">
        <ele>149.8</ele>
        <time>2024-03-10T09:35:59Z</time>
      </trkpt>
      <trkpt lat="49.07397" lon="0.11991">
        <ele>149.8</ele>
        <time>2024-03-10T09:36:00Z</time>
      </trkpt>
      <trkpt lat="49.07397" lon="0.11992">
        <ele>149.8</ele>
        <time>2024-03-10T09:36:01Z</time>
      </trkpt>
      <trkpt lat="49.07396" lon="0.11992">
        <ele>149.8</ele>
        <time>2024-03-10T09:36:02Z</time>
      </trkpt>
      <trkpt lat="49.07396" lon="0.11992">
        <ele>149.8</ele>
        <time>2024-03-10T09:36:03Z</time>
      </trkpt>
      <trkpt lat="49.07396" lon="0.11992">
        <ele>149.8</ele>
        <time>2024-03-10T09:36:04Z</time>
      </trkpt>
      <trkpt lat="49.07396" lon="0.11992">
        <ele>149.8</ele>
        <time>2024-03-10T09:36:05Z</time>
      </trkpt>
      <trkpt lat="49.07396" lon="0.11992">
        <ele>149.8</ele>
        <time>2024-03-10T09:36:06Z</time>
      </trkpt>
      <trkpt lat="49.07396" lon="0.11992">
        <ele>149.8</ele>
        <time>2024-03-10T09:36:07Z</time>
      </trkpt>
      <trkpt lat="49.07396" lon="0.11992">
        <ele>149.8</ele>
        <time>2024-03-10T09:36:08Z</time>
      </trkpt>
      <trkpt lat="49.07396" lon="0.11992">
        <ele>149.8</ele>
        <time>2024-03-10T09:36:09Z</time>
      </trkpt>
      <trkpt lat="49.07396" lon="0.11992">
        <ele>149.8</ele>
        <time>2024-03-10T09:36:10Z</time>
      </trkpt>
      <trkpt lat="49.07396" lon="0.11992">
        <ele>149.8</ele>
        <time>2024-03-10T09:36:11Z</time>
      </trkpt>
      <trkpt lat="49.07396" lon="0.11992">
        <ele>149.8</ele>
        <time>2024-03-10T09:36:12Z</time>
      </trkpt>
      <trkpt lat="49.07396" lon="0.11993">
        <ele>149.8</ele>
        <time>2024-03-10T09:36:13Z</time>
      </trkpt>
      <trkpt lat="49.07396" lon="0.11993">
        <ele>149.8</ele>
        <time>2024-03-10T09:36:14Z</time>
      </trkpt>
      <trkpt lat="49.07396" lon="0.11993">
        <ele>149.8</ele>
        <time>2024-03-10T09:36:15Z</time>
      </trkpt>
      <trkpt lat="49.07396" lon="0.11993">
        <ele>149.8</ele>
        <time>2024-03-10T09:36:16Z</time>
      </trkpt>
      <trkpt lat="49.07397" lon="0.11993">
        <ele>149.8</ele>
        <time>2024-03-10T09:36:17Z</time>
      </trkpt>
      <trkpt lat="49.07397" lon="0.11993">
        <ele>149.8</ele>
        <time>2024-03-10T09:36:18Z</time>
      </trkpt>
      <trkpt lat="49.07397" lon="0.11993">
        <ele>149.8</ele>
        <time>2024-03-10T09:36:19Z</time>
      </trkpt>
      <trkpt lat="49.07397" lon="0.11993">
        <ele>149.8</ele>
        <time>2024-03-10T09:36:20Z</time>
      </trkpt>
      <trkpt lat="49.07397" lon="0.11993">
        <ele>149.8</ele>
        <time>2024-03-10T09:36:21Z</time>
      </trkpt>
      <trkpt lat="49.07397" lon="0.11993">
        <ele>149.8</ele>
        <time>2024-03-10T09:36:22Z</time>
      </trkpt>
      <trkpt lat="49.07397" lon="0.11993">
        <ele>149.8</ele>
        <time>2024-03-10T09:36:23Z</time>
      </trkpt>
      <trkpt lat="49.07397" lon="0.11993">
        <ele>149.8</ele>
        <time>2024-03-10T09:36:24Z</time>
      </trkpt>
      <trkpt lat="49.07397" lon="0.11993">
        <ele>149.8</ele>
        <time>2024-03-10T09:36:25Z</time>
      </trkpt>
      <trkpt lat="49.07397" lon="0.11993">
        <ele>149.8</ele>
        <time>2024-03-10T09:36:26Z</time>
      </trkpt>
      <trkpt lat="49.07397" lon="0.11993">
        <ele>149.8</ele>
        <time>2024-03-10T09:36:27Z</time>
      </trkpt>
      <trkpt lat="49.07397" lon="0.11993">
        <ele>149.8</ele>
        <time>2024-03-10T09:36:28Z</time>
      </trkpt>
      <trkpt lat="49.07397" lon="0.11993">
        <ele>149.8</ele>
        <time>2024-03-10T09:36:29Z</time>
      </trkpt>
      <trkpt lat="49.07397" lon="0.11993">
        <ele>149.8</ele>
        <time>2024-03-10T09:36:30Z</time>
      </trkpt>
      <trkpt lat="49.07397" lon="0.11993">
        <ele>149.8</ele>
        <time>2024-03-10T09:36:31Z</time>
      </trkpt>
      <trkpt lat="49.07397" lon="0.11994">
        <ele>149.8</ele>
        <time>2024-03-10T09:36:32Z</time>
      </trkpt>
      <trkpt lat="49.07397" lon="0.11994">
        <ele>149.8</ele>
        <time>2024-03-10T09:36:33Z</time>
      </trkpt>
      <trkpt lat="49.07397" lon="0.11994">
        <ele>149.8</ele>
        <time>2024-03-10T09:36:34Z</time>
      </trkpt>
      <trkpt lat="49.07397" lon="0.11994">
        <ele>149.8</ele>
        <time>2024-03-10T09:36:35Z</time>
      </trkpt>
      <trkpt lat="49.07397" lon="0.11994">
        <ele>149.8</ele>
        <time>2024-03-10T09:36:36Z</time>
      </trkpt>
      <trkpt lat="49.07397" lon="0.11994">
        <ele>149.8</ele>
        <time>2024-03-10T09:36:37Z</time>
      </trkpt>
      <trkpt lat="49.07397" lon="0.11994">
        <ele>149.8</ele>
        <time>2024-03-10T09:36:38Z</time>
      </trkpt>
      <trkpt lat="49.07397" lon="0.11994">
        <ele>149.8</ele>
        <time>2024-03-10T09:36:39Z</time>
      </trkpt>
      <trkpt lat="49.07397" lon="0.11994">
        <ele>149.8</ele>
        <time>2024-03-10T09:36:40Z</time>
      </trkpt>
      <trkpt lat="49.07397" lon="0.11994">
        <ele>149.8</ele>
        <time>2024-03-10T09:36:41Z</time>
      </trkpt>
      <trkpt lat="49.07397" lon="0.11994">
        <ele>149.8</ele>
        <time>2024-03-10T09:36:42Z</time>
      </trkpt>
      <trkpt lat="49.07397" lon="0.11994">
        <ele>149.8</ele>
        <time>2024-03-10T09:36:43Z</time>
      </trkpt>
      <trkpt lat="49.07397" lon="0.11994">
        <ele>149.8</ele>
        <time>2024-03-10T09:36:44Z</time>
      </trkpt>
      <trkpt lat="49.07397" lon="0.11994">
        <ele>149.8</ele>
        <time>2024-03-10T09:36:45Z</time>
      </trkpt>
      <trkpt lat="49.07397" lon="0.11994">
        <ele>149.8</ele>
        <time>2024-03-10T09:36:46Z</time>
      </trkpt>
      <trkpt lat="49.07397" lon="0.11994">
        <ele>149.8</ele>
        <time>2024-03-10T09:36:47Z</time>
      </trkpt>
      <trkpt lat="49.07397" lon="0.11994">
        <ele>149.8</ele>
        <time>2024-03-10T09:36:48Z</time>
      </trkpt>
      <trkpt lat="49.07397" lon="0.11994">
        <ele>149.8</ele>
        <time>2024-03-10T09:36:49Z</time>
      </trkpt>
      <trkpt lat="49.07397" lon="0.11994">
        <ele>149.8</ele>
        <time>2024-03-10T09:36:50Z</time>
      </trkpt>
      <trkpt lat="49.07397" lon="0.11994">
        <ele>149.8</ele>
        <time>2024-03-10T09:36:51Z</time>
      </trkpt>
      <trkpt lat="49.07397" lon="0.11995">
        <ele>149.8</ele>
        <time>2024-03-10T09:36:52Z</time>
      </trkpt>
      <trkpt lat="49.07397" lon="0.11995">
        <ele>149.8</ele>
        <time>2024-03-10T09:36:53Z</time>
      </trkpt>
      <trkpt lat="49.07397" lon="0.11995">
        <ele>149.8</ele>
        <time>2024-03-10T09:36:54Z</time>
      </trkpt>
      <trkpt lat="49.07397" lon="0.11995">
        <ele>149.8</ele>
        <time>2024-03-10T09:36:55Z</time>
      </trkpt>
      <trkpt lat="49.07397" lon="0.11995">
        <ele>149.8</ele>
        <time>2024-03-10T09:36:56Z</time>
      </trkpt>
      <trkpt lat="49.07397" lon="0.11995">
        <ele>149.8</ele>
        <time>2024-03-10T09:36:57Z</time>
      </trkpt>
      <trkpt lat="49.07397" lon="0.11995">
        <ele>149.8</ele>
        <time>2024-03-10T09:36:58Z</time>
      </trkpt>
      <trkpt lat="49.07397" lon="0.11995">
        <ele>149.8</ele>
        <time>2024-03-10T09:36:59Z</time>
      </trkpt>
      <trkpt lat="49.07397" lon="0.11995">
        <ele>149.8</ele>
        <time>2024-03-10T09:37:00Z</time>
      </trkpt>
      <trkpt lat="49.07397" lon="0.11995">
        <ele>149.8</ele>
        <time>2024-03-10T09:37:01Z</time>
      </trkpt>
      <trkpt lat="49.07397" lon="0.11995">
        <ele>149.8</ele>
        <time>2024-03-10T09:37:02Z</time>
      </trkpt>
      <trkpt lat="49.07398" lon="0.11995">
        <ele>149.8</ele>
        <time>2024-03-10T09:37:03Z</time>
      </trkpt>
      <trkpt lat="49.07398" lon="0.11995">
        <ele>149.8</ele>
        <time>2024-03-10T09:37:04Z</time>
      </trkpt>
      <trkpt lat="49.07398" lon="0.11995">
        <ele>149.8</ele>
        <time>2024-03-10T09:37:05Z</time>
      </trkpt>
      <trkpt lat="49.07398" lon="0.11995">
        <ele>149.8</ele>
        <time>2024-03-10T09:37:06Z</time>
      </trkpt>
      <trkpt lat="49.07398" lon="0.11995">
        <ele>149.8</ele>
        <time>2024-03-10T09:37:07Z</time>
      </trkpt>
      <trkpt lat="49.07398" lon="0.11995">
        <ele>149.8</ele>
        <time>2024-03-10T09:37:08Z</time>
      </trkpt>
      <trkpt lat="49.07398" lon="0.11995">
        <ele>149.8</ele>
        <time>2024-03-10T09:37:09Z</time>
      </trkpt>
      <trkpt lat="49.07398" lon="0.11995">
        <ele>149.8</ele>
        <time>2024-03-10T09:37:10Z</time>
      </trkpt>
      <trkpt lat="49.07398" lon="0.11995">
        <ele>149.8</ele>
        <time>2024-03-10T09:37:11Z</time>
      </trkpt>
      <trkpt lat="49.07398" lon="0.11996">
        <ele>149.8</ele>
        <time>2024-03-10T09:37:12Z</time>
      </trkpt>
      <trkpt lat="49.07398" lon="0.11996">
        <ele>149.8</ele>
        <time>2024-03-10T09:37:13Z</time>
      </trkpt>
      <trkpt lat="49.07398" lon="0.11996">
        <ele>149.8</ele>
        <time>2024-03-10T09:37:14Z</time>
      </trkpt>
      <trkpt lat="49.07398" lon="0.11996">
        <ele>149.8</ele>
        <time>2024-03-10T09:37:15Z</time>
      </trkpt>
      <trkpt lat="49.07398" lon="0.11996">
        <ele>149.8</ele>
        <time>2024-03-10T09:37:16Z</time>
      </trkpt>
      <trkpt lat="49.07398" lon="0.11996">
        <ele>149.8</ele>
        <time>2024-03-10T09:37:17Z</time>
      </trkpt>
      <trkpt lat="49.07398" lon="0.11996">
        <ele>149.8</ele>
        <time>2024-03-10T09:37:18Z</time>
      </trkpt>
      <trkpt lat="49.07398" lon="0.11996">
        <ele>149.8</ele>
        <time>2024-03-10T09:37:19Z</time>
      </trkpt>
      <trkpt lat="49.07398" lon="0.11996">
        <ele>149.8</ele>
        <time>2024-03-10T09:37:20Z</time>
      </trkpt>
      <trkpt lat="49.07398" lon="0.11996">
        <ele>149.8</ele>
        <time>2024-03-10T09:37:21Z</time>
      </trkpt>
      <trkpt lat="49.07398" lon="0.11996">
        <ele>149.8</ele>
        <time>2024-03-10T09:37:22Z</time>
      </trkpt>
      <trkpt lat="49.07398" lon="0.11996">
        <ele>149.8</ele>
        <time>2024-03-10T09:37:23Z</time>
      </trkpt>
      <trkpt lat="49.07398" lon="0.11996">
        <ele>149.8</ele>
        <time>2024-03-10T09:37:24Z</time>
      </trkpt>
      <trkpt lat="49.07398" lon="0.11996">
        <ele>149.8</ele>
        <time>2024-03-10T09:37:25Z</time>
      </trkpt>
      <trkpt lat="49.07398" lon="0.11996">
        <ele>149.9</ele>
        <time>2024-03-10T09:37:26Z</time>
      </trkpt>
      <trkpt lat="49.07398" lon="0.11996">
        <ele>149.9</ele>
        <time>2024-03-10T09:37:27Z</time>
      </trkpt>
      <trkpt lat="49.07398" lon="0.11996">
        <ele>149.9</ele>
        <time>2024-03-10T09:37:28Z</time>
      </trkpt>
      <trkpt lat="49.07398" lon="0.11996">
        <ele>149.9</ele>
        <time>2024-03-10T09:37:29Z</time>
      </trkpt>
      <trkpt lat="49.07398" lon="0.11996">
        <ele>149.9</ele>
        <time>2024-03-10T09:37:30Z</time>
      </trkpt>
      <trkpt lat="49.07398" lon="0.11997">
        <ele>149.9</ele>
        <time>2024-03-10T09:37:31Z</time>
      </trkpt>
      <trkpt lat="49.07398" lon="0.11997">
        <ele>149.9</ele>
        <time>2024-03-10T09:37:32Z</time>
      </trkpt>
      <trkpt lat="49.07398" lon="0.11997">
        <ele>149.9</ele>
        <time>2024-03-10T09:37:33Z</time>
      </trkpt>
      <trkpt lat="49.07398" lon="0.11997">
        <ele>149.9</ele>
        <time>2024-03-10T09:37:34Z</time>
      </trkpt>
      <trkpt lat="49.07398" lon="0.11997">
        <ele>149.9</ele>
        <time>2024-03-10T09:37:35Z</time>
      </trkpt>
      <trkpt lat="49.07398" lon="0.11997">
        <ele>149.9</ele>
        <time>2024-03-10T09:37:36Z</time>
      </trkpt>
      <trkpt lat="49.07398" lon="0.11997">
        <ele>149.9</ele>
        <time>2024-03-10T09:37:37Z</time>
      </trkpt>
      <trkpt lat="49.07398" lon="0.11997">
        <ele>149.9</ele>
        <time>2024-03-10T09:37:38Z</time>
      </trkpt>
      <trkpt lat="49.07398" lon="0.11997">
        <ele>149.9</ele>
        <time>2024-03-10T09:37:39Z</time>
      </trkpt>
      <trkpt lat="49.07398" lon="0.11997">
        <ele>149.9</ele>
        <time>2024-03-10T09:37:40Z</time>
      </trkpt>
      <trkpt lat="49.07398" lon="0.11997">
        <ele>149.9</ele>
        <time>2024-03-10T09:37:41Z</time>
      </trkpt>
      <trkpt lat="49.07398" lon="0.11997">
        <ele>149.9</ele>
        <time>2024-03-10T09:37:42Z</time>
      </trkpt>
      <trkpt lat="49.07398" lon="0.11997">
        <ele>149.9</ele>
        <time>2024-03-10T09:37:43Z</time>
      </trkpt>
      <trkpt lat="49.07398" lon="0.11997">
        <ele>149.9</ele>
        <time>2024-03-10T09:37:44Z</time>
      </trkpt>
      <trkpt lat="49.07398" lon="0.11997">
        <ele>149.9</ele>
        <time>2024-03-10T09:37:45Z</time>
      </trkpt>
      <trkpt lat="49.07401" lon="0.12001">
        <ele>149.9</ele>
        <time>2024-03-10T09:37:46Z</time>
      </trkpt>
      <trkpt lat="49.07402" lon="0.12002">
        <ele>149.9</ele>
        <time>2024-03-10T09:37:47Z</time>
      </trkpt>
      <trkpt lat="49.07404" lon="0.12006">
        <ele>150</ele>
        <time>2024-03-10T09:37:48Z</time>
      </trkpt>
      <trkpt lat="49.07406" lon="0.12009">
        <ele>150</ele>
        <time>2024-03-10T09:37:49Z</time>
      </trkpt>
      <trkpt lat="49.07408" lon="0.12013">
        <ele>150</ele>
        <time>2024-03-10T09:37:50Z</time>
      </trkpt>
      <trkpt lat="49.0741" lon="0.12018">
        <ele>150.1</ele>
        <time>2024-03-10T09:37:51Z</time>
      </trkpt>
      <trkpt lat="49.07412" lon="0.12023">
        <ele>150.2</ele>
        <time>2024-03-10T09:37:52Z</time>
      </trkpt>
      <trkpt lat="49.07414" lon="0.12029">
        <ele>150.2</ele>
        <time>2024-03-10T09:37:53Z</time>
      </trkpt>
      <trkpt lat="49.07417" lon="0.12035">
        <ele>150.3</ele>
        <time>2024-03-10T09:37:54Z</time>
      </trkpt>
      <trkpt lat="49.07419" lon="0.12041">
        <ele>150.4</ele>
        <time>2024-03-10T09:37:55Z</time>
      </trkpt>
      <trkpt lat="49.07421" lon="0.12046">
        <ele>150.4</ele>
        <time>2024-03-10T09:37:56Z</time>
      </trkpt>
      <trkpt lat="49.07423" lon="0.12052">
        <ele>150.5</ele>
        <time>2024-03-10T09:37:57Z</time>
      </trkpt>
      <trkpt lat="49.07426" lon="0.12058">
        <ele>150.6</ele>
        <time>2024-03-10T09:37:58Z</time>
      </trkpt>
      <trkpt lat="49.07428" lon="0.12065">
        <ele>150.6</ele>
        <time>2024-03-10T09:37:59Z</time>
      </trkpt>
      <trkpt lat="49.07431" lon="0.12071">
        <ele>150.7</ele>
        <time>2024-03-10T09:38:00Z</time>
      </trkpt>
      <trkpt lat="49.07433" lon="0.12077">
        <ele>150.8</ele>
        <time>2024-03-10T09:38:01Z</time>
      </trkpt>
      <trkpt lat="49.07436" lon="0.12083">
        <ele>150.9</ele>
        <time>2024-03-10T09:38:02Z</time>
      </trkpt>
      <trkpt lat="49.07439" lon="0.1209">
        <ele>150.9</ele>
        <time>2024-03-10T09:38:03Z</time>
      </trkpt>
      <trkpt lat="49.07442" lon="0.12096">
        <ele>151</ele>
        <time>2024-03-10T09:38:04Z</time>
      </trkpt>
      <trkpt lat="49.07445" lon="0.12102">
        <ele>151.1</ele>
        <time>2024-03-10T09:38:05Z</time>
      </trkpt>
      <trkpt lat="49.07447" lon="0.12108">
        <ele>151.2</ele>
        <time>2024-03-10T09:38:06Z</time>
      </trkpt>
      <trkpt lat="49.0745" lon="0.12116">
        <ele>151.2</ele>
        <time>2024-03-10T09:38:07Z</time>
      </trkpt>
      <trkpt lat="49.07452" lon="0.12123">
        <ele>151.3</ele>
        <time>2024-03-10T09:38:08Z</time>
      </trkpt>
      <trkpt lat="49.07455" lon="0.1213">
        <ele>151.4</ele>
        <time>2024-03-10T09:38:09Z</time>
      </trkpt>
      <trkpt lat="49.07458" lon="0.12138">
        <ele>151.5</ele>
        <time>2024-03-10T09:38:10Z</time>
      </trkpt>
      <trkpt lat="49.0746" lon="0.12145">
        <ele>151.6</ele>
        <time>2024-03-10T09:38:11Z</time>
      </trkpt>
      <trkpt lat="49.07463" lon="0.12153">
        <ele>151.7</ele>
        <time>2024-03-10T09:38:12Z</time>
      </trkpt>
      <trkpt lat="49.07465" lon="0.12161">
        <ele>151.8</ele>
        <time>2024-03-10T09:38:13Z</time>
      </trkpt>
      <trkpt lat="49.07468" lon="0.12168">
        <ele>151.8</ele>
        <time>2024-03-10T09:38:14Z</time>
      </trkpt>
      <trkpt lat="49.07471" lon="0.12175">
        <ele>151.9</ele>
        <time>2024-03-10T09:38:15Z</time>
      </trkpt>
      <trkpt lat="49.07474" lon="0.12182">
        <ele>151.9</ele>
        <time>2024-03-10T09:38:16Z</time>
      </trkpt>
      <trkpt lat="49.07477" lon="0.12189">
        <ele>152</ele>
        <time>2024-03-10T09:38:17Z</time>
      </trkpt>
      <trkpt lat="49.0748" lon="0.12197">
        <ele>152</ele>
        <time>2024-03-10T09:38:18Z</time>
      </trkpt>
      <trkpt lat="49.07483" lon="0.12205">
        <ele>152.1</ele>
        <time>2024-03-10T09:38:19Z</time>
      </trkpt>
      <trkpt lat="49.07486" lon="0.12213">
        <ele>152.2</ele>
        <time>2024-03-10T09:38:20Z</time>
      </trkpt>
      <trkpt lat="49.0749" lon="0.12221">
        <ele>152.3</ele>
        <time>2024-03-10T09:38:21Z</time>
      </trkpt>
      <trkpt lat="49.07493" lon="0.1223">
        <ele>152.3</ele>
        <time>2024-03-10T09:38:22Z</time>
      </trkpt>
      <trkpt lat="49.07496" lon="0.12238">
        <ele>152.4</ele>
        <time>2024-03-10T09:38:23Z</time>
      </trkpt>
      <trkpt lat="49.07499" lon="0.12246">
        <ele>152.4</ele>
        <time>2024-03-10T09:38:24Z</time>
      </trkpt>
      <trkpt lat="49.07502" lon="0.12255">
        <ele>152.5</ele>
        <time>2024-03-10T09:38:25Z</time>
      </trkpt>
      <trkpt lat="49.07506" lon="0.12263">
        <ele>152.6</ele>
        <time>2024-03-10T09:38:26Z</time>
      </trkpt>
      <trkpt lat="49.07509" lon="0.12271">
        <ele>152.6</ele>
        <time>2024-03-10T09:38:27Z</time>
      </trkpt>
      <trkpt lat="49.07513" lon="0.1228">
        <ele>152.7</ele>
        <time>2024-03-10T09:38:28Z</time>
      </trkpt>
      <trkpt lat="49.07516" lon="0.12288">
        <ele>152.8</ele>
        <time>2024-03-10T09:38:29Z</time>
      </trkpt>
      <trkpt lat="49.0752" lon="0.12296">
        <ele>152.9</ele>
        <time>2024-03-10T09:38:30Z</time>
      </trkpt>
      <trkpt lat="49.07523" lon="0.12304">
        <ele>152.9</ele>
        <time>2024-03-10T09:38:31Z</time>
      </trkpt>
      <trkpt lat="49.07527" lon="0.12313">
        <ele>153</ele>
        <time>2024-03-10T09:38:32Z</time>
      </trkpt>
      <trkpt lat="49.0753" lon="0.12322">
        <ele>153.1</ele>
        <time>2024-03-10T09:38:33Z</time>
      </trkpt>
      <trkpt lat="49.07533" lon="0.1233">
        <ele>153.2</ele>
        <time>2024-03-10T09:38:34Z</time>
      </trkpt>
      <trkpt lat="49.07537" lon="0.12337">
        <ele>153.2</ele>
        <time>2024-03-10T09:38:35Z</time>
      </trkpt>
      <trkpt lat="49.0754" lon="0.12346">
        <ele>153.3</ele>
        <time>2024-03-10T09:38:36Z</time>
      </trkpt>
      <trkpt lat="49.07543" lon="0.12355">
        <ele>153.3</ele>
        <time>2024-03-10T09:38:37Z</time>
      </trkpt>
      <trkpt lat="49.07547" lon="0.12363">
        <ele>153.4</ele>
        <time>2024-03-10T09:38:38Z</time>
      </trkpt>
      <trkpt lat="49.0755" lon="0.12371">
        <ele>153.4</ele>
        <time>2024-03-10T09:38:39Z</time>
      </trkpt>
      <trkpt lat="49.07553" lon="0.12379">
        <ele>153.4</ele>
        <time>2024-03-10T09:38:40Z</time>
      </trkpt>
      <trkpt lat="49.07557" lon="0.12388">
        <ele>153.5</ele>
        <time>2024-03-10T09:38:41Z</time>
      </trkpt>
      <trkpt lat="49.0756" lon="0.12396">
        <ele>153.5</ele>
        <time>2024-03-10T09:38:42Z</time>
      </trkpt>
      <trkpt lat="49.07563" lon="0.12405">
        <ele>153.6</ele>
        <time>2024-03-10T09:38:43Z</time>
      </trkpt>
      <trkpt lat="49.07567" lon="0.12413">
        <ele>153.6</ele>
        <time>2024-03-10T09:38:44Z</time>
      </trkpt>
      <trkpt lat="49.07571" lon="0.12421">
        <ele>153.7</ele>
        <time>2024-03-10T09:38:45Z</time>
      </trkpt>
      <trkpt lat="49.07574" lon="0.1243">
        <ele>153.8</ele>
        <time>2024-03-10T09:38:46Z</time>
      </trkpt>
      <trkpt lat="49.07577" lon="0.12438">
        <ele>153.8</ele>
        <time>2024-03-10T09:38:47Z</time>
      </trkpt>
      <trkpt lat="49.0758" lon="0.12446">
        <ele>153.9</ele>
        <time>2024-03-10T09:38:48Z</time>
      </trkpt>
      <trkpt lat="49.07583" lon="0.12454">
        <ele>153.9</ele>
        <time>2024-03-10T09:38:49Z</time>
      </trkpt>
      <trkpt lat="49.07586" lon="0.12462">
        <ele>154</ele>
        <time>2024-03-10T09:38:50Z</time>
      </trkpt>
      <trkpt lat="49.07589" lon="0.1247">
        <ele>154</ele>
        <time>2024-03-10T09:38:51Z</time>
      </trkpt>
      <trkpt lat="49.07593" lon="0.12478">
        <ele>154.1</ele>
        <time>2024-03-10T09:38:52Z</time>
      </trkpt>
      <trkpt lat="49.07596" lon="0.12486">
        <ele>154.1</ele>
        <time>2024-03-10T09:38:53Z</time>
      </trkpt>
      <trkpt lat="49.07599" lon="0.12495">
        <ele>154.2</ele>
        <time>2024-03-10T09:38:54Z</time>
      </trkpt>
      <trkpt lat="49.07603" lon="0.12503">
        <ele>154.2</ele>
        <time>2024-03-10T09:38:55Z</time>
      </trkpt>
      <trkpt lat="49.07606" lon="0.12511">
        <ele>154.3</ele>
        <time>2024-03-10T09:38:56Z</time>
      </trkpt>
      <trkpt lat="49.07609" lon="0.12519">
        <ele>154.3</ele>
        <time>2024-03-10T09:38:57Z</time>
      </trkpt>
      <trkpt lat="49.07612" lon="0.12527">
        <ele>154.3</ele>
        <time>2024-03-10T09:38:58Z</time>
      </trkpt>
      <trkpt lat="49.07616" lon="0.12535">
        <ele>154.4</ele>
        <time>2024-03-10T09:38:59Z</time>
      </trkpt>
      <trkpt lat="49.07619" lon="0.12544">
        <ele>154.4</ele>
        <time>2024-03-10T09:39:00Z</time>
      </trkpt>
      <trkpt lat="49.07623" lon="0.12552">
        <ele>154.4</ele>
        <time>2024-03-10T09:39:01Z</time>
      </trkpt>
      <trkpt lat="49.07626" lon="0.1256">
        <ele>154.4</ele>
        <time>2024-03-10T09:39:02Z</time>
      </trkpt>
      <trkpt lat="49.0763" lon="0.12568">
        <ele>154.5</ele>
        <time>2024-03-10T09:39:03Z</time>
      </trkpt>
      <trkpt lat="49.07633" lon="0.12577">
        <ele>154.5</ele>
        <time>2024-03-10T09:39:04Z</time>
      </trkpt>
      <trkpt lat="49.07636" lon="0.12585">
        <ele>154.5</ele>
        <time>2024-03-10T09:39:05Z</time>
      </trkpt>
      <trkpt lat="49.0764" lon="0.12593">
        <ele>154.5</ele>
        <time>2024-03-10T09:39:06Z</time>
      </trkpt>
      <trkpt lat="49.07643" lon="0.12601">
        <ele>154.5</ele>
        <time>2024-03-10T09:39:07Z</time>
      </trkpt>
      <trkpt lat="49.07646" lon="0.12609">
        <ele>154.5</ele>
        <time>2024-03-10T09:39:08Z</time>
      </trkpt>
      <trkpt lat="49.07649" lon="0.12617">
        <ele>154.6</ele>
        <time>2024-03-10T09:39:09Z</time>
      </trkpt>
      <trkpt lat="49.07652" lon="0.12626">
        <ele>154.6</ele>
        <time>2024-03-10T09:39:10Z</time>
      </trkpt>
      <trkpt lat="49.07656" lon="0.12635">
        <ele>154.6</ele>
        <time>2024-03-10T09:39:11Z</time>
      </trkpt>
      <trkpt lat="49.07659" lon="0.12643">
        <ele>154.6</ele>
        <time>2024-03-10T09:39:12Z</time>
      </trkpt>
      <trkpt lat="49.07663" lon="0.12651">
        <ele>154.7</ele>
        <time>2024-03-10T09:39:13Z</time>
      </trkpt>
      <trkpt lat="49.07666" lon="0.1266">
        <ele>154.7</ele>
        <time>2024-03-10T09:39:14Z</time>
      </trkpt>
      <trkpt lat="49.07669" lon="0.12668">
        <ele>154.7</ele>
        <time>2024-03-10T09:39:15Z</time>
      </trkpt>
      <trkpt lat="49.07673" lon="0.12677">
        <ele>154.7</ele>
        <time>2024-03-10T09:39:16Z</time>
      </trkpt>
      <trkpt lat="49.07676" lon="0.12685">
        <ele>154.7</ele>
        <time>2024-03-10T09:39:17Z</time>
      </trkpt>
      <trkpt lat="49.07679" lon="0.12694">
        <ele>154.7</ele>
        <time>2024-03-10T09:39:18Z</time>
      </trkpt>
      <trkpt lat="49.07683" lon="0.12704">
        <ele>154.7</ele>
        <time>2024-03-10T09:39:19Z</time>
      </trkpt>
      <trkpt lat="49.07687" lon="0.12713">
        <ele>154.7</ele>
        <time>2024-03-10T09:39:20Z</time>
      </trkpt>
      <trkpt lat="49.0769" lon="0.12722">
        <ele>154.7</ele>
        <time>2024-03-10T09:39:21Z</time>
      </trkpt>
      <trkpt lat="49.07694" lon="0.12731">
        <ele>154.7</ele>
        <time>2024-03-10T09:39:22Z</time>
      </trkpt>
      <trkpt lat="49.07697" lon="0.12739">
        <ele>154.7</ele>
        <time>2024-03-10T09:39:23Z</time>
      </trkpt>
      <trkpt lat="49.07701" lon="0.12748">
        <ele>154.7</ele>
        <time>2024-03-10T09:39:24Z</time>
      </trkpt>
      <trkpt lat="49.07705" lon="0.12757">
        <ele>154.7</ele>
        <time>2024-03-10T09:39:25Z</time>
      </trkpt>
      <trkpt lat="49.07708" lon="0.12766">
        <ele>154.7</ele>
        <time>2024-03-10T09:39:26Z</time>
      </trkpt>
      <trkpt lat="49.07711" lon="0.12775">
        <ele>154.7</ele>
        <time>2024-03-10T09:39:27Z</time>
      </trkpt>
      <trkpt lat="49.07715" lon="0.12784">
        <ele>154.7</ele>
        <time>2024-03-10T09:39:28Z</time>
      </trkpt>
      <trkpt lat="49.07719" lon="0.12793">
        <ele>154.7</ele>
        <time>2024-03-10T09:39:29Z</time>
      </trkpt>
      <trkpt lat="49.07722" lon="0.12802">
        <ele>154.7</ele>
        <time>2024-03-10T09:39:30Z</time>
      </trkpt>
      <trkpt lat="49.07726" lon="0.12811">
        <ele>154.8</ele>
        <time>2024-03-10T09:39:31Z</time>
      </trkpt>
      <trkpt lat="49.07729" lon="0.1282">
        <ele>154.8</ele>
        <time>2024-03-10T09:39:32Z</time>
      </trkpt>
      <trkpt lat="49.07733" lon="0.12828">
        <ele>154.9</ele>
        <time>2024-03-10T09:39:33Z</time>
      </trkpt>
      <trkpt lat="49.07737" lon="0.12837">
        <ele>154.9</ele>
        <time>2024-03-10T09:39:34Z</time>
      </trkpt>
      <trkpt lat="49.0774" lon="0.12845">
        <ele>154.9</ele>
        <time>2024-03-10T09:39:35Z</time>
      </trkpt>
      <trkpt lat="49.07743" lon="0.12854">
        <ele>154.9</ele>
        <time>2024-03-10T09:39:36Z</time>
      </trkpt>
      <trkpt lat="49.07747" lon="0.12862">
        <ele>154.9</ele>
        <time>2024-03-10T09:39:37Z</time>
      </trkpt>
      <trkpt lat="49.07751" lon="0.12871">
        <ele>154.9</ele>
        <time>2024-03-10T09:39:38Z</time>
      </trkpt>
      <trkpt lat="49.07754" lon="0.1288">
        <ele>154.9</ele>
        <time>2024-03-10T09:39:39Z</time>
      </trkpt>
      <trkpt lat="49.07758" lon="0.12888">
        <ele>155</ele>
        <time>2024-03-10T09:39:40Z</time>
      </trkpt>
      <trkpt lat="49.07761" lon="0.12897">
        <ele>155</ele>
        <time>2024-03-10T09:39:41Z</time>
      </trkpt>
      <trkpt lat="49.07764" lon="0.12906">
        <ele>155</ele>
        <time>2024-03-10T09:39:42Z</time>
      </trkpt>
      <trkpt lat="49.07768" lon="0.12915">
        <ele>155</ele>
        <time>2024-03-10T09:39:43Z</time>
      </trkpt>
      <trkpt lat="49.07771" lon="0.12923">
        <ele>155</ele>
        <time>2024-03-10T09:39:44Z</time>
      </trkpt>
      <trkpt lat="49.07775" lon="0.12931">
        <ele>155</ele>
        <time>2024-03-10T09:39:45Z</time>
      </trkpt>
      <trkpt lat="49.07778" lon="0.1294">
        <ele>155</ele>
        <time>2024-03-10T09:39:46Z</time>
      </trkpt>
      <trkpt lat="49.07782" lon="0.12949">
        <ele>155</ele>
        <time>2024-03-10T09:39:47Z</time>
      </trkpt>
      <trkpt lat="49.07785" lon="0.12959">
        <ele>154.9</ele>
        <time>2024-03-10T09:39:48Z</time>
      </trkpt>
      <trkpt lat="49.07789" lon="0.12968">
        <ele>154.9</ele>
        <time>2024-03-10T09:39:49Z</time>
      </trkpt>
      <trkpt lat="49.07793" lon="0.12977">
        <ele>154.8</ele>
        <time>2024-03-10T09:39:50Z</time>
      </trkpt>
      <trkpt lat="49.07796" lon="0.12986">
        <ele>154.7</ele>
        <time>2024-03-10T09:39:51Z</time>
      </trkpt>
      <trkpt lat="49.078" lon="0.12995">
        <ele>154.7</ele>
        <time>2024-03-10T09:39:52Z</time>
      </trkpt>
      <trkpt lat="49.07804" lon="0.13005">
        <ele>154.6</ele>
        <time>2024-03-10T09:39:53Z</time>
      </trkpt>
      <trkpt lat="49.07808" lon="0.13015">
        <ele>154.5</ele>
        <time>2024-03-10T09:39:54Z</time>
      </trkpt>
      <trkpt lat="49.07812" lon="0.13024">
        <ele>154.4</ele>
        <time>2024-03-10T09:39:55Z</time>
      </trkpt>
      <trkpt lat="49.07817" lon="0.13034">
        <ele>154.4</ele>
        <time>2024-03-10T09:39:56Z</time>
      </trkpt>
      <trkpt lat="49.07822" lon="0.13043">
        <ele>154.4</ele>
        <time>2024-03-10T09:39:57Z</time>
      </trkpt>
      <trkpt lat="49.07827" lon="0.13051">
        <ele>154.4</ele>
        <time>2024-03-10T09:39:58Z</time>
      </trkpt>
      <trkpt lat="49.07832" lon="0.13058">
        <ele>154.4</ele>
        <time>2024-03-10T09:39:59Z</time>
      </trkpt>
      <trkpt lat="49.07838" lon="0.13065">
        <ele>154.3</ele>
        <time>2024-03-10T09:40:00Z</time>
      </trkpt>
      <trkpt lat="49.07843" lon="0.13072">
        <ele>154.3</ele>
        <time>2024-03-10T09:40:01Z</time>
      </trkpt>
      <trkpt lat="49.07849" lon="0.13078">
        <ele>154.4</ele>
        <time>2024-03-10T09:40:02Z</time>
      </trkpt>
      <trkpt lat="49.07854" lon="0.13083">
        <ele>154.4</ele>
        <time>2024-03-10T09:40:03Z</time>
      </trkpt>
      <trkpt lat="49.0786" lon="0.13089">
        <ele>154.5</ele>
        <time>2024-03-10T09:40:04Z</time>
      </trkpt>
      <trkpt lat="49.07866" lon="0.13096">
        <ele>154.6</ele>
        <time>2024-03-10T09:40:05Z</time>
      </trkpt>
      <trkpt lat="49.07872" lon="0.13103">
        <ele>154.6</ele>
        <time>2024-03-10T09:40:06Z</time>
      </trkpt>
      <trkpt lat="49.07877" lon="0.13109">
        <ele>154.7</ele>
        <time>2024-03-10T09:40:07Z</time>
      </trkpt>
      <trkpt lat="49.07883" lon="0.13115">
        <ele>154.7</ele>
        <time>2024-03-10T09:40:08Z</time>
      </trkpt>
      <trkpt lat="49.07888" lon="0.13122">
        <ele>154.7</ele>
        <time>2024-03-10T09:40:09Z</time>
      </trkpt>
      <trkpt lat="49.07894" lon="0.13129">
        <ele>154.7</ele>
        <time>2024-03-10T09:40:10Z</time>
      </trkpt>
      <trkpt lat="49.07899" lon="0.13136">
        <ele>154.8</ele>
        <time>2024-03-10T09:40:11Z</time>
      </trkpt>
      <trkpt lat="49.07905" lon="0.13143">
        <ele>154.8</ele>
        <time>2024-03-10T09:40:12Z</time>
      </trkpt>
      <trkpt lat="49.07911" lon="0.13149">
        <ele>154.9</ele>
        <time>2024-03-10T09:40:13Z</time>
      </trkpt>
      <trkpt lat="49.07917" lon="0.13156">
        <ele>154.9</ele>
        <time>2024-03-10T09:40:14Z</time>
      </trkpt>
      <trkpt lat="49.07922" lon="0.13163">
        <ele>155</ele>
        <time>2024-03-10T09:40:15Z</time>
      </trkpt>
      <trkpt lat="49.07928" lon="0.13169">
        <ele>155.1</ele>
        <time>2024-03-10T09:40:16Z</time>
      </trkpt>
      <trkpt lat="49.07934" lon="0.13176">
        <ele>155.1</ele>
        <time>2024-03-10T09:40:17Z</time>
      </trkpt>
      <trkpt lat="49.0794" lon="0.13183">
        <ele>155.2</ele>
        <time>2024-03-10T09:40:18Z</time>
      </trkpt>
      <trkpt lat="49.07945" lon="0.13189">
        <ele>155.3</ele>
        <time>2024-03-10T09:40:19Z</time>
      </trkpt>
      <trkpt lat="49.0795" lon="0.13196">
        <ele>155.3</ele>
        <time>2024-03-10T09:40:20Z</time>
      </trkpt>
      <trkpt lat="49.07956" lon="0.13203">
        <ele>155.4</ele>
        <time>2024-03-10T09:40:21Z</time>
      </trkpt>
      <trkpt lat="49.07961" lon="0.13209">
        <ele>155.4</ele>
        <time>2024-03-10T09:40:22Z</time>
      </trkpt>
      <trkpt lat="49.07967" lon="0.13216">
        <ele>155.5</ele>
        <time>2024-03-10T09:40:23Z</time>
      </trkpt>
      <trkpt lat="49.07973" lon="0.13223">
        <ele>155.5</ele>
        <time>2024-03-10T09:40:24Z</time>
      </trkpt>
      <trkpt lat="49.07978" lon="0.13229">
        <ele>155.5</ele>
        <time>2024-03-10T09:40:25Z</time>
      </trkpt>
      <trkpt lat="49.07984" lon="0.13237">
        <ele>155.6</ele>
        <time>2024-03-10T09:40:26Z</time>
      </trkpt>
      <trkpt lat="49.0799" lon="0.13243">
        <ele>155.6</ele>
        <time>2024-03-10T09:40:27Z</time>
      </trkpt>
      <trkpt lat="49.07995" lon="0.1325">
        <ele>155.7</ele>
        <time>2024-03-10T09:40:28Z</time>
      </trkpt>
      <trkpt lat="49.08001" lon="0.13256">
        <ele>155.8</ele>
        <time>2024-03-10T09:40:29Z</time>
      </trkpt>
      <trkpt lat="49.08007" lon="0.13262">
        <ele>155.8</ele>
        <time>2024-03-10T09:40:30Z</time>
      </trkpt>
      <trkpt lat="49.08013" lon="0.13269">
        <ele>155.9</ele>
        <time>2024-03-10T09:40:31Z</time>
      </trkpt>
      <trkpt lat="49.08018" lon="0.13275">
        <ele>156</ele>
        <time>2024-03-10T09:40:32Z</time>
      </trkpt>
      <trkpt lat="49.08023" lon="0.13282">
        <ele>156</ele>
        <time>2024-03-10T09:40:33Z</time>
      </trkpt>
      <trkpt lat="49.08028" lon="0.13288">
        <ele>156.1</ele>
        <time>2024-03-10T09:40:34Z</time>
      </trkpt>
      <trkpt lat="49.08034" lon="0.13295">
        <ele>156.2</ele>
        <time>2024-03-10T09:40:35Z</time>
      </trkpt>
      <trkpt lat="49.08039" lon="0.13301">
        <ele>156.3</ele>
        <time>2024-03-10T09:40:36Z</time>
      </trkpt>
      <trkpt lat="49.08044" lon="0.13309">
        <ele>156.4</ele>
        <time>2024-03-10T09:40:37Z</time>
      </trkpt>
      <trkpt lat="49.0805" lon="0.13315">
        <ele>156.5</ele>
        <time>2024-03-10T09:40:38Z</time>
      </trkpt>
      <trkpt lat="49.08056" lon="0.13322">
        <ele>156.5</ele>
        <time>2024-03-10T09:40:39Z</time>
      </trkpt>
      <trkpt lat="49.08062" lon="0.13327">
        <ele>156.6</ele>
        <time>2024-03-10T09:40:40Z</time>
      </trkpt>
      <trkpt lat="49.08068" lon="0.13334">
        <ele>156.7</ele>
        <time>2024-03-10T09:40:41Z</time>
      </trkpt>
      <trkpt lat="49.08073" lon="0.13341">
        <ele>156.7</ele>
        <time>2024-03-10T09:40:42Z</time>
      </trkpt>
      <trkpt lat="49.08079" lon="0.13348">
        <ele>156.7</ele>
        <time>2024-03-10T09:40:43Z</time>
      </trkpt>
      <trkpt lat="49.08085" lon="0.13355">
        <ele>156.8</ele>
        <time>2024-03-10T09:40:44Z</time>
      </trkpt>
      <trkpt lat="49.0809" lon="0.13361">
        <ele>156.8</ele>
        <time>2024-03-10T09:40:45Z</time>
      </trkpt>
      <trkpt lat="49.08096" lon="0.13367">
        <ele>156.8</ele>
        <time>2024-03-10T09:40:46Z</time>
      </trkpt>
      <trkpt lat="49.08101" lon="0.13374">
        <ele>156.8</ele>
        <time>2024-03-10T09:40:47Z</time>
      </trkpt>
      <trkpt lat="49.08107" lon="0.13381">
        <ele>156.8</ele>
        <time>2024-03-10T09:40:48Z</time>
      </trkpt>
      <trkpt lat="49.08112" lon="0.13388">
        <ele>156.7</ele>
        <time>2024-03-10T09:40:49Z</time>
      </trkpt>
      <trkpt lat="49.08117" lon="0.13396">
        <ele>156.7</ele>
        <time>2024-03-10T09:40:50Z</time>
      </trkpt>
      <trkpt lat="49.08122" lon="0.13405">
        <ele>156.6</ele>
        <time>2024-03-10T09:40:51Z</time>
      </trkpt>
      <trkpt lat="49.08126" lon="0.13414">
        <ele>156.6</ele>
        <time>2024-03-10T09:40:52Z</time>
      </trkpt>
      <trkpt lat="49.0813" lon="0.13423">
        <ele>156.4</ele>
        <time>2024-03-10T09:40:53Z</time>
      </trkpt>
      <trkpt lat="49.08134" lon="0.13433">
        <ele>156.3</ele>
        <time>2024-03-10T09:40:54Z</time>
      </trkpt>
      <trkpt lat="49.08137" lon="0.13443">
        <ele>156.1</ele>
        <time>2024-03-10T09:40:55Z</time>
      </trkpt>
      <trkpt lat="49.08139" lon="0.13454">
        <ele>155.9</ele>
        <time>2024-03-10T09:40:56Z</time>
      </trkpt>
      <trkpt lat="49.08142" lon="0.13465">
        <ele>155.8</ele>
        <time>2024-03-10T09:40:57Z</time>
      </trkpt>
      <trkpt lat="49.08145" lon="0.13476">
        <ele>155.6</ele>
        <time>2024-03-10T09:40:58Z</time>
      </trkpt>
      <trkpt lat="49.08147" lon="0.13487">
        <ele>155.5</ele>
        <time>2024-03-10T09:40:59Z</time>
      </trkpt>
      <trkpt lat="49.0815" lon="0.13499">
        <ele>155.3</ele>
        <time>2024-03-10T09:41:00Z</time>
      </trkpt>
      <trkpt lat="49.08152" lon="0.13509">
        <ele>155.2</ele>
        <time>2024-03-10T09:41:01Z</time>
      </trkpt>
      <trkpt lat="49.08155" lon="0.13519">
        <ele>155.1</ele>
        <time>2024-03-10T09:41:02Z</time>
      </trkpt>
      <trkpt lat="49.08158" lon="0.1353">
        <ele>154.9</ele>
        <time>2024-03-10T09:41:03Z</time>
      </trkpt>
      <trkpt lat="49.08161" lon="0.13541">
        <ele>154.7</ele>
        <time>2024-03-10T09:41:04Z</time>
      </trkpt>
      <trkpt lat="49.08163" lon="0.13552">
        <ele>154.5</ele>
        <time>2024-03-10T09:41:05Z</time>
      </trkpt>
      <trkpt lat="49.08165" lon="0.13563">
        <ele>154.3</ele>
        <time>2024-03-10T09:41:06Z</time>
      </trkpt>
      <trkpt lat="49.08167" lon="0.13574">
        <ele>154.1</ele>
        <time>2024-03-10T09:41:07Z</time>
      </trkpt>
      <trkpt lat="49.0817" lon="0.13586">
        <ele>153.9</ele>
        <time>2024-03-10T09:41:08Z</time>
      </trkpt>
      <trkpt lat="49.08173" lon="0.13598">
        <ele>153.8</ele>
        <time>2024-03-10T09:41:09Z</time>
      </trkpt>
      <trkpt lat="49.08176" lon="0.13609">
        <ele>153.7</ele>
        <time>2024-03-10T09:41:10Z</time>
      </trkpt>
      <trkpt lat="49.08179" lon="0.13621">
        <ele>153.6</ele>
        <time>2024-03-10T09:41:11Z</time>
      </trkpt>
      <trkpt lat="49.08182" lon="0.13633">
        <ele>153.6</ele>
        <time>2024-03-10T09:41:12Z</time>
      </trkpt>
      <trkpt lat="49.08185" lon="0.13644">
        <ele>153.6</ele>
        <time>2024-03-10T09:41:13Z</time>
      </trkpt>
      <trkpt lat="49.08188" lon="0.13655">
        <ele>153.7</ele>
        <time>2024-03-10T09:41:14Z</time>
      </trkpt>
      <trkpt lat="49.08192" lon="0.13665">
        <ele>153.8</ele>
        <time>2024-03-10T09:41:15Z</time>
      </trkpt>
      <trkpt lat="49.08195" lon="0.13676">
        <ele>153.8</ele>
        <time>2024-03-10T09:41:16Z</time>
      </trkpt>
      <trkpt lat="49.08198" lon="0.13687">
        <ele>153.9</ele>
        <time>2024-03-10T09:41:17Z</time>
      </trkpt>
      <trkpt lat="49.08201" lon="0.13697">
        <ele>153.9</ele>
        <time>2024-03-10T09:41:18Z</time>
      </trkpt>
      <trkpt lat="49.08204" lon="0.13708">
        <ele>154</ele>
        <time>2024-03-10T09:41:19Z</time>
      </trkpt>
      <trkpt lat="49.08208" lon="0.13717">
        <ele>154.1</ele>
        <time>2024-03-10T09:41:20Z</time>
      </trkpt>
      <trkpt lat="49.08212" lon="0.13727">
        <ele>154.1</ele>
        <time>2024-03-10T09:41:21Z</time>
      </trkpt>
      <trkpt lat="49.08216" lon="0.13736">
        <ele>154.1</ele>
        <time>2024-03-10T09:41:22Z</time>
      </trkpt>
      <trkpt lat="49.08219" lon="0.13745">
        <ele>154.2</ele>
        <time>2024-03-10T09:41:23Z</time>
      </trkpt>
      <trkpt lat="49.08223" lon="0.13754">
        <ele>154.2</ele>
        <time>2024-03-10T09:41:24Z</time>
      </trkpt>
      <trkpt lat="49.08227" lon="0.13764">
        <ele>154.2</ele>
        <time>2024-03-10T09:41:25Z</time>
      </trkpt>
      <trkpt lat="49.08231" lon="0.13772">
        <ele>154.3</ele>
        <time>2024-03-10T09:41:26Z</time>
      </trkpt>
      <trkpt lat="49.08236" lon="0.13781">
        <ele>154.3</ele>
        <time>2024-03-10T09:41:27Z</time>
      </trkpt>
      <trkpt lat="49.0824" lon="0.13788">
        <ele>154.4</ele>
        <time>2024-03-10T09:41:28Z</time>
      </trkpt>
      <trkpt lat="49.08246" lon="0.13796">
        <ele>154.4</ele>
        <time>2024-03-10T09:41:29Z</time>
      </trkpt>
      <trkpt lat="49.08251" lon="0.13803">
        <ele>154.5</ele>
        <time>2024-03-10T09:41:30Z</time>
      </trkpt>
      <trkpt lat="49.08256" lon="0.1381">
        <ele>154.5</ele>
        <time>2024-03-10T09:41:31Z</time>
      </trkpt>
      <trkpt lat="49.08262" lon="0.13817">
        <ele>154.6</ele>
        <time>2024-03-10T09:41:32Z</time>
      </trkpt>
      <trkpt lat="49.08267" lon="0.13823">
        <ele>154.7</ele>
        <time>2024-03-10T09:41:33Z</time>
      </trkpt>
      <trkpt lat="49.08273" lon="0.1383">
        <ele>154.8</ele>
        <time>2024-03-10T09:41:34Z</time>
      </trkpt>
      <trkpt lat="49.08279" lon="0.13836">
        <ele>154.9</ele>
        <time>2024-03-10T09:41:35Z</time>
      </trkpt>
      <trkpt lat="49.08284" lon="0.13842">
        <ele>154.9</ele>
        <time>2024-03-10T09:41:36Z</time>
      </trkpt>
      <trkpt lat="49.0829" lon="0.13847">
        <ele>155</ele>
        <time>2024-03-10T09:41:37Z</time>
      </trkpt>
      <trkpt lat="49.08296" lon="0.13852">
        <ele>155</ele>
        <time>2024-03-10T09:41:38Z</time>
      </trkpt>
      <trkpt lat="49.08302" lon="0.13858">
        <ele>155.1</ele>
        <time>2024-03-10T09:41:39Z</time>
      </trkpt>
      <trkpt lat="49.08308" lon="0.13862">
        <ele>155.1</ele>
        <time>2024-03-10T09:41:40Z</time>
      </trkpt>
      <trkpt lat="49.08314" lon="0.13867">
        <ele>155.2</ele>
        <time>2024-03-10T09:41:41Z</time>
      </trkpt>
      <trkpt lat="49.0832" lon="0.13871">
        <ele>155.3</ele>
        <time>2024-03-10T09:41:42Z</time>
      </trkpt>
      <trkpt lat="49.08326" lon="0.13876">
        <ele>155.3</ele>
        <time>2024-03-10T09:41:43Z</time>
      </trkpt>
      <trkpt lat="49.08332" lon="0.1388">
        <ele>155.4</ele>
        <time>2024-03-10T09:41:44Z</time>
      </trkpt>
      <trkpt lat="49.08338" lon="0.13884">
        <ele>155.5</ele>
        <time>2024-03-10T09:41:45Z</time>
      </trkpt>
      <trkpt lat="49.08344" lon="0.13888">
        <ele>155.6</ele>
        <time>2024-03-10T09:41:46Z</time>
      </trkpt>
      <trkpt lat="49.0835" lon="0.13892">
        <ele>155.7</ele>
        <time>2024-03-10T09:41:47Z</time>
      </trkpt>
      <trkpt lat="49.08356" lon="0.13896">
        <ele>155.9</ele>
        <time>2024-03-10T09:41:48Z</time>
      </trkpt>
      <trkpt lat="49.08362" lon="0.139">
        <ele>156</ele>
        <time>2024-03-10T09:41:49Z</time>
      </trkpt>
      <trkpt lat="49.08367" lon="0.13904">
        <ele>156.1</ele>
        <time>2024-03-10T09:41:50Z</time>
      </trkpt>
      <trkpt lat="49.08373" lon="0.13909">
        <ele>156.3</ele>
        <time>2024-03-10T09:41:51Z</time>
      </trkpt>
      <trkpt lat="49.08378" lon="0.13914">
        <ele>156.4</ele>
        <time>2024-03-10T09:41:52Z</time>
      </trkpt>
      <trkpt lat="49.08383" lon="0.13918">
        <ele>156.5</ele>
        <time>2024-03-10T09:41:53Z</time>
      </trkpt>
      <trkpt lat="49.08387" lon="0.13923">
        <ele>156.6</ele>
        <time>2024-03-10T09:41:54Z</time>
      </trkpt>
      <trkpt lat="49.08392" lon="0.13928">
        <ele>156.7</ele>
        <time>2024-03-10T09:41:55Z</time>
      </trkpt>
      <trkpt lat="49.08396" lon="0.13934">
        <ele>156.9</ele>
        <time>2024-03-10T09:41:56Z</time>
      </trkpt>
      <trkpt lat="49.08401" lon="0.1394">
        <ele>157</ele>
        <time>2024-03-10T09:41:57Z</time>
      </trkpt>
      <trkpt lat="49.08405" lon="0.13946">
        <ele>157.2</ele>
        <time>2024-03-10T09:41:58Z</time>
      </trkpt>
      <trkpt lat="49.08409" lon="0.13952">
        <ele>157.4</ele>
        <time>2024-03-10T09:41:59Z</time>
      </trkpt>
      <trkpt lat="49.08413" lon="0.13958">
        <ele>157.5</ele>
        <time>2024-03-10T09:42:00Z</time>
      </trkpt>
      <trkpt lat="49.08418" lon="0.13964">
        <ele>157.7</ele>
        <time>2024-03-10T09:42:01Z</time>
      </trkpt>
      <trkpt lat="49.08422" lon="0.1397">
        <ele>157.8</ele>
        <time>2024-03-10T09:42:02Z</time>
      </trkpt>
      <trkpt lat="49.08426" lon="0.13976">
        <ele>157.9</ele>
        <time>2024-03-10T09:42:03Z</time>
      </trkpt>
      <trkpt lat="49.0843" lon="0.13982">
        <ele>158</ele>
        <time>2024-03-10T09:42:04Z</time>
      </trkpt>
      <trkpt lat="49.08434" lon="0.13989">
        <ele>158.1</ele>
        <time>2024-03-10T09:42:05Z</time>
      </trkpt>
      <trkpt lat="49.08439" lon="0.13994">
        <ele>158.2</ele>
        <time>2024-03-10T09:42:06Z</time>
      </trkpt>
      <trkpt lat="49.08443" lon="0.14">
        <ele>158.3</ele>
        <time>2024-03-10T09:42:07Z</time>
      </trkpt>
      <trkpt lat="49.08448" lon="0.14006">
        <ele>158.5</ele>
        <time>2024-03-10T09:42:08Z</time>
      </trkpt>
      <trkpt lat="49.08451" lon="0.14011">
        <ele>158.6</ele>
        <time>2024-03-10T09:42:09Z</time>
      </trkpt>
      <trkpt lat="49.08456" lon="0.14017">
        <ele>158.8</ele>
        <time>2024-03-10T09:42:10Z</time>
      </trkpt>
      <trkpt lat="49.0846" lon="0.14023">
        <ele>159</ele>
        <time>2024-03-10T09:42:11Z</time>
      </trkpt>
      <trkpt lat="49.08464" lon="0.14029">
        <ele>159.2</ele>
        <time>2024-03-10T09:42:12Z</time>
      </trkpt>
      <trkpt lat="49.08469" lon="0.14035">
        <ele>159.4</ele>
        <time>2024-03-10T09:42:13Z</time>
      </trkpt>
      <trkpt lat="49.08472" lon="0.14041">
        <ele>159.6</ele>
        <time>2024-03-10T09:42:14Z</time>
      </trkpt>
      <trkpt lat="49.08476" lon="0.14047">
        <ele>159.7</ele>
        <time>2024-03-10T09:42:15Z</time>
      </trkpt>
      <trkpt lat="49.0848" lon="0.14053">
        <ele>159.9</ele>
        <time>2024-03-10T09:42:16Z</time>
      </trkpt>
      <trkpt lat="49.08485" lon="0.14059">
        <ele>160.1</ele>
        <time>2024-03-10T09:42:17Z</time>
      </trkpt>
      <trkpt lat="49.08489" lon="0.14065">
        <ele>160.3</ele>
        <time>2024-03-10T09:42:18Z</time>
      </trkpt>
      <trkpt lat="49.08494" lon="0.1407">
        <ele>160.6</ele>
        <time>2024-03-10T09:42:19Z</time>
      </trkpt>
      <trkpt lat="49.08498" lon="0.14076">
        <ele>160.8</ele>
        <time>2024-03-10T09:42:20Z</time>
      </trkpt>
      <trkpt lat="49.08502" lon="0.14082">
        <ele>161</ele>
        <time>2024-03-10T09:42:21Z</time>
      </trkpt>
      <trkpt lat="49.08506" lon="0.14088">
        <ele>161.2</ele>
        <time>2024-03-10T09:42:22Z</time>
      </trkpt>
      <trkpt lat="49.0851" lon="0.14093">
        <ele>161.4</ele>
        <time>2024-03-10T09:42:23Z</time>
      </trkpt>
      <trkpt lat="49.08514" lon="0.14098">
        <ele>161.6</ele>
        <time>2024-03-10T09:42:24Z</time>
      </trkpt>
      <trkpt lat="49.08518" lon="0.14103">
        <ele>161.8</ele>
        <time>2024-03-10T09:42:25Z</time>
      </trkpt>
      <trkpt lat="49.08522" lon="0.14109">
        <ele>162</ele>
        <time>2024-03-10T09:42:26Z</time>
      </trkpt>
      <trkpt lat="49.08525" lon="0.14114">
        <ele>162.2</ele>
        <time>2024-03-10T09:42:27Z</time>
      </trkpt>
      <trkpt lat="49.08529" lon="0.1412">
        <ele>162.3</ele>
        <time>2024-03-10T09:42:28Z</time>
      </trkpt>
      <trkpt lat="49.08533" lon="0.14126">
        <ele>162.5</ele>
        <time>2024-03-10T09:42:29Z</time>
      </trkpt>
      <trkpt lat="49.08538" lon="0.14132">
        <ele>162.7</ele>
        <time>2024-03-10T09:42:30Z</time>
      </trkpt>
      <trkpt lat="49.08542" lon="0.14138">
        <ele>162.8</ele>
        <time>2024-03-10T09:42:31Z</time>
      </trkpt>
      <trkpt lat="49.08545" lon="0.14143">
        <ele>162.9</ele>
        <time>2024-03-10T09:42:32Z</time>
      </trkpt>
      <trkpt lat="49.0855" lon="0.14149">
        <ele>163.1</ele>
        <time>2024-03-10T09:42:33Z</time>
      </trkpt>
      <trkpt lat="49.08554" lon="0.14155">
        <ele>163.3</ele>
        <time>2024-03-10T09:42:34Z</time>
      </trkpt>
      <trkpt lat="49.08558" lon="0.1416">
        <ele>163.4</ele>
        <time>2024-03-10T09:42:35Z</time>
      </trkpt>
      <trkpt lat="49.08562" lon="0.14165">
        <ele>163.6</ele>
        <time>2024-03-10T09:42:36Z</time>
      </trkpt>
      <trkpt lat="49.08565" lon="0.14171">
        <ele>163.7</ele>
        <time>2024-03-10T09:42:37Z</time>
      </trkpt>
      <trkpt lat="49.08569" lon="0.14175">
        <ele>163.9</ele>
        <time>2024-03-10T09:42:38Z</time>
      </trkpt>
      <trkpt lat="49.08574" lon="0.14181">
        <ele>164</ele>
        <time>2024-03-10T09:42:39Z</time>
      </trkpt>
      <trkpt lat="49.08578" lon="0.14186">
        <ele>164.2</ele>
        <time>2024-03-10T09:42:40Z</time>
      </trkpt>
      <trkpt lat="49.08582" lon="0.14191">
        <ele>164.3</ele>
        <time>2024-03-10T09:42:41Z</time>
      </trkpt>
      <trkpt lat="49.08586" lon="0.14196">
        <ele>164.4</ele>
        <time>2024-03-10T09:42:42Z</time>
      </trkpt>
      <trkpt lat="49.08589" lon="0.14201">
        <ele>164.5</ele>
        <time>2024-03-10T09:42:43Z</time>
      </trkpt>
      <trkpt lat="49.08593" lon="0.14206">
        <ele>164.6</ele>
        <time>2024-03-10T09:42:44Z</time>
      </trkpt>
      <trkpt lat="49.08597" lon="0.14211">
        <ele>164.8</ele>
        <time>2024-03-10T09:42:45Z</time>
      </trkpt>
      <trkpt lat="49.08601" lon="0.14216">
        <ele>164.9</ele>
        <time>2024-03-10T09:42:46Z</time>
      </trkpt>
      <trkpt lat="49.08606" lon="0.14221">
        <ele>165</ele>
        <time>2024-03-10T09:42:47Z</time>
      </trkpt>
      <trkpt lat="49.0861" lon="0.14227">
        <ele>165.1</ele>
        <time>2024-03-10T09:42:48Z</time>
      </trkpt>
      <trkpt lat="49.08613" lon="0.14233">
        <ele>165.2</ele>
        <time>2024-03-10T09:42:49Z</time>
      </trkpt>
      <trkpt lat="49.08617" lon="0.1424">
        <ele>165.3</ele>
        <time>2024-03-10T09:42:50Z</time>
      </trkpt>
      <trkpt lat="49.08621" lon="0.14246">
        <ele>165.4</ele>
        <time>2024-03-10T09:42:51Z</time>
      </trkpt>
      <trkpt lat="49.08625" lon="0.14251">
        <ele>165.5</ele>
        <time>2024-03-10T09:42:52Z</time>
      </trkpt>
      <trkpt lat="49.0863" lon="0.14257">
        <ele>165.6</ele>
        <time>2024-03-10T09:42:53Z</time>
      </trkpt>
      <trkpt lat="49.08634" lon="0.14263">
        <ele>165.7</ele>
        <time>2024-03-10T09:42:54Z</time>
      </trkpt>
      <trkpt lat="49.08638" lon="0.14269">
        <ele>165.8</ele>
        <time>2024-03-10T09:42:55Z</time>
      </trkpt>
      <trkpt lat="49.08643" lon="0.14275">
        <ele>165.9</ele>
        <time>2024-03-10T09:42:56Z</time>
      </trkpt>
      <trkpt lat="49.08648" lon="0.14281">
        <ele>166</ele>
        <time>2024-03-10T09:42:57Z</time>
      </trkpt>
      <trkpt lat="49.08652" lon="0.14287">
        <ele>166.1</ele>
        <time>2024-03-10T09:42:58Z</time>
      </trkpt>
      <trkpt lat="49.08656" lon="0.14293">
        <ele>166.3</ele>
        <time>2024-03-10T09:42:59Z</time>
      </trkpt>
      <trkpt lat="49.0866" lon="0.14298">
        <ele>166.4</ele>
        <time>2024-03-10T09:43:00Z</time>
      </trkpt>
      <trkpt lat="49.08664" lon="0.14304">
        <ele>166.5</ele>
        <time>2024-03-10T09:43:01Z</time>
      </trkpt>
      <trkpt lat="49.08669" lon="0.14311">
        <ele>166.7</ele>
        <time>2024-03-10T09:43:02Z</time>
      </trkpt>
      <trkpt lat="49.08673" lon="0.14317">
        <ele>166.8</ele>
        <time>2024-03-10T09:43:03Z</time>
      </trkpt>
      <trkpt lat="49.08678" lon="0.14323">
        <ele>167</ele>
        <time>2024-03-10T09:43:04Z</time>
      </trkpt>
      <trkpt lat="49.08682" lon="0.1433">
        <ele>167.1</ele>
        <time>2024-03-10T09:43:05Z</time>
      </trkpt>
      <trkpt lat="49.08687" lon="0.14336">
        <ele>167.3</ele>
        <time>2024-03-10T09:43:06Z</time>
      </trkpt>
      <trkpt lat="49.08692" lon="0.14342">
        <ele>167.5</ele>
        <time>2024-03-10T09:43:07Z</time>
      </trkpt>
      <trkpt lat="49.08696" lon="0.14348">
        <ele>167.6</ele>
        <time>2024-03-10T09:43:08Z</time>
      </trkpt>
      <trkpt lat="49.087" lon="0.14353">
        <ele>167.7</ele>
        <time>2024-03-10T09:43:09Z</time>
      </trkpt>
      <trkpt lat="49.08705" lon="0.14359">
        <ele>167.8</ele>
        <time>2024-03-10T09:43:10Z</time>
      </trkpt>
      <trkpt lat="49.08709" lon="0.14366">
        <ele>167.9</ele>
        <time>2024-03-10T09:43:11Z</time>
      </trkpt>
      <trkpt lat="49.08714" lon="0.14373">
        <ele>168.1</ele>
        <time>2024-03-10T09:43:12Z</time>
      </trkpt>
      <trkpt lat="49.08719" lon="0.14379">
        <ele>168.2</ele>
        <time>2024-03-10T09:43:13Z</time>
      </trkpt>
      <trkpt lat="49.08723" lon="0.14385">
        <ele>168.3</ele>
        <time>2024-03-10T09:43:14Z</time>
      </trkpt>
      <trkpt lat="49.08727" lon="0.14391">
        <ele>168.4</ele>
        <time>2024-03-10T09:43:15Z</time>
      </trkpt>
      <trkpt lat="49.08731" lon="0.14399">
        <ele>168.6</ele>
        <time>2024-03-10T09:43:16Z</time>
      </trkpt>
      <trkpt lat="49.08736" lon="0.14405">
        <ele>168.7</ele>
        <time>2024-03-10T09:43:17Z</time>
      </trkpt>
      <trkpt lat="49.08741" lon="0.14411">
        <ele>168.7</ele>
        <time>2024-03-10T09:43:18Z</time>
      </trkpt>
      <trkpt lat="49.08746" lon="0.14418">
        <ele>168.8</ele>
        <time>2024-03-10T09:43:19Z</time>
      </trkpt>
      <trkpt lat="49.08751" lon="0.14424">
        <ele>168.9</ele>
        <time>2024-03-10T09:43:20Z</time>
      </trkpt>
      <trkpt lat="49.08755" lon="0.1443">
        <ele>169</ele>
        <time>2024-03-10T09:43:21Z</time>
      </trkpt>
      <trkpt lat="49.0876" lon="0.14437">
        <ele>169.1</ele>
        <time>2024-03-10T09:43:22Z</time>
      </trkpt>
      <trkpt lat="49.08764" lon="0.14442">
        <ele>169.2</ele>
        <time>2024-03-10T09:43:23Z</time>
      </trkpt>
      <trkpt lat="49.08768" lon="0.14448">
        <ele>169.2</ele>
        <time>2024-03-10T09:43:24Z</time>
      </trkpt>
      <trkpt lat="49.08773" lon="0.14453">
        <ele>169.3</ele>
        <time>2024-03-10T09:43:25Z</time>
      </trkpt>
      <trkpt lat="49.08777" lon="0.14459">
        <ele>169.4</ele>
        <time>2024-03-10T09:43:26Z</time>
      </trkpt>
      <trkpt lat="49.08782" lon="0.14465">
        <ele>169.4</ele>
        <time>2024-03-10T09:43:27Z</time>
      </trkpt>
      <trkpt lat="49.08787" lon="0.14471">
        <ele>169.4</ele>
        <time>2024-03-10T09:43:28Z</time>
      </trkpt>
      <trkpt lat="49.08792" lon="0.14477">
        <ele>169.4</ele>
        <time>2024-03-10T09:43:29Z</time>
      </trkpt>
      <trkpt lat="49.08796" lon="0.14483">
        <ele>169.4</ele>
        <time>2024-03-10T09:43:30Z</time>
      </trkpt>
      <trkpt lat="49.088" lon="0.14489">
        <ele>169.4</ele>
        <time>2024-03-10T09:43:31Z</time>
      </trkpt>
      <trkpt lat="49.08804" lon="0.14495">
        <ele>169.4</ele>
        <time>2024-03-10T09:43:32Z</time>
      </trkpt>
      <trkpt lat="49.08809" lon="0.14501">
        <ele>169.5</ele>
        <time>2024-03-10T09:43:33Z</time>
      </trkpt>
      <trkpt lat="49.08814" lon="0.14509">
        <ele>169.5</ele>
        <time>2024-03-10T09:43:34Z</time>
      </trkpt>
      <trkpt lat="49.0882" lon="0.14515">
        <ele>169.6</ele>
        <time>2024-03-10T09:43:35Z</time>
      </trkpt>
      <trkpt lat="49.08825" lon="0.14522">
        <ele>169.6</ele>
        <time>2024-03-10T09:43:36Z</time>
      </trkpt>
      <trkpt lat="49.08831" lon="0.14529">
        <ele>169.7</ele>
        <time>2024-03-10T09:43:37Z</time>
      </trkpt>
      <trkpt lat="49.08835" lon="0.14536">
        <ele>169.8</ele>
        <time>2024-03-10T09:43:38Z</time>
      </trkpt>
      <trkpt lat="49.0884" lon="0.14542">
        <ele>169.9</ele>
        <time>2024-03-10T09:43:39Z</time>
      </trkpt>
      <trkpt lat="49.08845" lon="0.14548">
        <ele>169.9</ele>
        <time>2024-03-10T09:43:40Z</time>
      </trkpt>
      <trkpt lat="49.08848" lon="0.14554">
        <ele>170</ele>
        <time>2024-03-10T09:43:41Z</time>
      </trkpt>
      <trkpt lat="49.08853" lon="0.14561">
        <ele>170</ele>
        <time>2024-03-10T09:43:42Z</time>
      </trkpt>
      <trkpt lat="49.08857" lon="0.14568">
        <ele>170</ele>
        <time>2024-03-10T09:43:43Z</time>
      </trkpt>
      <trkpt lat="49.08861" lon="0.14573">
        <ele>170</ele>
        <time>2024-03-10T09:43:44Z</time>
      </trkpt>
      <trkpt lat="49.08866" lon="0.14579">
        <ele>170.1</ele>
        <time>2024-03-10T09:43:45Z</time>
      </trkpt>
      <trkpt lat="49.0887" lon="0.14585">
        <ele>170.1</ele>
        <time>2024-03-10T09:43:46Z</time>
      </trkpt>
      <trkpt lat="49.08875" lon="0.14592">
        <ele>170.1</ele>
        <time>2024-03-10T09:43:47Z</time>
      </trkpt>
      <trkpt lat="49.08879" lon="0.14599">
        <ele>170.1</ele>
        <time>2024-03-10T09:43:48Z</time>
      </trkpt>
      <trkpt lat="49.08884" lon="0.14606">
        <ele>170.1</ele>
        <time>2024-03-10T09:43:49Z</time>
      </trkpt>
      <trkpt lat="49.08889" lon="0.14613">
        <ele>170.2</ele>
        <time>2024-03-10T09:43:50Z</time>
      </trkpt>
      <trkpt lat="49.08894" lon="0.1462">
        <ele>170.2</ele>
        <time>2024-03-10T09:43:51Z</time>
      </trkpt>
      <trkpt lat="49.08898" lon="0.14627">
        <ele>170.3</ele>
        <time>2024-03-10T09:43:52Z</time>
      </trkpt>
      <trkpt lat="49.08903" lon="0.14634">
        <ele>170.4</ele>
        <time>2024-03-10T09:43:53Z</time>
      </trkpt>
      <trkpt lat="49.08908" lon="0.1464">
        <ele>170.5</ele>
        <time>2024-03-10T09:43:54Z</time>
      </trkpt>
      <trkpt lat="49.08913" lon="0.14647">
        <ele>170.6</ele>
        <time>2024-03-10T09:43:55Z</time>
      </trkpt>
      <trkpt lat="49.08918" lon="0.14653">
        <ele>170.7</ele>
        <time>2024-03-10T09:43:56Z</time>
      </trkpt>
      <trkpt lat="49.08922" lon="0.14659">
        <ele>170.7</ele>
        <time>2024-03-10T09:43:57Z</time>
      </trkpt>
      <trkpt lat="49.08926" lon="0.14664">
        <ele>170.8</ele>
        <time>2024-03-10T09:43:58Z</time>
      </trkpt>
      <trkpt lat="49.08931" lon="0.1467">
        <ele>170.9</ele>
        <time>2024-03-10T09:43:59Z</time>
      </trkpt>
      <trkpt lat="49.08936" lon="0.14675">
        <ele>170.9</ele>
        <time>2024-03-10T09:44:00Z</time>
      </trkpt>
      <trkpt lat="49.0894" lon="0.14681">
        <ele>171</ele>
        <time>2024-03-10T09:44:01Z</time>
      </trkpt>
      <trkpt lat="49.08944" lon="0.14686">
        <ele>171.1</ele>
        <time>2024-03-10T09:44:02Z</time>
      </trkpt>
      <trkpt lat="49.08948" lon="0.14691">
        <ele>171.1</ele>
        <time>2024-03-10T09:44:03Z</time>
      </trkpt>
      <trkpt lat="49.08952" lon="0.14696">
        <ele>171.2</ele>
        <time>2024-03-10T09:44:04Z</time>
      </trkpt>
      <trkpt lat="49.08956" lon="0.14702">
        <ele>171.3</ele>
        <time>2024-03-10T09:44:05Z</time>
      </trkpt>
      <trkpt lat="49.0896" lon="0.14707">
        <ele>171.4</ele>
        <time>2024-03-10T09:44:06Z</time>
      </trkpt>
      <trkpt lat="49.08964" lon="0.14712">
        <ele>171.4</ele>
        <time>2024-03-10T09:44:07Z</time>
      </trkpt>
      <trkpt lat="49.08968" lon="0.14717">
        <ele>171.5</ele>
        <time>2024-03-10T09:44:08Z</time>
      </trkpt>
      <trkpt lat="49.08971" lon="0.14721">
        <ele>171.6</ele>
        <time>2024-03-10T09:44:09Z</time>
      </trkpt>
      <trkpt lat="49.08973" lon="0.14724">
        <ele>171.7</ele>
        <time>2024-03-10T09:44:10Z</time>
      </trkpt>
      <trkpt lat="49.08975" lon="0.14728">
        <ele>171.8</ele>
        <time>2024-03-10T09:44:11Z</time>
      </trkpt>
      <trkpt lat="49.08976" lon="0.14729">
        <ele>171.8</ele>
        <time>2024-03-10T09:44:12Z</time>
      </trkpt>
      <trkpt lat="49.08979" lon="0.14732">
        <ele>171.9</ele>
        <time>2024-03-10T09:44:13Z</time>
      </trkpt>
      <trkpt lat="49.0898" lon="0.14733">
        <ele>171.9</ele>
        <time>2024-03-10T09:44:14Z</time>
      </trkpt>
      <trkpt lat="49.08983" lon="0.14735">
        <ele>172</ele>
        <time>2024-03-10T09:44:15Z</time>
      </trkpt>
      <trkpt lat="49.08988" lon="0.14736">
        <ele>172.1</ele>
        <time>2024-03-10T09:44:16Z</time>
      </trkpt>
      <trkpt lat="49.08993" lon="0.14736">
        <ele>172.3</ele>
        <time>2024-03-10T09:44:17Z</time>
      </trkpt>
      <trkpt lat="49.08999" lon="0.14734">
        <ele>172.3</ele>
        <time>2024-03-10T09:44:18Z</time>
      </trkpt>
      <trkpt lat="49.09004" lon="0.14732">
        <ele>172.3</ele>
        <time>2024-03-10T09:44:19Z</time>
      </trkpt>
      <trkpt lat="49.09009" lon="0.1473">
        <ele>172.4</ele>
        <time>2024-03-10T09:44:20Z</time>
      </trkpt>
      <trkpt lat="49.09014" lon="0.14727">
        <ele>172.4</ele>
        <time>2024-03-10T09:44:21Z</time>
      </trkpt>
      <trkpt lat="49.09019" lon="0.14724">
        <ele>172.4</ele>
        <time>2024-03-10T09:44:22Z</time>
      </trkpt>
      <trkpt lat="49.09024" lon="0.1472">
        <ele>172.4</ele>
        <time>2024-03-10T09:44:23Z</time>
      </trkpt>
      <trkpt lat="49.0903" lon="0.14716">
        <ele>172.4</ele>
        <time>2024-03-10T09:44:24Z</time>
      </trkpt>
      <trkpt lat="49.09036" lon="0.14712">
        <ele>172.4</ele>
        <time>2024-03-10T09:44:25Z</time>
      </trkpt>
      <trkpt lat="49.09043" lon="0.14707">
        <ele>172.4</ele>
        <time>2024-03-10T09:44:26Z</time>
      </trkpt>
      <trkpt lat="49.09049" lon="0.14702">
        <ele>172.4</ele>
        <time>2024-03-10T09:44:27Z</time>
      </trkpt>
      <trkpt lat="49.09056" lon="0.14697">
        <ele>172.4</ele>
        <time>2024-03-10T09:44:28Z</time>
      </trkpt>
      <trkpt lat="49.09063" lon="0.14692">
        <ele>172.4</ele>
        <time>2024-03-10T09:44:29Z</time>
      </trkpt>
      <trkpt lat="49.09069" lon="0.14687">
        <ele>172.4</ele>
        <time>2024-03-10T09:44:30Z</time>
      </trkpt>
      <trkpt lat="49.09076" lon="0.14682">
        <ele>172.5</ele>
        <time>2024-03-10T09:44:31Z</time>
      </trkpt>
      <trkpt lat="49.09083" lon="0.14677">
        <ele>172.5</ele>
        <time>2024-03-10T09:44:32Z</time>
      </trkpt>
      <trkpt lat="49.0909" lon="0.14672">
        <ele>172.5</ele>
        <time>2024-03-10T09:44:33Z</time>
      </trkpt>
      <trkpt lat="49.09096" lon="0.14667">
        <ele>172.5</ele>
        <time>2024-03-10T09:44:34Z</time>
      </trkpt>
      <trkpt lat="49.09103" lon="0.14662">
        <ele>172.5</ele>
        <time>2024-03-10T09:44:35Z</time>
      </trkpt>
      <trkpt lat="49.0911" lon="0.14658">
        <ele>172.5</ele>
        <time>2024-03-10T09:44:36Z</time>
      </trkpt>
      <trkpt lat="49.09117" lon="0.14653">
        <ele>172.5</ele>
        <time>2024-03-10T09:44:37Z</time>
      </trkpt>
      <trkpt lat="49.09124" lon="0.14647">
        <ele>172.5</ele>
        <time>2024-03-10T09:44:38Z</time>
      </trkpt>
      <trkpt lat="49.09131" lon="0.14642">
        <ele>172.4</ele>
        <time>2024-03-10T09:44:39Z</time>
      </trkpt>
      <trkpt lat="49.09138" lon="0.14637">
        <ele>172.4</ele>
        <time>2024-03-10T09:44:40Z</time>
      </trkpt>
      <trkpt lat="49.09145" lon="0.14632">
        <ele>172.3</ele>
        <time>2024-03-10T09:44:41Z</time>
      </trkpt>
      <trkpt lat="49.09152" lon="0.14628">
        <ele>172.3</ele>
        <time>2024-03-10T09:44:42Z</time>
      </trkpt>
      <trkpt lat="49.09159" lon="0.14624">
        <ele>172.2</ele>
        <time>2024-03-10T09:44:43Z</time>
      </trkpt>
      <trkpt lat="49.09166" lon="0.1462">
        <ele>172.2</ele>
        <time>2024-03-10T09:44:44Z</time>
      </trkpt>
      <trkpt lat="49.09173" lon="0.14616">
        <ele>172.1</ele>
        <time>2024-03-10T09:44:45Z</time>
      </trkpt>
      <trkpt lat="49.0918" lon="0.14612">
        <ele>172.1</ele>
        <time>2024-03-10T09:44:46Z</time>
      </trkpt>
      <trkpt lat="49.09188" lon="0.14609">
        <ele>172</ele>
        <time>2024-03-10T09:44:47Z</time>
      </trkpt>
      <trkpt lat="49.09195" lon="0.14606">
        <ele>171.9</ele>
        <time>2024-03-10T09:44:48Z</time>
      </trkpt>
      <trkpt lat="49.09203" lon="0.14603">
        <ele>171.9</ele>
        <time>2024-03-10T09:44:49Z</time>
      </trkpt>
      <trkpt lat="49.09211" lon="0.14599">
        <ele>171.8</ele>
        <time>2024-03-10T09:44:50Z</time>
      </trkpt>
      <trkpt lat="49.09219" lon="0.14597">
        <ele>171.7</ele>
        <time>2024-03-10T09:44:51Z</time>
      </trkpt>
      <trkpt lat="49.09227" lon="0.14594">
        <ele>171.7</ele>
        <time>2024-03-10T09:44:52Z</time>
      </trkpt>
      <trkpt lat="49.09235" lon="0.14591">
        <ele>171.6</ele>
        <time>2024-03-10T09:44:53Z</time>
      </trkpt>
      <trkpt lat="49.09243" lon="0.14589">
        <ele>171.6</ele>
        <time>2024-03-10T09:44:54Z</time>
      </trkpt>
      <trkpt lat="49.09251" lon="0.14586">
        <ele>171.5</ele>
        <time>2024-03-10T09:44:55Z</time>
      </trkpt>
      <trkpt lat="49.09259" lon="0.14583">
        <ele>171.4</ele>
        <time>2024-03-10T09:44:56Z</time>
      </trkpt>
      <trkpt lat="49.09267" lon="0.1458">
        <ele>171.4</ele>
        <time>2024-03-10T09:44:57Z</time>
      </trkpt>
      <trkpt lat="49.09275" lon="0.14577">
        <ele>171.4</ele>
        <time>2024-03-10T09:44:58Z</time>
      </trkpt>
      <trkpt lat="49.09282" lon="0.14575">
        <ele>171.3</ele>
        <time>2024-03-10T09:44:59Z</time>
      </trkpt>
      <trkpt lat="49.0929" lon="0.14573">
        <ele>171.3</ele>
        <time>2024-03-10T09:45:00Z</time>
      </trkpt>
      <trkpt lat="49.09298" lon="0.1457">
        <ele>171.3</ele>
        <time>2024-03-10T09:45:01Z</time>
      </trkpt>
      <trkpt lat="49.09306" lon="0.14567">
        <ele>171.3</ele>
        <time>2024-03-10T09:45:02Z</time>
      </trkpt>
      <trkpt lat="49.09313" lon="0.14565">
        <ele>171.3</ele>
        <time>2024-03-10T09:45:03Z</time>
      </trkpt>
      <trkpt lat="49.0932" lon="0.14563">
        <ele>171.3</ele>
        <time>2024-03-10T09:45:04Z</time>
      </trkpt>
      <trkpt lat="49.09327" lon="0.14562">
        <ele>171.3</ele>
        <time>2024-03-10T09:45:05Z</time>
      </trkpt>
      <trkpt lat="49.09334" lon="0.14561">
        <ele>171.4</ele>
        <time>2024-03-10T09:45:06Z</time>
      </trkpt>
      <trkpt lat="49.09341" lon="0.1456">
        <ele>171.4</ele>
        <time>2024-03-10T09:45:07Z</time>
      </trkpt>
      <trkpt lat="49.09347" lon="0.14561">
        <ele>171.4</ele>
        <time>2024-03-10T09:45:08Z</time>
      </trkpt>
      <trkpt lat="49.09353" lon="0.14562">
        <ele>171.4</ele>
        <time>2024-03-10T09:45:09Z</time>
      </trkpt>
      <trkpt lat="49.09359" lon="0.14565">
        <ele>171.4</ele>
        <time>2024-03-10T09:45:10Z</time>
      </trkpt>
      <trkpt lat="49.09364" lon="0.14572">
        <ele>171.4</ele>
        <time>2024-03-10T09:45:11Z</time>
      </trkpt>
      <trkpt lat="49.09368" lon="0.1458">
        <ele>171.3</ele>
        <time>2024-03-10T09:45:12Z</time>
      </trkpt>
      <trkpt lat="49.09371" lon="0.14588">
        <ele>171.2</ele>
        <time>2024-03-10T09:45:13Z</time>
      </trkpt>
      <trkpt lat="49.09374" lon="0.14596">
        <ele>171.2</ele>
        <time>2024-03-10T09:45:14Z</time>
      </trkpt>
      <trkpt lat="49.09376" lon="0.14604">
        <ele>171.2</ele>
        <time>2024-03-10T09:45:15Z</time>
      </trkpt>
      <trkpt lat="49.09379" lon="0.14612">
        <ele>171.2</ele>
        <time>2024-03-10T09:45:16Z</time>
      </trkpt>
      <trkpt lat="49.09381" lon="0.14618">
        <ele>171.2</ele>
        <time>2024-03-10T09:45:17Z</time>
      </trkpt>
      <trkpt lat="49.09384" lon="0.14625">
        <ele>171.2</ele>
        <time>2024-03-10T09:45:18Z</time>
      </trkpt>
      <trkpt lat="49.09386" lon="0.14632">
        <ele>171.3</ele>
        <time>2024-03-10T09:45:19Z</time>
      </trkpt>
      <trkpt lat="49.09389" lon="0.14639">
        <ele>171.3</ele>
        <time>2024-03-10T09:45:20Z</time>
      </trkpt>
      <trkpt lat="49.09391" lon="0.14645">
        <ele>171.4</ele>
        <time>2024-03-10T09:45:21Z</time>
      </trkpt>
      <trkpt lat="49.09394" lon="0.14652">
        <ele>171.4</ele>
        <time>2024-03-10T09:45:22Z</time>
      </trkpt>
      <trkpt lat="49.09396" lon="0.1466">
        <ele>171.4</ele>
        <time>2024-03-10T09:45:23Z</time>
      </trkpt>
      <trkpt lat="49.09399" lon="0.14668">
        <ele>171.5</ele>
        <time>2024-03-10T09:45:24Z</time>
      </trkpt>
      <trkpt lat="49.09401" lon="0.14676">
        <ele>171.5</ele>
        <time>2024-03-10T09:45:25Z</time>
      </trkpt>
      <trkpt lat="49.09404" lon="0.14685">
        <ele>171.6</ele>
        <time>2024-03-10T09:45:26Z</time>
      </trkpt>
      <trkpt lat="49.09406" lon="0.14693">
        <ele>171.6</ele>
        <time>2024-03-10T09:45:27Z</time>
      </trkpt>
      <trkpt lat="49.09409" lon="0.14701">
        <ele>171.7</ele>
        <time>2024-03-10T09:45:28Z</time>
      </trkpt>
      <trkpt lat="49.09412" lon="0.14709">
        <ele>171.8</ele>
        <time>2024-03-10T09:45:29Z</time>
      </trkpt>
      <trkpt lat="49.09415" lon="0.14717">
        <ele>171.9</ele>
        <time>2024-03-10T09:45:30Z</time>
      </trkpt>
      <trkpt lat="49.09419" lon="0.14726">
        <ele>171.9</ele>
        <time>2024-03-10T09:45:31Z</time>
      </trkpt>
      <trkpt lat="49.09422" lon="0.14734">
        <ele>172</ele>
        <time>2024-03-10T09:45:32Z</time>
      </trkpt>
      <trkpt lat="49.09424" lon="0.14743">
        <ele>172.1</ele>
        <time>2024-03-10T09:45:33Z</time>
      </trkpt>
      <trkpt lat="49.09427" lon="0.14752">
        <ele>172.2</ele>
        <time>2024-03-10T09:45:34Z</time>
      </trkpt>
      <trkpt lat="49.09431" lon="0.14761">
        <ele>172.2</ele>
        <time>2024-03-10T09:45:35Z</time>
      </trkpt>
      <trkpt lat="49.09434" lon="0.1477">
        <ele>172.3</ele>
        <time>2024-03-10T09:45:36Z</time>
      </trkpt>
      <trkpt lat="49.09437" lon="0.14779">
        <ele>172.4</ele>
        <time>2024-03-10T09:45:37Z</time>
      </trkpt>
      <trkpt lat="49.09439" lon="0.14789">
        <ele>172.5</ele>
        <time>2024-03-10T09:45:38Z</time>
      </trkpt>
      <trkpt lat="49.09442" lon="0.14798">
        <ele>172.6</ele>
        <time>2024-03-10T09:45:39Z</time>
      </trkpt>
      <trkpt lat="49.09445" lon="0.14807">
        <ele>172.7</ele>
        <time>2024-03-10T09:45:40Z</time>
      </trkpt>
      <trkpt lat="49.09448" lon="0.14817">
        <ele>172.7</ele>
        <time>2024-03-10T09:45:41Z</time>
      </trkpt>
      <trkpt lat="49.09452" lon="0.14826">
        <ele>172.8</ele>
        <time>2024-03-10T09:45:42Z</time>
      </trkpt>
      <trkpt lat="49.09455" lon="0.14836">
        <ele>172.9</ele>
        <time>2024-03-10T09:45:43Z</time>
      </trkpt>
      <trkpt lat="49.09458" lon="0.14846">
        <ele>172.9</ele>
        <time>2024-03-10T09:45:44Z</time>
      </trkpt>
      <trkpt lat="49.09462" lon="0.14855">
        <ele>173</ele>
        <time>2024-03-10T09:45:45Z</time>
      </trkpt>
      <trkpt lat="49.09465" lon="0.14865">
        <ele>173.1</ele>
        <time>2024-03-10T09:45:46Z</time>
      </trkpt>
      <trkpt lat="49.09468" lon="0.14874">
        <ele>173.1</ele>
        <time>2024-03-10T09:45:47Z</time>
      </trkpt>
      <trkpt lat="49.09471" lon="0.14884">
        <ele>173.2</ele>
        <time>2024-03-10T09:45:48Z</time>
      </trkpt>
      <trkpt lat="49.09475" lon="0.14893">
        <ele>173.2</ele>
        <time>2024-03-10T09:45:49Z</time>
      </trkpt>
      <trkpt lat="49.09479" lon="0.14902">
        <ele>173.3</ele>
        <time>2024-03-10T09:45:50Z</time>
      </trkpt>
      <trkpt lat="49.09484" lon="0.14911">
        <ele>173.3</ele>
        <time>2024-03-10T09:45:51Z</time>
      </trkpt>
      <trkpt lat="49.09489" lon="0.14918">
        <ele>173.4</ele>
        <time>2024-03-10T09:45:52Z</time>
      </trkpt>
      <trkpt lat="49.09494" lon="0.14926">
        <ele>173.4</ele>
        <time>2024-03-10T09:45:53Z</time>
      </trkpt>
      <trkpt lat="49.095" lon="0.14933">
        <ele>173.4</ele>
        <time>2024-03-10T09:45:54Z</time>
      </trkpt>
      <trkpt lat="49.09506" lon="0.14939">
        <ele>173.4</ele>
        <time>2024-03-10T09:45:55Z</time>
      </trkpt>
      <trkpt lat="49.09512" lon="0.14946">
        <ele>173.4</ele>
        <time>2024-03-10T09:45:56Z</time>
      </trkpt>
      <trkpt lat="49.09519" lon="0.14952">
        <ele>173.4</ele>
        <time>2024-03-10T09:45:57Z</time>
      </trkpt>
      <trkpt lat="49.09526" lon="0.14957">
        <ele>173.4</ele>
        <time>2024-03-10T09:45:58Z</time>
      </trkpt>
      <trkpt lat="49.09532" lon="0.14963">
        <ele>173.4</ele>
        <time>2024-03-10T09:45:59Z</time>
      </trkpt>
      <trkpt lat="49.09539" lon="0.14969">
        <ele>173.3</ele>
        <time>2024-03-10T09:46:00Z</time>
      </trkpt>
      <trkpt lat="49.09546" lon="0.14975">
        <ele>173.3</ele>
        <time>2024-03-10T09:46:01Z</time>
      </trkpt>
      <trkpt lat="49.09552" lon="0.14981">
        <ele>173.3</ele>
        <time>2024-03-10T09:46:02Z</time>
      </trkpt>
      <trkpt lat="49.09559" lon="0.14986">
        <ele>173.3</ele>
        <time>2024-03-10T09:46:03Z</time>
      </trkpt>
      <trkpt lat="49.09565" lon="0.14992">
        <ele>173.3</ele>
        <time>2024-03-10T09:46:04Z</time>
      </trkpt>
      <trkpt lat="49.09572" lon="0.14998">
        <ele>173.2</ele>
        <time>2024-03-10T09:46:05Z</time>
      </trkpt>
      <trkpt lat="49.09579" lon="0.15003">
        <ele>173.2</ele>
        <time>2024-03-10T09:46:06Z</time>
      </trkpt>
      <trkpt lat="49.09585" lon="0.15009">
        <ele>173.3</ele>
        <time>2024-03-10T09:46:07Z</time>
      </trkpt>
      <trkpt lat="49.09592" lon="0.15015">
        <ele>173.3</ele>
        <time>2024-03-10T09:46:08Z</time>
      </trkpt>
      <trkpt lat="49.09599" lon="0.15022">
        <ele>173.3</ele>
        <time>2024-03-10T09:46:09Z</time>
      </trkpt>
      <trkpt lat="49.09606" lon="0.15028">
        <ele>173.3</ele>
        <time>2024-03-10T09:46:10Z</time>
      </trkpt>
      <trkpt lat="49.09612" lon="0.15034">
        <ele>173.3</ele>
        <time>2024-03-10T09:46:11Z</time>
      </trkpt>
      <trkpt lat="49.09618" lon="0.15041">
        <ele>173.3</ele>
        <time>2024-03-10T09:46:12Z</time>
      </trkpt>
      <trkpt lat="49.09624" lon="0.15047">
        <ele>173.3</ele>
        <time>2024-03-10T09:46:13Z</time>
      </trkpt>
      <trkpt lat="49.09631" lon="0.15052">
        <ele>173.3</ele>
        <time>2024-03-10T09:46:14Z</time>
      </trkpt>
      <trkpt lat="49.09637" lon="0.15057">
        <ele>173.3</ele>
        <time>2024-03-10T09:46:15Z</time>
      </trkpt>
      <trkpt lat="49.09644" lon="0.15063">
        <ele>173.3</ele>
        <time>2024-03-10T09:46:16Z</time>
      </trkpt>
      <trkpt lat="49.09651" lon="0.15068">
        <ele>173.2</ele>
        <time>2024-03-10T09:46:17Z</time>
      </trkpt>
      <trkpt lat="49.09659" lon="0.15073">
        <ele>173.1</ele>
        <time>2024-03-10T09:46:18Z</time>
      </trkpt>
      <trkpt lat="49.09666" lon="0.15079">
        <ele>173</ele>
        <time>2024-03-10T09:46:19Z</time>
      </trkpt>
      <trkpt lat="49.09674" lon="0.15084">
        <ele>172.9</ele>
        <time>2024-03-10T09:46:20Z</time>
      </trkpt>
      <trkpt lat="49.09682" lon="0.1509">
        <ele>172.7</ele>
        <time>2024-03-10T09:46:21Z</time>
      </trkpt>
      <trkpt lat="49.0969" lon="0.15096">
        <ele>172.6</ele>
        <time>2024-03-10T09:46:22Z</time>
      </trkpt>
      <trkpt lat="49.09699" lon="0.15101">
        <ele>172.5</ele>
        <time>2024-03-10T09:46:23Z</time>
      </trkpt>
      <trkpt lat="49.09708" lon="0.15108">
        <ele>172.3</ele>
        <time>2024-03-10T09:46:24Z</time>
      </trkpt>
      <trkpt lat="49.09716" lon="0.15114">
        <ele>172.1</ele>
        <time>2024-03-10T09:46:25Z</time>
      </trkpt>
      <trkpt lat="49.09724" lon="0.15121">
        <ele>171.9</ele>
        <time>2024-03-10T09:46:26Z</time>
      </trkpt>
      <trkpt lat="49.09732" lon="0.15127">
        <ele>171.7</ele>
        <time>2024-03-10T09:46:27Z</time>
      </trkpt>
      <trkpt lat="49.09739" lon="0.15134">
        <ele>171.5</ele>
        <time>2024-03-10T09:46:28Z</time>
      </trkpt>
      <trkpt lat="49.09747" lon="0.15143">
        <ele>171.3</ele>
        <time>2024-03-10T09:46:29Z</time>
      </trkpt>
      <trkpt lat="49.09754" lon="0.15152">
        <ele>171.1</ele>
        <time>2024-03-10T09:46:30Z</time>
      </trkpt>
      <trkpt lat="49.09761" lon="0.15163">
        <ele>170.8</ele>
        <time>2024-03-10T09:46:31Z</time>
      </trkpt>
      <trkpt lat="49.09768" lon="0.15174">
        <ele>170.5</ele>
        <time>2024-03-10T09:46:32Z</time>
      </trkpt>
      <trkpt lat="49.09774" lon="0.15185">
        <ele>170.3</ele>
        <time>2024-03-10T09:46:33Z</time>
      </trkpt>
      <trkpt lat="49.0978" lon="0.15196">
        <ele>170.1</ele>
        <time>2024-03-10T09:46:34Z</time>
      </trkpt>
      <trkpt lat="49.09786" lon="0.15207">
        <ele>169.8</ele>
        <time>2024-03-10T09:46:35Z</time>
      </trkpt>
      <trkpt lat="49.09792" lon="0.15218">
        <ele>169.6</ele>
        <time>2024-03-10T09:46:36Z</time>
      </trkpt>
      <trkpt lat="49.09797" lon="0.15229">
        <ele>169.3</ele>
        <time>2024-03-10T09:46:37Z</time>
      </trkpt>
      <trkpt lat="49.09802" lon="0.15241">
        <ele>169</ele>
        <time>2024-03-10T09:46:38Z</time>
      </trkpt>
      <trkpt lat="49.09808" lon="0.15253">
        <ele>168.8</ele>
        <time>2024-03-10T09:46:39Z</time>
      </trkpt>
      <trkpt lat="49.09813" lon="0.15266">
        <ele>168.5</ele>
        <time>2024-03-10T09:46:40Z</time>
      </trkpt>
      <trkpt lat="49.09819" lon="0.15279">
        <ele>168.2</ele>
        <time>2024-03-10T09:46:41Z</time>
      </trkpt>
      <trkpt lat="49.09825" lon="0.15291">
        <ele>168</ele>
        <time>2024-03-10T09:46:42Z</time>
      </trkpt>
      <trkpt lat="49.09831" lon="0.15303">
        <ele>167.7</ele>
        <time>2024-03-10T09:46:43Z</time>
      </trkpt>
      <trkpt lat="49.09837" lon="0.15314">
        <ele>167.4</ele>
        <time>2024-03-10T09:46:44Z</time>
      </trkpt>
      <trkpt lat="49.09843" lon="0.15326">
        <ele>167.2</ele>
        <time>2024-03-10T09:46:45Z</time>
      </trkpt>
      <trkpt lat="49.0985" lon="0.15336">
        <ele>166.9</ele>
        <time>2024-03-10T09:46:46Z</time>
      </trkpt>
      <trkpt lat="49.09856" lon="0.15347">
        <ele>166.6</ele>
        <time>2024-03-10T09:46:47Z</time>
      </trkpt>
      <trkpt lat="49.09863" lon="0.15358">
        <ele>166.2</ele>
        <time>2024-03-10T09:46:48Z</time>
      </trkpt>
      <trkpt lat="49.09871" lon="0.15368">
        <ele>165.9</ele>
        <time>2024-03-10T09:46:49Z</time>
      </trkpt>
      <trkpt lat="49.09878" lon="0.15379">
        <ele>165.5</ele>
        <time>2024-03-10T09:46:50Z</time>
      </trkpt>
      <trkpt lat="49.09886" lon="0.15389">
        <ele>165.2</ele>
        <time>2024-03-10T09:46:51Z</time>
      </trkpt>
      <trkpt lat="49.09894" lon="0.15399">
        <ele>164.9</ele>
        <time>2024-03-10T09:46:52Z</time>
      </trkpt>
      <trkpt lat="49.09902" lon="0.15409">
        <ele>164.7</ele>
        <time>2024-03-10T09:46:53Z</time>
      </trkpt>
      <trkpt lat="49.0991" lon="0.15419">
        <ele>164.4</ele>
        <time>2024-03-10T09:46:54Z</time>
      </trkpt>
      <trkpt lat="49.09918" lon="0.15428">
        <ele>164.1</ele>
        <time>2024-03-10T09:46:55Z</time>
      </trkpt>
      <trkpt lat="49.09926" lon="0.15437">
        <ele>163.8</ele>
        <time>2024-03-10T09:46:56Z</time>
      </trkpt>
      <trkpt lat="49.09934" lon="0.15446">
        <ele>163.5</ele>
        <time>2024-03-10T09:46:57Z</time>
      </trkpt>
      <trkpt lat="49.09943" lon="0.15455">
        <ele>163.2</ele>
        <time>2024-03-10T09:46:58Z</time>
      </trkpt>
      <trkpt lat="49.09951" lon="0.15463">
        <ele>162.9</ele>
        <time>2024-03-10T09:46:59Z</time>
      </trkpt>
      <trkpt lat="49.09959" lon="0.15472">
        <ele>162.6</ele>
        <time>2024-03-10T09:47:00Z</time>
      </trkpt>
      <trkpt lat="49.09968" lon="0.15482">
        <ele>162.2</ele>
        <time>2024-03-10T09:47:01Z</time>
      </trkpt>
      <trkpt lat="49.09976" lon="0.15491">
        <ele>161.9</ele>
        <time>2024-03-10T09:47:02Z</time>
      </trkpt>
      <trkpt lat="49.09985" lon="0.155">
        <ele>161.6</ele>
        <time>2024-03-10T09:47:03Z</time>
      </trkpt>
      <trkpt lat="49.09994" lon="0.1551">
        <ele>161.2</ele>
        <time>2024-03-10T09:47:04Z</time>
      </trkpt>
      <trkpt lat="49.10003" lon="0.1552">
        <ele>160.8</ele>
        <time>2024-03-10T09:47:05Z</time>
      </trkpt>
      <trkpt lat="49.10011" lon="0.1553">
        <ele>160.4</ele>
        <time>2024-03-10T09:47:06Z</time>
      </trkpt>
      <trkpt lat="49.10019" lon="0.15542">
        <ele>160</ele>
        <time>2024-03-10T09:47:07Z</time>
      </trkpt>
      <trkpt lat="49.10025" lon="0.15554">
        <ele>159.5</ele>
        <time>2024-03-10T09:47:08Z</time>
      </trkpt>
      <trkpt lat="49.1003" lon="0.15568">
        <ele>159</ele>
        <time>2024-03-10T09:47:09Z</time>
      </trkpt>
      <trkpt lat="49.10035" lon="0.15583">
        <ele>158.7</ele>
        <time>2024-03-10T09:47:10Z</time>
      </trkpt>
      <trkpt lat="49.1004" lon="0.15597">
        <ele>158.4</ele>
        <time>2024-03-10T09:47:11Z</time>
      </trkpt>
      <trkpt lat="49.10043" lon="0.15613">
        <ele>158.2</ele>
        <time>2024-03-10T09:47:12Z</time>
      </trkpt>
      <trkpt lat="49.10047" lon="0.15628">
        <ele>158</ele>
        <time>2024-03-10T09:47:13Z</time>
      </trkpt>
      <trkpt lat="49.10051" lon="0.15644">
        <ele>157.7</ele>
        <time>2024-03-10T09:47:14Z</time>
      </trkpt>
      <trkpt lat="49.10054" lon="0.1566">
        <ele>157.5</ele>
        <time>2024-03-10T09:47:15Z</time>
      </trkpt>
      <trkpt lat="49.10057" lon="0.15675">
        <ele>157.3</ele>
        <time>2024-03-10T09:47:16Z</time>
      </trkpt>
      <trkpt lat="49.10059" lon="0.1569">
        <ele>157.2</ele>
        <time>2024-03-10T09:47:17Z</time>
      </trkpt>
      <trkpt lat="49.1006" lon="0.15705">
        <ele>157</ele>
        <time>2024-03-10T09:47:18Z</time>
      </trkpt>
      <trkpt lat="49.10062" lon="0.1572">
        <ele>156.8</ele>
        <time>2024-03-10T09:47:19Z</time>
      </trkpt>
      <trkpt lat="49.10063" lon="0.15736">
        <ele>156.7</ele>
        <time>2024-03-10T09:47:20Z</time>
      </trkpt>
      <trkpt lat="49.10064" lon="0.15752">
        <ele>156.6</ele>
        <time>2024-03-10T09:47:21Z</time>
      </trkpt>
      <trkpt lat="49.10065" lon="0.15768">
        <ele>156.4</ele>
        <time>2024-03-10T09:47:22Z</time>
      </trkpt>
      <trkpt lat="49.10066" lon="0.15783">
        <ele>156.3</ele>
        <time>2024-03-10T09:47:23Z</time>
      </trkpt>
      <trkpt lat="49.10067" lon="0.15799">
        <ele>156.1</ele>
        <time>2024-03-10T09:47:24Z</time>
      </trkpt>
      <trkpt lat="49.10068" lon="0.15814">
        <ele>156</ele>
        <time>2024-03-10T09:47:25Z</time>
      </trkpt>
      <trkpt lat="49.1007" lon="0.1583">
        <ele>155.8</ele>
        <time>2024-03-10T09:47:26Z</time>
      </trkpt>
      <trkpt lat="49.10071" lon="0.15846">
        <ele>155.7</ele>
        <time>2024-03-10T09:47:27Z</time>
      </trkpt>
      <trkpt lat="49.10073" lon="0.15861">
        <ele>155.5</ele>
        <time>2024-03-10T09:47:28Z</time>
      </trkpt>
      <trkpt lat="49.10076" lon="0.15877">
        <ele>155.5</ele>
        <time>2024-03-10T09:47:29Z</time>
      </trkpt>
      <trkpt lat="49.10079" lon="0.15891">
        <ele>155.6</ele>
        <time>2024-03-10T09:47:30Z</time>
      </trkpt>
      <trkpt lat="49.10082" lon="0.15905">
        <ele>155.5</ele>
        <time>2024-03-10T09:47:31Z</time>
      </trkpt>
      <trkpt lat="49.10085" lon="0.15919">
        <ele>155.4</ele>
        <time>2024-03-10T09:47:32Z</time>
      </trkpt>
      <trkpt lat="49.10089" lon="0.15932">
        <ele>155.3</ele>
        <time>2024-03-10T09:47:33Z</time>
      </trkpt>
      <trkpt lat="49.10093" lon="0.15946">
        <ele>155.2</ele>
        <time>2024-03-10T09:47:34Z</time>
      </trkpt>
      <trkpt lat="49.10096" lon="0.1596">
        <ele>155.2</ele>
        <time>2024-03-10T09:47:35Z</time>
      </trkpt>
      <trkpt lat="49.101" lon="0.15974">
        <ele>155.1</ele>
        <time>2024-03-10T09:47:36Z</time>
      </trkpt>
      <trkpt lat="49.10102" lon="0.15987">
        <ele>155</ele>
        <time>2024-03-10T09:47:37Z</time>
      </trkpt>
      <trkpt lat="49.10104" lon="0.16001">
        <ele>154.8</ele>
        <time>2024-03-10T09:47:38Z</time>
      </trkpt>
      <trkpt lat="49.10106" lon="0.16015">
        <ele>154.7</ele>
        <time>2024-03-10T09:47:39Z</time>
      </trkpt>
      <trkpt lat="49.10107" lon="0.1603">
        <ele>154.6</ele>
        <time>2024-03-10T09:47:40Z</time>
      </trkpt>
      <trkpt lat="49.10107" lon="0.16045">
        <ele>154.5</ele>
        <time>2024-03-10T09:47:41Z</time>
      </trkpt>
      <trkpt lat="49.10108" lon="0.16061">
        <ele>154.4</ele>
        <time>2024-03-10T09:47:42Z</time>
      </trkpt>
      <trkpt lat="49.10108" lon="0.16076">
        <ele>154.3</ele>
        <time>2024-03-10T09:47:43Z</time>
      </trkpt>
      <trkpt lat="49.10109" lon="0.16092">
        <ele>154.3</ele>
        <time>2024-03-10T09:47:44Z</time>
      </trkpt>
      <trkpt lat="49.10109" lon="0.16108">
        <ele>154.2</ele>
        <time>2024-03-10T09:47:45Z</time>
      </trkpt>
      <trkpt lat="49.10109" lon="0.16123">
        <ele>154.1</ele>
        <time>2024-03-10T09:47:46Z</time>
      </trkpt>
      <trkpt lat="49.10109" lon="0.16139">
        <ele>154</ele>
        <time>2024-03-10T09:47:47Z</time>
      </trkpt>
      <trkpt lat="49.10109" lon="0.16154">
        <ele>153.9</ele>
        <time>2024-03-10T09:47:48Z</time>
      </trkpt>
      <trkpt lat="49.10108" lon="0.1617">
        <ele>153.8</ele>
        <time>2024-03-10T09:47:49Z</time>
      </trkpt>
      <trkpt lat="49.10107" lon="0.16185">
        <ele>153.7</ele>
        <time>2024-03-10T09:47:50Z</time>
      </trkpt>
      <trkpt lat="49.10106" lon="0.16199">
        <ele>153.7</ele>
        <time>2024-03-10T09:47:51Z</time>
      </trkpt>
      <trkpt lat="49.10104" lon="0.16213">
        <ele>153.7</ele>
        <time>2024-03-10T09:47:52Z</time>
      </trkpt>
      <trkpt lat="49.10102" lon="0.16226">
        <ele>153.6</ele>
        <time>2024-03-10T09:47:53Z</time>
      </trkpt>
      <trkpt lat="49.101" lon="0.1624">
        <ele>153.6</ele>
        <time>2024-03-10T09:47:54Z</time>
      </trkpt>
      <trkpt lat="49.10097" lon="0.16254">
        <ele>153.5</ele>
        <time>2024-03-10T09:47:55Z</time>
      </trkpt>
      <trkpt lat="49.10094" lon="0.16267">
        <ele>153.5</ele>
        <time>2024-03-10T09:47:56Z</time>
      </trkpt>
      <trkpt lat="49.10092" lon="0.1628">
        <ele>153.4</ele>
        <time>2024-03-10T09:47:57Z</time>
      </trkpt>
      <trkpt lat="49.10089" lon="0.16294">
        <ele>153.3</ele>
        <time>2024-03-10T09:47:58Z</time>
      </trkpt>
      <trkpt lat="49.10087" lon="0.16307">
        <ele>153.1</ele>
        <time>2024-03-10T09:47:59Z</time>
      </trkpt>
      <trkpt lat="49.10084" lon="0.16321">
        <ele>153</ele>
        <time>2024-03-10T09:48:00Z</time>
      </trkpt>
      <trkpt lat="49.10083" lon="0.16336">
        <ele>152.8</ele>
        <time>2024-03-10T09:48:01Z</time>
      </trkpt>
      <trkpt lat="49.10081" lon="0.1635">
        <ele>152.7</ele>
        <time>2024-03-10T09:48:02Z</time>
      </trkpt>
      <trkpt lat="49.10081" lon="0.16365">
        <ele>152.6</ele>
        <time>2024-03-10T09:48:03Z</time>
      </trkpt>
      <trkpt lat="49.1008" lon="0.16379">
        <ele>152.5</ele>
        <time>2024-03-10T09:48:04Z</time>
      </trkpt>
      <trkpt lat="49.1008" lon="0.16394">
        <ele>152.4</ele>
        <time>2024-03-10T09:48:05Z</time>
      </trkpt>
      <trkpt lat="49.1008" lon="0.16408">
        <ele>152.2</ele>
        <time>2024-03-10T09:48:06Z</time>
      </trkpt>
      <trkpt lat="49.1008" lon="0.16423">
        <ele>152.1</ele>
        <time>2024-03-10T09:48:07Z</time>
      </trkpt>
      <trkpt lat="49.1008" lon="0.16438">
        <ele>152</ele>
        <time>2024-03-10T09:48:08Z</time>
      </trkpt>
      <trkpt lat="49.1008" lon="0.16453">
        <ele>151.9</ele>
        <time>2024-03-10T09:48:09Z</time>
      </trkpt>
      <trkpt lat="49.1008" lon="0.16467">
        <ele>151.8</ele>
        <time>2024-03-10T09:48:10Z</time>
      </trkpt>
      <trkpt lat="49.1008" lon="0.16482">
        <ele>151.8</ele>
        <time>2024-03-10T09:48:11Z</time>
      </trkpt>
      <trkpt lat="49.1008" lon="0.16496">
        <ele>151.8</ele>
        <time>2024-03-10T09:48:12Z</time>
      </trkpt>
      <trkpt lat="49.1008" lon="0.16509">
        <ele>151.7</ele>
        <time>2024-03-10T09:48:13Z</time>
      </trkpt>
      <trkpt lat="49.1008" lon="0.16523">
        <ele>151.7</ele>
        <time>2024-03-10T09:48:14Z</time>
      </trkpt>
      <trkpt lat="49.10079" lon="0.16537">
        <ele>151.7</ele>
        <time>2024-03-10T09:48:15Z</time>
      </trkpt>
      <trkpt lat="49.10079" lon="0.16552">
        <ele>151.7</ele>
        <time>2024-03-10T09:48:16Z</time>
      </trkpt>
      <trkpt lat="49.10078" lon="0.16566">
        <ele>151.7</ele>
        <time>2024-03-10T09:48:17Z</time>
      </trkpt>
      <trkpt lat="49.10077" lon="0.16579">
        <ele>151.7</ele>
        <time>2024-03-10T09:48:18Z</time>
      </trkpt>
      <trkpt lat="49.10076" lon="0.16593">
        <ele>151.7</ele>
        <time>2024-03-10T09:48:19Z</time>
      </trkpt>
      <trkpt lat="49.10075" lon="0.16606">
        <ele>151.6</ele>
        <time>2024-03-10T09:48:20Z</time>
      </trkpt>
      <trkpt lat="49.10073" lon="0.16619">
        <ele>151.6</ele>
        <time>2024-03-10T09:48:21Z</time>
      </trkpt>
      <trkpt lat="49.10071" lon="0.16632">
        <ele>151.6</ele>
        <time>2024-03-10T09:48:22Z</time>
      </trkpt>
      <trkpt lat="49.10068" lon="0.16645">
        <ele>151.6</ele>
        <time>2024-03-10T09:48:23Z</time>
      </trkpt>
      <trkpt lat="49.10066" lon="0.16658">
        <ele>151.6</ele>
        <time>2024-03-10T09:48:24Z</time>
      </trkpt>
      <trkpt lat="49.10063" lon="0.16672">
        <ele>151.6</ele>
        <time>2024-03-10T09:48:25Z</time>
      </trkpt>
      <trkpt lat="49.1006" lon="0.16685">
        <ele>151.6</ele>
        <time>2024-03-10T09:48:26Z</time>
      </trkpt>
      <trkpt lat="49.10057" lon="0.16698">
        <ele>151.5</ele>
        <time>2024-03-10T09:48:27Z</time>
      </trkpt>
      <trkpt lat="49.10054" lon="0.16711">
        <ele>151.5</ele>
        <time>2024-03-10T09:48:28Z</time>
      </trkpt>
      <trkpt lat="49.10052" lon="0.16724">
        <ele>151.4</ele>
        <time>2024-03-10T09:48:29Z</time>
      </trkpt>
      <trkpt lat="49.10049" lon="0.16737">
        <ele>151.3</ele>
        <time>2024-03-10T09:48:30Z</time>
      </trkpt>
      <trkpt lat="49.10047" lon="0.1675">
        <ele>151.3</ele>
        <time>2024-03-10T09:48:31Z</time>
      </trkpt>
      <trkpt lat="49.10044" lon="0.16763">
        <ele>151.2</ele>
        <time>2024-03-10T09:48:32Z</time>
      </trkpt>
      <trkpt lat="49.10042" lon="0.16776">
        <ele>151.1</ele>
        <time>2024-03-10T09:48:33Z</time>
      </trkpt>
      <trkpt lat="49.10039" lon="0.16789">
        <ele>151.1</ele>
        <time>2024-03-10T09:48:34Z</time>
      </trkpt>
      <trkpt lat="49.10038" lon="0.16802">
        <ele>151</ele>
        <time>2024-03-10T09:48:35Z</time>
      </trkpt>
      <trkpt lat="49.10036" lon="0.16815">
        <ele>151</ele>
        <time>2024-03-10T09:48:36Z</time>
      </trkpt>
      <trkpt lat="49.10034" lon="0.16828">
        <ele>150.9</ele>
        <time>2024-03-10T09:48:37Z</time>
      </trkpt>
      <trkpt lat="49.10033" lon="0.16841">
        <ele>150.9</ele>
        <time>2024-03-10T09:48:38Z</time>
      </trkpt>
      <trkpt lat="49.10031" lon="0.16855">
        <ele>150.8</ele>
        <time>2024-03-10T09:48:39Z</time>
      </trkpt>
      <trkpt lat="49.1003" lon="0.16867">
        <ele>150.7</ele>
        <time>2024-03-10T09:48:40Z</time>
      </trkpt>
      <trkpt lat="49.10029" lon="0.1688">
        <ele>150.6</ele>
        <time>2024-03-10T09:48:41Z</time>
      </trkpt>
      <trkpt lat="49.10028" lon="0.16893">
        <ele>150.5</ele>
        <time>2024-03-10T09:48:42Z</time>
      </trkpt>
      <trkpt lat="49.10027" lon="0.16906">
        <ele>150.4</ele>
        <time>2024-03-10T09:48:43Z</time>
      </trkpt>
      <trkpt lat="49.10026" lon="0.16919">
        <ele>150.3</ele>
        <time>2024-03-10T09:48:44Z</time>
      </trkpt>
      <trkpt lat="49.10025" lon="0.16933">
        <ele>150.3</ele>
        <time>2024-03-10T09:48:45Z</time>
      </trkpt>
      <trkpt lat="49.10025" lon="0.16947">
        <ele>150.2</ele>
        <time>2024-03-10T09:48:46Z</time>
      </trkpt>
      <trkpt lat="49.10024" lon="0.16961">
        <ele>150.1</ele>
        <time>2024-03-10T09:48:47Z</time>
      </trkpt>
      <trkpt lat="49.10023" lon="0.16974">
        <ele>150</ele>
        <time>2024-03-10T09:48:48Z</time>
      </trkpt>
      <trkpt lat="49.10023" lon="0.16987">
        <ele>149.9</ele>
        <time>2024-03-10T09:48:49Z</time>
      </trkpt>
      <trkpt lat="49.10022" lon="0.17001">
        <ele>149.8</ele>
        <time>2024-03-10T09:48:50Z</time>
      </trkpt>
      <trkpt lat="49.10021" lon="0.17014">
        <ele>149.7</ele>
        <time>2024-03-10T09:48:51Z</time>
      </trkpt>
      <trkpt lat="49.10021" lon="0.17028">
        <ele>149.6</ele>
        <time>2024-03-10T09:48:52Z</time>
      </trkpt>
      <trkpt lat="49.10021" lon="0.17042">
        <ele>149.5</ele>
        <time>2024-03-10T09:48:53Z</time>
      </trkpt>
      <trkpt lat="49.1002" lon="0.17055">
        <ele>149.3</ele>
        <time>2024-03-10T09:48:54Z</time>
      </trkpt>
      <trkpt lat="49.1002" lon="0.17069">
        <ele>149.2</ele>
        <time>2024-03-10T09:48:55Z</time>
      </trkpt>
      <trkpt lat="49.10019" lon="0.17082">
        <ele>149</ele>
        <time>2024-03-10T09:48:56Z</time>
      </trkpt>
      <trkpt lat="49.10019" lon="0.17096">
        <ele>148.9</ele>
        <time>2024-03-10T09:48:57Z</time>
      </trkpt>
      <trkpt lat="49.10018" lon="0.17109">
        <ele>148.9</ele>
        <time>2024-03-10T09:48:58Z</time>
      </trkpt>
      <trkpt lat="49.10017" lon="0.17123">
        <ele>148.8</ele>
        <time>2024-03-10T09:48:59Z</time>
      </trkpt>
      <trkpt lat="49.10017" lon="0.17136">
        <ele>148.7</ele>
        <time>2024-03-10T09:49:00Z</time>
      </trkpt>
      <trkpt lat="49.10016" lon="0.17149">
        <ele>148.5</ele>
        <time>2024-03-10T09:49:01Z</time>
      </trkpt>
      <trkpt lat="49.10015" lon="0.17163">
        <ele>148.4</ele>
        <time>2024-03-10T09:49:02Z</time>
      </trkpt>
      <trkpt lat="49.10015" lon="0.17177">
        <ele>148.3</ele>
        <time>2024-03-10T09:49:03Z</time>
      </trkpt>
      <trkpt lat="49.10014" lon="0.1719">
        <ele>148.2</ele>
        <time>2024-03-10T09:49:04Z</time>
      </trkpt>
      <trkpt lat="49.10013" lon="0.17203">
        <ele>148.1</ele>
        <time>2024-03-10T09:49:05Z</time>
      </trkpt>
      <trkpt lat="49.10012" lon="0.17217">
        <ele>147.9</ele>
        <time>2024-03-10T09:49:06Z</time>
      </trkpt>
      <trkpt lat="49.10012" lon="0.1723">
        <ele>147.8</ele>
        <time>2024-03-10T09:49:07Z</time>
      </trkpt>
      <trkpt lat="49.10011" lon="0.17244">
        <ele>147.6</ele>
        <time>2024-03-10T09:49:08Z</time>
      </trkpt>
      <trkpt lat="49.1001" lon="0.17257">
        <ele>147.4</ele>
        <time>2024-03-10T09:49:09Z</time>
      </trkpt>
      <trkpt lat="49.10009" lon="0.17271">
        <ele>147.2</ele>
        <time>2024-03-10T09:49:10Z</time>
      </trkpt>
      <trkpt lat="49.10009" lon="0.17285">
        <ele>147</ele>
        <time>2024-03-10T09:49:11Z</time>
      </trkpt>
      <trkpt lat="49.10008" lon="0.17299">
        <ele>146.7</ele>
        <time>2024-03-10T09:49:12Z</time>
      </trkpt>
      <trkpt lat="49.10008" lon="0.17312">
        <ele>146.5</ele>
        <time>2024-03-10T09:49:13Z</time>
      </trkpt>
      <trkpt lat="49.10007" lon="0.17327">
        <ele>146.3</ele>
        <time>2024-03-10T09:49:14Z</time>
      </trkpt>
      <trkpt lat="49.10007" lon="0.17341">
        <ele>146.1</ele>
        <time>2024-03-10T09:49:15Z</time>
      </trkpt>
      <trkpt lat="49.10007" lon="0.17355">
        <ele>146</ele>
        <time>2024-03-10T09:49:16Z</time>
      </trkpt>
      <trkpt lat="49.10007" lon="0.17369">
        <ele>145.7</ele>
        <time>2024-03-10T09:49:17Z</time>
      </trkpt>
      <trkpt lat="49.10008" lon="0.17383">
        <ele>145.4</ele>
        <time>2024-03-10T09:49:18Z</time>
      </trkpt>
      <trkpt lat="49.10008" lon="0.17398">
        <ele>145.1</ele>
        <time>2024-03-10T09:49:19Z</time>
      </trkpt>
      <trkpt lat="49.10008" lon="0.17412">
        <ele>144.8</ele>
        <time>2024-03-10T09:49:20Z</time>
      </trkpt>
      <trkpt lat="49.10009" lon="0.17426">
        <ele>144.6</ele>
        <time>2024-03-10T09:49:21Z</time>
      </trkpt>
      <trkpt lat="49.1001" lon="0.1744">
        <ele>144.2</ele>
        <time>2024-03-10T09:49:22Z</time>
      </trkpt>
      <trkpt lat="49.10011" lon="0.17454">
        <ele>143.9</ele>
        <time>2024-03-10T09:49:23Z</time>
      </trkpt>
      <trkpt lat="49.10013" lon="0.17468">
        <ele>143.5</ele>
        <time>2024-03-10T09:49:24Z</time>
      </trkpt>
      <trkpt lat="49.10014" lon="0.17481">
        <ele>143.1</ele>
        <time>2024-03-10T09:49:25Z</time>
      </trkpt>
      <trkpt lat="49.10015" lon="0.17494">
        <ele>142.6</ele>
        <time>2024-03-10T09:49:26Z</time>
      </trkpt>
      <trkpt lat="49.10017" lon="0.17508">
        <ele>142.1</ele>
        <time>2024-03-10T09:49:27Z</time>
      </trkpt>
      <trkpt lat="49.10018" lon="0.17523">
        <ele>141.5</ele>
        <time>2024-03-10T09:49:28Z</time>
      </trkpt>
      <trkpt lat="49.1002" lon="0.17538">
        <ele>141</ele>
        <time>2024-03-10T09:49:29Z</time>
      </trkpt>
      <trkpt lat="49.10022" lon="0.17554">
        <ele>140.4</ele>
        <time>2024-03-10T09:49:30Z</time>
      </trkpt>
      <trkpt lat="49.10024" lon="0.17569">
        <ele>139.9</ele>
        <time>2024-03-10T09:49:31Z</time>
      </trkpt>
      <trkpt lat="49.10026" lon="0.17585">
        <ele>139.3</ele>
        <time>2024-03-10T09:49:32Z</time>
      </trkpt>
      <trkpt lat="49.10031" lon="0.17599">
        <ele>138.8</ele>
        <time>2024-03-10T09:49:33Z</time>
      </trkpt>
      <trkpt lat="49.10037" lon="0.17614">
        <ele>138.3</ele>
        <time>2024-03-10T09:49:34Z</time>
      </trkpt>
      <trkpt lat="49.10044" lon="0.17628">
        <ele>137.8</ele>
        <time>2024-03-10T09:49:35Z</time>
      </trkpt>
      <trkpt lat="49.10052" lon="0.1764">
        <ele>137.4</ele>
        <time>2024-03-10T09:49:36Z</time>
      </trkpt>
      <trkpt lat="49.10061" lon="0.17651">
        <ele>137.1</ele>
        <time>2024-03-10T09:49:37Z</time>
      </trkpt>
      <trkpt lat="49.10069" lon="0.17662">
        <ele>136.9</ele>
        <time>2024-03-10T09:49:38Z</time>
      </trkpt>
      <trkpt lat="49.10078" lon="0.17673">
        <ele>136.7</ele>
        <time>2024-03-10T09:49:39Z</time>
      </trkpt>
      <trkpt lat="49.10087" lon="0.17684">
        <ele>136.6</ele>
        <time>2024-03-10T09:49:40Z</time>
      </trkpt>
      <trkpt lat="49.10096" lon="0.17695">
        <ele>136.4</ele>
        <time>2024-03-10T09:49:41Z</time>
      </trkpt>
      <trkpt lat="49.10104" lon="0.17706">
        <ele>136</ele>
        <time>2024-03-10T09:49:42Z</time>
      </trkpt>
      <trkpt lat="49.10112" lon="0.17717">
        <ele>135.7</ele>
        <time>2024-03-10T09:49:43Z</time>
      </trkpt>
      <trkpt lat="49.10121" lon="0.17728">
        <ele>135.4</ele>
        <time>2024-03-10T09:49:44Z</time>
      </trkpt>
      <trkpt lat="49.10129" lon="0.1774">
        <ele>135.1</ele>
        <time>2024-03-10T09:49:45Z</time>
      </trkpt>
      <trkpt lat="49.10137" lon="0.1775">
        <ele>135</ele>
        <time>2024-03-10T09:49:46Z</time>
      </trkpt>
      <trkpt lat="49.10144" lon="0.17761">
        <ele>134.9</ele>
        <time>2024-03-10T09:49:47Z</time>
      </trkpt>
      <trkpt lat="49.10151" lon="0.17772">
        <ele>134.8</ele>
        <time>2024-03-10T09:49:48Z</time>
      </trkpt>
      <trkpt lat="49.10157" lon="0.17784">
        <ele>134.8</ele>
        <time>2024-03-10T09:49:49Z</time>
      </trkpt>
      <trkpt lat="49.10163" lon="0.17796">
        <ele>134.8</ele>
        <time>2024-03-10T09:49:50Z</time>
      </trkpt>
      <trkpt lat="49.10169" lon="0.17808">
        <ele>134.9</ele>
        <time>2024-03-10T09:49:51Z</time>
      </trkpt>
      <trkpt lat="49.10174" lon="0.1782">
        <ele>135</ele>
        <time>2024-03-10T09:49:52Z</time>
      </trkpt>
      <trkpt lat="49.1018" lon="0.17832">
        <ele>135.1</ele>
        <time>2024-03-10T09:49:53Z</time>
      </trkpt>
      <trkpt lat="49.10185" lon="0.17844">
        <ele>135.3</ele>
        <time>2024-03-10T09:49:54Z</time>
      </trkpt>
      <trkpt lat="49.10191" lon="0.17857">
        <ele>135.5</ele>
        <time>2024-03-10T09:49:55Z</time>
      </trkpt>
      <trkpt lat="49.10196" lon="0.17869">
        <ele>135.6</ele>
        <time>2024-03-10T09:49:56Z</time>
      </trkpt>
      <trkpt lat="49.10201" lon="0.17881">
        <ele>135.8</ele>
        <time>2024-03-10T09:49:57Z</time>
      </trkpt>
      <trkpt lat="49.10206" lon="0.17893">
        <ele>135.9</ele>
        <time>2024-03-10T09:49:58Z</time>
      </trkpt>
      <trkpt lat="49.10212" lon="0.17905">
        <ele>135.9</ele>
        <time>2024-03-10T09:49:59Z</time>
      </trkpt>
      <trkpt lat="49.10217" lon="0.17915">
        <ele>136</ele>
        <time>2024-03-10T09:50:00Z</time>
      </trkpt>
      <trkpt lat="49.10222" lon="0.17927">
        <ele>136.1</ele>
        <time>2024-03-10T09:50:01Z</time>
      </trkpt>
      <trkpt lat="49.10227" lon="0.17938">
        <ele>136.2</ele>
        <time>2024-03-10T09:50:02Z</time>
      </trkpt>
      <trkpt lat="49.10233" lon="0.17949">
        <ele>136.4</ele>
        <time>2024-03-10T09:50:03Z</time>
      </trkpt>
      <trkpt lat="49.10238" lon="0.1796">
        <ele>136.7</ele>
        <time>2024-03-10T09:50:04Z</time>
      </trkpt>
      <trkpt lat="49.10244" lon="0.17971">
        <ele>137</ele>
        <time>2024-03-10T09:50:05Z</time>
      </trkpt>
      <trkpt lat="49.10249" lon="0.17982">
        <ele>137.3</ele>
        <time>2024-03-10T09:50:06Z</time>
      </trkpt>
      <trkpt lat="49.10254" lon="0.17992">
        <ele>137.6</ele>
        <time>2024-03-10T09:50:07Z</time>
      </trkpt>
      <trkpt lat="49.1026" lon="0.18002">
        <ele>137.9</ele>
        <time>2024-03-10T09:50:08Z</time>
      </trkpt>
      <trkpt lat="49.10265" lon="0.18013">
        <ele>138.2</ele>
        <time>2024-03-10T09:50:09Z</time>
      </trkpt>
      <trkpt lat="49.1027" lon="0.18023">
        <ele>138.5</ele>
        <time>2024-03-10T09:50:10Z</time>
      </trkpt>
      <trkpt lat="49.10275" lon="0.18033">
        <ele>138.8</ele>
        <time>2024-03-10T09:50:11Z</time>
      </trkpt>
      <trkpt lat="49.1028" lon="0.18042">
        <ele>139</ele>
        <time>2024-03-10T09:50:12Z</time>
      </trkpt>
      <trkpt lat="49.10285" lon="0.18052">
        <ele>139.3</ele>
        <time>2024-03-10T09:50:13Z</time>
      </trkpt>
      <trkpt lat="49.10291" lon="0.18061">
        <ele>139.5</ele>
        <time>2024-03-10T09:50:14Z</time>
      </trkpt>
      <trkpt lat="49.10296" lon="0.18069">
        <ele>139.7</ele>
        <time>2024-03-10T09:50:15Z</time>
      </trkpt>
      <trkpt lat="49.10301" lon="0.18078">
        <ele>139.9</ele>
        <time>2024-03-10T09:50:16Z</time>
      </trkpt>
      <trkpt lat="49.10306" lon="0.18087">
        <ele>140.1</ele>
        <time>2024-03-10T09:50:17Z</time>
      </trkpt>
      <trkpt lat="49.10311" lon="0.18096">
        <ele>140.2</ele>
        <time>2024-03-10T09:50:18Z</time>
      </trkpt>
      <trkpt lat="49.10316" lon="0.18105">
        <ele>140.3</ele>
        <time>2024-03-10T09:50:19Z</time>
      </trkpt>
      <trkpt lat="49.10321" lon="0.18114">
        <ele>140.5</ele>
        <time>2024-03-10T09:50:20Z</time>
      </trkpt>
      <trkpt lat="49.10326" lon="0.18123">
        <ele>140.6</ele>
        <time>2024-03-10T09:50:21Z</time>
      </trkpt>
      <trkpt lat="49.10331" lon="0.18133">
        <ele>140.6</ele>
        <time>2024-03-10T09:50:22Z</time>
      </trkpt>
      <trkpt lat="49.10337" lon="0.18142">
        <ele>140.7</ele>
        <time>2024-03-10T09:50:23Z</time>
      </trkpt>
      <trkpt lat="49.10344" lon="0.18152">
        <ele>140.7</ele>
        <time>2024-03-10T09:50:24Z</time>
      </trkpt>
      <trkpt lat="49.1035" lon="0.18162">
        <ele>140.8</ele>
        <time>2024-03-10T09:50:25Z</time>
      </trkpt>
      <trkpt lat="49.10357" lon="0.18172">
        <ele>140.8</ele>
        <time>2024-03-10T09:50:26Z</time>
      </trkpt>
      <trkpt lat="49.10363" lon="0.18182">
        <ele>140.8</ele>
        <time>2024-03-10T09:50:27Z</time>
      </trkpt>
      <trkpt lat="49.1037" lon="0.18192">
        <ele>140.9</ele>
        <time>2024-03-10T09:50:28Z</time>
      </trkpt>
      <trkpt lat="49.10377" lon="0.18202">
        <ele>140.9</ele>
        <time>2024-03-10T09:50:29Z</time>
      </trkpt>
      <trkpt lat="49.10383" lon="0.18212">
        <ele>140.9</ele>
        <time>2024-03-10T09:50:30Z</time>
      </trkpt>
      <trkpt lat="49.1039" lon="0.18221">
        <ele>141</ele>
        <time>2024-03-10T09:50:31Z</time>
      </trkpt>
      <trkpt lat="49.10396" lon="0.1823">
        <ele>141</ele>
        <time>2024-03-10T09:50:32Z</time>
      </trkpt>
      <trkpt lat="49.10403" lon="0.18239">
        <ele>141</ele>
        <time>2024-03-10T09:50:33Z</time>
      </trkpt>
      <trkpt lat="49.1041" lon="0.18249">
        <ele>141</ele>
        <time>2024-03-10T09:50:34Z</time>
      </trkpt>
      <trkpt lat="49.10417" lon="0.18257">
        <ele>141</ele>
        <time>2024-03-10T09:50:35Z</time>
      </trkpt>
      <trkpt lat="49.10423" lon="0.18266">
        <ele>141.1</ele>
        <time>2024-03-10T09:50:36Z</time>
      </trkpt>
      <trkpt lat="49.1043" lon="0.18274">
        <ele>141.1</ele>
        <time>2024-03-10T09:50:37Z</time>
      </trkpt>
      <trkpt lat="49.10437" lon="0.18283">
        <ele>141</ele>
        <time>2024-03-10T09:50:38Z</time>
      </trkpt>
      <trkpt lat="49.10443" lon="0.18291">
        <ele>140.9</ele>
        <time>2024-03-10T09:50:39Z</time>
      </trkpt>
      <trkpt lat="49.1045" lon="0.183">
        <ele>140.8</ele>
        <time>2024-03-10T09:50:40Z</time>
      </trkpt>
      <trkpt lat="49.10457" lon="0.18308">
        <ele>140.7</ele>
        <time>2024-03-10T09:50:41Z</time>
      </trkpt>
      <trkpt lat="49.10464" lon="0.18316">
        <ele>140.5</ele>
        <time>2024-03-10T09:50:42Z</time>
      </trkpt>
      <trkpt lat="49.10471" lon="0.18324">
        <ele>140.4</ele>
        <time>2024-03-10T09:50:43Z</time>
      </trkpt>
      <trkpt lat="49.10478" lon="0.18332">
        <ele>140.3</ele>
        <time>2024-03-10T09:50:44Z</time>
      </trkpt>
      <trkpt lat="49.10486" lon="0.1834">
        <ele>140.2</ele>
        <time>2024-03-10T09:50:45Z</time>
      </trkpt>
      <trkpt lat="49.10493" lon="0.18348">
        <ele>140.1</ele>
        <time>2024-03-10T09:50:46Z</time>
      </trkpt>
      <trkpt lat="49.105" lon="0.18356">
        <ele>140</ele>
        <time>2024-03-10T09:50:47Z</time>
      </trkpt>
      <trkpt lat="49.10507" lon="0.18364">
        <ele>139.9</ele>
        <time>2024-03-10T09:50:48Z</time>
      </trkpt>
      <trkpt lat="49.10513" lon="0.18371">
        <ele>139.8</ele>
        <time>2024-03-10T09:50:49Z</time>
      </trkpt>
      <trkpt lat="49.1052" lon="0.18379">
        <ele>139.7</ele>
        <time>2024-03-10T09:50:50Z</time>
      </trkpt>
      <trkpt lat="49.10527" lon="0.18386">
        <ele>139.5</ele>
        <time>2024-03-10T09:50:51Z</time>
      </trkpt>
      <trkpt lat="49.10533" lon="0.18393">
        <ele>139.4</ele>
        <time>2024-03-10T09:50:52Z</time>
      </trkpt>
      <trkpt lat="49.1054" lon="0.18401">
        <ele>139.2</ele>
        <time>2024-03-10T09:50:53Z</time>
      </trkpt>
      <trkpt lat="49.10546" lon="0.18408">
        <ele>139.1</ele>
        <time>2024-03-10T09:50:54Z</time>
      </trkpt>
      <trkpt lat="49.10553" lon="0.18415">
        <ele>139</ele>
        <time>2024-03-10T09:50:55Z</time>
      </trkpt>
      <trkpt lat="49.1056" lon="0.18422">
        <ele>138.9</ele>
        <time>2024-03-10T09:50:56Z</time>
      </trkpt>
      <trkpt lat="49.10567" lon="0.1843">
        <ele>138.8</ele>
        <time>2024-03-10T09:50:57Z</time>
      </trkpt>
      <trkpt lat="49.10575" lon="0.18438">
        <ele>138.6</ele>
        <time>2024-03-10T09:50:58Z</time>
      </trkpt>
      <trkpt lat="49.10582" lon="0.18447">
        <ele>138.4</ele>
        <time>2024-03-10T09:50:59Z</time>
      </trkpt>
      <trkpt lat="49.1059" lon="0.18455">
        <ele>138.3</ele>
        <time>2024-03-10T09:51:00Z</time>
      </trkpt>
      <trkpt lat="49.10597" lon="0.18463">
        <ele>138.1</ele>
        <time>2024-03-10T09:51:01Z</time>
      </trkpt>
      <trkpt lat="49.10605" lon="0.18472">
        <ele>138</ele>
        <time>2024-03-10T09:51:02Z</time>
      </trkpt>
      <trkpt lat="49.10613" lon="0.18481">
        <ele>137.9</ele>
        <time>2024-03-10T09:51:03Z</time>
      </trkpt>
      <trkpt lat="49.10621" lon="0.18489">
        <ele>137.8</ele>
        <time>2024-03-10T09:51:04Z</time>
      </trkpt>
      <trkpt lat="49.10629" lon="0.18498">
        <ele>137.6</ele>
        <time>2024-03-10T09:51:05Z</time>
      </trkpt>
      <trkpt lat="49.10637" lon="0.18507">
        <ele>137.5</ele>
        <time>2024-03-10T09:51:06Z</time>
      </trkpt>
      <trkpt lat="49.10646" lon="0.18515">
        <ele>137.4</ele>
        <time>2024-03-10T09:51:07Z</time>
      </trkpt>
      <trkpt lat="49.10654" lon="0.18523">
        <ele>137.2</ele>
        <time>2024-03-10T09:51:08Z</time>
      </trkpt>
      <trkpt lat="49.10662" lon="0.18531">
        <ele>137.2</ele>
        <time>2024-03-10T09:51:09Z</time>
      </trkpt>
      <trkpt lat="49.10671" lon="0.18539">
        <ele>137.1</ele>
        <time>2024-03-10T09:51:10Z</time>
      </trkpt>
      <trkpt lat="49.1068" lon="0.18546">
        <ele>137</ele>
        <time>2024-03-10T09:51:11Z</time>
      </trkpt>
      <trkpt lat="49.10689" lon="0.18553">
        <ele>136.9</ele>
        <time>2024-03-10T09:51:12Z</time>
      </trkpt>
      <trkpt lat="49.10697" lon="0.18559">
        <ele>136.8</ele>
        <time>2024-03-10T09:51:13Z</time>
      </trkpt>
      <trkpt lat="49.10705" lon="0.18565">
        <ele>136.7</ele>
        <time>2024-03-10T09:51:14Z</time>
      </trkpt>
      <trkpt lat="49.10714" lon="0.18572">
        <ele>136.5</ele>
        <time>2024-03-10T09:51:15Z</time>
      </trkpt>
      <trkpt lat="49.10722" lon="0.18579">
        <ele>136.4</ele>
        <time>2024-03-10T09:51:16Z</time>
      </trkpt>
      <trkpt lat="49.1073" lon="0.18586">
        <ele>136.2</ele>
        <time>2024-03-10T09:51:17Z</time>
      </trkpt>
      <trkpt lat="49.10738" lon="0.18595">
        <ele>136.2</ele>
        <time>2024-03-10T09:51:18Z</time>
      </trkpt>
      <trkpt lat="49.10745" lon="0.18604">
        <ele>136.1</ele>
        <time>2024-03-10T09:51:19Z</time>
      </trkpt>
      <trkpt lat="49.10752" lon="0.18614">
        <ele>136.1</ele>
        <time>2024-03-10T09:51:20Z</time>
      </trkpt>
      <trkpt lat="49.10758" lon="0.18625">
        <ele>136.1</ele>
        <time>2024-03-10T09:51:21Z</time>
      </trkpt>
      <trkpt lat="49.10764" lon="0.18635">
        <ele>136.1</ele>
        <time>2024-03-10T09:51:22Z</time>
      </trkpt>
      <trkpt lat="49.10771" lon="0.18645">
        <ele>136.2</ele>
        <time>2024-03-10T09:51:23Z</time>
      </trkpt>
      <trkpt lat="49.10778" lon="0.18655">
        <ele>136.2</ele>
        <time>2024-03-10T09:51:24Z</time>
      </trkpt>
      <trkpt lat="49.10785" lon="0.18665">
        <ele>136.3</ele>
        <time>2024-03-10T09:51:25Z</time>
      </trkpt>
      <trkpt lat="49.10792" lon="0.18675">
        <ele>136.3</ele>
        <time>2024-03-10T09:51:26Z</time>
      </trkpt>
      <trkpt lat="49.10798" lon="0.18685">
        <ele>136.4</ele>
        <time>2024-03-10T09:51:27Z</time>
      </trkpt>
      <trkpt lat="49.10804" lon="0.18695">
        <ele>136.5</ele>
        <time>2024-03-10T09:51:28Z</time>
      </trkpt>
      <trkpt lat="49.10811" lon="0.18704">
        <ele>136.6</ele>
        <time>2024-03-10T09:51:29Z</time>
      </trkpt>
      <trkpt lat="49.10817" lon="0.18715">
        <ele>136.7</ele>
        <time>2024-03-10T09:51:30Z</time>
      </trkpt>
      <trkpt lat="49.10823" lon="0.18725">
        <ele>136.8</ele>
        <time>2024-03-10T09:51:31Z</time>
      </trkpt>
      <trkpt lat="49.10829" lon="0.18735">
        <ele>137</ele>
        <time>2024-03-10T09:51:32Z</time>
      </trkpt>
      <trkpt lat="49.10835" lon="0.18746">
        <ele>137.1</ele>
        <time>2024-03-10T09:51:33Z</time>
      </trkpt>
      <trkpt lat="49.10841" lon="0.18756">
        <ele>137.2</ele>
        <time>2024-03-10T09:51:34Z</time>
      </trkpt>
      <trkpt lat="49.10846" lon="0.18766">
        <ele>137.3</ele>
        <time>2024-03-10T09:51:35Z</time>
      </trkpt>
      <trkpt lat="49.10852" lon="0.18776">
        <ele>137.5</ele>
        <time>2024-03-10T09:51:36Z</time>
      </trkpt>
      <trkpt lat="49.10858" lon="0.18786">
        <ele>137.6</ele>
        <time>2024-03-10T09:51:37Z</time>
      </trkpt>
      <trkpt lat="49.10863" lon="0.18796">
        <ele>137.7</ele>
        <time>2024-03-10T09:51:38Z</time>
      </trkpt>
      <trkpt lat="49.10868" lon="0.18806">
        <ele>137.8</ele>
        <time>2024-03-10T09:51:39Z</time>
      </trkpt>
      <trkpt lat="49.10873" lon="0.18817">
        <ele>138</ele>
        <time>2024-03-10T09:51:40Z</time>
      </trkpt>
      <trkpt lat="49.10878" lon="0.18827">
        <ele>138.1</ele>
        <time>2024-03-10T09:51:41Z</time>
      </trkpt>
      <trkpt lat="49.10884" lon="0.18836">
        <ele>138.2</ele>
        <time>2024-03-10T09:51:42Z</time>
      </trkpt>
      <trkpt lat="49.10889" lon="0.18846">
        <ele>138.3</ele>
        <time>2024-03-10T09:51:43Z</time>
      </trkpt>
      <trkpt lat="49.10894" lon="0.18856">
        <ele>138.4</ele>
        <time>2024-03-10T09:51:44Z</time>
      </trkpt>
      <trkpt lat="49.10899" lon="0.18865">
        <ele>138.5</ele>
        <time>2024-03-10T09:51:45Z</time>
      </trkpt>
      <trkpt lat="49.10904" lon="0.18875">
        <ele>138.6</ele>
        <time>2024-03-10T09:51:46Z</time>
      </trkpt>
      <trkpt lat="49.1091" lon="0.18884">
        <ele>138.7</ele>
        <time>2024-03-10T09:51:47Z</time>
      </trkpt>
      <trkpt lat="49.10915" lon="0.18894">
        <ele>138.8</ele>
        <time>2024-03-10T09:51:48Z</time>
      </trkpt>
      <trkpt lat="49.1092" lon="0.18904">
        <ele>138.9</ele>
        <time>2024-03-10T09:51:49Z</time>
      </trkpt>
      <trkpt lat="49.10925" lon="0.18913">
        <ele>139</ele>
        <time>2024-03-10T09:51:50Z</time>
      </trkpt>
      <trkpt lat="49.1093" lon="0.18922">
        <ele>139.2</ele>
        <time>2024-03-10T09:51:51Z</time>
      </trkpt>
      <trkpt lat="49.10936" lon="0.18931">
        <ele>139.3</ele>
        <time>2024-03-10T09:51:52Z</time>
      </trkpt>
      <trkpt lat="49.10941" lon="0.1894">
        <ele>139.4</ele>
        <time>2024-03-10T09:51:53Z</time>
      </trkpt>
      <trkpt lat="49.10946" lon="0.18948">
        <ele>139.6</ele>
        <time>2024-03-10T09:51:54Z</time>
      </trkpt>
      <trkpt lat="49.10952" lon="0.18957">
        <ele>139.7</ele>
        <time>2024-03-10T09:51:55Z</time>
      </trkpt>
      <trkpt lat="49.10957" lon="0.18965">
        <ele>139.9</ele>
        <time>2024-03-10T09:51:56Z</time>
      </trkpt>
      <trkpt lat="49.10964" lon="0.18973">
        <ele>140.1</ele>
        <time>2024-03-10T09:51:57Z</time>
      </trkpt>
      <trkpt lat="49.1097" lon="0.1898">
        <ele>140.2</ele>
        <time>2024-03-10T09:51:58Z</time>
      </trkpt>
      <trkpt lat="49.10976" lon="0.18987">
        <ele>140.3</ele>
        <time>2024-03-10T09:51:59Z</time>
      </trkpt>
      <trkpt lat="49.10982" lon="0.18995">
        <ele>140.5</ele>
        <time>2024-03-10T09:52:00Z</time>
      </trkpt>
      <trkpt lat="49.10988" lon="0.19002">
        <ele>140.5</ele>
        <time>2024-03-10T09:52:01Z</time>
      </trkpt>
      <trkpt lat="49.10993" lon="0.19009">
        <ele>140.6</ele>
        <time>2024-03-10T09:52:02Z</time>
      </trkpt>
      <trkpt lat="49.11" lon="0.19017">
        <ele>140.7</ele>
        <time>2024-03-10T09:52:03Z</time>
      </trkpt>
      <trkpt lat="49.11006" lon="0.19025">
        <ele>140.8</ele>
        <time>2024-03-10T09:52:04Z</time>
      </trkpt>
      <trkpt lat="49.11012" lon="0.19033">
        <ele>140.9</ele>
        <time>2024-03-10T09:52:05Z</time>
      </trkpt>
      <trkpt lat="49.11019" lon="0.19041">
        <ele>141</ele>
        <time>2024-03-10T09:52:06Z</time>
      </trkpt>
      <trkpt lat="49.11025" lon="0.1905">
        <ele>141.2</ele>
        <time>2024-03-10T09:52:07Z</time>
      </trkpt>
      <trkpt lat="49.11032" lon="0.19058">
        <ele>141.3</ele>
        <time>2024-03-10T09:52:08Z</time>
      </trkpt>
      <trkpt lat="49.11038" lon="0.19066">
        <ele>141.3</ele>
        <time>2024-03-10T09:52:09Z</time>
      </trkpt>
      <trkpt lat="49.11044" lon="0.19074">
        <ele>141.4</ele>
        <time>2024-03-10T09:52:10Z</time>
      </trkpt>
      <trkpt lat="49.1105" lon="0.19082">
        <ele>141.5</ele>
        <time>2024-03-10T09:52:11Z</time>
      </trkpt>
      <trkpt lat="49.11057" lon="0.1909">
        <ele>141.6</ele>
        <time>2024-03-10T09:52:12Z</time>
      </trkpt>
      <trkpt lat="49.11063" lon="0.19097">
        <ele>141.6</ele>
        <time>2024-03-10T09:52:13Z</time>
      </trkpt>
      <trkpt lat="49.1107" lon="0.19104">
        <ele>141.7</ele>
        <time>2024-03-10T09:52:14Z</time>
      </trkpt>
      <trkpt lat="49.11077" lon="0.19112">
        <ele>141.8</ele>
        <time>2024-03-10T09:52:15Z</time>
      </trkpt>
      <trkpt lat="49.11084" lon="0.19119">
        <ele>141.9</ele>
        <time>2024-03-10T09:52:16Z</time>
      </trkpt>
      <trkpt lat="49.11091" lon="0.19125">
        <ele>142</ele>
        <time>2024-03-10T09:52:17Z</time>
      </trkpt>
      <trkpt lat="49.11097" lon="0.19132">
        <ele>142.1</ele>
        <time>2024-03-10T09:52:18Z</time>
      </trkpt>
      <trkpt lat="49.11104" lon="0.19138">
        <ele>142.2</ele>
        <time>2024-03-10T09:52:19Z</time>
      </trkpt>
      <trkpt lat="49.11111" lon="0.19145">
        <ele>142.2</ele>
        <time>2024-03-10T09:52:20Z</time>
      </trkpt>
      <trkpt lat="49.11117" lon="0.19152">
        <ele>142.3</ele>
        <time>2024-03-10T09:52:21Z</time>
      </trkpt>
      <trkpt lat="49.11124" lon="0.19159">
        <ele>142.3</ele>
        <time>2024-03-10T09:52:22Z</time>
      </trkpt>
      <trkpt lat="49.11131" lon="0.19166">
        <ele>142.4</ele>
        <time>2024-03-10T09:52:23Z</time>
      </trkpt>
      <trkpt lat="49.11138" lon="0.19174">
        <ele>142.5</ele>
        <time>2024-03-10T09:52:24Z</time>
      </trkpt>
      <trkpt lat="49.11145" lon="0.19181">
        <ele>142.5</ele>
        <time>2024-03-10T09:52:25Z</time>
      </trkpt>
      <trkpt lat="49.11151" lon="0.19189">
        <ele>142.6</ele>
        <time>2024-03-10T09:52:26Z</time>
      </trkpt>
      <trkpt lat="49.11158" lon="0.19197">
        <ele>142.6</ele>
        <time>2024-03-10T09:52:27Z</time>
      </trkpt>
      <trkpt lat="49.11164" lon="0.19204">
        <ele>142.7</ele>
        <time>2024-03-10T09:52:28Z</time>
      </trkpt>
      <trkpt lat="49.1117" lon="0.19213">
        <ele>142.7</ele>
        <time>2024-03-10T09:52:29Z</time>
      </trkpt>
      <trkpt lat="49.11176" lon="0.19221">
        <ele>142.8</ele>
        <time>2024-03-10T09:52:30Z</time>
      </trkpt>
      <trkpt lat="49.11182" lon="0.19229">
        <ele>142.8</ele>
        <time>2024-03-10T09:52:31Z</time>
      </trkpt>
      <trkpt lat="49.11189" lon="0.19237">
        <ele>142.8</ele>
        <time>2024-03-10T09:52:32Z</time>
      </trkpt>
      <trkpt lat="49.11195" lon="0.19245">
        <ele>142.8</ele>
        <time>2024-03-10T09:52:33Z</time>
      </trkpt>
      <trkpt lat="49.11201" lon="0.19254">
        <ele>142.8</ele>
        <time>2024-03-10T09:52:34Z</time>
      </trkpt>
      <trkpt lat="49.11207" lon="0.19262">
        <ele>142.7</ele>
        <time>2024-03-10T09:52:35Z</time>
      </trkpt>
      <trkpt lat="49.11213" lon="0.19271">
        <ele>142.7</ele>
        <time>2024-03-10T09:52:36Z</time>
      </trkpt>
      <trkpt lat="49.11219" lon="0.19279">
        <ele>142.7</ele>
        <time>2024-03-10T09:52:37Z</time>
      </trkpt>
      <trkpt lat="49.11225" lon="0.19288">
        <ele>142.7</ele>
        <time>2024-03-10T09:52:38Z</time>
      </trkpt>
      <trkpt lat="49.11231" lon="0.19296">
        <ele>142.7</ele>
        <time>2024-03-10T09:52:39Z</time>
      </trkpt>
      <trkpt lat="49.11237" lon="0.19305">
        <ele>142.7</ele>
        <time>2024-03-10T09:52:40Z</time>
      </trkpt>
      <trkpt lat="49.11243" lon="0.19314">
        <ele>142.7</ele>
        <time>2024-03-10T09:52:41Z</time>
      </trkpt>
      <trkpt lat="49.11249" lon="0.19322">
        <ele>142.7</ele>
        <time>2024-03-10T09:52:42Z</time>
      </trkpt>
      <trkpt lat="49.11255" lon="0.19331">
        <ele>142.7</ele>
        <time>2024-03-10T09:52:43Z</time>
      </trkpt>
      <trkpt lat="49.11261" lon="0.19339">
        <ele>142.6</ele>
        <time>2024-03-10T09:52:44Z</time>
      </trkpt>
      <trkpt lat="49.11267" lon="0.19348">
        <ele>142.6</ele>
        <time>2024-03-10T09:52:45Z</time>
      </trkpt>
      <trkpt lat="49.11273" lon="0.19356">
        <ele>142.6</ele>
        <time>2024-03-10T09:52:46Z</time>
      </trkpt>
      <trkpt lat="49.11279" lon="0.19364">
        <ele>142.6</ele>
        <time>2024-03-10T09:52:47Z</time>
      </trkpt>
      <trkpt lat="49.11285" lon="0.19372">
        <ele>142.5</ele>
        <time>2024-03-10T09:52:48Z</time>
      </trkpt>
      <trkpt lat="49.11291" lon="0.19381">
        <ele>142.5</ele>
        <time>2024-03-10T09:52:49Z</time>
      </trkpt>
      <trkpt lat="49.11298" lon="0.1939">
        <ele>142.4</ele>
        <time>2024-03-10T09:52:50Z</time>
      </trkpt>
      <trkpt lat="49.11304" lon="0.19398">
        <ele>142.4</ele>
        <time>2024-03-10T09:52:51Z</time>
      </trkpt>
      <trkpt lat="49.11311" lon="0.19407">
        <ele>142.4</ele>
        <time>2024-03-10T09:52:52Z</time>
      </trkpt>
      <trkpt lat="49.11317" lon="0.19414">
        <ele>142.3</ele>
        <time>2024-03-10T09:52:53Z</time>
      </trkpt>
      <trkpt lat="49.11323" lon="0.19422">
        <ele>142.3</ele>
        <time>2024-03-10T09:52:54Z</time>
      </trkpt>
      <trkpt lat="49.11329" lon="0.1943">
        <ele>142.3</ele>
        <time>2024-03-10T09:52:55Z</time>
      </trkpt>
      <trkpt lat="49.11335" lon="0.19438">
        <ele>142.3</ele>
        <time>2024-03-10T09:52:56Z</time>
      </trkpt>
      <trkpt lat="49.11341" lon="0.19446">
        <ele>142.3</ele>
        <time>2024-03-10T09:52:57Z</time>
      </trkpt>
      <trkpt lat="49.11347" lon="0.19455">
        <ele>142.3</ele>
        <time>2024-03-10T09:52:58Z</time>
      </trkpt>
      <trkpt lat="49.11353" lon="0.19464">
        <ele>142.3</ele>
        <time>2024-03-10T09:52:59Z</time>
      </trkpt>
      <trkpt lat="49.11359" lon="0.19472">
        <ele>142.2</ele>
        <time>2024-03-10T09:53:00Z</time>
      </trkpt>
      <trkpt lat="49.11365" lon="0.19481">
        <ele>142.2</ele>
        <time>2024-03-10T09:53:01Z</time>
      </trkpt>
      <trkpt lat="49.1137" lon="0.1949">
        <ele>142.2</ele>
        <time>2024-03-10T09:53:02Z</time>
      </trkpt>
      <trkpt lat="49.11376" lon="0.19498">
        <ele>142.2</ele>
        <time>2024-03-10T09:53:03Z</time>
      </trkpt>
      <trkpt lat="49.11382" lon="0.19506">
        <ele>142.1</ele>
        <time>2024-03-10T09:53:04Z</time>
      </trkpt>
      <trkpt lat="49.11388" lon="0.19515">
        <ele>142.1</ele>
        <time>2024-03-10T09:53:05Z</time>
      </trkpt>
      <trkpt lat="49.11393" lon="0.19523">
        <ele>142.1</ele>
        <time>2024-03-10T09:53:06Z</time>
      </trkpt>
      <trkpt lat="49.114" lon="0.19531">
        <ele>142.2</ele>
        <time>2024-03-10T09:53:07Z</time>
      </trkpt>
      <trkpt lat="49.11406" lon="0.19539">
        <ele>142.2</ele>
        <time>2024-03-10T09:53:08Z</time>
      </trkpt>
      <trkpt lat="49.11411" lon="0.19546">
        <ele>142.2</ele>
        <time>2024-03-10T09:53:09Z</time>
      </trkpt>
      <trkpt lat="49.11417" lon="0.19553">
        <ele>142.2</ele>
        <time>2024-03-10T09:53:10Z</time>
      </trkpt>
      <trkpt lat="49.11423" lon="0.19559">
        <ele>142.2</ele>
        <time>2024-03-10T09:53:11Z</time>
      </trkpt>
      <trkpt lat="49.11431" lon="0.19565">
        <ele>142.1</ele>
        <time>2024-03-10T09:53:12Z</time>
      </trkpt>
      <trkpt lat="49.11438" lon="0.1957">
        <ele>142.1</ele>
        <time>2024-03-10T09:53:13Z</time>
      </trkpt>
      <trkpt lat="49.11447" lon="0.19574">
        <ele>142.1</ele>
        <time>2024-03-10T09:53:14Z</time>
      </trkpt>
      <trkpt lat="49.11456" lon="0.19576">
        <ele>142.1</ele>
        <time>2024-03-10T09:53:15Z</time>
      </trkpt>
      <trkpt lat="49.11464" lon="0.19577">
        <ele>142.1</ele>
        <time>2024-03-10T09:53:16Z</time>
      </trkpt>
      <trkpt lat="49.11473" lon="0.19576">
        <ele>142.1</ele>
        <time>2024-03-10T09:53:17Z</time>
      </trkpt>
      <trkpt lat="49.11482" lon="0.19576">
        <ele>142.1</ele>
        <time>2024-03-10T09:53:18Z</time>
      </trkpt>
      <trkpt lat="49.11491" lon="0.19576">
        <ele>142.1</ele>
        <time>2024-03-10T09:53:19Z</time>
      </trkpt>
      <trkpt lat="49.11499" lon="0.19575">
        <ele>142.1</ele>
        <time>2024-03-10T09:53:20Z</time>
      </trkpt>
      <trkpt lat="49.11508" lon="0.19574">
        <ele>142.1</ele>
        <time>2024-03-10T09:53:21Z</time>
      </trkpt>
      <trkpt lat="49.11516" lon="0.19573">
        <ele>142.1</ele>
        <time>2024-03-10T09:53:22Z</time>
      </trkpt>
      <trkpt lat="49.11525" lon="0.19573">
        <ele>142.1</ele>
        <time>2024-03-10T09:53:23Z</time>
      </trkpt>
      <trkpt lat="49.11533" lon="0.19572">
        <ele>142</ele>
        <time>2024-03-10T09:53:24Z</time>
      </trkpt>
      <trkpt lat="49.11541" lon="0.19571">
        <ele>141.9</ele>
        <time>2024-03-10T09:53:25Z</time>
      </trkpt>
      <trkpt lat="49.11549" lon="0.1957">
        <ele>141.9</ele>
        <time>2024-03-10T09:53:26Z</time>
      </trkpt>
      <trkpt lat="49.11557" lon="0.19569">
        <ele>141.8</ele>
        <time>2024-03-10T09:53:27Z</time>
      </trkpt>
      <trkpt lat="49.11565" lon="0.19568">
        <ele>141.8</ele>
        <time>2024-03-10T09:53:28Z</time>
      </trkpt>
      <trkpt lat="49.11574" lon="0.19568">
        <ele>141.7</ele>
        <time>2024-03-10T09:53:29Z</time>
      </trkpt>
      <trkpt lat="49.11582" lon="0.19567">
        <ele>141.7</ele>
        <time>2024-03-10T09:53:30Z</time>
      </trkpt>
      <trkpt lat="49.1159" lon="0.19566">
        <ele>141.5</ele>
        <time>2024-03-10T09:53:31Z</time>
      </trkpt>
      <trkpt lat="49.11599" lon="0.19565">
        <ele>141.4</ele>
        <time>2024-03-10T09:53:32Z</time>
      </trkpt>
      <trkpt lat="49.11607" lon="0.19565">
        <ele>141.3</ele>
        <time>2024-03-10T09:53:33Z</time>
      </trkpt>
      <trkpt lat="49.11616" lon="0.19565">
        <ele>141.2</ele>
        <time>2024-03-10T09:53:34Z</time>
      </trkpt>
      <trkpt lat="49.11625" lon="0.19564">
        <ele>141</ele>
        <time>2024-03-10T09:53:35Z</time>
      </trkpt>
      <trkpt lat="49.11633" lon="0.19563">
        <ele>140.9</ele>
        <time>2024-03-10T09:53:36Z</time>
      </trkpt>
      <trkpt lat="49.11642" lon="0.19562">
        <ele>140.8</ele>
        <time>2024-03-10T09:53:37Z</time>
      </trkpt>
      <trkpt lat="49.1165" lon="0.19562">
        <ele>140.7</ele>
        <time>2024-03-10T09:53:38Z</time>
      </trkpt>
      <trkpt lat="49.11658" lon="0.19563">
        <ele>140.7</ele>
        <time>2024-03-10T09:53:39Z</time>
      </trkpt>
      <trkpt lat="49.11666" lon="0.19567">
        <ele>140.6</ele>
        <time>2024-03-10T09:53:40Z</time>
      </trkpt>
      <trkpt lat="49.11673" lon="0.19574">
        <ele>140.5</ele>
        <time>2024-03-10T09:53:41Z</time>
      </trkpt>
      <trkpt lat="49.11679" lon="0.19582">
        <ele>140.4</ele>
        <time>2024-03-10T09:53:42Z</time>
      </trkpt>
      <trkpt lat="49.11685" lon="0.19592">
        <ele>140.3</ele>
        <time>2024-03-10T09:53:43Z</time>
      </trkpt>
      <trkpt lat="49.1169" lon="0.19603">
        <ele>140.2</ele>
        <time>2024-03-10T09:53:44Z</time>
      </trkpt>
      <trkpt lat="49.11695" lon="0.19614">
        <ele>140.1</ele>
        <time>2024-03-10T09:53:45Z</time>
      </trkpt>
      <trkpt lat="49.11699" lon="0.19625">
        <ele>140</ele>
        <time>2024-03-10T09:53:46Z</time>
      </trkpt>
      <trkpt lat="49.11704" lon="0.19634">
        <ele>140</ele>
        <time>2024-03-10T09:53:47Z</time>
      </trkpt>
      <trkpt lat="49.11709" lon="0.19644">
        <ele>140</ele>
        <time>2024-03-10T09:53:48Z</time>
      </trkpt>
      <trkpt lat="49.11713" lon="0.19654">
        <ele>140</ele>
        <time>2024-03-10T09:53:49Z</time>
      </trkpt>
      <trkpt lat="49.11718" lon="0.19664">
        <ele>139.9</ele>
        <time>2024-03-10T09:53:50Z</time>
      </trkpt>
      <trkpt lat="49.11722" lon="0.19673">
        <ele>139.9</ele>
        <time>2024-03-10T09:53:51Z</time>
      </trkpt>
      <trkpt lat="49.11726" lon="0.19682">
        <ele>139.9</ele>
        <time>2024-03-10T09:53:52Z</time>
      </trkpt>
      <trkpt lat="49.1173" lon="0.19692">
        <ele>139.8</ele>
        <time>2024-03-10T09:53:53Z</time>
      </trkpt>
      <trkpt lat="49.11733" lon="0.19701">
        <ele>139.8</ele>
        <time>2024-03-10T09:53:54Z</time>
      </trkpt>
      <trkpt lat="49.11737" lon="0.1971">
        <ele>139.7</ele>
        <time>2024-03-10T09:53:55Z</time>
      </trkpt>
      <trkpt lat="49.11741" lon="0.19718">
        <ele>139.6</ele>
        <time>2024-03-10T09:53:56Z</time>
      </trkpt>
      <trkpt lat="49.11745" lon="0.19728">
        <ele>139.5</ele>
        <time>2024-03-10T09:53:57Z</time>
      </trkpt>
      <trkpt lat="49.11748" lon="0.19738">
        <ele>139.4</ele>
        <time>2024-03-10T09:53:58Z</time>
      </trkpt>
      <trkpt lat="49.11752" lon="0.19747">
        <ele>139.4</ele>
        <time>2024-03-10T09:53:59Z</time>
      </trkpt>
      <trkpt lat="49.11756" lon="0.19756">
        <ele>139.3</ele>
        <time>2024-03-10T09:54:00Z</time>
      </trkpt>
      <trkpt lat="49.1176" lon="0.19765">
        <ele>139.2</ele>
        <time>2024-03-10T09:54:01Z</time>
      </trkpt>
      <trkpt lat="49.11764" lon="0.19774">
        <ele>139.1</ele>
        <time>2024-03-10T09:54:02Z</time>
      </trkpt>
      <trkpt lat="49.11768" lon="0.19783">
        <ele>139</ele>
        <time>2024-03-10T09:54:03Z</time>
      </trkpt>
      <trkpt lat="49.11773" lon="0.19793">
        <ele>139</ele>
        <time>2024-03-10T09:54:04Z</time>
      </trkpt>
      <trkpt lat="49.11777" lon="0.19801">
        <ele>138.9</ele>
        <time>2024-03-10T09:54:05Z</time>
      </trkpt>
      <trkpt lat="49.11781" lon="0.1981">
        <ele>138.8</ele>
        <time>2024-03-10T09:54:06Z</time>
      </trkpt>
      <trkpt lat="49.11785" lon="0.19819">
        <ele>138.7</ele>
        <time>2024-03-10T09:54:07Z</time>
      </trkpt>
      <trkpt lat="49.1179" lon="0.19828">
        <ele>138.5</ele>
        <time>2024-03-10T09:54:08Z</time>
      </trkpt>
      <trkpt lat="49.11794" lon="0.19836">
        <ele>138.4</ele>
        <time>2024-03-10T09:54:09Z</time>
      </trkpt>
      <trkpt lat="49.11797" lon="0.19844">
        <ele>138.3</ele>
        <time>2024-03-10T09:54:10Z</time>
      </trkpt>
      <trkpt lat="49.11801" lon="0.19854">
        <ele>138.1</ele>
        <time>2024-03-10T09:54:11Z</time>
      </trkpt>
      <trkpt lat="49.11806" lon="0.19863">
        <ele>137.9</ele>
        <time>2024-03-10T09:54:12Z</time>
      </trkpt>
      <trkpt lat="49.1181" lon="0.19872">
        <ele>137.7</ele>
        <time>2024-03-10T09:54:13Z</time>
      </trkpt>
      <trkpt lat="49.11815" lon="0.19882">
        <ele>137.5</ele>
        <time>2024-03-10T09:54:14Z</time>
      </trkpt>
      <trkpt lat="49.1182" lon="0.19891">
        <ele>137.4</ele>
        <time>2024-03-10T09:54:15Z</time>
      </trkpt>
      <trkpt lat="49.11825" lon="0.199">
        <ele>137.2</ele>
        <time>2024-03-10T09:54:16Z</time>
      </trkpt>
      <trkpt lat="49.11831" lon="0.1991">
        <ele>137.1</ele>
        <time>2024-03-10T09:54:17Z</time>
      </trkpt>
      <trkpt lat="49.11837" lon="0.19921">
        <ele>137</ele>
        <time>2024-03-10T09:54:18Z</time>
      </trkpt>
      <trkpt lat="49.11843" lon="0.19931">
        <ele>136.9</ele>
        <time>2024-03-10T09:54:19Z</time>
      </trkpt>
      <trkpt lat="49.1185" lon="0.1994">
        <ele>136.7</ele>
        <time>2024-03-10T09:54:20Z</time>
      </trkpt>
      <trkpt lat="49.11856" lon="0.1995">
        <ele>136.6</ele>
        <time>2024-03-10T09:54:21Z</time>
      </trkpt>
      <trkpt lat="49.11862" lon="0.19959">
        <ele>136.4</ele>
        <time>2024-03-10T09:54:22Z</time>
      </trkpt>
      <trkpt lat="49.11868" lon="0.19969">
        <ele>136.3</ele>
        <time>2024-03-10T09:54:23Z</time>
      </trkpt>
      <trkpt lat="49.11874" lon="0.19979">
        <ele>136.1</ele>
        <time>2024-03-10T09:54:24Z</time>
      </trkpt>
      <trkpt lat="49.1188" lon="0.19989">
        <ele>136</ele>
        <time>2024-03-10T09:54:25Z</time>
      </trkpt>
      <trkpt lat="49.11885" lon="0.19999">
        <ele>135.8</ele>
        <time>2024-03-10T09:54:26Z</time>
      </trkpt>
      <trkpt lat="49.11891" lon="0.20009">
        <ele>135.7</ele>
        <time>2024-03-10T09:54:27Z</time>
      </trkpt>
      <trkpt lat="49.11897" lon="0.20019">
        <ele>135.6</ele>
        <time>2024-03-10T09:54:28Z</time>
      </trkpt>
      <trkpt lat="49.11902" lon="0.20029">
        <ele>135.4</ele>
        <time>2024-03-10T09:54:29Z</time>
      </trkpt>
      <trkpt lat="49.11908" lon="0.20039">
        <ele>135.1</ele>
        <time>2024-03-10T09:54:30Z</time>
      </trkpt>
      <trkpt lat="49.11915" lon="0.20051">
        <ele>134.8</ele>
        <time>2024-03-10T09:54:31Z</time>
      </trkpt>
      <trkpt lat="49.11922" lon="0.20062">
        <ele>134.5</ele>
        <time>2024-03-10T09:54:32Z</time>
      </trkpt>
      <trkpt lat="49.11929" lon="0.20074">
        <ele>134.2</ele>
        <time>2024-03-10T09:54:33Z</time>
      </trkpt>
      <trkpt lat="49.11936" lon="0.20085">
        <ele>133.8</ele>
        <time>2024-03-10T09:54:34Z</time>
      </trkpt>
      <trkpt lat="49.11943" lon="0.20097">
        <ele>133.5</ele>
        <time>2024-03-10T09:54:35Z</time>
      </trkpt>
      <trkpt lat="49.1195" lon="0.20109">
        <ele>133.1</ele>
        <time>2024-03-10T09:54:36Z</time>
      </trkpt>
      <trkpt lat="49.11958" lon="0.20121">
        <ele>132.7</ele>
        <time>2024-03-10T09:54:37Z</time>
      </trkpt>
      <trkpt lat="49.11965" lon="0.20134">
        <ele>132.4</ele>
        <time>2024-03-10T09:54:38Z</time>
      </trkpt>
      <trkpt lat="49.11972" lon="0.20147">
        <ele>132.1</ele>
        <time>2024-03-10T09:54:39Z</time>
      </trkpt>
      <trkpt lat="49.11979" lon="0.2016">
        <ele>131.9</ele>
        <time>2024-03-10T09:54:40Z</time>
      </trkpt>
      <trkpt lat="49.11985" lon="0.20174">
        <ele>131.7</ele>
        <time>2024-03-10T09:54:41Z</time>
      </trkpt>
      <trkpt lat="49.11992" lon="0.20187">
        <ele>131.5</ele>
        <time>2024-03-10T09:54:42Z</time>
      </trkpt>
      <trkpt lat="49.11998" lon="0.20201">
        <ele>131.4</ele>
        <time>2024-03-10T09:54:43Z</time>
      </trkpt>
      <trkpt lat="49.12004" lon="0.20215">
        <ele>131.3</ele>
        <time>2024-03-10T09:54:44Z</time>
      </trkpt>
      <trkpt lat="49.1201" lon="0.20228">
        <ele>131.2</ele>
        <time>2024-03-10T09:54:45Z</time>
      </trkpt>
      <trkpt lat="49.12016" lon="0.20242">
        <ele>131.2</ele>
        <time>2024-03-10T09:54:46Z</time>
      </trkpt>
      <trkpt lat="49.12021" lon="0.20255">
        <ele>131.1</ele>
        <time>2024-03-10T09:54:47Z</time>
      </trkpt>
      <trkpt lat="49.12027" lon="0.20267">
        <ele>131.1</ele>
        <time>2024-03-10T09:54:48Z</time>
      </trkpt>
      <trkpt lat="49.12032" lon="0.20279">
        <ele>131.1</ele>
        <time>2024-03-10T09:54:49Z</time>
      </trkpt>
      <trkpt lat="49.12038" lon="0.2029">
        <ele>131</ele>
        <time>2024-03-10T09:54:50Z</time>
      </trkpt>
      <trkpt lat="49.12044" lon="0.20302">
        <ele>131</ele>
        <time>2024-03-10T09:54:51Z</time>
      </trkpt>
      <trkpt lat="49.12049" lon="0.20314">
        <ele>130.9</ele>
        <time>2024-03-10T09:54:52Z</time>
      </trkpt>
      <trkpt lat="49.12054" lon="0.20327">
        <ele>130.9</ele>
        <time>2024-03-10T09:54:53Z</time>
      </trkpt>
      <trkpt lat="49.12059" lon="0.2034">
        <ele>130.9</ele>
        <time>2024-03-10T09:54:54Z</time>
      </trkpt>
      <trkpt lat="49.12065" lon="0.20352">
        <ele>130.8</ele>
        <time>2024-03-10T09:54:55Z</time>
      </trkpt>
      <trkpt lat="49.12071" lon="0.20363">
        <ele>130.8</ele>
        <time>2024-03-10T09:54:56Z</time>
      </trkpt>
      <trkpt lat="49.12076" lon="0.20373">
        <ele>130.8</ele>
        <time>2024-03-10T09:54:57Z</time>
      </trkpt>
      <trkpt lat="49.12082" lon="0.20384">
        <ele>130.8</ele>
        <time>2024-03-10T09:54:58Z</time>
      </trkpt>
      <trkpt lat="49.12088" lon="0.20395">
        <ele>130.8</ele>
        <time>2024-03-10T09:54:59Z</time>
      </trkpt>
      <trkpt lat="49.12095" lon="0.20405">
        <ele>130.8</ele>
        <time>2024-03-10T09:55:00Z</time>
      </trkpt>
      <trkpt lat="49.12101" lon="0.20414">
        <ele>130.8</ele>
        <time>2024-03-10T09:55:01Z</time>
      </trkpt>
      <trkpt lat="49.12108" lon="0.20424">
        <ele>130.8</ele>
        <time>2024-03-10T09:55:02Z</time>
      </trkpt>
      <trkpt lat="49.12114" lon="0.20433">
        <ele>130.8</ele>
        <time>2024-03-10T09:55:03Z</time>
      </trkpt>
      <trkpt lat="49.1212" lon="0.20442">
        <ele>130.7</ele>
        <time>2024-03-10T09:55:04Z</time>
      </trkpt>
      <trkpt lat="49.12126" lon="0.2045">
        <ele>130.7</ele>
        <time>2024-03-10T09:55:05Z</time>
      </trkpt>
      <trkpt lat="49.12132" lon="0.20459">
        <ele>130.7</ele>
        <time>2024-03-10T09:55:06Z</time>
      </trkpt>
      <trkpt lat="49.12138" lon="0.20468">
        <ele>130.7</ele>
        <time>2024-03-10T09:55:07Z</time>
      </trkpt>
      <trkpt lat="49.12144" lon="0.20477">
        <ele>130.7</ele>
        <time>2024-03-10T09:55:08Z</time>
      </trkpt>
      <trkpt lat="49.1215" lon="0.20485">
        <ele>130.7</ele>
        <time>2024-03-10T09:55:09Z</time>
      </trkpt>
      <trkpt lat="49.12157" lon="0.20494">
        <ele>130.7</ele>
        <time>2024-03-10T09:55:10Z</time>
      </trkpt>
      <trkpt lat="49.12163" lon="0.20503">
        <ele>130.7</ele>
        <time>2024-03-10T09:55:11Z</time>
      </trkpt>
      <trkpt lat="49.12169" lon="0.20511">
        <ele>130.7</ele>
        <time>2024-03-10T09:55:12Z</time>
      </trkpt>
      <trkpt lat="49.12175" lon="0.20519">
        <ele>130.7</ele>
        <time>2024-03-10T09:55:13Z</time>
      </trkpt>
      <trkpt lat="49.12181" lon="0.20527">
        <ele>130.7</ele>
        <time>2024-03-10T09:55:14Z</time>
      </trkpt>
      <trkpt lat="49.12188" lon="0.20535">
        <ele>130.7</ele>
        <time>2024-03-10T09:55:15Z</time>
      </trkpt>
      <trkpt lat="49.12193" lon="0.20544">
        <ele>130.7</ele>
        <time>2024-03-10T09:55:16Z</time>
      </trkpt>
      <trkpt lat="49.12199" lon="0.20553">
        <ele>130.7</ele>
        <time>2024-03-10T09:55:17Z</time>
      </trkpt>
      <trkpt lat="49.12204" lon="0.20562">
        <ele>130.8</ele>
        <time>2024-03-10T09:55:18Z</time>
      </trkpt>
      <trkpt lat="49.1221" lon="0.20571">
        <ele>130.8</ele>
        <time>2024-03-10T09:55:19Z</time>
      </trkpt>
      <trkpt lat="49.12216" lon="0.2058">
        <ele>130.8</ele>
        <time>2024-03-10T09:55:20Z</time>
      </trkpt>
      <trkpt lat="49.12222" lon="0.20589">
        <ele>130.8</ele>
        <time>2024-03-10T09:55:21Z</time>
      </trkpt>
      <trkpt lat="49.12228" lon="0.20597">
        <ele>130.8</ele>
        <time>2024-03-10T09:55:22Z</time>
      </trkpt>
      <trkpt lat="49.12235" lon="0.20604">
        <ele>130.7</ele>
        <time>2024-03-10T09:55:23Z</time>
      </trkpt>
      <trkpt lat="49.12242" lon="0.20611">
        <ele>130.7</ele>
        <time>2024-03-10T09:55:24Z</time>
      </trkpt>
      <trkpt lat="49.12249" lon="0.20618">
        <ele>130.6</ele>
        <time>2024-03-10T09:55:25Z</time>
      </trkpt>
      <trkpt lat="49.12257" lon="0.20624">
        <ele>130.4</ele>
        <time>2024-03-10T09:55:26Z</time>
      </trkpt>
      <trkpt lat="49.12264" lon="0.20631">
        <ele>130.3</ele>
        <time>2024-03-10T09:55:27Z</time>
      </trkpt>
      <trkpt lat="49.12271" lon="0.20638">
        <ele>130.1</ele>
        <time>2024-03-10T09:55:28Z</time>
      </trkpt>
      <trkpt lat="49.12279" lon="0.20644">
        <ele>130</ele>
        <time>2024-03-10T09:55:29Z</time>
      </trkpt>
      <trkpt lat="49.12287" lon="0.20651">
        <ele>129.8</ele>
        <time>2024-03-10T09:55:30Z</time>
      </trkpt>
      <trkpt lat="49.12295" lon="0.20657">
        <ele>129.6</ele>
        <time>2024-03-10T09:55:31Z</time>
      </trkpt>
      <trkpt lat="49.12302" lon="0.20664">
        <ele>129.4</ele>
        <time>2024-03-10T09:55:32Z</time>
      </trkpt>
      <trkpt lat="49.1231" lon="0.20671">
        <ele>129.3</ele>
        <time>2024-03-10T09:55:33Z</time>
      </trkpt>
      <trkpt lat="49.12317" lon="0.20679">
        <ele>129</ele>
        <time>2024-03-10T09:55:34Z</time>
      </trkpt>
      <trkpt lat="49.12324" lon="0.20687">
        <ele>128.8</ele>
        <time>2024-03-10T09:55:35Z</time>
      </trkpt>
      <trkpt lat="49.12331" lon="0.20694">
        <ele>128.6</ele>
        <time>2024-03-10T09:55:36Z</time>
      </trkpt>
      <trkpt lat="49.12338" lon="0.20701">
        <ele>128.3</ele>
        <time>2024-03-10T09:55:37Z</time>
      </trkpt>
      <trkpt lat="49.12346" lon="0.20709">
        <ele>128</ele>
        <time>2024-03-10T09:55:38Z</time>
      </trkpt>
      <trkpt lat="49.12353" lon="0.20716">
        <ele>127.6</ele>
        <time>2024-03-10T09:55:39Z</time>
      </trkpt>
      <trkpt lat="49.12361" lon="0.20722">
        <ele>127.3</ele>
        <time>2024-03-10T09:55:40Z</time>
      </trkpt>
      <trkpt lat="49.12369" lon="0.20728">
        <ele>126.9</ele>
        <time>2024-03-10T09:55:41Z</time>
      </trkpt>
      <trkpt lat="49.12378" lon="0.20733">
        <ele>126.7</ele>
        <time>2024-03-10T09:55:42Z</time>
      </trkpt>
      <trkpt lat="49.12387" lon="0.20736">
        <ele>126.4</ele>
        <time>2024-03-10T09:55:43Z</time>
      </trkpt>
      <trkpt lat="49.12396" lon="0.20739">
        <ele>126.1</ele>
        <time>2024-03-10T09:55:44Z</time>
      </trkpt>
      <trkpt lat="49.12405" lon="0.20741">
        <ele>125.7</ele>
        <time>2024-03-10T09:55:45Z</time>
      </trkpt>
      <trkpt lat="49.12415" lon="0.20742">
        <ele>125.2</ele>
        <time>2024-03-10T09:55:46Z</time>
      </trkpt>
      <trkpt lat="49.12425" lon="0.20743">
        <ele>124.7</ele>
        <time>2024-03-10T09:55:47Z</time>
      </trkpt>
      <trkpt lat="49.12435" lon="0.20745">
        <ele>124.3</ele>
        <time>2024-03-10T09:55:48Z</time>
      </trkpt>
      <trkpt lat="49.12445" lon="0.20747">
        <ele>123.9</ele>
        <time>2024-03-10T09:55:49Z</time>
      </trkpt>
      <trkpt lat="49.12455" lon="0.2075">
        <ele>123.8</ele>
        <time>2024-03-10T09:55:50Z</time>
      </trkpt>
      <trkpt lat="49.12464" lon="0.20756">
        <ele>123.5</ele>
        <time>2024-03-10T09:55:51Z</time>
      </trkpt>
      <trkpt lat="49.12472" lon="0.20765">
        <ele>123.2</ele>
        <time>2024-03-10T09:55:52Z</time>
      </trkpt>
      <trkpt lat="49.12478" lon="0.20776">
        <ele>123</ele>
        <time>2024-03-10T09:55:53Z</time>
      </trkpt>
      <trkpt lat="49.12483" lon="0.2079">
        <ele>122.9</ele>
        <time>2024-03-10T09:55:54Z</time>
      </trkpt>
      <trkpt lat="49.12486" lon="0.20804">
        <ele>122.8</ele>
        <time>2024-03-10T09:55:55Z</time>
      </trkpt>
      <trkpt lat="49.12487" lon="0.2082">
        <ele>122.8</ele>
        <time>2024-03-10T09:55:56Z</time>
      </trkpt>
      <trkpt lat="49.12487" lon="0.20834">
        <ele>122.9</ele>
        <time>2024-03-10T09:55:57Z</time>
      </trkpt>
      <trkpt lat="49.12488" lon="0.20849">
        <ele>123</ele>
        <time>2024-03-10T09:55:58Z</time>
      </trkpt>
      <trkpt lat="49.1249" lon="0.20863">
        <ele>123</ele>
        <time>2024-03-10T09:55:59Z</time>
      </trkpt>
      <trkpt lat="49.12492" lon="0.20877">
        <ele>123.1</ele>
        <time>2024-03-10T09:56:00Z</time>
      </trkpt>
      <trkpt lat="49.12496" lon="0.20889">
        <ele>123.2</ele>
        <time>2024-03-10T09:56:01Z</time>
      </trkpt>
      <trkpt lat="49.125" lon="0.20901">
        <ele>123.2</ele>
        <time>2024-03-10T09:56:02Z</time>
      </trkpt>
      <trkpt lat="49.12504" lon="0.20912">
        <ele>123.2</ele>
        <time>2024-03-10T09:56:03Z</time>
      </trkpt>
      <trkpt lat="49.12508" lon="0.20924">
        <ele>123.2</ele>
        <time>2024-03-10T09:56:04Z</time>
      </trkpt>
      <trkpt lat="49.12513" lon="0.20934">
        <ele>123.1</ele>
        <time>2024-03-10T09:56:05Z</time>
      </trkpt>
      <trkpt lat="49.12519" lon="0.20944">
        <ele>123</ele>
        <time>2024-03-10T09:56:06Z</time>
      </trkpt>
      <trkpt lat="49.12524" lon="0.20954">
        <ele>122.9</ele>
        <time>2024-03-10T09:56:07Z</time>
      </trkpt>
      <trkpt lat="49.1253" lon="0.20964">
        <ele>122.8</ele>
        <time>2024-03-10T09:56:08Z</time>
      </trkpt>
      <trkpt lat="49.12536" lon="0.20974">
        <ele>122.6</ele>
        <time>2024-03-10T09:56:09Z</time>
      </trkpt>
      <trkpt lat="49.12542" lon="0.20983">
        <ele>122.4</ele>
        <time>2024-03-10T09:56:10Z</time>
      </trkpt>
      <trkpt lat="49.12549" lon="0.20992">
        <ele>122.3</ele>
        <time>2024-03-10T09:56:11Z</time>
      </trkpt>
      <trkpt lat="49.12556" lon="0.21001">
        <ele>122.1</ele>
        <time>2024-03-10T09:56:12Z</time>
      </trkpt>
      <trkpt lat="49.12565" lon="0.2101">
        <ele>121.9</ele>
        <time>2024-03-10T09:56:13Z</time>
      </trkpt>
      <trkpt lat="49.12572" lon="0.21019">
        <ele>121.8</ele>
        <time>2024-03-10T09:56:14Z</time>
      </trkpt>
      <trkpt lat="49.1258" lon="0.21028">
        <ele>121.7</ele>
        <time>2024-03-10T09:56:15Z</time>
      </trkpt>
      <trkpt lat="49.12587" lon="0.21037">
        <ele>121.7</ele>
        <time>2024-03-10T09:56:16Z</time>
      </trkpt>
      <trkpt lat="49.12594" lon="0.21045">
        <ele>121.6</ele>
        <time>2024-03-10T09:56:17Z</time>
      </trkpt>
      <trkpt lat="49.12601" lon="0.21054">
        <ele>121.5</ele>
        <time>2024-03-10T09:56:18Z</time>
      </trkpt>
      <trkpt lat="49.12608" lon="0.21062">
        <ele>121.3</ele>
        <time>2024-03-10T09:56:19Z</time>
      </trkpt>
      <trkpt lat="49.12615" lon="0.21071">
        <ele>121.1</ele>
        <time>2024-03-10T09:56:20Z</time>
      </trkpt>
      <trkpt lat="49.12622" lon="0.21078">
        <ele>120.9</ele>
        <time>2024-03-10T09:56:21Z</time>
      </trkpt>
      <trkpt lat="49.1263" lon="0.21084">
        <ele>120.7</ele>
        <time>2024-03-10T09:56:22Z</time>
      </trkpt>
      <trkpt lat="49.12638" lon="0.2109">
        <ele>120.5</ele>
        <time>2024-03-10T09:56:23Z</time>
      </trkpt>
      <trkpt lat="49.12646" lon="0.21096">
        <ele>120.3</ele>
        <time>2024-03-10T09:56:24Z</time>
      </trkpt>
      <trkpt lat="49.12654" lon="0.21102">
        <ele>120.1</ele>
        <time>2024-03-10T09:56:25Z</time>
      </trkpt>
      <trkpt lat="49.12662" lon="0.21108">
        <ele>120</ele>
        <time>2024-03-10T09:56:26Z</time>
      </trkpt>
      <trkpt lat="49.12669" lon="0.21114">
        <ele>119.8</ele>
        <time>2024-03-10T09:56:27Z</time>
      </trkpt>
      <trkpt lat="49.12677" lon="0.21119">
        <ele>119.6</ele>
        <time>2024-03-10T09:56:28Z</time>
      </trkpt>
      <trkpt lat="49.12685" lon="0.21124">
        <ele>119.3</ele>
        <time>2024-03-10T09:56:29Z</time>
      </trkpt>
      <trkpt lat="49.12692" lon="0.21129">
        <ele>119</ele>
        <time>2024-03-10T09:56:30Z</time>
      </trkpt>
      <trkpt lat="49.127" lon="0.21134">
        <ele>118.7</ele>
        <time>2024-03-10T09:56:31Z</time>
      </trkpt>
      <trkpt lat="49.12709" lon="0.21139">
        <ele>118.4</ele>
        <time>2024-03-10T09:56:32Z</time>
      </trkpt>
      <trkpt lat="49.12717" lon="0.21145">
        <ele>118.1</ele>
        <time>2024-03-10T09:56:33Z</time>
      </trkpt>
      <trkpt lat="49.12727" lon="0.21151">
        <ele>117.8</ele>
        <time>2024-03-10T09:56:34Z</time>
      </trkpt>
      <trkpt lat="49.12737" lon="0.21157">
        <ele>117.6</ele>
        <time>2024-03-10T09:56:35Z</time>
      </trkpt>
      <trkpt lat="49.12747" lon="0.21162">
        <ele>117.4</ele>
        <time>2024-03-10T09:56:36Z</time>
      </trkpt>
      <trkpt lat="49.12757" lon="0.21166">
        <ele>117.2</ele>
        <time>2024-03-10T09:56:37Z</time>
      </trkpt>
      <trkpt lat="49.12768" lon="0.21169">
        <ele>116.9</ele>
        <time>2024-03-10T09:56:38Z</time>
      </trkpt>
      <trkpt lat="49.12778" lon="0.21173">
        <ele>116.7</ele>
        <time>2024-03-10T09:56:39Z</time>
      </trkpt>
      <trkpt lat="49.12788" lon="0.21176">
        <ele>116.4</ele>
        <time>2024-03-10T09:56:40Z</time>
      </trkpt>
      <trkpt lat="49.128" lon="0.21179">
        <ele>116</ele>
        <time>2024-03-10T09:56:41Z</time>
      </trkpt>
      <trkpt lat="49.1281" lon="0.21183">
        <ele>115.7</ele>
        <time>2024-03-10T09:56:42Z</time>
      </trkpt>
      <trkpt lat="49.12821" lon="0.21187">
        <ele>115.4</ele>
        <time>2024-03-10T09:56:43Z</time>
      </trkpt>
      <trkpt lat="49.12831" lon="0.2119">
        <ele>115.1</ele>
        <time>2024-03-10T09:56:44Z</time>
      </trkpt>
      <trkpt lat="49.12842" lon="0.21195">
        <ele>114.8</ele>
        <time>2024-03-10T09:56:45Z</time>
      </trkpt>
      <trkpt lat="49.12854" lon="0.21201">
        <ele>114.5</ele>
        <time>2024-03-10T09:56:46Z</time>
      </trkpt>
      <trkpt lat="49.12865" lon="0.21206">
        <ele>114.3</ele>
        <time>2024-03-10T09:56:47Z</time>
      </trkpt>
      <trkpt lat="49.12875" lon="0.21212">
        <ele>114.2</ele>
        <time>2024-03-10T09:56:48Z</time>
      </trkpt>
      <trkpt lat="49.12885" lon="0.21216">
        <ele>114.1</ele>
        <time>2024-03-10T09:56:49Z</time>
      </trkpt>
      <trkpt lat="49.12895" lon="0.21221">
        <ele>114</ele>
        <time>2024-03-10T09:56:50Z</time>
      </trkpt>
      <trkpt lat="49.12905" lon="0.21226">
        <ele>113.9</ele>
        <time>2024-03-10T09:56:51Z</time>
      </trkpt>
      <trkpt lat="49.12915" lon="0.21231">
        <ele>113.8</ele>
        <time>2024-03-10T09:56:52Z</time>
      </trkpt>
      <trkpt lat="49.12924" lon="0.21237">
        <ele>113.7</ele>
        <time>2024-03-10T09:56:53Z</time>
      </trkpt>
      <trkpt lat="49.12934" lon="0.21243">
        <ele>113.5</ele>
        <time>2024-03-10T09:56:54Z</time>
      </trkpt>
      <trkpt lat="49.12943" lon="0.21248">
        <ele>113.4</ele>
        <time>2024-03-10T09:56:55Z</time>
      </trkpt>
      <trkpt lat="49.12953" lon="0.21254">
        <ele>113.3</ele>
        <time>2024-03-10T09:56:56Z</time>
      </trkpt>
      <trkpt lat="49.12963" lon="0.21259">
        <ele>113.2</ele>
        <time>2024-03-10T09:56:57Z</time>
      </trkpt>
      <trkpt lat="49.12973" lon="0.21264">
        <ele>113.2</ele>
        <time>2024-03-10T09:56:58Z</time>
      </trkpt>
      <trkpt lat="49.12982" lon="0.2127">
        <ele>113.1</ele>
        <time>2024-03-10T09:56:59Z</time>
      </trkpt>
      <trkpt lat="49.12991" lon="0.21275">
        <ele>113.1</ele>
        <time>2024-03-10T09:57:00Z</time>
      </trkpt>
      <trkpt lat="49.13" lon="0.2128">
        <ele>113</ele>
        <time>2024-03-10T09:57:01Z</time>
      </trkpt>
      <trkpt lat="49.13008" lon="0.21285">
        <ele>112.9</ele>
        <time>2024-03-10T09:57:02Z</time>
      </trkpt>
      <trkpt lat="49.13017" lon="0.2129">
        <ele>112.9</ele>
        <time>2024-03-10T09:57:03Z</time>
      </trkpt>
      <trkpt lat="49.13026" lon="0.21295">
        <ele>112.9</ele>
        <time>2024-03-10T09:57:04Z</time>
      </trkpt>
      <trkpt lat="49.13034" lon="0.213">
        <ele>112.9</ele>
        <time>2024-03-10T09:57:05Z</time>
      </trkpt>
      <trkpt lat="49.13043" lon="0.21304">
        <ele>112.9</ele>
        <time>2024-03-10T09:57:06Z</time>
      </trkpt>
      <trkpt lat="49.13052" lon="0.21308">
        <ele>112.9</ele>
        <time>2024-03-10T09:57:07Z</time>
      </trkpt>
      <trkpt lat="49.13061" lon="0.21312">
        <ele>113</ele>
        <time>2024-03-10T09:57:08Z</time>
      </trkpt>
      <trkpt lat="49.13069" lon="0.21316">
        <ele>113</ele>
        <time>2024-03-10T09:57:09Z</time>
      </trkpt>
      <trkpt lat="49.13078" lon="0.21321">
        <ele>113</ele>
        <time>2024-03-10T09:57:10Z</time>
      </trkpt>
      <trkpt lat="49.13086" lon="0.21325">
        <ele>113</ele>
        <time>2024-03-10T09:57:11Z</time>
      </trkpt>
      <trkpt lat="49.13094" lon="0.2133">
        <ele>113</ele>
        <time>2024-03-10T09:57:12Z</time>
      </trkpt>
      <trkpt lat="49.13103" lon="0.21336">
        <ele>113.1</ele>
        <time>2024-03-10T09:57:13Z</time>
      </trkpt>
      <trkpt lat="49.13111" lon="0.21341">
        <ele>113.1</ele>
        <time>2024-03-10T09:57:14Z</time>
      </trkpt>
      <trkpt lat="49.13119" lon="0.21347">
        <ele>113.1</ele>
        <time>2024-03-10T09:57:15Z</time>
      </trkpt>
      <trkpt lat="49.13128" lon="0.21353">
        <ele>113.1</ele>
        <time>2024-03-10T09:57:16Z</time>
      </trkpt>
      <trkpt lat="49.13137" lon="0.21358">
        <ele>113.1</ele>
        <time>2024-03-10T09:57:17Z</time>
      </trkpt>
      <trkpt lat="49.13145" lon="0.21363">
        <ele>113.1</ele>
        <time>2024-03-10T09:57:18Z</time>
      </trkpt>
      <trkpt lat="49.13154" lon="0.21369">
        <ele>113.2</ele>
        <time>2024-03-10T09:57:19Z</time>
      </trkpt>
      <trkpt lat="49.13162" lon="0.21375">
        <ele>113.2</ele>
        <time>2024-03-10T09:57:20Z</time>
      </trkpt>
      <trkpt lat="49.13171" lon="0.2138">
        <ele>113.3</ele>
        <time>2024-03-10T09:57:21Z</time>
      </trkpt>
      <trkpt lat="49.1318" lon="0.21386">
        <ele>113.3</ele>
        <time>2024-03-10T09:57:22Z</time>
      </trkpt>
      <trkpt lat="49.13189" lon="0.2139">
        <ele>113.3</ele>
        <time>2024-03-10T09:57:23Z</time>
      </trkpt>
      <trkpt lat="49.13197" lon="0.21394">
        <ele>113.4</ele>
        <time>2024-03-10T09:57:24Z</time>
      </trkpt>
      <trkpt lat="49.13205" lon="0.21398">
        <ele>113.5</ele>
        <time>2024-03-10T09:57:25Z</time>
      </trkpt>
      <trkpt lat="49.13214" lon="0.21402">
        <ele>113.5</ele>
        <time>2024-03-10T09:57:26Z</time>
      </trkpt>
      <trkpt lat="49.13223" lon="0.21404">
        <ele>113.6</ele>
        <time>2024-03-10T09:57:27Z</time>
      </trkpt>
      <trkpt lat="49.13231" lon="0.21406">
        <ele>113.7</ele>
        <time>2024-03-10T09:57:28Z</time>
      </trkpt>
      <trkpt lat="49.13239" lon="0.21405">
        <ele>113.8</ele>
        <time>2024-03-10T09:57:29Z</time>
      </trkpt>
      <trkpt lat="49.13248" lon="0.21405">
        <ele>114</ele>
        <time>2024-03-10T09:57:30Z</time>
      </trkpt>
      <trkpt lat="49.13256" lon="0.21404">
        <ele>114.1</ele>
        <time>2024-03-10T09:57:31Z</time>
      </trkpt>
      <trkpt lat="49.13265" lon="0.21402">
        <ele>114.2</ele>
        <time>2024-03-10T09:57:32Z</time>
      </trkpt>
      <trkpt lat="49.13273" lon="0.214">
        <ele>114.3</ele>
        <time>2024-03-10T09:57:33Z</time>
      </trkpt>
      <trkpt lat="49.13281" lon="0.21398">
        <ele>114.4</ele>
        <time>2024-03-10T09:57:34Z</time>
      </trkpt>
      <trkpt lat="49.1329" lon="0.21397">
        <ele>114.5</ele>
        <time>2024-03-10T09:57:35Z</time>
      </trkpt>
      <trkpt lat="49.13298" lon="0.21396">
        <ele>114.7</ele>
        <time>2024-03-10T09:57:36Z</time>
      </trkpt>
      <trkpt lat="49.13306" lon="0.21395">
        <ele>114.8</ele>
        <time>2024-03-10T09:57:37Z</time>
      </trkpt>
      <trkpt lat="49.13314" lon="0.21395">
        <ele>114.9</ele>
        <time>2024-03-10T09:57:38Z</time>
      </trkpt>
      <trkpt lat="49.13322" lon="0.21395">
        <ele>115.1</ele>
        <time>2024-03-10T09:57:39Z</time>
      </trkpt>
      <trkpt lat="49.1333" lon="0.21395">
        <ele>115.2</ele>
        <time>2024-03-10T09:57:40Z</time>
      </trkpt>
      <trkpt lat="49.13338" lon="0.21395">
        <ele>115.3</ele>
        <time>2024-03-10T09:57:41Z</time>
      </trkpt>
      <trkpt lat="49.13345" lon="0.21395">
        <ele>115.3</ele>
        <time>2024-03-10T09:57:42Z</time>
      </trkpt>
      <trkpt lat="49.13352" lon="0.21395">
        <ele>115.3</ele>
        <time>2024-03-10T09:57:43Z</time>
      </trkpt>
      <trkpt lat="49.1336" lon="0.21396">
        <ele>115.3</ele>
        <time>2024-03-10T09:57:44Z</time>
      </trkpt>
      <trkpt lat="49.13367" lon="0.21397">
        <ele>115.3</ele>
        <time>2024-03-10T09:57:45Z</time>
      </trkpt>
      <trkpt lat="49.13374" lon="0.21397">
        <ele>115.3</ele>
        <time>2024-03-10T09:57:46Z</time>
      </trkpt>
      <trkpt lat="49.13382" lon="0.21398">
        <ele>115.2</ele>
        <time>2024-03-10T09:57:47Z</time>
      </trkpt>
      <trkpt lat="49.13389" lon="0.21399">
        <ele>115.2</ele>
        <time>2024-03-10T09:57:48Z</time>
      </trkpt>
      <trkpt lat="49.13397" lon="0.21399">
        <ele>115.1</ele>
        <time>2024-03-10T09:57:49Z</time>
      </trkpt>
      <trkpt lat="49.13405" lon="0.21399">
        <ele>115</ele>
        <time>2024-03-10T09:57:50Z</time>
      </trkpt>
      <trkpt lat="49.13412" lon="0.214">
        <ele>114.9</ele>
        <time>2024-03-10T09:57:51Z</time>
      </trkpt>
      <trkpt lat="49.1342" lon="0.214">
        <ele>114.9</ele>
        <time>2024-03-10T09:57:52Z</time>
      </trkpt>
      <trkpt lat="49.13428" lon="0.214">
        <ele>114.8</ele>
        <time>2024-03-10T09:57:53Z</time>
      </trkpt>
      <trkpt lat="49.13436" lon="0.21399">
        <ele>114.7</ele>
        <time>2024-03-10T09:57:54Z</time>
      </trkpt>
      <trkpt lat="49.13444" lon="0.21398">
        <ele>114.5</ele>
        <time>2024-03-10T09:57:55Z</time>
      </trkpt>
      <trkpt lat="49.13452" lon="0.21398">
        <ele>114.4</ele>
        <time>2024-03-10T09:57:56Z</time>
      </trkpt>
      <trkpt lat="49.1346" lon="0.21398">
        <ele>114.2</ele>
        <time>2024-03-10T09:57:57Z</time>
      </trkpt>
      <trkpt lat="49.13467" lon="0.21398">
        <ele>114</ele>
        <time>2024-03-10T09:57:58Z</time>
      </trkpt>
      <trkpt lat="49.13475" lon="0.214">
        <ele>113.8</ele>
        <time>2024-03-10T09:57:59Z</time>
      </trkpt>
      <trkpt lat="49.13483" lon="0.21403">
        <ele>113.7</ele>
        <time>2024-03-10T09:58:00Z</time>
      </trkpt>
      <trkpt lat="49.13491" lon="0.21406">
        <ele>113.5</ele>
        <time>2024-03-10T09:58:01Z</time>
      </trkpt>
      <trkpt lat="49.13499" lon="0.21409">
        <ele>113.3</ele>
        <time>2024-03-10T09:58:02Z</time>
      </trkpt>
      <trkpt lat="49.13507" lon="0.21412">
        <ele>113.1</ele>
        <time>2024-03-10T09:58:03Z</time>
      </trkpt>
      <trkpt lat="49.13515" lon="0.21415">
        <ele>112.9</ele>
        <time>2024-03-10T09:58:04Z</time>
      </trkpt>
      <trkpt lat="49.13523" lon="0.21418">
        <ele>112.7</ele>
        <time>2024-03-10T09:58:05Z</time>
      </trkpt>
      <trkpt lat="49.13531" lon="0.2142">
        <ele>112.4</ele>
        <time>2024-03-10T09:58:06Z</time>
      </trkpt>
      <trkpt lat="49.13539" lon="0.21423">
        <ele>112.1</ele>
        <time>2024-03-10T09:58:07Z</time>
      </trkpt>
      <trkpt lat="49.13547" lon="0.21426">
        <ele>111.8</ele>
        <time>2024-03-10T09:58:08Z</time>
      </trkpt>
      <trkpt lat="49.13554" lon="0.21428">
        <ele>111.4</ele>
        <time>2024-03-10T09:58:09Z</time>
      </trkpt>
      <trkpt lat="49.13561" lon="0.21431">
        <ele>111</ele>
        <time>2024-03-10T09:58:10Z</time>
      </trkpt>
      <trkpt lat="49.13569" lon="0.21435">
        <ele>110.6</ele>
        <time>2024-03-10T09:58:11Z</time>
      </trkpt>
      <trkpt lat="49.13576" lon="0.21437">
        <ele>110.1</ele>
        <time>2024-03-10T09:58:12Z</time>
      </trkpt>
      <trkpt lat="49.13584" lon="0.21441">
        <ele>109.7</ele>
        <time>2024-03-10T09:58:13Z</time>
      </trkpt>
      <trkpt lat="49.13592" lon="0.21445">
        <ele>109.3</ele>
        <time>2024-03-10T09:58:14Z</time>
      </trkpt>
      <trkpt lat="49.136" lon="0.2145">
        <ele>108.9</ele>
        <time>2024-03-10T09:58:15Z</time>
      </trkpt>
      <trkpt lat="49.13608" lon="0.21456">
        <ele>108.5</ele>
        <time>2024-03-10T09:58:16Z</time>
      </trkpt>
      <trkpt lat="49.13615" lon="0.21463">
        <ele>108.1</ele>
        <time>2024-03-10T09:58:17Z</time>
      </trkpt>
      <trkpt lat="49.13623" lon="0.21471">
        <ele>107.7</ele>
        <time>2024-03-10T09:58:18Z</time>
      </trkpt>
      <trkpt lat="49.1363" lon="0.21479">
        <ele>107.3</ele>
        <time>2024-03-10T09:58:19Z</time>
      </trkpt>
      <trkpt lat="49.13637" lon="0.21487">
        <ele>106.9</ele>
        <time>2024-03-10T09:58:20Z</time>
      </trkpt>
      <trkpt lat="49.13645" lon="0.21498">
        <ele>106.4</ele>
        <time>2024-03-10T09:58:21Z</time>
      </trkpt>
      <trkpt lat="49.13651" lon="0.21509">
        <ele>105.9</ele>
        <time>2024-03-10T09:58:22Z</time>
      </trkpt>
      <trkpt lat="49.13658" lon="0.2152">
        <ele>105.7</ele>
        <time>2024-03-10T09:58:23Z</time>
      </trkpt>
      <trkpt lat="49.13666" lon="0.21531">
        <ele>105.1</ele>
        <time>2024-03-10T09:58:24Z</time>
      </trkpt>
      <trkpt lat="49.13673" lon="0.21542">
        <ele>104.4</ele>
        <time>2024-03-10T09:58:25Z</time>
      </trkpt>
      <trkpt lat="49.13681" lon="0.21553">
        <ele>103.7</ele>
        <time>2024-03-10T09:58:26Z</time>
      </trkpt>
      <trkpt lat="49.13689" lon="0.21565">
        <ele>102.9</ele>
        <time>2024-03-10T09:58:27Z</time>
      </trkpt>
      <trkpt lat="49.13696" lon="0.21576">
        <ele>102.2</ele>
        <time>2024-03-10T09:58:28Z</time>
      </trkpt>
      <trkpt lat="49.13704" lon="0.21589">
        <ele>101.5</ele>
        <time>2024-03-10T09:58:29Z</time>
      </trkpt>
      <trkpt lat="49.13711" lon="0.21601">
        <ele>100.9</ele>
        <time>2024-03-10T09:58:30Z</time>
      </trkpt>
      <trkpt lat="49.13719" lon="0.21614">
        <ele>100.3</ele>
        <time>2024-03-10T09:58:31Z</time>
      </trkpt>
      <trkpt lat="49.13726" lon="0.21629">
        <ele>99.6</ele>
        <time>2024-03-10T09:58:32Z</time>
      </trkpt>
      <trkpt lat="49.13733" lon="0.21643">
        <ele>99.1</ele>
        <time>2024-03-10T09:58:33Z</time>
      </trkpt>
      <trkpt lat="49.1374" lon="0.21658">
        <ele>98.6</ele>
        <time>2024-03-10T09:58:34Z</time>
      </trkpt>
      <trkpt lat="49.13746" lon="0.21671">
        <ele>98.1</ele>
        <time>2024-03-10T09:58:35Z</time>
      </trkpt>
      <trkpt lat="49.13752" lon="0.21684">
        <ele>97.6</ele>
        <time>2024-03-10T09:58:36Z</time>
      </trkpt>
      <trkpt lat="49.13759" lon="0.21697">
        <ele>97.1</ele>
        <time>2024-03-10T09:58:37Z</time>
      </trkpt>
      <trkpt lat="49.13768" lon="0.21708">
        <ele>96.6</ele>
        <time>2024-03-10T09:58:38Z</time>
      </trkpt>
      <trkpt lat="49.13776" lon="0.21717">
        <ele>96.2</ele>
        <time>2024-03-10T09:58:39Z</time>
      </trkpt>
      <trkpt lat="49.13785" lon="0.21725">
        <ele>95.7</ele>
        <time>2024-03-10T09:58:40Z</time>
      </trkpt>
      <trkpt lat="49.13793" lon="0.21734">
        <ele>95.3</ele>
        <time>2024-03-10T09:58:41Z</time>
      </trkpt>
      <trkpt lat="49.13802" lon="0.21742">
        <ele>94.8</ele>
        <time>2024-03-10T09:58:42Z</time>
      </trkpt>
      <trkpt lat="49.1381" lon="0.2175">
        <ele>94.3</ele>
        <time>2024-03-10T09:58:43Z</time>
      </trkpt>
      <trkpt lat="49.13819" lon="0.21759">
        <ele>93.8</ele>
        <time>2024-03-10T09:58:44Z</time>
      </trkpt>
      <trkpt lat="49.13828" lon="0.21768">
        <ele>93.1</ele>
        <time>2024-03-10T09:58:45Z</time>
      </trkpt>
      <trkpt lat="49.13836" lon="0.21778">
        <ele>92.5</ele>
        <time>2024-03-10T09:58:46Z</time>
      </trkpt>
      <trkpt lat="49.13844" lon="0.21787">
        <ele>91.8</ele>
        <time>2024-03-10T09:58:47Z</time>
      </trkpt>
      <trkpt lat="49.13852" lon="0.21796">
        <ele>91.1</ele>
        <time>2024-03-10T09:58:48Z</time>
      </trkpt>
      <trkpt lat="49.13861" lon="0.21805">
        <ele>90.3</ele>
        <time>2024-03-10T09:58:49Z</time>
      </trkpt>
      <trkpt lat="49.1387" lon="0.21814">
        <ele>89.5</ele>
        <time>2024-03-10T09:58:50Z</time>
      </trkpt>
      <trkpt lat="49.13879" lon="0.21824">
        <ele>88.8</ele>
        <time>2024-03-10T09:58:51Z</time>
      </trkpt>
      <trkpt lat="49.13888" lon="0.21833">
        <ele>88</ele>
        <time>2024-03-10T09:58:52Z</time>
      </trkpt>
      <trkpt lat="49.13896" lon="0.21843">
        <ele>87.2</ele>
        <time>2024-03-10T09:58:53Z</time>
      </trkpt>
      <trkpt lat="49.13903" lon="0.21853">
        <ele>86.1</ele>
        <time>2024-03-10T09:58:54Z</time>
      </trkpt>
      <trkpt lat="49.13912" lon="0.21863">
        <ele>84.7</ele>
        <time>2024-03-10T09:58:55Z</time>
      </trkpt>
      <trkpt lat="49.13922" lon="0.21872">
        <ele>83.1</ele>
        <time>2024-03-10T09:58:56Z</time>
      </trkpt>
      <trkpt lat="49.13933" lon="0.21882">
        <ele>81.4</ele>
        <time>2024-03-10T09:58:57Z</time>
      </trkpt>
      <trkpt lat="49.13944" lon="0.21892">
        <ele>79.6</ele>
        <time>2024-03-10T09:58:58Z</time>
      </trkpt>
      <trkpt lat="49.13955" lon="0.21901">
        <ele>77.9</ele>
        <time>2024-03-10T09:58:59Z</time>
      </trkpt>
      <trkpt lat="49.13965" lon="0.21911">
        <ele>76.3</ele>
        <time>2024-03-10T09:59:00Z</time>
      </trkpt>
      <trkpt lat="49.13974" lon="0.2192">
        <ele>75</ele>
        <time>2024-03-10T09:59:01Z</time>
      </trkpt>
      <trkpt lat="49.13982" lon="0.21929">
        <ele>73.8</ele>
        <time>2024-03-10T09:59:02Z</time>
      </trkpt>
      <trkpt lat="49.1399" lon="0.21936">
        <ele>72.6</ele>
        <time>2024-03-10T09:59:03Z</time>
      </trkpt>
      <trkpt lat="49.13998" lon="0.21944">
        <ele>71.3</ele>
        <time>2024-03-10T09:59:04Z</time>
      </trkpt>
      <trkpt lat="49.14007" lon="0.21951">
        <ele>70</ele>
        <time>2024-03-10T09:59:05Z</time>
      </trkpt>
      <trkpt lat="49.14016" lon="0.21956">
        <ele>68.8</ele>
        <time>2024-03-10T09:59:06Z</time>
      </trkpt>
      <trkpt lat="49.14025" lon="0.21959">
        <ele>67.7</ele>
        <time>2024-03-10T09:59:07Z</time>
      </trkpt>
      <trkpt lat="49.14033" lon="0.2196">
        <ele>66.8</ele>
        <time>2024-03-10T09:59:08Z</time>
      </trkpt>
      <trkpt lat="49.1404" lon="0.21957">
        <ele>65.9</ele>
        <time>2024-03-10T09:59:09Z</time>
      </trkpt>
      <trkpt lat="49.14048" lon="0.21951">
        <ele>64.8</ele>
        <time>2024-03-10T09:59:10Z</time>
      </trkpt>
      <trkpt lat="49.14057" lon="0.21941">
        <ele>63.5</ele>
        <time>2024-03-10T09:59:11Z</time>
      </trkpt>
      <trkpt lat="49.14064" lon="0.21933">
        <ele>62.5</ele>
        <time>2024-03-10T09:59:12Z</time>
      </trkpt>
      <trkpt lat="49.1407" lon="0.21928">
        <ele>61.6</ele>
        <time>2024-03-10T09:59:13Z</time>
      </trkpt>
      <trkpt lat="49.14076" lon="0.21925">
        <ele>60.9</ele>
        <time>2024-03-10T09:59:14Z</time>
      </trkpt>
      <trkpt lat="49.14081" lon="0.21924">
        <ele>60.3</ele>
        <time>2024-03-10T09:59:15Z</time>
      </trkpt>
      <trkpt lat="49.14086" lon="0.21923">
        <ele>59.7</ele>
        <time>2024-03-10T09:59:16Z</time>
      </trkpt>
      <trkpt lat="49.14091" lon="0.21922">
        <ele>59.1</ele>
        <time>2024-03-10T09:59:17Z</time>
      </trkpt>
      <trkpt lat="49.14096" lon="0.21918">
        <ele>58.5</ele>
        <time>2024-03-10T09:59:18Z</time>
      </trkpt>
      <trkpt lat="49.14101" lon="0.21912">
        <ele>57.8</ele>
        <time>2024-03-10T09:59:19Z</time>
      </trkpt>
      <trkpt lat="49.14104" lon="0.21904">
        <ele>57.1</ele>
        <time>2024-03-10T09:59:20Z</time>
      </trkpt>
      <trkpt lat="49.14105" lon="0.21895">
        <ele>56.5</ele>
        <time>2024-03-10T09:59:21Z</time>
      </trkpt>
      <trkpt lat="49.14107" lon="0.21887">
        <ele>55.9</ele>
        <time>2024-03-10T09:59:22Z</time>
      </trkpt>
      <trkpt lat="49.14109" lon="0.2188">
        <ele>55.3</ele>
        <time>2024-03-10T09:59:23Z</time>
      </trkpt>
      <trkpt lat="49.14112" lon="0.21873">
        <ele>54.7</ele>
        <time>2024-03-10T09:59:24Z</time>
      </trkpt>
      <trkpt lat="49.14116" lon="0.21868">
        <ele>54.1</ele>
        <time>2024-03-10T09:59:25Z</time>
      </trkpt>
      <trkpt lat="49.14121" lon="0.21863">
        <ele>53.4</ele>
        <time>2024-03-10T09:59:26Z</time>
      </trkpt>
      <trkpt lat="49.14127" lon="0.21858">
        <ele>52.6</ele>
        <time>2024-03-10T09:59:27Z</time>
      </trkpt>
      <trkpt lat="49.14134" lon="0.21853">
        <ele>52.1</ele>
        <time>2024-03-10T09:59:28Z</time>
      </trkpt>
      <trkpt lat="49.14143" lon="0.21847">
        <ele>51.6</ele>
        <time>2024-03-10T09:59:29Z</time>
      </trkpt>
      <trkpt lat="49.14152" lon="0.21841">
        <ele>51</ele>
        <time>2024-03-10T09:59:30Z</time>
      </trkpt>
      <trkpt lat="49.14161" lon="0.21834">
        <ele>50.5</ele>
        <time>2024-03-10T09:59:31Z</time>
      </trkpt>
      <trkpt lat="49.14169" lon="0.21828">
        <ele>50.2</ele>
        <time>2024-03-10T09:59:32Z</time>
      </trkpt>
      <trkpt lat="49.14177" lon="0.21821">
        <ele>49.9</ele>
        <time>2024-03-10T09:59:33Z</time>
      </trkpt>
      <trkpt lat="49.14186" lon="0.21816">
        <ele>49.7</ele>
        <time>2024-03-10T09:59:34Z</time>
      </trkpt>
      <trkpt lat="49.14194" lon="0.21811">
        <ele>49.5</ele>
        <time>2024-03-10T09:59:35Z</time>
      </trkpt>
      <trkpt lat="49.14203" lon="0.21808">
        <ele>49.5</ele>
        <time>2024-03-10T09:59:36Z</time>
      </trkpt>
      <trkpt lat="49.14212" lon="0.21806">
        <ele>49.4</ele>
        <time>2024-03-10T09:59:37Z</time>
      </trkpt>
      <trkpt lat="49.14221" lon="0.21805">
        <ele>49.4</ele>
        <time>2024-03-10T09:59:38Z</time>
      </trkpt>
      <trkpt lat="49.14229" lon="0.21805">
        <ele>49.4</ele>
        <time>2024-03-10T09:59:39Z</time>
      </trkpt>
      <trkpt lat="49.14238" lon="0.21806">
        <ele>49.3</ele>
        <time>2024-03-10T09:59:40Z</time>
      </trkpt>
      <trkpt lat="49.14247" lon="0.21808">
        <ele>49.3</ele>
        <time>2024-03-10T09:59:41Z</time>
      </trkpt>
      <trkpt lat="49.14255" lon="0.21808">
        <ele>49.3</ele>
        <time>2024-03-10T09:59:42Z</time>
      </trkpt>
      <trkpt lat="49.14263" lon="0.21809">
        <ele>49.4</ele>
        <time>2024-03-10T09:59:43Z</time>
      </trkpt>
      <trkpt lat="49.1427" lon="0.2181">
        <ele>49.5</ele>
        <time>2024-03-10T09:59:44Z</time>
      </trkpt>
      <trkpt lat="49.14278" lon="0.2181">
        <ele>49.6</ele>
        <time>2024-03-10T09:59:45Z</time>
      </trkpt>
      <trkpt lat="49.14286" lon="0.2181">
        <ele>49.8</ele>
        <time>2024-03-10T09:59:46Z</time>
      </trkpt>
      <trkpt lat="49.14292" lon="0.2181">
        <ele>50</ele>
        <time>2024-03-10T09:59:47Z</time>
      </trkpt>
      <trkpt lat="49.14296" lon="0.21812">
        <ele>50.2</ele>
        <time>2024-03-10T09:59:48Z</time>
      </trkpt>
      <trkpt lat="49.14301" lon="0.21813">
        <ele>50.4</ele>
        <time>2024-03-10T09:59:49Z</time>
      </trkpt>
      <trkpt lat="49.14304" lon="0.21814">
        <ele>50.6</ele>
        <time>2024-03-10T09:59:50Z</time>
      </trkpt>
      <trkpt lat="49.14305" lon="0.21813">
        <ele>50.6</ele>
        <time>2024-03-10T09:59:51Z</time>
      </trkpt>
      <trkpt lat="49.14306" lon="0.21813">
        <ele>50.7</ele>
        <time>2024-03-10T09:59:52Z</time>
      </trkpt>
      <trkpt lat="49.14306" lon="0.21813">
        <ele>50.7</ele>
        <time>2024-03-10T09:59:53Z</time>
      </trkpt>
      <trkpt lat="49.14306" lon="0.21813">
        <ele>50.7</ele>
        <time>2024-03-10T09:59:54Z</time>
      </trkpt>
      <trkpt lat="49.14306" lon="0.21812">
        <ele>50.7</ele>
        <time>2024-03-10T09:59:55Z</time>
      </trkpt>
      <trkpt lat="49.14306" lon="0.21813">
        <ele>50.7</ele>
        <time>2024-03-10T09:59:56Z</time>
      </trkpt>
      <trkpt lat="49.14307" lon="0.21812">
        <ele>50.7</ele>
        <time>2024-03-10T09:59:57Z</time>
      </trkpt>
      <trkpt lat="49.14307" lon="0.21812">
        <ele>50.8</ele>
        <time>2024-03-10T09:59:58Z</time>
      </trkpt>
      <trkpt lat="49.14307" lon="0.21812">
        <ele>50.8</ele>
        <time>2024-03-10T09:59:59Z</time>
      </trkpt>
      <trkpt lat="49.14307" lon="0.21811">
        <ele>50.8</ele>
        <time>2024-03-10T10:00:00Z</time>
      </trkpt>
      <trkpt lat="49.14307" lon="0.2181">
        <ele>50.8</ele>
        <time>2024-03-10T10:00:01Z</time>
      </trkpt>
      <trkpt lat="49.14307" lon="0.2181">
        <ele>50.8</ele>
        <time>2024-03-10T10:00:02Z</time>
      </trkpt>
      <trkpt lat="49.14307" lon="0.2181">
        <ele>50.8</ele>
        <time>2024-03-10T10:00:03Z</time>
      </trkpt>
      <trkpt lat="49.14307" lon="0.2181">
        <ele>50.8</ele>
        <time>2024-03-10T10:00:04Z</time>
      </trkpt>
      <trkpt lat="49.14307" lon="0.2181">
        <ele>50.8</ele>
        <time>2024-03-10T10:00:05Z</time>
      </trkpt>
      <trkpt lat="49.14307" lon="0.2181">
        <ele>50.8</ele>
        <time>2024-03-10T10:00:06Z</time>
      </trkpt>
      <trkpt lat="49.14307" lon="0.2181">
        <ele>50.8</ele>
        <time>2024-03-10T10:00:07Z</time>
      </trkpt>
      <trkpt lat="49.14307" lon="0.2181">
        <ele>50.8</ele>
        <time>2024-03-10T10:00:08Z</time>
      </trkpt>
      <trkpt lat="49.14307" lon="0.2181">
        <ele>50.8</ele>
        <time>2024-03-10T10:00:09Z</time>
      </trkpt>
      <trkpt lat="49.14307" lon="0.2181">
        <ele>50.8</ele>
        <time>2024-03-10T10:00:10Z</time>
      </trkpt>
      <trkpt lat="49.14307" lon="0.2181">
        <ele>50.8</ele>
        <time>2024-03-10T10:00:11Z</time>
      </trkpt>
      <trkpt lat="49.14307" lon="0.2181">
        <ele>50.8</ele>
        <time>2024-03-10T10:00:12Z</time>
      </trkpt>
      <trkpt lat="49.14307" lon="0.2181">
        <ele>50.8</ele>
        <time>2024-03-10T10:00:13Z</time>
      </trkpt>
      <trkpt lat="49.14307" lon="0.2181">
        <ele>50.8</ele>
        <time>2024-03-10T10:00:14Z</time>
      </trkpt>
      <trkpt lat="49.14307" lon="0.2181">
        <ele>50.8</ele>
        <time>2024-03-10T10:00:15Z</time>
      </trkpt>
      <trkpt lat="49.14307" lon="0.2181">
        <ele>50.8</ele>
        <time>2024-03-10T10:00:16Z</time>
      </trkpt>
      <trkpt lat="49.14307" lon="0.2181">
        <ele>50.8</ele>
        <time>2024-03-10T10:00:17Z</time>
      </trkpt>
      <trkpt lat="49.14307" lon="0.2181">
        <ele>50.8</ele>
        <time>2024-03-10T10:00:18Z</time>
      </trkpt>
      <trkpt lat="49.14307" lon="0.2181">
        <ele>50.8</ele>
        <time>2024-03-10T10:00:19Z</time>
      </trkpt>
      <trkpt lat="49.14307" lon="0.2181">
        <ele>50.8</ele>
        <time>2024-03-10T10:00:20Z</time>
      </trkpt>
      <trkpt lat="49.14307" lon="0.2181">
        <ele>50.8</ele>
        <time>2024-03-10T10:00:21Z</time>
      </trkpt>
      <trkpt lat="49.14307" lon="0.2181">
        <ele>50.8</ele>
        <time>2024-03-10T10:00:22Z</time>
      </trkpt>
      <trkpt lat="49.14307" lon="0.2181">
        <ele>50.8</ele>
        <time>2024-03-10T10:00:23Z</time>
      </trkpt>
      <trkpt lat="49.14307" lon="0.2181">
        <ele>50.8</ele>
        <time>2024-03-10T10:00:24Z</time>
      </trkpt>
      <trkpt lat="49.14307" lon="0.2181">
        <ele>50.8</ele>
        <time>2024-03-10T10:00:25Z</time>
      </trkpt>
      <trkpt lat="49.14307" lon="0.2181">
        <ele>50.8</ele>
        <time>2024-03-10T10:00:26Z</time>
      </trkpt>
      <trkpt lat="49.14307" lon="0.2181">
        <ele>50.8</ele>
        <time>2024-03-10T10:00:27Z</time>
      </trkpt>
      <trkpt lat="49.14307" lon="0.2181">
        <ele>50.8</ele>
        <time>2024-03-10T10:00:28Z</time>
      </trkpt>
      <trkpt lat="49.14307" lon="0.2181">
        <ele>50.8</ele>
        <time>2024-03-10T10:00:29Z</time>
      </trkpt>
      <trkpt lat="49.14307" lon="0.2181">
        <ele>50.8</ele>
        <time>2024-03-10T10:00:30Z</time>
      </trkpt>
      <trkpt lat="49.14307" lon="0.2181">
        <ele>50.8</ele>
        <time>2024-03-10T10:00:31Z</time>
      </trkpt>
      <trkpt lat="49.14307" lon="0.2181">
        <ele>50.8</ele>
        <time>2024-03-10T10:00:32Z</time>
      </trkpt>
      <trkpt lat="49.14307" lon="0.2181">
        <ele>50.8</ele>
        <time>2024-03-10T10:00:33Z</time>
      </trkpt>
      <trkpt lat="49.14307" lon="0.2181">
        <ele>50.8</ele>
        <time>2024-03-10T10:00:34Z</time>
      </trkpt>
      <trkpt lat="49.14307" lon="0.2181">
        <ele>50.8</ele>
        <time>2024-03-10T10:00:35Z</time>
      </trkpt>
      <trkpt lat="49.14307" lon="0.2181">
        <ele>50.8</ele>
        <time>2024-03-10T10:00:36Z</time>
      </trkpt>
      <trkpt lat="49.14307" lon="0.2181">
        <ele>50.8</ele>
        <time>2024-03-10T10:00:37Z</time>
      </trkpt>
      <trkpt lat="49.14307" lon="0.2181">
        <ele>50.8</ele>
        <time>2024-03-10T10:00:38Z</time>
      </trkpt>
      <trkpt lat="49.14307" lon="0.2181">
        <ele>50.8</ele>
        <time>2024-03-10T10:00:39Z</time>
      </trkpt>
      <trkpt lat="49.14307" lon="0.2181">
        <ele>50.8</ele>
        <time>2024-03-10T10:00:40Z</time>
      </trkpt>
      <trkpt lat="49.14307" lon="0.2181">
        <ele>50.8</ele>
        <time>2024-03-10T10:00:41Z</time>
      </trkpt>
      <trkpt lat="49.14307" lon="0.2181">
        <ele>50.8</ele>
        <time>2024-03-10T10:00:42Z</time>
      </trkpt>
      <trkpt lat="49.14307" lon="0.2181">
        <ele>50.8</ele>
        <time>2024-03-10T10:00:43Z</time>
      </trkpt>
      <trkpt lat="49.14307" lon="0.2181">
        <ele>50.8</ele>
        <time>2024-03-10T10:00:44Z</time>
      </trkpt>
      <trkpt lat="49.14307" lon="0.2181">
        <ele>50.8</ele>
        <time>2024-03-10T10:00:45Z</time>
      </trkpt>
      <trkpt lat="49.14307" lon="0.2181">
        <ele>50.8</ele>
        <time>2024-03-10T10:00:46Z</time>
      </trkpt>
      <trkpt lat="49.14307" lon="0.2181">
        <ele>50.8</ele>
        <time>2024-03-10T10:00:47Z</time>
      </trkpt>
      <trkpt lat="49.14307" lon="0.2181">
        <ele>50.8</ele>
        <time>2024-03-10T10:00:48Z</time>
      </trkpt>
      <trkpt lat="49.14307" lon="0.2181">
        <ele>50.8</ele>
        <time>2024-03-10T10:00:49Z</time>
      </trkpt>
      <trkpt lat="49.14307" lon="0.2181">
        <ele>50.8</ele>
        <time>2024-03-10T10:00:50Z</time>
      </trkpt>
      <trkpt lat="49.14307" lon="0.2181">
        <ele>50.8</ele>
        <time>2024-03-10T10:00:51Z</time>
      </trkpt>
      <trkpt lat="49.14307" lon="0.2181">
        <ele>50.8</ele>
        <time>2024-03-10T10:00:52Z</time>
      </trkpt>
      <trkpt lat="49.14307" lon="0.2181">
        <ele>50.8</ele>
        <time>2024-03-10T10:00:53Z</time>
      </trkpt>
      <trkpt lat="49.14307" lon="0.2181">
        <ele>50.8</ele>
        <time>2024-03-10T10:00:54Z</time>
      </trkpt>
      <trkpt lat="49.14307" lon="0.2181">
        <ele>50.8</ele>
        <time>2024-03-10T10:00:55Z</time>
      </trkpt>
      <trkpt lat="49.14307" lon="0.2181">
        <ele>50.8</ele>
        <time>2024-03-10T10:00:56Z</time>
      </trkpt>
      <trkpt lat="49.14307" lon="0.2181">
        <ele>50.8</ele>
        <time>2024-03-10T10:00:57Z</time>
      </trkpt>
      <trkpt lat="49.14307" lon="0.2181">
        <ele>50.8</ele>
        <time>2024-03-10T10:00:58Z</time>
      </trkpt>
      <trkpt lat="49.14307" lon="0.2181">
        <ele>50.9</ele>
        <time>2024-03-10T10:00:59Z</time>
      </trkpt>
      <trkpt lat="49.14308" lon="0.2181">
        <ele>50.9</ele>
        <time>2024-03-10T10:01:00Z</time>
      </trkpt>
      <trkpt lat="49.14309" lon="0.2181">
        <ele>51</ele>
        <time>2024-03-10T10:01:01Z</time>
      </trkpt>
      <trkpt lat="49.1431" lon="0.2181">
        <ele>51</ele>
        <time>2024-03-10T10:01:02Z</time>
      </trkpt>
      <trkpt lat="49.1431" lon="0.2181">
        <ele>51</ele>
        <time>2024-03-10T10:01:03Z</time>
      </trkpt>
      <trkpt lat="49.14311" lon="0.2181">
        <ele>51</ele>
        <time>2024-03-10T10:01:04Z</time>
      </trkpt>
      <trkpt lat="49.14312" lon="0.21811">
        <ele>51.1</ele>
        <time>2024-03-10T10:01:05Z</time>
      </trkpt>
      <trkpt lat="49.14313" lon="0.2181">
        <ele>51.1</ele>
        <time>2024-03-10T10:01:06Z</time>
      </trkpt>
      <trkpt lat="49.14314" lon="0.21809">
        <ele>51.2</ele>
        <time>2024-03-10T10:01:07Z</time>
      </trkpt>
      <trkpt lat="49.14315" lon="0.21808">
        <ele>51.3</ele>
        <time>2024-03-10T10:01:08Z</time>
      </trkpt>
      <trkpt lat="49.14317" lon="0.21804">
        <ele>51.4</ele>
        <time>2024-03-10T10:01:09Z</time>
      </trkpt>
      <trkpt lat="49.14317" lon="0.21803">
        <ele>51.4</ele>
        <time>2024-03-10T10:01:10Z</time>
      </trkpt>
      <trkpt lat="49.14318" lon="0.21798">
        <ele>51.5</ele>
        <time>2024-03-10T10:01:11Z</time>
      </trkpt>
      <trkpt lat="49.14318" lon="0.21796">
        <ele>51.5</ele>
        <time>2024-03-10T10:01:12Z</time>
      </trkpt>
      <trkpt lat="49.14318" lon="0.21791">
        <ele>51.6</ele>
        <time>2024-03-10T10:01:13Z</time>
      </trkpt>
      <trkpt lat="49.14318" lon="0.21787">
        <ele>51.7</ele>
        <time>2024-03-10T10:01:14Z</time>
      </trkpt>
      <trkpt lat="49.14318" lon="0.21782">
        <ele>51.7</ele>
        <time>2024-03-10T10:01:15Z</time>
      </trkpt>
      <trkpt lat="49.14317" lon="0.21776">
        <ele>51.8</ele>
        <time>2024-03-10T10:01:16Z</time>
      </trkpt>
      <trkpt lat="49.14316" lon="0.21771">
        <ele>51.9</ele>
        <time>2024-03-10T10:01:17Z</time>
      </trkpt>
      <trkpt lat="49.14316" lon="0.21765">
        <ele>52</ele>
        <time>2024-03-10T10:01:18Z</time>
      </trkpt>
      <trkpt lat="49.14314" lon="0.21758">
        <ele>52.1</ele>
        <time>2024-03-10T10:01:19Z</time>
      </trkpt>
      <trkpt lat="49.14313" lon="0.21752">
        <ele>51.7</ele>
        <time>2024-03-10T10:01:20Z</time>
      </trkpt>
      <trkpt lat="49.14312" lon="0.21746">
        <ele>51.8</ele>
        <time>2024-03-10T10:01:21Z</time>
      </trkpt>
      <trkpt lat="49.14311" lon="0.2174">
        <ele>51.9</ele>
        <time>2024-03-10T10:01:22Z</time>
      </trkpt>
      <trkpt lat="49.1431" lon="0.21733">
        <ele>52</ele>
        <time>2024-03-10T10:01:23Z</time>
      </trkpt>
      <trkpt lat="49.14309" lon="0.21727">
        <ele>52.2</ele>
        <time>2024-03-10T10:01:24Z</time>
      </trkpt>
      <trkpt lat="49.14308" lon="0.21721">
        <ele>52.3</ele>
        <time>2024-03-10T10:01:25Z</time>
      </trkpt>
      <trkpt lat="49.14307" lon="0.21715">
        <ele>52.4</ele>
        <time>2024-03-10T10:01:26Z</time>
      </trkpt>
      <trkpt lat="49.14308" lon="0.21709">
        <ele>52.5</ele>
        <time>2024-03-10T10:01:27Z</time>
      </trkpt>
      <trkpt lat="49.1431" lon="0.21703">
        <ele>52.7</ele>
        <time>2024-03-10T10:01:28Z</time>
      </trkpt>
      <trkpt lat="49.14312" lon="0.21698">
        <ele>52.8</ele>
        <time>2024-03-10T10:01:29Z</time>
      </trkpt>
      <trkpt lat="49.14315" lon="0.21692">
        <ele>52.9</ele>
        <time>2024-03-10T10:01:30Z</time>
      </trkpt>
      <trkpt lat="49.14318" lon="0.21686">
        <ele>53</ele>
        <time>2024-03-10T10:01:31Z</time>
      </trkpt>
      <trkpt lat="49.14321" lon="0.2168">
        <ele>53.2</ele>
        <time>2024-03-10T10:01:32Z</time>
      </trkpt>
      <trkpt lat="49.14323" lon="0.21675">
        <ele>53.3</ele>
        <time>2024-03-10T10:01:33Z</time>
      </trkpt>
      <trkpt lat="49.14326" lon="0.2167">
        <ele>53.4</ele>
        <time>2024-03-10T10:01:34Z</time>
      </trkpt>
      <trkpt lat="49.14328" lon="0.21664">
        <ele>53.5</ele>
        <time>2024-03-10T10:01:35Z</time>
      </trkpt>
      <trkpt lat="49.1433" lon="0.2166">
        <ele>53.6</ele>
        <time>2024-03-10T10:01:36Z</time>
      </trkpt>
      <trkpt lat="49.14333" lon="0.21655">
        <ele>53.8</ele>
        <time>2024-03-10T10:01:37Z</time>
      </trkpt>
      <trkpt lat="49.14335" lon="0.2165">
        <ele>53.9</ele>
        <time>2024-03-10T10:01:38Z</time>
      </trkpt>
      <trkpt lat="49.14336" lon="0.21645">
        <ele>54.1</ele>
        <time>2024-03-10T10:01:39Z</time>
      </trkpt>
      <trkpt lat="49.14337" lon="0.2164">
        <ele>54.2</ele>
        <time>2024-03-10T10:01:40Z</time>
      </trkpt>
      <trkpt lat="49.14339" lon="0.21635">
        <ele>54.4</ele>
        <time>2024-03-10T10:01:41Z</time>
      </trkpt>
      <trkpt lat="49.1434" lon="0.2163">
        <ele>54.6</ele>
        <time>2024-03-10T10:01:42Z</time>
      </trkpt>
      <trkpt lat="49.14341" lon="0.21625">
        <ele>54.8</ele>
        <time>2024-03-10T10:01:43Z</time>
      </trkpt>
      <trkpt lat="49.14343" lon="0.2162">
        <ele>55</ele>
        <time>2024-03-10T10:01:44Z</time>
      </trkpt>
      <trkpt lat="49.14344" lon="0.21615">
        <ele>55.3</ele>
        <time>2024-03-10T10:01:45Z</time>
      </trkpt>
      <trkpt lat="49.14346" lon="0.2161">
        <ele>55.5</ele>
        <time>2024-03-10T10:01:46Z</time>
      </trkpt>
      <trkpt lat="49.14348" lon="0.21605">
        <ele>55.8</ele>
        <time>2024-03-10T10:01:47Z</time>
      </trkpt>
      <trkpt lat="49.1435" lon="0.216">
        <ele>56.1</ele>
        <time>2024-03-10T10:01:48Z</time>
      </trkpt>
      <trkpt lat="49.14352" lon="0.21595">
        <ele>56.5</ele>
        <time>2024-03-10T10:01:49Z</time>
      </trkpt>
      <trkpt lat="49.14355" lon="0.21589">
        <ele>56.9</ele>
        <time>2024-03-10T10:01:50Z</time>
      </trkpt>
      <trkpt lat="49.14356" lon="0.21585">
        <ele>57.2</ele>
        <time>2024-03-10T10:01:51Z</time>
      </trkpt>
      <trkpt lat="49.14358" lon="0.21581">
        <ele>57.4</ele>
        <time>2024-03-10T10:01:52Z</time>
      </trkpt>
      <trkpt lat="49.14359" lon="0.21577">
        <ele>57.7</ele>
        <time>2024-03-10T10:01:53Z</time>
      </trkpt>
      <trkpt lat="49.1436" lon="0.21573">
        <ele>57.9</ele>
        <time>2024-03-10T10:01:54Z</time>
      </trkpt>
      <trkpt lat="49.14361" lon="0.21569">
        <ele>58.2</ele>
        <time>2024-03-10T10:01:55Z</time>
      </trkpt>
      <trkpt lat="49.14362" lon="0.21565">
        <ele>58.5</ele>
        <time>2024-03-10T10:01:56Z</time>
      </trkpt>
      <trkpt lat="49.14364" lon="0.2156">
        <ele>58.8</ele>
        <time>2024-03-10T10:01:57Z</time>
      </trkpt>
      <trkpt lat="49.14365" lon="0.21556">
        <ele>59.1</ele>
        <time>2024-03-10T10:01:58Z</time>
      </trkpt>
      <trkpt lat="49.14366" lon="0.21552">
        <ele>59.4</ele>
        <time>2024-03-10T10:01:59Z</time>
      </trkpt>
      <trkpt lat="49.14367" lon="0.21548">
        <ele>59.7</ele>
        <time>2024-03-10T10:02:00Z</time>
      </trkpt>
      <trkpt lat="49.14368" lon="0.21543">
        <ele>60</ele>
        <time>2024-03-10T10:02:01Z</time>
      </trkpt>
      <trkpt lat="49.14368" lon="0.21539">
        <ele>60.2</ele>
        <time>2024-03-10T10:02:02Z</time>
      </trkpt>
      <trkpt lat="49.14369" lon="0.21535">
        <ele>60.5</ele>
        <time>2024-03-10T10:02:03Z</time>
      </trkpt>
      <trkpt lat="49.1437" lon="0.21529">
        <ele>60.9</ele>
        <time>2024-03-10T10:02:04Z</time>
      </trkpt>
      <trkpt lat="49.1437" lon="0.21527">
        <ele>61.1</ele>
        <time>2024-03-10T10:02:05Z</time>
      </trkpt>
      <trkpt lat="49.14371" lon="0.21523">
        <ele>61.4</ele>
        <time>2024-03-10T10:02:06Z</time>
      </trkpt>
      <trkpt lat="49.14372" lon="0.21518">
        <ele>61.6</ele>
        <time>2024-03-10T10:02:07Z</time>
      </trkpt>
      <trkpt lat="49.14373" lon="0.21514">
        <ele>61.9</ele>
        <time>2024-03-10T10:02:08Z</time>
      </trkpt>
      <trkpt lat="49.14374" lon="0.21509">
        <ele>62.3</ele>
        <time>2024-03-10T10:02:09Z</time>
      </trkpt>
      <trkpt lat="49.14375" lon="0.21507">
        <ele>62.4</ele>
        <time>2024-03-10T10:02:10Z</time>
      </trkpt>
      <trkpt lat="49.14376" lon="0.21503">
        <ele>62.6</ele>
        <time>2024-03-10T10:02:11Z</time>
      </trkpt>
      <trkpt lat="49.14377" lon="0.21499">
        <ele>62.9</ele>
        <time>2024-03-10T10:02:12Z</time>
      </trkpt>
      <trkpt lat="49.14378" lon="0.21493">
        <ele>63.3</ele>
        <time>2024-03-10T10:02:13Z</time>
      </trkpt>
      <trkpt lat="49.14378" lon="0.21491">
        <ele>63.4</ele>
        <time>2024-03-10T10:02:14Z</time>
      </trkpt>
      <trkpt lat="49.14379" lon="0.21486">
        <ele>63.7</ele>
        <time>2024-03-10T10:02:15Z</time>
      </trkpt>
      <trkpt lat="49.1438" lon="0.21481">
        <ele>64</ele>
        <time>2024-03-10T10:02:16Z</time>
      </trkpt>
      <trkpt lat="49.14381" lon="0.21476">
        <ele>64.3</ele>
        <time>2024-03-10T10:02:17Z</time>
      </trkpt>
      <trkpt lat="49.14381" lon="0.21472">
        <ele>64.6</ele>
        <time>2024-03-10T10:02:18Z</time>
      </trkpt>
      <trkpt lat="49.14382" lon="0.21467">
        <ele>64.9</ele>
        <time>2024-03-10T10:02:19Z</time>
      </trkpt>
      <trkpt lat="49.14382" lon="0.21463">
        <ele>65.1</ele>
        <time>2024-03-10T10:02:20Z</time>
      </trkpt>
      <trkpt lat="49.14383" lon="0.21459">
        <ele>65.4</ele>
        <time>2024-03-10T10:02:21Z</time>
      </trkpt>
      <trkpt lat="49.14384" lon="0.21453">
        <ele>65.7</ele>
        <time>2024-03-10T10:02:22Z</time>
      </trkpt>
      <trkpt lat="49.14385" lon="0.21451">
        <ele>65.8</ele>
        <time>2024-03-10T10:02:23Z</time>
      </trkpt>
      <trkpt lat="49.14386" lon="0.21447">
        <ele>66.1</ele>
        <time>2024-03-10T10:02:24Z</time>
      </trkpt>
      <trkpt lat="49.14386" lon="0.21443">
        <ele>66.3</ele>
        <time>2024-03-10T10:02:25Z</time>
      </trkpt>
      <trkpt lat="49.14387" lon="0.21439">
        <ele>66.6</ele>
        <time>2024-03-10T10:02:26Z</time>
      </trkpt>
      <trkpt lat="49.14387" lon="0.21434">
        <ele>66.8</ele>
        <time>2024-03-10T10:02:27Z</time>
      </trkpt>
      <trkpt lat="49.14388" lon="0.21429">
        <ele>67.1</ele>
        <time>2024-03-10T10:02:28Z</time>
      </trkpt>
      <trkpt lat="49.14388" lon="0.21427">
        <ele>67.3</ele>
        <time>2024-03-10T10:02:29Z</time>
      </trkpt>
      <trkpt lat="49.14389" lon="0.21423">
        <ele>67.5</ele>
        <time>2024-03-10T10:02:30Z</time>
      </trkpt>
      <trkpt lat="49.1439" lon="0.21419">
        <ele>67.8</ele>
        <time>2024-03-10T10:02:31Z</time>
      </trkpt>
      <trkpt lat="49.14391" lon="0.21415">
        <ele>68</ele>
        <time>2024-03-10T10:02:32Z</time>
      </trkpt>
      <trkpt lat="49.14391" lon="0.21411">
        <ele>68.3</ele>
        <time>2024-03-10T10:02:33Z</time>
      </trkpt>
      <trkpt lat="49.14392" lon="0.21407">
        <ele>68.6</ele>
        <time>2024-03-10T10:02:34Z</time>
      </trkpt>
      <trkpt lat="49.14394" lon="0.21401">
        <ele>68.9</ele>
        <time>2024-03-10T10:02:35Z</time>
      </trkpt>
      <trkpt lat="49.14394" lon="0.214">
        <ele>69</ele>
        <time>2024-03-10T10:02:36Z</time>
      </trkpt>
      <trkpt lat="49.14395" lon="0.21394">
        <ele>69.4</ele>
        <time>2024-03-10T10:02:37Z</time>
      </trkpt>
      <trkpt lat="49.14395" lon="0.21392">
        <ele>69.5</ele>
        <time>2024-03-10T10:02:38Z</time>
      </trkpt>
      <trkpt lat="49.14397" lon="0.21386">
        <ele>69.8</ele>
        <time>2024-03-10T10:02:39Z</time>
      </trkpt>
      <trkpt lat="49.14397" lon="0.21384">
        <ele>69.9</ele>
        <time>2024-03-10T10:02:40Z</time>
      </trkpt>
      <trkpt lat="49.14398" lon="0.2138">
        <ele>70.1</ele>
        <time>2024-03-10T10:02:41Z</time>
      </trkpt>
      <trkpt lat="49.14399" lon="0.21375">
        <ele>70.3</ele>
        <time>2024-03-10T10:02:42Z</time>
      </trkpt>
      <trkpt lat="49.14399" lon="0.21371">
        <ele>70.5</ele>
        <time>2024-03-10T10:02:43Z</time>
      </trkpt>
      <trkpt lat="49.14401" lon="0.21366">
        <ele>70.7</ele>
        <time>2024-03-10T10:02:44Z</time>
      </trkpt>
      <trkpt lat="49.14402" lon="0.21361">
        <ele>70.9</ele>
        <time>2024-03-10T10:02:45Z</time>
      </trkpt>
      <trkpt lat="49.14403" lon="0.21357">
        <ele>71.1</ele>
        <time>2024-03-10T10:02:46Z</time>
      </trkpt>
      <trkpt lat="49.14404" lon="0.21353">
        <ele>71.3</ele>
        <time>2024-03-10T10:02:47Z</time>
      </trkpt>
      <trkpt lat="49.14405" lon="0.21348">
        <ele>71.4</ele>
        <time>2024-03-10T10:02:48Z</time>
      </trkpt>
      <trkpt lat="49.14406" lon="0.21343">
        <ele>71.6</ele>
        <time>2024-03-10T10:02:49Z</time>
      </trkpt>
      <trkpt lat="49.14407" lon="0.21339">
        <ele>71.8</ele>
        <time>2024-03-10T10:02:50Z</time>
      </trkpt>
      <trkpt lat="49.14408" lon="0.21334">
        <ele>71.9</ele>
        <time>2024-03-10T10:02:51Z</time>
      </trkpt>
      <trkpt lat="49.14409" lon="0.21329">
        <ele>72</ele>
        <time>2024-03-10T10:02:52Z</time>
      </trkpt>
      <trkpt lat="49.1441" lon="0.21325">
        <ele>72.2</ele>
        <time>2024-03-10T10:02:53Z</time>
      </trkpt>
      <trkpt lat="49.14411" lon="0.2132">
        <ele>72.3</ele>
        <time>2024-03-10T10:02:54Z</time>
      </trkpt>
      <trkpt lat="49.14412" lon="0.21315">
        <ele>72.4</ele>
        <time>2024-03-10T10:02:55Z</time>
      </trkpt>
      <trkpt lat="49.14413" lon="0.2131">
        <ele>72.5</ele>
        <time>2024-03-10T10:02:56Z</time>
      </trkpt>
      <trkpt lat="49.14414" lon="0.21305">
        <ele>72.6</ele>
        <time>2024-03-10T10:02:57Z</time>
      </trkpt>
      <trkpt lat="49.14415" lon="0.213">
        <ele>72.7</ele>
        <time>2024-03-10T10:02:58Z</time>
      </trkpt>
      <trkpt lat="49.14416" lon="0.21295">
        <ele>72.8</ele>
        <time>2024-03-10T10:02:59Z</time>
      </trkpt>
      <trkpt lat="49.14417" lon="0.2129">
        <ele>72.9</ele>
        <time>2024-03-10T10:03:00Z</time>
      </trkpt>
      <trkpt lat="49.14418" lon="0.21285">
        <ele>73</ele>
        <time>2024-03-10T10:03:01Z</time>
      </trkpt>
      <trkpt lat="49.14419" lon="0.2128">
        <ele>73.1</ele>
        <time>2024-03-10T10:03:02Z</time>
      </trkpt>
      <trkpt lat="49.14421" lon="0.21274">
        <ele>73.2</ele>
        <time>2024-03-10T10:03:03Z</time>
      </trkpt>
      <trkpt lat="49.14422" lon="0.21269">
        <ele>73.3</ele>
        <time>2024-03-10T10:03:04Z</time>
      </trkpt>
      <trkpt lat="49.14423" lon="0.21263">
        <ele>73.4</ele>
        <time>2024-03-10T10:03:05Z</time>
      </trkpt>
      <trkpt lat="49.14424" lon="0.21258">
        <ele>73.5</ele>
        <time>2024-03-10T10:03:06Z</time>
      </trkpt>
      <trkpt lat="49.14425" lon="0.21252">
        <ele>73.6</ele>
        <time>2024-03-10T10:03:07Z</time>
      </trkpt>
      <trkpt lat="49.14427" lon="0.21247">
        <ele>73.6</ele>
        <time>2024-03-10T10:03:08Z</time>
      </trkpt>
      <trkpt lat="49.14428" lon="0.21241">
        <ele>73.7</ele>
        <time>2024-03-10T10:03:09Z</time>
      </trkpt>
      <trkpt lat="49.14429" lon="0.21235">
        <ele>73.7</ele>
        <time>2024-03-10T10:03:10Z</time>
      </trkpt>
      <trkpt lat="49.14431" lon="0.21229">
        <ele>73.8</ele>
        <time>2024-03-10T10:03:11Z</time>
      </trkpt>
      <trkpt lat="49.14432" lon="0.21223">
        <ele>73.9</ele>
        <time>2024-03-10T10:03:12Z</time>
      </trkpt>
      <trkpt lat="49.14434" lon="0.21217">
        <ele>73.9</ele>
        <time>2024-03-10T10:03:13Z</time>
      </trkpt>
      <trkpt lat="49.14435" lon="0.21212">
        <ele>74</ele>
        <time>2024-03-10T10:03:14Z</time>
      </trkpt>
      <trkpt lat="49.14436" lon="0.21206">
        <ele>74</ele>
        <time>2024-03-10T10:03:15Z</time>
      </trkpt>
      <trkpt lat="49.14437" lon="0.212">
        <ele>74.1</ele>
        <time>2024-03-10T10:03:16Z</time>
      </trkpt>
      <trkpt lat="49.14438" lon="0.21195">
        <ele>74.1</ele>
        <time>2024-03-10T10:03:17Z</time>
      </trkpt>
      <trkpt lat="49.1444" lon="0.21188">
        <ele>74.2</ele>
        <time>2024-03-10T10:03:18Z</time>
      </trkpt>
      <trkpt lat="49.14441" lon="0.21182">
        <ele>74.3</ele>
        <time>2024-03-10T10:03:19Z</time>
      </trkpt>
      <trkpt lat="49.14442" lon="0.21175">
        <ele>74.4</ele>
        <time>2024-03-10T10:03:20Z</time>
      </trkpt>
      <trkpt lat="49.14444" lon="0.21169">
        <ele>74.4</ele>
        <time>2024-03-10T10:03:21Z</time>
      </trkpt>
      <trkpt lat="49.14445" lon="0.21163">
        <ele>74.5</ele>
        <time>2024-03-10T10:03:22Z</time>
      </trkpt>
      <trkpt lat="49.14446" lon="0.21157">
        <ele>74.6</ele>
        <time>2024-03-10T10:03:23Z</time>
      </trkpt>
      <trkpt lat="49.14448" lon="0.2115">
        <ele>74.7</ele>
        <time>2024-03-10T10:03:24Z</time>
      </trkpt>
      <trkpt lat="49.14449" lon="0.21144">
        <ele>74.8</ele>
        <time>2024-03-10T10:03:25Z</time>
      </trkpt>
      <trkpt lat="49.1445" lon="0.21138">
        <ele>74.8</ele>
        <time>2024-03-10T10:03:26Z</time>
      </trkpt>
      <trkpt lat="49.14452" lon="0.21132">
        <ele>74.9</ele>
        <time>2024-03-10T10:03:27Z</time>
      </trkpt>
      <trkpt lat="49.14453" lon="0.21125">
        <ele>75</ele>
        <time>2024-03-10T10:03:28Z</time>
      </trkpt>
      <trkpt lat="49.14454" lon="0.21119">
        <ele>75.1</ele>
        <time>2024-03-10T10:03:29Z</time>
      </trkpt>
      <trkpt lat="49.14455" lon="0.21113">
        <ele>75.2</ele>
        <time>2024-03-10T10:03:30Z</time>
      </trkpt>
      <trkpt lat="49.14457" lon="0.21107">
        <ele>75.3</ele>
        <time>2024-03-10T10:03:31Z</time>
      </trkpt>
      <trkpt lat="49.14458" lon="0.21101">
        <ele>75.4</ele>
        <time>2024-03-10T10:03:32Z</time>
      </trkpt>
      <trkpt lat="49.14459" lon="0.21095">
        <ele>75.5</ele>
        <time>2024-03-10T10:03:33Z</time>
      </trkpt>
      <trkpt lat="49.14461" lon="0.21088">
        <ele>75.6</ele>
        <time>2024-03-10T10:03:34Z</time>
      </trkpt>
      <trkpt lat="49.14462" lon="0.21082">
        <ele>75.7</ele>
        <time>2024-03-10T10:03:35Z</time>
      </trkpt>
      <trkpt lat="49.14463" lon="0.21076">
        <ele>75.8</ele>
        <time>2024-03-10T10:03:36Z</time>
      </trkpt>
      <trkpt lat="49.14465" lon="0.2107">
        <ele>75.9</ele>
        <time>2024-03-10T10:03:37Z</time>
      </trkpt>
      <trkpt lat="49.14466" lon="0.21064">
        <ele>76.1</ele>
        <time>2024-03-10T10:03:38Z</time>
      </trkpt>
      <trkpt lat="49.14467" lon="0.21058">
        <ele>76.2</ele>
        <time>2024-03-10T10:03:39Z</time>
      </trkpt>
      <trkpt lat="49.14469" lon="0.21051">
        <ele>76.3</ele>
        <time>2024-03-10T10:03:40Z</time>
      </trkpt>
      <trkpt lat="49.14469" lon="0.21044">
        <ele>76.5</ele>
        <time>2024-03-10T10:03:41Z</time>
      </trkpt>
      <trkpt lat="49.1447" lon="0.21039">
        <ele>76.6</ele>
        <time>2024-03-10T10:03:42Z</time>
      </trkpt>
      <trkpt lat="49.14472" lon="0.21033">
        <ele>76.7</ele>
        <time>2024-03-10T10:03:43Z</time>
      </trkpt>
      <trkpt lat="49.14473" lon="0.21027">
        <ele>76.8</ele>
        <time>2024-03-10T10:03:44Z</time>
      </trkpt>
      <trkpt lat="49.14474" lon="0.21021">
        <ele>77</ele>
        <time>2024-03-10T10:03:45Z</time>
      </trkpt>
      <trkpt lat="49.14475" lon="0.21015">
        <ele>77.1</ele>
        <time>2024-03-10T10:03:46Z</time>
      </trkpt>
      <trkpt lat="49.14477" lon="0.2101">
        <ele>77.3</ele>
        <time>2024-03-10T10:03:47Z</time>
      </trkpt>
      <trkpt lat="49.14478" lon="0.21004">
        <ele>77.5</ele>
        <time>2024-03-10T10:03:48Z</time>
      </trkpt>
      <trkpt lat="49.1448" lon="0.20998">
        <ele>77.6</ele>
        <time>2024-03-10T10:03:49Z</time>
      </trkpt>
      <trkpt lat="49.14481" lon="0.20993">
        <ele>77.8</ele>
        <time>2024-03-10T10:03:50Z</time>
      </trkpt>
      <trkpt lat="49.14482" lon="0.20987">
        <ele>78</ele>
        <time>2024-03-10T10:03:51Z</time>
      </trkpt>
      <trkpt lat="49.14484" lon="0.20981">
        <ele>78.2</ele>
        <time>2024-03-10T10:03:52Z</time>
      </trkpt>
      <trkpt lat="49.14485" lon="0.20975">
        <ele>78.3</ele>
        <time>2024-03-10T10:03:53Z</time>
      </trkpt>
      <trkpt lat="49.14486" lon="0.20969">
        <ele>78.5</ele>
        <time>2024-03-10T10:03:54Z</time>
      </trkpt>
      <trkpt lat="49.14487" lon="0.20964">
        <ele>78.7</ele>
        <time>2024-03-10T10:03:55Z</time>
      </trkpt>
      <trkpt lat="49.14489" lon="0.20958">
        <ele>78.8</ele>
        <time>2024-03-10T10:03:56Z</time>
      </trkpt>
      <trkpt lat="49.14491" lon="0.20952">
        <ele>79</ele>
        <time>2024-03-10T10:03:57Z</time>
      </trkpt>
      <trkpt lat="49.14492" lon="0.20946">
        <ele>79.2</ele>
        <time>2024-03-10T10:03:58Z</time>
      </trkpt>
      <trkpt lat="49.14494" lon="0.2094">
        <ele>79.3</ele>
        <time>2024-03-10T10:03:59Z</time>
      </trkpt>
      <trkpt lat="49.14495" lon="0.20934">
        <ele>79.5</ele>
        <time>2024-03-10T10:04:00Z</time>
      </trkpt>
      <trkpt lat="49.14496" lon="0.20928">
        <ele>79.7</ele>
        <time>2024-03-10T10:04:01Z</time>
      </trkpt>
      <trkpt lat="49.14497" lon="0.20923">
        <ele>79.9</ele>
        <time>2024-03-10T10:04:02Z</time>
      </trkpt>
      <trkpt lat="49.14499" lon="0.20917">
        <ele>80.1</ele>
        <time>2024-03-10T10:04:03Z</time>
      </trkpt>
      <trkpt lat="49.145" lon="0.20912">
        <ele>80.2</ele>
        <time>2024-03-10T10:04:04Z</time>
      </trkpt>
      <trkpt lat="49.14501" lon="0.20907">
        <ele>80.4</ele>
        <time>2024-03-10T10:04:05Z</time>
      </trkpt>
      <trkpt lat="49.14502" lon="0.20902">
        <ele>80.6</ele>
        <time>2024-03-10T10:04:06Z</time>
      </trkpt>
      <trkpt lat="49.14504" lon="0.20897">
        <ele>80.8</ele>
        <time>2024-03-10T10:04:07Z</time>
      </trkpt>
      <trkpt lat="49.14505" lon="0.20892">
        <ele>81</ele>
        <time>2024-03-10T10:04:08Z</time>
      </trkpt>
      <trkpt lat="49.14506" lon="0.20887">
        <ele>81.2</ele>
        <time>2024-03-10T10:04:09Z</time>
      </trkpt>
      <trkpt lat="49.14507" lon="0.20882">
        <ele>81.4</ele>
        <time>2024-03-10T10:04:10Z</time>
      </trkpt>
      <trkpt lat="49.14508" lon="0.20877">
        <ele>81.6</ele>
        <time>2024-03-10T10:04:11Z</time>
      </trkpt>
      <trkpt lat="49.14509" lon="0.20873">
        <ele>81.9</ele>
        <time>2024-03-10T10:04:12Z</time>
      </trkpt>
      <trkpt lat="49.1451" lon="0.20868">
        <ele>82.1</ele>
        <time>2024-03-10T10:04:13Z</time>
      </trkpt>
      <trkpt lat="49.14512" lon="0.20864">
        <ele>82.3</ele>
        <time>2024-03-10T10:04:14Z</time>
      </trkpt>
      <trkpt lat="49.14513" lon="0.20859">
        <ele>82.5</ele>
        <time>2024-03-10T10:04:15Z</time>
      </trkpt>
      <trkpt lat="49.14514" lon="0.20855">
        <ele>82.8</ele>
        <time>2024-03-10T10:04:16Z</time>
      </trkpt>
      <trkpt lat="49.14516" lon="0.20851">
        <ele>83</ele>
        <time>2024-03-10T10:04:17Z</time>
      </trkpt>
      <trkpt lat="49.14517" lon="0.20847">
        <ele>83.2</ele>
        <time>2024-03-10T10:04:18Z</time>
      </trkpt>
      <trkpt lat="49.14518" lon="0.20842">
        <ele>83.5</ele>
        <time>2024-03-10T10:04:19Z</time>
      </trkpt>
      <trkpt lat="49.1452" lon="0.20839">
        <ele>83.7</ele>
        <time>2024-03-10T10:04:20Z</time>
      </trkpt>
      <trkpt lat="49.14521" lon="0.20835">
        <ele>84</ele>
        <time>2024-03-10T10:04:21Z</time>
      </trkpt>
      <trkpt lat="49.14523" lon="0.20831">
        <ele>84.2</ele>
        <time>2024-03-10T10:04:22Z</time>
      </trkpt>
      <trkpt lat="49.14524" lon="0.20827">
        <ele>84.4</ele>
        <time>2024-03-10T10:04:23Z</time>
      </trkpt>
      <trkpt lat="49.14525" lon="0.20823">
        <ele>84.6</ele>
        <time>2024-03-10T10:04:24Z</time>
      </trkpt>
      <trkpt lat="49.14526" lon="0.20819">
        <ele>84.8</ele>
        <time>2024-03-10T10:04:25Z</time>
      </trkpt>
      <trkpt lat="49.14527" lon="0.20815">
        <ele>85.1</ele>
        <time>2024-03-10T10:04:26Z</time>
      </trkpt>
      <trkpt lat="49.14528" lon="0.20811">
        <ele>85.3</ele>
        <time>2024-03-10T10:04:27Z</time>
      </trkpt>
      <trkpt lat="49.14529" lon="0.20806">
        <ele>85.5</ele>
        <time>2024-03-10T10:04:28Z</time>
      </trkpt>
      <trkpt lat="49.1453" lon="0.20802">
        <ele>85.8</ele>
        <time>2024-03-10T10:04:29Z</time>
      </trkpt>
      <trkpt lat="49.14531" lon="0.20797">
        <ele>86.1</ele>
        <time>2024-03-10T10:04:30Z</time>
      </trkpt>
      <trkpt lat="49.14533" lon="0.20793">
        <ele>86.4</ele>
        <time>2024-03-10T10:04:31Z</time>
      </trkpt>
      <trkpt lat="49.14534" lon="0.20789">
        <ele>86.7</ele>
        <time>2024-03-10T10:04:32Z</time>
      </trkpt>
      <trkpt lat="49.14535" lon="0.20784">
        <ele>87</ele>
        <time>2024-03-10T10:04:33Z</time>
      </trkpt>
      <trkpt lat="49.14536" lon="0.2078">
        <ele>87.3</ele>
        <time>2024-03-10T10:04:34Z</time>
      </trkpt>
      <trkpt lat="49.14538" lon="0.20777">
        <ele>87.5</ele>
        <time>2024-03-10T10:04:35Z</time>
      </trkpt>
      <trkpt lat="49.14539" lon="0.20773">
        <ele>87.8</ele>
        <time>2024-03-10T10:04:36Z</time>
      </trkpt>
      <trkpt lat="49.1454" lon="0.20769">
        <ele>88.1</ele>
        <time>2024-03-10T10:04:37Z</time>
      </trkpt>
      <trkpt lat="49.14542" lon="0.20765">
        <ele>88.4</ele>
        <time>2024-03-10T10:04:38Z</time>
      </trkpt>
      <trkpt lat="49.14543" lon="0.2076">
        <ele>88.8</ele>
        <time>2024-03-10T10:04:39Z</time>
      </trkpt>
      <trkpt lat="49.14544" lon="0.20758">
        <ele>88.9</ele>
        <time>2024-03-10T10:04:40Z</time>
      </trkpt>
      <trkpt lat="49.14545" lon="0.20752">
        <ele>89.3</ele>
        <time>2024-03-10T10:04:41Z</time>
      </trkpt>
      <trkpt lat="49.14546" lon="0.20751">
        <ele>89.4</ele>
        <time>2024-03-10T10:04:42Z</time>
      </trkpt>
      <trkpt lat="49.14547" lon="0.20745">
        <ele>89.8</ele>
        <time>2024-03-10T10:04:43Z</time>
      </trkpt>
      <trkpt lat="49.14548" lon="0.20743">
        <ele>89.9</ele>
        <time>2024-03-10T10:04:44Z</time>
      </trkpt>
      <trkpt lat="49.14549" lon="0.2074">
        <ele>90.2</ele>
        <time>2024-03-10T10:04:45Z</time>
      </trkpt>
      <trkpt lat="49.1455" lon="0.20736">
        <ele>90.4</ele>
        <time>2024-03-10T10:04:46Z</time>
      </trkpt>
      <trkpt lat="49.14551" lon="0.20731">
        <ele>90.7</ele>
        <time>2024-03-10T10:04:47Z</time>
      </trkpt>
      <trkpt lat="49.14553" lon="0.20726">
        <ele>91.1</ele>
        <time>2024-03-10T10:04:48Z</time>
      </trkpt>
      <trkpt lat="49.14554" lon="0.20724">
        <ele>91.3</ele>
        <time>2024-03-10T10:04:49Z</time>
      </trkpt>
      <trkpt lat="49.14555" lon="0.2072">
        <ele>91.5</ele>
        <time>2024-03-10T10:04:50Z</time>
      </trkpt>
      <trkpt lat="49.14556" lon="0.20714">
        <ele>91.9</ele>
        <time>2024-03-10T10:04:51Z</time>
      </trkpt>
      <trkpt lat="49.14556" lon="0.20712">
        <ele>92</ele>
        <time>2024-03-10T10:04:52Z</time>
      </trkpt>
      <trkpt lat="49.14557" lon="0.20706">
        <ele>92.4</ele>
        <time>2024-03-10T10:04:53Z</time>
      </trkpt>
      <trkpt lat="49.14558" lon="0.20704">
        <ele>92.5</ele>
        <time>2024-03-10T10:04:54Z</time>
      </trkpt>
      <trkpt lat="49.14559" lon="0.20699">
        <ele>92.9</ele>
        <time>2024-03-10T10:04:55Z</time>
      </trkpt>
      <trkpt lat="49.14559" lon="0.20698">
        <ele>93</ele>
        <time>2024-03-10T10:04:56Z</time>
      </trkpt>
      <trkpt lat="49.1456" lon="0.20693">
        <ele>93.3</ele>
        <time>2024-03-10T10:04:57Z</time>
      </trkpt>
      <trkpt lat="49.1456" lon="0.20691">
        <ele>93.4</ele>
        <time>2024-03-10T10:04:58Z</time>
      </trkpt>
      <trkpt lat="49.14561" lon="0.20685">
        <ele>93.8</ele>
        <time>2024-03-10T10:04:59Z</time>
      </trkpt>
      <trkpt lat="49.14561" lon="0.20683">
        <ele>93.9</ele>
        <time>2024-03-10T10:05:00Z</time>
      </trkpt>
      <trkpt lat="49.14562" lon="0.20677">
        <ele>94.2</ele>
        <time>2024-03-10T10:05:01Z</time>
      </trkpt>
      <trkpt lat="49.14562" lon="0.20675">
        <ele>94.3</ele>
        <time>2024-03-10T10:05:02Z</time>
      </trkpt>
      <trkpt lat="49.14563" lon="0.20671">
        <ele>94.6</ele>
        <time>2024-03-10T10:05:03Z</time>
      </trkpt>
      <trkpt lat="49.14564" lon="0.20668">
        <ele>94.9</ele>
        <time>2024-03-10T10:05:04Z</time>
      </trkpt>
      <trkpt lat="49.14565" lon="0.20663">
        <ele>95.1</ele>
        <time>2024-03-10T10:05:05Z</time>
      </trkpt>
      <trkpt lat="49.14565" lon="0.20658">
        <ele>95.4</ele>
        <time>2024-03-10T10:05:06Z</time>
      </trkpt>
      <trkpt lat="49.14566" lon="0.20654">
        <ele>95.7</ele>
        <time>2024-03-10T10:05:07Z</time>
      </trkpt>
      <trkpt lat="49.14566" lon="0.20649">
        <ele>96</ele>
        <time>2024-03-10T10:05:08Z</time>
      </trkpt>
      <trkpt lat="49.14567" lon="0.20645">
        <ele>96.3</ele>
        <time>2024-03-10T10:05:09Z</time>
      </trkpt>
      <trkpt lat="49.14567" lon="0.20641">
        <ele>96.5</ele>
        <time>2024-03-10T10:05:10Z</time>
      </trkpt>
      <trkpt lat="49.14568" lon="0.20637">
        <ele>96.8</ele>
        <time>2024-03-10T10:05:11Z</time>
      </trkpt>
      <trkpt lat="49.14569" lon="0.20632">
        <ele>97</ele>
        <time>2024-03-10T10:05:12Z</time>
      </trkpt>
      <trkpt lat="49.14569" lon="0.20628">
        <ele>97.3</ele>
        <time>2024-03-10T10:05:13Z</time>
      </trkpt>
      <trkpt lat="49.1457" lon="0.20624">
        <ele>97.5</ele>
        <time>2024-03-10T10:05:14Z</time>
      </trkpt>
      <trkpt lat="49.1457" lon="0.2062">
        <ele>97.8</ele>
        <time>2024-03-10T10:05:15Z</time>
      </trkpt>
      <trkpt lat="49.14571" lon="0.20615">
        <ele>98</ele>
        <time>2024-03-10T10:05:16Z</time>
      </trkpt>
      <trkpt lat="49.14571" lon="0.20611">
        <ele>98.2</ele>
        <time>2024-03-10T10:05:17Z</time>
      </trkpt>
      <trkpt lat="49.14572" lon="0.20607">
        <ele>98.5</ele>
        <time>2024-03-10T10:05:18Z</time>
      </trkpt>
      <trkpt lat="49.14572" lon="0.20603">
        <ele>98.7</ele>
        <time>2024-03-10T10:05:19Z</time>
      </trkpt>
      <trkpt lat="49.14573" lon="0.20598">
        <ele>99</ele>
        <time>2024-03-10T10:05:20Z</time>
      </trkpt>
      <trkpt lat="49.14573" lon="0.20594">
        <ele>99.2</ele>
        <time>2024-03-10T10:05:21Z</time>
      </trkpt>
      <trkpt lat="49.14574" lon="0.20589">
        <ele>99.4</ele>
        <time>2024-03-10T10:05:22Z</time>
      </trkpt>
      <trkpt lat="49.14575" lon="0.20584">
        <ele>99.6</ele>
        <time>2024-03-10T10:05:23Z</time>
      </trkpt>
      <trkpt lat="49.14575" lon="0.2058">
        <ele>99.8</ele>
        <time>2024-03-10T10:05:24Z</time>
      </trkpt>
      <trkpt lat="49.14576" lon="0.20575">
        <ele>100</ele>
        <time>2024-03-10T10:05:25Z</time>
      </trkpt>
      <trkpt lat="49.14577" lon="0.2057">
        <ele>100.2</ele>
        <time>2024-03-10T10:05:26Z</time>
      </trkpt>
      <trkpt lat="49.14577" lon="0.20565">
        <ele>100.5</ele>
        <time>2024-03-10T10:05:27Z</time>
      </trkpt>
      <trkpt lat="49.14578" lon="0.2056">
        <ele>100.6</ele>
        <time>2024-03-10T10:05:28Z</time>
      </trkpt>
      <trkpt lat="49.14578" lon="0.20556">
        <ele>100.8</ele>
        <time>2024-03-10T10:05:29Z</time>
      </trkpt>
      <trkpt lat="49.14579" lon="0.20551">
        <ele>101</ele>
        <time>2024-03-10T10:05:30Z</time>
      </trkpt>
      <trkpt lat="49.14579" lon="0.20546">
        <ele>101.2</ele>
        <time>2024-03-10T10:05:31Z</time>
      </trkpt>
      <trkpt lat="49.1458" lon="0.20541">
        <ele>101.3</ele>
        <time>2024-03-10T10:05:32Z</time>
      </trkpt>
      <trkpt lat="49.14581" lon="0.20536">
        <ele>101.5</ele>
        <time>2024-03-10T10:05:33Z</time>
      </trkpt>
      <trkpt lat="49.14582" lon="0.20531">
        <ele>101.7</ele>
        <time>2024-03-10T10:05:34Z</time>
      </trkpt>
      <trkpt lat="49.14582" lon="0.20525">
        <ele>101.8</ele>
        <time>2024-03-10T10:05:35Z</time>
      </trkpt>
      <trkpt lat="49.14583" lon="0.2052">
        <ele>102</ele>
        <time>2024-03-10T10:05:36Z</time>
      </trkpt>
      <trkpt lat="49.14584" lon="0.20514">
        <ele>102.2</ele>
        <time>2024-03-10T10:05:37Z</time>
      </trkpt>
      <trkpt lat="49.14584" lon="0.20509">
        <ele>102.3</ele>
        <time>2024-03-10T10:05:38Z</time>
      </trkpt>
      <trkpt lat="49.14585" lon="0.20503">
        <ele>102.5</ele>
        <time>2024-03-10T10:05:39Z</time>
      </trkpt>
      <trkpt lat="49.14586" lon="0.20498">
        <ele>102.7</ele>
        <time>2024-03-10T10:05:40Z</time>
      </trkpt>
      <trkpt lat="49.14586" lon="0.20492">
        <ele>102.8</ele>
        <time>2024-03-10T10:05:41Z</time>
      </trkpt>
      <trkpt lat="49.14587" lon="0.20486">
        <ele>103</ele>
        <time>2024-03-10T10:05:42Z</time>
      </trkpt>
      <trkpt lat="49.14588" lon="0.2048">
        <ele>103.1</ele>
        <time>2024-03-10T10:05:43Z</time>
      </trkpt>
      <trkpt lat="49.14588" lon="0.20475">
        <ele>103.3</ele>
        <time>2024-03-10T10:05:44Z</time>
      </trkpt>
      <trkpt lat="49.14589" lon="0.20469">
        <ele>103.4</ele>
        <time>2024-03-10T10:05:45Z</time>
      </trkpt>
      <trkpt lat="49.1459" lon="0.20464">
        <ele>103.6</ele>
        <time>2024-03-10T10:05:46Z</time>
      </trkpt>
      <trkpt lat="49.14591" lon="0.20458">
        <ele>103.7</ele>
        <time>2024-03-10T10:05:47Z</time>
      </trkpt>
      <trkpt lat="49.14591" lon="0.20452">
        <ele>103.9</ele>
        <time>2024-03-10T10:05:48Z</time>
      </trkpt>
      <trkpt lat="49.14592" lon="0.20445">
        <ele>104.1</ele>
        <time>2024-03-10T10:05:49Z</time>
      </trkpt>
      <trkpt lat="49.14594" lon="0.20439">
        <ele>104.2</ele>
        <time>2024-03-10T10:05:50Z</time>
      </trkpt>
      <trkpt lat="49.14595" lon="0.20433">
        <ele>104.4</ele>
        <time>2024-03-10T10:05:51Z</time>
      </trkpt>
      <trkpt lat="49.14596" lon="0.20427">
        <ele>104.5</ele>
        <time>2024-03-10T10:05:52Z</time>
      </trkpt>
      <trkpt lat="49.14596" lon="0.2042">
        <ele>104.7</ele>
        <time>2024-03-10T10:05:53Z</time>
      </trkpt>
      <trkpt lat="49.14597" lon="0.20414">
        <ele>104.8</ele>
        <time>2024-03-10T10:05:54Z</time>
      </trkpt>
      <trkpt lat="49.14598" lon="0.20407">
        <ele>105</ele>
        <time>2024-03-10T10:05:55Z</time>
      </trkpt>
      <trkpt lat="49.14599" lon="0.204">
        <ele>105.2</ele>
        <time>2024-03-10T10:05:56Z</time>
      </trkpt>
      <trkpt lat="49.146" lon="0.20393">
        <ele>105.3</ele>
        <time>2024-03-10T10:05:57Z</time>
      </trkpt>
      <trkpt lat="49.14601" lon="0.20386">
        <ele>105.5</ele>
        <time>2024-03-10T10:05:58Z</time>
      </trkpt>
      <trkpt lat="49.14602" lon="0.2038">
        <ele>105.6</ele>
        <time>2024-03-10T10:05:59Z</time>
      </trkpt>
      <trkpt lat="49.14603" lon="0.20373">
        <ele>105.8</ele>
        <time>2024-03-10T10:06:00Z</time>
      </trkpt>
      <trkpt lat="49.14603" lon="0.20367">
        <ele>105.9</ele>
        <time>2024-03-10T10:06:01Z</time>
      </trkpt>
      <trkpt lat="49.14604" lon="0.20361">
        <ele>106.1</ele>
        <time>2024-03-10T10:06:02Z</time>
      </trkpt>
      <trkpt lat="49.14605" lon="0.20354">
        <ele>106.2</ele>
        <time>2024-03-10T10:06:03Z</time>
      </trkpt>
      <trkpt lat="49.14606" lon="0.20348">
        <ele>106.4</ele>
        <time>2024-03-10T10:06:04Z</time>
      </trkpt>
      <trkpt lat="49.14607" lon="0.20342">
        <ele>106.5</ele>
        <time>2024-03-10T10:06:05Z</time>
      </trkpt>
      <trkpt lat="49.14608" lon="0.20336">
        <ele>106.7</ele>
        <time>2024-03-10T10:06:06Z</time>
      </trkpt>
      <trkpt lat="49.14608" lon="0.2033">
        <ele>106.8</ele>
        <time>2024-03-10T10:06:07Z</time>
      </trkpt>
      <trkpt lat="49.14609" lon="0.20324">
        <ele>107</ele>
        <time>2024-03-10T10:06:08Z</time>
      </trkpt>
      <trkpt lat="49.1461" lon="0.20318">
        <ele>107.2</ele>
        <time>2024-03-10T10:06:09Z</time>
      </trkpt>
      <trkpt lat="49.14611" lon="0.20312">
        <ele>107.3</ele>
        <time>2024-03-10T10:06:10Z</time>
      </trkpt>
      <trkpt lat="49.14612" lon="0.20306">
        <ele>107.5</ele>
        <time>2024-03-10T10:06:11Z</time>
      </trkpt>
      <trkpt lat="49.14613" lon="0.203">
        <ele>107.7</ele>
        <time>2024-03-10T10:06:12Z</time>
      </trkpt>
      <trkpt lat="49.14614" lon="0.20294">
        <ele>107.9</ele>
        <time>2024-03-10T10:06:13Z</time>
      </trkpt>
      <trkpt lat="49.14615" lon="0.20288">
        <ele>108</ele>
        <time>2024-03-10T10:06:14Z</time>
      </trkpt>
      <trkpt lat="49.14616" lon="0.20282">
        <ele>108.2</ele>
        <time>2024-03-10T10:06:15Z</time>
      </trkpt>
      <trkpt lat="49.14617" lon="0.20276">
        <ele>108.4</ele>
        <time>2024-03-10T10:06:16Z</time>
      </trkpt>
      <trkpt lat="49.14618" lon="0.2027">
        <ele>108.6</ele>
        <time>2024-03-10T10:06:17Z</time>
      </trkpt>
      <trkpt lat="49.14619" lon="0.20264">
        <ele>108.7</ele>
        <time>2024-03-10T10:06:18Z</time>
      </trkpt>
      <trkpt lat="49.1462" lon="0.20258">
        <ele>108.9</ele>
        <time>2024-03-10T10:06:19Z</time>
      </trkpt>
      <trkpt lat="49.14621" lon="0.20251">
        <ele>109</ele>
        <time>2024-03-10T10:06:20Z</time>
      </trkpt>
      <trkpt lat="49.14622" lon="0.20245">
        <ele>109.2</ele>
        <time>2024-03-10T10:06:21Z</time>
      </trkpt>
      <trkpt lat="49.14622" lon="0.20239">
        <ele>109.3</ele>
        <time>2024-03-10T10:06:22Z</time>
      </trkpt>
      <trkpt lat="49.14623" lon="0.20233">
        <ele>109.5</ele>
        <time>2024-03-10T10:06:23Z</time>
      </trkpt>
      <trkpt lat="49.14624" lon="0.20227">
        <ele>109.6</ele>
        <time>2024-03-10T10:06:24Z</time>
      </trkpt>
      <trkpt lat="49.14625" lon="0.20221">
        <ele>109.8</ele>
        <time>2024-03-10T10:06:25Z</time>
      </trkpt>
      <trkpt lat="49.14627" lon="0.20214">
        <ele>109.9</ele>
        <time>2024-03-10T10:06:26Z</time>
      </trkpt>
      <trkpt lat="49.14628" lon="0.20208">
        <ele>110</ele>
        <time>2024-03-10T10:06:27Z</time>
      </trkpt>
      <trkpt lat="49.14628" lon="0.20202">
        <ele>110.2</ele>
        <time>2024-03-10T10:06:28Z</time>
      </trkpt>
      <trkpt lat="49.14629" lon="0.20196">
        <ele>110.3</ele>
        <time>2024-03-10T10:06:29Z</time>
      </trkpt>
      <trkpt lat="49.1463" lon="0.2019">
        <ele>110.4</ele>
        <time>2024-03-10T10:06:30Z</time>
      </trkpt>
      <trkpt lat="49.14631" lon="0.20184">
        <ele>110.5</ele>
        <time>2024-03-10T10:06:31Z</time>
      </trkpt>
      <trkpt lat="49.14632" lon="0.20178">
        <ele>110.7</ele>
        <time>2024-03-10T10:06:32Z</time>
      </trkpt>
      <trkpt lat="49.14633" lon="0.20171">
        <ele>110.8</ele>
        <time>2024-03-10T10:06:33Z</time>
      </trkpt>
      <trkpt lat="49.14634" lon="0.20165">
        <ele>110.9</ele>
        <time>2024-03-10T10:06:34Z</time>
      </trkpt>
      <trkpt lat="49.14635" lon="0.20159">
        <ele>111</ele>
        <time>2024-03-10T10:06:35Z</time>
      </trkpt>
      <trkpt lat="49.14636" lon="0.20152">
        <ele>111.1</ele>
        <time>2024-03-10T10:06:36Z</time>
      </trkpt>
      <trkpt lat="49.14637" lon="0.20146">
        <ele>111.2</ele>
        <time>2024-03-10T10:06:37Z</time>
      </trkpt>
      <trkpt lat="49.14638" lon="0.20139">
        <ele>111.3</ele>
        <time>2024-03-10T10:06:38Z</time>
      </trkpt>
      <trkpt lat="49.14639" lon="0.20132">
        <ele>111.4</ele>
        <time>2024-03-10T10:06:39Z</time>
      </trkpt>
      <trkpt lat="49.1464" lon="0.20125">
        <ele>111.6</ele>
        <time>2024-03-10T10:06:40Z</time>
      </trkpt>
      <trkpt lat="49.1464" lon="0.20119">
        <ele>111.7</ele>
        <time>2024-03-10T10:06:41Z</time>
      </trkpt>
      <trkpt lat="49.14641" lon="0.20112">
        <ele>111.8</ele>
        <time>2024-03-10T10:06:42Z</time>
      </trkpt>
      <trkpt lat="49.14642" lon="0.20105">
        <ele>111.9</ele>
        <time>2024-03-10T10:06:43Z</time>
      </trkpt>
      <trkpt lat="49.14643" lon="0.20099">
        <ele>112.1</ele>
        <time>2024-03-10T10:06:44Z</time>
      </trkpt>
      <trkpt lat="49.14645" lon="0.20092">
        <ele>112.2</ele>
        <time>2024-03-10T10:06:45Z</time>
      </trkpt>
      <trkpt lat="49.14645" lon="0.20084">
        <ele>112.4</ele>
        <time>2024-03-10T10:06:46Z</time>
      </trkpt>
      <trkpt lat="49.14647" lon="0.20077">
        <ele>112.5</ele>
        <time>2024-03-10T10:06:47Z</time>
      </trkpt>
      <trkpt lat="49.14648" lon="0.20069">
        <ele>112.7</ele>
        <time>2024-03-10T10:06:48Z</time>
      </trkpt>
      <trkpt lat="49.14649" lon="0.20061">
        <ele>112.8</ele>
        <time>2024-03-10T10:06:49Z</time>
      </trkpt>
      <trkpt lat="49.1465" lon="0.20054">
        <ele>113</ele>
        <time>2024-03-10T10:06:50Z</time>
      </trkpt>
      <trkpt lat="49.1465" lon="0.20046">
        <ele>113.2</ele>
        <time>2024-03-10T10:06:51Z</time>
      </trkpt>
      <trkpt lat="49.14651" lon="0.20039">
        <ele>113.3</ele>
        <time>2024-03-10T10:06:52Z</time>
      </trkpt>
      <trkpt lat="49.14652" lon="0.20032">
        <ele>113.4</ele>
        <time>2024-03-10T10:06:53Z</time>
      </trkpt>
      <trkpt lat="49.14654" lon="0.20024">
        <ele>113.6</ele>
        <time>2024-03-10T10:06:54Z</time>
      </trkpt>
      <trkpt lat="49.14655" lon="0.20017">
        <ele>113.7</ele>
        <time>2024-03-10T10:06:55Z</time>
      </trkpt>
      <trkpt lat="49.14657" lon="0.20009">
        <ele>113.9</ele>
        <time>2024-03-10T10:06:56Z</time>
      </trkpt>
      <trkpt lat="49.14658" lon="0.20002">
        <ele>114</ele>
        <time>2024-03-10T10:06:57Z</time>
      </trkpt>
      <trkpt lat="49.1466" lon="0.19994">
        <ele>114.2</ele>
        <time>2024-03-10T10:06:58Z</time>
      </trkpt>
      <trkpt lat="49.14661" lon="0.19987">
        <ele>114.3</ele>
        <time>2024-03-10T10:06:59Z</time>
      </trkpt>
      <trkpt lat="49.14661" lon="0.19979">
        <ele>114.5</ele>
        <time>2024-03-10T10:07:00Z</time>
      </trkpt>
      <trkpt lat="49.14662" lon="0.19972">
        <ele>114.6</ele>
        <time>2024-03-10T10:07:01Z</time>
      </trkpt>
      <trkpt lat="49.14663" lon="0.19964">
        <ele>114.8</ele>
        <time>2024-03-10T10:07:02Z</time>
      </trkpt>
      <trkpt lat="49.14663" lon="0.19957">
        <ele>114.9</ele>
        <time>2024-03-10T10:07:03Z</time>
      </trkpt>
      <trkpt lat="49.14664" lon="0.1995">
        <ele>115.1</ele>
        <time>2024-03-10T10:07:04Z</time>
      </trkpt>
      <trkpt lat="49.14665" lon="0.19942">
        <ele>115.3</ele>
        <time>2024-03-10T10:07:05Z</time>
      </trkpt>
      <trkpt lat="49.14666" lon="0.19935">
        <ele>115.4</ele>
        <time>2024-03-10T10:07:06Z</time>
      </trkpt>
      <trkpt lat="49.14667" lon="0.19928">
        <ele>115.6</ele>
        <time>2024-03-10T10:07:07Z</time>
      </trkpt>
      <trkpt lat="49.14667" lon="0.19921">
        <ele>115.8</ele>
        <time>2024-03-10T10:07:08Z</time>
      </trkpt>
      <trkpt lat="49.14668" lon="0.19914">
        <ele>115.9</ele>
        <time>2024-03-10T10:07:09Z</time>
      </trkpt>
      <trkpt lat="49.14669" lon="0.19908">
        <ele>116.1</ele>
        <time>2024-03-10T10:07:10Z</time>
      </trkpt>
      <trkpt lat="49.14671" lon="0.19901">
        <ele>116.3</ele>
        <time>2024-03-10T10:07:11Z</time>
      </trkpt>
      <trkpt lat="49.14672" lon="0.19894">
        <ele>116.5</ele>
        <time>2024-03-10T10:07:12Z</time>
      </trkpt>
      <trkpt lat="49.14673" lon="0.19888">
        <ele>116.7</ele>
        <time>2024-03-10T10:07:13Z</time>
      </trkpt>
      <trkpt lat="49.14674" lon="0.19881">
        <ele>116.9</ele>
        <time>2024-03-10T10:07:14Z</time>
      </trkpt>
      <trkpt lat="49.14675" lon="0.19875">
        <ele>117.1</ele>
        <time>2024-03-10T10:07:15Z</time>
      </trkpt>
      <trkpt lat="49.14676" lon="0.19869">
        <ele>117.3</ele>
        <time>2024-03-10T10:07:16Z</time>
      </trkpt>
      <trkpt lat="49.14677" lon="0.19862">
        <ele>117.5</ele>
        <time>2024-03-10T10:07:17Z</time>
      </trkpt>
      <trkpt lat="49.14678" lon="0.19856">
        <ele>117.7</ele>
        <time>2024-03-10T10:07:18Z</time>
      </trkpt>
      <trkpt lat="49.14679" lon="0.19849">
        <ele>117.9</ele>
        <time>2024-03-10T10:07:19Z</time>
      </trkpt>
      <trkpt lat="49.1468" lon="0.19843">
        <ele>118.1</ele>
        <time>2024-03-10T10:07:20Z</time>
      </trkpt>
      <trkpt lat="49.14681" lon="0.19837">
        <ele>118.3</ele>
        <time>2024-03-10T10:07:21Z</time>
      </trkpt>
      <trkpt lat="49.14683" lon="0.1983">
        <ele>118.6</ele>
        <time>2024-03-10T10:07:22Z</time>
      </trkpt>
      <trkpt lat="49.14684" lon="0.19824">
        <ele>118.8</ele>
        <time>2024-03-10T10:07:23Z</time>
      </trkpt>
      <trkpt lat="49.14685" lon="0.19817">
        <ele>119</ele>
        <time>2024-03-10T10:07:24Z</time>
      </trkpt>
      <trkpt lat="49.14686" lon="0.19811">
        <ele>119.2</ele>
        <time>2024-03-10T10:07:25Z</time>
      </trkpt>
      <trkpt lat="49.14687" lon="0.19804">
        <ele>119.4</ele>
        <time>2024-03-10T10:07:26Z</time>
      </trkpt>
      <trkpt lat="49.14688" lon="0.19798">
        <ele>119.7</ele>
        <time>2024-03-10T10:07:27Z</time>
      </trkpt>
      <trkpt lat="49.14688" lon="0.19792">
        <ele>119.9</ele>
        <time>2024-03-10T10:07:28Z</time>
      </trkpt>
      <trkpt lat="49.14689" lon="0.19786">
        <ele>120.1</ele>
        <time>2024-03-10T10:07:29Z</time>
      </trkpt>
      <trkpt lat="49.14689" lon="0.1978">
        <ele>120.2</ele>
        <time>2024-03-10T10:07:30Z</time>
      </trkpt>
      <trkpt lat="49.1469" lon="0.19774">
        <ele>120.4</ele>
        <time>2024-03-10T10:07:31Z</time>
      </trkpt>
      <trkpt lat="49.1469" lon="0.19768">
        <ele>120.6</ele>
        <time>2024-03-10T10:07:32Z</time>
      </trkpt>
      <trkpt lat="49.1469" lon="0.19761">
        <ele>120.8</ele>
        <time>2024-03-10T10:07:33Z</time>
      </trkpt>
      <trkpt lat="49.1469" lon="0.19755">
        <ele>121</ele>
        <time>2024-03-10T10:07:34Z</time>
      </trkpt>
      <trkpt lat="49.1469" lon="0.19749">
        <ele>121.2</ele>
        <time>2024-03-10T10:07:35Z</time>
      </trkpt>
      <trkpt lat="49.14689" lon="0.19744">
        <ele>121.4</ele>
        <time>2024-03-10T10:07:36Z</time>
      </trkpt>
      <trkpt lat="49.14687" lon="0.19738">
        <ele>121.6</ele>
        <time>2024-03-10T10:07:37Z</time>
      </trkpt>
      <trkpt lat="49.14685" lon="0.19732">
        <ele>121.9</ele>
        <time>2024-03-10T10:07:38Z</time>
      </trkpt>
      <trkpt lat="49.14684" lon="0.19727">
        <ele>122.1</ele>
        <time>2024-03-10T10:07:39Z</time>
      </trkpt>
      <trkpt lat="49.14682" lon="0.19722">
        <ele>122.3</ele>
        <time>2024-03-10T10:07:40Z</time>
      </trkpt>
      <trkpt lat="49.1468" lon="0.19716">
        <ele>122.5</ele>
        <time>2024-03-10T10:07:41Z</time>
      </trkpt>
      <trkpt lat="49.14678" lon="0.19711">
        <ele>122.8</ele>
        <time>2024-03-10T10:07:42Z</time>
      </trkpt>
      <trkpt lat="49.14676" lon="0.19706">
        <ele>123</ele>
        <time>2024-03-10T10:07:43Z</time>
      </trkpt>
      <trkpt lat="49.14674" lon="0.19701">
        <ele>123.2</ele>
        <time>2024-03-10T10:07:44Z</time>
      </trkpt>
      <trkpt lat="49.14672" lon="0.19697">
        <ele>123.5</ele>
        <time>2024-03-10T10:07:45Z</time>
      </trkpt>
      <trkpt lat="49.1467" lon="0.19692">
        <ele>123.7</ele>
        <time>2024-03-10T10:07:46Z</time>
      </trkpt>
      <trkpt lat="49.14669" lon="0.19688">
        <ele>123.9</ele>
        <time>2024-03-10T10:07:47Z</time>
      </trkpt>
      <trkpt lat="49.14668" lon="0.19683">
        <ele>124.1</ele>
        <time>2024-03-10T10:07:48Z</time>
      </trkpt>
      <trkpt lat="49.14667" lon="0.19678">
        <ele>124.3</ele>
        <time>2024-03-10T10:07:49Z</time>
      </trkpt>
      <trkpt lat="49.14666" lon="0.19673">
        <ele>124.6</ele>
        <time>2024-03-10T10:07:50Z</time>
      </trkpt>
      <trkpt lat="49.14665" lon="0.19668">
        <ele>124.8</ele>
        <time>2024-03-10T10:07:51Z</time>
      </trkpt>
      <trkpt lat="49.14664" lon="0.19663">
        <ele>125</ele>
        <time>2024-03-10T10:07:52Z</time>
      </trkpt>
      <trkpt lat="49.14663" lon="0.19658">
        <ele>125.3</ele>
        <time>2024-03-10T10:07:53Z</time>
      </trkpt>
      <trkpt lat="49.14662" lon="0.19653">
        <ele>125.5</ele>
        <time>2024-03-10T10:07:54Z</time>
      </trkpt>
      <trkpt lat="49.14661" lon="0.19648">
        <ele>125.8</ele>
        <time>2024-03-10T10:07:55Z</time>
      </trkpt>
      <trkpt lat="49.14661" lon="0.19642">
        <ele>126.1</ele>
        <time>2024-03-10T10:07:56Z</time>
      </trkpt>
      <trkpt lat="49.1466" lon="0.19636">
        <ele>126.3</ele>
        <time>2024-03-10T10:07:57Z</time>
      </trkpt>
      <trkpt lat="49.1466" lon="0.1963">
        <ele>126.6</ele>
        <time>2024-03-10T10:07:58Z</time>
      </trkpt>
      <trkpt lat="49.1466" lon="0.19624">
        <ele>126.9</ele>
        <time>2024-03-10T10:07:59Z</time>
      </trkpt>
      <trkpt lat="49.1466" lon="0.19618">
        <ele>127.1</ele>
        <time>2024-03-10T10:08:00Z</time>
      </trkpt>
      <trkpt lat="49.1466" lon="0.19612">
        <ele>127.4</ele>
        <time>2024-03-10T10:08:01Z</time>
      </trkpt>
      <trkpt lat="49.14659" lon="0.19606">
        <ele>127.6</ele>
        <time>2024-03-10T10:08:02Z</time>
      </trkpt>
      <trkpt lat="49.14659" lon="0.196">
        <ele>127.9</ele>
        <time>2024-03-10T10:08:03Z</time>
      </trkpt>
      <trkpt lat="49.14659" lon="0.19594">
        <ele>128.1</ele>
        <time>2024-03-10T10:08:04Z</time>
      </trkpt>
      <trkpt lat="49.14659" lon="0.19589">
        <ele>128.4</ele>
        <time>2024-03-10T10:08:05Z</time>
      </trkpt>
      <trkpt lat="49.14658" lon="0.19583">
        <ele>128.6</ele>
        <time>2024-03-10T10:08:06Z</time>
      </trkpt>
      <trkpt lat="49.14658" lon="0.19578">
        <ele>128.8</ele>
        <time>2024-03-10T10:08:07Z</time>
      </trkpt>
      <trkpt lat="49.14658" lon="0.19572">
        <ele>129</ele>
        <time>2024-03-10T10:08:08Z</time>
      </trkpt>
      <trkpt lat="49.14657" lon="0.19567">
        <ele>129.3</ele>
        <time>2024-03-10T10:08:09Z</time>
      </trkpt>
      <trkpt lat="49.14657" lon="0.19561">
        <ele>129.5</ele>
        <time>2024-03-10T10:08:10Z</time>
      </trkpt>
      <trkpt lat="49.14657" lon="0.19556">
        <ele>129.7</ele>
        <time>2024-03-10T10:08:11Z</time>
      </trkpt>
      <trkpt lat="49.14657" lon="0.19551">
        <ele>129.9</ele>
        <time>2024-03-10T10:08:12Z</time>
      </trkpt>
      <trkpt lat="49.14657" lon="0.19545">
        <ele>130.1</ele>
        <time>2024-03-10T10:08:13Z</time>
      </trkpt>
      <trkpt lat="49.14657" lon="0.1954">
        <ele>130.3</ele>
        <time>2024-03-10T10:08:14Z</time>
      </trkpt>
      <trkpt lat="49.14656" lon="0.19535">
        <ele>130.6</ele>
        <time>2024-03-10T10:08:15Z</time>
      </trkpt>
      <trkpt lat="49.14656" lon="0.19529">
        <ele>130.8</ele>
        <time>2024-03-10T10:08:16Z</time>
      </trkpt>
      <trkpt lat="49.14656" lon="0.19524">
        <ele>131</ele>
        <time>2024-03-10T10:08:17Z</time>
      </trkpt>
      <trkpt lat="49.14655" lon="0.19518">
        <ele>131.2</ele>
        <time>2024-03-10T10:08:18Z</time>
      </trkpt>
      <trkpt lat="49.14655" lon="0.19512">
        <ele>131.4</ele>
        <time>2024-03-10T10:08:19Z</time>
      </trkpt>
      <trkpt lat="49.14654" lon="0.19507">
        <ele>131.7</ele>
        <time>2024-03-10T10:08:20Z</time>
      </trkpt>
      <trkpt lat="49.14654" lon="0.19501">
        <ele>131.8</ele>
        <time>2024-03-10T10:08:21Z</time>
      </trkpt>
      <trkpt lat="49.14654" lon="0.19496">
        <ele>132</ele>
        <time>2024-03-10T10:08:22Z</time>
      </trkpt>
      <trkpt lat="49.14654" lon="0.1949">
        <ele>132.2</ele>
        <time>2024-03-10T10:08:23Z</time>
      </trkpt>
      <trkpt lat="49.14654" lon="0.19484">
        <ele>132.4</ele>
        <time>2024-03-10T10:08:24Z</time>
      </trkpt>
      <trkpt lat="49.14654" lon="0.19478">
        <ele>132.6</ele>
        <time>2024-03-10T10:08:25Z</time>
      </trkpt>
      <trkpt lat="49.14654" lon="0.19472">
        <ele>132.8</ele>
        <time>2024-03-10T10:08:26Z</time>
      </trkpt>
      <trkpt lat="49.14653" lon="0.19466">
        <ele>133</ele>
        <time>2024-03-10T10:08:27Z</time>
      </trkpt>
      <trkpt lat="49.14653" lon="0.1946">
        <ele>133.2</ele>
        <time>2024-03-10T10:08:28Z</time>
      </trkpt>
      <trkpt lat="49.14653" lon="0.19455">
        <ele>133.4</ele>
        <time>2024-03-10T10:08:29Z</time>
      </trkpt>
      <trkpt lat="49.14653" lon="0.19449">
        <ele>133.5</ele>
        <time>2024-03-10T10:08:30Z</time>
      </trkpt>
      <trkpt lat="49.14654" lon="0.19443">
        <ele>133.7</ele>
        <time>2024-03-10T10:08:31Z</time>
      </trkpt>
      <trkpt lat="49.14654" lon="0.19437">
        <ele>133.8</ele>
        <time>2024-03-10T10:08:32Z</time>
      </trkpt>
      <trkpt lat="49.14655" lon="0.19431">
        <ele>134</ele>
        <time>2024-03-10T10:08:33Z</time>
      </trkpt>
      <trkpt lat="49.14655" lon="0.19425">
        <ele>134.1</ele>
        <time>2024-03-10T10:08:34Z</time>
      </trkpt>
      <trkpt lat="49.14655" lon="0.19419">
        <ele>134.3</ele>
        <time>2024-03-10T10:08:35Z</time>
      </trkpt>
      <trkpt lat="49.14656" lon="0.19413">
        <ele>134.4</ele>
        <time>2024-03-10T10:08:36Z</time>
      </trkpt>
      <trkpt lat="49.14657" lon="0.19407">
        <ele>134.5</ele>
        <time>2024-03-10T10:08:37Z</time>
      </trkpt>
      <trkpt lat="49.14657" lon="0.194">
        <ele>134.7</ele>
        <time>2024-03-10T10:08:38Z</time>
      </trkpt>
      <trkpt lat="49.14658" lon="0.19394">
        <ele>134.8</ele>
        <time>2024-03-10T10:08:39Z</time>
      </trkpt>
      <trkpt lat="49.14659" lon="0.19388">
        <ele>134.9</ele>
        <time>2024-03-10T10:08:40Z</time>
      </trkpt>
      <trkpt lat="49.1466" lon="0.19382">
        <ele>135</ele>
        <time>2024-03-10T10:08:41Z</time>
      </trkpt>
      <trkpt lat="49.14662" lon="0.19374">
        <ele>135.2</ele>
        <time>2024-03-10T10:08:42Z</time>
      </trkpt>
      <trkpt lat="49.14663" lon="0.19368">
        <ele>135.3</ele>
        <time>2024-03-10T10:08:43Z</time>
      </trkpt>
      <trkpt lat="49.14665" lon="0.19361">
        <ele>135.5</ele>
        <time>2024-03-10T10:08:44Z</time>
      </trkpt>
      <trkpt lat="49.14667" lon="0.19354">
        <ele>135.6</ele>
        <time>2024-03-10T10:08:45Z</time>
      </trkpt>
      <trkpt lat="49.14668" lon="0.19348">
        <ele>135.8</ele>
        <time>2024-03-10T10:08:46Z</time>
      </trkpt>
      <trkpt lat="49.1467" lon="0.19341">
        <ele>135.9</ele>
        <time>2024-03-10T10:08:47Z</time>
      </trkpt>
      <trkpt lat="49.14673" lon="0.19335">
        <ele>136</ele>
        <time>2024-03-10T10:08:48Z</time>
      </trkpt>
      <trkpt lat="49.14675" lon="0.19329">
        <ele>136.1</ele>
        <time>2024-03-10T10:08:49Z</time>
      </trkpt>
      <trkpt lat="49.14677" lon="0.19323">
        <ele>136.2</ele>
        <time>2024-03-10T10:08:50Z</time>
      </trkpt>
      <trkpt lat="49.14679" lon="0.19316">
        <ele>136.4</ele>
        <time>2024-03-10T10:08:51Z</time>
      </trkpt>
      <trkpt lat="49.14682" lon="0.19309">
        <ele>136.5</ele>
        <time>2024-03-10T10:08:52Z</time>
      </trkpt>
      <trkpt lat="49.14684" lon="0.19302">
        <ele>136.6</ele>
        <time>2024-03-10T10:08:53Z</time>
      </trkpt>
      <trkpt lat="49.14686" lon="0.19295">
        <ele>136.7</ele>
        <time>2024-03-10T10:08:54Z</time>
      </trkpt>
      <trkpt lat="49.14688" lon="0.19289">
        <ele>136.8</ele>
        <time>2024-03-10T10:08:55Z</time>
      </trkpt>
      <trkpt lat="49.14691" lon="0.19282">
        <ele>136.9</ele>
        <time>2024-03-10T10:08:56Z</time>
      </trkpt>
      <trkpt lat="49.14693" lon="0.19275">
        <ele>137</ele>
        <time>2024-03-10T10:08:57Z</time>
      </trkpt>
      <trkpt lat="49.14695" lon="0.19268">
        <ele>137.2</ele>
        <time>2024-03-10T10:08:58Z</time>
      </trkpt>
      <trkpt lat="49.14698" lon="0.19261">
        <ele>137.3</ele>
        <time>2024-03-10T10:08:59Z</time>
      </trkpt>
      <trkpt lat="49.147" lon="0.19253">
        <ele>137.4</ele>
        <time>2024-03-10T10:09:00Z</time>
      </trkpt>
      <trkpt lat="49.14702" lon="0.19246">
        <ele>137.5</ele>
        <time>2024-03-10T10:09:01Z</time>
      </trkpt>
      <trkpt lat="49.14704" lon="0.19239">
        <ele>137.7</ele>
        <time>2024-03-10T10:09:02Z</time>
      </trkpt>
      <trkpt lat="49.14707" lon="0.19232">
        <ele>137.8</ele>
        <time>2024-03-10T10:09:03Z</time>
      </trkpt>
      <trkpt lat="49.14709" lon="0.19225">
        <ele>137.9</ele>
        <time>2024-03-10T10:09:04Z</time>
      </trkpt>
      <trkpt lat="49.14712" lon="0.19218">
        <ele>138.1</ele>
        <time>2024-03-10T10:09:05Z</time>
      </trkpt>
      <trkpt lat="49.14715" lon="0.19211">
        <ele>138.2</ele>
        <time>2024-03-10T10:09:06Z</time>
      </trkpt>
      <trkpt lat="49.14718" lon="0.19203">
        <ele>138.3</ele>
        <time>2024-03-10T10:09:07Z</time>
      </trkpt>
      <trkpt lat="49.14721" lon="0.19197">
        <ele>138.5</ele>
        <time>2024-03-10T10:09:08Z</time>
      </trkpt>
      <trkpt lat="49.14723" lon="0.19189">
        <ele>138.6</ele>
        <time>2024-03-10T10:09:09Z</time>
      </trkpt>
      <trkpt lat="49.14726" lon="0.19183">
        <ele>138.7</ele>
        <time>2024-03-10T10:09:10Z</time>
      </trkpt>
      <trkpt lat="49.14729" lon="0.19176">
        <ele>138.9</ele>
        <time>2024-03-10T10:09:11Z</time>
      </trkpt>
      <trkpt lat="49.14732" lon="0.19169">
        <ele>139</ele>
        <time>2024-03-10T10:09:12Z</time>
      </trkpt>
      <trkpt lat="49.14735" lon="0.19163">
        <ele>139.1</ele>
        <time>2024-03-10T10:09:13Z</time>
      </trkpt>
      <trkpt lat="49.14739" lon="0.19156">
        <ele>139.3</ele>
        <time>2024-03-10T10:09:14Z</time>
      </trkpt>
      <trkpt lat="49.14743" lon="0.19149">
        <ele>139.4</ele>
        <time>2024-03-10T10:09:15Z</time>
      </trkpt>
      <trkpt lat="49.14746" lon="0.19142">
        <ele>139.6</ele>
        <time>2024-03-10T10:09:16Z</time>
      </trkpt>
      <trkpt lat="49.1475" lon="0.19135">
        <ele>139.7</ele>
        <time>2024-03-10T10:09:17Z</time>
      </trkpt>
      <trkpt lat="49.14754" lon="0.19128">
        <ele>139.9</ele>
        <time>2024-03-10T10:09:18Z</time>
      </trkpt>
      <trkpt lat="49.14757" lon="0.19121">
        <ele>140</ele>
        <time>2024-03-10T10:09:19Z</time>
      </trkpt>
      <trkpt lat="49.1476" lon="0.19114">
        <ele>140.1</ele>
        <time>2024-03-10T10:09:20Z</time>
      </trkpt>
      <trkpt lat="49.14764" lon="0.19108">
        <ele>140.2</ele>
        <time>2024-03-10T10:09:21Z</time>
      </trkpt>
      <trkpt lat="49.14767" lon="0.19102">
        <ele>140.3</ele>
        <time>2024-03-10T10:09:22Z</time>
      </trkpt>
      <trkpt lat="49.14771" lon="0.19095">
        <ele>140.5</ele>
        <time>2024-03-10T10:09:23Z</time>
      </trkpt>
      <trkpt lat="49.14775" lon="0.19088">
        <ele>140.6</ele>
        <time>2024-03-10T10:09:24Z</time>
      </trkpt>
      <trkpt lat="49.14778" lon="0.19081">
        <ele>140.7</ele>
        <time>2024-03-10T10:09:25Z</time>
      </trkpt>
      <trkpt lat="49.14781" lon="0.19074">
        <ele>140.8</ele>
        <time>2024-03-10T10:09:26Z</time>
      </trkpt>
      <trkpt lat="49.14784" lon="0.19068">
        <ele>141</ele>
        <time>2024-03-10T10:09:27Z</time>
      </trkpt>
      <trkpt lat="49.14788" lon="0.19062">
        <ele>141.1</ele>
        <time>2024-03-10T10:09:28Z</time>
      </trkpt>
      <trkpt lat="49.14791" lon="0.19056">
        <ele>141.2</ele>
        <time>2024-03-10T10:09:29Z</time>
      </trkpt>
      <trkpt lat="49.14794" lon="0.19049">
        <ele>141.3</ele>
        <time>2024-03-10T10:09:30Z</time>
      </trkpt>
      <trkpt lat="49.14797" lon="0.19043">
        <ele>141.4</ele>
        <time>2024-03-10T10:09:31Z</time>
      </trkpt>
      <trkpt lat="49.148" lon="0.19037">
        <ele>141.5</ele>
        <time>2024-03-10T10:09:32Z</time>
      </trkpt>
      <trkpt lat="49.14803" lon="0.19032">
        <ele>141.6</ele>
        <time>2024-03-10T10:09:33Z</time>
      </trkpt>
      <trkpt lat="49.14806" lon="0.19026">
        <ele>141.7</ele>
        <time>2024-03-10T10:09:34Z</time>
      </trkpt>
      <trkpt lat="49.14809" lon="0.1902">
        <ele>141.8</ele>
        <time>2024-03-10T10:09:35Z</time>
      </trkpt>
      <trkpt lat="49.14812" lon="0.19014">
        <ele>141.9</ele>
        <time>2024-03-10T10:09:36Z</time>
      </trkpt>
      <trkpt lat="49.14815" lon="0.19008">
        <ele>142.1</ele>
        <time>2024-03-10T10:09:37Z</time>
      </trkpt>
      <trkpt lat="49.14818" lon="0.19002">
        <ele>142.2</ele>
        <time>2024-03-10T10:09:38Z</time>
      </trkpt>
      <trkpt lat="49.14821" lon="0.18996">
        <ele>142.3</ele>
        <time>2024-03-10T10:09:39Z</time>
      </trkpt>
      <trkpt lat="49.14824" lon="0.18989">
        <ele>142.4</ele>
        <time>2024-03-10T10:09:40Z</time>
      </trkpt>
      <trkpt lat="49.14828" lon="0.18983">
        <ele>142.5</ele>
        <time>2024-03-10T10:09:41Z</time>
      </trkpt>
      <trkpt lat="49.14831" lon="0.18977">
        <ele>142.7</ele>
        <time>2024-03-10T10:09:42Z</time>
      </trkpt>
      <trkpt lat="49.14834" lon="0.18971">
        <ele>142.8</ele>
        <time>2024-03-10T10:09:43Z</time>
      </trkpt>
      <trkpt lat="49.14837" lon="0.18965">
        <ele>142.9</ele>
        <time>2024-03-10T10:09:44Z</time>
      </trkpt>
      <trkpt lat="49.1484" lon="0.18959">
        <ele>143</ele>
        <time>2024-03-10T10:09:45Z</time>
      </trkpt>
      <trkpt lat="49.14843" lon="0.18953">
        <ele>143.2</ele>
        <time>2024-03-10T10:09:46Z</time>
      </trkpt>
      <trkpt lat="49.14846" lon="0.18946">
        <ele>143.3</ele>
        <time>2024-03-10T10:09:47Z</time>
      </trkpt>
      <trkpt lat="49.1485" lon="0.1894">
        <ele>143.4</ele>
        <time>2024-03-10T10:09:48Z</time>
      </trkpt>
      <trkpt lat="49.14853" lon="0.18933">
        <ele>143.6</ele>
        <time>2024-03-10T10:09:49Z</time>
      </trkpt>
      <trkpt lat="49.14856" lon="0.18927">
        <ele>143.7</ele>
        <time>2024-03-10T10:09:50Z</time>
      </trkpt>
      <trkpt lat="49.14859" lon="0.18922">
        <ele>143.8</ele>
        <time>2024-03-10T10:09:51Z</time>
      </trkpt>
      <trkpt lat="49.14863" lon="0.18915">
        <ele>143.9</ele>
        <time>2024-03-10T10:09:52Z</time>
      </trkpt>
      <trkpt lat="49.14866" lon="0.18909">
        <ele>144.1</ele>
        <time>2024-03-10T10:09:53Z</time>
      </trkpt>
      <trkpt lat="49.1487" lon="0.18903">
        <ele>144.2</ele>
        <time>2024-03-10T10:09:54Z</time>
      </trkpt>
      <trkpt lat="49.14873" lon="0.18897">
        <ele>144.3</ele>
        <time>2024-03-10T10:09:55Z</time>
      </trkpt>
      <trkpt lat="49.14876" lon="0.18891">
        <ele>144.4</ele>
        <time>2024-03-10T10:09:56Z</time>
      </trkpt>
      <trkpt lat="49.14879" lon="0.18885">
        <ele>144.5</ele>
        <time>2024-03-10T10:09:57Z</time>
      </trkpt>
      <trkpt lat="49.14882" lon="0.18879">
        <ele>144.5</ele>
        <time>2024-03-10T10:09:58Z</time>
      </trkpt>
      <trkpt lat="49.14886" lon="0.18872">
        <ele>144.6</ele>
        <time>2024-03-10T10:09:59Z</time>
      </trkpt>
      <trkpt lat="49.14889" lon="0.18865">
        <ele>144.7</ele>
        <time>2024-03-10T10:10:00Z</time>
      </trkpt>
      <trkpt lat="49.14893" lon="0.18858">
        <ele>144.8</ele>
        <time>2024-03-10T10:10:01Z</time>
      </trkpt>
      <trkpt lat="49.14897" lon="0.18851">
        <ele>144.9</ele>
        <time>2024-03-10T10:10:02Z</time>
      </trkpt>
      <trkpt lat="49.149" lon="0.18844">
        <ele>145</ele>
        <time>2024-03-10T10:10:03Z</time>
      </trkpt>
      <trkpt lat="49.14904" lon="0.18837">
        <ele>145</ele>
        <time>2024-03-10T10:10:04Z</time>
      </trkpt>
      <trkpt lat="49.14907" lon="0.1883">
        <ele>145.1</ele>
        <time>2024-03-10T10:10:05Z</time>
      </trkpt>
      <trkpt lat="49.1491" lon="0.18823">
        <ele>145.2</ele>
        <time>2024-03-10T10:10:06Z</time>
      </trkpt>
      <trkpt lat="49.14913" lon="0.18816">
        <ele>145.2</ele>
        <time>2024-03-10T10:10:07Z</time>
      </trkpt>
      <trkpt lat="49.14917" lon="0.18808">
        <ele>145.3</ele>
        <time>2024-03-10T10:10:08Z</time>
      </trkpt>
      <trkpt lat="49.1492" lon="0.18801">
        <ele>145.3</ele>
        <time>2024-03-10T10:10:09Z</time>
      </trkpt>
      <trkpt lat="49.14924" lon="0.18793">
        <ele>145.4</ele>
        <time>2024-03-10T10:10:10Z</time>
      </trkpt>
      <trkpt lat="49.14926" lon="0.18784">
        <ele>145.5</ele>
        <time>2024-03-10T10:10:11Z</time>
      </trkpt>
      <trkpt lat="49.14928" lon="0.18776">
        <ele>145.5</ele>
        <time>2024-03-10T10:10:12Z</time>
      </trkpt>
      <trkpt lat="49.14929" lon="0.18766">
        <ele>145.6</ele>
        <time>2024-03-10T10:10:13Z</time>
      </trkpt>
      <trkpt lat="49.1493" lon="0.18756">
        <ele>145.7</ele>
        <time>2024-03-10T10:10:14Z</time>
      </trkpt>
      <trkpt lat="49.14931" lon="0.18746">
        <ele>145.8</ele>
        <time>2024-03-10T10:10:15Z</time>
      </trkpt>
      <trkpt lat="49.14932" lon="0.18736">
        <ele>145.8</ele>
        <time>2024-03-10T10:10:16Z</time>
      </trkpt>
      <trkpt lat="49.14932" lon="0.18726">
        <ele>145.9</ele>
        <time>2024-03-10T10:10:17Z</time>
      </trkpt>
      <trkpt lat="49.14933" lon="0.18716">
        <ele>145.9</ele>
        <time>2024-03-10T10:10:18Z</time>
      </trkpt>
      <trkpt lat="49.14933" lon="0.18707">
        <ele>145.9</ele>
        <time>2024-03-10T10:10:19Z</time>
      </trkpt>
      <trkpt lat="49.14934" lon="0.18697">
        <ele>145.9</ele>
        <time>2024-03-10T10:10:20Z</time>
      </trkpt>
      <trkpt lat="49.14934" lon="0.18687">
        <ele>146</ele>
        <time>2024-03-10T10:10:21Z</time>
      </trkpt>
      <trkpt lat="49.14934" lon="0.18677">
        <ele>146</ele>
        <time>2024-03-10T10:10:22Z</time>
      </trkpt>
      <trkpt lat="49.14934" lon="0.18668">
        <ele>146</ele>
        <time>2024-03-10T10:10:23Z</time>
      </trkpt>
      <trkpt lat="49.14934" lon="0.18658">
        <ele>146</ele>
        <time>2024-03-10T10:10:24Z</time>
      </trkpt>
      <trkpt lat="49.14934" lon="0.18648">
        <ele>146</ele>
        <time>2024-03-10T10:10:25Z</time>
      </trkpt>
      <trkpt lat="49.14933" lon="0.18638">
        <ele>146.1</ele>
        <time>2024-03-10T10:10:26Z</time>
      </trkpt>
      <trkpt lat="49.14932" lon="0.18628">
        <ele>146.1</ele>
        <time>2024-03-10T10:10:27Z</time>
      </trkpt>
      <trkpt lat="49.14932" lon="0.18617">
        <ele>146.1</ele>
        <time>2024-03-10T10:10:28Z</time>
      </trkpt>
      <trkpt lat="49.14932" lon="0.18606">
        <ele>146.2</ele>
        <time>2024-03-10T10:10:29Z</time>
      </trkpt>
      <trkpt lat="49.14931" lon="0.18595">
        <ele>146.2</ele>
        <time>2024-03-10T10:10:30Z</time>
      </trkpt>
      <trkpt lat="49.14931" lon="0.18584">
        <ele>146.3</ele>
        <time>2024-03-10T10:10:31Z</time>
      </trkpt>
      <trkpt lat="49.1493" lon="0.18574">
        <ele>146.3</ele>
        <time>2024-03-10T10:10:32Z</time>
      </trkpt>
      <trkpt lat="49.1493" lon="0.18563">
        <ele>146.4</ele>
        <time>2024-03-10T10:10:33Z</time>
      </trkpt>
      <trkpt lat="49.14929" lon="0.18552">
        <ele>146.4</ele>
        <time>2024-03-10T10:10:34Z</time>
      </trkpt>
      <trkpt lat="49.14928" lon="0.18542">
        <ele>146.5</ele>
        <time>2024-03-10T10:10:35Z</time>
      </trkpt>
      <trkpt lat="49.14927" lon="0.18531">
        <ele>146.5</ele>
        <time>2024-03-10T10:10:36Z</time>
      </trkpt>
      <trkpt lat="49.14927" lon="0.18521">
        <ele>146.6</ele>
        <time>2024-03-10T10:10:37Z</time>
      </trkpt>
      <trkpt lat="49.14926" lon="0.18511">
        <ele>146.6</ele>
        <time>2024-03-10T10:10:38Z</time>
      </trkpt>
      <trkpt lat="49.14926" lon="0.18501">
        <ele>146.7</ele>
        <time>2024-03-10T10:10:39Z</time>
      </trkpt>
      <trkpt lat="49.14926" lon="0.18491">
        <ele>146.7</ele>
        <time>2024-03-10T10:10:40Z</time>
      </trkpt>
      <trkpt lat="49.14926" lon="0.1848">
        <ele>146.8</ele>
        <time>2024-03-10T10:10:41Z</time>
      </trkpt>
      <trkpt lat="49.14925" lon="0.1847">
        <ele>146.9</ele>
        <time>2024-03-10T10:10:42Z</time>
      </trkpt>
      <trkpt lat="49.14925" lon="0.1846">
        <ele>146.9</ele>
        <time>2024-03-10T10:10:43Z</time>
      </trkpt>
      <trkpt lat="49.14924" lon="0.1845">
        <ele>146.9</ele>
        <time>2024-03-10T10:10:44Z</time>
      </trkpt>
      <trkpt lat="49.14925" lon="0.1844">
        <ele>147</ele>
        <time>2024-03-10T10:10:45Z</time>
      </trkpt>
      <trkpt lat="49.14925" lon="0.18429">
        <ele>147</ele>
        <time>2024-03-10T10:10:46Z</time>
      </trkpt>
      <trkpt lat="49.14925" lon="0.18419">
        <ele>147.1</ele>
        <time>2024-03-10T10:10:47Z</time>
      </trkpt>
      <trkpt lat="49.14925" lon="0.18409">
        <ele>147.1</ele>
        <time>2024-03-10T10:10:48Z</time>
      </trkpt>
      <trkpt lat="49.14925" lon="0.18399">
        <ele>147.2</ele>
        <time>2024-03-10T10:10:49Z</time>
      </trkpt>
      <trkpt lat="49.14925" lon="0.18388">
        <ele>147.3</ele>
        <time>2024-03-10T10:10:50Z</time>
      </trkpt>
      <trkpt lat="49.14926" lon="0.18379">
        <ele>147.4</ele>
        <time>2024-03-10T10:10:51Z</time>
      </trkpt>
      <trkpt lat="49.14926" lon="0.18369">
        <ele>147.5</ele>
        <time>2024-03-10T10:10:52Z</time>
      </trkpt>
      <trkpt lat="49.14926" lon="0.18359">
        <ele>147.6</ele>
        <time>2024-03-10T10:10:53Z</time>
      </trkpt>
      <trkpt lat="49.14926" lon="0.18349">
        <ele>147.7</ele>
        <time>2024-03-10T10:10:54Z</time>
      </trkpt>
      <trkpt lat="49.14927" lon="0.1834">
        <ele>147.7</ele>
        <time>2024-03-10T10:10:55Z</time>
      </trkpt>
      <trkpt lat="49.14927" lon="0.18331">
        <ele>147.8</ele>
        <time>2024-03-10T10:10:56Z</time>
      </trkpt>
      <trkpt lat="49.14928" lon="0.18321">
        <ele>147.9</ele>
        <time>2024-03-10T10:10:57Z</time>
      </trkpt>
      <trkpt lat="49.14928" lon="0.1831">
        <ele>148</ele>
        <time>2024-03-10T10:10:58Z</time>
      </trkpt>
      <trkpt lat="49.14929" lon="0.183">
        <ele>148.1</ele>
        <time>2024-03-10T10:10:59Z</time>
      </trkpt>
      <trkpt lat="49.1493" lon="0.18291">
        <ele>148.3</ele>
        <time>2024-03-10T10:11:00Z</time>
      </trkpt>
      <trkpt lat="49.1493" lon="0.18281">
        <ele>148.4</ele>
        <time>2024-03-10T10:11:01Z</time>
      </trkpt>
      <trkpt lat="49.14931" lon="0.18272">
        <ele>148.5</ele>
        <time>2024-03-10T10:11:02Z</time>
      </trkpt>
      <trkpt lat="49.14931" lon="0.18262">
        <ele>148.6</ele>
        <time>2024-03-10T10:11:03Z</time>
      </trkpt>
      <trkpt lat="49.14931" lon="0.18253">
        <ele>148.8</ele>
        <time>2024-03-10T10:11:04Z</time>
      </trkpt>
      <trkpt lat="49.14932" lon="0.18244">
        <ele>148.9</ele>
        <time>2024-03-10T10:11:05Z</time>
      </trkpt>
      <trkpt lat="49.14933" lon="0.18235">
        <ele>149.1</ele>
        <time>2024-03-10T10:11:06Z</time>
      </trkpt>
      <trkpt lat="49.14934" lon="0.18227">
        <ele>149.2</ele>
        <time>2024-03-10T10:11:07Z</time>
      </trkpt>
      <trkpt lat="49.14936" lon="0.18218">
        <ele>149.4</ele>
        <time>2024-03-10T10:11:08Z</time>
      </trkpt>
      <trkpt lat="49.14938" lon="0.1821">
        <ele>149.6</ele>
        <time>2024-03-10T10:11:09Z</time>
      </trkpt>
      <trkpt lat="49.14939" lon="0.18201">
        <ele>149.8</ele>
        <time>2024-03-10T10:11:10Z</time>
      </trkpt>
      <trkpt lat="49.14941" lon="0.18194">
        <ele>150.1</ele>
        <time>2024-03-10T10:11:11Z</time>
      </trkpt>
      <trkpt lat="49.14943" lon="0.18186">
        <ele>150.3</ele>
        <time>2024-03-10T10:11:12Z</time>
      </trkpt>
      <trkpt lat="49.14945" lon="0.18179">
        <ele>150.5</ele>
        <time>2024-03-10T10:11:13Z</time>
      </trkpt>
      <trkpt lat="49.14947" lon="0.18173">
        <ele>150.8</ele>
        <time>2024-03-10T10:11:14Z</time>
      </trkpt>
      <trkpt lat="49.14949" lon="0.18166">
        <ele>151</ele>
        <time>2024-03-10T10:11:15Z</time>
      </trkpt>
      <trkpt lat="49.1495" lon="0.1816">
        <ele>151.2</ele>
        <time>2024-03-10T10:11:16Z</time>
      </trkpt>
      <trkpt lat="49.14952" lon="0.18154">
        <ele>151.5</ele>
        <time>2024-03-10T10:11:17Z</time>
      </trkpt>
      <trkpt lat="49.14954" lon="0.18148">
        <ele>151.7</ele>
        <time>2024-03-10T10:11:18Z</time>
      </trkpt>
      <trkpt lat="49.14956" lon="0.18142">
        <ele>151.9</ele>
        <time>2024-03-10T10:11:19Z</time>
      </trkpt>
      <trkpt lat="49.14957" lon="0.18137">
        <ele>152.1</ele>
        <time>2024-03-10T10:11:20Z</time>
      </trkpt>
      <trkpt lat="49.14959" lon="0.18131">
        <ele>152.4</ele>
        <time>2024-03-10T10:11:21Z</time>
      </trkpt>
      <trkpt lat="49.1496" lon="0.18125">
        <ele>152.6</ele>
        <time>2024-03-10T10:11:22Z</time>
      </trkpt>
      <trkpt lat="49.14961" lon="0.1812">
        <ele>152.8</ele>
        <time>2024-03-10T10:11:23Z</time>
      </trkpt>
      <trkpt lat="49.14964" lon="0.18113">
        <ele>153.1</ele>
        <time>2024-03-10T10:11:24Z</time>
      </trkpt>
      <trkpt lat="49.14966" lon="0.18105">
        <ele>153.4</ele>
        <time>2024-03-10T10:11:25Z</time>
      </trkpt>
      <trkpt lat="49.14968" lon="0.18098">
        <ele>153.7</ele>
        <time>2024-03-10T10:11:26Z</time>
      </trkpt>
      <trkpt lat="49.14971" lon="0.18091">
        <ele>154</ele>
        <time>2024-03-10T10:11:27Z</time>
      </trkpt>
      <trkpt lat="49.14973" lon="0.18086">
        <ele>154.2</ele>
        <time>2024-03-10T10:11:28Z</time>
      </trkpt>
      <trkpt lat="49.14976" lon="0.1808">
        <ele>154.5</ele>
        <time>2024-03-10T10:11:29Z</time>
      </trkpt>
      <trkpt lat="49.14978" lon="0.18074">
        <ele>154.7</ele>
        <time>2024-03-10T10:11:30Z</time>
      </trkpt>
      <trkpt lat="49.1498" lon="0.18069">
        <ele>155</ele>
        <time>2024-03-10T10:11:31Z</time>
      </trkpt>
      <trkpt lat="49.14982" lon="0.18063">
        <ele>155.2</ele>
        <time>2024-03-10T10:11:32Z</time>
      </trkpt>
      <trkpt lat="49.14984" lon="0.18057">
        <ele>155.4</ele>
        <time>2024-03-10T10:11:33Z</time>
      </trkpt>
      <trkpt lat="49.14986" lon="0.1805">
        <ele>155.7</ele>
        <time>2024-03-10T10:11:34Z</time>
      </trkpt>
      <trkpt lat="49.14988" lon="0.18045">
        <ele>155.9</ele>
        <time>2024-03-10T10:11:35Z</time>
      </trkpt>
      <trkpt lat="49.1499" lon="0.1804">
        <ele>156.1</ele>
        <time>2024-03-10T10:11:36Z</time>
      </trkpt>
      <trkpt lat="49.14991" lon="0.18036">
        <ele>156.3</ele>
        <time>2024-03-10T10:11:37Z</time>
      </trkpt>
      <trkpt lat="49.14993" lon="0.18032">
        <ele>156.4</ele>
        <time>2024-03-10T10:11:38Z</time>
      </trkpt>
      <trkpt lat="49.14994" lon="0.18027">
        <ele>156.6</ele>
        <time>2024-03-10T10:11:39Z</time>
      </trkpt>
      <trkpt lat="49.14995" lon="0.18022">
        <ele>156.7</ele>
        <time>2024-03-10T10:11:40Z</time>
      </trkpt>
      <trkpt lat="49.14997" lon="0.18017">
        <ele>156.9</ele>
        <time>2024-03-10T10:11:41Z</time>
      </trkpt>
      <trkpt lat="49.14999" lon="0.18012">
        <ele>157.1</ele>
        <time>2024-03-10T10:11:42Z</time>
      </trkpt>
      <trkpt lat="49.15" lon="0.18007">
        <ele>157.2</ele>
        <time>2024-03-10T10:11:43Z</time>
      </trkpt>
      <trkpt lat="49.15002" lon="0.18002">
        <ele>157.4</ele>
        <time>2024-03-10T10:11:44Z</time>
      </trkpt>
      <trkpt lat="49.15004" lon="0.17996">
        <ele>157.5</ele>
        <time>2024-03-10T10:11:45Z</time>
      </trkpt>
      <trkpt lat="49.15006" lon="0.1799">
        <ele>157.7</ele>
        <time>2024-03-10T10:11:46Z</time>
      </trkpt>
      <trkpt lat="49.15008" lon="0.17985">
        <ele>157.8</ele>
        <time>2024-03-10T10:11:47Z</time>
      </trkpt>
      <trkpt lat="49.1501" lon="0.17979">
        <ele>158</ele>
        <time>2024-03-10T10:11:48Z</time>
      </trkpt>
      <trkpt lat="49.15012" lon="0.17972">
        <ele>158.1</ele>
        <time>2024-03-10T10:11:49Z</time>
      </trkpt>
      <trkpt lat="49.15014" lon="0.17965">
        <ele>158.3</ele>
        <time>2024-03-10T10:11:50Z</time>
      </trkpt>
      <trkpt lat="49.15016" lon="0.17957">
        <ele>158.5</ele>
        <time>2024-03-10T10:11:51Z</time>
      </trkpt>
      <trkpt lat="49.15018" lon="0.17948">
        <ele>158.6</ele>
        <time>2024-03-10T10:11:52Z</time>
      </trkpt>
      <trkpt lat="49.15021" lon="0.1794">
        <ele>158.7</ele>
        <time>2024-03-10T10:11:53Z</time>
      </trkpt>
      <trkpt lat="49.15023" lon="0.17932">
        <ele>158.9</ele>
        <time>2024-03-10T10:11:54Z</time>
      </trkpt>
      <trkpt lat="49.15025" lon="0.17924">
        <ele>159</ele>
        <time>2024-03-10T10:11:55Z</time>
      </trkpt>
      <trkpt lat="49.15027" lon="0.17916">
        <ele>159</ele>
        <time>2024-03-10T10:11:56Z</time>
      </trkpt>
      <trkpt lat="49.1503" lon="0.17908">
        <ele>159.1</ele>
        <time>2024-03-10T10:11:57Z</time>
      </trkpt>
      <trkpt lat="49.15032" lon="0.17901">
        <ele>159.2</ele>
        <time>2024-03-10T10:11:58Z</time>
      </trkpt>
      <trkpt lat="49.15034" lon="0.17893">
        <ele>159.2</ele>
        <time>2024-03-10T10:11:59Z</time>
      </trkpt>
      <trkpt lat="49.15037" lon="0.17885">
        <ele>159.3</ele>
        <time>2024-03-10T10:12:00Z</time>
      </trkpt>
      <trkpt lat="49.15039" lon="0.17877">
        <ele>159.4</ele>
        <time>2024-03-10T10:12:01Z</time>
      </trkpt>
      <trkpt lat="49.15042" lon="0.1787">
        <ele>159.4</ele>
        <time>2024-03-10T10:12:02Z</time>
      </trkpt>
      <trkpt lat="49.15044" lon="0.17863">
        <ele>159.5</ele>
        <time>2024-03-10T10:12:03Z</time>
      </trkpt>
      <trkpt lat="49.15047" lon="0.17857">
        <ele>159.5</ele>
        <time>2024-03-10T10:12:04Z</time>
      </trkpt>
      <trkpt lat="49.15049" lon="0.17851">
        <ele>159.6</ele>
        <time>2024-03-10T10:12:05Z</time>
      </trkpt>
      <trkpt lat="49.15052" lon="0.17845">
        <ele>159.6</ele>
        <time>2024-03-10T10:12:06Z</time>
      </trkpt>
      <trkpt lat="49.15055" lon="0.17838">
        <ele>159.7</ele>
        <time>2024-03-10T10:12:07Z</time>
      </trkpt>
      <trkpt lat="49.15058" lon="0.17832">
        <ele>159.7</ele>
        <time>2024-03-10T10:12:08Z</time>
      </trkpt>
      <trkpt lat="49.15061" lon="0.17826">
        <ele>159.7</ele>
        <time>2024-03-10T10:12:09Z</time>
      </trkpt>
      <trkpt lat="49.15065" lon="0.1782">
        <ele>159.7</ele>
        <time>2024-03-10T10:12:10Z</time>
      </trkpt>
      <trkpt lat="49.15069" lon="0.17813">
        <ele>159.7</ele>
        <time>2024-03-10T10:12:11Z</time>
      </trkpt>
      <trkpt lat="49.15074" lon="0.17807">
        <ele>159.7</ele>
        <time>2024-03-10T10:12:12Z</time>
      </trkpt>
      <trkpt lat="49.15078" lon="0.17801">
        <ele>159.8</ele>
        <time>2024-03-10T10:12:13Z</time>
      </trkpt>
      <trkpt lat="49.15081" lon="0.17795">
        <ele>159.8</ele>
        <time>2024-03-10T10:12:14Z</time>
      </trkpt>
      <trkpt lat="49.15085" lon="0.17789">
        <ele>159.8</ele>
        <time>2024-03-10T10:12:15Z</time>
      </trkpt>
      <trkpt lat="49.15089" lon="0.17782">
        <ele>159.8</ele>
        <time>2024-03-10T10:12:16Z</time>
      </trkpt>
      <trkpt lat="49.15093" lon="0.17776">
        <ele>159.8</ele>
        <time>2024-03-10T10:12:17Z</time>
      </trkpt>
      <trkpt lat="49.15097" lon="0.17769">
        <ele>159.8</ele>
        <time>2024-03-10T10:12:18Z</time>
      </trkpt>
      <trkpt lat="49.15101" lon="0.17762">
        <ele>159.8</ele>
        <time>2024-03-10T10:12:19Z</time>
      </trkpt>
      <trkpt lat="49.15105" lon="0.17755">
        <ele>159.8</ele>
        <time>2024-03-10T10:12:20Z</time>
      </trkpt>
      <trkpt lat="49.15109" lon="0.17748">
        <ele>159.8</ele>
        <time>2024-03-10T10:12:21Z</time>
      </trkpt>
      <trkpt lat="49.15114" lon="0.1774">
        <ele>159.7</ele>
        <time>2024-03-10T10:12:22Z</time>
      </trkpt>
      <trkpt lat="49.15119" lon="0.17733">
        <ele>159.7</ele>
        <time>2024-03-10T10:12:23Z</time>
      </trkpt>
      <trkpt lat="49.15123" lon="0.17726">
        <ele>159.6</ele>
        <time>2024-03-10T10:12:24Z</time>
      </trkpt>
      <trkpt lat="49.15128" lon="0.17718">
        <ele>159.6</ele>
        <time>2024-03-10T10:12:25Z</time>
      </trkpt>
      <trkpt lat="49.15133" lon="0.17711">
        <ele>159.5</ele>
        <time>2024-03-10T10:12:26Z</time>
      </trkpt>
      <trkpt lat="49.15138" lon="0.17704">
        <ele>159.4</ele>
        <time>2024-03-10T10:12:27Z</time>
      </trkpt>
      <trkpt lat="49.15143" lon="0.17696">
        <ele>159.3</ele>
        <time>2024-03-10T10:12:28Z</time>
      </trkpt>
      <trkpt lat="49.15148" lon="0.17689">
        <ele>159.1</ele>
        <time>2024-03-10T10:12:29Z</time>
      </trkpt>
      <trkpt lat="49.15153" lon="0.17681">
        <ele>159</ele>
        <time>2024-03-10T10:12:30Z</time>
      </trkpt>
      <trkpt lat="49.15159" lon="0.17673">
        <ele>158.9</ele>
        <time>2024-03-10T10:12:31Z</time>
      </trkpt>
      <trkpt lat="49.15165" lon="0.17665">
        <ele>158.7</ele>
        <time>2024-03-10T10:12:32Z</time>
      </trkpt>
      <trkpt lat="49.1517" lon="0.17656">
        <ele>158.5</ele>
        <time>2024-03-10T10:12:33Z</time>
      </trkpt>
      <trkpt lat="49.15176" lon="0.17646">
        <ele>158.3</ele>
        <time>2024-03-10T10:12:34Z</time>
      </trkpt>
      <trkpt lat="49.1518" lon="0.17637">
        <ele>158.1</ele>
        <time>2024-03-10T10:12:35Z</time>
      </trkpt>
      <trkpt lat="49.15185" lon="0.17627">
        <ele>157.8</ele>
        <time>2024-03-10T10:12:36Z</time>
      </trkpt>
      <trkpt lat="49.15189" lon="0.17616">
        <ele>157.6</ele>
        <time>2024-03-10T10:12:37Z</time>
      </trkpt>
      <trkpt lat="49.15192" lon="0.17606">
        <ele>157.4</ele>
        <time>2024-03-10T10:12:38Z</time>
      </trkpt>
      <trkpt lat="49.15196" lon="0.17595">
        <ele>157.1</ele>
        <time>2024-03-10T10:12:39Z</time>
      </trkpt>
      <trkpt lat="49.15199" lon="0.17585">
        <ele>156.9</ele>
        <time>2024-03-10T10:12:40Z</time>
      </trkpt>
      <trkpt lat="49.15201" lon="0.17573">
        <ele>156.7</ele>
        <time>2024-03-10T10:12:41Z</time>
      </trkpt>
      <trkpt lat="49.15203" lon="0.1756">
        <ele>156.6</ele>
        <time>2024-03-10T10:12:42Z</time>
      </trkpt>
      <trkpt lat="49.15205" lon="0.17548">
        <ele>156.4</ele>
        <time>2024-03-10T10:12:43Z</time>
      </trkpt>
      <trkpt lat="49.15206" lon="0.17536">
        <ele>156.2</ele>
        <time>2024-03-10T10:12:44Z</time>
      </trkpt>
      <trkpt lat="49.15208" lon="0.17523">
        <ele>156.1</ele>
        <time>2024-03-10T10:12:45Z</time>
      </trkpt>
      <trkpt lat="49.1521" lon="0.17511">
        <ele>155.8</ele>
        <time>2024-03-10T10:12:46Z</time>
      </trkpt>
      <trkpt lat="49.15212" lon="0.17499">
        <ele>155.6</ele>
        <time>2024-03-10T10:12:47Z</time>
      </trkpt>
      <trkpt lat="49.15214" lon="0.17487">
        <ele>155.4</ele>
        <time>2024-03-10T10:12:48Z</time>
      </trkpt>
      <trkpt lat="49.15216" lon="0.17474">
        <ele>155.1</ele>
        <time>2024-03-10T10:12:49Z</time>
      </trkpt>
      <trkpt lat="49.15217" lon="0.17462">
        <ele>154.9</ele>
        <time>2024-03-10T10:12:50Z</time>
      </trkpt>
      <trkpt lat="49.1522" lon="0.17449">
        <ele>154.6</ele>
        <time>2024-03-10T10:12:51Z</time>
      </trkpt>
      <trkpt lat="49.15221" lon="0.17436">
        <ele>154.3</ele>
        <time>2024-03-10T10:12:52Z</time>
      </trkpt>
      <trkpt lat="49.15223" lon="0.17424">
        <ele>154.1</ele>
        <time>2024-03-10T10:12:53Z</time>
      </trkpt>
      <trkpt lat="49.15225" lon="0.17411">
        <ele>153.8</ele>
        <time>2024-03-10T10:12:54Z</time>
      </trkpt>
      <trkpt lat="49.15227" lon="0.17399">
        <ele>153.5</ele>
        <time>2024-03-10T10:12:55Z</time>
      </trkpt>
      <trkpt lat="49.15228" lon="0.17386">
        <ele>153.2</ele>
        <time>2024-03-10T10:12:56Z</time>
      </trkpt>
      <trkpt lat="49.15229" lon="0.17373">
        <ele>152.9</ele>
        <time>2024-03-10T10:12:57Z</time>
      </trkpt>
      <trkpt lat="49.15231" lon="0.1736">
        <ele>152.6</ele>
        <time>2024-03-10T10:12:58Z</time>
      </trkpt>
      <trkpt lat="49.15232" lon="0.17347">
        <ele>152.3</ele>
        <time>2024-03-10T10:12:59Z</time>
      </trkpt>
      <trkpt lat="49.15233" lon="0.17334">
        <ele>152</ele>
        <time>2024-03-10T10:13:00Z</time>
      </trkpt>
      <trkpt lat="49.15235" lon="0.17321">
        <ele>151.7</ele>
        <time>2024-03-10T10:13:01Z</time>
      </trkpt>
      <trkpt lat="49.15236" lon="0.17308">
        <ele>151.3</ele>
        <time>2024-03-10T10:13:02Z</time>
      </trkpt>
      <trkpt lat="49.15237" lon="0.17294">
        <ele>150.9</ele>
        <time>2024-03-10T10:13:03Z</time>
      </trkpt>
      <trkpt lat="49.15239" lon="0.17281">
        <ele>150.5</ele>
        <time>2024-03-10T10:13:04Z</time>
      </trkpt>
      <trkpt lat="49.1524" lon="0.17267">
        <ele>150</ele>
        <time>2024-03-10T10:13:05Z</time>
      </trkpt>
      <trkpt lat="49.15241" lon="0.17253">
        <ele>149.6</ele>
        <time>2024-03-10T10:13:06Z</time>
      </trkpt>
      <trkpt lat="49.15242" lon="0.17238">
        <ele>149.1</ele>
        <time>2024-03-10T10:13:07Z</time>
      </trkpt>
      <trkpt lat="49.15243" lon="0.17224">
        <ele>148.7</ele>
        <time>2024-03-10T10:13:08Z</time>
      </trkpt>
      <trkpt lat="49.15244" lon="0.17208">
        <ele>148.2</ele>
        <time>2024-03-10T10:13:09Z</time>
      </trkpt>
      <trkpt lat="49.15246" lon="0.17193">
        <ele>147.8</ele>
        <time>2024-03-10T10:13:10Z</time>
      </trkpt>
      <trkpt lat="49.15246" lon="0.17178">
        <ele>147.3</ele>
        <time>2024-03-10T10:13:11Z</time>
      </trkpt>
      <trkpt lat="49.15247" lon="0.17163">
        <ele>146.8</ele>
        <time>2024-03-10T10:13:12Z</time>
      </trkpt>
      <trkpt lat="49.15247" lon="0.17148">
        <ele>146.4</ele>
        <time>2024-03-10T10:13:13Z</time>
      </trkpt>
      <trkpt lat="49.15247" lon="0.17133">
        <ele>146.2</ele>
        <time>2024-03-10T10:13:14Z</time>
      </trkpt>
      <trkpt lat="49.15247" lon="0.17118">
        <ele>146.2</ele>
        <time>2024-03-10T10:13:15Z</time>
      </trkpt>
      <trkpt lat="49.15246" lon="0.17104">
        <ele>146.3</ele>
        <time>2024-03-10T10:13:16Z</time>
      </trkpt>
      <trkpt lat="49.15246" lon="0.1709">
        <ele>146.5</ele>
        <time>2024-03-10T10:13:17Z</time>
      </trkpt>
      <trkpt lat="49.15244" lon="0.17078">
        <ele>146.7</ele>
        <time>2024-03-10T10:13:18Z</time>
      </trkpt>
      <trkpt lat="49.15243" lon="0.17065">
        <ele>147</ele>
        <time>2024-03-10T10:13:19Z</time>
      </trkpt>
      <trkpt lat="49.15242" lon="0.17053">
        <ele>147.4</ele>
        <time>2024-03-10T10:13:20Z</time>
      </trkpt>
      <trkpt lat="49.15241" lon="0.17042">
        <ele>147.8</ele>
        <time>2024-03-10T10:13:21Z</time>
      </trkpt>
      <trkpt lat="49.1524" lon="0.1703">
        <ele>148.2</ele>
        <time>2024-03-10T10:13:22Z</time>
      </trkpt>
      <trkpt lat="49.15239" lon="0.1702">
        <ele>148.5</ele>
        <time>2024-03-10T10:13:23Z</time>
      </trkpt>
      <trkpt lat="49.15238" lon="0.17009">
        <ele>148.9</ele>
        <time>2024-03-10T10:13:24Z</time>
      </trkpt>
      <trkpt lat="49.15237" lon="0.16999">
        <ele>149.3</ele>
        <time>2024-03-10T10:13:25Z</time>
      </trkpt>
      <trkpt lat="49.15236" lon="0.16989">
        <ele>149.6</ele>
        <time>2024-03-10T10:13:26Z</time>
      </trkpt>
      <trkpt lat="49.15235" lon="0.16979">
        <ele>150</ele>
        <time>2024-03-10T10:13:27Z</time>
      </trkpt>
      <trkpt lat="49.15234" lon="0.16969">
        <ele>150.3</ele>
        <time>2024-03-10T10:13:28Z</time>
      </trkpt>
      <trkpt lat="49.15232" lon="0.16959">
        <ele>150.6</ele>
        <time>2024-03-10T10:13:29Z</time>
      </trkpt>
      <trkpt lat="49.15231" lon="0.1695">
        <ele>151</ele>
        <time>2024-03-10T10:13:30Z</time>
      </trkpt>
      <trkpt lat="49.1523" lon="0.1694">
        <ele>151.3</ele>
        <time>2024-03-10T10:13:31Z</time>
      </trkpt>
      <trkpt lat="49.1523" lon="0.16931">
        <ele>151.5</ele>
        <time>2024-03-10T10:13:32Z</time>
      </trkpt>
      <trkpt lat="49.15229" lon="0.16921">
        <ele>151.8</ele>
        <time>2024-03-10T10:13:33Z</time>
      </trkpt>
      <trkpt lat="49.15229" lon="0.16912">
        <ele>152</ele>
        <time>2024-03-10T10:13:34Z</time>
      </trkpt>
      <trkpt lat="49.15228" lon="0.16902">
        <ele>152.2</ele>
        <time>2024-03-10T10:13:35Z</time>
      </trkpt>
      <trkpt lat="49.15227" lon="0.16893">
        <ele>152.3</ele>
        <time>2024-03-10T10:13:36Z</time>
      </trkpt>
      <trkpt lat="49.15227" lon="0.16884">
        <ele>152.5</ele>
        <time>2024-03-10T10:13:37Z</time>
      </trkpt>
      <trkpt lat="49.15227" lon="0.16876">
        <ele>152.6</ele>
        <time>2024-03-10T10:13:38Z</time>
      </trkpt>
      <trkpt lat="49.15227" lon="0.16868">
        <ele>152.7</ele>
        <time>2024-03-10T10:13:39Z</time>
      </trkpt>
      <trkpt lat="49.15227" lon="0.16861">
        <ele>152.7</ele>
        <time>2024-03-10T10:13:40Z</time>
      </trkpt>
      <trkpt lat="49.15226" lon="0.16856">
        <ele>152.8</ele>
        <time>2024-03-10T10:13:41Z</time>
      </trkpt>
      <trkpt lat="49.15226" lon="0.1685">
        <ele>152.8</ele>
        <time>2024-03-10T10:13:42Z</time>
      </trkpt>
      <trkpt lat="49.15226" lon="0.16849">
        <ele>152.8</ele>
        <time>2024-03-10T10:13:43Z</time>
      </trkpt>
      <trkpt lat="49.15225" lon="0.16846">
        <ele>152.8</ele>
        <time>2024-03-10T10:13:44Z</time>
      </trkpt>
      <trkpt lat="49.15225" lon="0.16845">
        <ele>152.9</ele>
        <time>2024-03-10T10:13:45Z</time>
      </trkpt>
      <trkpt lat="49.15226" lon="0.16844">
        <ele>152.9</ele>
        <time>2024-03-10T10:13:46Z</time>
      </trkpt>
      <trkpt lat="49.15226" lon="0.16843">
        <ele>152.8</ele>
        <time>2024-03-10T10:13:47Z</time>
      </trkpt>
      <trkpt lat="49.15226" lon="0.16842">
        <ele>152.8</ele>
        <time>2024-03-10T10:13:48Z</time>
      </trkpt>
      <trkpt lat="49.15226" lon="0.16842">
        <ele>152.8</ele>
        <time>2024-03-10T10:13:49Z</time>
      </trkpt>
      <trkpt lat="49.15226" lon="0.16842">
        <ele>152.8</ele>
        <time>2024-03-10T10:13:50Z</time>
      </trkpt>
      <trkpt lat="49.15226" lon="0.16841">
        <ele>152.8</ele>
        <time>2024-03-10T10:13:51Z</time>
      </trkpt>
      <trkpt lat="49.15227" lon="0.16839">
        <ele>152.8</ele>
        <time>2024-03-10T10:13:52Z</time>
      </trkpt>
      <trkpt lat="49.15229" lon="0.16837">
        <ele>152.8</ele>
        <time>2024-03-10T10:13:53Z</time>
      </trkpt>
      <trkpt lat="49.15231" lon="0.16833">
        <ele>152.7</ele>
        <time>2024-03-10T10:13:54Z</time>
      </trkpt>
      <trkpt lat="49.15231" lon="0.16831">
        <ele>152.7</ele>
        <time>2024-03-10T10:13:55Z</time>
      </trkpt>
      <trkpt lat="49.15232" lon="0.16826">
        <ele>152.7</ele>
        <time>2024-03-10T10:13:56Z</time>
      </trkpt>
      <trkpt lat="49.15233" lon="0.16824">
        <ele>152.6</ele>
        <time>2024-03-10T10:13:57Z</time>
      </trkpt>
      <trkpt lat="49.15234" lon="0.16819">
        <ele>152.6</ele>
        <time>2024-03-10T10:13:58Z</time>
      </trkpt>
      <trkpt lat="49.15236" lon="0.16815">
        <ele>152.5</ele>
        <time>2024-03-10T10:13:59Z</time>
      </trkpt>
      <trkpt lat="49.15238" lon="0.16808">
        <ele>152.4</ele>
        <time>2024-03-10T10:14:00Z</time>
      </trkpt>
      <trkpt lat="49.15239" lon="0.16802">
        <ele>152.3</ele>
        <time>2024-03-10T10:14:01Z</time>
      </trkpt>
      <trkpt lat="49.15242" lon="0.16797">
        <ele>152.2</ele>
        <time>2024-03-10T10:14:02Z</time>
      </trkpt>
      <trkpt lat="49.15244" lon="0.1679">
        <ele>152.1</ele>
        <time>2024-03-10T10:14:03Z</time>
      </trkpt>
      <trkpt lat="49.15247" lon="0.16784">
        <ele>152</ele>
        <time>2024-03-10T10:14:04Z</time>
      </trkpt>
      <trkpt lat="49.15249" lon="0.16778">
        <ele>151.9</ele>
        <time>2024-03-10T10:14:05Z</time>
      </trkpt>
      <trkpt lat="49.15252" lon="0.16772">
        <ele>151.7</ele>
        <time>2024-03-10T10:14:06Z</time>
      </trkpt>
      <trkpt lat="49.15256" lon="0.16765">
        <ele>151.6</ele>
        <time>2024-03-10T10:14:07Z</time>
      </trkpt>
      <trkpt lat="49.15259" lon="0.16758">
        <ele>151.5</ele>
        <time>2024-03-10T10:14:08Z</time>
      </trkpt>
      <trkpt lat="49.15263" lon="0.16751">
        <ele>151.4</ele>
        <time>2024-03-10T10:14:09Z</time>
      </trkpt>
      <trkpt lat="49.15267" lon="0.16744">
        <ele>151.2</ele>
        <time>2024-03-10T10:14:10Z</time>
      </trkpt>
      <trkpt lat="49.15271" lon="0.16736">
        <ele>151.1</ele>
        <time>2024-03-10T10:14:11Z</time>
      </trkpt>
      <trkpt lat="49.15275" lon="0.16727">
        <ele>151</ele>
        <time>2024-03-10T10:14:12Z</time>
      </trkpt>
      <trkpt lat="49.15279" lon="0.16719">
        <ele>150.9</ele>
        <time>2024-03-10T10:14:13Z</time>
      </trkpt>
      <trkpt lat="49.15283" lon="0.1671">
        <ele>150.8</ele>
        <time>2024-03-10T10:14:14Z</time>
      </trkpt>
      <trkpt lat="49.15287" lon="0.16702">
        <ele>150.8</ele>
        <time>2024-03-10T10:14:15Z</time>
      </trkpt>
      <trkpt lat="49.15291" lon="0.16693">
        <ele>150.7</ele>
        <time>2024-03-10T10:14:16Z</time>
      </trkpt>
      <trkpt lat="49.15295" lon="0.16685">
        <ele>150.6</ele>
        <time>2024-03-10T10:14:17Z</time>
      </trkpt>
      <trkpt lat="49.15299" lon="0.16676">
        <ele>150.6</ele>
        <time>2024-03-10T10:14:18Z</time>
      </trkpt>
      <trkpt lat="49.15303" lon="0.16668">
        <ele>150.5</ele>
        <time>2024-03-10T10:14:19Z</time>
      </trkpt>
      <trkpt lat="49.15307" lon="0.16659">
        <ele>150.5</ele>
        <time>2024-03-10T10:14:20Z</time>
      </trkpt>
      <trkpt lat="49.15312" lon="0.16651">
        <ele>150.4</ele>
        <time>2024-03-10T10:14:21Z</time>
      </trkpt>
      <trkpt lat="49.15316" lon="0.16642">
        <ele>150.4</ele>
        <time>2024-03-10T10:14:22Z</time>
      </trkpt>
      <trkpt lat="49.1532" lon="0.16634">
        <ele>150.3</ele>
        <time>2024-03-10T10:14:23Z</time>
      </trkpt>
      <trkpt lat="49.15324" lon="0.16625">
        <ele>150.2</ele>
        <time>2024-03-10T10:14:24Z</time>
      </trkpt>
      <trkpt lat="49.15329" lon="0.16617">
        <ele>150.1</ele>
        <time>2024-03-10T10:14:25Z</time>
      </trkpt>
      <trkpt lat="49.15333" lon="0.16607">
        <ele>150</ele>
        <time>2024-03-10T10:14:26Z</time>
      </trkpt>
      <trkpt lat="49.15338" lon="0.16597">
        <ele>149.9</ele>
        <time>2024-03-10T10:14:27Z</time>
      </trkpt>
      <trkpt lat="49.15343" lon="0.16587">
        <ele>149.7</ele>
        <time>2024-03-10T10:14:28Z</time>
      </trkpt>
      <trkpt lat="49.15348" lon="0.16578">
        <ele>149.6</ele>
        <time>2024-03-10T10:14:29Z</time>
      </trkpt>
      <trkpt lat="49.15353" lon="0.16568">
        <ele>149.4</ele>
        <time>2024-03-10T10:14:30Z</time>
      </trkpt>
      <trkpt lat="49.15358" lon="0.16559">
        <ele>149.1</ele>
        <time>2024-03-10T10:14:31Z</time>
      </trkpt>
      <trkpt lat="49.15363" lon="0.16549">
        <ele>148.9</ele>
        <time>2024-03-10T10:14:32Z</time>
      </trkpt>
      <trkpt lat="49.15367" lon="0.16539">
        <ele>148.6</ele>
        <time>2024-03-10T10:14:33Z</time>
      </trkpt>
      <trkpt lat="49.15372" lon="0.16529">
        <ele>148.4</ele>
        <time>2024-03-10T10:14:34Z</time>
      </trkpt>
      <trkpt lat="49.15377" lon="0.16519">
        <ele>148.1</ele>
        <time>2024-03-10T10:14:35Z</time>
      </trkpt>
      <trkpt lat="49.15381" lon="0.16508">
        <ele>147.8</ele>
        <time>2024-03-10T10:14:36Z</time>
      </trkpt>
      <trkpt lat="49.15386" lon="0.16498">
        <ele>147.5</ele>
        <time>2024-03-10T10:14:37Z</time>
      </trkpt>
      <trkpt lat="49.15391" lon="0.16488">
        <ele>147.2</ele>
        <time>2024-03-10T10:14:38Z</time>
      </trkpt>
      <trkpt lat="49.15397" lon="0.16478">
        <ele>146.9</ele>
        <time>2024-03-10T10:14:39Z</time>
      </trkpt>
      <trkpt lat="49.15402" lon="0.16468">
        <ele>146.6</ele>
        <time>2024-03-10T10:14:40Z</time>
      </trkpt>
      <trkpt lat="49.15407" lon="0.16458">
        <ele>146.2</ele>
        <time>2024-03-10T10:14:41Z</time>
      </trkpt>
      <trkpt lat="49.15413" lon="0.16449">
        <ele>145.9</ele>
        <time>2024-03-10T10:14:42Z</time>
      </trkpt>
      <trkpt lat="49.15419" lon="0.1644">
        <ele>145.6</ele>
        <time>2024-03-10T10:14:43Z</time>
      </trkpt>
      <trkpt lat="49.15426" lon="0.16431">
        <ele>145.3</ele>
        <time>2024-03-10T10:14:44Z</time>
      </trkpt>
      <trkpt lat="49.15434" lon="0.16423">
        <ele>144.9</ele>
        <time>2024-03-10T10:14:45Z</time>
      </trkpt>
      <trkpt lat="49.15441" lon="0.16415">
        <ele>144.6</ele>
        <time>2024-03-10T10:14:46Z</time>
      </trkpt>
      <trkpt lat="49.15449" lon="0.16408">
        <ele>144.3</ele>
        <time>2024-03-10T10:14:47Z</time>
      </trkpt>
      <trkpt lat="49.15457" lon="0.16401">
        <ele>144</ele>
        <time>2024-03-10T10:14:48Z</time>
      </trkpt>
      <trkpt lat="49.15465" lon="0.16394">
        <ele>143.7</ele>
        <time>2024-03-10T10:14:49Z</time>
      </trkpt>
      <trkpt lat="49.15474" lon="0.16386">
        <ele>143.4</ele>
        <time>2024-03-10T10:14:50Z</time>
      </trkpt>
      <trkpt lat="49.15482" lon="0.16379">
        <ele>143.1</ele>
        <time>2024-03-10T10:14:51Z</time>
      </trkpt>
      <trkpt lat="49.1549" lon="0.16373">
        <ele>142.8</ele>
        <time>2024-03-10T10:14:52Z</time>
      </trkpt>
      <trkpt lat="49.15499" lon="0.16366">
        <ele>142.4</ele>
        <time>2024-03-10T10:14:53Z</time>
      </trkpt>
      <trkpt lat="49.15507" lon="0.16359">
        <ele>142</ele>
        <time>2024-03-10T10:14:54Z</time>
      </trkpt>
      <trkpt lat="49.15515" lon="0.16353">
        <ele>141.5</ele>
        <time>2024-03-10T10:14:55Z</time>
      </trkpt>
      <trkpt lat="49.15523" lon="0.16346">
        <ele>141</ele>
        <time>2024-03-10T10:14:56Z</time>
      </trkpt>
      <trkpt lat="49.15532" lon="0.16339">
        <ele>140.5</ele>
        <time>2024-03-10T10:14:57Z</time>
      </trkpt>
      <trkpt lat="49.15541" lon="0.16332">
        <ele>140</ele>
        <time>2024-03-10T10:14:58Z</time>
      </trkpt>
      <trkpt lat="49.15549" lon="0.16324">
        <ele>139.4</ele>
        <time>2024-03-10T10:14:59Z</time>
      </trkpt>
      <trkpt lat="49.15558" lon="0.16317">
        <ele>138.8</ele>
        <time>2024-03-10T10:15:00Z</time>
      </trkpt>
      <trkpt lat="49.15567" lon="0.1631">
        <ele>138.3</ele>
        <time>2024-03-10T10:15:01Z</time>
      </trkpt>
      <trkpt lat="49.15576" lon="0.16302">
        <ele>137.6</ele>
        <time>2024-03-10T10:15:02Z</time>
      </trkpt>
      <trkpt lat="49.15585" lon="0.16294">
        <ele>136.9</ele>
        <time>2024-03-10T10:15:03Z</time>
      </trkpt>
      <trkpt lat="49.15595" lon="0.16286">
        <ele>136.2</ele>
        <time>2024-03-10T10:15:04Z</time>
      </trkpt>
      <trkpt lat="49.15604" lon="0.16278">
        <ele>135.4</ele>
        <time>2024-03-10T10:15:05Z</time>
      </trkpt>
      <trkpt lat="49.15613" lon="0.1627">
        <ele>134.7</ele>
        <time>2024-03-10T10:15:06Z</time>
      </trkpt>
      <trkpt lat="49.15623" lon="0.16261">
        <ele>134</ele>
        <time>2024-03-10T10:15:07Z</time>
      </trkpt>
      <trkpt lat="49.15632" lon="0.16253">
        <ele>133.2</ele>
        <time>2024-03-10T10:15:08Z</time>
      </trkpt>
      <trkpt lat="49.15642" lon="0.16244">
        <ele>132.4</ele>
        <time>2024-03-10T10:15:09Z</time>
      </trkpt>
      <trkpt lat="49.15653" lon="0.16237">
        <ele>131.6</ele>
        <time>2024-03-10T10:15:10Z</time>
      </trkpt>
      <trkpt lat="49.15663" lon="0.16229">
        <ele>130.8</ele>
        <time>2024-03-10T10:15:11Z</time>
      </trkpt>
      <trkpt lat="49.15674" lon="0.1622">
        <ele>129.9</ele>
        <time>2024-03-10T10:15:12Z</time>
      </trkpt>
      <trkpt lat="49.15684" lon="0.16211">
        <ele>129</ele>
        <time>2024-03-10T10:15:13Z</time>
      </trkpt>
      <trkpt lat="49.15695" lon="0.16202">
        <ele>128.1</ele>
        <time>2024-03-10T10:15:14Z</time>
      </trkpt>
      <trkpt lat="49.15705" lon="0.16193">
        <ele>127.2</ele>
        <time>2024-03-10T10:15:15Z</time>
      </trkpt>
      <trkpt lat="49.15716" lon="0.16184">
        <ele>126.3</ele>
        <time>2024-03-10T10:15:16Z</time>
      </trkpt>
      <trkpt lat="49.15727" lon="0.16174">
        <ele>125.4</ele>
        <time>2024-03-10T10:15:17Z</time>
      </trkpt>
      <trkpt lat="49.15738" lon="0.16164">
        <ele>124.4</ele>
        <time>2024-03-10T10:15:18Z</time>
      </trkpt>
      <trkpt lat="49.15749" lon="0.16154">
        <ele>123.5</ele>
        <time>2024-03-10T10:15:19Z</time>
      </trkpt>
      <trkpt lat="49.1576" lon="0.16143">
        <ele>122.5</ele>
        <time>2024-03-10T10:15:20Z</time>
      </trkpt>
      <trkpt lat="49.1577" lon="0.16131">
        <ele>121.6</ele>
        <time>2024-03-10T10:15:21Z</time>
      </trkpt>
      <trkpt lat="49.1578" lon="0.16117">
        <ele>120.6</ele>
        <time>2024-03-10T10:15:22Z</time>
      </trkpt>
      <trkpt lat="49.15791" lon="0.16104">
        <ele>119.7</ele>
        <time>2024-03-10T10:15:23Z</time>
      </trkpt>
      <trkpt lat="49.15801" lon="0.1609">
        <ele>118.7</ele>
        <time>2024-03-10T10:15:24Z</time>
      </trkpt>
      <trkpt lat="49.15812" lon="0.16076">
        <ele>117.8</ele>
        <time>2024-03-10T10:15:25Z</time>
      </trkpt>
      <trkpt lat="49.15821" lon="0.16063">
        <ele>116.8</ele>
        <time>2024-03-10T10:15:26Z</time>
      </trkpt>
      <trkpt lat="49.15831" lon="0.16049">
        <ele>115.9</ele>
        <time>2024-03-10T10:15:27Z</time>
      </trkpt>
      <trkpt lat="49.1584" lon="0.16034">
        <ele>115</ele>
        <time>2024-03-10T10:15:28Z</time>
      </trkpt>
      <trkpt lat="49.1585" lon="0.1602">
        <ele>114.1</ele>
        <time>2024-03-10T10:15:29Z</time>
      </trkpt>
      <trkpt lat="49.15859" lon="0.16005">
        <ele>113.2</ele>
        <time>2024-03-10T10:15:30Z</time>
      </trkpt>
      <trkpt lat="49.15869" lon="0.1599">
        <ele>112.3</ele>
        <time>2024-03-10T10:15:31Z</time>
      </trkpt>
      <trkpt lat="49.15879" lon="0.15975">
        <ele>111.4</ele>
        <time>2024-03-10T10:15:32Z</time>
      </trkpt>
      <trkpt lat="49.15888" lon="0.15959">
        <ele>110.6</ele>
        <time>2024-03-10T10:15:33Z</time>
      </trkpt>
      <trkpt lat="49.15897" lon="0.15943">
        <ele>109.8</ele>
        <time>2024-03-10T10:15:34Z</time>
      </trkpt>
      <trkpt lat="49.15904" lon="0.15926">
        <ele>109</ele>
        <time>2024-03-10T10:15:35Z</time>
      </trkpt>
      <trkpt lat="49.1591" lon="0.15909">
        <ele>108.2</ele>
        <time>2024-03-10T10:15:36Z</time>
      </trkpt>
      <trkpt lat="49.15916" lon="0.15892">
        <ele>107.4</ele>
        <time>2024-03-10T10:15:37Z</time>
      </trkpt>
      <trkpt lat="49.15921" lon="0.15877">
        <ele>106.7</ele>
        <time>2024-03-10T10:15:38Z</time>
      </trkpt>
      <trkpt lat="49.15925" lon="0.15861">
        <ele>106.1</ele>
        <time>2024-03-10T10:15:39Z</time>
      </trkpt>
      <trkpt lat="49.1593" lon="0.15847">
        <ele>105.4</ele>
        <time>2024-03-10T10:15:40Z</time>
      </trkpt>
      <trkpt lat="49.15936" lon="0.15832">
        <ele>104.7</ele>
        <time>2024-03-10T10:15:41Z</time>
      </trkpt>
      <trkpt lat="49.15943" lon="0.15818">
        <ele>103.9</ele>
        <time>2024-03-10T10:15:42Z</time>
      </trkpt>
      <trkpt lat="49.15952" lon="0.15806">
        <ele>103.2</ele>
        <time>2024-03-10T10:15:43Z</time>
      </trkpt>
      <trkpt lat="49.15961" lon="0.15796">
        <ele>102.5</ele>
        <time>2024-03-10T10:15:44Z</time>
      </trkpt>
      <trkpt lat="49.15971" lon="0.15786">
        <ele>101.8</ele>
        <time>2024-03-10T10:15:45Z</time>
      </trkpt>
      <trkpt lat="49.1598" lon="0.15776">
        <ele>100.9</ele>
        <time>2024-03-10T10:15:46Z</time>
      </trkpt>
      <trkpt lat="49.15991" lon="0.15766">
        <ele>100</ele>
        <time>2024-03-10T10:15:47Z</time>
      </trkpt>
      <trkpt lat="49.16001" lon="0.15756">
        <ele>99.1</ele>
        <time>2024-03-10T10:15:48Z</time>
      </trkpt>
      <trkpt lat="49.16011" lon="0.15746">
        <ele>98.1</ele>
        <time>2024-03-10T10:15:49Z</time>
      </trkpt>
      <trkpt lat="49.16021" lon="0.15736">
        <ele>97</ele>
        <time>2024-03-10T10:15:50Z</time>
      </trkpt>
      <trkpt lat="49.16032" lon="0.15725">
        <ele>96.1</ele>
        <time>2024-03-10T10:15:51Z</time>
      </trkpt>
      <trkpt lat="49.16042" lon="0.15714">
        <ele>95.3</ele>
        <time>2024-03-10T10:15:52Z</time>
      </trkpt>
      <trkpt lat="49.16053" lon="0.15704">
        <ele>94.5</ele>
        <time>2024-03-10T10:15:53Z</time>
      </trkpt>
      <trkpt lat="49.16063" lon="0.15693">
        <ele>93.9</ele>
        <time>2024-03-10T10:15:54Z</time>
      </trkpt>
      <trkpt lat="49.16074" lon="0.15682">
        <ele>93.6</ele>
        <time>2024-03-10T10:15:55Z</time>
      </trkpt>
      <trkpt lat="49.16083" lon="0.1567">
        <ele>93.5</ele>
        <time>2024-03-10T10:15:56Z</time>
      </trkpt>
      <trkpt lat="49.16092" lon="0.15658">
        <ele>93.7</ele>
        <time>2024-03-10T10:15:57Z</time>
      </trkpt>
      <trkpt lat="49.16098" lon="0.15644">
        <ele>93.9</ele>
        <time>2024-03-10T10:15:58Z</time>
      </trkpt>
      <trkpt lat="49.16103" lon="0.15631">
        <ele>94.3</ele>
        <time>2024-03-10T10:15:59Z</time>
      </trkpt>
      <trkpt lat="49.16106" lon="0.15617">
        <ele>94.7</ele>
        <time>2024-03-10T10:16:00Z</time>
      </trkpt>
      <trkpt lat="49.16108" lon="0.15604">
        <ele>95</ele>
        <time>2024-03-10T10:16:01Z</time>
      </trkpt>
      <trkpt lat="49.16109" lon="0.15593">
        <ele>95.3</ele>
        <time>2024-03-10T10:16:02Z</time>
      </trkpt>
      <trkpt lat="49.16109" lon="0.15581">
        <ele>95.8</ele>
        <time>2024-03-10T10:16:03Z</time>
      </trkpt>
      <trkpt lat="49.16109" lon="0.15571">
        <ele>96.3</ele>
        <time>2024-03-10T10:16:04Z</time>
      </trkpt>
      <trkpt lat="49.16108" lon="0.15561">
        <ele>96.7</ele>
        <time>2024-03-10T10:16:05Z</time>
      </trkpt>
      <trkpt lat="49.16107" lon="0.15551">
        <ele>97.2</ele>
        <time>2024-03-10T10:16:06Z</time>
      </trkpt>
      <trkpt lat="49.16105" lon="0.15542">
        <ele>97.7</ele>
        <time>2024-03-10T10:16:07Z</time>
      </trkpt>
      <trkpt lat="49.16103" lon="0.15534">
        <ele>98.2</ele>
        <time>2024-03-10T10:16:08Z</time>
      </trkpt>
      <trkpt lat="49.16102" lon="0.15526">
        <ele>98.6</ele>
        <time>2024-03-10T10:16:09Z</time>
      </trkpt>
      <trkpt lat="49.161" lon="0.15518">
        <ele>99</ele>
        <time>2024-03-10T10:16:10Z</time>
      </trkpt>
      <trkpt lat="49.16099" lon="0.15511">
        <ele>99.4</ele>
        <time>2024-03-10T10:16:11Z</time>
      </trkpt>
      <trkpt lat="49.16098" lon="0.15505">
        <ele>99.8</ele>
        <time>2024-03-10T10:16:12Z</time>
      </trkpt>
      <trkpt lat="49.16097" lon="0.15498">
        <ele>100.2</ele>
        <time>2024-03-10T10:16:13Z</time>
      </trkpt>
      <trkpt lat="49.16096" lon="0.15492">
        <ele>100.6</ele>
        <time>2024-03-10T10:16:14Z</time>
      </trkpt>
      <trkpt lat="49.16095" lon="0.15486">
        <ele>101</ele>
        <time>2024-03-10T10:16:15Z</time>
      </trkpt>
      <trkpt lat="49.16093" lon="0.1548">
        <ele>101.3</ele>
        <time>2024-03-10T10:16:16Z</time>
      </trkpt>
      <trkpt lat="49.16092" lon="0.15474">
        <ele>101.7</ele>
        <time>2024-03-10T10:16:17Z</time>
      </trkpt>
      <trkpt lat="49.16091" lon="0.15468">
        <ele>102</ele>
        <time>2024-03-10T10:16:18Z</time>
      </trkpt>
      <trkpt lat="49.1609" lon="0.15462">
        <ele>102.4</ele>
        <time>2024-03-10T10:16:19Z</time>
      </trkpt>
      <trkpt lat="49.1609" lon="0.15457">
        <ele>102.7</ele>
        <time>2024-03-10T10:16:20Z</time>
      </trkpt>
      <trkpt lat="49.16089" lon="0.15451">
        <ele>103</ele>
        <time>2024-03-10T10:16:21Z</time>
      </trkpt>
      <trkpt lat="49.16088" lon="0.15446">
        <ele>103.3</ele>
        <time>2024-03-10T10:16:22Z</time>
      </trkpt>
      <trkpt lat="49.16086" lon="0.15441">
        <ele>103.6</ele>
        <time>2024-03-10T10:16:23Z</time>
      </trkpt>
      <trkpt lat="49.16085" lon="0.15436">
        <ele>103.9</ele>
        <time>2024-03-10T10:16:24Z</time>
      </trkpt>
      <trkpt lat="49.16084" lon="0.15431">
        <ele>104.2</ele>
        <time>2024-03-10T10:16:25Z</time>
      </trkpt>
      <trkpt lat="49.16082" lon="0.15426">
        <ele>104.5</ele>
        <time>2024-03-10T10:16:26Z</time>
      </trkpt>
      <trkpt lat="49.1608" lon="0.15421">
        <ele>104.8</ele>
        <time>2024-03-10T10:16:27Z</time>
      </trkpt>
      <trkpt lat="49.16078" lon="0.15417">
        <ele>105.1</ele>
        <time>2024-03-10T10:16:28Z</time>
      </trkpt>
      <trkpt lat="49.16076" lon="0.15413">
        <ele>105.4</ele>
        <time>2024-03-10T10:16:29Z</time>
      </trkpt>
      <trkpt lat="49.16074" lon="0.15408">
        <ele>105.7</ele>
        <time>2024-03-10T10:16:30Z</time>
      </trkpt>
      <trkpt lat="49.16072" lon="0.15404">
        <ele>105.9</ele>
        <time>2024-03-10T10:16:31Z</time>
      </trkpt>
      <trkpt lat="49.1607" lon="0.154">
        <ele>106.2</ele>
        <time>2024-03-10T10:16:32Z</time>
      </trkpt>
      <trkpt lat="49.16068" lon="0.15397">
        <ele>106.4</ele>
        <time>2024-03-10T10:16:33Z</time>
      </trkpt>
      <trkpt lat="49.16066" lon="0.15393">
        <ele>106.7</ele>
        <time>2024-03-10T10:16:34Z</time>
      </trkpt>
      <trkpt lat="49.16063" lon="0.1539">
        <ele>107</ele>
        <time>2024-03-10T10:16:35Z</time>
      </trkpt>
      <trkpt lat="49.1606" lon="0.15387">
        <ele>107.2</ele>
        <time>2024-03-10T10:16:36Z</time>
      </trkpt>
      <trkpt lat="49.16058" lon="0.15384">
        <ele>107.4</ele>
        <time>2024-03-10T10:16:37Z</time>
      </trkpt>
      <trkpt lat="49.16055" lon="0.15381">
        <ele>107.7</ele>
        <time>2024-03-10T10:16:38Z</time>
      </trkpt>
      <trkpt lat="49.16052" lon="0.15379">
        <ele>108</ele>
        <time>2024-03-10T10:16:39Z</time>
      </trkpt>
      <trkpt lat="49.16049" lon="0.15377">
        <ele>108.2</ele>
        <time>2024-03-10T10:16:40Z</time>
      </trkpt>
      <trkpt lat="49.16046" lon="0.15374">
        <ele>108.5</ele>
        <time>2024-03-10T10:16:41Z</time>
      </trkpt>
      <trkpt lat="49.16043" lon="0.15372">
        <ele>108.7</ele>
        <time>2024-03-10T10:16:42Z</time>
      </trkpt>
      <trkpt lat="49.1604" lon="0.15371">
        <ele>108.9</ele>
        <time>2024-03-10T10:16:43Z</time>
      </trkpt>
      <trkpt lat="49.16037" lon="0.15369">
        <ele>109.2</ele>
        <time>2024-03-10T10:16:44Z</time>
      </trkpt>
      <trkpt lat="49.16034" lon="0.15367">
        <ele>109.4</ele>
        <time>2024-03-10T10:16:45Z</time>
      </trkpt>
      <trkpt lat="49.16031" lon="0.15366">
        <ele>109.7</ele>
        <time>2024-03-10T10:16:46Z</time>
      </trkpt>
      <trkpt lat="49.16028" lon="0.15364">
        <ele>109.9</ele>
        <time>2024-03-10T10:16:47Z</time>
      </trkpt>
      <trkpt lat="49.16025" lon="0.15362">
        <ele>110.2</ele>
        <time>2024-03-10T10:16:48Z</time>
      </trkpt>
      <trkpt lat="49.16022" lon="0.15361">
        <ele>110.4</ele>
        <time>2024-03-10T10:16:49Z</time>
      </trkpt>
      <trkpt lat="49.16019" lon="0.1536">
        <ele>110.7</ele>
        <time>2024-03-10T10:16:50Z</time>
      </trkpt>
      <trkpt lat="49.16016" lon="0.15358">
        <ele>110.9</ele>
        <time>2024-03-10T10:16:51Z</time>
      </trkpt>
      <trkpt lat="49.16014" lon="0.15357">
        <ele>111.2</ele>
        <time>2024-03-10T10:16:52Z</time>
      </trkpt>
      <trkpt lat="49.16011" lon="0.15356">
        <ele>111.4</ele>
        <time>2024-03-10T10:16:53Z</time>
      </trkpt>
      <trkpt lat="49.16008" lon="0.15354">
        <ele>111.7</ele>
        <time>2024-03-10T10:16:54Z</time>
      </trkpt>
      <trkpt lat="49.16005" lon="0.15353">
        <ele>111.9</ele>
        <time>2024-03-10T10:16:55Z</time>
      </trkpt>
      <trkpt lat="49.16003" lon="0.15352">
        <ele>112.2</ele>
        <time>2024-03-10T10:16:56Z</time>
      </trkpt>
      <trkpt lat="49.16" lon="0.15351">
        <ele>112.4</ele>
        <time>2024-03-10T10:16:57Z</time>
      </trkpt>
      <trkpt lat="49.15997" lon="0.1535">
        <ele>112.7</ele>
        <time>2024-03-10T10:16:58Z</time>
      </trkpt>
      <trkpt lat="49.15994" lon="0.15349">
        <ele>113</ele>
        <time>2024-03-10T10:16:59Z</time>
      </trkpt>
      <trkpt lat="49.15991" lon="0.15347">
        <ele>113.2</ele>
        <time>2024-03-10T10:17:00Z</time>
      </trkpt>
      <trkpt lat="49.15989" lon="0.15346">
        <ele>113.5</ele>
        <time>2024-03-10T10:17:01Z</time>
      </trkpt>
      <trkpt lat="49.15986" lon="0.15344">
        <ele>113.8</ele>
        <time>2024-03-10T10:17:02Z</time>
      </trkpt>
      <trkpt lat="49.15984" lon="0.15342">
        <ele>114</ele>
        <time>2024-03-10T10:17:03Z</time>
      </trkpt>
      <trkpt lat="49.15981" lon="0.15341">
        <ele>114.3</ele>
        <time>2024-03-10T10:17:04Z</time>
      </trkpt>
      <trkpt lat="49.15978" lon="0.15339">
        <ele>114.5</ele>
        <time>2024-03-10T10:17:05Z</time>
      </trkpt>
      <trkpt lat="49.15976" lon="0.15338">
        <ele>114.8</ele>
        <time>2024-03-10T10:17:06Z</time>
      </trkpt>
      <trkpt lat="49.15972" lon="0.15335">
        <ele>115.1</ele>
        <time>2024-03-10T10:17:07Z</time>
      </trkpt>
      <trkpt lat="49.15971" lon="0.15334">
        <ele>115.3</ele>
        <time>2024-03-10T10:17:08Z</time>
      </trkpt>
      <trkpt lat="49.15968" lon="0.15333">
        <ele>115.5</ele>
        <time>2024-03-10T10:17:09Z</time>
      </trkpt>
      <trkpt lat="49.15965" lon="0.15331">
        <ele>115.8</ele>
        <time>2024-03-10T10:17:10Z</time>
      </trkpt>
      <trkpt lat="49.15963" lon="0.15329">
        <ele>116</ele>
        <time>2024-03-10T10:17:11Z</time>
      </trkpt>
      <trkpt lat="49.1596" lon="0.15327">
        <ele>116.3</ele>
        <time>2024-03-10T10:17:12Z</time>
      </trkpt>
      <trkpt lat="49.15958" lon="0.15324">
        <ele>116.5</ele>
        <time>2024-03-10T10:17:13Z</time>
      </trkpt>
      <trkpt lat="49.15956" lon="0.15322">
        <ele>116.8</ele>
        <time>2024-03-10T10:17:14Z</time>
      </trkpt>
      <trkpt lat="49.15953" lon="0.15319">
        <ele>117</ele>
        <time>2024-03-10T10:17:15Z</time>
      </trkpt>
      <trkpt lat="49.15951" lon="0.15316">
        <ele>117.3</ele>
        <time>2024-03-10T10:17:16Z</time>
      </trkpt>
      <trkpt lat="49.15949" lon="0.15313">
        <ele>117.5</ele>
        <time>2024-03-10T10:17:17Z</time>
      </trkpt>
      <trkpt lat="49.15947" lon="0.1531">
        <ele>117.8</ele>
        <time>2024-03-10T10:17:18Z</time>
      </trkpt>
      <trkpt lat="49.15945" lon="0.15307">
        <ele>118</ele>
        <time>2024-03-10T10:17:19Z</time>
      </trkpt>
      <trkpt lat="49.15942" lon="0.15304">
        <ele>118.3</ele>
        <time>2024-03-10T10:17:20Z</time>
      </trkpt>
      <trkpt lat="49.15941" lon="0.15301">
        <ele>118.5</ele>
        <time>2024-03-10T10:17:21Z</time>
      </trkpt>
      <trkpt lat="49.15938" lon="0.15296">
        <ele>118.8</ele>
        <time>2024-03-10T10:17:22Z</time>
      </trkpt>
      <trkpt lat="49.15937" lon="0.15294">
        <ele>119</ele>
        <time>2024-03-10T10:17:23Z</time>
      </trkpt>
      <trkpt lat="49.15935" lon="0.15291">
        <ele>119.2</ele>
        <time>2024-03-10T10:17:24Z</time>
      </trkpt>
      <trkpt lat="49.15933" lon="0.15286">
        <ele>119.5</ele>
        <time>2024-03-10T10:17:25Z</time>
      </trkpt>
      <trkpt lat="49.15932" lon="0.15284">
        <ele>119.7</ele>
        <time>2024-03-10T10:17:26Z</time>
      </trkpt>
      <trkpt lat="49.15931" lon="0.1528">
        <ele>119.9</ele>
        <time>2024-03-10T10:17:27Z</time>
      </trkpt>
      <trkpt lat="49.15929" lon="0.15275">
        <ele>120.2</ele>
        <time>2024-03-10T10:17:28Z</time>
      </trkpt>
      <trkpt lat="49.15928" lon="0.15274">
        <ele>120.3</ele>
        <time>2024-03-10T10:17:29Z</time>
      </trkpt>
      <trkpt lat="49.15926" lon="0.15268">
        <ele>120.6</ele>
        <time>2024-03-10T10:17:30Z</time>
      </trkpt>
      <trkpt lat="49.15925" lon="0.15266">
        <ele>120.7</ele>
        <time>2024-03-10T10:17:31Z</time>
      </trkpt>
      <trkpt lat="49.15923" lon="0.15261">
        <ele>121</ele>
        <time>2024-03-10T10:17:32Z</time>
      </trkpt>
      <trkpt lat="49.15922" lon="0.15259">
        <ele>121.2</ele>
        <time>2024-03-10T10:17:33Z</time>
      </trkpt>
      <trkpt lat="49.15921" lon="0.15256">
        <ele>121.4</ele>
        <time>2024-03-10T10:17:34Z</time>
      </trkpt>
      <trkpt lat="49.15919" lon="0.15251">
        <ele>121.7</ele>
        <time>2024-03-10T10:17:35Z</time>
      </trkpt>
      <trkpt lat="49.15918" lon="0.15249">
        <ele>121.8</ele>
        <time>2024-03-10T10:17:36Z</time>
      </trkpt>
      <trkpt lat="49.15917" lon="0.15245">
        <ele>122</ele>
        <time>2024-03-10T10:17:37Z</time>
      </trkpt>
      <trkpt lat="49.15915" lon="0.15241">
        <ele>122.2</ele>
        <time>2024-03-10T10:17:38Z</time>
      </trkpt>
      <trkpt lat="49.15913" lon="0.15237">
        <ele>122.4</ele>
        <time>2024-03-10T10:17:39Z</time>
      </trkpt>
      <trkpt lat="49.15912" lon="0.15233">
        <ele>122.7</ele>
        <time>2024-03-10T10:17:40Z</time>
      </trkpt>
      <trkpt lat="49.1591" lon="0.15229">
        <ele>122.9</ele>
        <time>2024-03-10T10:17:41Z</time>
      </trkpt>
      <trkpt lat="49.15909" lon="0.15226">
        <ele>123.1</ele>
        <time>2024-03-10T10:17:42Z</time>
      </trkpt>
      <trkpt lat="49.15907" lon="0.15222">
        <ele>123.3</ele>
        <time>2024-03-10T10:17:43Z</time>
      </trkpt>
      <trkpt lat="49.15904" lon="0.15217">
        <ele>123.6</ele>
        <time>2024-03-10T10:17:44Z</time>
      </trkpt>
      <trkpt lat="49.15903" lon="0.15216">
        <ele>123.7</ele>
        <time>2024-03-10T10:17:45Z</time>
      </trkpt>
      <trkpt lat="49.15902" lon="0.15212">
        <ele>123.9</ele>
        <time>2024-03-10T10:17:46Z</time>
      </trkpt>
      <trkpt lat="49.159" lon="0.15209">
        <ele>124</ele>
        <time>2024-03-10T10:17:47Z</time>
      </trkpt>
      <trkpt lat="49.15898" lon="0.15203">
        <ele>124.3</ele>
        <time>2024-03-10T10:17:48Z</time>
      </trkpt>
      <trkpt lat="49.15898" lon="0.15201">
        <ele>124.4</ele>
        <time>2024-03-10T10:17:49Z</time>
      </trkpt>
      <trkpt lat="49.15896" lon="0.15197">
        <ele>124.6</ele>
        <time>2024-03-10T10:17:50Z</time>
      </trkpt>
      <trkpt lat="49.15894" lon="0.15193">
        <ele>124.8</ele>
        <time>2024-03-10T10:17:51Z</time>
      </trkpt>
      <trkpt lat="49.15892" lon="0.15187">
        <ele>125.1</ele>
        <time>2024-03-10T10:17:52Z</time>
      </trkpt>
      <trkpt lat="49.15892" lon="0.15185">
        <ele>125.2</ele>
        <time>2024-03-10T10:17:53Z</time>
      </trkpt>
      <trkpt lat="49.1589" lon="0.15181">
        <ele>125.4</ele>
        <time>2024-03-10T10:17:54Z</time>
      </trkpt>
      <trkpt lat="49.15889" lon="0.15178">
        <ele>125.6</ele>
        <time>2024-03-10T10:17:55Z</time>
      </trkpt>
      <trkpt lat="49.15887" lon="0.15172">
        <ele>125.9</ele>
        <time>2024-03-10T10:17:56Z</time>
      </trkpt>
      <trkpt lat="49.15886" lon="0.1517">
        <ele>126</ele>
        <time>2024-03-10T10:17:57Z</time>
      </trkpt>
      <trkpt lat="49.15885" lon="0.15166">
        <ele>126.2</ele>
        <time>2024-03-10T10:17:58Z</time>
      </trkpt>
      <trkpt lat="49.15884" lon="0.15161">
        <ele>126.4</ele>
        <time>2024-03-10T10:17:59Z</time>
      </trkpt>
      <trkpt lat="49.15883" lon="0.15156">
        <ele>126.6</ele>
        <time>2024-03-10T10:18:00Z</time>
      </trkpt>
      <trkpt lat="49.15881" lon="0.15152">
        <ele>126.8</ele>
        <time>2024-03-10T10:18:01Z</time>
      </trkpt>
      <trkpt lat="49.1588" lon="0.15148">
        <ele>127</ele>
        <time>2024-03-10T10:18:02Z</time>
      </trkpt>
      <trkpt lat="49.15878" lon="0.15143">
        <ele>127.3</ele>
        <time>2024-03-10T10:18:03Z</time>
      </trkpt>
      <trkpt lat="49.15877" lon="0.15141">
        <ele>127.4</ele>
        <time>2024-03-10T10:18:04Z</time>
      </trkpt>
      <trkpt lat="49.15876" lon="0.15137">
        <ele>127.6</ele>
        <time>2024-03-10T10:18:05Z</time>
      </trkpt>
      <trkpt lat="49.15874" lon="0.15133">
        <ele>127.8</ele>
        <time>2024-03-10T10:18:06Z</time>
      </trkpt>
      <trkpt lat="49.15873" lon="0.15129">
        <ele>128</ele>
        <time>2024-03-10T10:18:07Z</time>
      </trkpt>
      <trkpt lat="49.15871" lon="0.15125">
        <ele>128.2</ele>
        <time>2024-03-10T10:18:08Z</time>
      </trkpt>
      <trkpt lat="49.1587" lon="0.1512">
        <ele>128.4</ele>
        <time>2024-03-10T10:18:09Z</time>
      </trkpt>
      <trkpt lat="49.15869" lon="0.15116">
        <ele>128.6</ele>
        <time>2024-03-10T10:18:10Z</time>
      </trkpt>
      <trkpt lat="49.15868" lon="0.15112">
        <ele>128.8</ele>
        <time>2024-03-10T10:18:11Z</time>
      </trkpt>
      <trkpt lat="49.15866" lon="0.15108">
        <ele>129</ele>
        <time>2024-03-10T10:18:12Z</time>
      </trkpt>
      <trkpt lat="49.15865" lon="0.15103">
        <ele>129.2</ele>
        <time>2024-03-10T10:18:13Z</time>
      </trkpt>
      <trkpt lat="49.15863" lon="0.15099">
        <ele>129.4</ele>
        <time>2024-03-10T10:18:14Z</time>
      </trkpt>
      <trkpt lat="49.15862" lon="0.15095">
        <ele>129.6</ele>
        <time>2024-03-10T10:18:15Z</time>
      </trkpt>
      <trkpt lat="49.1586" lon="0.15091">
        <ele>129.8</ele>
        <time>2024-03-10T10:18:16Z</time>
      </trkpt>
      <trkpt lat="49.15859" lon="0.15086">
        <ele>130</ele>
        <time>2024-03-10T10:18:17Z</time>
      </trkpt>
      <trkpt lat="49.15858" lon="0.15082">
        <ele>130.1</ele>
        <time>2024-03-10T10:18:18Z</time>
      </trkpt>
      <trkpt lat="49.15857" lon="0.15078">
        <ele>130.3</ele>
        <time>2024-03-10T10:18:19Z</time>
      </trkpt>
      <trkpt lat="49.15855" lon="0.15072">
        <ele>130.5</ele>
        <time>2024-03-10T10:18:20Z</time>
      </trkpt>
      <trkpt lat="49.15854" lon="0.1507">
        <ele>130.6</ele>
        <time>2024-03-10T10:18:21Z</time>
      </trkpt>
      <trkpt lat="49.15853" lon="0.15065">
        <ele>130.8</ele>
        <time>2024-03-10T10:18:22Z</time>
      </trkpt>
      <trkpt lat="49.15852" lon="0.15061">
        <ele>131</ele>
        <time>2024-03-10T10:18:23Z</time>
      </trkpt>
      <trkpt lat="49.1585" lon="0.15056">
        <ele>131.2</ele>
        <time>2024-03-10T10:18:24Z</time>
      </trkpt>
      <trkpt lat="49.15849" lon="0.15052">
        <ele>131.3</ele>
        <time>2024-03-10T10:18:25Z</time>
      </trkpt>
      <trkpt lat="49.15848" lon="0.15047">
        <ele>131.5</ele>
        <time>2024-03-10T10:18:26Z</time>
      </trkpt>
      <trkpt lat="49.15846" lon="0.15041">
        <ele>131.7</ele>
        <time>2024-03-10T10:18:27Z</time>
      </trkpt>
      <trkpt lat="49.15844" lon="0.15036">
        <ele>131.9</ele>
        <time>2024-03-10T10:18:28Z</time>
      </trkpt>
      <trkpt lat="49.15841" lon="0.15032">
        <ele>132.1</ele>
        <time>2024-03-10T10:18:29Z</time>
      </trkpt>
      <trkpt lat="49.15838" lon="0.15026">
        <ele>132.3</ele>
        <time>2024-03-10T10:18:30Z</time>
      </trkpt>
      <trkpt lat="49.15835" lon="0.15021">
        <ele>132.5</ele>
        <time>2024-03-10T10:18:31Z</time>
      </trkpt>
      <trkpt lat="49.15833" lon="0.15015">
        <ele>132.7</ele>
        <time>2024-03-10T10:18:32Z</time>
      </trkpt>
      <trkpt lat="49.1583" lon="0.15009">
        <ele>132.9</ele>
        <time>2024-03-10T10:18:33Z</time>
      </trkpt>
      <trkpt lat="49.15828" lon="0.15004">
        <ele>133.1</ele>
        <time>2024-03-10T10:18:34Z</time>
      </trkpt>
      <trkpt lat="49.15825" lon="0.14998">
        <ele>133.3</ele>
        <time>2024-03-10T10:18:35Z</time>
      </trkpt>
      <trkpt lat="49.15822" lon="0.14993">
        <ele>133.5</ele>
        <time>2024-03-10T10:18:36Z</time>
      </trkpt>
      <trkpt lat="49.1582" lon="0.14988">
        <ele>133.7</ele>
        <time>2024-03-10T10:18:37Z</time>
      </trkpt>
      <trkpt lat="49.15817" lon="0.14982">
        <ele>133.9</ele>
        <time>2024-03-10T10:18:38Z</time>
      </trkpt>
      <trkpt lat="49.15814" lon="0.14977">
        <ele>134</ele>
        <time>2024-03-10T10:18:39Z</time>
      </trkpt>
      <trkpt lat="49.15812" lon="0.14972">
        <ele>134.2</ele>
        <time>2024-03-10T10:18:40Z</time>
      </trkpt>
      <trkpt lat="49.15809" lon="0.14967">
        <ele>134.4</ele>
        <time>2024-03-10T10:18:41Z</time>
      </trkpt>
      <trkpt lat="49.15807" lon="0.14962">
        <ele>134.6</ele>
        <time>2024-03-10T10:18:42Z</time>
      </trkpt>
      <trkpt lat="49.15804" lon="0.14956">
        <ele>134.8</ele>
        <time>2024-03-10T10:18:43Z</time>
      </trkpt>
      <trkpt lat="49.15802" lon="0.14951">
        <ele>135</ele>
        <time>2024-03-10T10:18:44Z</time>
      </trkpt>
      <trkpt lat="49.15799" lon="0.14945">
        <ele>135.2</ele>
        <time>2024-03-10T10:18:45Z</time>
      </trkpt>
      <trkpt lat="49.15797" lon="0.1494">
        <ele>135.3</ele>
        <time>2024-03-10T10:18:46Z</time>
      </trkpt>
      <trkpt lat="49.15795" lon="0.14935">
        <ele>135.5</ele>
        <time>2024-03-10T10:18:47Z</time>
      </trkpt>
      <trkpt lat="49.15793" lon="0.1493">
        <ele>135.7</ele>
        <time>2024-03-10T10:18:48Z</time>
      </trkpt>
      <trkpt lat="49.15791" lon="0.14924">
        <ele>135.9</ele>
        <time>2024-03-10T10:18:49Z</time>
      </trkpt>
      <trkpt lat="49.15789" lon="0.14919">
        <ele>136.1</ele>
        <time>2024-03-10T10:18:50Z</time>
      </trkpt>
      <trkpt lat="49.15787" lon="0.14914">
        <ele>136.3</ele>
        <time>2024-03-10T10:18:51Z</time>
      </trkpt>
      <trkpt lat="49.15784" lon="0.14908">
        <ele>136.5</ele>
        <time>2024-03-10T10:18:52Z</time>
      </trkpt>
      <trkpt lat="49.15782" lon="0.14903">
        <ele>136.7</ele>
        <time>2024-03-10T10:18:53Z</time>
      </trkpt>
      <trkpt lat="49.1578" lon="0.14899">
        <ele>136.9</ele>
        <time>2024-03-10T10:18:54Z</time>
      </trkpt>
      <trkpt lat="49.15778" lon="0.14894">
        <ele>137</ele>
        <time>2024-03-10T10:18:55Z</time>
      </trkpt>
      <trkpt lat="49.15776" lon="0.14888">
        <ele>137.3</ele>
        <time>2024-03-10T10:18:56Z</time>
      </trkpt>
      <trkpt lat="49.15773" lon="0.14882">
        <ele>137.5</ele>
        <time>2024-03-10T10:18:57Z</time>
      </trkpt>
      <trkpt lat="49.15771" lon="0.14877">
        <ele>137.7</ele>
        <time>2024-03-10T10:18:58Z</time>
      </trkpt>
      <trkpt lat="49.15769" lon="0.14871">
        <ele>137.9</ele>
        <time>2024-03-10T10:18:59Z</time>
      </trkpt>
      <trkpt lat="49.15767" lon="0.14866">
        <ele>138.1</ele>
        <time>2024-03-10T10:19:00Z</time>
      </trkpt>
      <trkpt lat="49.15765" lon="0.1486">
        <ele>138.3</ele>
        <time>2024-03-10T10:19:01Z</time>
      </trkpt>
      <trkpt lat="49.15763" lon="0.14854">
        <ele>138.4</ele>
        <time>2024-03-10T10:19:02Z</time>
      </trkpt>
      <trkpt lat="49.15761" lon="0.14849">
        <ele>138.6</ele>
        <time>2024-03-10T10:19:03Z</time>
      </trkpt>
      <trkpt lat="49.15759" lon="0.14844">
        <ele>138.8</ele>
        <time>2024-03-10T10:19:04Z</time>
      </trkpt>
      <trkpt lat="49.15757" lon="0.14838">
        <ele>139</ele>
        <time>2024-03-10T10:19:05Z</time>
      </trkpt>
      <trkpt lat="49.15755" lon="0.14832">
        <ele>139.1</ele>
        <time>2024-03-10T10:19:06Z</time>
      </trkpt>
      <trkpt lat="49.15753" lon="0.14827">
        <ele>139.3</ele>
        <time>2024-03-10T10:19:07Z</time>
      </trkpt>
      <trkpt lat="49.1575" lon="0.14822">
        <ele>139.5</ele>
        <time>2024-03-10T10:19:08Z</time>
      </trkpt>
      <trkpt lat="49.15748" lon="0.14818">
        <ele>139.6</ele>
        <time>2024-03-10T10:19:09Z</time>
      </trkpt>
      <trkpt lat="49.15746" lon="0.14812">
        <ele>139.8</ele>
        <time>2024-03-10T10:19:10Z</time>
      </trkpt>
      <trkpt lat="49.15743" lon="0.14807">
        <ele>140</ele>
        <time>2024-03-10T10:19:11Z</time>
      </trkpt>
      <trkpt lat="49.1574" lon="0.14801">
        <ele>140.2</ele>
        <time>2024-03-10T10:19:12Z</time>
      </trkpt>
      <trkpt lat="49.15738" lon="0.14795">
        <ele>140.4</ele>
        <time>2024-03-10T10:19:13Z</time>
      </trkpt>
      <trkpt lat="49.15735" lon="0.14789">
        <ele>140.5</ele>
        <time>2024-03-10T10:19:14Z</time>
      </trkpt>
      <trkpt lat="49.15733" lon="0.14784">
        <ele>140.7</ele>
        <time>2024-03-10T10:19:15Z</time>
      </trkpt>
      <trkpt lat="49.1573" lon="0.14778">
        <ele>140.9</ele>
        <time>2024-03-10T10:19:16Z</time>
      </trkpt>
      <trkpt lat="49.15727" lon="0.14773">
        <ele>141.1</ele>
        <time>2024-03-10T10:19:17Z</time>
      </trkpt>
      <trkpt lat="49.15725" lon="0.14767">
        <ele>141.3</ele>
        <time>2024-03-10T10:19:18Z</time>
      </trkpt>
      <trkpt lat="49.15723" lon="0.14762">
        <ele>141.5</ele>
        <time>2024-03-10T10:19:19Z</time>
      </trkpt>
      <trkpt lat="49.15721" lon="0.14756">
        <ele>141.7</ele>
        <time>2024-03-10T10:19:20Z</time>
      </trkpt>
      <trkpt lat="49.15718" lon="0.14749">
        <ele>141.9</ele>
        <time>2024-03-10T10:19:21Z</time>
      </trkpt>
      <trkpt lat="49.15716" lon="0.14744">
        <ele>142.1</ele>
        <time>2024-03-10T10:19:22Z</time>
      </trkpt>
      <trkpt lat="49.15714" lon="0.14738">
        <ele>142.3</ele>
        <time>2024-03-10T10:19:23Z</time>
      </trkpt>
      <trkpt lat="49.15711" lon="0.14733">
        <ele>142.5</ele>
        <time>2024-03-10T10:19:24Z</time>
      </trkpt>
      <trkpt lat="49.15708" lon="0.14727">
        <ele>142.6</ele>
        <time>2024-03-10T10:19:25Z</time>
      </trkpt>
      <trkpt lat="49.15706" lon="0.14722">
        <ele>142.8</ele>
        <time>2024-03-10T10:19:26Z</time>
      </trkpt>
      <trkpt lat="49.15703" lon="0.14716">
        <ele>143</ele>
        <time>2024-03-10T10:19:27Z</time>
      </trkpt>
      <trkpt lat="49.157" lon="0.1471">
        <ele>143.1</ele>
        <time>2024-03-10T10:19:28Z</time>
      </trkpt>
      <trkpt lat="49.15698" lon="0.14705">
        <ele>143.3</ele>
        <time>2024-03-10T10:19:29Z</time>
      </trkpt>
      <trkpt lat="49.15696" lon="0.14699">
        <ele>143.4</ele>
        <time>2024-03-10T10:19:30Z</time>
      </trkpt>
      <trkpt lat="49.15693" lon="0.14694">
        <ele>143.6</ele>
        <time>2024-03-10T10:19:31Z</time>
      </trkpt>
      <trkpt lat="49.15691" lon="0.14688">
        <ele>143.7</ele>
        <time>2024-03-10T10:19:32Z</time>
      </trkpt>
      <trkpt lat="49.15688" lon="0.14683">
        <ele>143.9</ele>
        <time>2024-03-10T10:19:33Z</time>
      </trkpt>
      <trkpt lat="49.15686" lon="0.14676">
        <ele>144</ele>
        <time>2024-03-10T10:19:34Z</time>
      </trkpt>
      <trkpt lat="49.15683" lon="0.1467">
        <ele>144.2</ele>
        <time>2024-03-10T10:19:35Z</time>
      </trkpt>
      <trkpt lat="49.15681" lon="0.14664">
        <ele>144.3</ele>
        <time>2024-03-10T10:19:36Z</time>
      </trkpt>
      <trkpt lat="49.15679" lon="0.14658">
        <ele>144.4</ele>
        <time>2024-03-10T10:19:37Z</time>
      </trkpt>
      <trkpt lat="49.15676" lon="0.14652">
        <ele>144.6</ele>
        <time>2024-03-10T10:19:38Z</time>
      </trkpt>
      <trkpt lat="49.15674" lon="0.14646">
        <ele>144.7</ele>
        <time>2024-03-10T10:19:39Z</time>
      </trkpt>
      <trkpt lat="49.15671" lon="0.1464">
        <ele>144.8</ele>
        <time>2024-03-10T10:19:40Z</time>
      </trkpt>
      <trkpt lat="49.15669" lon="0.14634">
        <ele>145</ele>
        <time>2024-03-10T10:19:41Z</time>
      </trkpt>
      <trkpt lat="49.15666" lon="0.14628">
        <ele>145.1</ele>
        <time>2024-03-10T10:19:42Z</time>
      </trkpt>
      <trkpt lat="49.15664" lon="0.14621">
        <ele>145.3</ele>
        <time>2024-03-10T10:19:43Z</time>
      </trkpt>
      <trkpt lat="49.15661" lon="0.14615">
        <ele>145.4</ele>
        <time>2024-03-10T10:19:44Z</time>
      </trkpt>
      <trkpt lat="49.15658" lon="0.14609">
        <ele>145.6</ele>
        <time>2024-03-10T10:19:45Z</time>
      </trkpt>
      <trkpt lat="49.15655" lon="0.14603">
        <ele>145.7</ele>
        <time>2024-03-10T10:19:46Z</time>
      </trkpt>
      <trkpt lat="49.15653" lon="0.14596">
        <ele>145.9</ele>
        <time>2024-03-10T10:19:47Z</time>
      </trkpt>
      <trkpt lat="49.1565" lon="0.1459">
        <ele>146</ele>
        <time>2024-03-10T10:19:48Z</time>
      </trkpt>
      <trkpt lat="49.15647" lon="0.14583">
        <ele>146.2</ele>
        <time>2024-03-10T10:19:49Z</time>
      </trkpt>
      <trkpt lat="49.15645" lon="0.14577">
        <ele>146.3</ele>
        <time>2024-03-10T10:19:50Z</time>
      </trkpt>
      <trkpt lat="49.15642" lon="0.14571">
        <ele>146.5</ele>
        <time>2024-03-10T10:19:51Z</time>
      </trkpt>
      <trkpt lat="49.15639" lon="0.14565">
        <ele>146.6</ele>
        <time>2024-03-10T10:19:52Z</time>
      </trkpt>
      <trkpt lat="49.15637" lon="0.14559">
        <ele>146.7</ele>
        <time>2024-03-10T10:19:53Z</time>
      </trkpt>
      <trkpt lat="49.15634" lon="0.14553">
        <ele>146.9</ele>
        <time>2024-03-10T10:19:54Z</time>
      </trkpt>
      <trkpt lat="49.15631" lon="0.14546">
        <ele>146.9</ele>
        <time>2024-03-10T10:19:55Z</time>
      </trkpt>
      <trkpt lat="49.15628" lon="0.1454">
        <ele>147</ele>
        <time>2024-03-10T10:19:56Z</time>
      </trkpt>
      <trkpt lat="49.15626" lon="0.14534">
        <ele>147.1</ele>
        <time>2024-03-10T10:19:57Z</time>
      </trkpt>
      <trkpt lat="49.15623" lon="0.14527">
        <ele>147.2</ele>
        <time>2024-03-10T10:19:58Z</time>
      </trkpt>
      <trkpt lat="49.1562" lon="0.1452">
        <ele>147.3</ele>
        <time>2024-03-10T10:19:59Z</time>
      </trkpt>
      <trkpt lat="49.15618" lon="0.14512">
        <ele>147.4</ele>
        <time>2024-03-10T10:20:00Z</time>
      </trkpt>
      <trkpt lat="49.15615" lon="0.14505">
        <ele>147.5</ele>
        <time>2024-03-10T10:20:01Z</time>
      </trkpt>
      <trkpt lat="49.15612" lon="0.14498">
        <ele>147.5</ele>
        <time>2024-03-10T10:20:02Z</time>
      </trkpt>
      <trkpt lat="49.15609" lon="0.14491">
        <ele>147.6</ele>
        <time>2024-03-10T10:20:03Z</time>
      </trkpt>
      <trkpt lat="49.15606" lon="0.14484">
        <ele>147.7</ele>
        <time>2024-03-10T10:20:04Z</time>
      </trkpt>
      <trkpt lat="49.15603" lon="0.14477">
        <ele>147.8</ele>
        <time>2024-03-10T10:20:05Z</time>
      </trkpt>
      <trkpt lat="49.156" lon="0.1447">
        <ele>147.9</ele>
        <time>2024-03-10T10:20:06Z</time>
      </trkpt>
      <trkpt lat="49.15597" lon="0.14463">
        <ele>148</ele>
        <time>2024-03-10T10:20:07Z</time>
      </trkpt>
      <trkpt lat="49.15593" lon="0.14457">
        <ele>148.1</ele>
        <time>2024-03-10T10:20:08Z</time>
      </trkpt>
      <trkpt lat="49.1559" lon="0.1445">
        <ele>148.2</ele>
        <time>2024-03-10T10:20:09Z</time>
      </trkpt>
      <trkpt lat="49.15587" lon="0.14443">
        <ele>148.3</ele>
        <time>2024-03-10T10:20:10Z</time>
      </trkpt>
      <trkpt lat="49.15584" lon="0.14436">
        <ele>148.4</ele>
        <time>2024-03-10T10:20:11Z</time>
      </trkpt>
      <trkpt lat="49.15581" lon="0.14429">
        <ele>148.5</ele>
        <time>2024-03-10T10:20:12Z</time>
      </trkpt>
      <trkpt lat="49.15578" lon="0.14422">
        <ele>148.6</ele>
        <time>2024-03-10T10:20:13Z</time>
      </trkpt>
      <trkpt lat="49.15575" lon="0.14414">
        <ele>148.7</ele>
        <time>2024-03-10T10:20:14Z</time>
      </trkpt>
      <trkpt lat="49.15572" lon="0.14408">
        <ele>148.8</ele>
        <time>2024-03-10T10:20:15Z</time>
      </trkpt>
      <trkpt lat="49.15569" lon="0.14401">
        <ele>148.9</ele>
        <time>2024-03-10T10:20:16Z</time>
      </trkpt>
      <trkpt lat="49.15566" lon="0.14394">
        <ele>148.9</ele>
        <time>2024-03-10T10:20:17Z</time>
      </trkpt>
      <trkpt lat="49.15563" lon="0.14387">
        <ele>149</ele>
        <time>2024-03-10T10:20:18Z</time>
      </trkpt>
      <trkpt lat="49.1556" lon="0.1438">
        <ele>149.1</ele>
        <time>2024-03-10T10:20:19Z</time>
      </trkpt>
      <trkpt lat="49.15558" lon="0.14372">
        <ele>149.2</ele>
        <time>2024-03-10T10:20:20Z</time>
      </trkpt>
      <trkpt lat="49.15554" lon="0.14365">
        <ele>149.3</ele>
        <time>2024-03-10T10:20:21Z</time>
      </trkpt>
      <trkpt lat="49.15551" lon="0.14357">
        <ele>149.4</ele>
        <time>2024-03-10T10:20:22Z</time>
      </trkpt>
      <trkpt lat="49.15548" lon="0.1435">
        <ele>149.4</ele>
        <time>2024-03-10T10:20:23Z</time>
      </trkpt>
      <trkpt lat="49.15544" lon="0.14342">
        <ele>149.5</ele>
        <time>2024-03-10T10:20:24Z</time>
      </trkpt>
      <trkpt lat="49.15541" lon="0.14334">
        <ele>149.6</ele>
        <time>2024-03-10T10:20:25Z</time>
      </trkpt>
      <trkpt lat="49.15537" lon="0.14327">
        <ele>149.7</ele>
        <time>2024-03-10T10:20:26Z</time>
      </trkpt>
      <trkpt lat="49.15533" lon="0.14319">
        <ele>149.7</ele>
        <time>2024-03-10T10:20:27Z</time>
      </trkpt>
      <trkpt lat="49.1553" lon="0.14311">
        <ele>149.8</ele>
        <time>2024-03-10T10:20:28Z</time>
      </trkpt>
      <trkpt lat="49.15526" lon="0.14303">
        <ele>149.8</ele>
        <time>2024-03-10T10:20:29Z</time>
      </trkpt>
      <trkpt lat="49.15522" lon="0.14295">
        <ele>149.9</ele>
        <time>2024-03-10T10:20:30Z</time>
      </trkpt>
      <trkpt lat="49.15519" lon="0.14287">
        <ele>149.9</ele>
        <time>2024-03-10T10:20:31Z</time>
      </trkpt>
      <trkpt lat="49.15515" lon="0.14279">
        <ele>150</ele>
        <time>2024-03-10T10:20:32Z</time>
      </trkpt>
      <trkpt lat="49.15511" lon="0.14271">
        <ele>150</ele>
        <time>2024-03-10T10:20:33Z</time>
      </trkpt>
      <trkpt lat="49.15508" lon="0.14263">
        <ele>150.1</ele>
        <time>2024-03-10T10:20:34Z</time>
      </trkpt>
      <trkpt lat="49.15504" lon="0.14255">
        <ele>150.1</ele>
        <time>2024-03-10T10:20:35Z</time>
      </trkpt>
      <trkpt lat="49.155" lon="0.14247">
        <ele>150.2</ele>
        <time>2024-03-10T10:20:36Z</time>
      </trkpt>
      <trkpt lat="49.15496" lon="0.14239">
        <ele>150.2</ele>
        <time>2024-03-10T10:20:37Z</time>
      </trkpt>
      <trkpt lat="49.15492" lon="0.14232">
        <ele>150.3</ele>
        <time>2024-03-10T10:20:38Z</time>
      </trkpt>
      <trkpt lat="49.15487" lon="0.14224">
        <ele>150.3</ele>
        <time>2024-03-10T10:20:39Z</time>
      </trkpt>
      <trkpt lat="49.15483" lon="0.14217">
        <ele>150.4</ele>
        <time>2024-03-10T10:20:40Z</time>
      </trkpt>
      <trkpt lat="49.15478" lon="0.14209">
        <ele>150.5</ele>
        <time>2024-03-10T10:20:41Z</time>
      </trkpt>
      <trkpt lat="49.15473" lon="0.14202">
        <ele>150.5</ele>
        <time>2024-03-10T10:20:42Z</time>
      </trkpt>
      <trkpt lat="49.15469" lon="0.14195">
        <ele>150.6</ele>
        <time>2024-03-10T10:20:43Z</time>
      </trkpt>
      <trkpt lat="49.15465" lon="0.14187">
        <ele>150.7</ele>
        <time>2024-03-10T10:20:44Z</time>
      </trkpt>
      <trkpt lat="49.15461" lon="0.14179">
        <ele>150.8</ele>
        <time>2024-03-10T10:20:45Z</time>
      </trkpt>
      <trkpt lat="49.15457" lon="0.14172">
        <ele>150.9</ele>
        <time>2024-03-10T10:20:46Z</time>
      </trkpt>
      <trkpt lat="49.15452" lon="0.14165">
        <ele>151</ele>
        <time>2024-03-10T10:20:47Z</time>
      </trkpt>
      <trkpt lat="49.15448" lon="0.14158">
        <ele>151.1</ele>
        <time>2024-03-10T10:20:48Z</time>
      </trkpt>
      <trkpt lat="49.15444" lon="0.14151">
        <ele>151.2</ele>
        <time>2024-03-10T10:20:49Z</time>
      </trkpt>
      <trkpt lat="49.15439" lon="0.14144">
        <ele>151.3</ele>
        <time>2024-03-10T10:20:50Z</time>
      </trkpt>
      <trkpt lat="49.15435" lon="0.14136">
        <ele>151.3</ele>
        <time>2024-03-10T10:20:51Z</time>
      </trkpt>
      <trkpt lat="49.15431" lon="0.14129">
        <ele>151.4</ele>
        <time>2024-03-10T10:20:52Z</time>
      </trkpt>
      <trkpt lat="49.15426" lon="0.14122">
        <ele>151.5</ele>
        <time>2024-03-10T10:20:53Z</time>
      </trkpt>
      <trkpt lat="49.15422" lon="0.14115">
        <ele>151.6</ele>
        <time>2024-03-10T10:20:54Z</time>
      </trkpt>
      <trkpt lat="49.15418" lon="0.14108">
        <ele>151.6</ele>
        <time>2024-03-10T10:20:55Z</time>
      </trkpt>
      <trkpt lat="49.15414" lon="0.14101">
        <ele>151.7</ele>
        <time>2024-03-10T10:20:56Z</time>
      </trkpt>
      <trkpt lat="49.15409" lon="0.14093">
        <ele>151.8</ele>
        <time>2024-03-10T10:20:57Z</time>
      </trkpt>
      <trkpt lat="49.15405" lon="0.14086">
        <ele>151.9</ele>
        <time>2024-03-10T10:20:58Z</time>
      </trkpt>
      <trkpt lat="49.15401" lon="0.1408">
        <ele>152</ele>
        <time>2024-03-10T10:20:59Z</time>
      </trkpt>
      <trkpt lat="49.15396" lon="0.14073">
        <ele>152</ele>
        <time>2024-03-10T10:21:00Z</time>
      </trkpt>
      <trkpt lat="49.15391" lon="0.14066">
        <ele>152.1</ele>
        <time>2024-03-10T10:21:01Z</time>
      </trkpt>
      <trkpt lat="49.15387" lon="0.14059">
        <ele>152.2</ele>
        <time>2024-03-10T10:21:02Z</time>
      </trkpt>
      <trkpt lat="49.15383" lon="0.14052">
        <ele>152.3</ele>
        <time>2024-03-10T10:21:03Z</time>
      </trkpt>
      <trkpt lat="49.15379" lon="0.14045">
        <ele>152.4</ele>
        <time>2024-03-10T10:21:04Z</time>
      </trkpt>
      <trkpt lat="49.15375" lon="0.14037">
        <ele>152.5</ele>
        <time>2024-03-10T10:21:05Z</time>
      </trkpt>
      <trkpt lat="49.15371" lon="0.14029">
        <ele>152.6</ele>
        <time>2024-03-10T10:21:06Z</time>
      </trkpt>
      <trkpt lat="49.15368" lon="0.1402">
        <ele>152.6</ele>
        <time>2024-03-10T10:21:07Z</time>
      </trkpt>
      <trkpt lat="49.15365" lon="0.14011">
        <ele>152.8</ele>
        <time>2024-03-10T10:21:08Z</time>
      </trkpt>
      <trkpt lat="49.15362" lon="0.14002">
        <ele>152.9</ele>
        <time>2024-03-10T10:21:09Z</time>
      </trkpt>
      <trkpt lat="49.15359" lon="0.13994">
        <ele>153</ele>
        <time>2024-03-10T10:21:10Z</time>
      </trkpt>
      <trkpt lat="49.15356" lon="0.13985">
        <ele>153.2</ele>
        <time>2024-03-10T10:21:11Z</time>
      </trkpt>
      <trkpt lat="49.15353" lon="0.13977">
        <ele>153.3</ele>
        <time>2024-03-10T10:21:12Z</time>
      </trkpt>
      <trkpt lat="49.15351" lon="0.13968">
        <ele>153.3</ele>
        <time>2024-03-10T10:21:13Z</time>
      </trkpt>
      <trkpt lat="49.15348" lon="0.13959">
        <ele>153.4</ele>
        <time>2024-03-10T10:21:14Z</time>
      </trkpt>
      <trkpt lat="49.15346" lon="0.13951">
        <ele>153.5</ele>
        <time>2024-03-10T10:21:15Z</time>
      </trkpt>
      <trkpt lat="49.15344" lon="0.13942">
        <ele>153.5</ele>
        <time>2024-03-10T10:21:16Z</time>
      </trkpt>
      <trkpt lat="49.15342" lon="0.13933">
        <ele>153.6</ele>
        <time>2024-03-10T10:21:17Z</time>
      </trkpt>
      <trkpt lat="49.1534" lon="0.13925">
        <ele>153.6</ele>
        <time>2024-03-10T10:21:18Z</time>
      </trkpt>
      <trkpt lat="49.15337" lon="0.13915">
        <ele>153.7</ele>
        <time>2024-03-10T10:21:19Z</time>
      </trkpt>
      <trkpt lat="49.15335" lon="0.13906">
        <ele>153.8</ele>
        <time>2024-03-10T10:21:20Z</time>
      </trkpt>
      <trkpt lat="49.15332" lon="0.13897">
        <ele>153.8</ele>
        <time>2024-03-10T10:21:21Z</time>
      </trkpt>
      <trkpt lat="49.1533" lon="0.13888">
        <ele>153.9</ele>
        <time>2024-03-10T10:21:22Z</time>
      </trkpt>
      <trkpt lat="49.15328" lon="0.1388">
        <ele>154</ele>
        <time>2024-03-10T10:21:23Z</time>
      </trkpt>
      <trkpt lat="49.15326" lon="0.13871">
        <ele>154</ele>
        <time>2024-03-10T10:21:24Z</time>
      </trkpt>
      <trkpt lat="49.15323" lon="0.13862">
        <ele>154.1</ele>
        <time>2024-03-10T10:21:25Z</time>
      </trkpt>
      <trkpt lat="49.15321" lon="0.13853">
        <ele>154.2</ele>
        <time>2024-03-10T10:21:26Z</time>
      </trkpt>
      <trkpt lat="49.15318" lon="0.13844">
        <ele>154.2</ele>
        <time>2024-03-10T10:21:27Z</time>
      </trkpt>
      <trkpt lat="49.15316" lon="0.13835">
        <ele>154.3</ele>
        <time>2024-03-10T10:21:28Z</time>
      </trkpt>
      <trkpt lat="49.15313" lon="0.13826">
        <ele>154.4</ele>
        <time>2024-03-10T10:21:29Z</time>
      </trkpt>
      <trkpt lat="49.15311" lon="0.13817">
        <ele>154.5</ele>
        <time>2024-03-10T10:21:30Z</time>
      </trkpt>
      <trkpt lat="49.15308" lon="0.13808">
        <ele>154.6</ele>
        <time>2024-03-10T10:21:31Z</time>
      </trkpt>
      <trkpt lat="49.15306" lon="0.13799">
        <ele>154.7</ele>
        <time>2024-03-10T10:21:32Z</time>
      </trkpt>
      <trkpt lat="49.15303" lon="0.1379">
        <ele>154.8</ele>
        <time>2024-03-10T10:21:33Z</time>
      </trkpt>
      <trkpt lat="49.15301" lon="0.13781">
        <ele>154.9</ele>
        <time>2024-03-10T10:21:34Z</time>
      </trkpt>
      <trkpt lat="49.15299" lon="0.13772">
        <ele>155</ele>
        <time>2024-03-10T10:21:35Z</time>
      </trkpt>
      <trkpt lat="49.15297" lon="0.13764">
        <ele>155.1</ele>
        <time>2024-03-10T10:21:36Z</time>
      </trkpt>
      <trkpt lat="49.15295" lon="0.13755">
        <ele>155.2</ele>
        <time>2024-03-10T10:21:37Z</time>
      </trkpt>
      <trkpt lat="49.15292" lon="0.13746">
        <ele>155.3</ele>
        <time>2024-03-10T10:21:38Z</time>
      </trkpt>
      <trkpt lat="49.1529" lon="0.13737">
        <ele>155.4</ele>
        <time>2024-03-10T10:21:39Z</time>
      </trkpt>
      <trkpt lat="49.15288" lon="0.13728">
        <ele>155.5</ele>
        <time>2024-03-10T10:21:40Z</time>
      </trkpt>
      <trkpt lat="49.15285" lon="0.1372">
        <ele>155.6</ele>
        <time>2024-03-10T10:21:41Z</time>
      </trkpt>
      <trkpt lat="49.15282" lon="0.13713">
        <ele>155.7</ele>
        <time>2024-03-10T10:21:42Z</time>
      </trkpt>
      <trkpt lat="49.1528" lon="0.13705">
        <ele>155.8</ele>
        <time>2024-03-10T10:21:43Z</time>
      </trkpt>
      <trkpt lat="49.15277" lon="0.13697">
        <ele>155.9</ele>
        <time>2024-03-10T10:21:44Z</time>
      </trkpt>
      <trkpt lat="49.15274" lon="0.1369">
        <ele>156</ele>
        <time>2024-03-10T10:21:45Z</time>
      </trkpt>
      <trkpt lat="49.15271" lon="0.13682">
        <ele>156.1</ele>
        <time>2024-03-10T10:21:46Z</time>
      </trkpt>
      <trkpt lat="49.15268" lon="0.13674">
        <ele>156.2</ele>
        <time>2024-03-10T10:21:47Z</time>
      </trkpt>
      <trkpt lat="49.15265" lon="0.13666">
        <ele>156.4</ele>
        <time>2024-03-10T10:21:48Z</time>
      </trkpt>
      <trkpt lat="49.15262" lon="0.13659">
        <ele>156.5</ele>
        <time>2024-03-10T10:21:49Z</time>
      </trkpt>
      <trkpt lat="49.15259" lon="0.13652">
        <ele>156.6</ele>
        <time>2024-03-10T10:21:50Z</time>
      </trkpt>
      <trkpt lat="49.15255" lon="0.13645">
        <ele>156.8</ele>
        <time>2024-03-10T10:21:51Z</time>
      </trkpt>
      <trkpt lat="49.15252" lon="0.13639">
        <ele>156.9</ele>
        <time>2024-03-10T10:21:52Z</time>
      </trkpt>
      <trkpt lat="49.15248" lon="0.13632">
        <ele>157.1</ele>
        <time>2024-03-10T10:21:53Z</time>
      </trkpt>
      <trkpt lat="49.15244" lon="0.13626">
        <ele>157.3</ele>
        <time>2024-03-10T10:21:54Z</time>
      </trkpt>
      <trkpt lat="49.15241" lon="0.1362">
        <ele>157.4</ele>
        <time>2024-03-10T10:21:55Z</time>
      </trkpt>
      <trkpt lat="49.15237" lon="0.13614">
        <ele>157.6</ele>
        <time>2024-03-10T10:21:56Z</time>
      </trkpt>
      <trkpt lat="49.15233" lon="0.13607">
        <ele>157.8</ele>
        <time>2024-03-10T10:21:57Z</time>
      </trkpt>
      <trkpt lat="49.15229" lon="0.13602">
        <ele>158</ele>
        <time>2024-03-10T10:21:58Z</time>
      </trkpt>
      <trkpt lat="49.15224" lon="0.13597">
        <ele>158.1</ele>
        <time>2024-03-10T10:21:59Z</time>
      </trkpt>
      <trkpt lat="49.1522" lon="0.13592">
        <ele>158.3</ele>
        <time>2024-03-10T10:22:00Z</time>
      </trkpt>
      <trkpt lat="49.15216" lon="0.13587">
        <ele>158.5</ele>
        <time>2024-03-10T10:22:01Z</time>
      </trkpt>
      <trkpt lat="49.15211" lon="0.13583">
        <ele>158.7</ele>
        <time>2024-03-10T10:22:02Z</time>
      </trkpt>
      <trkpt lat="49.15207" lon="0.1358">
        <ele>158.9</ele>
        <time>2024-03-10T10:22:03Z</time>
      </trkpt>
      <trkpt lat="49.15203" lon="0.13576">
        <ele>159</ele>
        <time>2024-03-10T10:22:04Z</time>
      </trkpt>
      <trkpt lat="49.15199" lon="0.13572">
        <ele>159.2</ele>
        <time>2024-03-10T10:22:05Z</time>
      </trkpt>
      <trkpt lat="49.15194" lon="0.13567">
        <ele>159.4</ele>
        <time>2024-03-10T10:22:06Z</time>
      </trkpt>
      <trkpt lat="49.1519" lon="0.13563">
        <ele>159.5</ele>
        <time>2024-03-10T10:22:07Z</time>
      </trkpt>
      <trkpt lat="49.15186" lon="0.13557">
        <ele>159.6</ele>
        <time>2024-03-10T10:22:08Z</time>
      </trkpt>
      <trkpt lat="49.15182" lon="0.13551">
        <ele>159.8</ele>
        <time>2024-03-10T10:22:09Z</time>
      </trkpt>
      <trkpt lat="49.15178" lon="0.13545">
        <ele>159.9</ele>
        <time>2024-03-10T10:22:10Z</time>
      </trkpt>
      <trkpt lat="49.15175" lon="0.13539">
        <ele>160</ele>
        <time>2024-03-10T10:22:11Z</time>
      </trkpt>
      <trkpt lat="49.15171" lon="0.13532">
        <ele>160.2</ele>
        <time>2024-03-10T10:22:12Z</time>
      </trkpt>
      <trkpt lat="49.15167" lon="0.13526">
        <ele>160.3</ele>
        <time>2024-03-10T10:22:13Z</time>
      </trkpt>
      <trkpt lat="49.15163" lon="0.1352">
        <ele>160.4</ele>
        <time>2024-03-10T10:22:14Z</time>
      </trkpt>
      <trkpt lat="49.15159" lon="0.13514">
        <ele>160.5</ele>
        <time>2024-03-10T10:22:15Z</time>
      </trkpt>
      <trkpt lat="49.15155" lon="0.13507">
        <ele>160.7</ele>
        <time>2024-03-10T10:22:16Z</time>
      </trkpt>
      <trkpt lat="49.15151" lon="0.13501">
        <ele>160.8</ele>
        <time>2024-03-10T10:22:17Z</time>
      </trkpt>
      <trkpt lat="49.15147" lon="0.13495">
        <ele>160.9</ele>
        <time>2024-03-10T10:22:18Z</time>
      </trkpt>
      <trkpt lat="49.15143" lon="0.13489">
        <ele>161</ele>
        <time>2024-03-10T10:22:19Z</time>
      </trkpt>
      <trkpt lat="49.15138" lon="0.13482">
        <ele>161.1</ele>
        <time>2024-03-10T10:22:20Z</time>
      </trkpt>
      <trkpt lat="49.15134" lon="0.13476">
        <ele>161.2</ele>
        <time>2024-03-10T10:22:21Z</time>
      </trkpt>
      <trkpt lat="49.1513" lon="0.13469">
        <ele>161.3</ele>
        <time>2024-03-10T10:22:22Z</time>
      </trkpt>
      <trkpt lat="49.15125" lon="0.13463">
        <ele>161.5</ele>
        <time>2024-03-10T10:22:23Z</time>
      </trkpt>
      <trkpt lat="49.15121" lon="0.13456">
        <ele>161.6</ele>
        <time>2024-03-10T10:22:24Z</time>
      </trkpt>
      <trkpt lat="49.15117" lon="0.1345">
        <ele>161.7</ele>
        <time>2024-03-10T10:22:25Z</time>
      </trkpt>
      <trkpt lat="49.15113" lon="0.13443">
        <ele>161.7</ele>
        <time>2024-03-10T10:22:26Z</time>
      </trkpt>
      <trkpt lat="49.15108" lon="0.13436">
        <ele>161.8</ele>
        <time>2024-03-10T10:22:27Z</time>
      </trkpt>
      <trkpt lat="49.15104" lon="0.1343">
        <ele>161.9</ele>
        <time>2024-03-10T10:22:28Z</time>
      </trkpt>
      <trkpt lat="49.151" lon="0.13423">
        <ele>162</ele>
        <time>2024-03-10T10:22:29Z</time>
      </trkpt>
      <trkpt lat="49.15096" lon="0.13417">
        <ele>162.1</ele>
        <time>2024-03-10T10:22:30Z</time>
      </trkpt>
      <trkpt lat="49.15092" lon="0.1341">
        <ele>162.1</ele>
        <time>2024-03-10T10:22:31Z</time>
      </trkpt>
      <trkpt lat="49.15088" lon="0.13404">
        <ele>162.2</ele>
        <time>2024-03-10T10:22:32Z</time>
      </trkpt>
      <trkpt lat="49.15084" lon="0.13397">
        <ele>162.3</ele>
        <time>2024-03-10T10:22:33Z</time>
      </trkpt>
      <trkpt lat="49.1508" lon="0.13391">
        <ele>162.3</ele>
        <time>2024-03-10T10:22:34Z</time>
      </trkpt>
      <trkpt lat="49.15076" lon="0.13384">
        <ele>162.4</ele>
        <time>2024-03-10T10:22:35Z</time>
      </trkpt>
      <trkpt lat="49.15072" lon="0.13377">
        <ele>162.5</ele>
        <time>2024-03-10T10:22:36Z</time>
      </trkpt>
      <trkpt lat="49.15067" lon="0.13371">
        <ele>162.6</ele>
        <time>2024-03-10T10:22:37Z</time>
      </trkpt>
      <trkpt lat="49.15062" lon="0.13365">
        <ele>162.7</ele>
        <time>2024-03-10T10:22:38Z</time>
      </trkpt>
      <trkpt lat="49.15059" lon="0.13359">
        <ele>162.7</ele>
        <time>2024-03-10T10:22:39Z</time>
      </trkpt>
      <trkpt lat="49.15055" lon="0.13352">
        <ele>162.8</ele>
        <time>2024-03-10T10:22:40Z</time>
      </trkpt>
      <trkpt lat="49.15051" lon="0.13346">
        <ele>162.9</ele>
        <time>2024-03-10T10:22:41Z</time>
      </trkpt>
      <trkpt lat="49.15046" lon="0.13339">
        <ele>163</ele>
        <time>2024-03-10T10:22:42Z</time>
      </trkpt>
      <trkpt lat="49.15042" lon="0.13333">
        <ele>163.1</ele>
        <time>2024-03-10T10:22:43Z</time>
      </trkpt>
      <trkpt lat="49.15038" lon="0.13325">
        <ele>163.2</ele>
        <time>2024-03-10T10:22:44Z</time>
      </trkpt>
      <trkpt lat="49.15034" lon="0.13319">
        <ele>163.3</ele>
        <time>2024-03-10T10:22:45Z</time>
      </trkpt>
      <trkpt lat="49.1503" lon="0.13312">
        <ele>163.4</ele>
        <time>2024-03-10T10:22:46Z</time>
      </trkpt>
      <trkpt lat="49.15025" lon="0.13306">
        <ele>163.5</ele>
        <time>2024-03-10T10:22:47Z</time>
      </trkpt>
      <trkpt lat="49.15021" lon="0.133">
        <ele>163.6</ele>
        <time>2024-03-10T10:22:48Z</time>
      </trkpt>
      <trkpt lat="49.15017" lon="0.13293">
        <ele>163.6</ele>
        <time>2024-03-10T10:22:49Z</time>
      </trkpt>
      <trkpt lat="49.15014" lon="0.13288">
        <ele>163.7</ele>
        <time>2024-03-10T10:22:50Z</time>
      </trkpt>
      <trkpt lat="49.15009" lon="0.13282">
        <ele>163.8</ele>
        <time>2024-03-10T10:22:51Z</time>
      </trkpt>
      <trkpt lat="49.15006" lon="0.13275">
        <ele>163.9</ele>
        <time>2024-03-10T10:22:52Z</time>
      </trkpt>
      <trkpt lat="49.15002" lon="0.13268">
        <ele>163.9</ele>
        <time>2024-03-10T10:22:53Z</time>
      </trkpt>
      <trkpt lat="49.14997" lon="0.13261">
        <ele>164</ele>
        <time>2024-03-10T10:22:54Z</time>
      </trkpt>
      <trkpt lat="49.14993" lon="0.13254">
        <ele>164.1</ele>
        <time>2024-03-10T10:22:55Z</time>
      </trkpt>
      <trkpt lat="49.14989" lon="0.13247">
        <ele>164.2</ele>
        <time>2024-03-10T10:22:56Z</time>
      </trkpt>
      <trkpt lat="49.14985" lon="0.1324">
        <ele>164.3</ele>
        <time>2024-03-10T10:22:57Z</time>
      </trkpt>
      <trkpt lat="49.14981" lon="0.13233">
        <ele>164.3</ele>
        <time>2024-03-10T10:22:58Z</time>
      </trkpt>
      <trkpt lat="49.14976" lon="0.13226">
        <ele>164.4</ele>
        <time>2024-03-10T10:22:59Z</time>
      </trkpt>
      <trkpt lat="49.14972" lon="0.1322">
        <ele>164.5</ele>
        <time>2024-03-10T10:23:00Z</time>
      </trkpt>
      <trkpt lat="49.14968" lon="0.13213">
        <ele>164.6</ele>
        <time>2024-03-10T10:23:01Z</time>
      </trkpt>
      <trkpt lat="49.14963" lon="0.13206">
        <ele>164.7</ele>
        <time>2024-03-10T10:23:02Z</time>
      </trkpt>
      <trkpt lat="49.14959" lon="0.132">
        <ele>164.8</ele>
        <time>2024-03-10T10:23:03Z</time>
      </trkpt>
      <trkpt lat="49.14954" lon="0.13193">
        <ele>164.9</ele>
        <time>2024-03-10T10:23:04Z</time>
      </trkpt>
      <trkpt lat="49.1495" lon="0.13186">
        <ele>165</ele>
        <time>2024-03-10T10:23:05Z</time>
      </trkpt>
      <trkpt lat="49.14945" lon="0.13179">
        <ele>165.1</ele>
        <time>2024-03-10T10:23:06Z</time>
      </trkpt>
      <trkpt lat="49.14941" lon="0.13172">
        <ele>165.2</ele>
        <time>2024-03-10T10:23:07Z</time>
      </trkpt>
      <trkpt lat="49.14936" lon="0.13165">
        <ele>165.3</ele>
        <time>2024-03-10T10:23:08Z</time>
      </trkpt>
      <trkpt lat="49.14931" lon="0.13159">
        <ele>165.4</ele>
        <time>2024-03-10T10:23:09Z</time>
      </trkpt>
      <trkpt lat="49.14927" lon="0.13152">
        <ele>165.5</ele>
        <time>2024-03-10T10:23:10Z</time>
      </trkpt>
      <trkpt lat="49.14922" lon="0.13146">
        <ele>165.5</ele>
        <time>2024-03-10T10:23:11Z</time>
      </trkpt>
      <trkpt lat="49.14918" lon="0.13139">
        <ele>165.6</ele>
        <time>2024-03-10T10:23:12Z</time>
      </trkpt>
      <trkpt lat="49.14914" lon="0.13131">
        <ele>165.6</ele>
        <time>2024-03-10T10:23:13Z</time>
      </trkpt>
      <trkpt lat="49.1491" lon="0.13124">
        <ele>165.6</ele>
        <time>2024-03-10T10:23:14Z</time>
      </trkpt>
      <trkpt lat="49.14905" lon="0.13117">
        <ele>165.7</ele>
        <time>2024-03-10T10:23:15Z</time>
      </trkpt>
      <trkpt lat="49.14901" lon="0.13109">
        <ele>165.7</ele>
        <time>2024-03-10T10:23:16Z</time>
      </trkpt>
      <trkpt lat="49.14896" lon="0.13102">
        <ele>165.7</ele>
        <time>2024-03-10T10:23:17Z</time>
      </trkpt>
      <trkpt lat="49.14891" lon="0.13094">
        <ele>165.8</ele>
        <time>2024-03-10T10:23:18Z</time>
      </trkpt>
      <trkpt lat="49.14886" lon="0.13087">
        <ele>165.8</ele>
        <time>2024-03-10T10:23:19Z</time>
      </trkpt>
      <trkpt lat="49.14882" lon="0.13079">
        <ele>165.8</ele>
        <time>2024-03-10T10:23:20Z</time>
      </trkpt>
      <trkpt lat="49.14877" lon="0.13072">
        <ele>165.8</ele>
        <time>2024-03-10T10:23:21Z</time>
      </trkpt>
      <trkpt lat="49.14872" lon="0.13065">
        <ele>165.8</ele>
        <time>2024-03-10T10:23:22Z</time>
      </trkpt>
      <trkpt lat="49.14867" lon="0.13059">
        <ele>165.8</ele>
        <time>2024-03-10T10:23:23Z</time>
      </trkpt>
      <trkpt lat="49.14862" lon="0.13052">
        <ele>165.8</ele>
        <time>2024-03-10T10:23:24Z</time>
      </trkpt>
      <trkpt lat="49.14856" lon="0.13046">
        <ele>165.8</ele>
        <time>2024-03-10T10:23:25Z</time>
      </trkpt>
      <trkpt lat="49.1485" lon="0.1304">
        <ele>165.9</ele>
        <time>2024-03-10T10:23:26Z</time>
      </trkpt>
      <trkpt lat="49.14844" lon="0.13034">
        <ele>165.9</ele>
        <time>2024-03-10T10:23:27Z</time>
      </trkpt>
      <trkpt lat="49.14839" lon="0.13028">
        <ele>165.9</ele>
        <time>2024-03-10T10:23:28Z</time>
      </trkpt>
      <trkpt lat="49.14833" lon="0.13023">
        <ele>165.9</ele>
        <time>2024-03-10T10:23:29Z</time>
      </trkpt>
      <trkpt lat="49.14828" lon="0.13017">
        <ele>165.9</ele>
        <time>2024-03-10T10:23:30Z</time>
      </trkpt>
      <trkpt lat="49.14822" lon="0.13011">
        <ele>165.9</ele>
        <time>2024-03-10T10:23:31Z</time>
      </trkpt>
      <trkpt lat="49.14817" lon="0.13005">
        <ele>165.9</ele>
        <time>2024-03-10T10:23:32Z</time>
      </trkpt>
      <trkpt lat="49.14811" lon="0.12999">
        <ele>165.9</ele>
        <time>2024-03-10T10:23:33Z</time>
      </trkpt>
      <trkpt lat="49.14806" lon="0.12993">
        <ele>166</ele>
        <time>2024-03-10T10:23:34Z</time>
      </trkpt>
      <trkpt lat="49.148" lon="0.12986">
        <ele>166</ele>
        <time>2024-03-10T10:23:35Z</time>
      </trkpt>
      <trkpt lat="49.14795" lon="0.12979">
        <ele>166</ele>
        <time>2024-03-10T10:23:36Z</time>
      </trkpt>
      <trkpt lat="49.1479" lon="0.12973">
        <ele>166.1</ele>
        <time>2024-03-10T10:23:37Z</time>
      </trkpt>
      <trkpt lat="49.14785" lon="0.12965">
        <ele>166.1</ele>
        <time>2024-03-10T10:23:38Z</time>
      </trkpt>
      <trkpt lat="49.14781" lon="0.12958">
        <ele>166.2</ele>
        <time>2024-03-10T10:23:39Z</time>
      </trkpt>
      <trkpt lat="49.14776" lon="0.12952">
        <ele>166.2</ele>
        <time>2024-03-10T10:23:40Z</time>
      </trkpt>
      <trkpt lat="49.14771" lon="0.12945">
        <ele>166.3</ele>
        <time>2024-03-10T10:23:41Z</time>
      </trkpt>
      <trkpt lat="49.14767" lon="0.12938">
        <ele>166.3</ele>
        <time>2024-03-10T10:23:42Z</time>
      </trkpt>
      <trkpt lat="49.14762" lon="0.12931">
        <ele>166.4</ele>
        <time>2024-03-10T10:23:43Z</time>
      </trkpt>
      <trkpt lat="49.14757" lon="0.12924">
        <ele>166.4</ele>
        <time>2024-03-10T10:23:44Z</time>
      </trkpt>
      <trkpt lat="49.14751" lon="0.12918">
        <ele>166.5</ele>
        <time>2024-03-10T10:23:45Z</time>
      </trkpt>
      <trkpt lat="49.14746" lon="0.12913">
        <ele>166.5</ele>
        <time>2024-03-10T10:23:46Z</time>
      </trkpt>
      <trkpt lat="49.14739" lon="0.12909">
        <ele>166.6</ele>
        <time>2024-03-10T10:23:47Z</time>
      </trkpt>
      <trkpt lat="49.14733" lon="0.12906">
        <ele>166.6</ele>
        <time>2024-03-10T10:23:48Z</time>
      </trkpt>
      <trkpt lat="49.14726" lon="0.12905">
        <ele>166.7</ele>
        <time>2024-03-10T10:23:49Z</time>
      </trkpt>
      <trkpt lat="49.14719" lon="0.12906">
        <ele>166.7</ele>
        <time>2024-03-10T10:23:50Z</time>
      </trkpt>
      <trkpt lat="49.14712" lon="0.12907">
        <ele>166.8</ele>
        <time>2024-03-10T10:23:51Z</time>
      </trkpt>
      <trkpt lat="49.14705" lon="0.12909">
        <ele>166.9</ele>
        <time>2024-03-10T10:23:52Z</time>
      </trkpt>
      <trkpt lat="49.14698" lon="0.12911">
        <ele>167</ele>
        <time>2024-03-10T10:23:53Z</time>
      </trkpt>
      <trkpt lat="49.14692" lon="0.12913">
        <ele>167.1</ele>
        <time>2024-03-10T10:23:54Z</time>
      </trkpt>
      <trkpt lat="49.14686" lon="0.12915">
        <ele>167.2</ele>
        <time>2024-03-10T10:23:55Z</time>
      </trkpt>
      <trkpt lat="49.14679" lon="0.12916">
        <ele>167.2</ele>
        <time>2024-03-10T10:23:56Z</time>
      </trkpt>
      <trkpt lat="49.14673" lon="0.12918">
        <ele>167.3</ele>
        <time>2024-03-10T10:23:57Z</time>
      </trkpt>
      <trkpt lat="49.14667" lon="0.1292">
        <ele>167.4</ele>
        <time>2024-03-10T10:23:58Z</time>
      </trkpt>
      <trkpt lat="49.14661" lon="0.12921">
        <ele>167.4</ele>
        <time>2024-03-10T10:23:59Z</time>
      </trkpt>
      <trkpt lat="49.14655" lon="0.12922">
        <ele>167.5</ele>
        <time>2024-03-10T10:24:00Z</time>
      </trkpt>
      <trkpt lat="49.14649" lon="0.12923">
        <ele>167.5</ele>
        <time>2024-03-10T10:24:01Z</time>
      </trkpt>
      <trkpt lat="49.14643" lon="0.12924">
        <ele>167.6</ele>
        <time>2024-03-10T10:24:02Z</time>
      </trkpt>
      <trkpt lat="49.14636" lon="0.12924">
        <ele>167.6</ele>
        <time>2024-03-10T10:24:03Z</time>
      </trkpt>
      <trkpt lat="49.1463" lon="0.12923">
        <ele>167.7</ele>
        <time>2024-03-10T10:24:04Z</time>
      </trkpt>
      <trkpt lat="49.14624" lon="0.12921">
        <ele>167.7</ele>
        <time>2024-03-10T10:24:05Z</time>
      </trkpt>
      <trkpt lat="49.14618" lon="0.12918">
        <ele>167.8</ele>
        <time>2024-03-10T10:24:06Z</time>
      </trkpt>
      <trkpt lat="49.14612" lon="0.12913">
        <ele>167.8</ele>
        <time>2024-03-10T10:24:07Z</time>
      </trkpt>
      <trkpt lat="49.14607" lon="0.12906">
        <ele>167.8</ele>
        <time>2024-03-10T10:24:08Z</time>
      </trkpt>
      <trkpt lat="49.14602" lon="0.129">
        <ele>167.9</ele>
        <time>2024-03-10T10:24:09Z</time>
      </trkpt>
      <trkpt lat="49.14598" lon="0.12892">
        <ele>167.9</ele>
        <time>2024-03-10T10:24:10Z</time>
      </trkpt>
      <trkpt lat="49.14595" lon="0.12885">
        <ele>167.9</ele>
        <time>2024-03-10T10:24:11Z</time>
      </trkpt>
      <trkpt lat="49.14592" lon="0.12876">
        <ele>167.9</ele>
        <time>2024-03-10T10:24:12Z</time>
      </trkpt>
      <trkpt lat="49.14589" lon="0.12868">
        <ele>167.9</ele>
        <time>2024-03-10T10:24:13Z</time>
      </trkpt>
      <trkpt lat="49.14586" lon="0.12859">
        <ele>168</ele>
        <time>2024-03-10T10:24:14Z</time>
      </trkpt>
      <trkpt lat="49.14583" lon="0.1285">
        <ele>168</ele>
        <time>2024-03-10T10:24:15Z</time>
      </trkpt>
      <trkpt lat="49.14581" lon="0.12842">
        <ele>167.9</ele>
        <time>2024-03-10T10:24:16Z</time>
      </trkpt>
      <trkpt lat="49.14578" lon="0.12833">
        <ele>167.9</ele>
        <time>2024-03-10T10:24:17Z</time>
      </trkpt>
      <trkpt lat="49.14575" lon="0.12825">
        <ele>167.9</ele>
        <time>2024-03-10T10:24:18Z</time>
      </trkpt>
      <trkpt lat="49.14573" lon="0.12816">
        <ele>167.8</ele>
        <time>2024-03-10T10:24:19Z</time>
      </trkpt>
      <trkpt lat="49.1457" lon="0.12806">
        <ele>167.8</ele>
        <time>2024-03-10T10:24:20Z</time>
      </trkpt>
      <trkpt lat="49.14567" lon="0.12797">
        <ele>167.8</ele>
        <time>2024-03-10T10:24:21Z</time>
      </trkpt>
      <trkpt lat="49.14565" lon="0.12787">
        <ele>167.7</ele>
        <time>2024-03-10T10:24:22Z</time>
      </trkpt>
      <trkpt lat="49.14563" lon="0.12778">
        <ele>167.7</ele>
        <time>2024-03-10T10:24:23Z</time>
      </trkpt>
      <trkpt lat="49.14561" lon="0.12768">
        <ele>167.6</ele>
        <time>2024-03-10T10:24:24Z</time>
      </trkpt>
      <trkpt lat="49.1456" lon="0.12757">
        <ele>167.5</ele>
        <time>2024-03-10T10:24:25Z</time>
      </trkpt>
      <trkpt lat="49.14558" lon="0.12747">
        <ele>167.5</ele>
        <time>2024-03-10T10:24:26Z</time>
      </trkpt>
      <trkpt lat="49.14557" lon="0.12737">
        <ele>167.4</ele>
        <time>2024-03-10T10:24:27Z</time>
      </trkpt>
      <trkpt lat="49.14555" lon="0.12728">
        <ele>167.3</ele>
        <time>2024-03-10T10:24:28Z</time>
      </trkpt>
      <trkpt lat="49.14552" lon="0.12717">
        <ele>167.2</ele>
        <time>2024-03-10T10:24:29Z</time>
      </trkpt>
      <trkpt lat="49.14551" lon="0.12707">
        <ele>167.2</ele>
        <time>2024-03-10T10:24:30Z</time>
      </trkpt>
      <trkpt lat="49.14549" lon="0.12697">
        <ele>167.2</ele>
        <time>2024-03-10T10:24:31Z</time>
      </trkpt>
      <trkpt lat="49.14547" lon="0.12687">
        <ele>167.1</ele>
        <time>2024-03-10T10:24:32Z</time>
      </trkpt>
      <trkpt lat="49.14544" lon="0.12677">
        <ele>167</ele>
        <time>2024-03-10T10:24:33Z</time>
      </trkpt>
      <trkpt lat="49.14541" lon="0.12668">
        <ele>167</ele>
        <time>2024-03-10T10:24:34Z</time>
      </trkpt>
      <trkpt lat="49.14538" lon="0.12658">
        <ele>166.9</ele>
        <time>2024-03-10T10:24:35Z</time>
      </trkpt>
      <trkpt lat="49.14535" lon="0.12648">
        <ele>166.8</ele>
        <time>2024-03-10T10:24:36Z</time>
      </trkpt>
      <trkpt lat="49.14532" lon="0.12638">
        <ele>166.7</ele>
        <time>2024-03-10T10:24:37Z</time>
      </trkpt>
      <trkpt lat="49.14529" lon="0.12629">
        <ele>166.6</ele>
        <time>2024-03-10T10:24:38Z</time>
      </trkpt>
      <trkpt lat="49.14526" lon="0.12619">
        <ele>166.6</ele>
        <time>2024-03-10T10:24:39Z</time>
      </trkpt>
      <trkpt lat="49.14523" lon="0.1261">
        <ele>166.5</ele>
        <time>2024-03-10T10:24:40Z</time>
      </trkpt>
      <trkpt lat="49.1452" lon="0.126">
        <ele>166.4</ele>
        <time>2024-03-10T10:24:41Z</time>
      </trkpt>
      <trkpt lat="49.14517" lon="0.12591">
        <ele>166.3</ele>
        <time>2024-03-10T10:24:42Z</time>
      </trkpt>
      <trkpt lat="49.14514" lon="0.12582">
        <ele>166.2</ele>
        <time>2024-03-10T10:24:43Z</time>
      </trkpt>
      <trkpt lat="49.14512" lon="0.12573">
        <ele>166</ele>
        <time>2024-03-10T10:24:44Z</time>
      </trkpt>
      <trkpt lat="49.14509" lon="0.12563">
        <ele>165.8</ele>
        <time>2024-03-10T10:24:45Z</time>
      </trkpt>
      <trkpt lat="49.14506" lon="0.12554">
        <ele>165.7</ele>
        <time>2024-03-10T10:24:46Z</time>
      </trkpt>
      <trkpt lat="49.14503" lon="0.12545">
        <ele>165.5</ele>
        <time>2024-03-10T10:24:47Z</time>
      </trkpt>
      <trkpt lat="49.145" lon="0.12536">
        <ele>165.3</ele>
        <time>2024-03-10T10:24:48Z</time>
      </trkpt>
      <trkpt lat="49.14497" lon="0.12527">
        <ele>165.1</ele>
        <time>2024-03-10T10:24:49Z</time>
      </trkpt>
      <trkpt lat="49.14494" lon="0.12518">
        <ele>165</ele>
        <time>2024-03-10T10:24:50Z</time>
      </trkpt>
      <trkpt lat="49.14491" lon="0.12509">
        <ele>164.8</ele>
        <time>2024-03-10T10:24:51Z</time>
      </trkpt>
      <trkpt lat="49.14488" lon="0.125">
        <ele>164.7</ele>
        <time>2024-03-10T10:24:52Z</time>
      </trkpt>
      <trkpt lat="49.14485" lon="0.12491">
        <ele>164.6</ele>
        <time>2024-03-10T10:24:53Z</time>
      </trkpt>
      <trkpt lat="49.14482" lon="0.12482">
        <ele>164.4</ele>
        <time>2024-03-10T10:24:54Z</time>
      </trkpt>
      <trkpt lat="49.1448" lon="0.12473">
        <ele>164.3</ele>
        <time>2024-03-10T10:24:55Z</time>
      </trkpt>
      <trkpt lat="49.14477" lon="0.12465">
        <ele>164.2</ele>
        <time>2024-03-10T10:24:56Z</time>
      </trkpt>
      <trkpt lat="49.14474" lon="0.12456">
        <ele>164.2</ele>
        <time>2024-03-10T10:24:57Z</time>
      </trkpt>
      <trkpt lat="49.14472" lon="0.12448">
        <ele>164.1</ele>
        <time>2024-03-10T10:24:58Z</time>
      </trkpt>
      <trkpt lat="49.14469" lon="0.1244">
        <ele>164.1</ele>
        <time>2024-03-10T10:24:59Z</time>
      </trkpt>
      <trkpt lat="49.14467" lon="0.12433">
        <ele>164.1</ele>
        <time>2024-03-10T10:25:00Z</time>
      </trkpt>
      <trkpt lat="49.14464" lon="0.12426">
        <ele>164.1</ele>
        <time>2024-03-10T10:25:01Z</time>
      </trkpt>
      <trkpt lat="49.14463" lon="0.12421">
        <ele>164.1</ele>
        <time>2024-03-10T10:25:02Z</time>
      </trkpt>
      <trkpt lat="49.14461" lon="0.12417">
        <ele>164.1</ele>
        <time>2024-03-10T10:25:03Z</time>
      </trkpt>
      <trkpt lat="49.14461" lon="0.12416">
        <ele>164.1</ele>
        <time>2024-03-10T10:25:04Z</time>
      </trkpt>
      <trkpt lat="49.14461" lon="0.12414">
        <ele>164.1</ele>
        <time>2024-03-10T10:25:05Z</time>
      </trkpt>
      <trkpt lat="49.14461" lon="0.12412">
        <ele>164.1</ele>
        <time>2024-03-10T10:25:06Z</time>
      </trkpt>
      <trkpt lat="49.14461" lon="0.12411">
        <ele>164.1</ele>
        <time>2024-03-10T10:25:07Z</time>
      </trkpt>
      <trkpt lat="49.14461" lon="0.1241">
        <ele>164.1</ele>
        <time>2024-03-10T10:25:08Z</time>
      </trkpt>
      <trkpt lat="49.14461" lon="0.12409">
        <ele>164.1</ele>
        <time>2024-03-10T10:25:09Z</time>
      </trkpt>
      <trkpt lat="49.14461" lon="0.12408">
        <ele>164.1</ele>
        <time>2024-03-10T10:25:10Z</time>
      </trkpt>
      <trkpt lat="49.1446" lon="0.12407">
        <ele>164.1</ele>
        <time>2024-03-10T10:25:11Z</time>
      </trkpt>
      <trkpt lat="49.1446" lon="0.12407">
        <ele>164.1</ele>
        <time>2024-03-10T10:25:12Z</time>
      </trkpt>
      <trkpt lat="49.1446" lon="0.12407">
        <ele>164.1</ele>
        <time>2024-03-10T10:25:13Z</time>
      </trkpt>
      <trkpt lat="49.1446" lon="0.12407">
        <ele>164.1</ele>
        <time>2024-03-10T10:25:14Z</time>
      </trkpt>
      <trkpt lat="49.1446" lon="0.12407">
        <ele>164.1</ele>
        <time>2024-03-10T10:25:15Z</time>
      </trkpt>
      <trkpt lat="49.1446" lon="0.12407">
        <ele>164.1</ele>
        <time>2024-03-10T10:25:16Z</time>
      </trkpt>
      <trkpt lat="49.1446" lon="0.12407">
        <ele>164.1</ele>
        <time>2024-03-10T10:25:17Z</time>
      </trkpt>
      <trkpt lat="49.1446" lon="0.12407">
        <ele>164.1</ele>
        <time>2024-03-10T10:25:18Z</time>
      </trkpt>
      <trkpt lat="49.1446" lon="0.12407">
        <ele>164.1</ele>
        <time>2024-03-10T10:25:19Z</time>
      </trkpt>
      <trkpt lat="49.1446" lon="0.12407">
        <ele>164.1</ele>
        <time>2024-03-10T10:25:20Z</time>
      </trkpt>
      <trkpt lat="49.1446" lon="0.12407">
        <ele>164.1</ele>
        <time>2024-03-10T10:25:21Z</time>
      </trkpt>
      <trkpt lat="49.1446" lon="0.12407">
        <ele>164.1</ele>
        <time>2024-03-10T10:25:22Z</time>
      </trkpt>
      <trkpt lat="49.1446" lon="0.12407">
        <ele>164.1</ele>
        <time>2024-03-10T10:25:23Z</time>
      </trkpt>
      <trkpt lat="49.1446" lon="0.12407">
        <ele>164.1</ele>
        <time>2024-03-10T10:25:24Z</time>
      </trkpt>
      <trkpt lat="49.1446" lon="0.12407">
        <ele>164.1</ele>
        <time>2024-03-10T10:25:25Z</time>
      </trkpt>
      <trkpt lat="49.14461" lon="0.12406">
        <ele>164.1</ele>
        <time>2024-03-10T10:25:26Z</time>
      </trkpt>
      <trkpt lat="49.14461" lon="0.12404">
        <ele>164.1</ele>
        <time>2024-03-10T10:25:27Z</time>
      </trkpt>
      <trkpt lat="49.14462" lon="0.12403">
        <ele>164.1</ele>
        <time>2024-03-10T10:25:28Z</time>
      </trkpt>
      <trkpt lat="49.14465" lon="0.12401">
        <ele>164</ele>
        <time>2024-03-10T10:25:29Z</time>
      </trkpt>
      <trkpt lat="49.14466" lon="0.124">
        <ele>164</ele>
        <time>2024-03-10T10:25:30Z</time>
      </trkpt>
      <trkpt lat="49.14468" lon="0.12397">
        <ele>164</ele>
        <time>2024-03-10T10:25:31Z</time>
      </trkpt>
      <trkpt lat="49.14469" lon="0.12395">
        <ele>164</ele>
        <time>2024-03-10T10:25:32Z</time>
      </trkpt>
      <trkpt lat="49.14472" lon="0.12393">
        <ele>164</ele>
        <time>2024-03-10T10:25:33Z</time>
      </trkpt>
      <trkpt lat="49.14475" lon="0.12392">
        <ele>163.9</ele>
        <time>2024-03-10T10:25:34Z</time>
      </trkpt>
      <trkpt lat="49.14479" lon="0.12391">
        <ele>163.9</ele>
        <time>2024-03-10T10:25:35Z</time>
      </trkpt>
      <trkpt lat="49.14482" lon="0.12388">
        <ele>163.9</ele>
        <time>2024-03-10T10:25:36Z</time>
      </trkpt>
      <trkpt lat="49.14485" lon="0.12386">
        <ele>163.9</ele>
        <time>2024-03-10T10:25:37Z</time>
      </trkpt>
      <trkpt lat="49.14489" lon="0.12383">
        <ele>163.8</ele>
        <time>2024-03-10T10:25:38Z</time>
      </trkpt>
      <trkpt lat="49.14492" lon="0.12381">
        <ele>163.8</ele>
        <time>2024-03-10T10:25:39Z</time>
      </trkpt>
      <trkpt lat="49.14496" lon="0.12379">
        <ele>163.8</ele>
        <time>2024-03-10T10:25:40Z</time>
      </trkpt>
      <trkpt lat="49.145" lon="0.12377">
        <ele>163.8</ele>
        <time>2024-03-10T10:25:41Z</time>
      </trkpt>
      <trkpt lat="49.14503" lon="0.12375">
        <ele>163.8</ele>
        <time>2024-03-10T10:25:42Z</time>
      </trkpt>
      <trkpt lat="49.14507" lon="0.12373">
        <ele>163.7</ele>
        <time>2024-03-10T10:25:43Z</time>
      </trkpt>
      <trkpt lat="49.14511" lon="0.12372">
        <ele>163.7</ele>
        <time>2024-03-10T10:25:44Z</time>
      </trkpt>
      <trkpt lat="49.14515" lon="0.1237">
        <ele>163.7</ele>
        <time>2024-03-10T10:25:45Z</time>
      </trkpt>
      <trkpt lat="49.14518" lon="0.12367">
        <ele>163.7</ele>
        <time>2024-03-10T10:25:46Z</time>
      </trkpt>
      <trkpt lat="49.14522" lon="0.12365">
        <ele>163.7</ele>
        <time>2024-03-10T10:25:47Z</time>
      </trkpt>
      <trkpt lat="49.14526" lon="0.12363">
        <ele>163.7</ele>
        <time>2024-03-10T10:25:48Z</time>
      </trkpt>
      <trkpt lat="49.14531" lon="0.12361">
        <ele>163.6</ele>
        <time>2024-03-10T10:25:49Z</time>
      </trkpt>
      <trkpt lat="49.14535" lon="0.12358">
        <ele>163.6</ele>
        <time>2024-03-10T10:25:50Z</time>
      </trkpt>
      <trkpt lat="49.14539" lon="0.12355">
        <ele>163.6</ele>
        <time>2024-03-10T10:25:51Z</time>
      </trkpt>
      <trkpt lat="49.14544" lon="0.12353">
        <ele>163.5</ele>
        <time>2024-03-10T10:25:52Z</time>
      </trkpt>
      <trkpt lat="49.14548" lon="0.12351">
        <ele>163.5</ele>
        <time>2024-03-10T10:25:53Z</time>
      </trkpt>
      <trkpt lat="49.14552" lon="0.12348">
        <ele>163.4</ele>
        <time>2024-03-10T10:25:54Z</time>
      </trkpt>
      <trkpt lat="49.14557" lon="0.12346">
        <ele>163.4</ele>
        <time>2024-03-10T10:25:55Z</time>
      </trkpt>
      <trkpt lat="49.14561" lon="0.12344">
        <ele>163.4</ele>
        <time>2024-03-10T10:25:56Z</time>
      </trkpt>
      <trkpt lat="49.14565" lon="0.12342">
        <ele>163.3</ele>
        <time>2024-03-10T10:25:57Z</time>
      </trkpt>
      <trkpt lat="49.14569" lon="0.12339">
        <ele>163.3</ele>
        <time>2024-03-10T10:25:58Z</time>
      </trkpt>
      <trkpt lat="49.14573" lon="0.12337">
        <ele>163.3</ele>
        <time>2024-03-10T10:25:59Z</time>
      </trkpt>
      <trkpt lat="49.14578" lon="0.12334">
        <ele>163.2</ele>
        <time>2024-03-10T10:26:00Z</time>
      </trkpt>
      <trkpt lat="49.14582" lon="0.12331">
        <ele>163.2</ele>
        <time>2024-03-10T10:26:01Z</time>
      </trkpt>
      <trkpt lat="49.14587" lon="0.12328">
        <ele>163.1</ele>
        <time>2024-03-10T10:26:02Z</time>
      </trkpt>
      <trkpt lat="49.14591" lon="0.12325">
        <ele>163.1</ele>
        <time>2024-03-10T10:26:03Z</time>
      </trkpt>
      <trkpt lat="49.14596" lon="0.12323">
        <ele>163</ele>
        <time>2024-03-10T10:26:04Z</time>
      </trkpt>
      <trkpt lat="49.14601" lon="0.1232">
        <ele>163</ele>
        <time>2024-03-10T10:26:05Z</time>
      </trkpt>
      <trkpt lat="49.14605" lon="0.12318">
        <ele>163</ele>
        <time>2024-03-10T10:26:06Z</time>
      </trkpt>
      <trkpt lat="49.1461" lon="0.12315">
        <ele>162.9</ele>
        <time>2024-03-10T10:26:07Z</time>
      </trkpt>
      <trkpt lat="49.14614" lon="0.12311">
        <ele>162.9</ele>
        <time>2024-03-10T10:26:08Z</time>
      </trkpt>
      <trkpt lat="49.14618" lon="0.12309">
        <ele>162.8</ele>
        <time>2024-03-10T10:26:09Z</time>
      </trkpt>
      <trkpt lat="49.14623" lon="0.12306">
        <ele>162.8</ele>
        <time>2024-03-10T10:26:10Z</time>
      </trkpt>
      <trkpt lat="49.14628" lon="0.12304">
        <ele>162.7</ele>
        <time>2024-03-10T10:26:11Z</time>
      </trkpt>
      <trkpt lat="49.14632" lon="0.12301">
        <ele>162.7</ele>
        <time>2024-03-10T10:26:12Z</time>
      </trkpt>
      <trkpt lat="49.14637" lon="0.12298">
        <ele>162.7</ele>
        <time>2024-03-10T10:26:13Z</time>
      </trkpt>
      <trkpt lat="49.14641" lon="0.12296">
        <ele>162.6</ele>
        <time>2024-03-10T10:26:14Z</time>
      </trkpt>
      <trkpt lat="49.14646" lon="0.12294">
        <ele>162.5</ele>
        <time>2024-03-10T10:26:15Z</time>
      </trkpt>
      <trkpt lat="49.14651" lon="0.12291">
        <ele>162.5</ele>
        <time>2024-03-10T10:26:16Z</time>
      </trkpt>
      <trkpt lat="49.14656" lon="0.12289">
        <ele>162.4</ele>
        <time>2024-03-10T10:26:17Z</time>
      </trkpt>
      <trkpt lat="49.14662" lon="0.12286">
        <ele>162.3</ele>
        <time>2024-03-10T10:26:18Z</time>
      </trkpt>
      <trkpt lat="49.14667" lon="0.12283">
        <ele>162.2</ele>
        <time>2024-03-10T10:26:19Z</time>
      </trkpt>
      <trkpt lat="49.14673" lon="0.1228">
        <ele>162.1</ele>
        <time>2024-03-10T10:26:20Z</time>
      </trkpt>
      <trkpt lat="49.14679" lon="0.12276">
        <ele>161.9</ele>
        <time>2024-03-10T10:26:21Z</time>
      </trkpt>
      <trkpt lat="49.14685" lon="0.12272">
        <ele>161.7</ele>
        <time>2024-03-10T10:26:22Z</time>
      </trkpt>
      <trkpt lat="49.14692" lon="0.12268">
        <ele>161.5</ele>
        <time>2024-03-10T10:26:23Z</time>
      </trkpt>
      <trkpt lat="49.14699" lon="0.12264">
        <ele>161.2</ele>
        <time>2024-03-10T10:26:24Z</time>
      </trkpt>
      <trkpt lat="49.14706" lon="0.1226">
        <ele>161</ele>
        <time>2024-03-10T10:26:25Z</time>
      </trkpt>
      <trkpt lat="49.14713" lon="0.12256">
        <ele>160.7</ele>
        <time>2024-03-10T10:26:26Z</time>
      </trkpt>
      <trkpt lat="49.1472" lon="0.12251">
        <ele>160.3</ele>
        <time>2024-03-10T10:26:27Z</time>
      </trkpt>
      <trkpt lat="49.14728" lon="0.12247">
        <ele>160</ele>
        <time>2024-03-10T10:26:28Z</time>
      </trkpt>
      <trkpt lat="49.14735" lon="0.12242">
        <ele>159.7</ele>
        <time>2024-03-10T10:26:29Z</time>
      </trkpt>
      <trkpt lat="49.14743" lon="0.12238">
        <ele>159.3</ele>
        <time>2024-03-10T10:26:30Z</time>
      </trkpt>
      <trkpt lat="49.14751" lon="0.12233">
        <ele>159</ele>
        <time>2024-03-10T10:26:31Z</time>
      </trkpt>
      <trkpt lat="49.1476" lon="0.12228">
        <ele>158.6</ele>
        <time>2024-03-10T10:26:32Z</time>
      </trkpt>
      <trkpt lat="49.14768" lon="0.12224">
        <ele>158.3</ele>
        <time>2024-03-10T10:26:33Z</time>
      </trkpt>
      <trkpt lat="49.14777" lon="0.12218">
        <ele>157.9</ele>
        <time>2024-03-10T10:26:34Z</time>
      </trkpt>
      <trkpt lat="49.14785" lon="0.12212">
        <ele>157.5</ele>
        <time>2024-03-10T10:26:35Z</time>
      </trkpt>
      <trkpt lat="49.14793" lon="0.12204">
        <ele>157.1</ele>
        <time>2024-03-10T10:26:36Z</time>
      </trkpt>
      <trkpt lat="49.14801" lon="0.12196">
        <ele>156.7</ele>
        <time>2024-03-10T10:26:37Z</time>
      </trkpt>
      <trkpt lat="49.14809" lon="0.12187">
        <ele>156.2</ele>
        <time>2024-03-10T10:26:38Z</time>
      </trkpt>
      <trkpt lat="49.14816" lon="0.12178">
        <ele>155.8</ele>
        <time>2024-03-10T10:26:39Z</time>
      </trkpt>
      <trkpt lat="49.14823" lon="0.12167">
        <ele>155.7</ele>
        <time>2024-03-10T10:26:40Z</time>
      </trkpt>
      <trkpt lat="49.14829" lon="0.12156">
        <ele>155.2</ele>
        <time>2024-03-10T10:26:41Z</time>
      </trkpt>
      <trkpt lat="49.14835" lon="0.12144">
        <ele>154.7</ele>
        <time>2024-03-10T10:26:42Z</time>
      </trkpt>
      <trkpt lat="49.1484" lon="0.12131">
        <ele>154.2</ele>
        <time>2024-03-10T10:26:43Z</time>
      </trkpt>
      <trkpt lat="49.14845" lon="0.12118">
        <ele>153.7</ele>
        <time>2024-03-10T10:26:44Z</time>
      </trkpt>
      <trkpt lat="49.1485" lon="0.12105">
        <ele>153.1</ele>
        <time>2024-03-10T10:26:45Z</time>
      </trkpt>
      <trkpt lat="49.14854" lon="0.12091">
        <ele>152.5</ele>
        <time>2024-03-10T10:26:46Z</time>
      </trkpt>
      <trkpt lat="49.14858" lon="0.12076">
        <ele>151.9</ele>
        <time>2024-03-10T10:26:47Z</time>
      </trkpt>
      <trkpt lat="49.14861" lon="0.12061">
        <ele>151.3</ele>
        <time>2024-03-10T10:26:48Z</time>
      </trkpt>
      <trkpt lat="49.14865" lon="0.12046">
        <ele>150.6</ele>
        <time>2024-03-10T10:26:49Z</time>
      </trkpt>
      <trkpt lat="49.14868" lon="0.1203">
        <ele>150</ele>
        <time>2024-03-10T10:26:50Z</time>
      </trkpt>
      <trkpt lat="49.14871" lon="0.12015">
        <ele>149.4</ele>
        <time>2024-03-10T10:26:51Z</time>
      </trkpt>
      <trkpt lat="49.14875" lon="0.11999">
        <ele>148.8</ele>
        <time>2024-03-10T10:26:52Z</time>
      </trkpt>
      <trkpt lat="49.14879" lon="0.11984">
        <ele>148.2</ele>
        <time>2024-03-10T10:26:53Z</time>
      </trkpt>
      <trkpt lat="49.14882" lon="0.11968">
        <ele>147.6</ele>
        <time>2024-03-10T10:26:54Z</time>
      </trkpt>
      <trkpt lat="49.14885" lon="0.11952">
        <ele>147</ele>
        <time>2024-03-10T10:26:55Z</time>
      </trkpt>
      <trkpt lat="49.14889" lon="0.11935">
        <ele>146.3</ele>
        <time>2024-03-10T10:26:56Z</time>
      </trkpt>
      <trkpt lat="49.14892" lon="0.11918">
        <ele>145.7</ele>
        <time>2024-03-10T10:26:57Z</time>
      </trkpt>
      <trkpt lat="49.14896" lon="0.11902">
        <ele>145</ele>
        <time>2024-03-10T10:26:58Z</time>
      </trkpt>
      <trkpt lat="49.14899" lon="0.11885">
        <ele>144.4</ele>
        <time>2024-03-10T10:26:59Z</time>
      </trkpt>
      <trkpt lat="49.14903" lon="0.11868">
        <ele>143.7</ele>
        <time>2024-03-10T10:27:00Z</time>
      </trkpt>
      <trkpt lat="49.14906" lon="0.11852">
        <ele>143.1</ele>
        <time>2024-03-10T10:27:01Z</time>
      </trkpt>
      <trkpt lat="49.1491" lon="0.11836">
        <ele>142.5</ele>
        <time>2024-03-10T10:27:02Z</time>
      </trkpt>
      <trkpt lat="49.14915" lon="0.1182">
        <ele>141.8</ele>
        <time>2024-03-10T10:27:03Z</time>
      </trkpt>
      <trkpt lat="49.1492" lon="0.11806">
        <ele>141.2</ele>
        <time>2024-03-10T10:27:04Z</time>
      </trkpt>
      <trkpt lat="49.14927" lon="0.11791">
        <ele>140.5</ele>
        <time>2024-03-10T10:27:05Z</time>
      </trkpt>
      <trkpt lat="49.14936" lon="0.11779">
        <ele>139.8</ele>
        <time>2024-03-10T10:27:06Z</time>
      </trkpt>
      <trkpt lat="49.14945" lon="0.11769">
        <ele>139.2</ele>
        <time>2024-03-10T10:27:07Z</time>
      </trkpt>
      <trkpt lat="49.14955" lon="0.1176">
        <ele>138.6</ele>
        <time>2024-03-10T10:27:08Z</time>
      </trkpt>
      <trkpt lat="49.14966" lon="0.11752">
        <ele>138.1</ele>
        <time>2024-03-10T10:27:09Z</time>
      </trkpt>
      <trkpt lat="49.14976" lon="0.11743">
        <ele>137.6</ele>
        <time>2024-03-10T10:27:10Z</time>
      </trkpt>
      <trkpt lat="49.14986" lon="0.11735">
        <ele>138.5</ele>
        <time>2024-03-10T10:27:11Z</time>
      </trkpt>
      <trkpt lat="49.14996" lon="0.11725">
        <ele>138.3</ele>
        <time>2024-03-10T10:27:12Z</time>
      </trkpt>
      <trkpt lat="49.15005" lon="0.11714">
        <ele>138.1</ele>
        <time>2024-03-10T10:27:13Z</time>
      </trkpt>
      <trkpt lat="49.15014" lon="0.11702">
        <ele>137.9</ele>
        <time>2024-03-10T10:27:14Z</time>
      </trkpt>
      <trkpt lat="49.15021" lon="0.11691">
        <ele>137.7</ele>
        <time>2024-03-10T10:27:15Z</time>
      </trkpt>
      <trkpt lat="49.15029" lon="0.11678">
        <ele>137.6</ele>
        <time>2024-03-10T10:27:16Z</time>
      </trkpt>
      <trkpt lat="49.15035" lon="0.11664">
        <ele>137.4</ele>
        <time>2024-03-10T10:27:17Z</time>
      </trkpt>
      <trkpt lat="49.15041" lon="0.11649">
        <ele>137.2</ele>
        <time>2024-03-10T10:27:18Z</time>
      </trkpt>
      <trkpt lat="49.15046" lon="0.11635">
        <ele>137</ele>
        <time>2024-03-10T10:27:19Z</time>
      </trkpt>
      <trkpt lat="49.15051" lon="0.1162">
        <ele>136.9</ele>
        <time>2024-03-10T10:27:20Z</time>
      </trkpt>
      <trkpt lat="49.15056" lon="0.11605">
        <ele>136.8</ele>
        <time>2024-03-10T10:27:21Z</time>
      </trkpt>
      <trkpt lat="49.1506" lon="0.1159">
        <ele>136.7</ele>
        <time>2024-03-10T10:27:22Z</time>
      </trkpt>
      <trkpt lat="49.15065" lon="0.11576">
        <ele>136.5</ele>
        <time>2024-03-10T10:27:23Z</time>
      </trkpt>
      <trkpt lat="49.1507" lon="0.11562">
        <ele>136.3</ele>
        <time>2024-03-10T10:27:24Z</time>
      </trkpt>
      <trkpt lat="49.15075" lon="0.11548">
        <ele>136.2</ele>
        <time>2024-03-10T10:27:25Z</time>
      </trkpt>
      <trkpt lat="49.1508" lon="0.11535">
        <ele>136</ele>
        <time>2024-03-10T10:27:26Z</time>
      </trkpt>
      <trkpt lat="49.15085" lon="0.11523">
        <ele>135.9</ele>
        <time>2024-03-10T10:27:27Z</time>
      </trkpt>
      <trkpt lat="49.1509" lon="0.1151">
        <ele>135.8</ele>
        <time>2024-03-10T10:27:28Z</time>
      </trkpt>
      <trkpt lat="49.15096" lon="0.11498">
        <ele>135.7</ele>
        <time>2024-03-10T10:27:29Z</time>
      </trkpt>
      <trkpt lat="49.15103" lon="0.11486">
        <ele>135.6</ele>
        <time>2024-03-10T10:27:30Z</time>
      </trkpt>
      <trkpt lat="49.1511" lon="0.11475">
        <ele>135.5</ele>
        <time>2024-03-10T10:27:31Z</time>
      </trkpt>
      <trkpt lat="49.15117" lon="0.11464">
        <ele>135.4</ele>
        <time>2024-03-10T10:27:32Z</time>
      </trkpt>
      <trkpt lat="49.15124" lon="0.11452">
        <ele>135.3</ele>
        <time>2024-03-10T10:27:33Z</time>
      </trkpt>
      <trkpt lat="49.15131" lon="0.11441">
        <ele>135.2</ele>
        <time>2024-03-10T10:27:34Z</time>
      </trkpt>
      <trkpt lat="49.15137" lon="0.11429">
        <ele>135.1</ele>
        <time>2024-03-10T10:27:35Z</time>
      </trkpt>
      <trkpt lat="49.15144" lon="0.11418">
        <ele>134.9</ele>
        <time>2024-03-10T10:27:36Z</time>
      </trkpt>
      <trkpt lat="49.1515" lon="0.11407">
        <ele>134.7</ele>
        <time>2024-03-10T10:27:37Z</time>
      </trkpt>
      <trkpt lat="49.15157" lon="0.11396">
        <ele>134.4</ele>
        <time>2024-03-10T10:27:38Z</time>
      </trkpt>
      <trkpt lat="49.15164" lon="0.11385">
        <ele>134.2</ele>
        <time>2024-03-10T10:27:39Z</time>
      </trkpt>
      <trkpt lat="49.15171" lon="0.11375">
        <ele>133.8</ele>
        <time>2024-03-10T10:27:40Z</time>
      </trkpt>
      <trkpt lat="49.15179" lon="0.11365">
        <ele>133.5</ele>
        <time>2024-03-10T10:27:41Z</time>
      </trkpt>
      <trkpt lat="49.15187" lon="0.11354">
        <ele>133.1</ele>
        <time>2024-03-10T10:27:42Z</time>
      </trkpt>
      <trkpt lat="49.15196" lon="0.11344">
        <ele>132.7</ele>
        <time>2024-03-10T10:27:43Z</time>
      </trkpt>
      <trkpt lat="49.15204" lon="0.11334">
        <ele>132.3</ele>
        <time>2024-03-10T10:27:44Z</time>
      </trkpt>
      <trkpt lat="49.15212" lon="0.11325">
        <ele>131.9</ele>
        <time>2024-03-10T10:27:45Z</time>
      </trkpt>
      <trkpt lat="49.15221" lon="0.11315">
        <ele>131.5</ele>
        <time>2024-03-10T10:27:46Z</time>
      </trkpt>
      <trkpt lat="49.15229" lon="0.11308">
        <ele>131.1</ele>
        <time>2024-03-10T10:27:47Z</time>
      </trkpt>
      <trkpt lat="49.15238" lon="0.11301">
        <ele>130.8</ele>
        <time>2024-03-10T10:27:48Z</time>
      </trkpt>
      <trkpt lat="49.15246" lon="0.11294">
        <ele>130.4</ele>
        <time>2024-03-10T10:27:49Z</time>
      </trkpt>
      <trkpt lat="49.15255" lon="0.11286">
        <ele>130</ele>
        <time>2024-03-10T10:27:50Z</time>
      </trkpt>
      <trkpt lat="49.15263" lon="0.11278">
        <ele>129.6</ele>
        <time>2024-03-10T10:27:51Z</time>
      </trkpt>
      <trkpt lat="49.15272" lon="0.11269">
        <ele>129.1</ele>
        <time>2024-03-10T10:27:52Z</time>
      </trkpt>
      <trkpt lat="49.15281" lon="0.1126">
        <ele>128.6</ele>
        <time>2024-03-10T10:27:53Z</time>
      </trkpt>
      <trkpt lat="49.1529" lon="0.11251">
        <ele>128.2</ele>
        <time>2024-03-10T10:27:54Z</time>
      </trkpt>
      <trkpt lat="49.15298" lon="0.11242">
        <ele>127.7</ele>
        <time>2024-03-10T10:27:55Z</time>
      </trkpt>
      <trkpt lat="49.15306" lon="0.11233">
        <ele>127.2</ele>
        <time>2024-03-10T10:27:56Z</time>
      </trkpt>
      <trkpt lat="49.15315" lon="0.11223">
        <ele>126.6</ele>
        <time>2024-03-10T10:27:57Z</time>
      </trkpt>
      <trkpt lat="49.15324" lon="0.11212">
        <ele>125.9</ele>
        <time>2024-03-10T10:27:58Z</time>
      </trkpt>
      <trkpt lat="49.15333" lon="0.11201">
        <ele>125.3</ele>
        <time>2024-03-10T10:27:59Z</time>
      </trkpt>
      <trkpt lat="49.15341" lon="0.11189">
        <ele>124.7</ele>
        <time>2024-03-10T10:28:00Z</time>
      </trkpt>
      <trkpt lat="49.1535" lon="0.11176">
        <ele>124.2</ele>
        <time>2024-03-10T10:28:01Z</time>
      </trkpt>
      <trkpt lat="49.15359" lon="0.11162">
        <ele>123.9</ele>
        <time>2024-03-10T10:28:02Z</time>
      </trkpt>
      <trkpt lat="49.15367" lon="0.11148">
        <ele>123.7</ele>
        <time>2024-03-10T10:28:03Z</time>
      </trkpt>
      <trkpt lat="49.15375" lon="0.11135">
        <ele>123.7</ele>
        <time>2024-03-10T10:28:04Z</time>
      </trkpt>
      <trkpt lat="49.15382" lon="0.11122">
        <ele>123.8</ele>
        <time>2024-03-10T10:28:05Z</time>
      </trkpt>
      <trkpt lat="49.15389" lon="0.11111">
        <ele>123.9</ele>
        <time>2024-03-10T10:28:06Z</time>
      </trkpt>
      <trkpt lat="49.15396" lon="0.111">
        <ele>124</ele>
        <time>2024-03-10T10:28:07Z</time>
      </trkpt>
      <trkpt lat="49.15403" lon="0.11089">
        <ele>124.1</ele>
        <time>2024-03-10T10:28:08Z</time>
      </trkpt>
      <trkpt lat="49.1541" lon="0.11078">
        <ele>124.2</ele>
        <time>2024-03-10T10:28:09Z</time>
      </trkpt>
      <trkpt lat="49.15416" lon="0.11067">
        <ele>124.3</ele>
        <time>2024-03-10T10:28:10Z</time>
      </trkpt>
      <trkpt lat="49.15423" lon="0.11056">
        <ele>124.4</ele>
        <time>2024-03-10T10:28:11Z</time>
      </trkpt>
      <trkpt lat="49.15429" lon="0.11046">
        <ele>124.5</ele>
        <time>2024-03-10T10:28:12Z</time>
      </trkpt>
      <trkpt lat="49.15435" lon="0.11036">
        <ele>124.5</ele>
        <time>2024-03-10T10:28:13Z</time>
      </trkpt>
      <trkpt lat="49.15441" lon="0.11026">
        <ele>124.5</ele>
        <time>2024-03-10T10:28:14Z</time>
      </trkpt>
      <trkpt lat="49.15447" lon="0.11016">
        <ele>124.5</ele>
        <time>2024-03-10T10:28:15Z</time>
      </trkpt>
      <trkpt lat="49.15454" lon="0.11005">
        <ele>124.5</ele>
        <time>2024-03-10T10:28:16Z</time>
      </trkpt>
      <trkpt lat="49.1546" lon="0.10995">
        <ele>124.3</ele>
        <time>2024-03-10T10:28:17Z</time>
      </trkpt>
      <trkpt lat="49.15466" lon="0.10984">
        <ele>124.2</ele>
        <time>2024-03-10T10:28:18Z</time>
      </trkpt>
      <trkpt lat="49.15472" lon="0.10973">
        <ele>123.9</ele>
        <time>2024-03-10T10:28:19Z</time>
      </trkpt>
      <trkpt lat="49.15479" lon="0.10963">
        <ele>123.7</ele>
        <time>2024-03-10T10:28:20Z</time>
      </trkpt>
      <trkpt lat="49.15486" lon="0.10951">
        <ele>123.6</ele>
        <time>2024-03-10T10:28:21Z</time>
      </trkpt>
      <trkpt lat="49.15492" lon="0.1094">
        <ele>123.6</ele>
        <time>2024-03-10T10:28:22Z</time>
      </trkpt>
      <trkpt lat="49.15499" lon="0.1093">
        <ele>123.6</ele>
        <time>2024-03-10T10:28:23Z</time>
      </trkpt>
      <trkpt lat="49.15505" lon="0.10919">
        <ele>123.5</ele>
        <time>2024-03-10T10:28:24Z</time>
      </trkpt>
      <trkpt lat="49.15512" lon="0.10909">
        <ele>123.3</ele>
        <time>2024-03-10T10:28:25Z</time>
      </trkpt>
      <trkpt lat="49.15518" lon="0.10899">
        <ele>123.1</ele>
        <time>2024-03-10T10:28:26Z</time>
      </trkpt>
      <trkpt lat="49.15525" lon="0.10889">
        <ele>122.9</ele>
        <time>2024-03-10T10:28:27Z</time>
      </trkpt>
      <trkpt lat="49.15531" lon="0.10879">
        <ele>122.8</ele>
        <time>2024-03-10T10:28:28Z</time>
      </trkpt>
      <trkpt lat="49.15537" lon="0.10869">
        <ele>122.6</ele>
        <time>2024-03-10T10:28:29Z</time>
      </trkpt>
      <trkpt lat="49.15544" lon="0.10858">
        <ele>122.4</ele>
        <time>2024-03-10T10:28:30Z</time>
      </trkpt>
      <trkpt lat="49.1555" lon="0.10848">
        <ele>122.3</ele>
        <time>2024-03-10T10:28:31Z</time>
      </trkpt>
      <trkpt lat="49.15556" lon="0.10838">
        <ele>122.1</ele>
        <time>2024-03-10T10:28:32Z</time>
      </trkpt>
      <trkpt lat="49.15563" lon="0.10828">
        <ele>122</ele>
        <time>2024-03-10T10:28:33Z</time>
      </trkpt>
      <trkpt lat="49.1557" lon="0.10818">
        <ele>121.9</ele>
        <time>2024-03-10T10:28:34Z</time>
      </trkpt>
      <trkpt lat="49.15577" lon="0.10807">
        <ele>121.8</ele>
        <time>2024-03-10T10:28:35Z</time>
      </trkpt>
      <trkpt lat="49.15583" lon="0.10796">
        <ele>121.8</ele>
        <time>2024-03-10T10:28:36Z</time>
      </trkpt>
      <trkpt lat="49.1559" lon="0.10785">
        <ele>121.8</ele>
        <time>2024-03-10T10:28:37Z</time>
      </trkpt>
      <trkpt lat="49.15596" lon="0.10775">
        <ele>121.7</ele>
        <time>2024-03-10T10:28:38Z</time>
      </trkpt>
      <trkpt lat="49.15602" lon="0.10764">
        <ele>121.7</ele>
        <time>2024-03-10T10:28:39Z</time>
      </trkpt>
      <trkpt lat="49.15609" lon="0.10754">
        <ele>121.6</ele>
        <time>2024-03-10T10:28:40Z</time>
      </trkpt>
      <trkpt lat="49.15616" lon="0.10744">
        <ele>121.6</ele>
        <time>2024-03-10T10:28:41Z</time>
      </trkpt>
      <trkpt lat="49.15622" lon="0.10734">
        <ele>121.5</ele>
        <time>2024-03-10T10:28:42Z</time>
      </trkpt>
      <trkpt lat="49.15629" lon="0.10724">
        <ele>121.4</ele>
        <time>2024-03-10T10:28:43Z</time>
      </trkpt>
      <trkpt lat="49.15636" lon="0.10713">
        <ele>121.3</ele>
        <time>2024-03-10T10:28:44Z</time>
      </trkpt>
      <trkpt lat="49.15643" lon="0.10702">
        <ele>121.2</ele>
        <time>2024-03-10T10:28:45Z</time>
      </trkpt>
      <trkpt lat="49.15649" lon="0.1069">
        <ele>121.2</ele>
        <time>2024-03-10T10:28:46Z</time>
      </trkpt>
      <trkpt lat="49.15656" lon="0.10679">
        <ele>121.2</ele>
        <time>2024-03-10T10:28:47Z</time>
      </trkpt>
      <trkpt lat="49.15663" lon="0.10668">
        <ele>121.2</ele>
        <time>2024-03-10T10:28:48Z</time>
      </trkpt>
      <trkpt lat="49.1567" lon="0.10657">
        <ele>121.2</ele>
        <time>2024-03-10T10:28:49Z</time>
      </trkpt>
      <trkpt lat="49.15677" lon="0.10647">
        <ele>121.1</ele>
        <time>2024-03-10T10:28:50Z</time>
      </trkpt>
      <trkpt lat="49.15685" lon="0.10636">
        <ele>121.1</ele>
        <time>2024-03-10T10:28:51Z</time>
      </trkpt>
      <trkpt lat="49.15692" lon="0.10625">
        <ele>121</ele>
        <time>2024-03-10T10:28:52Z</time>
      </trkpt>
      <trkpt lat="49.15699" lon="0.10614">
        <ele>120.8</ele>
        <time>2024-03-10T10:28:53Z</time>
      </trkpt>
      <trkpt lat="49.15706" lon="0.10604">
        <ele>120.7</ele>
        <time>2024-03-10T10:28:54Z</time>
      </trkpt>
      <trkpt lat="49.15713" lon="0.10593">
        <ele>120.6</ele>
        <time>2024-03-10T10:28:55Z</time>
      </trkpt>
      <trkpt lat="49.1572" lon="0.10582">
        <ele>120.4</ele>
        <time>2024-03-10T10:28:56Z</time>
      </trkpt>
      <trkpt lat="49.15727" lon="0.10572">
        <ele>120.2</ele>
        <time>2024-03-10T10:28:57Z</time>
      </trkpt>
      <trkpt lat="49.15734" lon="0.10562">
        <ele>120</ele>
        <time>2024-03-10T10:28:58Z</time>
      </trkpt>
      <trkpt lat="49.15741" lon="0.10551">
        <ele>119.7</ele>
        <time>2024-03-10T10:28:59Z</time>
      </trkpt>
      <trkpt lat="49.15749" lon="0.10541">
        <ele>119.3</ele>
        <time>2024-03-10T10:29:00Z</time>
      </trkpt>
      <trkpt lat="49.15757" lon="0.10531">
        <ele>118.8</ele>
        <time>2024-03-10T10:29:01Z</time>
      </trkpt>
      <trkpt lat="49.15764" lon="0.10521">
        <ele>118.3</ele>
        <time>2024-03-10T10:29:02Z</time>
      </trkpt>
      <trkpt lat="49.15773" lon="0.10512">
        <ele>117.8</ele>
        <time>2024-03-10T10:29:03Z</time>
      </trkpt>
      <trkpt lat="49.15781" lon="0.10502">
        <ele>117.2</ele>
        <time>2024-03-10T10:29:04Z</time>
      </trkpt>
      <trkpt lat="49.1579" lon="0.10493">
        <ele>116.7</ele>
        <time>2024-03-10T10:29:05Z</time>
      </trkpt>
      <trkpt lat="49.15799" lon="0.10484">
        <ele>116.1</ele>
        <time>2024-03-10T10:29:06Z</time>
      </trkpt>
      <trkpt lat="49.15808" lon="0.10475">
        <ele>115.5</ele>
        <time>2024-03-10T10:29:07Z</time>
      </trkpt>
      <trkpt lat="49.15817" lon="0.10465">
        <ele>115</ele>
        <time>2024-03-10T10:29:08Z</time>
      </trkpt>
      <trkpt lat="49.15826" lon="0.10456">
        <ele>114.4</ele>
        <time>2024-03-10T10:29:09Z</time>
      </trkpt>
      <trkpt lat="49.15834" lon="0.10447">
        <ele>113.7</ele>
        <time>2024-03-10T10:29:10Z</time>
      </trkpt>
      <trkpt lat="49.15843" lon="0.10438">
        <ele>113.1</ele>
        <time>2024-03-10T10:29:11Z</time>
      </trkpt>
      <trkpt lat="49.15852" lon="0.10429">
        <ele>112.5</ele>
        <time>2024-03-10T10:29:12Z</time>
      </trkpt>
      <trkpt lat="49.15861" lon="0.1042">
        <ele>112</ele>
        <time>2024-03-10T10:29:13Z</time>
      </trkpt>
      <trkpt lat="49.1587" lon="0.10412">
        <ele>111.4</ele>
        <time>2024-03-10T10:29:14Z</time>
      </trkpt>
      <trkpt lat="49.15879" lon="0.10402">
        <ele>110.8</ele>
        <time>2024-03-10T10:29:15Z</time>
      </trkpt>
      <trkpt lat="49.15888" lon="0.10393">
        <ele>110.2</ele>
        <time>2024-03-10T10:29:16Z</time>
      </trkpt>
      <trkpt lat="49.15898" lon="0.10385">
        <ele>109.5</ele>
        <time>2024-03-10T10:29:17Z</time>
      </trkpt>
      <trkpt lat="49.15907" lon="0.10376">
        <ele>108.9</ele>
        <time>2024-03-10T10:29:18Z</time>
      </trkpt>
      <trkpt lat="49.15916" lon="0.10366">
        <ele>108.2</ele>
        <time>2024-03-10T10:29:19Z</time>
      </trkpt>
      <trkpt lat="49.15926" lon="0.10357">
        <ele>107.5</ele>
        <time>2024-03-10T10:29:20Z</time>
      </trkpt>
      <trkpt lat="49.15936" lon="0.10348">
        <ele>106.9</ele>
        <time>2024-03-10T10:29:21Z</time>
      </trkpt>
      <trkpt lat="49.15945" lon="0.10338">
        <ele>106.3</ele>
        <time>2024-03-10T10:29:22Z</time>
      </trkpt>
      <trkpt lat="49.15955" lon="0.10329">
        <ele>105.8</ele>
        <time>2024-03-10T10:29:23Z</time>
      </trkpt>
      <trkpt lat="49.15965" lon="0.10319">
        <ele>105.3</ele>
        <time>2024-03-10T10:29:24Z</time>
      </trkpt>
      <trkpt lat="49.15975" lon="0.10309">
        <ele>105</ele>
        <time>2024-03-10T10:29:25Z</time>
      </trkpt>
      <trkpt lat="49.15985" lon="0.10299">
        <ele>104.8</ele>
        <time>2024-03-10T10:29:26Z</time>
      </trkpt>
      <trkpt lat="49.15994" lon="0.10289">
        <ele>104.7</ele>
        <time>2024-03-10T10:29:27Z</time>
      </trkpt>
      <trkpt lat="49.16002" lon="0.10281">
        <ele>104.6</ele>
        <time>2024-03-10T10:29:28Z</time>
      </trkpt>
      <trkpt lat="49.16011" lon="0.10273">
        <ele>104.5</ele>
        <time>2024-03-10T10:29:29Z</time>
      </trkpt>
      <trkpt lat="49.1602" lon="0.10264">
        <ele>104.5</ele>
        <time>2024-03-10T10:29:30Z</time>
      </trkpt>
      <trkpt lat="49.16028" lon="0.10256">
        <ele>104.6</ele>
        <time>2024-03-10T10:29:31Z</time>
      </trkpt>
      <trkpt lat="49.16037" lon="0.10247">
        <ele>104.6</ele>
        <time>2024-03-10T10:29:32Z</time>
      </trkpt>
      <trkpt lat="49.16046" lon="0.10239">
        <ele>104.7</ele>
        <time>2024-03-10T10:29:33Z</time>
      </trkpt>
      <trkpt lat="49.16054" lon="0.1023">
        <ele>104.9</ele>
        <time>2024-03-10T10:29:34Z</time>
      </trkpt>
      <trkpt lat="49.16062" lon="0.1022">
        <ele>105.1</ele>
        <time>2024-03-10T10:29:35Z</time>
      </trkpt>
      <trkpt lat="49.16068" lon="0.1021">
        <ele>105.3</ele>
        <time>2024-03-10T10:29:36Z</time>
      </trkpt>
      <trkpt lat="49.16075" lon="0.102">
        <ele>105.5</ele>
        <time>2024-03-10T10:29:37Z</time>
      </trkpt>
      <trkpt lat="49.16081" lon="0.10189">
        <ele>105.5</ele>
        <time>2024-03-10T10:29:38Z</time>
      </trkpt>
      <trkpt lat="49.16087" lon="0.10177">
        <ele>105.3</ele>
        <time>2024-03-10T10:29:39Z</time>
      </trkpt>
      <trkpt lat="49.16093" lon="0.10166">
        <ele>105.2</ele>
        <time>2024-03-10T10:29:40Z</time>
      </trkpt>
      <trkpt lat="49.16098" lon="0.10155">
        <ele>105</ele>
        <time>2024-03-10T10:29:41Z</time>
      </trkpt>
      <trkpt lat="49.16103" lon="0.10144">
        <ele>104.9</ele>
        <time>2024-03-10T10:29:42Z</time>
      </trkpt>
      <trkpt lat="49.16108" lon="0.10132">
        <ele>104.8</ele>
        <time>2024-03-10T10:29:43Z</time>
      </trkpt>
      <trkpt lat="49.16112" lon="0.1012">
        <ele>104.7</ele>
        <time>2024-03-10T10:29:44Z</time>
      </trkpt>
      <trkpt lat="49.16117" lon="0.10108">
        <ele>104.6</ele>
        <time>2024-03-10T10:29:45Z</time>
      </trkpt>
      <trkpt lat="49.16122" lon="0.10095">
        <ele>104.5</ele>
        <time>2024-03-10T10:29:46Z</time>
      </trkpt>
      <trkpt lat="49.16127" lon="0.10082">
        <ele>104.4</ele>
        <time>2024-03-10T10:29:47Z</time>
      </trkpt>
      <trkpt lat="49.16132" lon="0.10069">
        <ele>104.3</ele>
        <time>2024-03-10T10:29:48Z</time>
      </trkpt>
      <trkpt lat="49.16137" lon="0.10056">
        <ele>104.2</ele>
        <time>2024-03-10T10:29:49Z</time>
      </trkpt>
      <trkpt lat="49.16143" lon="0.10043">
        <ele>104.1</ele>
        <time>2024-03-10T10:29:50Z</time>
      </trkpt>
      <trkpt lat="49.16148" lon="0.1003">
        <ele>104.1</ele>
        <time>2024-03-10T10:29:51Z</time>
      </trkpt>
      <trkpt lat="49.16153" lon="0.10016">
        <ele>104</ele>
        <time>2024-03-10T10:29:52Z</time>
      </trkpt>
      <trkpt lat="49.16158" lon="0.10003">
        <ele>103.9</ele>
        <time>2024-03-10T10:29:53Z</time>
      </trkpt>
      <trkpt lat="49.16164" lon="0.0999">
        <ele>103.7</ele>
        <time>2024-03-10T10:29:54Z</time>
      </trkpt>
      <trkpt lat="49.16171" lon="0.09977">
        <ele>103.6</ele>
        <time>2024-03-10T10:29:55Z</time>
      </trkpt>
      <trkpt lat="49.16178" lon="0.09965">
        <ele>103.4</ele>
        <time>2024-03-10T10:29:56Z</time>
      </trkpt>
      <trkpt lat="49.16184" lon="0.09953">
        <ele>103.4</ele>
        <time>2024-03-10T10:29:57Z</time>
      </trkpt>
      <trkpt lat="49.16191" lon="0.09942">
        <ele>103.3</ele>
        <time>2024-03-10T10:29:58Z</time>
      </trkpt>
      <trkpt lat="49.16198" lon="0.09931">
        <ele>103.3</ele>
        <time>2024-03-10T10:29:59Z</time>
      </trkpt>
      <trkpt lat="49.16205" lon="0.0992">
        <ele>103.3</ele>
        <time>2024-03-10T10:30:00Z</time>
      </trkpt>
      <trkpt lat="49.16213" lon="0.0991">
        <ele>103.2</ele>
        <time>2024-03-10T10:30:01Z</time>
      </trkpt>
      <trkpt lat="49.1622" lon="0.099">
        <ele>103.2</ele>
        <time>2024-03-10T10:30:02Z</time>
      </trkpt>
      <trkpt lat="49.16228" lon="0.09891">
        <ele>103.2</ele>
        <time>2024-03-10T10:30:03Z</time>
      </trkpt>
      <trkpt lat="49.16235" lon="0.0988">
        <ele>103.1</ele>
        <time>2024-03-10T10:30:04Z</time>
      </trkpt>
      <trkpt lat="49.16241" lon="0.0987">
        <ele>103</ele>
        <time>2024-03-10T10:30:05Z</time>
      </trkpt>
      <trkpt lat="49.16248" lon="0.09859">
        <ele>102.8</ele>
        <time>2024-03-10T10:30:06Z</time>
      </trkpt>
      <trkpt lat="49.16255" lon="0.09848">
        <ele>102.6</ele>
        <time>2024-03-10T10:30:07Z</time>
      </trkpt>
      <trkpt lat="49.16262" lon="0.09838">
        <ele>102.4</ele>
        <time>2024-03-10T10:30:08Z</time>
      </trkpt>
      <trkpt lat="49.16269" lon="0.09827">
        <ele>102.2</ele>
        <time>2024-03-10T10:30:09Z</time>
      </trkpt>
      <trkpt lat="49.16276" lon="0.09816">
        <ele>102</ele>
        <time>2024-03-10T10:30:10Z</time>
      </trkpt>
      <trkpt lat="49.16283" lon="0.09804">
        <ele>101.7</ele>
        <time>2024-03-10T10:30:11Z</time>
      </trkpt>
      <trkpt lat="49.1629" lon="0.09793">
        <ele>101.5</ele>
        <time>2024-03-10T10:30:12Z</time>
      </trkpt>
      <trkpt lat="49.16297" lon="0.09782">
        <ele>101.3</ele>
        <time>2024-03-10T10:30:13Z</time>
      </trkpt>
      <trkpt lat="49.16304" lon="0.09771">
        <ele>101.1</ele>
        <time>2024-03-10T10:30:14Z</time>
      </trkpt>
      <trkpt lat="49.16311" lon="0.0976">
        <ele>100.9</ele>
        <time>2024-03-10T10:30:15Z</time>
      </trkpt>
      <trkpt lat="49.16318" lon="0.09747">
        <ele>100.6</ele>
        <time>2024-03-10T10:30:16Z</time>
      </trkpt>
      <trkpt lat="49.16325" lon="0.09736">
        <ele>100.3</ele>
        <time>2024-03-10T10:30:17Z</time>
      </trkpt>
      <trkpt lat="49.16332" lon="0.09726">
        <ele>100.1</ele>
        <time>2024-03-10T10:30:18Z</time>
      </trkpt>
      <trkpt lat="49.16338" lon="0.09715">
        <ele>99.9</ele>
        <time>2024-03-10T10:30:19Z</time>
      </trkpt>
      <trkpt lat="49.16345" lon="0.09704">
        <ele>99.7</ele>
        <time>2024-03-10T10:30:20Z</time>
      </trkpt>
      <trkpt lat="49.16352" lon="0.09693">
        <ele>99.6</ele>
        <time>2024-03-10T10:30:21Z</time>
      </trkpt>
      <trkpt lat="49.16359" lon="0.09683">
        <ele>99.6</ele>
        <time>2024-03-10T10:30:22Z</time>
      </trkpt>
      <trkpt lat="49.16367" lon="0.09672">
        <ele>99.6</ele>
        <time>2024-03-10T10:30:23Z</time>
      </trkpt>
      <trkpt lat="49.16374" lon="0.09662">
        <ele>99.7</ele>
        <time>2024-03-10T10:30:24Z</time>
      </trkpt>
      <trkpt lat="49.16381" lon="0.09652">
        <ele>99.6</ele>
        <time>2024-03-10T10:30:25Z</time>
      </trkpt>
      <trkpt lat="49.16389" lon="0.09643">
        <ele>99.6</ele>
        <time>2024-03-10T10:30:26Z</time>
      </trkpt>
      <trkpt lat="49.16397" lon="0.09634">
        <ele>99.7</ele>
        <time>2024-03-10T10:30:27Z</time>
      </trkpt>
      <trkpt lat="49.16406" lon="0.09626">
        <ele>99.8</ele>
        <time>2024-03-10T10:30:28Z</time>
      </trkpt>
      <trkpt lat="49.16414" lon="0.09619">
        <ele>99.9</ele>
        <time>2024-03-10T10:30:29Z</time>
      </trkpt>
      <trkpt lat="49.16423" lon="0.09612">
        <ele>100.1</ele>
        <time>2024-03-10T10:30:30Z</time>
      </trkpt>
      <trkpt lat="49.16431" lon="0.09605">
        <ele>100.1</ele>
        <time>2024-03-10T10:30:31Z</time>
      </trkpt>
      <trkpt lat="49.1644" lon="0.09598">
        <ele>100.1</ele>
        <time>2024-03-10T10:30:32Z</time>
      </trkpt>
      <trkpt lat="49.16449" lon="0.09591">
        <ele>100</ele>
        <time>2024-03-10T10:30:33Z</time>
      </trkpt>
      <trkpt lat="49.16458" lon="0.09586">
        <ele>99.8</ele>
        <time>2024-03-10T10:30:34Z</time>
      </trkpt>
      <trkpt lat="49.16467" lon="0.0958">
        <ele>99.5</ele>
        <time>2024-03-10T10:30:35Z</time>
      </trkpt>
      <trkpt lat="49.16476" lon="0.09575">
        <ele>99.1</ele>
        <time>2024-03-10T10:30:36Z</time>
      </trkpt>
      <trkpt lat="49.16486" lon="0.0957">
        <ele>98.7</ele>
        <time>2024-03-10T10:30:37Z</time>
      </trkpt>
      <trkpt lat="49.16496" lon="0.09564">
        <ele>98.3</ele>
        <time>2024-03-10T10:30:38Z</time>
      </trkpt>
      <trkpt lat="49.16506" lon="0.09559">
        <ele>97.9</ele>
        <time>2024-03-10T10:30:39Z</time>
      </trkpt>
      <trkpt lat="49.16515" lon="0.09554">
        <ele>97.5</ele>
        <time>2024-03-10T10:30:40Z</time>
      </trkpt>
      <trkpt lat="49.16525" lon="0.09549">
        <ele>97</ele>
        <time>2024-03-10T10:30:41Z</time>
      </trkpt>
      <trkpt lat="49.16534" lon="0.09546">
        <ele>96.5</ele>
        <time>2024-03-10T10:30:42Z</time>
      </trkpt>
      <trkpt lat="49.16543" lon="0.09541">
        <ele>96</ele>
        <time>2024-03-10T10:30:43Z</time>
      </trkpt>
      <trkpt lat="49.16554" lon="0.09536">
        <ele>95.3</ele>
        <time>2024-03-10T10:30:44Z</time>
      </trkpt>
      <trkpt lat="49.16564" lon="0.0953">
        <ele>94.7</ele>
        <time>2024-03-10T10:30:45Z</time>
      </trkpt>
      <trkpt lat="49.16573" lon="0.09524">
        <ele>94.1</ele>
        <time>2024-03-10T10:30:46Z</time>
      </trkpt>
      <trkpt lat="49.16584" lon="0.09516">
        <ele>93.4</ele>
        <time>2024-03-10T10:30:47Z</time>
      </trkpt>
      <trkpt lat="49.16596" lon="0.0951">
        <ele>92.7</ele>
        <time>2024-03-10T10:30:48Z</time>
      </trkpt>
      <trkpt lat="49.16607" lon="0.09503">
        <ele>92</ele>
        <time>2024-03-10T10:30:49Z</time>
      </trkpt>
      <trkpt lat="49.16618" lon="0.09497">
        <ele>91.4</ele>
        <time>2024-03-10T10:30:50Z</time>
      </trkpt>
      <trkpt lat="49.16629" lon="0.09491">
        <ele>90.9</ele>
        <time>2024-03-10T10:30:51Z</time>
      </trkpt>
      <trkpt lat="49.1664" lon="0.09484">
        <ele>90.4</ele>
        <time>2024-03-10T10:30:52Z</time>
      </trkpt>
      <trkpt lat="49.16652" lon="0.09478">
        <ele>89.9</ele>
        <time>2024-03-10T10:30:53Z</time>
      </trkpt>
      <trkpt lat="49.16664" lon="0.09474">
        <ele>89.5</ele>
        <time>2024-03-10T10:30:54Z</time>
      </trkpt>
      <trkpt lat="49.16675" lon="0.0947">
        <ele>89.1</ele>
        <time>2024-03-10T10:30:55Z</time>
      </trkpt>
      <trkpt lat="49.16687" lon="0.09468">
        <ele>88.7</ele>
        <time>2024-03-10T10:30:56Z</time>
      </trkpt>
      <trkpt lat="49.16699" lon="0.09468">
        <ele>88.4</ele>
        <time>2024-03-10T10:30:57Z</time>
      </trkpt>
      <trkpt lat="49.16711" lon="0.09469">
        <ele>88</ele>
        <time>2024-03-10T10:30:58Z</time>
      </trkpt>
      <trkpt lat="49.16722" lon="0.09471">
        <ele>87.6</ele>
        <time>2024-03-10T10:30:59Z</time>
      </trkpt>
      <trkpt lat="49.16733" lon="0.09473">
        <ele>87.3</ele>
        <time>2024-03-10T10:31:00Z</time>
      </trkpt>
      <trkpt lat="49.16745" lon="0.09476">
        <ele>86.9</ele>
        <time>2024-03-10T10:31:01Z</time>
      </trkpt>
      <trkpt lat="49.16756" lon="0.09477">
        <ele>86.6</ele>
        <time>2024-03-10T10:31:02Z</time>
      </trkpt>
      <trkpt lat="49.16768" lon="0.09479">
        <ele>86.3</ele>
        <time>2024-03-10T10:31:03Z</time>
      </trkpt>
      <trkpt lat="49.16779" lon="0.09481">
        <ele>86.2</ele>
        <time>2024-03-10T10:31:04Z</time>
      </trkpt>
      <trkpt lat="49.16791" lon="0.09482">
        <ele>86</ele>
        <time>2024-03-10T10:31:05Z</time>
      </trkpt>
      <trkpt lat="49.16803" lon="0.09484">
        <ele>86</ele>
        <time>2024-03-10T10:31:06Z</time>
      </trkpt>
      <trkpt lat="49.16814" lon="0.09485">
        <ele>86</ele>
        <time>2024-03-10T10:31:07Z</time>
      </trkpt>
      <trkpt lat="49.16825" lon="0.09486">
        <ele>86</ele>
        <time>2024-03-10T10:31:08Z</time>
      </trkpt>
      <trkpt lat="49.16836" lon="0.09484">
        <ele>85.9</ele>
        <time>2024-03-10T10:31:09Z</time>
      </trkpt>
      <trkpt lat="49.16846" lon="0.0948">
        <ele>85.8</ele>
        <time>2024-03-10T10:31:10Z</time>
      </trkpt>
      <trkpt lat="49.16856" lon="0.09474">
        <ele>85.6</ele>
        <time>2024-03-10T10:31:11Z</time>
      </trkpt>
      <trkpt lat="49.16866" lon="0.09466">
        <ele>85.4</ele>
        <time>2024-03-10T10:31:12Z</time>
      </trkpt>
      <trkpt lat="49.16875" lon="0.09457">
        <ele>85.2</ele>
        <time>2024-03-10T10:31:13Z</time>
      </trkpt>
      <trkpt lat="49.16884" lon="0.09447">
        <ele>85</ele>
        <time>2024-03-10T10:31:14Z</time>
      </trkpt>
      <trkpt lat="49.16894" lon="0.09437">
        <ele>84.8</ele>
        <time>2024-03-10T10:31:15Z</time>
      </trkpt>
      <trkpt lat="49.16903" lon="0.09426">
        <ele>84.6</ele>
        <time>2024-03-10T10:31:16Z</time>
      </trkpt>
      <trkpt lat="49.16912" lon="0.09416">
        <ele>84.4</ele>
        <time>2024-03-10T10:31:17Z</time>
      </trkpt>
      <trkpt lat="49.1692" lon="0.09405">
        <ele>84.2</ele>
        <time>2024-03-10T10:31:18Z</time>
      </trkpt>
      <trkpt lat="49.16929" lon="0.09395">
        <ele>84.1</ele>
        <time>2024-03-10T10:31:19Z</time>
      </trkpt>
      <trkpt lat="49.16937" lon="0.09385">
        <ele>84</ele>
        <time>2024-03-10T10:31:20Z</time>
      </trkpt>
      <trkpt lat="49.16946" lon="0.09374">
        <ele>83.9</ele>
        <time>2024-03-10T10:31:21Z</time>
      </trkpt>
      <trkpt lat="49.16955" lon="0.09364">
        <ele>83.8</ele>
        <time>2024-03-10T10:31:22Z</time>
      </trkpt>
      <trkpt lat="49.16964" lon="0.09354">
        <ele>83.7</ele>
        <time>2024-03-10T10:31:23Z</time>
      </trkpt>
      <trkpt lat="49.16973" lon="0.09344">
        <ele>83.5</ele>
        <time>2024-03-10T10:31:24Z</time>
      </trkpt>
      <trkpt lat="49.16981" lon="0.09334">
        <ele>83.4</ele>
        <time>2024-03-10T10:31:25Z</time>
      </trkpt>
      <trkpt lat="49.16989" lon="0.09323">
        <ele>83.2</ele>
        <time>2024-03-10T10:31:26Z</time>
      </trkpt>
      <trkpt lat="49.16997" lon="0.09313">
        <ele>83.1</ele>
        <time>2024-03-10T10:31:27Z</time>
      </trkpt>
      <trkpt lat="49.17005" lon="0.09304">
        <ele>82.8</ele>
        <time>2024-03-10T10:31:28Z</time>
      </trkpt>
      <trkpt lat="49.17014" lon="0.09295">
        <ele>82.5</ele>
        <time>2024-03-10T10:31:29Z</time>
      </trkpt>
      <trkpt lat="49.17022" lon="0.09287">
        <ele>82.2</ele>
        <time>2024-03-10T10:31:30Z</time>
      </trkpt>
      <trkpt lat="49.17031" lon="0.09278">
        <ele>81.8</ele>
        <time>2024-03-10T10:31:31Z</time>
      </trkpt>
      <trkpt lat="49.17039" lon="0.09271">
        <ele>81.6</ele>
        <time>2024-03-10T10:31:32Z</time>
      </trkpt>
      <trkpt lat="49.17048" lon="0.09263">
        <ele>81.4</ele>
        <time>2024-03-10T10:31:33Z</time>
      </trkpt>
      <trkpt lat="49.17058" lon="0.09256">
        <ele>81.2</ele>
        <time>2024-03-10T10:31:34Z</time>
      </trkpt>
      <trkpt lat="49.17066" lon="0.09248">
        <ele>81</ele>
        <time>2024-03-10T10:31:35Z</time>
      </trkpt>
      <trkpt lat="49.17075" lon="0.0924">
        <ele>80.8</ele>
        <time>2024-03-10T10:31:36Z</time>
      </trkpt>
      <trkpt lat="49.17083" lon="0.09233">
        <ele>80.6</ele>
        <time>2024-03-10T10:31:37Z</time>
      </trkpt>
      <trkpt lat="49.17092" lon="0.09225">
        <ele>80.4</ele>
        <time>2024-03-10T10:31:38Z</time>
      </trkpt>
      <trkpt lat="49.171" lon="0.09216">
        <ele>80.1</ele>
        <time>2024-03-10T10:31:39Z</time>
      </trkpt>
      <trkpt lat="49.17108" lon="0.09207">
        <ele>79.8</ele>
        <time>2024-03-10T10:31:40Z</time>
      </trkpt>
      <trkpt lat="49.17116" lon="0.09198">
        <ele>79.5</ele>
        <time>2024-03-10T10:31:41Z</time>
      </trkpt>
      <trkpt lat="49.17124" lon="0.09188">
        <ele>79.2</ele>
        <time>2024-03-10T10:31:42Z</time>
      </trkpt>
      <trkpt lat="49.17132" lon="0.09179">
        <ele>78.9</ele>
        <time>2024-03-10T10:31:43Z</time>
      </trkpt>
      <trkpt lat="49.1714" lon="0.0917">
        <ele>78.6</ele>
        <time>2024-03-10T10:31:44Z</time>
      </trkpt>
      <trkpt lat="49.17148" lon="0.0916">
        <ele>78.3</ele>
        <time>2024-03-10T10:31:45Z</time>
      </trkpt>
      <trkpt lat="49.17156" lon="0.0915">
        <ele>77.9</ele>
        <time>2024-03-10T10:31:46Z</time>
      </trkpt>
      <trkpt lat="49.17165" lon="0.0914">
        <ele>77.5</ele>
        <time>2024-03-10T10:31:47Z</time>
      </trkpt>
      <trkpt lat="49.17174" lon="0.09129">
        <ele>77.2</ele>
        <time>2024-03-10T10:31:48Z</time>
      </trkpt>
      <trkpt lat="49.17183" lon="0.0912">
        <ele>76.8</ele>
        <time>2024-03-10T10:31:49Z</time>
      </trkpt>
      <trkpt lat="49.17191" lon="0.0911">
        <ele>76.5</ele>
        <time>2024-03-10T10:31:50Z</time>
      </trkpt>
      <trkpt lat="49.172" lon="0.091">
        <ele>76.2</ele>
        <time>2024-03-10T10:31:51Z</time>
      </trkpt>
      <trkpt lat="49.17208" lon="0.09091">
        <ele>76</ele>
        <time>2024-03-10T10:31:52Z</time>
      </trkpt>
      <trkpt lat="49.17217" lon="0.09082">
        <ele>75.7</ele>
        <time>2024-03-10T10:31:53Z</time>
      </trkpt>
      <trkpt lat="49.17226" lon="0.09073">
        <ele>75.5</ele>
        <time>2024-03-10T10:31:54Z</time>
      </trkpt>
      <trkpt lat="49.17235" lon="0.09065">
        <ele>75.3</ele>
        <time>2024-03-10T10:31:55Z</time>
      </trkpt>
      <trkpt lat="49.17244" lon="0.09056">
        <ele>75.1</ele>
        <time>2024-03-10T10:31:56Z</time>
      </trkpt>
      <trkpt lat="49.17253" lon="0.09048">
        <ele>74.9</ele>
        <time>2024-03-10T10:31:57Z</time>
      </trkpt>
      <trkpt lat="49.17261" lon="0.09039">
        <ele>74.8</ele>
        <time>2024-03-10T10:31:58Z</time>
      </trkpt>
      <trkpt lat="49.17269" lon="0.09031">
        <ele>74.7</ele>
        <time>2024-03-10T10:31:59Z</time>
      </trkpt>
      <trkpt lat="49.17277" lon="0.09022">
        <ele>74.7</ele>
        <time>2024-03-10T10:32:00Z</time>
      </trkpt>
      <trkpt lat="49.17285" lon="0.09014">
        <ele>74.7</ele>
        <time>2024-03-10T10:32:01Z</time>
      </trkpt>
      <trkpt lat="49.17292" lon="0.09005">
        <ele>74.9</ele>
        <time>2024-03-10T10:32:02Z</time>
      </trkpt>
      <trkpt lat="49.17299" lon="0.08995">
        <ele>75.2</ele>
        <time>2024-03-10T10:32:03Z</time>
      </trkpt>
      <trkpt lat="49.17306" lon="0.08986">
        <ele>75.5</ele>
        <time>2024-03-10T10:32:04Z</time>
      </trkpt>
      <trkpt lat="49.17311" lon="0.08977">
        <ele>76</ele>
        <time>2024-03-10T10:32:05Z</time>
      </trkpt>
      <trkpt lat="49.17317" lon="0.08969">
        <ele>76.5</ele>
        <time>2024-03-10T10:32:06Z</time>
      </trkpt>
      <trkpt lat="49.17323" lon="0.08962">
        <ele>77</ele>
        <time>2024-03-10T10:32:07Z</time>
      </trkpt>
      <trkpt lat="49.17328" lon="0.08955">
        <ele>77.6</ele>
        <time>2024-03-10T10:32:08Z</time>
      </trkpt>
      <trkpt lat="49.17333" lon="0.08948">
        <ele>78.1</ele>
        <time>2024-03-10T10:32:09Z</time>
      </trkpt>
      <trkpt lat="49.17338" lon="0.08941">
        <ele>78.5</ele>
        <time>2024-03-10T10:32:10Z</time>
      </trkpt>
      <trkpt lat="49.17342" lon="0.08936">
        <ele>79</ele>
        <time>2024-03-10T10:32:11Z</time>
      </trkpt>
      <trkpt lat="49.17346" lon="0.08933">
        <ele>79.3</ele>
        <time>2024-03-10T10:32:12Z</time>
      </trkpt>
      <trkpt lat="49.17349" lon="0.08929">
        <ele>79.6</ele>
        <time>2024-03-10T10:32:13Z</time>
      </trkpt>
      <trkpt lat="49.17353" lon="0.08926">
        <ele>79.9</ele>
        <time>2024-03-10T10:32:14Z</time>
      </trkpt>
      <trkpt lat="49.17355" lon="0.08921">
        <ele>79.7</ele>
        <time>2024-03-10T10:32:15Z</time>
      </trkpt>
      <trkpt lat="49.17355" lon="0.08913">
        <ele>79.4</ele>
        <time>2024-03-10T10:32:16Z</time>
      </trkpt>
      <trkpt lat="49.17354" lon="0.08905">
        <ele>79.1</ele>
        <time>2024-03-10T10:32:17Z</time>
      </trkpt>
      <trkpt lat="49.17353" lon="0.08897">
        <ele>78.8</ele>
        <time>2024-03-10T10:32:18Z</time>
      </trkpt>
      <trkpt lat="49.17351" lon="0.08888">
        <ele>78.6</ele>
        <time>2024-03-10T10:32:19Z</time>
      </trkpt>
      <trkpt lat="49.1735" lon="0.0888">
        <ele>78.4</ele>
        <time>2024-03-10T10:32:20Z</time>
      </trkpt>
      <trkpt lat="49.17347" lon="0.0887">
        <ele>78.2</ele>
        <time>2024-03-10T10:32:21Z</time>
      </trkpt>
      <trkpt lat="49.17344" lon="0.0886">
        <ele>78</ele>
        <time>2024-03-10T10:32:22Z</time>
      </trkpt>
      <trkpt lat="49.1734" lon="0.08848">
        <ele>77.9</ele>
        <time>2024-03-10T10:32:23Z</time>
      </trkpt>
      <trkpt lat="49.17337" lon="0.08837">
        <ele>77.7</ele>
        <time>2024-03-10T10:32:24Z</time>
      </trkpt>
      <trkpt lat="49.17334" lon="0.08825">
        <ele>77.6</ele>
        <time>2024-03-10T10:32:25Z</time>
      </trkpt>
      <trkpt lat="49.17332" lon="0.08815">
        <ele>77.5</ele>
        <time>2024-03-10T10:32:26Z</time>
      </trkpt>
      <trkpt lat="49.1733" lon="0.08804">
        <ele>77.4</ele>
        <time>2024-03-10T10:32:27Z</time>
      </trkpt>
      <trkpt lat="49.17328" lon="0.08793">
        <ele>77.3</ele>
        <time>2024-03-10T10:32:28Z</time>
      </trkpt>
      <trkpt lat="49.17326" lon="0.08782">
        <ele>77.1</ele>
        <time>2024-03-10T10:32:29Z</time>
      </trkpt>
      <trkpt lat="49.17324" lon="0.08772">
        <ele>77</ele>
        <time>2024-03-10T10:32:30Z</time>
      </trkpt>
      <trkpt lat="49.17321" lon="0.0876">
        <ele>76.9</ele>
        <time>2024-03-10T10:32:31Z</time>
      </trkpt>
      <trkpt lat="49.17317" lon="0.08749">
        <ele>76.8</ele>
        <time>2024-03-10T10:32:32Z</time>
      </trkpt>
      <trkpt lat="49.17313" lon="0.08737">
        <ele>76.7</ele>
        <time>2024-03-10T10:32:33Z</time>
      </trkpt>
      <trkpt lat="49.17309" lon="0.08726">
        <ele>76.6</ele>
        <time>2024-03-10T10:32:34Z</time>
      </trkpt>
      <trkpt lat="49.17305" lon="0.08714">
        <ele>76.5</ele>
        <time>2024-03-10T10:32:35Z</time>
      </trkpt>
      <trkpt lat="49.17301" lon="0.08702">
        <ele>76.4</ele>
        <time>2024-03-10T10:32:36Z</time>
      </trkpt>
      <trkpt lat="49.17298" lon="0.0869">
        <ele>76.3</ele>
        <time>2024-03-10T10:32:37Z</time>
      </trkpt>
      <trkpt lat="49.17295" lon="0.08679">
        <ele>76.2</ele>
        <time>2024-03-10T10:32:38Z</time>
      </trkpt>
      <trkpt lat="49.17291" lon="0.08667">
        <ele>76.1</ele>
        <time>2024-03-10T10:32:39Z</time>
      </trkpt>
      <trkpt lat="49.17287" lon="0.08655">
        <ele>76.1</ele>
        <time>2024-03-10T10:32:40Z</time>
      </trkpt>
      <trkpt lat="49.17284" lon="0.08642">
        <ele>76</ele>
        <time>2024-03-10T10:32:41Z</time>
      </trkpt>
      <trkpt lat="49.17281" lon="0.08629">
        <ele>75.9</ele>
        <time>2024-03-10T10:32:42Z</time>
      </trkpt>
      <trkpt lat="49.17278" lon="0.08617">
        <ele>75.8</ele>
        <time>2024-03-10T10:32:43Z</time>
      </trkpt>
      <trkpt lat="49.17276" lon="0.08605">
        <ele>75.8</ele>
        <time>2024-03-10T10:32:44Z</time>
      </trkpt>
      <trkpt lat="49.17274" lon="0.08592">
        <ele>75.7</ele>
        <time>2024-03-10T10:32:45Z</time>
      </trkpt>
      <trkpt lat="49.17272" lon="0.0858">
        <ele>75.6</ele>
        <time>2024-03-10T10:32:46Z</time>
      </trkpt>
      <trkpt lat="49.1727" lon="0.08567">
        <ele>75.5</ele>
        <time>2024-03-10T10:32:47Z</time>
      </trkpt>
      <trkpt lat="49.17269" lon="0.08555">
        <ele>75.5</ele>
        <time>2024-03-10T10:32:48Z</time>
      </trkpt>
      <trkpt lat="49.17267" lon="0.08542">
        <ele>75.4</ele>
        <time>2024-03-10T10:32:49Z</time>
      </trkpt>
      <trkpt lat="49.17266" lon="0.08529">
        <ele>75.4</ele>
        <time>2024-03-10T10:32:50Z</time>
      </trkpt>
      <trkpt lat="49.17264" lon="0.08516">
        <ele>75.3</ele>
        <time>2024-03-10T10:32:51Z</time>
      </trkpt>
      <trkpt lat="49.17262" lon="0.08503">
        <ele>75.3</ele>
        <time>2024-03-10T10:32:52Z</time>
      </trkpt>
      <trkpt lat="49.1726" lon="0.0849">
        <ele>75.2</ele>
        <time>2024-03-10T10:32:53Z</time>
      </trkpt>
      <trkpt lat="49.17257" lon="0.08477">
        <ele>75.1</ele>
        <time>2024-03-10T10:32:54Z</time>
      </trkpt>
      <trkpt lat="49.17254" lon="0.08464">
        <ele>75</ele>
        <time>2024-03-10T10:32:55Z</time>
      </trkpt>
      <trkpt lat="49.17251" lon="0.08451">
        <ele>74.9</ele>
        <time>2024-03-10T10:32:56Z</time>
      </trkpt>
      <trkpt lat="49.17248" lon="0.08438">
        <ele>74.7</ele>
        <time>2024-03-10T10:32:57Z</time>
      </trkpt>
      <trkpt lat="49.17244" lon="0.08425">
        <ele>74.5</ele>
        <time>2024-03-10T10:32:58Z</time>
      </trkpt>
      <trkpt lat="49.1724" lon="0.08412">
        <ele>74.3</ele>
        <time>2024-03-10T10:32:59Z</time>
      </trkpt>
      <trkpt lat="49.17236" lon="0.08399">
        <ele>74.1</ele>
        <time>2024-03-10T10:33:00Z</time>
      </trkpt>
      <trkpt lat="49.17232" lon="0.08386">
        <ele>73.9</ele>
        <time>2024-03-10T10:33:01Z</time>
      </trkpt>
      <trkpt lat="49.17227" lon="0.08373">
        <ele>73.7</ele>
        <time>2024-03-10T10:33:02Z</time>
      </trkpt>
      <trkpt lat="49.17223" lon="0.0836">
        <ele>73.6</ele>
        <time>2024-03-10T10:33:03Z</time>
      </trkpt>
      <trkpt lat="49.17218" lon="0.08347">
        <ele>73.5</ele>
        <time>2024-03-10T10:33:04Z</time>
      </trkpt>
      <trkpt lat="49.17213" lon="0.08334">
        <ele>73.3</ele>
        <time>2024-03-10T10:33:05Z</time>
      </trkpt>
      <trkpt lat="49.17208" lon="0.08321">
        <ele>73.2</ele>
        <time>2024-03-10T10:33:06Z</time>
      </trkpt>
      <trkpt lat="49.17202" lon="0.08309">
        <ele>73.1</ele>
        <time>2024-03-10T10:33:07Z</time>
      </trkpt>
      <trkpt lat="49.17197" lon="0.08296">
        <ele>72.9</ele>
        <time>2024-03-10T10:33:08Z</time>
      </trkpt>
      <trkpt lat="49.17192" lon="0.08284">
        <ele>72.8</ele>
        <time>2024-03-10T10:33:09Z</time>
      </trkpt>
      <trkpt lat="49.17187" lon="0.08271">
        <ele>72.6</ele>
        <time>2024-03-10T10:33:10Z</time>
      </trkpt>
      <trkpt lat="49.17182" lon="0.08258">
        <ele>72.5</ele>
        <time>2024-03-10T10:33:11Z</time>
      </trkpt>
      <trkpt lat="49.17179" lon="0.08246">
        <ele>72.4</ele>
        <time>2024-03-10T10:33:12Z</time>
      </trkpt>
      <trkpt lat="49.17175" lon="0.08233">
        <ele>72.3</ele>
        <time>2024-03-10T10:33:13Z</time>
      </trkpt>
      <trkpt lat="49.17171" lon="0.0822">
        <ele>72.2</ele>
        <time>2024-03-10T10:33:14Z</time>
      </trkpt>
      <trkpt lat="49.17168" lon="0.08207">
        <ele>72.1</ele>
        <time>2024-03-10T10:33:15Z</time>
      </trkpt>
      <trkpt lat="49.17165" lon="0.08194">
        <ele>72.1</ele>
        <time>2024-03-10T10:33:16Z</time>
      </trkpt>
      <trkpt lat="49.17161" lon="0.08181">
        <ele>72</ele>
        <time>2024-03-10T10:33:17Z</time>
      </trkpt>
      <trkpt lat="49.17158" lon="0.08169">
        <ele>72</ele>
        <time>2024-03-10T10:33:18Z</time>
      </trkpt>
      <trkpt lat="49.17154" lon="0.08156">
        <ele>71.9</ele>
        <time>2024-03-10T10:33:19Z</time>
      </trkpt>
      <trkpt lat="49.17151" lon="0.08143">
        <ele>71.8</ele>
        <time>2024-03-10T10:33:20Z</time>
      </trkpt>
      <trkpt lat="49.17148" lon="0.0813">
        <ele>71.7</ele>
        <time>2024-03-10T10:33:21Z</time>
      </trkpt>
      <trkpt lat="49.17145" lon="0.08117">
        <ele>71.6</ele>
        <time>2024-03-10T10:33:22Z</time>
      </trkpt>
      <trkpt lat="49.17141" lon="0.08105">
        <ele>71.6</ele>
        <time>2024-03-10T10:33:23Z</time>
      </trkpt>
      <trkpt lat="49.17138" lon="0.08092">
        <ele>71.5</ele>
        <time>2024-03-10T10:33:24Z</time>
      </trkpt>
      <trkpt lat="49.17135" lon="0.08079">
        <ele>71.3</ele>
        <time>2024-03-10T10:33:25Z</time>
      </trkpt>
      <trkpt lat="49.17132" lon="0.08066">
        <ele>71.2</ele>
        <time>2024-03-10T10:33:26Z</time>
      </trkpt>
      <trkpt lat="49.17129" lon="0.08053">
        <ele>71.1</ele>
        <time>2024-03-10T10:33:27Z</time>
      </trkpt>
      <trkpt lat="49.17126" lon="0.0804">
        <ele>71.1</ele>
        <time>2024-03-10T10:33:28Z</time>
      </trkpt>
      <trkpt lat="49.17124" lon="0.08027">
        <ele>71</ele>
        <time>2024-03-10T10:33:29Z</time>
      </trkpt>
      <trkpt lat="49.17121" lon="0.08014">
        <ele>70.9</ele>
        <time>2024-03-10T10:33:30Z</time>
      </trkpt>
      <trkpt lat="49.17119" lon="0.08">
        <ele>70.8</ele>
        <time>2024-03-10T10:33:31Z</time>
      </trkpt>
      <trkpt lat="49.17117" lon="0.07986">
        <ele>70.7</ele>
        <time>2024-03-10T10:33:32Z</time>
      </trkpt>
      <trkpt lat="49.17115" lon="0.07973">
        <ele>70.6</ele>
        <time>2024-03-10T10:33:33Z</time>
      </trkpt>
      <trkpt lat="49.17114" lon="0.07959">
        <ele>70.5</ele>
        <time>2024-03-10T10:33:34Z</time>
      </trkpt>
      <trkpt lat="49.17112" lon="0.07945">
        <ele>70.4</ele>
        <time>2024-03-10T10:33:35Z</time>
      </trkpt>
      <trkpt lat="49.17111" lon="0.07932">
        <ele>70.3</ele>
        <time>2024-03-10T10:33:36Z</time>
      </trkpt>
      <trkpt lat="49.1711" lon="0.07919">
        <ele>70.3</ele>
        <time>2024-03-10T10:33:37Z</time>
      </trkpt>
      <trkpt lat="49.17109" lon="0.07906">
        <ele>70.3</ele>
        <time>2024-03-10T10:33:38Z</time>
      </trkpt>
      <trkpt lat="49.17107" lon="0.07892">
        <ele>70.3</ele>
        <time>2024-03-10T10:33:39Z</time>
      </trkpt>
      <trkpt lat="49.17106" lon="0.0788">
        <ele>70.3</ele>
        <time>2024-03-10T10:33:40Z</time>
      </trkpt>
      <trkpt lat="49.17105" lon="0.07867">
        <ele>70.3</ele>
        <time>2024-03-10T10:33:41Z</time>
      </trkpt>
      <trkpt lat="49.17103" lon="0.07855">
        <ele>70.3</ele>
        <time>2024-03-10T10:33:42Z</time>
      </trkpt>
      <trkpt lat="49.17102" lon="0.07843">
        <ele>70.3</ele>
        <time>2024-03-10T10:33:43Z</time>
      </trkpt>
      <trkpt lat="49.171" lon="0.0783">
        <ele>70.4</ele>
        <time>2024-03-10T10:33:44Z</time>
      </trkpt>
      <trkpt lat="49.17098" lon="0.07818">
        <ele>70.4</ele>
        <time>2024-03-10T10:33:45Z</time>
      </trkpt>
      <trkpt lat="49.17096" lon="0.07806">
        <ele>70.5</ele>
        <time>2024-03-10T10:33:46Z</time>
      </trkpt>
      <trkpt lat="49.17094" lon="0.07794">
        <ele>70.5</ele>
        <time>2024-03-10T10:33:47Z</time>
      </trkpt>
      <trkpt lat="49.17092" lon="0.07783">
        <ele>70.6</ele>
        <time>2024-03-10T10:33:48Z</time>
      </trkpt>
      <trkpt lat="49.17089" lon="0.07772">
        <ele>70.7</ele>
        <time>2024-03-10T10:33:49Z</time>
      </trkpt>
      <trkpt lat="49.17087" lon="0.07761">
        <ele>70.8</ele>
        <time>2024-03-10T10:33:50Z</time>
      </trkpt>
      <trkpt lat="49.17084" lon="0.0775">
        <ele>70.9</ele>
        <time>2024-03-10T10:33:51Z</time>
      </trkpt>
      <trkpt lat="49.17081" lon="0.07739">
        <ele>71</ele>
        <time>2024-03-10T10:33:52Z</time>
      </trkpt>
      <trkpt lat="49.17079" lon="0.07728">
        <ele>71.1</ele>
        <time>2024-03-10T10:33:53Z</time>
      </trkpt>
      <trkpt lat="49.17076" lon="0.07717">
        <ele>71.2</ele>
        <time>2024-03-10T10:33:54Z</time>
      </trkpt>
      <trkpt lat="49.17073" lon="0.07706">
        <ele>71.3</ele>
        <time>2024-03-10T10:33:55Z</time>
      </trkpt>
      <trkpt lat="49.17071" lon="0.07695">
        <ele>71.4</ele>
        <time>2024-03-10T10:33:56Z</time>
      </trkpt>
      <trkpt lat="49.17068" lon="0.07685">
        <ele>71.5</ele>
        <time>2024-03-10T10:33:57Z</time>
      </trkpt>
      <trkpt lat="49.17065" lon="0.07674">
        <ele>71.6</ele>
        <time>2024-03-10T10:33:58Z</time>
      </trkpt>
      <trkpt lat="49.17063" lon="0.07664">
        <ele>71.7</ele>
        <time>2024-03-10T10:33:59Z</time>
      </trkpt>
      <trkpt lat="49.1706" lon="0.07653">
        <ele>71.8</ele>
        <time>2024-03-10T10:34:00Z</time>
      </trkpt>
      <trkpt lat="49.17058" lon="0.07642">
        <ele>71.9</ele>
        <time>2024-03-10T10:34:01Z</time>
      </trkpt>
      <trkpt lat="49.17056" lon="0.07631">
        <ele>72</ele>
        <time>2024-03-10T10:34:02Z</time>
      </trkpt>
      <trkpt lat="49.17054" lon="0.0762">
        <ele>72.1</ele>
        <time>2024-03-10T10:34:03Z</time>
      </trkpt>
      <trkpt lat="49.17052" lon="0.07609">
        <ele>72.2</ele>
        <time>2024-03-10T10:34:04Z</time>
      </trkpt>
      <trkpt lat="49.1705" lon="0.07598">
        <ele>72.3</ele>
        <time>2024-03-10T10:34:05Z</time>
      </trkpt>
      <trkpt lat="49.17049" lon="0.07587">
        <ele>72.4</ele>
        <time>2024-03-10T10:34:06Z</time>
      </trkpt>
      <trkpt lat="49.17047" lon="0.07575">
        <ele>72.5</ele>
        <time>2024-03-10T10:34:07Z</time>
      </trkpt>
      <trkpt lat="49.17046" lon="0.07565">
        <ele>72.5</ele>
        <time>2024-03-10T10:34:08Z</time>
      </trkpt>
      <trkpt lat="49.17044" lon="0.07553">
        <ele>72.6</ele>
        <time>2024-03-10T10:34:09Z</time>
      </trkpt>
      <trkpt lat="49.17043" lon="0.07542">
        <ele>72.7</ele>
        <time>2024-03-10T10:34:10Z</time>
      </trkpt>
      <trkpt lat="49.17041" lon="0.07531">
        <ele>72.8</ele>
        <time>2024-03-10T10:34:11Z</time>
      </trkpt>
      <trkpt lat="49.1704" lon="0.07519">
        <ele>72.9</ele>
        <time>2024-03-10T10:34:12Z</time>
      </trkpt>
      <trkpt lat="49.17039" lon="0.07508">
        <ele>72.9</ele>
        <time>2024-03-10T10:34:13Z</time>
      </trkpt>
      <trkpt lat="49.17037" lon="0.07497">
        <ele>73</ele>
        <time>2024-03-10T10:34:14Z</time>
      </trkpt>
      <trkpt lat="49.17036" lon="0.07485">
        <ele>73</ele>
        <time>2024-03-10T10:34:15Z</time>
      </trkpt>
      <trkpt lat="49.17035" lon="0.07474">
        <ele>73.1</ele>
        <time>2024-03-10T10:34:16Z</time>
      </trkpt>
      <trkpt lat="49.17034" lon="0.07462">
        <ele>73.1</ele>
        <time>2024-03-10T10:34:17Z</time>
      </trkpt>
      <trkpt lat="49.17033" lon="0.0745">
        <ele>73.1</ele>
        <time>2024-03-10T10:34:18Z</time>
      </trkpt>
      <trkpt lat="49.17032" lon="0.07438">
        <ele>73.2</ele>
        <time>2024-03-10T10:34:19Z</time>
      </trkpt>
      <trkpt lat="49.17032" lon="0.07426">
        <ele>73.2</ele>
        <time>2024-03-10T10:34:20Z</time>
      </trkpt>
      <trkpt lat="49.17031" lon="0.07415">
        <ele>73.2</ele>
        <time>2024-03-10T10:34:21Z</time>
      </trkpt>
      <trkpt lat="49.17031" lon="0.07403">
        <ele>73.2</ele>
        <time>2024-03-10T10:34:22Z</time>
      </trkpt>
      <trkpt lat="49.17031" lon="0.07392">
        <ele>73.3</ele>
        <time>2024-03-10T10:34:23Z</time>
      </trkpt>
      <trkpt lat="49.17031" lon="0.07381">
        <ele>73.3</ele>
        <time>2024-03-10T10:34:24Z</time>
      </trkpt>
      <trkpt lat="49.17031" lon="0.07369">
        <ele>73.3</ele>
        <time>2024-03-10T10:34:25Z</time>
      </trkpt>
      <trkpt lat="49.17031" lon="0.07358">
        <ele>73.3</ele>
        <time>2024-03-10T10:34:26Z</time>
      </trkpt>
      <trkpt lat="49.17031" lon="0.07346">
        <ele>73.4</ele>
        <time>2024-03-10T10:34:27Z</time>
      </trkpt>
      <trkpt lat="49.1703" lon="0.07334">
        <ele>73.4</ele>
        <time>2024-03-10T10:34:28Z</time>
      </trkpt>
      <trkpt lat="49.1703" lon="0.07323">
        <ele>73.5</ele>
        <time>2024-03-10T10:34:29Z</time>
      </trkpt>
      <trkpt lat="49.1703" lon="0.07311">
        <ele>73.5</ele>
        <time>2024-03-10T10:34:30Z</time>
      </trkpt>
      <trkpt lat="49.17031" lon="0.073">
        <ele>73.5</ele>
        <time>2024-03-10T10:34:31Z</time>
      </trkpt>
      <trkpt lat="49.17032" lon="0.07288">
        <ele>73.5</ele>
        <time>2024-03-10T10:34:32Z</time>
      </trkpt>
      <trkpt lat="49.17032" lon="0.07276">
        <ele>73.5</ele>
        <time>2024-03-10T10:34:33Z</time>
      </trkpt>
      <trkpt lat="49.17033" lon="0.07263">
        <ele>73.5</ele>
        <time>2024-03-10T10:34:34Z</time>
      </trkpt>
      <trkpt lat="49.17034" lon="0.07251">
        <ele>73.5</ele>
        <time>2024-03-10T10:34:35Z</time>
      </trkpt>
      <trkpt lat="49.17034" lon="0.07239">
        <ele>73.5</ele>
        <time>2024-03-10T10:34:36Z</time>
      </trkpt>
      <trkpt lat="49.17034" lon="0.07227">
        <ele>73.5</ele>
        <time>2024-03-10T10:34:37Z</time>
      </trkpt>
      <trkpt lat="49.17035" lon="0.07214">
        <ele>73.4</ele>
        <time>2024-03-10T10:34:38Z</time>
      </trkpt>
      <trkpt lat="49.17034" lon="0.07202">
        <ele>73.3</ele>
        <time>2024-03-10T10:34:39Z</time>
      </trkpt>
      <trkpt lat="49.17034" lon="0.0719">
        <ele>73.2</ele>
        <time>2024-03-10T10:34:40Z</time>
      </trkpt>
      <trkpt lat="49.17034" lon="0.07177">
        <ele>73.1</ele>
        <time>2024-03-10T10:34:41Z</time>
      </trkpt>
      <trkpt lat="49.17034" lon="0.07164">
        <ele>73.1</ele>
        <time>2024-03-10T10:34:42Z</time>
      </trkpt>
      <trkpt lat="49.17033" lon="0.07151">
        <ele>73</ele>
        <time>2024-03-10T10:34:43Z</time>
      </trkpt>
      <trkpt lat="49.17033" lon="0.07138">
        <ele>72.9</ele>
        <time>2024-03-10T10:34:44Z</time>
      </trkpt>
      <trkpt lat="49.17033" lon="0.07125">
        <ele>72.9</ele>
        <time>2024-03-10T10:34:45Z</time>
      </trkpt>
      <trkpt lat="49.17033" lon="0.07112">
        <ele>72.8</ele>
        <time>2024-03-10T10:34:46Z</time>
      </trkpt>
      <trkpt lat="49.17033" lon="0.07099">
        <ele>72.7</ele>
        <time>2024-03-10T10:34:47Z</time>
      </trkpt>
      <trkpt lat="49.17033" lon="0.07087">
        <ele>72.7</ele>
        <time>2024-03-10T10:34:48Z</time>
      </trkpt>
      <trkpt lat="49.17034" lon="0.07075">
        <ele>72.6</ele>
        <time>2024-03-10T10:34:49Z</time>
      </trkpt>
      <trkpt lat="49.17034" lon="0.07062">
        <ele>72.6</ele>
        <time>2024-03-10T10:34:50Z</time>
      </trkpt>
      <trkpt lat="49.17035" lon="0.07049">
        <ele>72.5</ele>
        <time>2024-03-10T10:34:51Z</time>
      </trkpt>
      <trkpt lat="49.17035" lon="0.07036">
        <ele>72.4</ele>
        <time>2024-03-10T10:34:52Z</time>
      </trkpt>
      <trkpt lat="49.17035" lon="0.07023">
        <ele>72.4</ele>
        <time>2024-03-10T10:34:53Z</time>
      </trkpt>
      <trkpt lat="49.17035" lon="0.07011">
        <ele>72.3</ele>
        <time>2024-03-10T10:34:54Z</time>
      </trkpt>
      <trkpt lat="49.17036" lon="0.06998">
        <ele>72.1</ele>
        <time>2024-03-10T10:34:55Z</time>
      </trkpt>
      <trkpt lat="49.17036" lon="0.06986">
        <ele>72</ele>
        <time>2024-03-10T10:34:56Z</time>
      </trkpt>
      <trkpt lat="49.17037" lon="0.06973">
        <ele>71.8</ele>
        <time>2024-03-10T10:34:57Z</time>
      </trkpt>
      <trkpt lat="49.17037" lon="0.0696">
        <ele>71.6</ele>
        <time>2024-03-10T10:34:58Z</time>
      </trkpt>
      <trkpt lat="49.17038" lon="0.06947">
        <ele>71.4</ele>
        <time>2024-03-10T10:34:59Z</time>
      </trkpt>
      <trkpt lat="49.17038" lon="0.06934">
        <ele>71.2</ele>
        <time>2024-03-10T10:35:00Z</time>
      </trkpt>
      <trkpt lat="49.17037" lon="0.06921">
        <ele>71</ele>
        <time>2024-03-10T10:35:01Z</time>
      </trkpt>
      <trkpt lat="49.17037" lon="0.06908">
        <ele>70.7</ele>
        <time>2024-03-10T10:35:02Z</time>
      </trkpt>
      <trkpt lat="49.17036" lon="0.06895">
        <ele>70.5</ele>
        <time>2024-03-10T10:35:03Z</time>
      </trkpt>
      <trkpt lat="49.17036" lon="0.06882">
        <ele>70.1</ele>
        <time>2024-03-10T10:35:04Z</time>
      </trkpt>
      <trkpt lat="49.17035" lon="0.06868">
        <ele>69.8</ele>
        <time>2024-03-10T10:35:05Z</time>
      </trkpt>
      <trkpt lat="49.17035" lon="0.06855">
        <ele>69.3</ele>
        <time>2024-03-10T10:35:06Z</time>
      </trkpt>
      <trkpt lat="49.17034" lon="0.0684">
        <ele>68.8</ele>
        <time>2024-03-10T10:35:07Z</time>
      </trkpt>
      <trkpt lat="49.17034" lon="0.06825">
        <ele>68.3</ele>
        <time>2024-03-10T10:35:08Z</time>
      </trkpt>
      <trkpt lat="49.17034" lon="0.0681">
        <ele>67.7</ele>
        <time>2024-03-10T10:35:09Z</time>
      </trkpt>
      <trkpt lat="49.17034" lon="0.06794">
        <ele>67</ele>
        <time>2024-03-10T10:35:10Z</time>
      </trkpt>
      <trkpt lat="49.17037" lon="0.0678">
        <ele>66.4</ele>
        <time>2024-03-10T10:35:11Z</time>
      </trkpt>
      <trkpt lat="49.1704" lon="0.06765">
        <ele>65.7</ele>
        <time>2024-03-10T10:35:12Z</time>
      </trkpt>
      <trkpt lat="49.17044" lon="0.06751">
        <ele>65.1</ele>
        <time>2024-03-10T10:35:13Z</time>
      </trkpt>
      <trkpt lat="49.17048" lon="0.06736">
        <ele>64.5</ele>
        <time>2024-03-10T10:35:14Z</time>
      </trkpt>
      <trkpt lat="49.17051" lon="0.06722">
        <ele>63.8</ele>
        <time>2024-03-10T10:35:15Z</time>
      </trkpt>
      <trkpt lat="49.17056" lon="0.06707">
        <ele>63.2</ele>
        <time>2024-03-10T10:35:16Z</time>
      </trkpt>
      <trkpt lat="49.17059" lon="0.0669">
        <ele>62.7</ele>
        <time>2024-03-10T10:35:17Z</time>
      </trkpt>
      <trkpt lat="49.17061" lon="0.06673">
        <ele>62.2</ele>
        <time>2024-03-10T10:35:18Z</time>
      </trkpt>
      <trkpt lat="49.17062" lon="0.06657">
        <ele>62.1</ele>
        <time>2024-03-10T10:35:19Z</time>
      </trkpt>
      <trkpt lat="49.17062" lon="0.06641">
        <ele>62</ele>
        <time>2024-03-10T10:35:20Z</time>
      </trkpt>
      <trkpt lat="49.17062" lon="0.06624">
        <ele>62</ele>
        <time>2024-03-10T10:35:21Z</time>
      </trkpt>
      <trkpt lat="49.17061" lon="0.06609">
        <ele>62</ele>
        <time>2024-03-10T10:35:22Z</time>
      </trkpt>
      <trkpt lat="49.1706" lon="0.06593">
        <ele>62.1</ele>
        <time>2024-03-10T10:35:23Z</time>
      </trkpt>
      <trkpt lat="49.17059" lon="0.06578">
        <ele>62.3</ele>
        <time>2024-03-10T10:35:24Z</time>
      </trkpt>
      <trkpt lat="49.17059" lon="0.06563">
        <ele>62.5</ele>
        <time>2024-03-10T10:35:25Z</time>
      </trkpt>
      <trkpt lat="49.17059" lon="0.06549">
        <ele>62.9</ele>
        <time>2024-03-10T10:35:26Z</time>
      </trkpt>
      <trkpt lat="49.1706" lon="0.06535">
        <ele>63.2</ele>
        <time>2024-03-10T10:35:27Z</time>
      </trkpt>
      <trkpt lat="49.17061" lon="0.06523">
        <ele>63.5</ele>
        <time>2024-03-10T10:35:28Z</time>
      </trkpt>
      <trkpt lat="49.17062" lon="0.06511">
        <ele>63.9</ele>
        <time>2024-03-10T10:35:29Z</time>
      </trkpt>
      <trkpt lat="49.17063" lon="0.06498">
        <ele>64.2</ele>
        <time>2024-03-10T10:35:30Z</time>
      </trkpt>
      <trkpt lat="49.17065" lon="0.06486">
        <ele>64.5</ele>
        <time>2024-03-10T10:35:31Z</time>
      </trkpt>
      <trkpt lat="49.17066" lon="0.06473">
        <ele>64.8</ele>
        <time>2024-03-10T10:35:32Z</time>
      </trkpt>
      <trkpt lat="49.17067" lon="0.06459">
        <ele>65.1</ele>
        <time>2024-03-10T10:35:33Z</time>
      </trkpt>
      <trkpt lat="49.17068" lon="0.06446">
        <ele>65.2</ele>
        <time>2024-03-10T10:35:34Z</time>
      </trkpt>
      <trkpt lat="49.1707" lon="0.06432">
        <ele>65.3</ele>
        <time>2024-03-10T10:35:35Z</time>
      </trkpt>
      <trkpt lat="49.17071" lon="0.06418">
        <ele>65.4</ele>
        <time>2024-03-10T10:35:36Z</time>
      </trkpt>
      <trkpt lat="49.17073" lon="0.06404">
        <ele>65.5</ele>
        <time>2024-03-10T10:35:37Z</time>
      </trkpt>
      <trkpt lat="49.17075" lon="0.06391">
        <ele>65.5</ele>
        <time>2024-03-10T10:35:38Z</time>
      </trkpt>
      <trkpt lat="49.17077" lon="0.06377">
        <ele>65.5</ele>
        <time>2024-03-10T10:35:39Z</time>
      </trkpt>
      <trkpt lat="49.17079" lon="0.06363">
        <ele>65.5</ele>
        <time>2024-03-10T10:35:40Z</time>
      </trkpt>
      <trkpt lat="49.1708" lon="0.0635">
        <ele>65.4</ele>
        <time>2024-03-10T10:35:41Z</time>
      </trkpt>
      <trkpt lat="49.17082" lon="0.06337">
        <ele>65.3</ele>
        <time>2024-03-10T10:35:42Z</time>
      </trkpt>
      <trkpt lat="49.17084" lon="0.06325">
        <ele>65.2</ele>
        <time>2024-03-10T10:35:43Z</time>
      </trkpt>
      <trkpt lat="49.17085" lon="0.06313">
        <ele>65</ele>
        <time>2024-03-10T10:35:44Z</time>
      </trkpt>
      <trkpt lat="49.17087" lon="0.06299">
        <ele>64.8</ele>
        <time>2024-03-10T10:35:45Z</time>
      </trkpt>
      <trkpt lat="49.17088" lon="0.06284">
        <ele>64.6</ele>
        <time>2024-03-10T10:35:46Z</time>
      </trkpt>
      <trkpt lat="49.17089" lon="0.06269">
        <ele>64.4</ele>
        <time>2024-03-10T10:35:47Z</time>
      </trkpt>
      <trkpt lat="49.1709" lon="0.06255">
        <ele>64.3</ele>
        <time>2024-03-10T10:35:48Z</time>
      </trkpt>
      <trkpt lat="49.1709" lon="0.06241">
        <ele>64.2</ele>
        <time>2024-03-10T10:35:49Z</time>
      </trkpt>
      <trkpt lat="49.17091" lon="0.06227">
        <ele>64</ele>
        <time>2024-03-10T10:35:50Z</time>
      </trkpt>
      <trkpt lat="49.17091" lon="0.06213">
        <ele>63.9</ele>
        <time>2024-03-10T10:35:51Z</time>
      </trkpt>
      <trkpt lat="49.17091" lon="0.06199">
        <ele>63.7</ele>
        <time>2024-03-10T10:35:52Z</time>
      </trkpt>
      <trkpt lat="49.17093" lon="0.06186">
        <ele>63.6</ele>
        <time>2024-03-10T10:35:53Z</time>
      </trkpt>
      <trkpt lat="49.17095" lon="0.06173">
        <ele>63.5</ele>
        <time>2024-03-10T10:35:54Z</time>
      </trkpt>
      <trkpt lat="49.17099" lon="0.0616">
        <ele>63.5</ele>
        <time>2024-03-10T10:35:55Z</time>
      </trkpt>
      <trkpt lat="49.17103" lon="0.06148">
        <ele>63.5</ele>
        <time>2024-03-10T10:35:56Z</time>
      </trkpt>
      <trkpt lat="49.17107" lon="0.06136">
        <ele>63.6</ele>
        <time>2024-03-10T10:35:57Z</time>
      </trkpt>
      <trkpt lat="49.1711" lon="0.06125">
        <ele>63.6</ele>
        <time>2024-03-10T10:35:58Z</time>
      </trkpt>
      <trkpt lat="49.17114" lon="0.06114">
        <ele>63.7</ele>
        <time>2024-03-10T10:35:59Z</time>
      </trkpt>
      <trkpt lat="49.17118" lon="0.06103">
        <ele>63.8</ele>
        <time>2024-03-10T10:36:00Z</time>
      </trkpt>
      <trkpt lat="49.17122" lon="0.06093">
        <ele>63.9</ele>
        <time>2024-03-10T10:36:01Z</time>
      </trkpt>
      <trkpt lat="49.17126" lon="0.06083">
        <ele>63.9</ele>
        <time>2024-03-10T10:36:02Z</time>
      </trkpt>
      <trkpt lat="49.1713" lon="0.06072">
        <ele>64</ele>
        <time>2024-03-10T10:36:03Z</time>
      </trkpt>
      <trkpt lat="49.17134" lon="0.06062">
        <ele>64</ele>
        <time>2024-03-10T10:36:04Z</time>
      </trkpt>
      <trkpt lat="49.17138" lon="0.06052">
        <ele>64.1</ele>
        <time>2024-03-10T10:36:05Z</time>
      </trkpt>
      <trkpt lat="49.17142" lon="0.06043">
        <ele>64.2</ele>
        <time>2024-03-10T10:36:06Z</time>
      </trkpt>
      <trkpt lat="49.17146" lon="0.06032">
        <ele>64.2</ele>
        <time>2024-03-10T10:36:07Z</time>
      </trkpt>
      <trkpt lat="49.1715" lon="0.06023">
        <ele>64.3</ele>
        <time>2024-03-10T10:36:08Z</time>
      </trkpt>
      <trkpt lat="49.17154" lon="0.06013">
        <ele>64.4</ele>
        <time>2024-03-10T10:36:09Z</time>
      </trkpt>
      <trkpt lat="49.17159" lon="0.06004">
        <ele>64.5</ele>
        <time>2024-03-10T10:36:10Z</time>
      </trkpt>
      <trkpt lat="49.17164" lon="0.05995">
        <ele>64.6</ele>
        <time>2024-03-10T10:36:11Z</time>
      </trkpt>
      <trkpt lat="49.17169" lon="0.05986">
        <ele>64.6</ele>
        <time>2024-03-10T10:36:12Z</time>
      </trkpt>
      <trkpt lat="49.17174" lon="0.05978">
        <ele>64.6</ele>
        <time>2024-03-10T10:36:13Z</time>
      </trkpt>
      <trkpt lat="49.1718" lon="0.0597">
        <ele>64.5</ele>
        <time>2024-03-10T10:36:14Z</time>
      </trkpt>
      <trkpt lat="49.17186" lon="0.05963">
        <ele>64.5</ele>
        <time>2024-03-10T10:36:15Z</time>
      </trkpt>
      <trkpt lat="49.17192" lon="0.05955">
        <ele>64.5</ele>
        <time>2024-03-10T10:36:16Z</time>
      </trkpt>
      <trkpt lat="49.17198" lon="0.05948">
        <ele>64.4</ele>
        <time>2024-03-10T10:36:17Z</time>
      </trkpt>
      <trkpt lat="49.17204" lon="0.0594">
        <ele>64.4</ele>
        <time>2024-03-10T10:36:18Z</time>
      </trkpt>
      <trkpt lat="49.17209" lon="0.05931">
        <ele>64.4</ele>
        <time>2024-03-10T10:36:19Z</time>
      </trkpt>
      <trkpt lat="49.17214" lon="0.05921">
        <ele>64.3</ele>
        <time>2024-03-10T10:36:20Z</time>
      </trkpt>
      <trkpt lat="49.17217" lon="0.0591">
        <ele>64.3</ele>
        <time>2024-03-10T10:36:21Z</time>
      </trkpt>
      <trkpt lat="49.1722" lon="0.05898">
        <ele>64.4</ele>
        <time>2024-03-10T10:36:22Z</time>
      </trkpt>
      <trkpt lat="49.17221" lon="0.05887">
        <ele>64.4</ele>
        <time>2024-03-10T10:36:23Z</time>
      </trkpt>
      <trkpt lat="49.17222" lon="0.05874">
        <ele>64.5</ele>
        <time>2024-03-10T10:36:24Z</time>
      </trkpt>
      <trkpt lat="49.17222" lon="0.05863">
        <ele>64.7</ele>
        <time>2024-03-10T10:36:25Z</time>
      </trkpt>
      <trkpt lat="49.17222" lon="0.0585">
        <ele>65</ele>
        <time>2024-03-10T10:36:26Z</time>
      </trkpt>
      <trkpt lat="49.17221" lon="0.05839">
        <ele>65.2</ele>
        <time>2024-03-10T10:36:27Z</time>
      </trkpt>
      <trkpt lat="49.17221" lon="0.05828">
        <ele>65.4</ele>
        <time>2024-03-10T10:36:28Z</time>
      </trkpt>
      <trkpt lat="49.1722" lon="0.05817">
        <ele>65.7</ele>
        <time>2024-03-10T10:36:29Z</time>
      </trkpt>
      <trkpt lat="49.17221" lon="0.05807">
        <ele>65.9</ele>
        <time>2024-03-10T10:36:30Z</time>
      </trkpt>
      <trkpt lat="49.1722" lon="0.05797">
        <ele>66.2</ele>
        <time>2024-03-10T10:36:31Z</time>
      </trkpt>
      <trkpt lat="49.17221" lon="0.05787">
        <ele>66.4</ele>
        <time>2024-03-10T10:36:32Z</time>
      </trkpt>
      <trkpt lat="49.17223" lon="0.05777">
        <ele>66.7</ele>
        <time>2024-03-10T10:36:33Z</time>
      </trkpt>
      <trkpt lat="49.17225" lon="0.05767">
        <ele>67</ele>
        <time>2024-03-10T10:36:34Z</time>
      </trkpt>
      <trkpt lat="49.17227" lon="0.05758">
        <ele>67.3</ele>
        <time>2024-03-10T10:36:35Z</time>
      </trkpt>
      <trkpt lat="49.1723" lon="0.05749">
        <ele>67.6</ele>
        <time>2024-03-10T10:36:36Z</time>
      </trkpt>
      <trkpt lat="49.17233" lon="0.05741">
        <ele>67.9</ele>
        <time>2024-03-10T10:36:37Z</time>
      </trkpt>
      <trkpt lat="49.17236" lon="0.05733">
        <ele>68.1</ele>
        <time>2024-03-10T10:36:38Z</time>
      </trkpt>
      <trkpt lat="49.17238" lon="0.05726">
        <ele>68.4</ele>
        <time>2024-03-10T10:36:39Z</time>
      </trkpt>
      <trkpt lat="49.17241" lon="0.05718">
        <ele>68.7</ele>
        <time>2024-03-10T10:36:40Z</time>
      </trkpt>
      <trkpt lat="49.17245" lon="0.05711">
        <ele>69</ele>
        <time>2024-03-10T10:36:41Z</time>
      </trkpt>
      <trkpt lat="49.17248" lon="0.05703">
        <ele>69.2</ele>
        <time>2024-03-10T10:36:42Z</time>
      </trkpt>
      <trkpt lat="49.17251" lon="0.05696">
        <ele>69.4</ele>
        <time>2024-03-10T10:36:43Z</time>
      </trkpt>
      <trkpt lat="49.17254" lon="0.05688">
        <ele>69.6</ele>
        <time>2024-03-10T10:36:44Z</time>
      </trkpt>
      <trkpt lat="49.17257" lon="0.05681">
        <ele>69.8</ele>
        <time>2024-03-10T10:36:45Z</time>
      </trkpt>
      <trkpt lat="49.1726" lon="0.05674">
        <ele>69.9</ele>
        <time>2024-03-10T10:36:46Z</time>
      </trkpt>
      <trkpt lat="49.17264" lon="0.05667">
        <ele>70.1</ele>
        <time>2024-03-10T10:36:47Z</time>
      </trkpt>
      <trkpt lat="49.17268" lon="0.05659">
        <ele>70.2</ele>
        <time>2024-03-10T10:36:48Z</time>
      </trkpt>
      <trkpt lat="49.17272" lon="0.05649">
        <ele>70.4</ele>
        <time>2024-03-10T10:36:49Z</time>
      </trkpt>
      <trkpt lat="49.17276" lon="0.0564">
        <ele>70.5</ele>
        <time>2024-03-10T10:36:50Z</time>
      </trkpt>
      <trkpt lat="49.1728" lon="0.05631">
        <ele>70.6</ele>
        <time>2024-03-10T10:36:51Z</time>
      </trkpt>
      <trkpt lat="49.17284" lon="0.05622">
        <ele>70.8</ele>
        <time>2024-03-10T10:36:52Z</time>
      </trkpt>
      <trkpt lat="49.17288" lon="0.05613">
        <ele>70.9</ele>
        <time>2024-03-10T10:36:53Z</time>
      </trkpt>
      <trkpt lat="49.17292" lon="0.05604">
        <ele>70.9</ele>
        <time>2024-03-10T10:36:54Z</time>
      </trkpt>
      <trkpt lat="49.17296" lon="0.05596">
        <ele>71</ele>
        <time>2024-03-10T10:36:55Z</time>
      </trkpt>
      <trkpt lat="49.173" lon="0.05587">
        <ele>71</ele>
        <time>2024-03-10T10:36:56Z</time>
      </trkpt>
      <trkpt lat="49.17304" lon="0.05578">
        <ele>71.1</ele>
        <time>2024-03-10T10:36:57Z</time>
      </trkpt>
      <trkpt lat="49.17308" lon="0.05569">
        <ele>71.1</ele>
        <time>2024-03-10T10:36:58Z</time>
      </trkpt>
      <trkpt lat="49.17313" lon="0.0556">
        <ele>71.2</ele>
        <time>2024-03-10T10:36:59Z</time>
      </trkpt>
      <trkpt lat="49.17317" lon="0.05551">
        <ele>71.3</ele>
        <time>2024-03-10T10:37:00Z</time>
      </trkpt>
      <trkpt lat="49.17321" lon="0.05542">
        <ele>71.4</ele>
        <time>2024-03-10T10:37:01Z</time>
      </trkpt>
      <trkpt lat="49.17326" lon="0.05533">
        <ele>71.5</ele>
        <time>2024-03-10T10:37:02Z</time>
      </trkpt>
      <trkpt lat="49.17331" lon="0.05525">
        <ele>71.6</ele>
        <time>2024-03-10T10:37:03Z</time>
      </trkpt>
      <trkpt lat="49.17335" lon="0.05516">
        <ele>71.7</ele>
        <time>2024-03-10T10:37:04Z</time>
      </trkpt>
      <trkpt lat="49.1734" lon="0.05508">
        <ele>71.8</ele>
        <time>2024-03-10T10:37:05Z</time>
      </trkpt>
      <trkpt lat="49.17344" lon="0.055">
        <ele>71.9</ele>
        <time>2024-03-10T10:37:06Z</time>
      </trkpt>
      <trkpt lat="49.17349" lon="0.05492">
        <ele>71.9</ele>
        <time>2024-03-10T10:37:07Z</time>
      </trkpt>
      <trkpt lat="49.17354" lon="0.05484">
        <ele>72</ele>
        <time>2024-03-10T10:37:08Z</time>
      </trkpt>
      <trkpt lat="49.17359" lon="0.05476">
        <ele>72.1</ele>
        <time>2024-03-10T10:37:09Z</time>
      </trkpt>
      <trkpt lat="49.17365" lon="0.05469">
        <ele>72.1</ele>
        <time>2024-03-10T10:37:10Z</time>
      </trkpt>
      <trkpt lat="49.1737" lon="0.05461">
        <ele>72.1</ele>
        <time>2024-03-10T10:37:11Z</time>
      </trkpt>
      <trkpt lat="49.17375" lon="0.05455">
        <ele>72.1</ele>
        <time>2024-03-10T10:37:12Z</time>
      </trkpt>
      <trkpt lat="49.17381" lon="0.05448">
        <ele>72.1</ele>
        <time>2024-03-10T10:37:13Z</time>
      </trkpt>
      <trkpt lat="49.17387" lon="0.05441">
        <ele>72</ele>
        <time>2024-03-10T10:37:14Z</time>
      </trkpt>
      <trkpt lat="49.17393" lon="0.05434">
        <ele>71.8</ele>
        <time>2024-03-10T10:37:15Z</time>
      </trkpt>
      <trkpt lat="49.17399" lon="0.05426">
        <ele>71.7</ele>
        <time>2024-03-10T10:37:16Z</time>
      </trkpt>
      <trkpt lat="49.17405" lon="0.05418">
        <ele>71.5</ele>
        <time>2024-03-10T10:37:17Z</time>
      </trkpt>
      <trkpt lat="49.1741" lon="0.05408">
        <ele>71.2</ele>
        <time>2024-03-10T10:37:18Z</time>
      </trkpt>
      <trkpt lat="49.17416" lon="0.05398">
        <ele>70.8</ele>
        <time>2024-03-10T10:37:19Z</time>
      </trkpt>
      <trkpt lat="49.1742" lon="0.05386">
        <ele>70.4</ele>
        <time>2024-03-10T10:37:20Z</time>
      </trkpt>
      <trkpt lat="49.17424" lon="0.05374">
        <ele>70</ele>
        <time>2024-03-10T10:37:21Z</time>
      </trkpt>
      <trkpt lat="49.17428" lon="0.05361">
        <ele>69.5</ele>
        <time>2024-03-10T10:37:22Z</time>
      </trkpt>
      <trkpt lat="49.17431" lon="0.05348">
        <ele>69</ele>
        <time>2024-03-10T10:37:23Z</time>
      </trkpt>
      <trkpt lat="49.17434" lon="0.05334">
        <ele>68.6</ele>
        <time>2024-03-10T10:37:24Z</time>
      </trkpt>
      <trkpt lat="49.17436" lon="0.05319">
        <ele>68.2</ele>
        <time>2024-03-10T10:37:25Z</time>
      </trkpt>
      <trkpt lat="49.17437" lon="0.05304">
        <ele>67.8</ele>
        <time>2024-03-10T10:37:26Z</time>
      </trkpt>
      <trkpt lat="49.17435" lon="0.05289">
        <ele>67.5</ele>
        <time>2024-03-10T10:37:27Z</time>
      </trkpt>
      <trkpt lat="49.17434" lon="0.05275">
        <ele>67.4</ele>
        <time>2024-03-10T10:37:28Z</time>
      </trkpt>
      <trkpt lat="49.17432" lon="0.05261">
        <ele>67.2</ele>
        <time>2024-03-10T10:37:29Z</time>
      </trkpt>
      <trkpt lat="49.1743" lon="0.05248">
        <ele>67.1</ele>
        <time>2024-03-10T10:37:30Z</time>
      </trkpt>
      <trkpt lat="49.17429" lon="0.05235">
        <ele>67</ele>
        <time>2024-03-10T10:37:31Z</time>
      </trkpt>
      <trkpt lat="49.17429" lon="0.05222">
        <ele>67</ele>
        <time>2024-03-10T10:37:32Z</time>
      </trkpt>
      <trkpt lat="49.17429" lon="0.05208">
        <ele>67</ele>
        <time>2024-03-10T10:37:33Z</time>
      </trkpt>
      <trkpt lat="49.17432" lon="0.05196">
        <ele>66.9</ele>
        <time>2024-03-10T10:37:34Z</time>
      </trkpt>
      <trkpt lat="49.17436" lon="0.05183">
        <ele>66.9</ele>
        <time>2024-03-10T10:37:35Z</time>
      </trkpt>
      <trkpt lat="49.17441" lon="0.05171">
        <ele>67</ele>
        <time>2024-03-10T10:37:36Z</time>
      </trkpt>
      <trkpt lat="49.17446" lon="0.05159">
        <ele>67</ele>
        <time>2024-03-10T10:37:37Z</time>
      </trkpt>
      <trkpt lat="49.1745" lon="0.05147">
        <ele>67.1</ele>
        <time>2024-03-10T10:37:38Z</time>
      </trkpt>
      <trkpt lat="49.17455" lon="0.05136">
        <ele>67.2</ele>
        <time>2024-03-10T10:37:39Z</time>
      </trkpt>
      <trkpt lat="49.17459" lon="0.05124">
        <ele>67.3</ele>
        <time>2024-03-10T10:37:40Z</time>
      </trkpt>
      <trkpt lat="49.17463" lon="0.05112">
        <ele>67.3</ele>
        <time>2024-03-10T10:37:41Z</time>
      </trkpt>
      <trkpt lat="49.17467" lon="0.05101">
        <ele>67.3</ele>
        <time>2024-03-10T10:37:42Z</time>
      </trkpt>
      <trkpt lat="49.17471" lon="0.05089">
        <ele>67.4</ele>
        <time>2024-03-10T10:37:43Z</time>
      </trkpt>
      <trkpt lat="49.17474" lon="0.05078">
        <ele>67.4</ele>
        <time>2024-03-10T10:37:44Z</time>
      </trkpt>
      <trkpt lat="49.17478" lon="0.05066">
        <ele>67.4</ele>
        <time>2024-03-10T10:37:45Z</time>
      </trkpt>
      <trkpt lat="49.17482" lon="0.05055">
        <ele>67.4</ele>
        <time>2024-03-10T10:37:46Z</time>
      </trkpt>
      <trkpt lat="49.17486" lon="0.05044">
        <ele>67.4</ele>
        <time>2024-03-10T10:37:47Z</time>
      </trkpt>
      <trkpt lat="49.1749" lon="0.05033">
        <ele>67.4</ele>
        <time>2024-03-10T10:37:48Z</time>
      </trkpt>
      <trkpt lat="49.17495" lon="0.05023">
        <ele>67.3</ele>
        <time>2024-03-10T10:37:49Z</time>
      </trkpt>
      <trkpt lat="49.175" lon="0.05012">
        <ele>67.3</ele>
        <time>2024-03-10T10:37:50Z</time>
      </trkpt>
      <trkpt lat="49.17505" lon="0.05001">
        <ele>67.2</ele>
        <time>2024-03-10T10:37:51Z</time>
      </trkpt>
      <trkpt lat="49.17511" lon="0.04991">
        <ele>67.2</ele>
        <time>2024-03-10T10:37:52Z</time>
      </trkpt>
      <trkpt lat="49.17516" lon="0.04981">
        <ele>67.1</ele>
        <time>2024-03-10T10:37:53Z</time>
      </trkpt>
      <trkpt lat="49.17521" lon="0.0497">
        <ele>67</ele>
        <time>2024-03-10T10:37:54Z</time>
      </trkpt>
      <trkpt lat="49.17526" lon="0.04959">
        <ele>66.9</ele>
        <time>2024-03-10T10:37:55Z</time>
      </trkpt>
      <trkpt lat="49.17532" lon="0.04949">
        <ele>66.8</ele>
        <time>2024-03-10T10:37:56Z</time>
      </trkpt>
      <trkpt lat="49.17537" lon="0.04938">
        <ele>66.7</ele>
        <time>2024-03-10T10:37:57Z</time>
      </trkpt>
      <trkpt lat="49.17542" lon="0.04928">
        <ele>66.6</ele>
        <time>2024-03-10T10:37:58Z</time>
      </trkpt>
      <trkpt lat="49.17548" lon="0.04917">
        <ele>66.5</ele>
        <time>2024-03-10T10:37:59Z</time>
      </trkpt>
      <trkpt lat="49.17553" lon="0.04907">
        <ele>66.4</ele>
        <time>2024-03-10T10:38:00Z</time>
      </trkpt>
      <trkpt lat="49.17559" lon="0.04896">
        <ele>66.3</ele>
        <time>2024-03-10T10:38:01Z</time>
      </trkpt>
      <trkpt lat="49.17565" lon="0.04885">
        <ele>66.2</ele>
        <time>2024-03-10T10:38:02Z</time>
      </trkpt>
      <trkpt lat="49.1757" lon="0.04874">
        <ele>66</ele>
        <time>2024-03-10T10:38:03Z</time>
      </trkpt>
      <trkpt lat="49.17576" lon="0.04863">
        <ele>65.9</ele>
        <time>2024-03-10T10:38:04Z</time>
      </trkpt>
      <trkpt lat="49.17582" lon="0.04853">
        <ele>65.7</ele>
        <time>2024-03-10T10:38:05Z</time>
      </trkpt>
      <trkpt lat="49.17587" lon="0.04841">
        <ele>65.6</ele>
        <time>2024-03-10T10:38:06Z</time>
      </trkpt>
      <trkpt lat="49.17593" lon="0.0483">
        <ele>65.5</ele>
        <time>2024-03-10T10:38:07Z</time>
      </trkpt>
      <trkpt lat="49.17598" lon="0.04819">
        <ele>65.4</ele>
        <time>2024-03-10T10:38:08Z</time>
      </trkpt>
      <trkpt lat="49.17604" lon="0.04808">
        <ele>65.2</ele>
        <time>2024-03-10T10:38:09Z</time>
      </trkpt>
      <trkpt lat="49.17609" lon="0.04797">
        <ele>65.1</ele>
        <time>2024-03-10T10:38:10Z</time>
      </trkpt>
      <trkpt lat="49.17615" lon="0.04786">
        <ele>64.9</ele>
        <time>2024-03-10T10:38:11Z</time>
      </trkpt>
      <trkpt lat="49.1762" lon="0.04775">
        <ele>64.8</ele>
        <time>2024-03-10T10:38:12Z</time>
      </trkpt>
      <trkpt lat="49.17626" lon="0.04765">
        <ele>64.7</ele>
        <time>2024-03-10T10:38:13Z</time>
      </trkpt>
      <trkpt lat="49.17632" lon="0.04754">
        <ele>64.6</ele>
        <time>2024-03-10T10:38:14Z</time>
      </trkpt>
      <trkpt lat="49.17639" lon="0.04744">
        <ele>64.6</ele>
        <time>2024-03-10T10:38:15Z</time>
      </trkpt>
      <trkpt lat="49.17645" lon="0.04734">
        <ele>64.5</ele>
        <time>2024-03-10T10:38:16Z</time>
      </trkpt>
      <trkpt lat="49.17652" lon="0.04724">
        <ele>64.4</ele>
        <time>2024-03-10T10:38:17Z</time>
      </trkpt>
      <trkpt lat="49.17658" lon="0.04714">
        <ele>64.4</ele>
        <time>2024-03-10T10:38:18Z</time>
      </trkpt>
      <trkpt lat="49.17665" lon="0.04704">
        <ele>64.3</ele>
        <time>2024-03-10T10:38:19Z</time>
      </trkpt>
      <trkpt lat="49.17671" lon="0.04695">
        <ele>64.2</ele>
        <time>2024-03-10T10:38:20Z</time>
      </trkpt>
      <trkpt lat="49.17677" lon="0.04684">
        <ele>64.1</ele>
        <time>2024-03-10T10:38:21Z</time>
      </trkpt>
      <trkpt lat="49.17684" lon="0.04674">
        <ele>64.1</ele>
        <time>2024-03-10T10:38:22Z</time>
      </trkpt>
      <trkpt lat="49.1769" lon="0.04664">
        <ele>64.1</ele>
        <time>2024-03-10T10:38:23Z</time>
      </trkpt>
      <trkpt lat="49.17696" lon="0.04654">
        <ele>64</ele>
        <time>2024-03-10T10:38:24Z</time>
      </trkpt>
      <trkpt lat="49.17703" lon="0.04644">
        <ele>63.9</ele>
        <time>2024-03-10T10:38:25Z</time>
      </trkpt>
      <trkpt lat="49.1771" lon="0.04634">
        <ele>63.8</ele>
        <time>2024-03-10T10:38:26Z</time>
      </trkpt>
      <trkpt lat="49.17716" lon="0.04624">
        <ele>63.8</ele>
        <time>2024-03-10T10:38:27Z</time>
      </trkpt>
      <trkpt lat="49.17723" lon="0.04614">
        <ele>63.8</ele>
        <time>2024-03-10T10:38:28Z</time>
      </trkpt>
      <trkpt lat="49.17729" lon="0.04604">
        <ele>63.7</ele>
        <time>2024-03-10T10:38:29Z</time>
      </trkpt>
      <trkpt lat="49.17736" lon="0.04593">
        <ele>63.7</ele>
        <time>2024-03-10T10:38:30Z</time>
      </trkpt>
      <trkpt lat="49.17743" lon="0.04583">
        <ele>63.7</ele>
        <time>2024-03-10T10:38:31Z</time>
      </trkpt>
      <trkpt lat="49.17749" lon="0.04573">
        <ele>63.6</ele>
        <time>2024-03-10T10:38:32Z</time>
      </trkpt>
      <trkpt lat="49.17756" lon="0.04563">
        <ele>63.5</ele>
        <time>2024-03-10T10:38:33Z</time>
      </trkpt>
      <trkpt lat="49.17763" lon="0.04552">
        <ele>63.4</ele>
        <time>2024-03-10T10:38:34Z</time>
      </trkpt>
      <trkpt lat="49.1777" lon="0.04542">
        <ele>63.3</ele>
        <time>2024-03-10T10:38:35Z</time>
      </trkpt>
      <trkpt lat="49.17777" lon="0.04532">
        <ele>63.1</ele>
        <time>2024-03-10T10:38:36Z</time>
      </trkpt>
      <trkpt lat="49.17784" lon="0.04522">
        <ele>62.9</ele>
        <time>2024-03-10T10:38:37Z</time>
      </trkpt>
      <trkpt lat="49.17792" lon="0.04512">
        <ele>62.6</ele>
        <time>2024-03-10T10:38:38Z</time>
      </trkpt>
      <trkpt lat="49.178" lon="0.04502">
        <ele>62.2</ele>
        <time>2024-03-10T10:38:39Z</time>
      </trkpt>
      <trkpt lat="49.17807" lon="0.04493">
        <ele>61.8</ele>
        <time>2024-03-10T10:38:40Z</time>
      </trkpt>
      <trkpt lat="49.17815" lon="0.04483">
        <ele>61.2</ele>
        <time>2024-03-10T10:38:41Z</time>
      </trkpt>
      <trkpt lat="49.17823" lon="0.04472">
        <ele>60.6</ele>
        <time>2024-03-10T10:38:42Z</time>
      </trkpt>
      <trkpt lat="49.17831" lon="0.04461">
        <ele>59.9</ele>
        <time>2024-03-10T10:38:43Z</time>
      </trkpt>
      <trkpt lat="49.1784" lon="0.0445">
        <ele>59.2</ele>
        <time>2024-03-10T10:38:44Z</time>
      </trkpt>
      <trkpt lat="49.17849" lon="0.04439">
        <ele>58.5</ele>
        <time>2024-03-10T10:38:45Z</time>
      </trkpt>
      <trkpt lat="49.17857" lon="0.04428">
        <ele>57.7</ele>
        <time>2024-03-10T10:38:46Z</time>
      </trkpt>
      <trkpt lat="49.17866" lon="0.04417">
        <ele>56.9</ele>
        <time>2024-03-10T10:38:47Z</time>
      </trkpt>
      <trkpt lat="49.17875" lon="0.04406">
        <ele>56.1</ele>
        <time>2024-03-10T10:38:48Z</time>
      </trkpt>
      <trkpt lat="49.17885" lon="0.04395">
        <ele>55.3</ele>
        <time>2024-03-10T10:38:49Z</time>
      </trkpt>
      <trkpt lat="49.17894" lon="0.04384">
        <ele>54.4</ele>
        <time>2024-03-10T10:38:50Z</time>
      </trkpt>
      <trkpt lat="49.17903" lon="0.04372">
        <ele>53.5</ele>
        <time>2024-03-10T10:38:51Z</time>
      </trkpt>
      <trkpt lat="49.17913" lon="0.0436">
        <ele>52.6</ele>
        <time>2024-03-10T10:38:52Z</time>
      </trkpt>
      <trkpt lat="49.17923" lon="0.04349">
        <ele>51.6</ele>
        <time>2024-03-10T10:38:53Z</time>
      </trkpt>
      <trkpt lat="49.17932" lon="0.04337">
        <ele>50.7</ele>
        <time>2024-03-10T10:38:54Z</time>
      </trkpt>
      <trkpt lat="49.17941" lon="0.04324">
        <ele>49.8</ele>
        <time>2024-03-10T10:38:55Z</time>
      </trkpt>
      <trkpt lat="49.1795" lon="0.0431">
        <ele>48.8</ele>
        <time>2024-03-10T10:38:56Z</time>
      </trkpt>
      <trkpt lat="49.17958" lon="0.04295">
        <ele>47.9</ele>
        <time>2024-03-10T10:38:57Z</time>
      </trkpt>
      <trkpt lat="49.17965" lon="0.0428">
        <ele>47</ele>
        <time>2024-03-10T10:38:58Z</time>
      </trkpt>
      <trkpt lat="49.17972" lon="0.04265">
        <ele>46</ele>
        <time>2024-03-10T10:38:59Z</time>
      </trkpt>
      <trkpt lat="49.1798" lon="0.04248">
        <ele>45</ele>
        <time>2024-03-10T10:39:00Z</time>
      </trkpt>
      <trkpt lat="49.17987" lon="0.04231">
        <ele>43.9</ele>
        <time>2024-03-10T10:39:01Z</time>
      </trkpt>
      <trkpt lat="49.17994" lon="0.04214">
        <ele>42.9</ele>
        <time>2024-03-10T10:39:02Z</time>
      </trkpt>
      <trkpt lat="49.18" lon="0.04196">
        <ele>41.9</ele>
        <time>2024-03-10T10:39:03Z</time>
      </trkpt>
      <trkpt lat="49.18007" lon="0.04179">
        <ele>41.1</ele>
        <time>2024-03-10T10:39:04Z</time>
      </trkpt>
      <trkpt lat="49.18014" lon="0.04163">
        <ele>40.4</ele>
        <time>2024-03-10T10:39:05Z</time>
      </trkpt>
      <trkpt lat="49.1802" lon="0.04147">
        <ele>39.7</ele>
        <time>2024-03-10T10:39:06Z</time>
      </trkpt>
      <trkpt lat="49.18028" lon="0.04134">
        <ele>39.2</ele>
        <time>2024-03-10T10:39:07Z</time>
      </trkpt>
      <trkpt lat="49.18037" lon="0.04122">
        <ele>38.7</ele>
        <time>2024-03-10T10:39:08Z</time>
      </trkpt>
      <trkpt lat="49.18047" lon="0.04114">
        <ele>38.3</ele>
        <time>2024-03-10T10:39:09Z</time>
      </trkpt>
      <trkpt lat="49.18058" lon="0.04109">
        <ele>38</ele>
        <time>2024-03-10T10:39:10Z</time>
      </trkpt>
      <trkpt lat="49.18069" lon="0.04105">
        <ele>37.7</ele>
        <time>2024-03-10T10:39:11Z</time>
      </trkpt>
      <trkpt lat="49.1808" lon="0.04102">
        <ele>37.5</ele>
        <time>2024-03-10T10:39:12Z</time>
      </trkpt>
      <trkpt lat="49.18092" lon="0.04099">
        <ele>37.2</ele>
        <time>2024-03-10T10:39:13Z</time>
      </trkpt>
      <trkpt lat="49.18103" lon="0.04097">
        <ele>37.1</ele>
        <time>2024-03-10T10:39:14Z</time>
      </trkpt>
      <trkpt lat="49.18114" lon="0.04096">
        <ele>36.9</ele>
        <time>2024-03-10T10:39:15Z</time>
      </trkpt>
      <trkpt lat="49.18125" lon="0.04094">
        <ele>36.7</ele>
        <time>2024-03-10T10:39:16Z</time>
      </trkpt>
      <trkpt lat="49.18136" lon="0.04092">
        <ele>36.4</ele>
        <time>2024-03-10T10:39:17Z</time>
      </trkpt>
      <trkpt lat="49.18147" lon="0.04091">
        <ele>36.2</ele>
        <time>2024-03-10T10:39:18Z</time>
      </trkpt>
      <trkpt lat="49.18157" lon="0.0409">
        <ele>36</ele>
        <time>2024-03-10T10:39:19Z</time>
      </trkpt>
      <trkpt lat="49.18168" lon="0.0409">
        <ele>35.9</ele>
        <time>2024-03-10T10:39:20Z</time>
      </trkpt>
      <trkpt lat="49.18179" lon="0.0409">
        <ele>35.8</ele>
        <time>2024-03-10T10:39:21Z</time>
      </trkpt>
      <trkpt lat="49.18189" lon="0.0409">
        <ele>35.8</ele>
        <time>2024-03-10T10:39:22Z</time>
      </trkpt>
      <trkpt lat="49.182" lon="0.0409">
        <ele>35.7</ele>
        <time>2024-03-10T10:39:23Z</time>
      </trkpt>
      <trkpt lat="49.18211" lon="0.04091">
        <ele>35.6</ele>
        <time>2024-03-10T10:39:24Z</time>
      </trkpt>
      <trkpt lat="49.18221" lon="0.04091">
        <ele>35.6</ele>
        <time>2024-03-10T10:39:25Z</time>
      </trkpt>
      <trkpt lat="49.18232" lon="0.0409">
        <ele>35.6</ele>
        <time>2024-03-10T10:39:26Z</time>
      </trkpt>
      <trkpt lat="49.18242" lon="0.04091">
        <ele>35.6</ele>
        <time>2024-03-10T10:39:27Z</time>
      </trkpt>
      <trkpt lat="49.18252" lon="0.04091">
        <ele>35.6</ele>
        <time>2024-03-10T10:39:28Z</time>
      </trkpt>
      <trkpt lat="49.18262" lon="0.04092">
        <ele>35.5</ele>
        <time>2024-03-10T10:39:29Z</time>
      </trkpt>
      <trkpt lat="49.18273" lon="0.04094">
        <ele>35.6</ele>
        <time>2024-03-10T10:39:30Z</time>
      </trkpt>
      <trkpt lat="49.18282" lon="0.04095">
        <ele>35.6</ele>
        <time>2024-03-10T10:39:31Z</time>
      </trkpt>
      <trkpt lat="49.18292" lon="0.04096">
        <ele>35.6</ele>
        <time>2024-03-10T10:39:32Z</time>
      </trkpt>
      <trkpt lat="49.18301" lon="0.04097">
        <ele>35.6</ele>
        <time>2024-03-10T10:39:33Z</time>
      </trkpt>
      <trkpt lat="49.1831" lon="0.04098">
        <ele>35.6</ele>
        <time>2024-03-10T10:39:34Z</time>
      </trkpt>
      <trkpt lat="49.18319" lon="0.04099">
        <ele>35.6</ele>
        <time>2024-03-10T10:39:35Z</time>
      </trkpt>
      <trkpt lat="49.18327" lon="0.041">
        <ele>35.5</ele>
        <time>2024-03-10T10:39:36Z</time>
      </trkpt>
      <trkpt lat="49.18335" lon="0.04102">
        <ele>35.5</ele>
        <time>2024-03-10T10:39:37Z</time>
      </trkpt>
      <trkpt lat="49.18342" lon="0.04103">
        <ele>35.5</ele>
        <time>2024-03-10T10:39:38Z</time>
      </trkpt>
      <trkpt lat="49.18348" lon="0.04105">
        <ele>35.5</ele>
        <time>2024-03-10T10:39:39Z</time>
      </trkpt>
      <trkpt lat="49.18353" lon="0.04106">
        <ele>35.6</ele>
        <time>2024-03-10T10:39:40Z</time>
      </trkpt>
      <trkpt lat="49.18357" lon="0.04106">
        <ele>35.6</ele>
        <time>2024-03-10T10:39:41Z</time>
      </trkpt>
      <trkpt lat="49.18361" lon="0.04105">
        <ele>35.7</ele>
        <time>2024-03-10T10:39:42Z</time>
      </trkpt>
      <trkpt lat="49.18365" lon="0.04105">
        <ele>35.8</ele>
        <time>2024-03-10T10:39:43Z</time>
      </trkpt>
      <trkpt lat="49.18368" lon="0.04105">
        <ele>35.8</ele>
        <time>2024-03-10T10:39:44Z</time>
      </trkpt>
      <trkpt lat="49.18372" lon="0.04106">
        <ele>35.9</ele>
        <time>2024-03-10T10:39:45Z</time>
      </trkpt>
      <trkpt lat="49.18373" lon="0.04106">
        <ele>35.9</ele>
        <time>2024-03-10T10:39:46Z</time>
      </trkpt>
      <trkpt lat="49.18375" lon="0.04107">
        <ele>36</ele>
        <time>2024-03-10T10:39:47Z</time>
      </trkpt>
      <trkpt lat="49.18376" lon="0.04107">
        <ele>36</ele>
        <time>2024-03-10T10:39:48Z</time>
      </trkpt>
      <trkpt lat="49.18377" lon="0.04107">
        <ele>36</ele>
        <time>2024-03-10T10:39:49Z</time>
      </trkpt>
      <trkpt lat="49.18377" lon="0.04106">
        <ele>36</ele>
        <time>2024-03-10T10:39:50Z</time>
      </trkpt>
      <trkpt lat="49.18377" lon="0.04106">
        <ele>36.1</ele>
        <time>2024-03-10T10:39:51Z</time>
      </trkpt>
      <trkpt lat="49.18377" lon="0.04106">
        <ele>36.1</ele>
        <time>2024-03-10T10:39:52Z</time>
      </trkpt>
      <trkpt lat="49.18377" lon="0.04106">
        <ele>36.1</ele>
        <time>2024-03-10T10:39:53Z</time>
      </trkpt>
      <trkpt lat="49.18377" lon="0.04106">
        <ele>36.1</ele>
        <time>2024-03-10T10:39:54Z</time>
      </trkpt>
      <trkpt lat="49.18377" lon="0.04106">
        <ele>36.1</ele>
        <time>2024-03-10T10:39:55Z</time>
      </trkpt>
      <trkpt lat="49.18377" lon="0.04106">
        <ele>36.1</ele>
        <time>2024-03-10T10:39:56Z</time>
      </trkpt>
      <trkpt lat="49.18377" lon="0.04106">
        <ele>36.1</ele>
        <time>2024-03-10T10:39:57Z</time>
      </trkpt>
      <trkpt lat="49.18377" lon="0.04106">
        <ele>36.1</ele>
        <time>2024-03-10T10:39:58Z</time>
      </trkpt>
      <trkpt lat="49.18377" lon="0.04106">
        <ele>36.1</ele>
        <time>2024-03-10T10:39:59Z</time>
      </trkpt>
      <trkpt lat="49.18377" lon="0.04106">
        <ele>36.1</ele>
        <time>2024-03-10T10:40:00Z</time>
      </trkpt>
      <trkpt lat="49.18377" lon="0.04106">
        <ele>36.1</ele>
        <time>2024-03-10T10:40:01Z</time>
      </trkpt>
      <trkpt lat="49.18377" lon="0.04106">
        <ele>36.1</ele>
        <time>2024-03-10T10:40:02Z</time>
      </trkpt>
      <trkpt lat="49.18377" lon="0.04105">
        <ele>36.1</ele>
        <time>2024-03-10T10:40:03Z</time>
      </trkpt>
      <trkpt lat="49.18379" lon="0.04104">
        <ele>36.1</ele>
        <time>2024-03-10T10:40:04Z</time>
      </trkpt>
      <trkpt lat="49.1838" lon="0.04098">
        <ele>36.2</ele>
        <time>2024-03-10T10:40:05Z</time>
      </trkpt>
      <trkpt lat="49.1838" lon="0.04096">
        <ele>36.1</ele>
        <time>2024-03-10T10:40:06Z</time>
      </trkpt>
      <trkpt lat="49.1838" lon="0.0409">
        <ele>36.1</ele>
        <time>2024-03-10T10:40:07Z</time>
      </trkpt>
      <trkpt lat="49.1838" lon="0.04084">
        <ele>36.1</ele>
        <time>2024-03-10T10:40:08Z</time>
      </trkpt>
      <trkpt lat="49.18378" lon="0.04077">
        <ele>36.1</ele>
        <time>2024-03-10T10:40:09Z</time>
      </trkpt>
      <trkpt lat="49.18377" lon="0.04071">
        <ele>35.9</ele>
        <time>2024-03-10T10:40:10Z</time>
      </trkpt>
      <trkpt lat="49.18375" lon="0.04064">
        <ele>35.8</ele>
        <time>2024-03-10T10:40:11Z</time>
      </trkpt>
      <trkpt lat="49.18373" lon="0.04057">
        <ele>35.6</ele>
        <time>2024-03-10T10:40:12Z</time>
      </trkpt>
      <trkpt lat="49.18372" lon="0.0405">
        <ele>35.5</ele>
        <time>2024-03-10T10:40:13Z</time>
      </trkpt>
      <trkpt lat="49.1837" lon="0.04042">
        <ele>35.3</ele>
        <time>2024-03-10T10:40:14Z</time>
      </trkpt>
      <trkpt lat="49.18368" lon="0.04034">
        <ele>35.2</ele>
        <time>2024-03-10T10:40:15Z</time>
      </trkpt>
      <trkpt lat="49.18365" lon="0.04024">
        <ele>35</ele>
        <time>2024-03-10T10:40:16Z</time>
      </trkpt>
      <trkpt lat="49.18363" lon="0.04015">
        <ele>34.8</ele>
        <time>2024-03-10T10:40:17Z</time>
      </trkpt>
      <trkpt lat="49.1836" lon="0.04004">
        <ele>34.7</ele>
        <time>2024-03-10T10:40:18Z</time>
      </trkpt>
      <trkpt lat="49.18357" lon="0.03994">
        <ele>34.6</ele>
        <time>2024-03-10T10:40:19Z</time>
      </trkpt>
      <trkpt lat="49.18354" lon="0.03983">
        <ele>34.4</ele>
        <time>2024-03-10T10:40:20Z</time>
      </trkpt>
      <trkpt lat="49.18351" lon="0.03971">
        <ele>34.3</ele>
        <time>2024-03-10T10:40:21Z</time>
      </trkpt>
      <trkpt lat="49.18348" lon="0.0396">
        <ele>34.2</ele>
        <time>2024-03-10T10:40:22Z</time>
      </trkpt>
      <trkpt lat="49.18346" lon="0.03947">
        <ele>34.1</ele>
        <time>2024-03-10T10:40:23Z</time>
      </trkpt>
      <trkpt lat="49.18343" lon="0.03934">
        <ele>33.9</ele>
        <time>2024-03-10T10:40:24Z</time>
      </trkpt>
      <trkpt lat="49.1834" lon="0.03921">
        <ele>33.8</ele>
        <time>2024-03-10T10:40:25Z</time>
      </trkpt>
      <trkpt lat="49.18337" lon="0.03909">
        <ele>33.6</ele>
        <time>2024-03-10T10:40:26Z</time>
      </trkpt>
      <trkpt lat="49.18333" lon="0.03895">
        <ele>33.5</ele>
        <time>2024-03-10T10:40:27Z</time>
      </trkpt>
      <trkpt lat="49.1833" lon="0.03883">
        <ele>33.4</ele>
        <time>2024-03-10T10:40:28Z</time>
      </trkpt>
      <trkpt lat="49.18327" lon="0.0387">
        <ele>33.2</ele>
        <time>2024-03-10T10:40:29Z</time>
      </trkpt>
      <trkpt lat="49.18324" lon="0.03856">
        <ele>33.1</ele>
        <time>2024-03-10T10:40:30Z</time>
      </trkpt>
      <trkpt lat="49.18321" lon="0.03842">
        <ele>33</ele>
        <time>2024-03-10T10:40:31Z</time>
      </trkpt>
      <trkpt lat="49.18318" lon="0.03828">
        <ele>33</ele>
        <time>2024-03-10T10:40:32Z</time>
      </trkpt>
      <trkpt lat="49.18314" lon="0.03815">
        <ele>32.9</ele>
        <time>2024-03-10T10:40:33Z</time>
      </trkpt>
      <trkpt lat="49.1831" lon="0.03801">
        <ele>32.8</ele>
        <time>2024-03-10T10:40:34Z</time>
      </trkpt>
      <trkpt lat="49.18307" lon="0.03788">
        <ele>32.8</ele>
        <time>2024-03-10T10:40:35Z</time>
      </trkpt>
      <trkpt lat="49.18303" lon="0.03775">
        <ele>32.8</ele>
        <time>2024-03-10T10:40:36Z</time>
      </trkpt>
      <trkpt lat="49.183" lon="0.03761">
        <ele>32.8</ele>
        <time>2024-03-10T10:40:37Z</time>
      </trkpt>
      <trkpt lat="49.18297" lon="0.03748">
        <ele>32.8</ele>
        <time>2024-03-10T10:40:38Z</time>
      </trkpt>
      <trkpt lat="49.18294" lon="0.03735">
        <ele>32.8</ele>
        <time>2024-03-10T10:40:39Z</time>
      </trkpt>
      <trkpt lat="49.18291" lon="0.03723">
        <ele>32.8</ele>
        <time>2024-03-10T10:40:40Z</time>
      </trkpt>
      <trkpt lat="49.18288" lon="0.03711">
        <ele>32.9</ele>
        <time>2024-03-10T10:40:41Z</time>
      </trkpt>
      <trkpt lat="49.18285" lon="0.03699">
        <ele>33</ele>
        <time>2024-03-10T10:40:42Z</time>
      </trkpt>
      <trkpt lat="49.18282" lon="0.03688">
        <ele>33.1</ele>
        <time>2024-03-10T10:40:43Z</time>
      </trkpt>
      <trkpt lat="49.1828" lon="0.03677">
        <ele>33.1</ele>
        <time>2024-03-10T10:40:44Z</time>
      </trkpt>
      <trkpt lat="49.18277" lon="0.03665">
        <ele>33.2</ele>
        <time>2024-03-10T10:40:45Z</time>
      </trkpt>
      <trkpt lat="49.18274" lon="0.03655">
        <ele>33.3</ele>
        <time>2024-03-10T10:40:46Z</time>
      </trkpt>
      <trkpt lat="49.18272" lon="0.03644">
        <ele>33.4</ele>
        <time>2024-03-10T10:40:47Z</time>
      </trkpt>
      <trkpt lat="49.1827" lon="0.03633">
        <ele>33.4</ele>
        <time>2024-03-10T10:40:48Z</time>
      </trkpt>
      <trkpt lat="49.18267" lon="0.03622">
        <ele>33.5</ele>
        <time>2024-03-10T10:40:49Z</time>
      </trkpt>
      <trkpt lat="49.18264" lon="0.03612">
        <ele>33.6</ele>
        <time>2024-03-10T10:40:50Z</time>
      </trkpt>
      <trkpt lat="49.18261" lon="0.03601">
        <ele>33.7</ele>
        <time>2024-03-10T10:40:51Z</time>
      </trkpt>
      <trkpt lat="49.18259" lon="0.0359">
        <ele>33.7</ele>
        <time>2024-03-10T10:40:52Z</time>
      </trkpt>
      <trkpt lat="49.18256" lon="0.03579">
        <ele>33.8</ele>
        <time>2024-03-10T10:40:53Z</time>
      </trkpt>
      <trkpt lat="49.18254" lon="0.03568">
        <ele>33.9</ele>
        <time>2024-03-10T10:40:54Z</time>
      </trkpt>
      <trkpt lat="49.18251" lon="0.03557">
        <ele>34</ele>
        <time>2024-03-10T10:40:55Z</time>
      </trkpt>
      <trkpt lat="49.18249" lon="0.03547">
        <ele>34</ele>
        <time>2024-03-10T10:40:56Z</time>
      </trkpt>
      <trkpt lat="49.18246" lon="0.03536">
        <ele>34.1</ele>
        <time>2024-03-10T10:40:57Z</time>
      </trkpt>
      <trkpt lat="49.18243" lon="0.03525">
        <ele>34.2</ele>
        <time>2024-03-10T10:40:58Z</time>
      </trkpt>
      <trkpt lat="49.1824" lon="0.03514">
        <ele>34.3</ele>
        <time>2024-03-10T10:40:59Z</time>
      </trkpt>
      <trkpt lat="49.18237" lon="0.03503">
        <ele>34.3</ele>
        <time>2024-03-10T10:41:00Z</time>
      </trkpt>
      <trkpt lat="49.18234" lon="0.03492">
        <ele>34.4</ele>
        <time>2024-03-10T10:41:01Z</time>
      </trkpt>
      <trkpt lat="49.18232" lon="0.03481">
        <ele>34.4</ele>
        <time>2024-03-10T10:41:02Z</time>
      </trkpt>
      <trkpt lat="49.18229" lon="0.0347">
        <ele>34.4</ele>
        <time>2024-03-10T10:41:03Z</time>
      </trkpt>
      <trkpt lat="49.18226" lon="0.03459">
        <ele>34.5</ele>
        <time>2024-03-10T10:41:04Z</time>
      </trkpt>
      <trkpt lat="49.18224" lon="0.03448">
        <ele>34.5</ele>
        <time>2024-03-10T10:41:05Z</time>
      </trkpt>
      <trkpt lat="49.18221" lon="0.03437">
        <ele>34.5</ele>
        <time>2024-03-10T10:41:06Z</time>
      </trkpt>
      <trkpt lat="49.18219" lon="0.03426">
        <ele>34.5</ele>
        <time>2024-03-10T10:41:07Z</time>
      </trkpt>
      <trkpt lat="49.18216" lon="0.03416">
        <ele>34.5</ele>
        <time>2024-03-10T10:41:08Z</time>
      </trkpt>
      <trkpt lat="49.18213" lon="0.03405">
        <ele>34.5</ele>
        <time>2024-03-10T10:41:09Z</time>
      </trkpt>
      <trkpt lat="49.18211" lon="0.03395">
        <ele>34.5</ele>
        <time>2024-03-10T10:41:10Z</time>
      </trkpt>
      <trkpt lat="49.18208" lon="0.03385">
        <ele>34.4</ele>
        <time>2024-03-10T10:41:11Z</time>
      </trkpt>
      <trkpt lat="49.18206" lon="0.03374">
        <ele>34.4</ele>
        <time>2024-03-10T10:41:12Z</time>
      </trkpt>
      <trkpt lat="49.18203" lon="0.03364">
        <ele>34.4</ele>
        <time>2024-03-10T10:41:13Z</time>
      </trkpt>
      <trkpt lat="49.18201" lon="0.03354">
        <ele>34.4</ele>
        <time>2024-03-10T10:41:14Z</time>
      </trkpt>
      <trkpt lat="49.18198" lon="0.03344">
        <ele>34.4</ele>
        <time>2024-03-10T10:41:15Z</time>
      </trkpt>
      <trkpt lat="49.18196" lon="0.03334">
        <ele>34.4</ele>
        <time>2024-03-10T10:41:16Z</time>
      </trkpt>
      <trkpt lat="49.18193" lon="0.03324">
        <ele>34.4</ele>
        <time>2024-03-10T10:41:17Z</time>
      </trkpt>
      <trkpt lat="49.18191" lon="0.03314">
        <ele>34.5</ele>
        <time>2024-03-10T10:41:18Z</time>
      </trkpt>
      <trkpt lat="49.18189" lon="0.03306">
        <ele>34.5</ele>
        <time>2024-03-10T10:41:19Z</time>
      </trkpt>
      <trkpt lat="49.18187" lon="0.03298">
        <ele>34.6</ele>
        <time>2024-03-10T10:41:20Z</time>
      </trkpt>
      <trkpt lat="49.18185" lon="0.0329">
        <ele>34.6</ele>
        <time>2024-03-10T10:41:21Z</time>
      </trkpt>
      <trkpt lat="49.18183" lon="0.03283">
        <ele>34.7</ele>
        <time>2024-03-10T10:41:22Z</time>
      </trkpt>
      <trkpt lat="49.18181" lon="0.03276">
        <ele>34.7</ele>
        <time>2024-03-10T10:41:23Z</time>
      </trkpt>
      <trkpt lat="49.18179" lon="0.03269">
        <ele>34.8</ele>
        <time>2024-03-10T10:41:24Z</time>
      </trkpt>
      <trkpt lat="49.18178" lon="0.03262">
        <ele>34.8</ele>
        <time>2024-03-10T10:41:25Z</time>
      </trkpt>
      <trkpt lat="49.1818" lon="0.03256">
        <ele>34.8</ele>
        <time>2024-03-10T10:41:26Z</time>
      </trkpt>
      <trkpt lat="49.18184" lon="0.03251">
        <ele>34.1</ele>
        <time>2024-03-10T10:41:27Z</time>
      </trkpt>
      <trkpt lat="49.1819" lon="0.03247">
        <ele>33.6</ele>
        <time>2024-03-10T10:41:28Z</time>
      </trkpt>
      <trkpt lat="49.18196" lon="0.03243">
        <ele>33.2</ele>
        <time>2024-03-10T10:41:29Z</time>
      </trkpt>
      <trkpt lat="49.18203" lon="0.03239">
        <ele>32.8</ele>
        <time>2024-03-10T10:41:30Z</time>
      </trkpt>
      <trkpt lat="49.1821" lon="0.03234">
        <ele>32.4</ele>
        <time>2024-03-10T10:41:31Z</time>
      </trkpt>
      <trkpt lat="49.18217" lon="0.03231">
        <ele>32.1</ele>
        <time>2024-03-10T10:41:32Z</time>
      </trkpt>
      <trkpt lat="49.18224" lon="0.03227">
        <ele>31.8</ele>
        <time>2024-03-10T10:41:33Z</time>
      </trkpt>
      <trkpt lat="49.18231" lon="0.03222">
        <ele>31.6</ele>
        <time>2024-03-10T10:41:34Z</time>
      </trkpt>
      <trkpt lat="49.18239" lon="0.03217">
        <ele>31.4</ele>
        <time>2024-03-10T10:41:35Z</time>
      </trkpt>
      <trkpt lat="49.18246" lon="0.03212">
        <ele>31.2</ele>
        <time>2024-03-10T10:41:36Z</time>
      </trkpt>
      <trkpt lat="49.18254" lon="0.03207">
        <ele>31</ele>
        <time>2024-03-10T10:41:37Z</time>
      </trkpt>
      <trkpt lat="49.18261" lon="0.03202">
        <ele>30.8</ele>
        <time>2024-03-10T10:41:38Z</time>
      </trkpt>
      <trkpt lat="49.18269" lon="0.03197">
        <ele>30.6</ele>
        <time>2024-03-10T10:41:39Z</time>
      </trkpt>
      <trkpt lat="49.18277" lon="0.03192">
        <ele>30.4</ele>
        <time>2024-03-10T10:41:40Z</time>
      </trkpt>
      <trkpt lat="49.18284" lon="0.03186">
        <ele>30.3</ele>
        <time>2024-03-10T10:41:41Z</time>
      </trkpt>
      <trkpt lat="49.18292" lon="0.03181">
        <ele>30.1</ele>
        <time>2024-03-10T10:41:42Z</time>
      </trkpt>
      <trkpt lat="49.183" lon="0.03176">
        <ele>30</ele>
        <time>2024-03-10T10:41:43Z</time>
      </trkpt>
      <trkpt lat="49.18308" lon="0.03171">
        <ele>29.8</ele>
        <time>2024-03-10T10:41:44Z</time>
      </trkpt>
      <trkpt lat="49.18315" lon="0.03166">
        <ele>29.6</ele>
        <time>2024-03-10T10:41:45Z</time>
      </trkpt>
      <trkpt lat="49.18323" lon="0.03161">
        <ele>29.5</ele>
        <time>2024-03-10T10:41:46Z</time>
      </trkpt>
      <trkpt lat="49.18331" lon="0.03155">
        <ele>29.3</ele>
        <time>2024-03-10T10:41:47Z</time>
      </trkpt>
      <trkpt lat="49.18338" lon="0.0315">
        <ele>29.2</ele>
        <time>2024-03-10T10:41:48Z</time>
      </trkpt>
      <trkpt lat="49.18346" lon="0.03145">
        <ele>29.1</ele>
        <time>2024-03-10T10:41:49Z</time>
      </trkpt>
      <trkpt lat="49.18354" lon="0.0314">
        <ele>29</ele>
        <time>2024-03-10T10:41:50Z</time>
      </trkpt>
      <trkpt lat="49.18362" lon="0.03135">
        <ele>28.9</ele>
        <time>2024-03-10T10:41:51Z</time>
      </trkpt>
      <trkpt lat="49.18369" lon="0.0313">
        <ele>28.8</ele>
        <time>2024-03-10T10:41:52Z</time>
      </trkpt>
      <trkpt lat="49.18377" lon="0.03125">
        <ele>28.7</ele>
        <time>2024-03-10T10:41:53Z</time>
      </trkpt>
      <trkpt lat="49.18385" lon="0.0312">
        <ele>28.6</ele>
        <time>2024-03-10T10:41:54Z</time>
      </trkpt>
      <trkpt lat="49.18392" lon="0.03114">
        <ele>28.6</ele>
        <time>2024-03-10T10:41:55Z</time>
      </trkpt>
      <trkpt lat="49.184" lon="0.03108">
        <ele>28.5</ele>
        <time>2024-03-10T10:41:56Z</time>
      </trkpt>
      <trkpt lat="49.18407" lon="0.03101">
        <ele>28.5</ele>
        <time>2024-03-10T10:41:57Z</time>
      </trkpt>
      <trkpt lat="49.18413" lon="0.03093">
        <ele>28.5</ele>
        <time>2024-03-10T10:41:58Z</time>
      </trkpt>
      <trkpt lat="49.18419" lon="0.03085">
        <ele>28.6</ele>
        <time>2024-03-10T10:41:59Z</time>
      </trkpt>
      <trkpt lat="49.18425" lon="0.03077">
        <ele>28.6</ele>
        <time>2024-03-10T10:42:00Z</time>
      </trkpt>
      <trkpt lat="49.18431" lon="0.03069">
        <ele>28.7</ele>
        <time>2024-03-10T10:42:01Z</time>
      </trkpt>
      <trkpt lat="49.18437" lon="0.03061">
        <ele>28.8</ele>
        <time>2024-03-10T10:42:02Z</time>
      </trkpt>
      <trkpt lat="49.18442" lon="0.03055">
        <ele>28.8</ele>
        <time>2024-03-10T10:42:03Z</time>
      </trkpt>
      <trkpt lat="49.18448" lon="0.03048">
        <ele>28.8</ele>
        <time>2024-03-10T10:42:04Z</time>
      </trkpt>
      <trkpt lat="49.18453" lon="0.03041">
        <ele>28.8</ele>
        <time>2024-03-10T10:42:05Z</time>
      </trkpt>
      <trkpt lat="49.18458" lon="0.03035">
        <ele>28.7</ele>
        <time>2024-03-10T10:42:06Z</time>
      </trkpt>
      <trkpt lat="49.18462" lon="0.0303">
        <ele>28.7</ele>
        <time>2024-03-10T10:42:07Z</time>
      </trkpt>
      <trkpt lat="49.18466" lon="0.03023">
        <ele>28.7</ele>
        <time>2024-03-10T10:42:08Z</time>
      </trkpt>
      <trkpt lat="49.18468" lon="0.03015">
        <ele>28.7</ele>
        <time>2024-03-10T10:42:09Z</time>
      </trkpt>
      <trkpt lat="49.18469" lon="0.03006">
        <ele>28.6</ele>
        <time>2024-03-10T10:42:10Z</time>
      </trkpt>
      <trkpt lat="49.18467" lon="0.02996">
        <ele>28.4</ele>
        <time>2024-03-10T10:42:11Z</time>
      </trkpt>
      <trkpt lat="49.18464" lon="0.02985">
        <ele>28.3</ele>
        <time>2024-03-10T10:42:12Z</time>
      </trkpt>
      <trkpt lat="49.1846" lon="0.02976">
        <ele>28.2</ele>
        <time>2024-03-10T10:42:13Z</time>
      </trkpt>
      <trkpt lat="49.18456" lon="0.02968">
        <ele>28.2</ele>
        <time>2024-03-10T10:42:14Z</time>
      </trkpt>
      <trkpt lat="49.18451" lon="0.0296">
        <ele>28.2</ele>
        <time>2024-03-10T10:42:15Z</time>
      </trkpt>
      <trkpt lat="49.18446" lon="0.02952">
        <ele>28.3</ele>
        <time>2024-03-10T10:42:16Z</time>
      </trkpt>
      <trkpt lat="49.18441" lon="0.02945">
        <ele>28.3</ele>
        <time>2024-03-10T10:42:17Z</time>
      </trkpt>
      <trkpt lat="49.18435" lon="0.02939">
        <ele>28.4</ele>
        <time>2024-03-10T10:42:18Z</time>
      </trkpt>
      <trkpt lat="49.1843" lon="0.02933">
        <ele>28.4</ele>
        <time>2024-03-10T10:42:19Z</time>
      </trkpt>
      <trkpt lat="49.18425" lon="0.02926">
        <ele>28.5</ele>
        <time>2024-03-10T10:42:20Z</time>
      </trkpt>
      <trkpt lat="49.1842" lon="0.0292">
        <ele>28.5</ele>
        <time>2024-03-10T10:42:21Z</time>
      </trkpt>
      <trkpt lat="49.18414" lon="0.02915">
        <ele>28.5</ele>
        <time>2024-03-10T10:42:22Z</time>
      </trkpt>
      <trkpt lat="49.18409" lon="0.02908">
        <ele>28.4</ele>
        <time>2024-03-10T10:42:23Z</time>
      </trkpt>
      <trkpt lat="49.18404" lon="0.02902">
        <ele>28.4</ele>
        <time>2024-03-10T10:42:24Z</time>
      </trkpt>
      <trkpt lat="49.18398" lon="0.02896">
        <ele>28.4</ele>
        <time>2024-03-10T10:42:25Z</time>
      </trkpt>
      <trkpt lat="49.18392" lon="0.0289">
        <ele>28.3</ele>
        <time>2024-03-10T10:42:26Z</time>
      </trkpt>
      <trkpt lat="49.18387" lon="0.02884">
        <ele>28.3</ele>
        <time>2024-03-10T10:42:27Z</time>
      </trkpt>
      <trkpt lat="49.18381" lon="0.02877">
        <ele>28.2</ele>
        <time>2024-03-10T10:42:28Z</time>
      </trkpt>
      <trkpt lat="49.18376" lon="0.02869">
        <ele>28.2</ele>
        <time>2024-03-10T10:42:29Z</time>
      </trkpt>
      <trkpt lat="49.18371" lon="0.0286">
        <ele>28.1</ele>
        <time>2024-03-10T10:42:30Z</time>
      </trkpt>
      <trkpt lat="49.18367" lon="0.02851">
        <ele>28.1</ele>
        <time>2024-03-10T10:42:31Z</time>
      </trkpt>
      <trkpt lat="49.18363" lon="0.02842">
        <ele>28</ele>
        <time>2024-03-10T10:42:32Z</time>
      </trkpt>
      <trkpt lat="49.18359" lon="0.02831">
        <ele>27.9</ele>
        <time>2024-03-10T10:42:33Z</time>
      </trkpt>
      <trkpt lat="49.18357" lon="0.0282">
        <ele>27.8</ele>
        <time>2024-03-10T10:42:34Z</time>
      </trkpt>
      <trkpt lat="49.18355" lon="0.02808">
        <ele>27.8</ele>
        <time>2024-03-10T10:42:35Z</time>
      </trkpt>
      <trkpt lat="49.18353" lon="0.02797">
        <ele>27.7</ele>
        <time>2024-03-10T10:42:36Z</time>
      </trkpt>
      <trkpt lat="49.1835" lon="0.02787">
        <ele>27.6</ele>
        <time>2024-03-10T10:42:37Z</time>
      </trkpt>
      <trkpt lat="49.18347" lon="0.02776">
        <ele>27.6</ele>
        <time>2024-03-10T10:42:38Z</time>
      </trkpt>
      <trkpt lat="49.18345" lon="0.02765">
        <ele>27.5</ele>
        <time>2024-03-10T10:42:39Z</time>
      </trkpt>
      <trkpt lat="49.18341" lon="0.02755">
        <ele>27.5</ele>
        <time>2024-03-10T10:42:40Z</time>
      </trkpt>
      <trkpt lat="49.18338" lon="0.02745">
        <ele>27.5</ele>
        <time>2024-03-10T10:42:41Z</time>
      </trkpt>
      <trkpt lat="49.18333" lon="0.02734">
        <ele>27.5</ele>
        <time>2024-03-10T10:42:42Z</time>
      </trkpt>
      <trkpt lat="49.18329" lon="0.02724">
        <ele>27.4</ele>
        <time>2024-03-10T10:42:43Z</time>
      </trkpt>
      <trkpt lat="49.18324" lon="0.02715">
        <ele>27.4</ele>
        <time>2024-03-10T10:42:44Z</time>
      </trkpt>
      <trkpt lat="49.18319" lon="0.02705">
        <ele>27.4</ele>
        <time>2024-03-10T10:42:45Z</time>
      </trkpt>
      <trkpt lat="49.18314" lon="0.02696">
        <ele>27.4</ele>
        <time>2024-03-10T10:42:46Z</time>
      </trkpt>
      <trkpt lat="49.1831" lon="0.02688">
        <ele>27.3</ele>
        <time>2024-03-10T10:42:47Z</time>
      </trkpt>
      <trkpt lat="49.18306" lon="0.02679">
        <ele>27.3</ele>
        <time>2024-03-10T10:42:48Z</time>
      </trkpt>
      <trkpt lat="49.18302" lon="0.0267">
        <ele>27.3</ele>
        <time>2024-03-10T10:42:49Z</time>
      </trkpt>
      <trkpt lat="49.18298" lon="0.02661">
        <ele>27.2</ele>
        <time>2024-03-10T10:42:50Z</time>
      </trkpt>
      <trkpt lat="49.18295" lon="0.02651">
        <ele>27.2</ele>
        <time>2024-03-10T10:42:51Z</time>
      </trkpt>
      <trkpt lat="49.18291" lon="0.02642">
        <ele>27.2</ele>
        <time>2024-03-10T10:42:52Z</time>
      </trkpt>
      <trkpt lat="49.18288" lon="0.02631">
        <ele>27.1</ele>
        <time>2024-03-10T10:42:53Z</time>
      </trkpt>
      <trkpt lat="49.18285" lon="0.0262">
        <ele>27.1</ele>
        <time>2024-03-10T10:42:54Z</time>
      </trkpt>
      <trkpt lat="49.18284" lon="0.02609">
        <ele>27.1</ele>
        <time>2024-03-10T10:42:55Z</time>
      </trkpt>
      <trkpt lat="49.18282" lon="0.02598">
        <ele>27.1</ele>
        <time>2024-03-10T10:42:56Z</time>
      </trkpt>
      <trkpt lat="49.18282" lon="0.02586">
        <ele>27.2</ele>
        <time>2024-03-10T10:42:57Z</time>
      </trkpt>
      <trkpt lat="49.18281" lon="0.02573">
        <ele>27.2</ele>
        <time>2024-03-10T10:42:58Z</time>
      </trkpt>
      <trkpt lat="49.1828" lon="0.02562">
        <ele>27.3</ele>
        <time>2024-03-10T10:42:59Z</time>
      </trkpt>
      <trkpt lat="49.1828" lon="0.0255">
        <ele>27.4</ele>
        <time>2024-03-10T10:43:00Z</time>
      </trkpt>
      <trkpt lat="49.18279" lon="0.02539">
        <ele>27.5</ele>
        <time>2024-03-10T10:43:01Z</time>
      </trkpt>
      <trkpt lat="49.18279" lon="0.02527">
        <ele>27.6</ele>
        <time>2024-03-10T10:43:02Z</time>
      </trkpt>
      <trkpt lat="49.18278" lon="0.02516">
        <ele>27.7</ele>
        <time>2024-03-10T10:43:03Z</time>
      </trkpt>
      <trkpt lat="49.18278" lon="0.02505">
        <ele>27.8</ele>
        <time>2024-03-10T10:43:04Z</time>
      </trkpt>
      <trkpt lat="49.18277" lon="0.02494">
        <ele>27.9</ele>
        <time>2024-03-10T10:43:05Z</time>
      </trkpt>
      <trkpt lat="49.18276" lon="0.02484">
        <ele>28.1</ele>
        <time>2024-03-10T10:43:06Z</time>
      </trkpt>
      <trkpt lat="49.18275" lon="0.02473">
        <ele>28.2</ele>
        <time>2024-03-10T10:43:07Z</time>
      </trkpt>
      <trkpt lat="49.18274" lon="0.02463">
        <ele>28.4</ele>
        <time>2024-03-10T10:43:08Z</time>
      </trkpt>
      <trkpt lat="49.18273" lon="0.02452">
        <ele>28.5</ele>
        <time>2024-03-10T10:43:09Z</time>
      </trkpt>
      <trkpt lat="49.18272" lon="0.02441">
        <ele>28.7</ele>
        <time>2024-03-10T10:43:10Z</time>
      </trkpt>
      <trkpt lat="49.18271" lon="0.0243">
        <ele>29</ele>
        <time>2024-03-10T10:43:11Z</time>
      </trkpt>
      <trkpt lat="49.1827" lon="0.0242">
        <ele>29.2</ele>
        <time>2024-03-10T10:43:12Z</time>
      </trkpt>
      <trkpt lat="49.18269" lon="0.0241">
        <ele>29.5</ele>
        <time>2024-03-10T10:43:13Z</time>
      </trkpt>
      <trkpt lat="49.18268" lon="0.02401">
        <ele>29.8</ele>
        <time>2024-03-10T10:43:14Z</time>
      </trkpt>
      <trkpt lat="49.18267" lon="0.02392">
        <ele>30</ele>
        <time>2024-03-10T10:43:15Z</time>
      </trkpt>
      <trkpt lat="49.18265" lon="0.02383">
        <ele>30.3</ele>
        <time>2024-03-10T10:43:16Z</time>
      </trkpt>
      <trkpt lat="49.18264" lon="0.02373">
        <ele>30.6</ele>
        <time>2024-03-10T10:43:17Z</time>
      </trkpt>
      <trkpt lat="49.18263" lon="0.02365">
        <ele>30.8</ele>
        <time>2024-03-10T10:43:18Z</time>
      </trkpt>
      <trkpt lat="49.18261" lon="0.02356">
        <ele>31.1</ele>
        <time>2024-03-10T10:43:19Z</time>
      </trkpt>
      <trkpt lat="49.18259" lon="0.02347">
        <ele>31.3</ele>
        <time>2024-03-10T10:43:20Z</time>
      </trkpt>
      <trkpt lat="49.18257" lon="0.02338">
        <ele>31.5</ele>
        <time>2024-03-10T10:43:21Z</time>
      </trkpt>
      <trkpt lat="49.18254" lon="0.0233">
        <ele>31.7</ele>
        <time>2024-03-10T10:43:22Z</time>
      </trkpt>
      <trkpt lat="49.18251" lon="0.02322">
        <ele>31.9</ele>
        <time>2024-03-10T10:43:23Z</time>
      </trkpt>
      <trkpt lat="49.18248" lon="0.02314">
        <ele>32.1</ele>
        <time>2024-03-10T10:43:24Z</time>
      </trkpt>
      <trkpt lat="49.18245" lon="0.02306">
        <ele>32.3</ele>
        <time>2024-03-10T10:43:25Z</time>
      </trkpt>
      <trkpt lat="49.18241" lon="0.02297">
        <ele>32.5</ele>
        <time>2024-03-10T10:43:26Z</time>
      </trkpt>
      <trkpt lat="49.18238" lon="0.02289">
        <ele>32.6</ele>
        <time>2024-03-10T10:43:27Z</time>
      </trkpt>
      <trkpt lat="49.18236" lon="0.0228">
        <ele>32.8</ele>
        <time>2024-03-10T10:43:28Z</time>
      </trkpt>
      <trkpt lat="49.18234" lon="0.0227">
        <ele>33</ele>
        <time>2024-03-10T10:43:29Z</time>
      </trkpt>
      <trkpt lat="49.18233" lon="0.0226">
        <ele>33.1</ele>
        <time>2024-03-10T10:43:30Z</time>
      </trkpt>
      <trkpt lat="49.18233" lon="0.02249">
        <ele>33.2</ele>
        <time>2024-03-10T10:43:31Z</time>
      </trkpt>
      <trkpt lat="49.18234" lon="0.02238">
        <ele>33.4</ele>
        <time>2024-03-10T10:43:32Z</time>
      </trkpt>
      <trkpt lat="49.18234" lon="0.02228">
        <ele>33.5</ele>
        <time>2024-03-10T10:43:33Z</time>
      </trkpt>
      <trkpt lat="49.18235" lon="0.02217">
        <ele>33.5</ele>
        <time>2024-03-10T10:43:34Z</time>
      </trkpt>
      <trkpt lat="49.18236" lon="0.02207">
        <ele>33.6</ele>
        <time>2024-03-10T10:43:35Z</time>
      </trkpt>
      <trkpt lat="49.18237" lon="0.02197">
        <ele>33.7</ele>
        <time>2024-03-10T10:43:36Z</time>
      </trkpt>
      <trkpt lat="49.18238" lon="0.02186">
        <ele>33.7</ele>
        <time>2024-03-10T10:43:37Z</time>
      </trkpt>
      <trkpt lat="49.18238" lon="0.02175">
        <ele>33.8</ele>
        <time>2024-03-10T10:43:38Z</time>
      </trkpt>
      <trkpt lat="49.18238" lon="0.02164">
        <ele>33.8</ele>
        <time>2024-03-10T10:43:39Z</time>
      </trkpt>
      <trkpt lat="49.18237" lon="0.02153">
        <ele>33.8</ele>
        <time>2024-03-10T10:43:40Z</time>
      </trkpt>
      <trkpt lat="49.18236" lon="0.02142">
        <ele>33.8</ele>
        <time>2024-03-10T10:43:41Z</time>
      </trkpt>
      <trkpt lat="49.18235" lon="0.02132">
        <ele>33.8</ele>
        <time>2024-03-10T10:43:42Z</time>
      </trkpt>
      <trkpt lat="49.18234" lon="0.02121">
        <ele>33.8</ele>
        <time>2024-03-10T10:43:43Z</time>
      </trkpt>
      <trkpt lat="49.18233" lon="0.0211">
        <ele>33.7</ele>
        <time>2024-03-10T10:43:44Z</time>
      </trkpt>
      <trkpt lat="49.18232" lon="0.02099">
        <ele>33.7</ele>
        <time>2024-03-10T10:43:45Z</time>
      </trkpt>
      <trkpt lat="49.1823" lon="0.02088">
        <ele>33.6</ele>
        <time>2024-03-10T10:43:46Z</time>
      </trkpt>
      <trkpt lat="49.18229" lon="0.02077">
        <ele>33.5</ele>
        <time>2024-03-10T10:43:47Z</time>
      </trkpt>
      <trkpt lat="49.18227" lon="0.02066">
        <ele>33.4</ele>
        <time>2024-03-10T10:43:48Z</time>
      </trkpt>
      <trkpt lat="49.18225" lon="0.02055">
        <ele>33.4</ele>
        <time>2024-03-10T10:43:49Z</time>
      </trkpt>
      <trkpt lat="49.18223" lon="0.02044">
        <ele>33.3</ele>
        <time>2024-03-10T10:43:50Z</time>
      </trkpt>
      <trkpt lat="49.1822" lon="0.02033">
        <ele>33.1</ele>
        <time>2024-03-10T10:43:51Z</time>
      </trkpt>
      <trkpt lat="49.18219" lon="0.02021">
        <ele>33</ele>
        <time>2024-03-10T10:43:52Z</time>
      </trkpt>
      <trkpt lat="49.18217" lon="0.02009">
        <ele>32.9</ele>
        <time>2024-03-10T10:43:53Z</time>
      </trkpt>
      <trkpt lat="49.18217" lon="0.01996">
        <ele>32.7</ele>
        <time>2024-03-10T10:43:54Z</time>
      </trkpt>
      <trkpt lat="49.18218" lon="0.01984">
        <ele>32.5</ele>
        <time>2024-03-10T10:43:55Z</time>
      </trkpt>
      <trkpt lat="49.18222" lon="0.01972">
        <ele>32.3</ele>
        <time>2024-03-10T10:43:56Z</time>
      </trkpt>
      <trkpt lat="49.18227" lon="0.01962">
        <ele>32.1</ele>
        <time>2024-03-10T10:43:57Z</time>
      </trkpt>
      <trkpt lat="49.18233" lon="0.01953">
        <ele>31.9</ele>
        <time>2024-03-10T10:43:58Z</time>
      </trkpt>
      <trkpt lat="49.18238" lon="0.01943">
        <ele>31.8</ele>
        <time>2024-03-10T10:43:59Z</time>
      </trkpt>
      <trkpt lat="49.18242" lon="0.01932">
        <ele>31.7</ele>
        <time>2024-03-10T10:44:00Z</time>
      </trkpt>
      <trkpt lat="49.18245" lon="0.0192">
        <ele>31.5</ele>
        <time>2024-03-10T10:44:01Z</time>
      </trkpt>
      <trkpt lat="49.18247" lon="0.01909">
        <ele>31.4</ele>
        <time>2024-03-10T10:44:02Z</time>
      </trkpt>
      <trkpt lat="49.18249" lon="0.01897">
        <ele>31.3</ele>
        <time>2024-03-10T10:44:03Z</time>
      </trkpt>
      <trkpt lat="49.18249" lon="0.01884">
        <ele>31.2</ele>
        <time>2024-03-10T10:44:04Z</time>
      </trkpt>
      <trkpt lat="49.18249" lon="0.01871">
        <ele>31.2</ele>
        <time>2024-03-10T10:44:05Z</time>
      </trkpt>
      <trkpt lat="49.18248" lon="0.01858">
        <ele>31.1</ele>
        <time>2024-03-10T10:44:06Z</time>
      </trkpt>
      <trkpt lat="49.18247" lon="0.01845">
        <ele>31.1</ele>
        <time>2024-03-10T10:44:07Z</time>
      </trkpt>
      <trkpt lat="49.18246" lon="0.01833">
        <ele>31</ele>
        <time>2024-03-10T10:44:08Z</time>
      </trkpt>
      <trkpt lat="49.18245" lon="0.0182">
        <ele>30.9</ele>
        <time>2024-03-10T10:44:09Z</time>
      </trkpt>
      <trkpt lat="49.18244" lon="0.01808">
        <ele>30.8</ele>
        <time>2024-03-10T10:44:10Z</time>
      </trkpt>
      <trkpt lat="49.18244" lon="0.01795">
        <ele>30.8</ele>
        <time>2024-03-10T10:44:11Z</time>
      </trkpt>
      <trkpt lat="49.18243" lon="0.01782">
        <ele>30.7</ele>
        <time>2024-03-10T10:44:12Z</time>
      </trkpt>
      <trkpt lat="49.18242" lon="0.0177">
        <ele>30.6</ele>
        <time>2024-03-10T10:44:13Z</time>
      </trkpt>
      <trkpt lat="49.18241" lon="0.01758">
        <ele>30.5</ele>
        <time>2024-03-10T10:44:14Z</time>
      </trkpt>
      <trkpt lat="49.1824" lon="0.01746">
        <ele>30.4</ele>
        <time>2024-03-10T10:44:15Z</time>
      </trkpt>
      <trkpt lat="49.18237" lon="0.01734">
        <ele>30.2</ele>
        <time>2024-03-10T10:44:16Z</time>
      </trkpt>
      <trkpt lat="49.18234" lon="0.01722">
        <ele>30.1</ele>
        <time>2024-03-10T10:44:17Z</time>
      </trkpt>
      <trkpt lat="49.1823" lon="0.0171">
        <ele>30</ele>
        <time>2024-03-10T10:44:18Z</time>
      </trkpt>
      <trkpt lat="49.18225" lon="0.01699">
        <ele>29.8</ele>
        <time>2024-03-10T10:44:19Z</time>
      </trkpt>
      <trkpt lat="49.18219" lon="0.01689">
        <ele>29.7</ele>
        <time>2024-03-10T10:44:20Z</time>
      </trkpt>
      <trkpt lat="49.18212" lon="0.0168">
        <ele>29.7</ele>
        <time>2024-03-10T10:44:21Z</time>
      </trkpt>
      <trkpt lat="49.18206" lon="0.01672">
        <ele>29.6</ele>
        <time>2024-03-10T10:44:22Z</time>
      </trkpt>
      <trkpt lat="49.182" lon="0.01664">
        <ele>29.6</ele>
        <time>2024-03-10T10:44:23Z</time>
      </trkpt>
      <trkpt lat="49.18193" lon="0.01656">
        <ele>29.6</ele>
        <time>2024-03-10T10:44:24Z</time>
      </trkpt>
      <trkpt lat="49.18187" lon="0.01649">
        <ele>29.6</ele>
        <time>2024-03-10T10:44:25Z</time>
      </trkpt>
      <trkpt lat="49.1818" lon="0.01641">
        <ele>29.6</ele>
        <time>2024-03-10T10:44:26Z</time>
      </trkpt>
      <trkpt lat="49.18174" lon="0.01633">
        <ele>29.6</ele>
        <time>2024-03-10T10:44:27Z</time>
      </trkpt>
      <trkpt lat="49.18168" lon="0.01625">
        <ele>29.7</ele>
        <time>2024-03-10T10:44:28Z</time>
      </trkpt>
      <trkpt lat="49.18163" lon="0.01616">
        <ele>29.7</ele>
        <time>2024-03-10T10:44:29Z</time>
      </trkpt>
      <trkpt lat="49.18158" lon="0.01607">
        <ele>29.8</ele>
        <time>2024-03-10T10:44:30Z</time>
      </trkpt>
      <trkpt lat="49.18154" lon="0.01596">
        <ele>29.9</ele>
        <time>2024-03-10T10:44:31Z</time>
      </trkpt>
      <trkpt lat="49.18149" lon="0.01586">
        <ele>30</ele>
        <time>2024-03-10T10:44:32Z</time>
      </trkpt>
      <trkpt lat="49.18146" lon="0.01576">
        <ele>30.2</ele>
        <time>2024-03-10T10:44:33Z</time>
      </trkpt>
      <trkpt lat="49.18142" lon="0.01565">
        <ele>30.4</ele>
        <time>2024-03-10T10:44:34Z</time>
      </trkpt>
      <trkpt lat="49.18139" lon="0.01554">
        <ele>30.6</ele>
        <time>2024-03-10T10:44:35Z</time>
      </trkpt>
      <trkpt lat="49.18136" lon="0.01543">
        <ele>30.9</ele>
        <time>2024-03-10T10:44:36Z</time>
      </trkpt>
      <trkpt lat="49.18133" lon="0.01532">
        <ele>31.1</ele>
        <time>2024-03-10T10:44:37Z</time>
      </trkpt>
      <trkpt lat="49.18131" lon="0.01521">
        <ele>31.4</ele>
        <time>2024-03-10T10:44:38Z</time>
      </trkpt>
      <trkpt lat="49.18128" lon="0.01511">
        <ele>31.6</ele>
        <time>2024-03-10T10:44:39Z</time>
      </trkpt>
      <trkpt lat="49.18125" lon="0.01501">
        <ele>31.7</ele>
        <time>2024-03-10T10:44:40Z</time>
      </trkpt>
      <trkpt lat="49.18123" lon="0.0149">
        <ele>31.9</ele>
        <time>2024-03-10T10:44:41Z</time>
      </trkpt>
      <trkpt lat="49.1812" lon="0.0148">
        <ele>32.1</ele>
        <time>2024-03-10T10:44:42Z</time>
      </trkpt>
      <trkpt lat="49.18118" lon="0.01469">
        <ele>32.3</ele>
        <time>2024-03-10T10:44:43Z</time>
      </trkpt>
      <trkpt lat="49.18116" lon="0.01458">
        <ele>32.5</ele>
        <time>2024-03-10T10:44:44Z</time>
      </trkpt>
      <trkpt lat="49.18114" lon="0.01448">
        <ele>32.7</ele>
        <time>2024-03-10T10:44:45Z</time>
      </trkpt>
      <trkpt lat="49.18111" lon="0.01437">
        <ele>32.8</ele>
        <time>2024-03-10T10:44:46Z</time>
      </trkpt>
      <trkpt lat="49.18108" lon="0.01427">
        <ele>33</ele>
        <time>2024-03-10T10:44:47Z</time>
      </trkpt>
      <trkpt lat="49.18106" lon="0.01418">
        <ele>33.1</ele>
        <time>2024-03-10T10:44:48Z</time>
      </trkpt>
      <trkpt lat="49.18103" lon="0.01407">
        <ele>33.2</ele>
        <time>2024-03-10T10:44:49Z</time>
      </trkpt>
      <trkpt lat="49.18101" lon="0.01398">
        <ele>33.3</ele>
        <time>2024-03-10T10:44:50Z</time>
      </trkpt>
      <trkpt lat="49.18098" lon="0.01388">
        <ele>33.3</ele>
        <time>2024-03-10T10:44:51Z</time>
      </trkpt>
      <trkpt lat="49.18096" lon="0.01379">
        <ele>33.4</ele>
        <time>2024-03-10T10:44:52Z</time>
      </trkpt>
      <trkpt lat="49.18093" lon="0.01369">
        <ele>33.5</ele>
        <time>2024-03-10T10:44:53Z</time>
      </trkpt>
      <trkpt lat="49.18091" lon="0.01358">
        <ele>33.6</ele>
        <time>2024-03-10T10:44:54Z</time>
      </trkpt>
      <trkpt lat="49.18088" lon="0.01348">
        <ele>33.7</ele>
        <time>2024-03-10T10:44:55Z</time>
      </trkpt>
      <trkpt lat="49.18086" lon="0.01338">
        <ele>33.8</ele>
        <time>2024-03-10T10:44:56Z</time>
      </trkpt>
      <trkpt lat="49.18084" lon="0.01329">
        <ele>33.8</ele>
        <time>2024-03-10T10:44:57Z</time>
      </trkpt>
      <trkpt lat="49.18082" lon="0.01318">
        <ele>33.9</ele>
        <time>2024-03-10T10:44:58Z</time>
      </trkpt>
      <trkpt lat="49.18081" lon="0.01308">
        <ele>34</ele>
        <time>2024-03-10T10:44:59Z</time>
      </trkpt>
      <trkpt lat="49.18079" lon="0.01297">
        <ele>34</ele>
        <time>2024-03-10T10:45:00Z</time>
      </trkpt>
      <trkpt lat="49.18078" lon="0.01287">
        <ele>34.1</ele>
        <time>2024-03-10T10:45:01Z</time>
      </trkpt>
      <trkpt lat="49.18077" lon="0.01276">
        <ele>34.2</ele>
        <time>2024-03-10T10:45:02Z</time>
      </trkpt>
      <trkpt lat="49.18076" lon="0.01265">
        <ele>34.2</ele>
        <time>2024-03-10T10:45:03Z</time>
      </trkpt>
      <trkpt lat="49.18076" lon="0.01254">
        <ele>34.3</ele>
        <time>2024-03-10T10:45:04Z</time>
      </trkpt>
      <trkpt lat="49.18076" lon="0.01241">
        <ele>34.4</ele>
        <time>2024-03-10T10:45:05Z</time>
      </trkpt>
      <trkpt lat="49.18076" lon="0.01229">
        <ele>34.5</ele>
        <time>2024-03-10T10:45:06Z</time>
      </trkpt>
      <trkpt lat="49.18076" lon="0.01216">
        <ele>34.6</ele>
        <time>2024-03-10T10:45:07Z</time>
      </trkpt>
      <trkpt lat="49.18076" lon="0.01203">
        <ele>34.6</ele>
        <time>2024-03-10T10:45:08Z</time>
      </trkpt>
      <trkpt lat="49.18076" lon="0.01191">
        <ele>34.7</ele>
        <time>2024-03-10T10:45:09Z</time>
      </trkpt>
      <trkpt lat="49.18076" lon="0.01179">
        <ele>34.7</ele>
        <time>2024-03-10T10:45:10Z</time>
      </trkpt>
      <trkpt lat="49.18076" lon="0.01167">
        <ele>34.7</ele>
        <time>2024-03-10T10:45:11Z</time>
      </trkpt>
      <trkpt lat="49.18076" lon="0.01155">
        <ele>34.7</ele>
        <time>2024-03-10T10:45:12Z</time>
      </trkpt>
      <trkpt lat="49.18076" lon="0.01144">
        <ele>34.7</ele>
        <time>2024-03-10T10:45:13Z</time>
      </trkpt>
      <trkpt lat="49.18076" lon="0.01133">
        <ele>34.6</ele>
        <time>2024-03-10T10:45:14Z</time>
      </trkpt>
      <trkpt lat="49.18076" lon="0.01121">
        <ele>34.6</ele>
        <time>2024-03-10T10:45:15Z</time>
      </trkpt>
      <trkpt lat="49.18077" lon="0.0111">
        <ele>34.5</ele>
        <time>2024-03-10T10:45:16Z</time>
      </trkpt>
      <trkpt lat="49.18077" lon="0.01098">
        <ele>34.5</ele>
        <time>2024-03-10T10:45:17Z</time>
      </trkpt>
      <trkpt lat="49.18078" lon="0.01087">
        <ele>34.4</ele>
        <time>2024-03-10T10:45:18Z</time>
      </trkpt>
      <trkpt lat="49.18078" lon="0.01075">
        <ele>34.4</ele>
        <time>2024-03-10T10:45:19Z</time>
      </trkpt>
      <trkpt lat="49.18079" lon="0.01062">
        <ele>34.3</ele>
        <time>2024-03-10T10:45:20Z</time>
      </trkpt>
      <trkpt lat="49.1808" lon="0.01051">
        <ele>34.2</ele>
        <time>2024-03-10T10:45:21Z</time>
      </trkpt>
      <trkpt lat="49.1808" lon="0.01039">
        <ele>34.2</ele>
        <time>2024-03-10T10:45:22Z</time>
      </trkpt>
      <trkpt lat="49.1808" lon="0.01026">
        <ele>34.2</ele>
        <time>2024-03-10T10:45:23Z</time>
      </trkpt>
      <trkpt lat="49.1808" lon="0.01013">
        <ele>34.1</ele>
        <time>2024-03-10T10:45:24Z</time>
      </trkpt>
      <trkpt lat="49.18079" lon="0.01001">
        <ele>34.1</ele>
        <time>2024-03-10T10:45:25Z</time>
      </trkpt>
      <trkpt lat="49.18079" lon="0.00989">
        <ele>34</ele>
        <time>2024-03-10T10:45:26Z</time>
      </trkpt>
      <trkpt lat="49.18077" lon="0.00977">
        <ele>34</ele>
        <time>2024-03-10T10:45:27Z</time>
      </trkpt>
      <trkpt lat="49.18074" lon="0.00965">
        <ele>33.9</ele>
        <time>2024-03-10T10:45:28Z</time>
      </trkpt>
      <trkpt lat="49.18072" lon="0.00953">
        <ele>33.9</ele>
        <time>2024-03-10T10:45:29Z</time>
      </trkpt>
      <trkpt lat="49.1807" lon="0.00941">
        <ele>33.8</ele>
        <time>2024-03-10T10:45:30Z</time>
      </trkpt>
      <trkpt lat="49.18068" lon="0.0093">
        <ele>33.8</ele>
        <time>2024-03-10T10:45:31Z</time>
      </trkpt>
      <trkpt lat="49.18066" lon="0.00918">
        <ele>33.7</ele>
        <time>2024-03-10T10:45:32Z</time>
      </trkpt>
      <trkpt lat="49.18065" lon="0.00905">
        <ele>33.7</ele>
        <time>2024-03-10T10:45:33Z</time>
      </trkpt>
      <trkpt lat="49.18065" lon="0.00892">
        <ele>33.6</ele>
        <time>2024-03-10T10:45:34Z</time>
      </trkpt>
      <trkpt lat="49.18065" lon="0.0088">
        <ele>33.5</ele>
        <time>2024-03-10T10:45:35Z</time>
      </trkpt>
      <trkpt lat="49.18067" lon="0.00868">
        <ele>33.5</ele>
        <time>2024-03-10T10:45:36Z</time>
      </trkpt>
      <trkpt lat="49.1807" lon="0.00856">
        <ele>33.4</ele>
        <time>2024-03-10T10:45:37Z</time>
      </trkpt>
      <trkpt lat="49.18072" lon="0.00844">
        <ele>33.3</ele>
        <time>2024-03-10T10:45:38Z</time>
      </trkpt>
      <trkpt lat="49.18075" lon="0.00832">
        <ele>33.3</ele>
        <time>2024-03-10T10:45:39Z</time>
      </trkpt>
      <trkpt lat="49.18077" lon="0.0082">
        <ele>33.2</ele>
        <time>2024-03-10T10:45:40Z</time>
      </trkpt>
      <trkpt lat="49.1808" lon="0.00809">
        <ele>33</ele>
        <time>2024-03-10T10:45:41Z</time>
      </trkpt>
      <trkpt lat="49.18084" lon="0.00798">
        <ele>32.9</ele>
        <time>2024-03-10T10:45:42Z</time>
      </trkpt>
      <trkpt lat="49.18087" lon="0.00788">
        <ele>32.7</ele>
        <time>2024-03-10T10:45:43Z</time>
      </trkpt>
      <trkpt lat="49.18091" lon="0.00777">
        <ele>32.6</ele>
        <time>2024-03-10T10:45:44Z</time>
      </trkpt>
      <trkpt lat="49.18095" lon="0.00766">
        <ele>32.5</ele>
        <time>2024-03-10T10:45:45Z</time>
      </trkpt>
      <trkpt lat="49.18098" lon="0.00754">
        <ele>32.4</ele>
        <time>2024-03-10T10:45:46Z</time>
      </trkpt>
      <trkpt lat="49.181" lon="0.00742">
        <ele>32.3</ele>
        <time>2024-03-10T10:45:47Z</time>
      </trkpt>
      <trkpt lat="49.18101" lon="0.00729">
        <ele>32.2</ele>
        <time>2024-03-10T10:45:48Z</time>
      </trkpt>
      <trkpt lat="49.18102" lon="0.00716">
        <ele>32.2</ele>
        <time>2024-03-10T10:45:49Z</time>
      </trkpt>
      <trkpt lat="49.18103" lon="0.00703">
        <ele>32.2</ele>
        <time>2024-03-10T10:45:50Z</time>
      </trkpt>
      <trkpt lat="49.18103" lon="0.0069">
        <ele>32.2</ele>
        <time>2024-03-10T10:45:51Z</time>
      </trkpt>
      <trkpt lat="49.18103" lon="0.00676">
        <ele>32.1</ele>
        <time>2024-03-10T10:45:52Z</time>
      </trkpt>
      <trkpt lat="49.18103" lon="0.00663">
        <ele>32.1</ele>
        <time>2024-03-10T10:45:53Z</time>
      </trkpt>
      <trkpt lat="49.18102" lon="0.0065">
        <ele>32.1</ele>
        <time>2024-03-10T10:45:54Z</time>
      </trkpt>
      <trkpt lat="49.18101" lon="0.00638">
        <ele>32.1</ele>
        <time>2024-03-10T10:45:55Z</time>
      </trkpt>
      <trkpt lat="49.18099" lon="0.00625">
        <ele>32.2</ele>
        <time>2024-03-10T10:45:56Z</time>
      </trkpt>
      <trkpt lat="49.18097" lon="0.00613">
        <ele>32.2</ele>
        <time>2024-03-10T10:45:57Z</time>
      </trkpt>
      <trkpt lat="49.18095" lon="0.00602">
        <ele>32.2</ele>
        <time>2024-03-10T10:45:58Z</time>
      </trkpt>
      <trkpt lat="49.18093" lon="0.0059">
        <ele>32.1</ele>
        <time>2024-03-10T10:45:59Z</time>
      </trkpt>
      <trkpt lat="49.18091" lon="0.00578">
        <ele>32.1</ele>
        <time>2024-03-10T10:46:00Z</time>
      </trkpt>
      <trkpt lat="49.18088" lon="0.00565">
        <ele>32</ele>
        <time>2024-03-10T10:46:01Z</time>
      </trkpt>
      <trkpt lat="49.18085" lon="0.00552">
        <ele>32</ele>
        <time>2024-03-10T10:46:02Z</time>
      </trkpt>
      <trkpt lat="49.18083" lon="0.00539">
        <ele>31.9</ele>
        <time>2024-03-10T10:46:03Z</time>
      </trkpt>
      <trkpt lat="49.1808" lon="0.00527">
        <ele>31.9</ele>
        <time>2024-03-10T10:46:04Z</time>
      </trkpt>
      <trkpt lat="49.18077" lon="0.00515">
        <ele>31.8</ele>
        <time>2024-03-10T10:46:05Z</time>
      </trkpt>
      <trkpt lat="49.18074" lon="0.00504">
        <ele>31.8</ele>
        <time>2024-03-10T10:46:06Z</time>
      </trkpt>
      <trkpt lat="49.18072" lon="0.00492">
        <ele>31.8</ele>
        <time>2024-03-10T10:46:07Z</time>
      </trkpt>
      <trkpt lat="49.18069" lon="0.00479">
        <ele>31.8</ele>
        <time>2024-03-10T10:46:08Z</time>
      </trkpt>
      <trkpt lat="49.18067" lon="0.00467">
        <ele>31.7</ele>
        <time>2024-03-10T10:46:09Z</time>
      </trkpt>
      <trkpt lat="49.18065" lon="0.00456">
        <ele>31.6</ele>
        <time>2024-03-10T10:46:10Z</time>
      </trkpt>
      <trkpt lat="49.18062" lon="0.00444">
        <ele>31.6</ele>
        <time>2024-03-10T10:46:11Z</time>
      </trkpt>
      <trkpt lat="49.18059" lon="0.00432">
        <ele>31.5</ele>
        <time>2024-03-10T10:46:12Z</time>
      </trkpt>
      <trkpt lat="49.18056" lon="0.00421">
        <ele>31.4</ele>
        <time>2024-03-10T10:46:13Z</time>
      </trkpt>
      <trkpt lat="49.18054" lon="0.00409">
        <ele>31.4</ele>
        <time>2024-03-10T10:46:14Z</time>
      </trkpt>
      <trkpt lat="49.18051" lon="0.00398">
        <ele>31.3</ele>
        <time>2024-03-10T10:46:15Z</time>
      </trkpt>
      <trkpt lat="49.18048" lon="0.00386">
        <ele>31.3</ele>
        <time>2024-03-10T10:46:16Z</time>
      </trkpt>
      <trkpt lat="49.18045" lon="0.00375">
        <ele>31.3</ele>
        <time>2024-03-10T10:46:17Z</time>
      </trkpt>
      <trkpt lat="49.18043" lon="0.00364">
        <ele>31.3</ele>
        <time>2024-03-10T10:46:18Z</time>
      </trkpt>
      <trkpt lat="49.1804" lon="0.00353">
        <ele>31.3</ele>
        <time>2024-03-10T10:46:19Z</time>
      </trkpt>
      <trkpt lat="49.18037" lon="0.00341">
        <ele>31.3</ele>
        <time>2024-03-10T10:46:20Z</time>
      </trkpt>
      <trkpt lat="49.18035" lon="0.00329">
        <ele>31.3</ele>
        <time>2024-03-10T10:46:21Z</time>
      </trkpt>
      <trkpt lat="49.18033" lon="0.00317">
        <ele>31.3</ele>
        <time>2024-03-10T10:46:22Z</time>
      </trkpt>
      <trkpt lat="49.18031" lon="0.00305">
        <ele>31.4</ele>
        <time>2024-03-10T10:46:23Z</time>
      </trkpt>
      <trkpt lat="49.18029" lon="0.00293">
        <ele>31.5</ele>
        <time>2024-03-10T10:46:24Z</time>
      </trkpt>
      <trkpt lat="49.18027" lon="0.00281">
        <ele>31.7</ele>
        <time>2024-03-10T10:46:25Z</time>
      </trkpt>
      <trkpt lat="49.18026" lon="0.0027">
        <ele>31.8</ele>
        <time>2024-03-10T10:46:26Z</time>
      </trkpt>
      <trkpt lat="49.18024" lon="0.00258">
        <ele>32</ele>
        <time>2024-03-10T10:46:27Z</time>
      </trkpt>
      <trkpt lat="49.18022" lon="0.00247">
        <ele>32.1</ele>
        <time>2024-03-10T10:46:28Z</time>
      </trkpt>
      <trkpt lat="49.18021" lon="0.00236">
        <ele>32.2</ele>
        <time>2024-03-10T10:46:29Z</time>
      </trkpt>
      <trkpt lat="49.18019" lon="0.00224">
        <ele>32.3</ele>
        <time>2024-03-10T10:46:30Z</time>
      </trkpt>
      <trkpt lat="49.18017" lon="0.00213">
        <ele>32.4</ele>
        <time>2024-03-10T10:46:31Z</time>
      </trkpt>
      <trkpt lat="49.18014" lon="0.00203">
        <ele>32.5</ele>
        <time>2024-03-10T10:46:32Z</time>
      </trkpt>
      <trkpt lat="49.18012" lon="0.00192">
        <ele>32.5</ele>
        <time>2024-03-10T10:46:33Z</time>
      </trkpt>
      <trkpt lat="49.1801" lon="0.00181">
        <ele>32.5</ele>
        <time>2024-03-10T10:46:34Z</time>
      </trkpt>
      <trkpt lat="49.18008" lon="0.0017">
        <ele>32.6</ele>
        <time>2024-03-10T10:46:35Z</time>
      </trkpt>
      <trkpt lat="49.18005" lon="0.0016">
        <ele>32.6</ele>
        <time>2024-03-10T10:46:36Z</time>
      </trkpt>
      <trkpt lat="49.18003" lon="0.00149">
        <ele>32.6</ele>
        <time>2024-03-10T10:46:37Z</time>
      </trkpt>
      <trkpt lat="49.18001" lon="0.00138">
        <ele>32.7</ele>
        <time>2024-03-10T10:46:38Z</time>
      </trkpt>
      <trkpt lat="49.17999" lon="0.00128">
        <ele>32.7</ele>
        <time>2024-03-10T10:46:39Z</time>
      </trkpt>
      <trkpt lat="49.17997" lon="0.00117">
        <ele>32.7</ele>
        <time>2024-03-10T10:46:40Z</time>
      </trkpt>
      <trkpt lat="49.17996" lon="0.00106">
        <ele>32.7</ele>
        <time>2024-03-10T10:46:41Z</time>
      </trkpt>
      <trkpt lat="49.17995" lon="0.00095">
        <ele>32.7</ele>
        <time>2024-03-10T10:46:42Z</time>
      </trkpt>
      <trkpt lat="49.17994" lon="0.00083">
        <ele>32.7</ele>
        <time>2024-03-10T10:46:43Z</time>
      </trkpt>
      <trkpt lat="49.17994" lon="0.00071">
        <ele>32.8</ele>
        <time>2024-03-10T10:46:44Z</time>
      </trkpt>
      <trkpt lat="49.17993" lon="0.0006">
        <ele>32.8</ele>
        <time>2024-03-10T10:46:45Z</time>
      </trkpt>
      <trkpt lat="49.17994" lon="0.00049">
        <ele>32.8</ele>
        <time>2024-03-10T10:46:46Z</time>
      </trkpt>
      <trkpt lat="49.17994" lon="0.00038">
        <ele>32.8</ele>
        <time>2024-03-10T10:46:47Z</time>
      </trkpt>
      <trkpt lat="49.17995" lon="0.00026">
        <ele>32.8</ele>
        <time>2024-03-10T10:46:48Z</time>
      </trkpt>
      <trkpt lat="49.17995" lon="0.00014">
        <ele>32.8</ele>
        <time>2024-03-10T10:46:49Z</time>
      </trkpt>
      <trkpt lat="49.17995" lon="2.0E-5">
        <ele>32.8</ele>
        <time>2024-03-10T10:46:50Z</time>
      </trkpt>
      <trkpt lat="49.17996" lon="-0.00011">
        <ele>32.8</ele>
        <time>2024-03-10T10:46:51Z</time>
      </trkpt>
      <trkpt lat="49.17996" lon="-0.00024">
        <ele>32.7</ele>
        <time>2024-03-10T10:46:52Z</time>
      </trkpt>
      <trkpt lat="49.17998" lon="-0.00036">
        <ele>32.7</ele>
        <time>2024-03-10T10:46:53Z</time>
      </trkpt>
      <trkpt lat="49.18001" lon="-0.00047">
        <ele>32.7</ele>
        <time>2024-03-10T10:46:54Z</time>
      </trkpt>
      <trkpt lat="49.18003" lon="-0.00059">
        <ele>32.7</ele>
        <time>2024-03-10T10:46:55Z</time>
      </trkpt>
      <trkpt lat="49.18007" lon="-0.0007">
        <ele>32.7</ele>
        <time>2024-03-10T10:46:56Z</time>
      </trkpt>
      <trkpt lat="49.1801" lon="-0.00082">
        <ele>32.7</ele>
        <time>2024-03-10T10:46:57Z</time>
      </trkpt>
      <trkpt lat="49.18013" lon="-0.00094">
        <ele>32.7</ele>
        <time>2024-03-10T10:46:58Z</time>
      </trkpt>
      <trkpt lat="49.18017" lon="-0.00105">
        <ele>32.7</ele>
        <time>2024-03-10T10:46:59Z</time>
      </trkpt>
      <trkpt lat="49.18021" lon="-0.00117">
        <ele>32.7</ele>
        <time>2024-03-10T10:47:00Z</time>
      </trkpt>
      <trkpt lat="49.18024" lon="-0.00128">
        <ele>32.7</ele>
        <time>2024-03-10T10:47:01Z</time>
      </trkpt>
      <trkpt lat="49.18028" lon="-0.00139">
        <ele>32.7</ele>
        <time>2024-03-10T10:47:02Z</time>
      </trkpt>
      <trkpt lat="49.18032" lon="-0.0015">
        <ele>32.8</ele>
        <time>2024-03-10T10:47:03Z</time>
      </trkpt>
      <trkpt lat="49.18035" lon="-0.0016">
        <ele>32.8</ele>
        <time>2024-03-10T10:47:04Z</time>
      </trkpt>
      <trkpt lat="49.18039" lon="-0.00171">
        <ele>32.9</ele>
        <time>2024-03-10T10:47:05Z</time>
      </trkpt>
      <trkpt lat="49.18042" lon="-0.00182">
        <ele>33</ele>
        <time>2024-03-10T10:47:06Z</time>
      </trkpt>
      <trkpt lat="49.18045" lon="-0.00193">
        <ele>33.1</ele>
        <time>2024-03-10T10:47:07Z</time>
      </trkpt>
      <trkpt lat="49.18048" lon="-0.00204">
        <ele>33.2</ele>
        <time>2024-03-10T10:47:08Z</time>
      </trkpt>
      <trkpt lat="49.18051" lon="-0.00215">
        <ele>33.2</ele>
        <time>2024-03-10T10:47:09Z</time>
      </trkpt>
      <trkpt lat="49.18054" lon="-0.00226">
        <ele>33.2</ele>
        <time>2024-03-10T10:47:10Z</time>
      </trkpt>
      <trkpt lat="49.18057" lon="-0.00238">
        <ele>33.2</ele>
        <time>2024-03-10T10:47:11Z</time>
      </trkpt>
      <trkpt lat="49.18059" lon="-0.0025">
        <ele>33.2</ele>
        <time>2024-03-10T10:47:12Z</time>
      </trkpt>
      <trkpt lat="49.18062" lon="-0.00262">
        <ele>33.2</ele>
        <time>2024-03-10T10:47:13Z</time>
      </trkpt>
      <trkpt lat="49.18064" lon="-0.00274">
        <ele>33.3</ele>
        <time>2024-03-10T10:47:14Z</time>
      </trkpt>
      <trkpt lat="49.18065" lon="-0.00287">
        <ele>33.4</ele>
        <time>2024-03-10T10:47:15Z</time>
      </trkpt>
      <trkpt lat="49.18067" lon="-0.003">
        <ele>33.4</ele>
        <time>2024-03-10T10:47:16Z</time>
      </trkpt>
      <trkpt lat="49.18069" lon="-0.00313">
        <ele>33.5</ele>
        <time>2024-03-10T10:47:17Z</time>
      </trkpt>
      <trkpt lat="49.18071" lon="-0.00325">
        <ele>33.6</ele>
        <time>2024-03-10T10:47:18Z</time>
      </trkpt>
      <trkpt lat="49.18073" lon="-0.00336">
        <ele>33.6</ele>
        <time>2024-03-10T10:47:19Z</time>
      </trkpt>
      <trkpt lat="49.18075" lon="-0.00347">
        <ele>33.7</ele>
        <time>2024-03-10T10:47:20Z</time>
      </trkpt>
      <trkpt lat="49.18077" lon="-0.00359">
        <ele>33.8</ele>
        <time>2024-03-10T10:47:21Z</time>
      </trkpt>
      <trkpt lat="49.18079" lon="-0.0037">
        <ele>33.8</ele>
        <time>2024-03-10T10:47:22Z</time>
      </trkpt>
      <trkpt lat="49.18081" lon="-0.00382">
        <ele>33.9</ele>
        <time>2024-03-10T10:47:23Z</time>
      </trkpt>
      <trkpt lat="49.18083" lon="-0.00393">
        <ele>34</ele>
        <time>2024-03-10T10:47:24Z</time>
      </trkpt>
      <trkpt lat="49.18085" lon="-0.00404">
        <ele>34</ele>
        <time>2024-03-10T10:47:25Z</time>
      </trkpt>
      <trkpt lat="49.18088" lon="-0.00415">
        <ele>34.1</ele>
        <time>2024-03-10T10:47:26Z</time>
      </trkpt>
      <trkpt lat="49.1809" lon="-0.00426">
        <ele>34.1</ele>
        <time>2024-03-10T10:47:27Z</time>
      </trkpt>
      <trkpt lat="49.18093" lon="-0.00437">
        <ele>34.1</ele>
        <time>2024-03-10T10:47:28Z</time>
      </trkpt>
      <trkpt lat="49.18096" lon="-0.00449">
        <ele>34.2</ele>
        <time>2024-03-10T10:47:29Z</time>
      </trkpt>
      <trkpt lat="49.18098" lon="-0.00461">
        <ele>34.2</ele>
        <time>2024-03-10T10:47:30Z</time>
      </trkpt>
      <trkpt lat="49.181" lon="-0.00473">
        <ele>34.3</ele>
        <time>2024-03-10T10:47:31Z</time>
      </trkpt>
      <trkpt lat="49.18102" lon="-0.00485">
        <ele>34.4</ele>
        <time>2024-03-10T10:47:32Z</time>
      </trkpt>
      <trkpt lat="49.18104" lon="-0.00497">
        <ele>34.5</ele>
        <time>2024-03-10T10:47:33Z</time>
      </trkpt>
      <trkpt lat="49.18106" lon="-0.00509">
        <ele>34.6</ele>
        <time>2024-03-10T10:47:34Z</time>
      </trkpt>
      <trkpt lat="49.18108" lon="-0.00521">
        <ele>34.7</ele>
        <time>2024-03-10T10:47:35Z</time>
      </trkpt>
      <trkpt lat="49.18109" lon="-0.00532">
        <ele>34.8</ele>
        <time>2024-03-10T10:47:36Z</time>
      </trkpt>
      <trkpt lat="49.1811" lon="-0.00543">
        <ele>34.9</ele>
        <time>2024-03-10T10:47:37Z</time>
      </trkpt>
      <trkpt lat="49.1811" lon="-0.00555">
        <ele>35</ele>
        <time>2024-03-10T10:47:38Z</time>
      </trkpt>
      <trkpt lat="49.18109" lon="-0.00566">
        <ele>35.1</ele>
        <time>2024-03-10T10:47:39Z</time>
      </trkpt>
      <trkpt lat="49.18109" lon="-0.00577">
        <ele>35.3</ele>
        <time>2024-03-10T10:47:40Z</time>
      </trkpt>
      <trkpt lat="49.18108" lon="-0.00588">
        <ele>35.4</ele>
        <time>2024-03-10T10:47:41Z</time>
      </trkpt>
      <trkpt lat="49.18108" lon="-0.00599">
        <ele>35.5</ele>
        <time>2024-03-10T10:47:42Z</time>
      </trkpt>
      <trkpt lat="49.18108" lon="-0.0061">
        <ele>35.6</ele>
        <time>2024-03-10T10:47:43Z</time>
      </trkpt>
      <trkpt lat="49.18108" lon="-0.00621">
        <ele>35.7</ele>
        <time>2024-03-10T10:47:44Z</time>
      </trkpt>
      <trkpt lat="49.18108" lon="-0.00633">
        <ele>35.8</ele>
        <time>2024-03-10T10:47:45Z</time>
      </trkpt>
      <trkpt lat="49.18107" lon="-0.00643">
        <ele>36</ele>
        <time>2024-03-10T10:47:46Z</time>
      </trkpt>
      <trkpt lat="49.18106" lon="-0.00654">
        <ele>36.1</ele>
        <time>2024-03-10T10:47:47Z</time>
      </trkpt>
      <trkpt lat="49.18106" lon="-0.00665">
        <ele>36.3</ele>
        <time>2024-03-10T10:47:48Z</time>
      </trkpt>
      <trkpt lat="49.18105" lon="-0.00676">
        <ele>36.4</ele>
        <time>2024-03-10T10:47:49Z</time>
      </trkpt>
      <trkpt lat="49.18104" lon="-0.00688">
        <ele>36.5</ele>
        <time>2024-03-10T10:47:50Z</time>
      </trkpt>
      <trkpt lat="49.18103" lon="-0.00699">
        <ele>36.6</ele>
        <time>2024-03-10T10:47:51Z</time>
      </trkpt>
      <trkpt lat="49.18101" lon="-0.0071">
        <ele>36.6</ele>
        <time>2024-03-10T10:47:52Z</time>
      </trkpt>
      <trkpt lat="49.181" lon="-0.00722">
        <ele>36.7</ele>
        <time>2024-03-10T10:47:53Z</time>
      </trkpt>
      <trkpt lat="49.18099" lon="-0.00734">
        <ele>36.8</ele>
        <time>2024-03-10T10:47:54Z</time>
      </trkpt>
      <trkpt lat="49.18098" lon="-0.00746">
        <ele>36.9</ele>
        <time>2024-03-10T10:47:55Z</time>
      </trkpt>
      <trkpt lat="49.18096" lon="-0.00758">
        <ele>36.9</ele>
        <time>2024-03-10T10:47:56Z</time>
      </trkpt>
      <trkpt lat="49.18095" lon="-0.0077">
        <ele>37</ele>
        <time>2024-03-10T10:47:57Z</time>
      </trkpt>
      <trkpt lat="49.18094" lon="-0.00782">
        <ele>37.1</ele>
        <time>2024-03-10T10:47:58Z</time>
      </trkpt>
      <trkpt lat="49.18092" lon="-0.00793">
        <ele>37.1</ele>
        <time>2024-03-10T10:47:59Z</time>
      </trkpt>
      <trkpt lat="49.18091" lon="-0.00805">
        <ele>37.1</ele>
        <time>2024-03-10T10:48:00Z</time>
      </trkpt>
      <trkpt lat="49.1809" lon="-0.00816">
        <ele>37</ele>
        <time>2024-03-10T10:48:01Z</time>
      </trkpt>
      <trkpt lat="49.18088" lon="-0.00827">
        <ele>36.9</ele>
        <time>2024-03-10T10:48:02Z</time>
      </trkpt>
      <trkpt lat="49.18087" lon="-0.0084">
        <ele>36.8</ele>
        <time>2024-03-10T10:48:03Z</time>
      </trkpt>
      <trkpt lat="49.18086" lon="-0.00852">
        <ele>36.6</ele>
        <time>2024-03-10T10:48:04Z</time>
      </trkpt>
      <trkpt lat="49.18084" lon="-0.00864">
        <ele>36.5</ele>
        <time>2024-03-10T10:48:05Z</time>
      </trkpt>
      <trkpt lat="49.18083" lon="-0.00877">
        <ele>36.3</ele>
        <time>2024-03-10T10:48:06Z</time>
      </trkpt>
      <trkpt lat="49.18081" lon="-0.0089">
        <ele>36</ele>
        <time>2024-03-10T10:48:07Z</time>
      </trkpt>
      <trkpt lat="49.18079" lon="-0.00904">
        <ele>35.8</ele>
        <time>2024-03-10T10:48:08Z</time>
      </trkpt>
      <trkpt lat="49.18077" lon="-0.00917">
        <ele>35.5</ele>
        <time>2024-03-10T10:48:09Z</time>
      </trkpt>
      <trkpt lat="49.18076" lon="-0.00931">
        <ele>35.2</ele>
        <time>2024-03-10T10:48:10Z</time>
      </trkpt>
      <trkpt lat="49.18075" lon="-0.00945">
        <ele>34.9</ele>
        <time>2024-03-10T10:48:11Z</time>
      </trkpt>
      <trkpt lat="49.18075" lon="-0.00959">
        <ele>34.7</ele>
        <time>2024-03-10T10:48:12Z</time>
      </trkpt>
      <trkpt lat="49.18075" lon="-0.00973">
        <ele>34.4</ele>
        <time>2024-03-10T10:48:13Z</time>
      </trkpt>
      <trkpt lat="49.18076" lon="-0.00987">
        <ele>34.2</ele>
        <time>2024-03-10T10:48:14Z</time>
      </trkpt>
      <trkpt lat="49.18076" lon="-0.01001">
        <ele>34.1</ele>
        <time>2024-03-10T10:48:15Z</time>
      </trkpt>
      <trkpt lat="49.18077" lon="-0.01015">
        <ele>34</ele>
        <time>2024-03-10T10:48:16Z</time>
      </trkpt>
      <trkpt lat="49.18078" lon="-0.01029">
        <ele>33.9</ele>
        <time>2024-03-10T10:48:17Z</time>
      </trkpt>
      <trkpt lat="49.18078" lon="-0.01043">
        <ele>33.9</ele>
        <time>2024-03-10T10:48:18Z</time>
      </trkpt>
      <trkpt lat="49.18078" lon="-0.01056">
        <ele>33.9</ele>
        <time>2024-03-10T10:48:19Z</time>
      </trkpt>
      <trkpt lat="49.18078" lon="-0.01069">
        <ele>33.9</ele>
        <time>2024-03-10T10:48:20Z</time>
      </trkpt>
      <trkpt lat="49.18078" lon="-0.01082">
        <ele>34</ele>
        <time>2024-03-10T10:48:21Z</time>
      </trkpt>
      <trkpt lat="49.18078" lon="-0.01095">
        <ele>34.1</ele>
        <time>2024-03-10T10:48:22Z</time>
      </trkpt>
      <trkpt lat="49.18078" lon="-0.01107">
        <ele>34.2</ele>
        <time>2024-03-10T10:48:23Z</time>
      </trkpt>
      <trkpt lat="49.18078" lon="-0.01119">
        <ele>34.3</ele>
        <time>2024-03-10T10:48:24Z</time>
      </trkpt>
      <trkpt lat="49.18078" lon="-0.01131">
        <ele>34.4</ele>
        <time>2024-03-10T10:48:25Z</time>
      </trkpt>
      <trkpt lat="49.18079" lon="-0.01143">
        <ele>34.5</ele>
        <time>2024-03-10T10:48:26Z</time>
      </trkpt>
      <trkpt lat="49.18079" lon="-0.01155">
        <ele>34.7</ele>
        <time>2024-03-10T10:48:27Z</time>
      </trkpt>
      <trkpt lat="49.18079" lon="-0.01168">
        <ele>34.8</ele>
        <time>2024-03-10T10:48:28Z</time>
      </trkpt>
      <trkpt lat="49.18079" lon="-0.0118">
        <ele>35</ele>
        <time>2024-03-10T10:48:29Z</time>
      </trkpt>
      <trkpt lat="49.18079" lon="-0.01193">
        <ele>35.1</ele>
        <time>2024-03-10T10:48:30Z</time>
      </trkpt>
      <trkpt lat="49.18079" lon="-0.01205">
        <ele>35.3</ele>
        <time>2024-03-10T10:48:31Z</time>
      </trkpt>
      <trkpt lat="49.18079" lon="-0.01216">
        <ele>35.4</ele>
        <time>2024-03-10T10:48:32Z</time>
      </trkpt>
      <trkpt lat="49.1808" lon="-0.01228">
        <ele>35.6</ele>
        <time>2024-03-10T10:48:33Z</time>
      </trkpt>
      <trkpt lat="49.18079" lon="-0.0124">
        <ele>35.7</ele>
        <time>2024-03-10T10:48:34Z</time>
      </trkpt>
      <trkpt lat="49.18079" lon="-0.01253">
        <ele>35.9</ele>
        <time>2024-03-10T10:48:35Z</time>
      </trkpt>
      <trkpt lat="49.18078" lon="-0.01266">
        <ele>36.1</ele>
        <time>2024-03-10T10:48:36Z</time>
      </trkpt>
      <trkpt lat="49.18077" lon="-0.01279">
        <ele>36.3</ele>
        <time>2024-03-10T10:48:37Z</time>
      </trkpt>
      <trkpt lat="49.18075" lon="-0.01291">
        <ele>36.5</ele>
        <time>2024-03-10T10:48:38Z</time>
      </trkpt>
      <trkpt lat="49.18072" lon="-0.01302">
        <ele>36.7</ele>
        <time>2024-03-10T10:48:39Z</time>
      </trkpt>
      <trkpt lat="49.1807" lon="-0.01313">
        <ele>36.8</ele>
        <time>2024-03-10T10:48:40Z</time>
      </trkpt>
      <trkpt lat="49.18067" lon="-0.01323">
        <ele>37</ele>
        <time>2024-03-10T10:48:41Z</time>
      </trkpt>
      <trkpt lat="49.18065" lon="-0.01333">
        <ele>37.2</ele>
        <time>2024-03-10T10:48:42Z</time>
      </trkpt>
      <trkpt lat="49.18063" lon="-0.01344">
        <ele>37.4</ele>
        <time>2024-03-10T10:48:43Z</time>
      </trkpt>
      <trkpt lat="49.18061" lon="-0.01354">
        <ele>37.5</ele>
        <time>2024-03-10T10:48:44Z</time>
      </trkpt>
      <trkpt lat="49.18059" lon="-0.01364">
        <ele>37.7</ele>
        <time>2024-03-10T10:48:45Z</time>
      </trkpt>
      <trkpt lat="49.18057" lon="-0.01374">
        <ele>37.9</ele>
        <time>2024-03-10T10:48:46Z</time>
      </trkpt>
      <trkpt lat="49.18055" lon="-0.01384">
        <ele>38.1</ele>
        <time>2024-03-10T10:48:47Z</time>
      </trkpt>
      <trkpt lat="49.18054" lon="-0.01395">
        <ele>38.2</ele>
        <time>2024-03-10T10:48:48Z</time>
      </trkpt>
      <trkpt lat="49.18053" lon="-0.01406">
        <ele>38.3</ele>
        <time>2024-03-10T10:48:49Z</time>
      </trkpt>
      <trkpt lat="49.18052" lon="-0.01416">
        <ele>38.4</ele>
        <time>2024-03-10T10:48:50Z</time>
      </trkpt>
      <trkpt lat="49.18052" lon="-0.01426">
        <ele>38.4</ele>
        <time>2024-03-10T10:48:51Z</time>
      </trkpt>
      <trkpt lat="49.18051" lon="-0.01436">
        <ele>38.4</ele>
        <time>2024-03-10T10:48:52Z</time>
      </trkpt>
      <trkpt lat="49.1805" lon="-0.01445">
        <ele>38.3</ele>
        <time>2024-03-10T10:48:53Z</time>
      </trkpt>
      <trkpt lat="49.1805" lon="-0.01455">
        <ele>38.1</ele>
        <time>2024-03-10T10:48:54Z</time>
      </trkpt>
      <trkpt lat="49.18049" lon="-0.01466">
        <ele>37.9</ele>
        <time>2024-03-10T10:48:55Z</time>
      </trkpt>
      <trkpt lat="49.18048" lon="-0.01478">
        <ele>37.5</ele>
        <time>2024-03-10T10:48:56Z</time>
      </trkpt>
      <trkpt lat="49.18047" lon="-0.0149">
        <ele>37.2</ele>
        <time>2024-03-10T10:48:57Z</time>
      </trkpt>
      <trkpt lat="49.18046" lon="-0.01501">
        <ele>36.8</ele>
        <time>2024-03-10T10:48:58Z</time>
      </trkpt>
      <trkpt lat="49.18045" lon="-0.01512">
        <ele>36.4</ele>
        <time>2024-03-10T10:48:59Z</time>
      </trkpt>
      <trkpt lat="49.18043" lon="-0.01526">
        <ele>36</ele>
        <time>2024-03-10T10:49:00Z</time>
      </trkpt>
      <trkpt lat="49.18042" lon="-0.01541">
        <ele>35.4</ele>
        <time>2024-03-10T10:49:01Z</time>
      </trkpt>
      <trkpt lat="49.18041" lon="-0.01556">
        <ele>34.9</ele>
        <time>2024-03-10T10:49:02Z</time>
      </trkpt>
      <trkpt lat="49.18039" lon="-0.01572">
        <ele>34.4</ele>
        <time>2024-03-10T10:49:03Z</time>
      </trkpt>
      <trkpt lat="49.18038" lon="-0.01587">
        <ele>33.9</ele>
        <time>2024-03-10T10:49:04Z</time>
      </trkpt>
      <trkpt lat="49.18036" lon="-0.01603">
        <ele>33.4</ele>
        <time>2024-03-10T10:49:05Z</time>
      </trkpt>
      <trkpt lat="49.18034" lon="-0.01618">
        <ele>33</ele>
        <time>2024-03-10T10:49:06Z</time>
      </trkpt>
      <trkpt lat="49.18032" lon="-0.01633">
        <ele>32.7</ele>
        <time>2024-03-10T10:49:07Z</time>
      </trkpt>
      <trkpt lat="49.1803" lon="-0.01648">
        <ele>32.5</ele>
        <time>2024-03-10T10:49:08Z</time>
      </trkpt>
      <trkpt lat="49.18028" lon="-0.01663">
        <ele>32.3</ele>
        <time>2024-03-10T10:49:09Z</time>
      </trkpt>
      <trkpt lat="49.18027" lon="-0.01678">
        <ele>32.1</ele>
        <time>2024-03-10T10:49:10Z</time>
      </trkpt>
      <trkpt lat="49.18025" lon="-0.01693">
        <ele>31.9</ele>
        <time>2024-03-10T10:49:11Z</time>
      </trkpt>
      <trkpt lat="49.18024" lon="-0.01707">
        <ele>31.8</ele>
        <time>2024-03-10T10:49:12Z</time>
      </trkpt>
      <trkpt lat="49.18023" lon="-0.01721">
        <ele>31.7</ele>
        <time>2024-03-10T10:49:13Z</time>
      </trkpt>
      <trkpt lat="49.18023" lon="-0.01734">
        <ele>31.6</ele>
        <time>2024-03-10T10:49:14Z</time>
      </trkpt>
      <trkpt lat="49.18022" lon="-0.01749">
        <ele>31.5</ele>
        <time>2024-03-10T10:49:15Z</time>
      </trkpt>
      <trkpt lat="49.18022" lon="-0.01762">
        <ele>31.4</ele>
        <time>2024-03-10T10:49:16Z</time>
      </trkpt>
      <trkpt lat="49.18021" lon="-0.01776">
        <ele>31.3</ele>
        <time>2024-03-10T10:49:17Z</time>
      </trkpt>
      <trkpt lat="49.18021" lon="-0.0179">
        <ele>31.3</ele>
        <time>2024-03-10T10:49:18Z</time>
      </trkpt>
      <trkpt lat="49.18021" lon="-0.01804">
        <ele>31.2</ele>
        <time>2024-03-10T10:49:19Z</time>
      </trkpt>
      <trkpt lat="49.18021" lon="-0.01818">
        <ele>31.1</ele>
        <time>2024-03-10T10:49:20Z</time>
      </trkpt>
      <trkpt lat="49.1802" lon="-0.01832">
        <ele>31.1</ele>
        <time>2024-03-10T10:49:21Z</time>
      </trkpt>
      <trkpt lat="49.18019" lon="-0.01845">
        <ele>31.1</ele>
        <time>2024-03-10T10:49:22Z</time>
      </trkpt>
      <trkpt lat="49.18018" lon="-0.01859">
        <ele>31.1</ele>
        <time>2024-03-10T10:49:23Z</time>
      </trkpt>
      <trkpt lat="49.18018" lon="-0.01873">
        <ele>31.1</ele>
        <time>2024-03-10T10:49:24Z</time>
      </trkpt>
      <trkpt lat="49.18017" lon="-0.01887">
        <ele>31.2</ele>
        <time>2024-03-10T10:49:25Z</time>
      </trkpt>
      <trkpt lat="49.18017" lon="-0.01901">
        <ele>31.3</ele>
        <time>2024-03-10T10:49:26Z</time>
      </trkpt>
      <trkpt lat="49.18016" lon="-0.01914">
        <ele>31.4</ele>
        <time>2024-03-10T10:49:27Z</time>
      </trkpt>
      <trkpt lat="49.18015" lon="-0.01928">
        <ele>31.6</ele>
        <time>2024-03-10T10:49:28Z</time>
      </trkpt>
      <trkpt lat="49.18014" lon="-0.01941">
        <ele>31.8</ele>
        <time>2024-03-10T10:49:29Z</time>
      </trkpt>
      <trkpt lat="49.18013" lon="-0.01954">
        <ele>32.1</ele>
        <time>2024-03-10T10:49:30Z</time>
      </trkpt>
      <trkpt lat="49.18011" lon="-0.01967">
        <ele>32.3</ele>
        <time>2024-03-10T10:49:31Z</time>
      </trkpt>
      <trkpt lat="49.1801" lon="-0.01979">
        <ele>32.5</ele>
        <time>2024-03-10T10:49:32Z</time>
      </trkpt>
      <trkpt lat="49.18009" lon="-0.01993">
        <ele>32.7</ele>
        <time>2024-03-10T10:49:33Z</time>
      </trkpt>
      <trkpt lat="49.18008" lon="-0.02006">
        <ele>32.9</ele>
        <time>2024-03-10T10:49:34Z</time>
      </trkpt>
      <trkpt lat="49.18007" lon="-0.0202">
        <ele>32.9</ele>
        <time>2024-03-10T10:49:35Z</time>
      </trkpt>
      <trkpt lat="49.18006" lon="-0.02032">
        <ele>32.9</ele>
        <time>2024-03-10T10:49:36Z</time>
      </trkpt>
      <trkpt lat="49.18005" lon="-0.02044">
        <ele>32.8</ele>
        <time>2024-03-10T10:49:37Z</time>
      </trkpt>
      <trkpt lat="49.18004" lon="-0.02056">
        <ele>32.7</ele>
        <time>2024-03-10T10:49:38Z</time>
      </trkpt>
      <trkpt lat="49.18003" lon="-0.02069">
        <ele>32.6</ele>
        <time>2024-03-10T10:49:39Z</time>
      </trkpt>
      <trkpt lat="49.18003" lon="-0.02082">
        <ele>32.4</ele>
        <time>2024-03-10T10:49:40Z</time>
      </trkpt>
      <trkpt lat="49.18002" lon="-0.02096">
        <ele>32.3</ele>
        <time>2024-03-10T10:49:41Z</time>
      </trkpt>
      <trkpt lat="49.18001" lon="-0.0211">
        <ele>32.2</ele>
        <time>2024-03-10T10:49:42Z</time>
      </trkpt>
      <trkpt lat="49.18" lon="-0.02124">
        <ele>32.2</ele>
        <time>2024-03-10T10:49:43Z</time>
      </trkpt>
      <trkpt lat="49.18" lon="-0.02137">
        <ele>32.1</ele>
        <time>2024-03-10T10:49:44Z</time>
      </trkpt>
      <trkpt lat="49.18" lon="-0.02151">
        <ele>32.1</ele>
        <time>2024-03-10T10:49:45Z</time>
      </trkpt>
      <trkpt lat="49.18002" lon="-0.02164">
        <ele>32.1</ele>
        <time>2024-03-10T10:49:46Z</time>
      </trkpt>
      <trkpt lat="49.18003" lon="-0.02177">
        <ele>32</ele>
        <time>2024-03-10T10:49:47Z</time>
      </trkpt>
      <trkpt lat="49.18004" lon="-0.0219">
        <ele>31.9</ele>
        <time>2024-03-10T10:49:48Z</time>
      </trkpt>
      <trkpt lat="49.18005" lon="-0.02203">
        <ele>31.8</ele>
        <time>2024-03-10T10:49:49Z</time>
      </trkpt>
      <trkpt lat="49.18007" lon="-0.02216">
        <ele>31.7</ele>
        <time>2024-03-10T10:49:50Z</time>
      </trkpt>
      <trkpt lat="49.18009" lon="-0.0223">
        <ele>31.6</ele>
        <time>2024-03-10T10:49:51Z</time>
      </trkpt>
      <trkpt lat="49.18011" lon="-0.02242">
        <ele>31.4</ele>
        <time>2024-03-10T10:49:52Z</time>
      </trkpt>
      <trkpt lat="49.18014" lon="-0.02255">
        <ele>31.2</ele>
        <time>2024-03-10T10:49:53Z</time>
      </trkpt>
      <trkpt lat="49.18016" lon="-0.02267">
        <ele>31</ele>
        <time>2024-03-10T10:49:54Z</time>
      </trkpt>
      <trkpt lat="49.18018" lon="-0.02279">
        <ele>30.7</ele>
        <time>2024-03-10T10:49:55Z</time>
      </trkpt>
      <trkpt lat="49.1802" lon="-0.02292">
        <ele>30.5</ele>
        <time>2024-03-10T10:49:56Z</time>
      </trkpt>
      <trkpt lat="49.18022" lon="-0.02306">
        <ele>30.3</ele>
        <time>2024-03-10T10:49:57Z</time>
      </trkpt>
      <trkpt lat="49.18024" lon="-0.0232">
        <ele>30.1</ele>
        <time>2024-03-10T10:49:58Z</time>
      </trkpt>
      <trkpt lat="49.18025" lon="-0.02336">
        <ele>30</ele>
        <time>2024-03-10T10:49:59Z</time>
      </trkpt>
      <trkpt lat="49.18026" lon="-0.0235">
        <ele>29.9</ele>
        <time>2024-03-10T10:50:00Z</time>
      </trkpt>
      <trkpt lat="49.18026" lon="-0.02365">
        <ele>29.8</ele>
        <time>2024-03-10T10:50:01Z</time>
      </trkpt>
      <trkpt lat="49.18026" lon="-0.0238">
        <ele>29.6</ele>
        <time>2024-03-10T10:50:02Z</time>
      </trkpt>
      <trkpt lat="49.18026" lon="-0.02394">
        <ele>29.5</ele>
        <time>2024-03-10T10:50:03Z</time>
      </trkpt>
      <trkpt lat="49.18026" lon="-0.02407">
        <ele>29.4</ele>
        <time>2024-03-10T10:50:04Z</time>
      </trkpt>
      <trkpt lat="49.18025" lon="-0.02421">
        <ele>29.3</ele>
        <time>2024-03-10T10:50:05Z</time>
      </trkpt>
      <trkpt lat="49.18024" lon="-0.02435">
        <ele>29.2</ele>
        <time>2024-03-10T10:50:06Z</time>
      </trkpt>
      <trkpt lat="49.18023" lon="-0.02449">
        <ele>29.1</ele>
        <time>2024-03-10T10:50:07Z</time>
      </trkpt>
      <trkpt lat="49.18022" lon="-0.02463">
        <ele>29.1</ele>
        <time>2024-03-10T10:50:08Z</time>
      </trkpt>
      <trkpt lat="49.18021" lon="-0.02476">
        <ele>29.1</ele>
        <time>2024-03-10T10:50:09Z</time>
      </trkpt>
      <trkpt lat="49.1802" lon="-0.02489">
        <ele>29.1</ele>
        <time>2024-03-10T10:50:10Z</time>
      </trkpt>
      <trkpt lat="49.18019" lon="-0.02503">
        <ele>29.1</ele>
        <time>2024-03-10T10:50:11Z</time>
      </trkpt>
      <trkpt lat="49.18019" lon="-0.02518">
        <ele>29.2</ele>
        <time>2024-03-10T10:50:12Z</time>
      </trkpt>
      <trkpt lat="49.18018" lon="-0.02533">
        <ele>29.4</ele>
        <time>2024-03-10T10:50:13Z</time>
      </trkpt>
      <trkpt lat="49.18018" lon="-0.02548">
        <ele>29.5</ele>
        <time>2024-03-10T10:50:14Z</time>
      </trkpt>
      <trkpt lat="49.18018" lon="-0.02562">
        <ele>29.7</ele>
        <time>2024-03-10T10:50:15Z</time>
      </trkpt>
      <trkpt lat="49.18019" lon="-0.02575">
        <ele>29.8</ele>
        <time>2024-03-10T10:50:16Z</time>
      </trkpt>
      <trkpt lat="49.18019" lon="-0.02587">
        <ele>30</ele>
        <time>2024-03-10T10:50:17Z</time>
      </trkpt>
      <trkpt lat="49.1802" lon="-0.02599">
        <ele>30.1</ele>
        <time>2024-03-10T10:50:18Z</time>
      </trkpt>
      <trkpt lat="49.18021" lon="-0.02611">
        <ele>30.2</ele>
        <time>2024-03-10T10:50:19Z</time>
      </trkpt>
      <trkpt lat="49.18023" lon="-0.02623">
        <ele>30.3</ele>
        <time>2024-03-10T10:50:20Z</time>
      </trkpt>
      <trkpt lat="49.18024" lon="-0.02636">
        <ele>30.4</ele>
        <time>2024-03-10T10:50:21Z</time>
      </trkpt>
      <trkpt lat="49.18026" lon="-0.02648">
        <ele>30.5</ele>
        <time>2024-03-10T10:50:22Z</time>
      </trkpt>
      <trkpt lat="49.18027" lon="-0.0266">
        <ele>30.6</ele>
        <time>2024-03-10T10:50:23Z</time>
      </trkpt>
      <trkpt lat="49.18028" lon="-0.02673">
        <ele>30.6</ele>
        <time>2024-03-10T10:50:24Z</time>
      </trkpt>
      <trkpt lat="49.18028" lon="-0.02686">
        <ele>30.7</ele>
        <time>2024-03-10T10:50:25Z</time>
      </trkpt>
      <trkpt lat="49.18028" lon="-0.027">
        <ele>30.7</ele>
        <time>2024-03-10T10:50:26Z</time>
      </trkpt>
      <trkpt lat="49.18027" lon="-0.02713">
        <ele>30.7</ele>
        <time>2024-03-10T10:50:27Z</time>
      </trkpt>
      <trkpt lat="49.18026" lon="-0.02727">
        <ele>30.7</ele>
        <time>2024-03-10T10:50:28Z</time>
      </trkpt>
      <trkpt lat="49.18024" lon="-0.0274">
        <ele>30.7</ele>
        <time>2024-03-10T10:50:29Z</time>
      </trkpt>
      <trkpt lat="49.18021" lon="-0.02753">
        <ele>30.8</ele>
        <time>2024-03-10T10:50:30Z</time>
      </trkpt>
      <trkpt lat="49.1802" lon="-0.02767">
        <ele>30.9</ele>
        <time>2024-03-10T10:50:31Z</time>
      </trkpt>
      <trkpt lat="49.18018" lon="-0.0278">
        <ele>31.1</ele>
        <time>2024-03-10T10:50:32Z</time>
      </trkpt>
      <trkpt lat="49.18018" lon="-0.02793">
        <ele>31.2</ele>
        <time>2024-03-10T10:50:33Z</time>
      </trkpt>
      <trkpt lat="49.18017" lon="-0.02806">
        <ele>31.4</ele>
        <time>2024-03-10T10:50:34Z</time>
      </trkpt>
      <trkpt lat="49.18017" lon="-0.02818">
        <ele>31.5</ele>
        <time>2024-03-10T10:50:35Z</time>
      </trkpt>
      <trkpt lat="49.18017" lon="-0.0283">
        <ele>31.7</ele>
        <time>2024-03-10T10:50:36Z</time>
      </trkpt>
      <trkpt lat="49.18018" lon="-0.02842">
        <ele>31.9</ele>
        <time>2024-03-10T10:50:37Z</time>
      </trkpt>
      <trkpt lat="49.18019" lon="-0.02855">
        <ele>32</ele>
        <time>2024-03-10T10:50:38Z</time>
      </trkpt>
      <trkpt lat="49.18019" lon="-0.02867">
        <ele>32.2</ele>
        <time>2024-03-10T10:50:39Z</time>
      </trkpt>
      <trkpt lat="49.1802" lon="-0.0288">
        <ele>32.3</ele>
        <time>2024-03-10T10:50:40Z</time>
      </trkpt>
      <trkpt lat="49.18021" lon="-0.02892">
        <ele>32.5</ele>
        <time>2024-03-10T10:50:41Z</time>
      </trkpt>
      <trkpt lat="49.18022" lon="-0.02904">
        <ele>32.6</ele>
        <time>2024-03-10T10:50:42Z</time>
      </trkpt>
      <trkpt lat="49.18023" lon="-0.02916">
        <ele>32.7</ele>
        <time>2024-03-10T10:50:43Z</time>
      </trkpt>
      <trkpt lat="49.18024" lon="-0.02929">
        <ele>32.8</ele>
        <time>2024-03-10T10:50:44Z</time>
      </trkpt>
      <trkpt lat="49.18025" lon="-0.02941">
        <ele>32.8</ele>
        <time>2024-03-10T10:50:45Z</time>
      </trkpt>
      <trkpt lat="49.18026" lon="-0.02954">
        <ele>32.9</ele>
        <time>2024-03-10T10:50:46Z</time>
      </trkpt>
      <trkpt lat="49.18026" lon="-0.02966">
        <ele>32.9</ele>
        <time>2024-03-10T10:50:47Z</time>
      </trkpt>
      <trkpt lat="49.18026" lon="-0.02978">
        <ele>33</ele>
        <time>2024-03-10T10:50:48Z</time>
      </trkpt>
      <trkpt lat="49.18027" lon="-0.02991">
        <ele>33</ele>
        <time>2024-03-10T10:50:49Z</time>
      </trkpt>
      <trkpt lat="49.18026" lon="-0.03002">
        <ele>32.9</ele>
        <time>2024-03-10T10:50:50Z</time>
      </trkpt>
      <trkpt lat="49.18026" lon="-0.03013">
        <ele>32.8</ele>
        <time>2024-03-10T10:50:51Z</time>
      </trkpt>
      <trkpt lat="49.18026" lon="-0.03025">
        <ele>32.6</ele>
        <time>2024-03-10T10:50:52Z</time>
      </trkpt>
      <trkpt lat="49.18027" lon="-0.03037">
        <ele>32.5</ele>
        <time>2024-03-10T10:50:53Z</time>
      </trkpt>
      <trkpt lat="49.18027" lon="-0.03048">
        <ele>32.3</ele>
        <time>2024-03-10T10:50:54Z</time>
      </trkpt>
      <trkpt lat="49.18027" lon="-0.03061">
        <ele>32</ele>
        <time>2024-03-10T10:50:55Z</time>
      </trkpt>
      <trkpt lat="49.18026" lon="-0.03073">
        <ele>31.8</ele>
        <time>2024-03-10T10:50:56Z</time>
      </trkpt>
      <trkpt lat="49.18026" lon="-0.03086">
        <ele>31.6</ele>
        <time>2024-03-10T10:50:57Z</time>
      </trkpt>
      <trkpt lat="49.18026" lon="-0.03099">
        <ele>31.3</ele>
        <time>2024-03-10T10:50:58Z</time>
      </trkpt>
      <trkpt lat="49.18025" lon="-0.03112">
        <ele>31</ele>
        <time>2024-03-10T10:50:59Z</time>
      </trkpt>
      <trkpt lat="49.18024" lon="-0.03126">
        <ele>30.8</ele>
        <time>2024-03-10T10:51:00Z</time>
      </trkpt>
      <trkpt lat="49.18022" lon="-0.0314">
        <ele>30.6</ele>
        <time>2024-03-10T10:51:01Z</time>
      </trkpt>
      <trkpt lat="49.1802" lon="-0.03154">
        <ele>30.4</ele>
        <time>2024-03-10T10:51:02Z</time>
      </trkpt>
      <trkpt lat="49.18018" lon="-0.03167">
        <ele>30.3</ele>
        <time>2024-03-10T10:51:03Z</time>
      </trkpt>
      <trkpt lat="49.18017" lon="-0.03181">
        <ele>30.3</ele>
        <time>2024-03-10T10:51:04Z</time>
      </trkpt>
      <trkpt lat="49.18015" lon="-0.03195">
        <ele>30.2</ele>
        <time>2024-03-10T10:51:05Z</time>
      </trkpt>
      <trkpt lat="49.18013" lon="-0.03209">
        <ele>30.2</ele>
        <time>2024-03-10T10:51:06Z</time>
      </trkpt>
      <trkpt lat="49.18011" lon="-0.03223">
        <ele>30.2</ele>
        <time>2024-03-10T10:51:07Z</time>
      </trkpt>
      <trkpt lat="49.1801" lon="-0.03236">
        <ele>30.2</ele>
        <time>2024-03-10T10:51:08Z</time>
      </trkpt>
      <trkpt lat="49.18008" lon="-0.03249">
        <ele>30.3</ele>
        <time>2024-03-10T10:51:09Z</time>
      </trkpt>
      <trkpt lat="49.18008" lon="-0.03263">
        <ele>30.3</ele>
        <time>2024-03-10T10:51:10Z</time>
      </trkpt>
      <trkpt lat="49.18008" lon="-0.03275">
        <ele>30.4</ele>
        <time>2024-03-10T10:51:11Z</time>
      </trkpt>
      <trkpt lat="49.18009" lon="-0.03287">
        <ele>30.4</ele>
        <time>2024-03-10T10:51:12Z</time>
      </trkpt>
      <trkpt lat="49.1801" lon="-0.03299">
        <ele>30.5</ele>
        <time>2024-03-10T10:51:13Z</time>
      </trkpt>
      <trkpt lat="49.18012" lon="-0.03311">
        <ele>30.5</ele>
        <time>2024-03-10T10:51:14Z</time>
      </trkpt>
      <trkpt lat="49.18012" lon="-0.03322">
        <ele>30.6</ele>
        <time>2024-03-10T10:51:15Z</time>
      </trkpt>
      <trkpt lat="49.18013" lon="-0.03333">
        <ele>30.6</ele>
        <time>2024-03-10T10:51:16Z</time>
      </trkpt>
      <trkpt lat="49.18014" lon="-0.03345">
        <ele>30.7</ele>
        <time>2024-03-10T10:51:17Z</time>
      </trkpt>
      <trkpt lat="49.18013" lon="-0.03356">
        <ele>30.7</ele>
        <time>2024-03-10T10:51:18Z</time>
      </trkpt>
      <trkpt lat="49.18013" lon="-0.03367">
        <ele>30.8</ele>
        <time>2024-03-10T10:51:19Z</time>
      </trkpt>
      <trkpt lat="49.18012" lon="-0.03377">
        <ele>30.8</ele>
        <time>2024-03-10T10:51:20Z</time>
      </trkpt>
      <trkpt lat="49.18012" lon="-0.03387">
        <ele>30.8</ele>
        <time>2024-03-10T10:51:21Z</time>
      </trkpt>
      <trkpt lat="49.18012" lon="-0.03396">
        <ele>30.8</ele>
        <time>2024-03-10T10:51:22Z</time>
      </trkpt>
      <trkpt lat="49.18012" lon="-0.03407">
        <ele>30.8</ele>
        <time>2024-03-10T10:51:23Z</time>
      </trkpt>
      <trkpt lat="49.18011" lon="-0.03419">
        <ele>30.7</ele>
        <time>2024-03-10T10:51:24Z</time>
      </trkpt>
      <trkpt lat="49.18011" lon="-0.03431">
        <ele>30.6</ele>
        <time>2024-03-10T10:51:25Z</time>
      </trkpt>
      <trkpt lat="49.18011" lon="-0.03445">
        <ele>30.5</ele>
        <time>2024-03-10T10:51:26Z</time>
      </trkpt>
      <trkpt lat="49.18009" lon="-0.03459">
        <ele>30.4</ele>
        <time>2024-03-10T10:51:27Z</time>
      </trkpt>
      <trkpt lat="49.18008" lon="-0.03473">
        <ele>30.3</ele>
        <time>2024-03-10T10:51:28Z</time>
      </trkpt>
      <trkpt lat="49.18007" lon="-0.03485">
        <ele>30.2</ele>
        <time>2024-03-10T10:51:29Z</time>
      </trkpt>
      <trkpt lat="49.18006" lon="-0.03498">
        <ele>30</ele>
        <time>2024-03-10T10:51:30Z</time>
      </trkpt>
      <trkpt lat="49.18005" lon="-0.0351">
        <ele>29.8</ele>
        <time>2024-03-10T10:51:31Z</time>
      </trkpt>
      <trkpt lat="49.18004" lon="-0.03523">
        <ele>29.4</ele>
        <time>2024-03-10T10:51:32Z</time>
      </trkpt>
      <trkpt lat="49.18003" lon="-0.03537">
        <ele>28.9</ele>
        <time>2024-03-10T10:51:33Z</time>
      </trkpt>
      <trkpt lat="49.18002" lon="-0.03551">
        <ele>28.4</ele>
        <time>2024-03-10T10:51:34Z</time>
      </trkpt>
      <trkpt lat="49.18001" lon="-0.03565">
        <ele>27.9</ele>
        <time>2024-03-10T10:51:35Z</time>
      </trkpt>
      <trkpt lat="49.17997" lon="-0.03578">
        <ele>27.2</ele>
        <time>2024-03-10T10:51:36Z</time>
      </trkpt>
      <trkpt lat="49.17993" lon="-0.03594">
        <ele>26.3</ele>
        <time>2024-03-10T10:51:37Z</time>
      </trkpt>
      <trkpt lat="49.17987" lon="-0.03611">
        <ele>25.4</ele>
        <time>2024-03-10T10:51:38Z</time>
      </trkpt>
      <trkpt lat="49.17982" lon="-0.03627">
        <ele>24.4</ele>
        <time>2024-03-10T10:51:39Z</time>
      </trkpt>
      <trkpt lat="49.17977" lon="-0.03644">
        <ele>23.6</ele>
        <time>2024-03-10T10:51:40Z</time>
      </trkpt>
      <trkpt lat="49.17972" lon="-0.03661">
        <ele>22.8</ele>
        <time>2024-03-10T10:51:41Z</time>
      </trkpt>
      <trkpt lat="49.17965" lon="-0.03678">
        <ele>22</ele>
        <time>2024-03-10T10:51:42Z</time>
      </trkpt>
      <trkpt lat="49.17958" lon="-0.03693">
        <ele>21.3</ele>
        <time>2024-03-10T10:51:43Z</time>
      </trkpt>
      <trkpt lat="49.17951" lon="-0.03708">
        <ele>20.6</ele>
        <time>2024-03-10T10:51:44Z</time>
      </trkpt>
      <trkpt lat="49.17945" lon="-0.03722">
        <ele>20.1</ele>
        <time>2024-03-10T10:51:45Z</time>
      </trkpt>
      <trkpt lat="49.17939" lon="-0.03735">
        <ele>19.6</ele>
        <time>2024-03-10T10:51:46Z</time>
      </trkpt>
      <trkpt lat="49.17932" lon="-0.03748">
        <ele>19.2</ele>
        <time>2024-03-10T10:51:47Z</time>
      </trkpt>
      <trkpt lat="49.17925" lon="-0.03761">
        <ele>18.7</ele>
        <time>2024-03-10T10:51:48Z</time>
      </trkpt>
      <trkpt lat="49.17918" lon="-0.03772">
        <ele>18.4</ele>
        <time>2024-03-10T10:51:49Z</time>
      </trkpt>
      <trkpt lat="49.17912" lon="-0.03784">
        <ele>18</ele>
        <time>2024-03-10T10:51:50Z</time>
      </trkpt>
      <trkpt lat="49.17906" lon="-0.03796">
        <ele>17.6</ele>
        <time>2024-03-10T10:51:51Z</time>
      </trkpt>
      <trkpt lat="49.17901" lon="-0.03809">
        <ele>17.3</ele>
        <time>2024-03-10T10:51:52Z</time>
      </trkpt>
      <trkpt lat="49.17897" lon="-0.03823">
        <ele>17</ele>
        <time>2024-03-10T10:51:53Z</time>
      </trkpt>
      <trkpt lat="49.17892" lon="-0.03836">
        <ele>16.6</ele>
        <time>2024-03-10T10:51:54Z</time>
      </trkpt>
      <trkpt lat="49.17888" lon="-0.0385">
        <ele>16.4</ele>
        <time>2024-03-10T10:51:55Z</time>
      </trkpt>
      <trkpt lat="49.17883" lon="-0.03863">
        <ele>16.1</ele>
        <time>2024-03-10T10:51:56Z</time>
      </trkpt>
      <trkpt lat="49.17879" lon="-0.03876">
        <ele>16</ele>
        <time>2024-03-10T10:51:57Z</time>
      </trkpt>
      <trkpt lat="49.17875" lon="-0.03889">
        <ele>15.8</ele>
        <time>2024-03-10T10:51:58Z</time>
      </trkpt>
      <trkpt lat="49.17871" lon="-0.03901">
        <ele>15.7</ele>
        <time>2024-03-10T10:51:59Z</time>
      </trkpt>
      <trkpt lat="49.17868" lon="-0.03913">
        <ele>15.6</ele>
        <time>2024-03-10T10:52:00Z</time>
      </trkpt>
      <trkpt lat="49.17863" lon="-0.03924">
        <ele>15.5</ele>
        <time>2024-03-10T10:52:01Z</time>
      </trkpt>
      <trkpt lat="49.17859" lon="-0.03935">
        <ele>15.5</ele>
        <time>2024-03-10T10:52:02Z</time>
      </trkpt>
      <trkpt lat="49.17854" lon="-0.03945">
        <ele>15.4</ele>
        <time>2024-03-10T10:52:03Z</time>
      </trkpt>
      <trkpt lat="49.1785" lon="-0.03956">
        <ele>15.4</ele>
        <time>2024-03-10T10:52:04Z</time>
      </trkpt>
      <trkpt lat="49.17846" lon="-0.03966">
        <ele>15.4</ele>
        <time>2024-03-10T10:52:05Z</time>
      </trkpt>
      <trkpt lat="49.17842" lon="-0.03975">
        <ele>15.4</ele>
        <time>2024-03-10T10:52:06Z</time>
      </trkpt>
      <trkpt lat="49.17837" lon="-0.03985">
        <ele>15.4</ele>
        <time>2024-03-10T10:52:07Z</time>
      </trkpt>
      <trkpt lat="49.17833" lon="-0.03994">
        <ele>15.5</ele>
        <time>2024-03-10T10:52:08Z</time>
      </trkpt>
      <trkpt lat="49.1783" lon="-0.04005">
        <ele>15.5</ele>
        <time>2024-03-10T10:52:09Z</time>
      </trkpt>
      <trkpt lat="49.17828" lon="-0.04016">
        <ele>15.5</ele>
        <time>2024-03-10T10:52:10Z</time>
      </trkpt>
      <trkpt lat="49.17827" lon="-0.04027">
        <ele>15.6</ele>
        <time>2024-03-10T10:52:11Z</time>
      </trkpt>
      <trkpt lat="49.17828" lon="-0.04039">
        <ele>15.6</ele>
        <time>2024-03-10T10:52:12Z</time>
      </trkpt>
      <trkpt lat="49.17828" lon="-0.04051">
        <ele>15.6</ele>
        <time>2024-03-10T10:52:13Z</time>
      </trkpt>
      <trkpt lat="49.17827" lon="-0.04063">
        <ele>15.7</ele>
        <time>2024-03-10T10:52:14Z</time>
      </trkpt>
      <trkpt lat="49.17825" lon="-0.04075">
        <ele>15.9</ele>
        <time>2024-03-10T10:52:15Z</time>
      </trkpt>
      <trkpt lat="49.17822" lon="-0.04086">
        <ele>16</ele>
        <time>2024-03-10T10:52:16Z</time>
      </trkpt>
      <trkpt lat="49.17819" lon="-0.04096">
        <ele>16.2</ele>
        <time>2024-03-10T10:52:17Z</time>
      </trkpt>
      <trkpt lat="49.17815" lon="-0.04104">
        <ele>16.4</ele>
        <time>2024-03-10T10:52:18Z</time>
      </trkpt>
      <trkpt lat="49.1781" lon="-0.04112">
        <ele>16.6</ele>
        <time>2024-03-10T10:52:19Z</time>
      </trkpt>
      <trkpt lat="49.17806" lon="-0.04118">
        <ele>16.9</ele>
        <time>2024-03-10T10:52:20Z</time>
      </trkpt>
      <trkpt lat="49.17802" lon="-0.04125">
        <ele>17.1</ele>
        <time>2024-03-10T10:52:21Z</time>
      </trkpt>
      <trkpt lat="49.17799" lon="-0.04132">
        <ele>17.4</ele>
        <time>2024-03-10T10:52:22Z</time>
      </trkpt>
      <trkpt lat="49.17796" lon="-0.04137">
        <ele>17.6</ele>
        <time>2024-03-10T10:52:23Z</time>
      </trkpt>
      <trkpt lat="49.17793" lon="-0.04142">
        <ele>17.8</ele>
        <time>2024-03-10T10:52:24Z</time>
      </trkpt>
      <trkpt lat="49.1779" lon="-0.04146">
        <ele>18</ele>
        <time>2024-03-10T10:52:25Z</time>
      </trkpt>
      <trkpt lat="49.17789" lon="-0.0415">
        <ele>18.2</ele>
        <time>2024-03-10T10:52:26Z</time>
      </trkpt>
      <trkpt lat="49.17787" lon="-0.04154">
        <ele>18.4</ele>
        <time>2024-03-10T10:52:27Z</time>
      </trkpt>
      <trkpt lat="49.17785" lon="-0.04158">
        <ele>18.6</ele>
        <time>2024-03-10T10:52:28Z</time>
      </trkpt>
      <trkpt lat="49.17783" lon="-0.04162">
        <ele>18.7</ele>
        <time>2024-03-10T10:52:29Z</time>
      </trkpt>
      <trkpt lat="49.17782" lon="-0.04167">
        <ele>18.9</ele>
        <time>2024-03-10T10:52:30Z</time>
      </trkpt>
      <trkpt lat="49.17784" lon="-0.04173">
        <ele>19.1</ele>
        <time>2024-03-10T10:52:31Z</time>
      </trkpt>
      <trkpt lat="49.17786" lon="-0.04179">
        <ele>19.3</ele>
        <time>2024-03-10T10:52:32Z</time>
      </trkpt>
      <trkpt lat="49.1779" lon="-0.04184">
        <ele>19.3</ele>
        <time>2024-03-10T10:52:33Z</time>
      </trkpt>
      <trkpt lat="49.17794" lon="-0.04189">
        <ele>19.4</ele>
        <time>2024-03-10T10:52:34Z</time>
      </trkpt>
      <trkpt lat="49.17798" lon="-0.04194">
        <ele>19.5</ele>
        <time>2024-03-10T10:52:35Z</time>
      </trkpt>
      <trkpt lat="49.17803" lon="-0.04199">
        <ele>19.6</ele>
        <time>2024-03-10T10:52:36Z</time>
      </trkpt>
      <trkpt lat="49.17807" lon="-0.04203">
        <ele>19.7</ele>
        <time>2024-03-10T10:52:37Z</time>
      </trkpt>
      <trkpt lat="49.17811" lon="-0.04207">
        <ele>19.7</ele>
        <time>2024-03-10T10:52:38Z</time>
      </trkpt>
      <trkpt lat="49.17814" lon="-0.04211">
        <ele>19.7</ele>
        <time>2024-03-10T10:52:39Z</time>
      </trkpt>
      <trkpt lat="49.17818" lon="-0.04215">
        <ele>19.8</ele>
        <time>2024-03-10T10:52:40Z</time>
      </trkpt>
      <trkpt lat="49.17822" lon="-0.04218">
        <ele>19.8</ele>
        <time>2024-03-10T10:52:41Z</time>
      </trkpt>
      <trkpt lat="49.17825" lon="-0.04222">
        <ele>19.8</ele>
        <time>2024-03-10T10:52:42Z</time>
      </trkpt>
      <trkpt lat="49.1783" lon="-0.04226">
        <ele>19.8</ele>
        <time>2024-03-10T10:52:43Z</time>
      </trkpt>
      <trkpt lat="49.17834" lon="-0.0423">
        <ele>19.8</ele>
        <time>2024-03-10T10:52:44Z</time>
      </trkpt>
      <trkpt lat="49.17838" lon="-0.04233">
        <ele>19.9</ele>
        <time>2024-03-10T10:52:45Z</time>
      </trkpt>
      <trkpt lat="49.17844" lon="-0.04237">
        <ele>19.9</ele>
        <time>2024-03-10T10:52:46Z</time>
      </trkpt>
      <trkpt lat="49.17849" lon="-0.0424">
        <ele>19.8</ele>
        <time>2024-03-10T10:52:47Z</time>
      </trkpt>
      <trkpt lat="49.17853" lon="-0.04244">
        <ele>19.8</ele>
        <time>2024-03-10T10:52:48Z</time>
      </trkpt>
      <trkpt lat="49.17858" lon="-0.04247">
        <ele>19.8</ele>
        <time>2024-03-10T10:52:49Z</time>
      </trkpt>
      <trkpt lat="49.17863" lon="-0.0425">
        <ele>19.7</ele>
        <time>2024-03-10T10:52:50Z</time>
      </trkpt>
      <trkpt lat="49.17868" lon="-0.04253">
        <ele>19.7</ele>
        <time>2024-03-10T10:52:51Z</time>
      </trkpt>
      <trkpt lat="49.17873" lon="-0.04255">
        <ele>19.6</ele>
        <time>2024-03-10T10:52:52Z</time>
      </trkpt>
      <trkpt lat="49.17878" lon="-0.04257">
        <ele>19.6</ele>
        <time>2024-03-10T10:52:53Z</time>
      </trkpt>
      <trkpt lat="49.17883" lon="-0.0426">
        <ele>19.5</ele>
        <time>2024-03-10T10:52:54Z</time>
      </trkpt>
      <trkpt lat="49.17887" lon="-0.04262">
        <ele>19.5</ele>
        <time>2024-03-10T10:52:55Z</time>
      </trkpt>
      <trkpt lat="49.17892" lon="-0.04264">
        <ele>19.4</ele>
        <time>2024-03-10T10:52:56Z</time>
      </trkpt>
      <trkpt lat="49.17897" lon="-0.04265">
        <ele>19.3</ele>
        <time>2024-03-10T10:52:57Z</time>
      </trkpt>
      <trkpt lat="49.17902" lon="-0.04266">
        <ele>19.1</ele>
        <time>2024-03-10T10:52:58Z</time>
      </trkpt>
      <trkpt lat="49.17909" lon="-0.04269">
        <ele>19</ele>
        <time>2024-03-10T10:52:59Z</time>
      </trkpt>
      <trkpt lat="49.17915" lon="-0.04271">
        <ele>18.8</ele>
        <time>2024-03-10T10:53:00Z</time>
      </trkpt>
      <trkpt lat="49.17922" lon="-0.04273">
        <ele>18.6</ele>
        <time>2024-03-10T10:53:01Z</time>
      </trkpt>
      <trkpt lat="49.17929" lon="-0.04275">
        <ele>18.5</ele>
        <time>2024-03-10T10:53:02Z</time>
      </trkpt>
      <trkpt lat="49.17935" lon="-0.04277">
        <ele>18.3</ele>
        <time>2024-03-10T10:53:03Z</time>
      </trkpt>
      <trkpt lat="49.17942" lon="-0.04278">
        <ele>18.1</ele>
        <time>2024-03-10T10:53:04Z</time>
      </trkpt>
      <trkpt lat="49.17949" lon="-0.0428">
        <ele>17.8</ele>
        <time>2024-03-10T10:53:05Z</time>
      </trkpt>
      <trkpt lat="49.17957" lon="-0.04282">
        <ele>17.6</ele>
        <time>2024-03-10T10:53:06Z</time>
      </trkpt>
      <trkpt lat="49.17964" lon="-0.04284">
        <ele>17.3</ele>
        <time>2024-03-10T10:53:07Z</time>
      </trkpt>
      <trkpt lat="49.17972" lon="-0.04286">
        <ele>17</ele>
        <time>2024-03-10T10:53:08Z</time>
      </trkpt>
      <trkpt lat="49.1798" lon="-0.04288">
        <ele>16.7</ele>
        <time>2024-03-10T10:53:09Z</time>
      </trkpt>
      <trkpt lat="49.17988" lon="-0.0429">
        <ele>16.4</ele>
        <time>2024-03-10T10:53:10Z</time>
      </trkpt>
      <trkpt lat="49.17996" lon="-0.04293">
        <ele>16</ele>
        <time>2024-03-10T10:53:11Z</time>
      </trkpt>
      <trkpt lat="49.18003" lon="-0.04295">
        <ele>15.7</ele>
        <time>2024-03-10T10:53:12Z</time>
      </trkpt>
      <trkpt lat="49.18011" lon="-0.04298">
        <ele>15.4</ele>
        <time>2024-03-10T10:53:13Z</time>
      </trkpt>
      <trkpt lat="49.18019" lon="-0.043">
        <ele>15.1</ele>
        <time>2024-03-10T10:53:14Z</time>
      </trkpt>
      <trkpt lat="49.18027" lon="-0.04303">
        <ele>14.8</ele>
        <time>2024-03-10T10:53:15Z</time>
      </trkpt>
      <trkpt lat="49.18035" lon="-0.04305">
        <ele>14.5</ele>
        <time>2024-03-10T10:53:16Z</time>
      </trkpt>
      <trkpt lat="49.18044" lon="-0.04309">
        <ele>14.3</ele>
        <time>2024-03-10T10:53:17Z</time>
      </trkpt>
      <trkpt lat="49.18053" lon="-0.04312">
        <ele>14</ele>
        <time>2024-03-10T10:53:18Z</time>
      </trkpt>
      <trkpt lat="49.18062" lon="-0.04316">
        <ele>13.7</ele>
        <time>2024-03-10T10:53:19Z</time>
      </trkpt>
      <trkpt lat="49.18071" lon="-0.04319">
        <ele>13.5</ele>
        <time>2024-03-10T10:53:20Z</time>
      </trkpt>
      <trkpt lat="49.18079" lon="-0.04322">
        <ele>13.3</ele>
        <time>2024-03-10T10:53:21Z</time>
      </trkpt>
      <trkpt lat="49.18088" lon="-0.04325">
        <ele>13</ele>
        <time>2024-03-10T10:53:22Z</time>
      </trkpt>
      <trkpt lat="49.18096" lon="-0.04328">
        <ele>12.8</ele>
        <time>2024-03-10T10:53:23Z</time>
      </trkpt>
      <trkpt lat="49.18105" lon="-0.04331">
        <ele>12.6</ele>
        <time>2024-03-10T10:53:24Z</time>
      </trkpt>
      <trkpt lat="49.18114" lon="-0.04334">
        <ele>12.5</ele>
        <time>2024-03-10T10:53:25Z</time>
      </trkpt>
      <trkpt lat="49.18122" lon="-0.04337">
        <ele>12.3</ele>
        <time>2024-03-10T10:53:26Z</time>
      </trkpt>
      <trkpt lat="49.1813" lon="-0.04341">
        <ele>12.2</ele>
        <time>2024-03-10T10:53:27Z</time>
      </trkpt>
      <trkpt lat="49.18138" lon="-0.04343">
        <ele>12.1</ele>
        <time>2024-03-10T10:53:28Z</time>
      </trkpt>
      <trkpt lat="49.18146" lon="-0.04346">
        <ele>12</ele>
        <time>2024-03-10T10:53:29Z</time>
      </trkpt>
      <trkpt lat="49.18154" lon="-0.04349">
        <ele>11.9</ele>
        <time>2024-03-10T10:53:30Z</time>
      </trkpt>
      <trkpt lat="49.18163" lon="-0.04351">
        <ele>11.8</ele>
        <time>2024-03-10T10:53:31Z</time>
      </trkpt>
      <trkpt lat="49.18171" lon="-0.04354">
        <ele>11.7</ele>
        <time>2024-03-10T10:53:32Z</time>
      </trkpt>
      <trkpt lat="49.18179" lon="-0.04357">
        <ele>11.7</ele>
        <time>2024-03-10T10:53:33Z</time>
      </trkpt>
      <trkpt lat="49.18187" lon="-0.0436">
        <ele>11.6</ele>
        <time>2024-03-10T10:53:34Z</time>
      </trkpt>
      <trkpt lat="49.18196" lon="-0.04362">
        <ele>11.6</ele>
        <time>2024-03-10T10:53:35Z</time>
      </trkpt>
      <trkpt lat="49.18204" lon="-0.04365">
        <ele>11.5</ele>
        <time>2024-03-10T10:53:36Z</time>
      </trkpt>
      <trkpt lat="49.18212" lon="-0.04368">
        <ele>11.5</ele>
        <time>2024-03-10T10:53:37Z</time>
      </trkpt>
      <trkpt lat="49.18221" lon="-0.04371">
        <ele>11.5</ele>
        <time>2024-03-10T10:53:38Z</time>
      </trkpt>
      <trkpt lat="49.18229" lon="-0.04374">
        <ele>11.4</ele>
        <time>2024-03-10T10:53:39Z</time>
      </trkpt>
      <trkpt lat="49.18237" lon="-0.04377">
        <ele>11.4</ele>
        <time>2024-03-10T10:53:40Z</time>
      </trkpt>
      <trkpt lat="49.18244" lon="-0.04379">
        <ele>11.3</ele>
        <time>2024-03-10T10:53:41Z</time>
      </trkpt>
      <trkpt lat="49.18251" lon="-0.04382">
        <ele>11.3</ele>
        <time>2024-03-10T10:53:42Z</time>
      </trkpt>
      <trkpt lat="49.18259" lon="-0.04384">
        <ele>11.3</ele>
        <time>2024-03-10T10:53:43Z</time>
      </trkpt>
      <trkpt lat="49.18266" lon="-0.04387">
        <ele>11.2</ele>
        <time>2024-03-10T10:53:44Z</time>
      </trkpt>
      <trkpt lat="49.18273" lon="-0.04389">
        <ele>11.2</ele>
        <time>2024-03-10T10:53:45Z</time>
      </trkpt>
      <trkpt lat="49.18281" lon="-0.04391">
        <ele>11.2</ele>
        <time>2024-03-10T10:53:46Z</time>
      </trkpt>
      <trkpt lat="49.18289" lon="-0.04393">
        <ele>11.2</ele>
        <time>2024-03-10T10:53:47Z</time>
      </trkpt>
      <trkpt lat="49.18297" lon="-0.04395">
        <ele>11.2</ele>
        <time>2024-03-10T10:53:48Z</time>
      </trkpt>
      <trkpt lat="49.18305" lon="-0.04398">
        <ele>11.2</ele>
        <time>2024-03-10T10:53:49Z</time>
      </trkpt>
      <trkpt lat="49.18312" lon="-0.044">
        <ele>11.1</ele>
        <time>2024-03-10T10:53:50Z</time>
      </trkpt>
      <trkpt lat="49.1832" lon="-0.04403">
        <ele>11</ele>
        <time>2024-03-10T10:53:51Z</time>
      </trkpt>
      <trkpt lat="49.18327" lon="-0.04406">
        <ele>11</ele>
        <time>2024-03-10T10:53:52Z</time>
      </trkpt>
      <trkpt lat="49.18335" lon="-0.04408">
        <ele>10.9</ele>
        <time>2024-03-10T10:53:53Z</time>
      </trkpt>
      <trkpt lat="49.18342" lon="-0.04411">
        <ele>10.8</ele>
        <time>2024-03-10T10:53:54Z</time>
      </trkpt>
      <trkpt lat="49.1835" lon="-0.04413">
        <ele>10.7</ele>
        <time>2024-03-10T10:53:55Z</time>
      </trkpt>
      <trkpt lat="49.18357" lon="-0.04416">
        <ele>10.6</ele>
        <time>2024-03-10T10:53:56Z</time>
      </trkpt>
      <trkpt lat="49.18364" lon="-0.04419">
        <ele>10.6</ele>
        <time>2024-03-10T10:53:57Z</time>
      </trkpt>
      <trkpt lat="49.18372" lon="-0.04421">
        <ele>10.6</ele>
        <time>2024-03-10T10:53:58Z</time>
      </trkpt>
      <trkpt lat="49.18379" lon="-0.04424">
        <ele>10.6</ele>
        <time>2024-03-10T10:53:59Z</time>
      </trkpt>
      <trkpt lat="49.18387" lon="-0.04426">
        <ele>10.5</ele>
        <time>2024-03-10T10:54:00Z</time>
      </trkpt>
      <trkpt lat="49.18395" lon="-0.04429">
        <ele>10.5</ele>
        <time>2024-03-10T10:54:01Z</time>
      </trkpt>
      <trkpt lat="49.18402" lon="-0.04432">
        <ele>10.5</ele>
        <time>2024-03-10T10:54:02Z</time>
      </trkpt>
      <trkpt lat="49.1841" lon="-0.04434">
        <ele>10.6</ele>
        <time>2024-03-10T10:54:03Z</time>
      </trkpt>
      <trkpt lat="49.18417" lon="-0.04436">
        <ele>10.6</ele>
        <time>2024-03-10T10:54:04Z</time>
      </trkpt>
      <trkpt lat="49.18425" lon="-0.04438">
        <ele>10.6</ele>
        <time>2024-03-10T10:54:05Z</time>
      </trkpt>
      <trkpt lat="49.18432" lon="-0.04441">
        <ele>10.6</ele>
        <time>2024-03-10T10:54:06Z</time>
      </trkpt>
      <trkpt lat="49.1844" lon="-0.04443">
        <ele>10.5</ele>
        <time>2024-03-10T10:54:07Z</time>
      </trkpt>
      <trkpt lat="49.18447" lon="-0.04446">
        <ele>10.5</ele>
        <time>2024-03-10T10:54:08Z</time>
      </trkpt>
      <trkpt lat="49.18454" lon="-0.04448">
        <ele>10.4</ele>
        <time>2024-03-10T10:54:09Z</time>
      </trkpt>
      <trkpt lat="49.18463" lon="-0.04451">
        <ele>10.4</ele>
        <time>2024-03-10T10:54:10Z</time>
      </trkpt>
      <trkpt lat="49.1847" lon="-0.04454">
        <ele>10.3</ele>
        <time>2024-03-10T10:54:11Z</time>
      </trkpt>
      <trkpt lat="49.18478" lon="-0.04456">
        <ele>10.3</ele>
        <time>2024-03-10T10:54:12Z</time>
      </trkpt>
      <trkpt lat="49.18486" lon="-0.04459">
        <ele>10.4</ele>
        <time>2024-03-10T10:54:13Z</time>
      </trkpt>
      <trkpt lat="49.18494" lon="-0.04462">
        <ele>10.4</ele>
        <time>2024-03-10T10:54:14Z</time>
      </trkpt>
      <trkpt lat="49.18501" lon="-0.04464">
        <ele>10.5</ele>
        <time>2024-03-10T10:54:15Z</time>
      </trkpt>
      <trkpt lat="49.18508" lon="-0.04466">
        <ele>10.5</ele>
        <time>2024-03-10T10:54:16Z</time>
      </trkpt>
      <trkpt lat="49.18516" lon="-0.04468">
        <ele>10.5</ele>
        <time>2024-03-10T10:54:17Z</time>
      </trkpt>
      <trkpt lat="49.18523" lon="-0.0447">
        <ele>10.5</ele>
        <time>2024-03-10T10:54:18Z</time>
      </trkpt>
      <trkpt lat="49.18531" lon="-0.04472">
        <ele>10.5</ele>
        <time>2024-03-10T10:54:19Z</time>
      </trkpt>
      <trkpt lat="49.18538" lon="-0.04473">
        <ele>10.5</ele>
        <time>2024-03-10T10:54:20Z</time>
      </trkpt>
      <trkpt lat="49.18545" lon="-0.04475">
        <ele>10.5</ele>
        <time>2024-03-10T10:54:21Z</time>
      </trkpt>
      <trkpt lat="49.18552" lon="-0.04476">
        <ele>10.5</ele>
        <time>2024-03-10T10:54:22Z</time>
      </trkpt>
      <trkpt lat="49.1856" lon="-0.04477">
        <ele>10.5</ele>
        <time>2024-03-10T10:54:23Z</time>
      </trkpt>
      <trkpt lat="49.18568" lon="-0.04477">
        <ele>10.6</ele>
        <time>2024-03-10T10:54:24Z</time>
      </trkpt>
      <trkpt lat="49.18576" lon="-0.04477">
        <ele>10.6</ele>
        <time>2024-03-10T10:54:25Z</time>
      </trkpt>
      <trkpt lat="49.18583" lon="-0.04477">
        <ele>10.7</ele>
        <time>2024-03-10T10:54:26Z</time>
      </trkpt>
      <trkpt lat="49.18591" lon="-0.04478">
        <ele>10.7</ele>
        <time>2024-03-10T10:54:27Z</time>
      </trkpt>
      <trkpt lat="49.18599" lon="-0.0448">
        <ele>10.7</ele>
        <time>2024-03-10T10:54:28Z</time>
      </trkpt>
      <trkpt lat="49.18606" lon="-0.04482">
        <ele>10.7</ele>
        <time>2024-03-10T10:54:29Z</time>
      </trkpt>
      <trkpt lat="49.18614" lon="-0.04484">
        <ele>10.7</ele>
        <time>2024-03-10T10:54:30Z</time>
      </trkpt>
      <trkpt lat="49.18621" lon="-0.04487">
        <ele>10.6</ele>
        <time>2024-03-10T10:54:31Z</time>
      </trkpt>
      <trkpt lat="49.18627" lon="-0.04489">
        <ele>10.6</ele>
        <time>2024-03-10T10:54:32Z</time>
      </trkpt>
      <trkpt lat="49.18634" lon="-0.04491">
        <ele>10.6</ele>
        <time>2024-03-10T10:54:33Z</time>
      </trkpt>
      <trkpt lat="49.1864" lon="-0.04493">
        <ele>10.6</ele>
        <time>2024-03-10T10:54:34Z</time>
      </trkpt>
      <trkpt lat="49.18646" lon="-0.04497">
        <ele>10.6</ele>
        <time>2024-03-10T10:54:35Z</time>
      </trkpt>
      <trkpt lat="49.18653" lon="-0.04501">
        <ele>10.6</ele>
        <time>2024-03-10T10:54:36Z</time>
      </trkpt>
      <trkpt lat="49.18659" lon="-0.04505">
        <ele>10.6</ele>
        <time>2024-03-10T10:54:37Z</time>
      </trkpt>
      <trkpt lat="49.18664" lon="-0.0451">
        <ele>10.6</ele>
        <time>2024-03-10T10:54:38Z</time>
      </trkpt>
      <trkpt lat="49.18665" lon="-0.04512">
        <ele>10.6</ele>
        <time>2024-03-10T10:54:39Z</time>
      </trkpt>
      <trkpt lat="49.18667" lon="-0.04513">
        <ele>10.6</ele>
        <time>2024-03-10T10:54:40Z</time>
      </trkpt>
      <trkpt lat="49.18668" lon="-0.04515">
        <ele>10.5</ele>
        <time>2024-03-10T10:54:41Z</time>
      </trkpt>
      <trkpt lat="49.18672" lon="-0.04519">
        <ele>10.5</ele>
        <time>2024-03-10T10:54:42Z</time>
      </trkpt>
      <trkpt lat="49.18679" lon="-0.04525">
        <ele>10.5</ele>
        <time>2024-03-10T10:54:43Z</time>
      </trkpt>
      <trkpt lat="49.18686" lon="-0.04531">
        <ele>10.5</ele>
        <time>2024-03-10T10:54:44Z</time>
      </trkpt>
      <trkpt lat="49.18692" lon="-0.04535">
        <ele>10.4</ele>
        <time>2024-03-10T10:54:45Z</time>
      </trkpt>
      <trkpt lat="49.18698" lon="-0.0454">
        <ele>10.4</ele>
        <time>2024-03-10T10:54:46Z</time>
      </trkpt>
      <trkpt lat="49.18704" lon="-0.04544">
        <ele>10.4</ele>
        <time>2024-03-10T10:54:47Z</time>
      </trkpt>
      <trkpt lat="49.18709" lon="-0.04548">
        <ele>10.4</ele>
        <time>2024-03-10T10:54:48Z</time>
      </trkpt>
      <trkpt lat="49.18715" lon="-0.04552">
        <ele>10.4</ele>
        <time>2024-03-10T10:54:49Z</time>
      </trkpt>
      <trkpt lat="49.1872" lon="-0.04556">
        <ele>10.4</ele>
        <time>2024-03-10T10:54:50Z</time>
      </trkpt>
      <trkpt lat="49.18726" lon="-0.0456">
        <ele>10.3</ele>
        <time>2024-03-10T10:54:51Z</time>
      </trkpt>
      <trkpt lat="49.18731" lon="-0.04564">
        <ele>10.3</ele>
        <time>2024-03-10T10:54:52Z</time>
      </trkpt>
      <trkpt lat="49.18737" lon="-0.04568">
        <ele>10.3</ele>
        <time>2024-03-10T10:54:53Z</time>
      </trkpt>
      <trkpt lat="49.18743" lon="-0.04572">
        <ele>10.3</ele>
        <time>2024-03-10T10:54:54Z</time>
      </trkpt>
      <trkpt lat="49.18749" lon="-0.04576">
        <ele>10.3</ele>
        <time>2024-03-10T10:54:55Z</time>
      </trkpt>
      <trkpt lat="49.18755" lon="-0.04579">
        <ele>10.3</ele>
        <time>2024-03-10T10:54:56Z</time>
      </trkpt>
      <trkpt lat="49.18762" lon="-0.04581">
        <ele>10.3</ele>
        <time>2024-03-10T10:54:57Z</time>
      </trkpt>
      <trkpt lat="49.18769" lon="-0.04582">
        <ele>10.3</ele>
        <time>2024-03-10T10:54:58Z</time>
      </trkpt>
      <trkpt lat="49.18776" lon="-0.04583">
        <ele>10.3</ele>
        <time>2024-03-10T10:54:59Z</time>
      </trkpt>
      <trkpt lat="49.18783" lon="-0.04583">
        <ele>10.3</ele>
        <time>2024-03-10T10:55:00Z</time>
      </trkpt>
      <trkpt lat="49.18789" lon="-0.04584">
        <ele>10.3</ele>
        <time>2024-03-10T10:55:01Z</time>
      </trkpt>
      <trkpt lat="49.18795" lon="-0.04584">
        <ele>10.3</ele>
        <time>2024-03-10T10:55:02Z</time>
      </trkpt>
      <trkpt lat="49.18801" lon="-0.04585">
        <ele>10.3</ele>
        <time>2024-03-10T10:55:03Z</time>
      </trkpt>
      <trkpt lat="49.18808" lon="-0.04585">
        <ele>10.4</ele>
        <time>2024-03-10T10:55:04Z</time>
      </trkpt>
      <trkpt lat="49.18814" lon="-0.04585">
        <ele>10.4</ele>
        <time>2024-03-10T10:55:05Z</time>
      </trkpt>
      <trkpt lat="49.18821" lon="-0.04585">
        <ele>10.4</ele>
        <time>2024-03-10T10:55:06Z</time>
      </trkpt>
      <trkpt lat="49.18827" lon="-0.04585">
        <ele>10.4</ele>
        <time>2024-03-10T10:55:07Z</time>
      </trkpt>
      <trkpt lat="49.18833" lon="-0.04585">
        <ele>10.4</ele>
        <time>2024-03-10T10:55:08Z</time>
      </trkpt>
      <trkpt lat="49.18839" lon="-0.04586">
        <ele>10.4</ele>
        <time>2024-03-10T10:55:09Z</time>
      </trkpt>
      <trkpt lat="49.18845" lon="-0.04586">
        <ele>10.5</ele>
        <time>2024-03-10T10:55:10Z</time>
      </trkpt>
      <trkpt lat="49.18851" lon="-0.04586">
        <ele>10.5</ele>
        <time>2024-03-10T10:55:11Z</time>
      </trkpt>
      <trkpt lat="49.18857" lon="-0.04586">
        <ele>10.5</ele>
        <time>2024-03-10T10:55:12Z</time>
      </trkpt>
      <trkpt lat="49.18862" lon="-0.04587">
        <ele>10.5</ele>
        <time>2024-03-10T10:55:13Z</time>
      </trkpt>
      <trkpt lat="49.18867" lon="-0.04589">
        <ele>10.5</ele>
        <time>2024-03-10T10:55:14Z</time>
      </trkpt>
      <trkpt lat="49.18871" lon="-0.0459">
        <ele>10.6</ele>
        <time>2024-03-10T10:55:15Z</time>
      </trkpt>
      <trkpt lat="49.18875" lon="-0.04592">
        <ele>10.6</ele>
        <time>2024-03-10T10:55:16Z</time>
      </trkpt>
      <trkpt lat="49.18879" lon="-0.04593">
        <ele>10.6</ele>
        <time>2024-03-10T10:55:17Z</time>
      </trkpt>
      <trkpt lat="49.18883" lon="-0.04595">
        <ele>10.6</ele>
        <time>2024-03-10T10:55:18Z</time>
      </trkpt>
      <trkpt lat="49.18886" lon="-0.04596">
        <ele>10.6</ele>
        <time>2024-03-10T10:55:19Z</time>
      </trkpt>
      <trkpt lat="49.1889" lon="-0.04597">
        <ele>10.6</ele>
        <time>2024-03-10T10:55:20Z</time>
      </trkpt>
      <trkpt lat="49.18891" lon="-0.04598">
        <ele>10.6</ele>
        <time>2024-03-10T10:55:21Z</time>
      </trkpt>
      <trkpt lat="49.18894" lon="-0.04598">
        <ele>10.7</ele>
        <time>2024-03-10T10:55:22Z</time>
      </trkpt>
      <trkpt lat="49.18897" lon="-0.04599">
        <ele>10.7</ele>
        <time>2024-03-10T10:55:23Z</time>
      </trkpt>
      <trkpt lat="49.189" lon="-0.046">
        <ele>10.7</ele>
        <time>2024-03-10T10:55:24Z</time>
      </trkpt>
      <trkpt lat="49.18902" lon="-0.04602">
        <ele>10.7</ele>
        <time>2024-03-10T10:55:25Z</time>
      </trkpt>
      <trkpt lat="49.18906" lon="-0.04603">
        <ele>10.7</ele>
        <time>2024-03-10T10:55:26Z</time>
      </trkpt>
      <trkpt lat="49.18909" lon="-0.04604">
        <ele>10.7</ele>
        <time>2024-03-10T10:55:27Z</time>
      </trkpt>
      <trkpt lat="49.18913" lon="-0.04606">
        <ele>10.7</ele>
        <time>2024-03-10T10:55:28Z</time>
      </trkpt>
      <trkpt lat="49.18917" lon="-0.04607">
        <ele>10.7</ele>
        <time>2024-03-10T10:55:29Z</time>
      </trkpt>
      <trkpt lat="49.18921" lon="-0.04609">
        <ele>10.7</ele>
        <time>2024-03-10T10:55:30Z</time>
      </trkpt>
      <trkpt lat="49.18925" lon="-0.0461">
        <ele>10.8</ele>
        <time>2024-03-10T10:55:31Z</time>
      </trkpt>
      <trkpt lat="49.18929" lon="-0.04611">
        <ele>10.8</ele>
        <time>2024-03-10T10:55:32Z</time>
      </trkpt>
      <trkpt lat="49.18933" lon="-0.04611">
        <ele>10.8</ele>
        <time>2024-03-10T10:55:33Z</time>
      </trkpt>
      <trkpt lat="49.18937" lon="-0.04611">
        <ele>10.8</ele>
        <time>2024-03-10T10:55:34Z</time>
      </trkpt>
      <trkpt lat="49.18941" lon="-0.04611">
        <ele>10.8</ele>
        <time>2024-03-10T10:55:35Z</time>
      </trkpt>
      <trkpt lat="49.18946" lon="-0.04612">
        <ele>10.9</ele>
        <time>2024-03-10T10:55:36Z</time>
      </trkpt>
      <trkpt lat="49.18949" lon="-0.04611">
        <ele>10.9</ele>
        <time>2024-03-10T10:55:37Z</time>
      </trkpt>
      <trkpt lat="49.18953" lon="-0.04611">
        <ele>10.9</ele>
        <time>2024-03-10T10:55:38Z</time>
      </trkpt>
      <trkpt lat="49.18956" lon="-0.04611">
        <ele>11</ele>
        <time>2024-03-10T10:55:39Z</time>
      </trkpt>
      <trkpt lat="49.1896" lon="-0.04611">
        <ele>11</ele>
        <time>2024-03-10T10:55:40Z</time>
      </trkpt>
      <trkpt lat="49.18964" lon="-0.04612">
        <ele>11.1</ele>
        <time>2024-03-10T10:55:41Z</time>
      </trkpt>
      <trkpt lat="49.18969" lon="-0.04611">
        <ele>11.1</ele>
        <time>2024-03-10T10:55:42Z</time>
      </trkpt>
      <trkpt lat="49.18973" lon="-0.04611">
        <ele>11.2</ele>
        <time>2024-03-10T10:55:43Z</time>
      </trkpt>
      <trkpt lat="49.18977" lon="-0.04611">
        <ele>11.2</ele>
        <time>2024-03-10T10:55:44Z</time>
      </trkpt>
      <trkpt lat="49.18981" lon="-0.04612">
        <ele>11.2</ele>
        <time>2024-03-10T10:55:45Z</time>
      </trkpt>
      <trkpt lat="49.18984" lon="-0.04612">
        <ele>11.3</ele>
        <time>2024-03-10T10:55:46Z</time>
      </trkpt>
      <trkpt lat="49.18988" lon="-0.04612">
        <ele>11.3</ele>
        <time>2024-03-10T10:55:47Z</time>
      </trkpt>
      <trkpt lat="49.18991" lon="-0.04612">
        <ele>11.3</ele>
        <time>2024-03-10T10:55:48Z</time>
      </trkpt>
      <trkpt lat="49.18994" lon="-0.04613">
        <ele>11.3</ele>
        <time>2024-03-10T10:55:49Z</time>
      </trkpt>
      <trkpt lat="49.18996" lon="-0.04613">
        <ele>11.4</ele>
        <time>2024-03-10T10:55:50Z</time>
      </trkpt>
      <trkpt lat="49.19" lon="-0.04613">
        <ele>11.4</ele>
        <time>2024-03-10T10:55:51Z</time>
      </trkpt>
      <trkpt lat="49.19003" lon="-0.04614">
        <ele>11.4</ele>
        <time>2024-03-10T10:55:52Z</time>
      </trkpt>
      <trkpt lat="49.19006" lon="-0.04614">
        <ele>11.5</ele>
        <time>2024-03-10T10:55:53Z</time>
      </trkpt>
      <trkpt lat="49.19009" lon="-0.04614">
        <ele>11.5</ele>
        <time>2024-03-10T10:55:54Z</time>
      </trkpt>
      <trkpt lat="49.19013" lon="-0.04614">
        <ele>11.5</ele>
        <time>2024-03-10T10:55:55Z</time>
      </trkpt>
      <trkpt lat="49.19017" lon="-0.04614">
        <ele>11.6</ele>
        <time>2024-03-10T10:55:56Z</time>
      </trkpt>
      <trkpt lat="49.1902" lon="-0.04613">
        <ele>11.6</ele>
        <time>2024-03-10T10:55:57Z</time>
      </trkpt>
      <trkpt lat="49.19023" lon="-0.04612">
        <ele>11.7</ele>
        <time>2024-03-10T10:55:58Z</time>
      </trkpt>
      <trkpt lat="49.19026" lon="-0.04611">
        <ele>11.7</ele>
        <time>2024-03-10T10:55:59Z</time>
      </trkpt>
      <trkpt lat="49.19029" lon="-0.0461">
        <ele>11.8</ele>
        <time>2024-03-10T10:56:00Z</time>
      </trkpt>
      <trkpt lat="49.19032" lon="-0.04611">
        <ele>11.8</ele>
        <time>2024-03-10T10:56:01Z</time>
      </trkpt>
      <trkpt lat="49.19035" lon="-0.04612">
        <ele>11.9</ele>
        <time>2024-03-10T10:56:02Z</time>
      </trkpt>
      <trkpt lat="49.19039" lon="-0.04613">
        <ele>11.9</ele>
        <time>2024-03-10T10:56:03Z</time>
      </trkpt>
      <trkpt lat="49.19043" lon="-0.04615">
        <ele>11.9</ele>
        <time>2024-03-10T10:56:04Z</time>
      </trkpt>
      <trkpt lat="49.19048" lon="-0.04617">
        <ele>11.9</ele>
        <time>2024-03-10T10:56:05Z</time>
      </trkpt>
      <trkpt lat="49.19052" lon="-0.04618">
        <ele>11.9</ele>
        <time>2024-03-10T10:56:06Z</time>
      </trkpt>
      <trkpt lat="49.19058" lon="-0.04618">
        <ele>11.9</ele>
        <time>2024-03-10T10:56:07Z</time>
      </trkpt>
      <trkpt lat="49.19063" lon="-0.04619">
        <ele>11.9</ele>
        <time>2024-03-10T10:56:08Z</time>
      </trkpt>
      <trkpt lat="49.19068" lon="-0.04619">
        <ele>11.9</ele>
        <time>2024-03-10T10:56:09Z</time>
      </trkpt>
      <trkpt lat="49.19073" lon="-0.0462">
        <ele>11.9</ele>
        <time>2024-03-10T10:56:10Z</time>
      </trkpt>
      <trkpt lat="49.19078" lon="-0.0462">
        <ele>11.9</ele>
        <time>2024-03-10T10:56:11Z</time>
      </trkpt>
      <trkpt lat="49.19084" lon="-0.04621">
        <ele>11.9</ele>
        <time>2024-03-10T10:56:12Z</time>
      </trkpt>
      <trkpt lat="49.1909" lon="-0.04622">
        <ele>11.9</ele>
        <time>2024-03-10T10:56:13Z</time>
      </trkpt>
      <trkpt lat="49.19096" lon="-0.04622">
        <ele>11.9</ele>
        <time>2024-03-10T10:56:14Z</time>
      </trkpt>
      <trkpt lat="49.19101" lon="-0.04622">
        <ele>11.9</ele>
        <time>2024-03-10T10:56:15Z</time>
      </trkpt>
      <trkpt lat="49.19107" lon="-0.04623">
        <ele>12</ele>
        <time>2024-03-10T10:56:16Z</time>
      </trkpt>
      <trkpt lat="49.19113" lon="-0.04624">
        <ele>12</ele>
        <time>2024-03-10T10:56:17Z</time>
      </trkpt>
      <trkpt lat="49.19119" lon="-0.04625">
        <ele>12.1</ele>
        <time>2024-03-10T10:56:18Z</time>
      </trkpt>
      <trkpt lat="49.19124" lon="-0.04626">
        <ele>12.2</ele>
        <time>2024-03-10T10:56:19Z</time>
      </trkpt>
      <trkpt lat="49.1913" lon="-0.04626">
        <ele>12.3</ele>
        <time>2024-03-10T10:56:20Z</time>
      </trkpt>
      <trkpt lat="49.19135" lon="-0.04627">
        <ele>12.4</ele>
        <time>2024-03-10T10:56:21Z</time>
      </trkpt>
      <trkpt lat="49.19141" lon="-0.04628">
        <ele>12.6</ele>
        <time>2024-03-10T10:56:22Z</time>
      </trkpt>
      <trkpt lat="49.19146" lon="-0.04629">
        <ele>12.8</ele>
        <time>2024-03-10T10:56:23Z</time>
      </trkpt>
      <trkpt lat="49.19151" lon="-0.04631">
        <ele>12.9</ele>
        <time>2024-03-10T10:56:24Z</time>
      </trkpt>
      <trkpt lat="49.19157" lon="-0.04633">
        <ele>13.2</ele>
        <time>2024-03-10T10:56:25Z</time>
      </trkpt>
      <trkpt lat="49.19162" lon="-0.04634">
        <ele>13.4</ele>
        <time>2024-03-10T10:56:26Z</time>
      </trkpt>
      <trkpt lat="49.19168" lon="-0.04636">
        <ele>13.6</ele>
        <time>2024-03-10T10:56:27Z</time>
      </trkpt>
      <trkpt lat="49.19173" lon="-0.04638">
        <ele>13.9</ele>
        <time>2024-03-10T10:56:28Z</time>
      </trkpt>
      <trkpt lat="49.19178" lon="-0.04641">
        <ele>14.1</ele>
        <time>2024-03-10T10:56:29Z</time>
      </trkpt>
      <trkpt lat="49.19182" lon="-0.04643">
        <ele>14.4</ele>
        <time>2024-03-10T10:56:30Z</time>
      </trkpt>
      <trkpt lat="49.19187" lon="-0.04646">
        <ele>14.6</ele>
        <time>2024-03-10T10:56:31Z</time>
      </trkpt>
      <trkpt lat="49.19192" lon="-0.04648">
        <ele>14.8</ele>
        <time>2024-03-10T10:56:32Z</time>
      </trkpt>
      <trkpt lat="49.19197" lon="-0.04651">
        <ele>15.1</ele>
        <time>2024-03-10T10:56:33Z</time>
      </trkpt>
      <trkpt lat="49.19201" lon="-0.04653">
        <ele>15.3</ele>
        <time>2024-03-10T10:56:34Z</time>
      </trkpt>
      <trkpt lat="49.19205" lon="-0.04655">
        <ele>15.5</ele>
        <time>2024-03-10T10:56:35Z</time>
      </trkpt>
      <trkpt lat="49.19209" lon="-0.04656">
        <ele>15.7</ele>
        <time>2024-03-10T10:56:36Z</time>
      </trkpt>
      <trkpt lat="49.19213" lon="-0.04658">
        <ele>15.9</ele>
        <time>2024-03-10T10:56:37Z</time>
      </trkpt>
      <trkpt lat="49.19217" lon="-0.0466">
        <ele>16.1</ele>
        <time>2024-03-10T10:56:38Z</time>
      </trkpt>
      <trkpt lat="49.19221" lon="-0.04663">
        <ele>16.3</ele>
        <time>2024-03-10T10:56:39Z</time>
      </trkpt>
      <trkpt lat="49.19226" lon="-0.04666">
        <ele>16.6</ele>
        <time>2024-03-10T10:56:40Z</time>
      </trkpt>
      <trkpt lat="49.1923" lon="-0.04668">
        <ele>16.9</ele>
        <time>2024-03-10T10:56:41Z</time>
      </trkpt>
      <trkpt lat="49.19234" lon="-0.0467">
        <ele>17.1</ele>
        <time>2024-03-10T10:56:42Z</time>
      </trkpt>
      <trkpt lat="49.19238" lon="-0.04673">
        <ele>17.4</ele>
        <time>2024-03-10T10:56:43Z</time>
      </trkpt>
      <trkpt lat="49.19242" lon="-0.04675">
        <ele>17.7</ele>
        <time>2024-03-10T10:56:44Z</time>
      </trkpt>
      <trkpt lat="49.19246" lon="-0.04677">
        <ele>18</ele>
        <time>2024-03-10T10:56:45Z</time>
      </trkpt>
      <trkpt lat="49.1925" lon="-0.04679">
        <ele>18.3</ele>
        <time>2024-03-10T10:56:46Z</time>
      </trkpt>
      <trkpt lat="49.19254" lon="-0.04681">
        <ele>18.6</ele>
        <time>2024-03-10T10:56:47Z</time>
      </trkpt>
      <trkpt lat="49.19259" lon="-0.04683">
        <ele>18.9</ele>
        <time>2024-03-10T10:56:48Z</time>
      </trkpt>
      <trkpt lat="49.19262" lon="-0.04684">
        <ele>19.2</ele>
        <time>2024-03-10T10:56:49Z</time>
      </trkpt>
      <trkpt lat="49.19266" lon="-0.04686">
        <ele>19.5</ele>
        <time>2024-03-10T10:56:50Z</time>
      </trkpt>
      <trkpt lat="49.1927" lon="-0.04687">
        <ele>19.8</ele>
        <time>2024-03-10T10:56:51Z</time>
      </trkpt>
      <trkpt lat="49.19274" lon="-0.04689">
        <ele>20.1</ele>
        <time>2024-03-10T10:56:52Z</time>
      </trkpt>
      <trkpt lat="49.19277" lon="-0.04691">
        <ele>20.3</ele>
        <time>2024-03-10T10:56:53Z</time>
      </trkpt>
      <trkpt lat="49.19281" lon="-0.04692">
        <ele>20.6</ele>
        <time>2024-03-10T10:56:54Z</time>
      </trkpt>
      <trkpt lat="49.19285" lon="-0.04694">
        <ele>20.9</ele>
        <time>2024-03-10T10:56:55Z</time>
      </trkpt>
      <trkpt lat="49.19289" lon="-0.04696">
        <ele>21.1</ele>
        <time>2024-03-10T10:56:56Z</time>
      </trkpt>
      <trkpt lat="49.19292" lon="-0.04698">
        <ele>21.4</ele>
        <time>2024-03-10T10:56:57Z</time>
      </trkpt>
      <trkpt lat="49.19295" lon="-0.04699">
        <ele>21.6</ele>
        <time>2024-03-10T10:56:58Z</time>
      </trkpt>
      <trkpt lat="49.19299" lon="-0.04701">
        <ele>21.9</ele>
        <time>2024-03-10T10:56:59Z</time>
      </trkpt>
      <trkpt lat="49.19303" lon="-0.04701">
        <ele>22.1</ele>
        <time>2024-03-10T10:57:00Z</time>
      </trkpt>
      <trkpt lat="49.19307" lon="-0.04702">
        <ele>22.4</ele>
        <time>2024-03-10T10:57:01Z</time>
      </trkpt>
      <trkpt lat="49.19311" lon="-0.04703">
        <ele>22.6</ele>
        <time>2024-03-10T10:57:02Z</time>
      </trkpt>
      <trkpt lat="49.19315" lon="-0.04704">
        <ele>22.9</ele>
        <time>2024-03-10T10:57:03Z</time>
      </trkpt>
      <trkpt lat="49.19319" lon="-0.04706">
        <ele>23.1</ele>
        <time>2024-03-10T10:57:04Z</time>
      </trkpt>
      <trkpt lat="49.19322" lon="-0.04707">
        <ele>23.4</ele>
        <time>2024-03-10T10:57:05Z</time>
      </trkpt>
      <trkpt lat="49.19326" lon="-0.04708">
        <ele>23.6</ele>
        <time>2024-03-10T10:57:06Z</time>
      </trkpt>
      <trkpt lat="49.1933" lon="-0.04709">
        <ele>23.9</ele>
        <time>2024-03-10T10:57:07Z</time>
      </trkpt>
      <trkpt lat="49.19333" lon="-0.0471">
        <ele>24.1</ele>
        <time>2024-03-10T10:57:08Z</time>
      </trkpt>
      <trkpt lat="49.19337" lon="-0.0471">
        <ele>24.4</ele>
        <time>2024-03-10T10:57:09Z</time>
      </trkpt>
      <trkpt lat="49.19341" lon="-0.0471">
        <ele>24.6</ele>
        <time>2024-03-10T10:57:10Z</time>
      </trkpt>
      <trkpt lat="49.19345" lon="-0.04711">
        <ele>24.8</ele>
        <time>2024-03-10T10:57:11Z</time>
      </trkpt>
      <trkpt lat="49.19348" lon="-0.04712">
        <ele>25</ele>
        <time>2024-03-10T10:57:12Z</time>
      </trkpt>
      <trkpt lat="49.19351" lon="-0.04712">
        <ele>25.3</ele>
        <time>2024-03-10T10:57:13Z</time>
      </trkpt>
      <trkpt lat="49.19355" lon="-0.04712">
        <ele>25.5</ele>
        <time>2024-03-10T10:57:14Z</time>
      </trkpt>
      <trkpt lat="49.19358" lon="-0.04713">
        <ele>25.6</ele>
        <time>2024-03-10T10:57:15Z</time>
      </trkpt>
      <trkpt lat="49.19361" lon="-0.04714">
        <ele>25.9</ele>
        <time>2024-03-10T10:57:16Z</time>
      </trkpt>
      <trkpt lat="49.19365" lon="-0.04714">
        <ele>26.1</ele>
        <time>2024-03-10T10:57:17Z</time>
      </trkpt>
      <trkpt lat="49.19368" lon="-0.04715">
        <ele>26.3</ele>
        <time>2024-03-10T10:57:18Z</time>
      </trkpt>
      <trkpt lat="49.19372" lon="-0.04717">
        <ele>26.5</ele>
        <time>2024-03-10T10:57:19Z</time>
      </trkpt>
      <trkpt lat="49.19376" lon="-0.04719">
        <ele>26.7</ele>
        <time>2024-03-10T10:57:20Z</time>
      </trkpt>
      <trkpt lat="49.19379" lon="-0.04722">
        <ele>26.9</ele>
        <time>2024-03-10T10:57:21Z</time>
      </trkpt>
      <trkpt lat="49.19383" lon="-0.04725">
        <ele>27</ele>
        <time>2024-03-10T10:57:22Z</time>
      </trkpt>
      <trkpt lat="49.19385" lon="-0.04728">
        <ele>27.2</ele>
        <time>2024-03-10T10:57:23Z</time>
      </trkpt>
      <trkpt lat="49.19388" lon="-0.04732">
        <ele>27.3</ele>
        <time>2024-03-10T10:57:24Z</time>
      </trkpt>
      <trkpt lat="49.19391" lon="-0.04735">
        <ele>27.4</ele>
        <time>2024-03-10T10:57:25Z</time>
      </trkpt>
      <trkpt lat="49.19394" lon="-0.04739">
        <ele>27.6</ele>
        <time>2024-03-10T10:57:26Z</time>
      </trkpt>
      <trkpt lat="49.19396" lon="-0.04744">
        <ele>27.7</ele>
        <time>2024-03-10T10:57:27Z</time>
      </trkpt>
      <trkpt lat="49.19399" lon="-0.0475">
        <ele>27.8</ele>
        <time>2024-03-10T10:57:28Z</time>
      </trkpt>
      <trkpt lat="49.19402" lon="-0.04756">
        <ele>27.8</ele>
        <time>2024-03-10T10:57:29Z</time>
      </trkpt>
      <trkpt lat="49.19404" lon="-0.04763">
        <ele>27.8</ele>
        <time>2024-03-10T10:57:30Z</time>
      </trkpt>
      <trkpt lat="49.19407" lon="-0.04769">
        <ele>27.7</ele>
        <time>2024-03-10T10:57:31Z</time>
      </trkpt>
      <trkpt lat="49.19411" lon="-0.04776">
        <ele>27.7</ele>
        <time>2024-03-10T10:57:32Z</time>
      </trkpt>
      <trkpt lat="49.19414" lon="-0.04783">
        <ele>27.6</ele>
        <time>2024-03-10T10:57:33Z</time>
      </trkpt>
      <trkpt lat="49.19417" lon="-0.04791">
        <ele>27.5</ele>
        <time>2024-03-10T10:57:34Z</time>
      </trkpt>
      <trkpt lat="49.19421" lon="-0.048">
        <ele>27.4</ele>
        <time>2024-03-10T10:57:35Z</time>
      </trkpt>
      <trkpt lat="49.19425" lon="-0.04808">
        <ele>27.3</ele>
        <time>2024-03-10T10:57:36Z</time>
      </trkpt>
      <trkpt lat="49.19429" lon="-0.04817">
        <ele>27.1</ele>
        <time>2024-03-10T10:57:37Z</time>
      </trkpt>
      <trkpt lat="49.19434" lon="-0.04826">
        <ele>27</ele>
        <time>2024-03-10T10:57:38Z</time>
      </trkpt>
      <trkpt lat="49.19438" lon="-0.04835">
        <ele>26.9</ele>
        <time>2024-03-10T10:57:39Z</time>
      </trkpt>
      <trkpt lat="49.19442" lon="-0.04844">
        <ele>26.7</ele>
        <time>2024-03-10T10:57:40Z</time>
      </trkpt>
      <trkpt lat="49.19446" lon="-0.04854">
        <ele>26.6</ele>
        <time>2024-03-10T10:57:41Z</time>
      </trkpt>
      <trkpt lat="49.19451" lon="-0.04863">
        <ele>26.4</ele>
        <time>2024-03-10T10:57:42Z</time>
      </trkpt>
      <trkpt lat="49.19455" lon="-0.04873">
        <ele>26.1</ele>
        <time>2024-03-10T10:57:43Z</time>
      </trkpt>
      <trkpt lat="49.1946" lon="-0.04883">
        <ele>25.8</ele>
        <time>2024-03-10T10:57:44Z</time>
      </trkpt>
      <trkpt lat="49.19465" lon="-0.04893">
        <ele>25.6</ele>
        <time>2024-03-10T10:57:45Z</time>
      </trkpt>
      <trkpt lat="49.1947" lon="-0.04905">
        <ele>25.3</ele>
        <time>2024-03-10T10:57:46Z</time>
      </trkpt>
      <trkpt lat="49.19475" lon="-0.04916">
        <ele>25</ele>
        <time>2024-03-10T10:57:47Z</time>
      </trkpt>
      <trkpt lat="49.1948" lon="-0.04926">
        <ele>24.7</ele>
        <time>2024-03-10T10:57:48Z</time>
      </trkpt>
      <trkpt lat="49.19486" lon="-0.04938">
        <ele>24.4</ele>
        <time>2024-03-10T10:57:49Z</time>
      </trkpt>
      <trkpt lat="49.19492" lon="-0.0495">
        <ele>24.1</ele>
        <time>2024-03-10T10:57:50Z</time>
      </trkpt>
      <trkpt lat="49.19497" lon="-0.04961">
        <ele>23.8</ele>
        <time>2024-03-10T10:57:51Z</time>
      </trkpt>
      <trkpt lat="49.19502" lon="-0.04973">
        <ele>23.5</ele>
        <time>2024-03-10T10:57:52Z</time>
      </trkpt>
      <trkpt lat="49.19507" lon="-0.04985">
        <ele>23.2</ele>
        <time>2024-03-10T10:57:53Z</time>
      </trkpt>
      <trkpt lat="49.1951" lon="-0.04998">
        <ele>22.9</ele>
        <time>2024-03-10T10:57:54Z</time>
      </trkpt>
      <trkpt lat="49.19514" lon="-0.05011">
        <ele>22.6</ele>
        <time>2024-03-10T10:57:55Z</time>
      </trkpt>
      <trkpt lat="49.19516" lon="-0.05024">
        <ele>22.4</ele>
        <time>2024-03-10T10:57:56Z</time>
      </trkpt>
      <trkpt lat="49.19517" lon="-0.05038">
        <ele>22.1</ele>
        <time>2024-03-10T10:57:57Z</time>
      </trkpt>
      <trkpt lat="49.19518" lon="-0.05053">
        <ele>21.8</ele>
        <time>2024-03-10T10:57:58Z</time>
      </trkpt>
      <trkpt lat="49.19517" lon="-0.05068">
        <ele>21.5</ele>
        <time>2024-03-10T10:57:59Z</time>
      </trkpt>
      <trkpt lat="49.19516" lon="-0.05084">
        <ele>21.2</ele>
        <time>2024-03-10T10:58:00Z</time>
      </trkpt>
      <trkpt lat="49.19515" lon="-0.05099">
        <ele>20.9</ele>
        <time>2024-03-10T10:58:01Z</time>
      </trkpt>
      <trkpt lat="49.19514" lon="-0.05114">
        <ele>20.6</ele>
        <time>2024-03-10T10:58:02Z</time>
      </trkpt>
      <trkpt lat="49.19513" lon="-0.05135">
        <ele>20.3</ele>
        <time>2024-03-10T10:58:03Z</time>
      </trkpt>
      <trkpt lat="49.19512" lon="-0.05143">
        <ele>20.2</ele>
        <time>2024-03-10T10:58:04Z</time>
      </trkpt>
      <trkpt lat="49.19511" lon="-0.05158">
        <ele>19.9</ele>
        <time>2024-03-10T10:58:05Z</time>
      </trkpt>
      <trkpt lat="49.1951" lon="-0.05173">
        <ele>19.7</ele>
        <time>2024-03-10T10:58:06Z</time>
      </trkpt>
      <trkpt lat="49.19509" lon="-0.05188">
        <ele>19.5</ele>
        <time>2024-03-10T10:58:07Z</time>
      </trkpt>
      <trkpt lat="49.19509" lon="-0.05203">
        <ele>19.3</ele>
        <time>2024-03-10T10:58:08Z</time>
      </trkpt>
      <trkpt lat="49.19507" lon="-0.05234">
        <ele>19.1</ele>
        <time>2024-03-10T10:58:10Z</time>
      </trkpt>
      <trkpt lat="49.19506" lon="-0.05257">
        <ele>18.9</ele>
        <time>2024-03-10T10:58:11Z</time>
      </trkpt>
      <trkpt lat="49.19506" lon="-0.05264">
        <ele>18.8</ele>
        <time>2024-03-10T10:58:12Z</time>
      </trkpt>
      <trkpt lat="49.19504" lon="-0.0528">
        <ele>18.7</ele>
        <time>2024-03-10T10:58:13Z</time>
      </trkpt>
      <trkpt lat="49.19503" lon="-0.05294">
        <ele>18.6</ele>
        <time>2024-03-10T10:58:14Z</time>
      </trkpt>
      <trkpt lat="49.19502" lon="-0.05309">
        <ele>18.4</ele>
        <time>2024-03-10T10:58:15Z</time>
      </trkpt>
      <trkpt lat="49.195" lon="-0.05323">
        <ele>18.3</ele>
        <time>2024-03-10T10:58:16Z</time>
      </trkpt>
      <trkpt lat="49.19499" lon="-0.05338">
        <ele>18.1</ele>
        <time>2024-03-10T10:58:17Z</time>
      </trkpt>
      <trkpt lat="49.19498" lon="-0.05352">
        <ele>18</ele>
        <time>2024-03-10T10:58:18Z</time>
      </trkpt>
      <trkpt lat="49.19497" lon="-0.05366">
        <ele>17.9</ele>
        <time>2024-03-10T10:58:19Z</time>
      </trkpt>
      <trkpt lat="49.19496" lon="-0.05381">
        <ele>17.7</ele>
        <time>2024-03-10T10:58:20Z</time>
      </trkpt>
      <trkpt lat="49.19496" lon="-0.05395">
        <ele>17.6</ele>
        <time>2024-03-10T10:58:21Z</time>
      </trkpt>
      <trkpt lat="49.19495" lon="-0.0541">
        <ele>17.4</ele>
        <time>2024-03-10T10:58:22Z</time>
      </trkpt>
      <trkpt lat="49.19495" lon="-0.05424">
        <ele>17.2</ele>
        <time>2024-03-10T10:58:23Z</time>
      </trkpt>
      <trkpt lat="49.19497" lon="-0.05438">
        <ele>16.9</ele>
        <time>2024-03-10T10:58:24Z</time>
      </trkpt>
      <trkpt lat="49.19499" lon="-0.05452">
        <ele>16.6</ele>
        <time>2024-03-10T10:58:25Z</time>
      </trkpt>
      <trkpt lat="49.19502" lon="-0.05466">
        <ele>16.4</ele>
        <time>2024-03-10T10:58:26Z</time>
      </trkpt>
      <trkpt lat="49.19504" lon="-0.0548">
        <ele>16.2</ele>
        <time>2024-03-10T10:58:27Z</time>
      </trkpt>
      <trkpt lat="49.19507" lon="-0.05494">
        <ele>16</ele>
        <time>2024-03-10T10:58:28Z</time>
      </trkpt>
      <trkpt lat="49.1951" lon="-0.05508">
        <ele>15.8</ele>
        <time>2024-03-10T10:58:29Z</time>
      </trkpt>
      <trkpt lat="49.19513" lon="-0.05522">
        <ele>15.6</ele>
        <time>2024-03-10T10:58:30Z</time>
      </trkpt>
      <trkpt lat="49.19516" lon="-0.05537">
        <ele>15.4</ele>
        <time>2024-03-10T10:58:31Z</time>
      </trkpt>
      <trkpt lat="49.19517" lon="-0.05552">
        <ele>15.3</ele>
        <time>2024-03-10T10:58:32Z</time>
      </trkpt>
      <trkpt lat="49.19519" lon="-0.05566">
        <ele>15.1</ele>
        <time>2024-03-10T10:58:33Z</time>
      </trkpt>
      <trkpt lat="49.1952" lon="-0.05581">
        <ele>15</ele>
        <time>2024-03-10T10:58:34Z</time>
      </trkpt>
      <trkpt lat="49.19522" lon="-0.05595">
        <ele>14.8</ele>
        <time>2024-03-10T10:58:35Z</time>
      </trkpt>
      <trkpt lat="49.19522" lon="-0.0561">
        <ele>14.6</ele>
        <time>2024-03-10T10:58:36Z</time>
      </trkpt>
      <trkpt lat="49.19522" lon="-0.05625">
        <ele>14.4</ele>
        <time>2024-03-10T10:58:37Z</time>
      </trkpt>
      <trkpt lat="49.19521" lon="-0.05639">
        <ele>14.2</ele>
        <time>2024-03-10T10:58:38Z</time>
      </trkpt>
      <trkpt lat="49.1952" lon="-0.05654">
        <ele>13.9</ele>
        <time>2024-03-10T10:58:39Z</time>
      </trkpt>
      <trkpt lat="49.19518" lon="-0.05669">
        <ele>13.8</ele>
        <time>2024-03-10T10:58:40Z</time>
      </trkpt>
      <trkpt lat="49.19515" lon="-0.05684">
        <ele>13.6</ele>
        <time>2024-03-10T10:58:41Z</time>
      </trkpt>
      <trkpt lat="49.19513" lon="-0.05699">
        <ele>13.5</ele>
        <time>2024-03-10T10:58:42Z</time>
      </trkpt>
      <trkpt lat="49.19511" lon="-0.05714">
        <ele>13.4</ele>
        <time>2024-03-10T10:58:43Z</time>
      </trkpt>
      <trkpt lat="49.19508" lon="-0.05729">
        <ele>13.4</ele>
        <time>2024-03-10T10:58:44Z</time>
      </trkpt>
      <trkpt lat="49.19506" lon="-0.05744">
        <ele>13.3</ele>
        <time>2024-03-10T10:58:45Z</time>
      </trkpt>
      <trkpt lat="49.19505" lon="-0.05758">
        <ele>13.2</ele>
        <time>2024-03-10T10:58:46Z</time>
      </trkpt>
      <trkpt lat="49.19503" lon="-0.05773">
        <ele>13.1</ele>
        <time>2024-03-10T10:58:47Z</time>
      </trkpt>
      <trkpt lat="49.19501" lon="-0.05787">
        <ele>13.1</ele>
        <time>2024-03-10T10:58:48Z</time>
      </trkpt>
      <trkpt lat="49.19499" lon="-0.05802">
        <ele>13.1</ele>
        <time>2024-03-10T10:58:49Z</time>
      </trkpt>
      <trkpt lat="49.19497" lon="-0.05817">
        <ele>13</ele>
        <time>2024-03-10T10:58:50Z</time>
      </trkpt>
      <trkpt lat="49.19495" lon="-0.05831">
        <ele>13</ele>
        <time>2024-03-10T10:58:51Z</time>
      </trkpt>
      <trkpt lat="49.19494" lon="-0.05846">
        <ele>13</ele>
        <time>2024-03-10T10:58:52Z</time>
      </trkpt>
      <trkpt lat="49.19492" lon="-0.0586">
        <ele>12.9</ele>
        <time>2024-03-10T10:58:53Z</time>
      </trkpt>
      <trkpt lat="49.19491" lon="-0.05874">
        <ele>12.9</ele>
        <time>2024-03-10T10:58:54Z</time>
      </trkpt>
      <trkpt lat="49.19489" lon="-0.05889">
        <ele>12.9</ele>
        <time>2024-03-10T10:58:55Z</time>
      </trkpt>
      <trkpt lat="49.19488" lon="-0.05903">
        <ele>12.8</ele>
        <time>2024-03-10T10:58:56Z</time>
      </trkpt>
      <trkpt lat="49.19488" lon="-0.05917">
        <ele>12.8</ele>
        <time>2024-03-10T10:58:57Z</time>
      </trkpt>
      <trkpt lat="49.19488" lon="-0.05932">
        <ele>12.7</ele>
        <time>2024-03-10T10:58:58Z</time>
      </trkpt>
      <trkpt lat="49.19489" lon="-0.05947">
        <ele>12.7</ele>
        <time>2024-03-10T10:58:59Z</time>
      </trkpt>
      <trkpt lat="49.1949" lon="-0.05961">
        <ele>12.6</ele>
        <time>2024-03-10T10:59:00Z</time>
      </trkpt>
      <trkpt lat="49.19491" lon="-0.05975">
        <ele>12.5</ele>
        <time>2024-03-10T10:59:01Z</time>
      </trkpt>
      <trkpt lat="49.19493" lon="-0.05989">
        <ele>12.5</ele>
        <time>2024-03-10T10:59:02Z</time>
      </trkpt>
      <trkpt lat="49.19495" lon="-0.06003">
        <ele>12.5</ele>
        <time>2024-03-10T10:59:03Z</time>
      </trkpt>
      <trkpt lat="49.19497" lon="-0.06016">
        <ele>12.4</ele>
        <time>2024-03-10T10:59:04Z</time>
      </trkpt>
      <trkpt lat="49.195" lon="-0.0603">
        <ele>12.4</ele>
        <time>2024-03-10T10:59:05Z</time>
      </trkpt>
      <trkpt lat="49.19502" lon="-0.06044">
        <ele>12.3</ele>
        <time>2024-03-10T10:59:06Z</time>
      </trkpt>
      <trkpt lat="49.19504" lon="-0.06057">
        <ele>12.3</ele>
        <time>2024-03-10T10:59:07Z</time>
      </trkpt>
      <trkpt lat="49.19506" lon="-0.06071">
        <ele>12.2</ele>
        <time>2024-03-10T10:59:08Z</time>
      </trkpt>
      <trkpt lat="49.19508" lon="-0.06085">
        <ele>12.1</ele>
        <time>2024-03-10T10:59:09Z</time>
      </trkpt>
      <trkpt lat="49.1951" lon="-0.06099">
        <ele>12</ele>
        <time>2024-03-10T10:59:10Z</time>
      </trkpt>
      <trkpt lat="49.19512" lon="-0.06114">
        <ele>11.9</ele>
        <time>2024-03-10T10:59:11Z</time>
      </trkpt>
      <trkpt lat="49.19514" lon="-0.06128">
        <ele>11.8</ele>
        <time>2024-03-10T10:59:12Z</time>
      </trkpt>
      <trkpt lat="49.19516" lon="-0.06142">
        <ele>11.7</ele>
        <time>2024-03-10T10:59:13Z</time>
      </trkpt>
      <trkpt lat="49.19518" lon="-0.06156">
        <ele>11.6</ele>
        <time>2024-03-10T10:59:14Z</time>
      </trkpt>
      <trkpt lat="49.19521" lon="-0.0617">
        <ele>11.5</ele>
        <time>2024-03-10T10:59:15Z</time>
      </trkpt>
      <trkpt lat="49.19524" lon="-0.06184">
        <ele>11.4</ele>
        <time>2024-03-10T10:59:16Z</time>
      </trkpt>
      <trkpt lat="49.19528" lon="-0.06197">
        <ele>11.2</ele>
        <time>2024-03-10T10:59:17Z</time>
      </trkpt>
      <trkpt lat="49.19533" lon="-0.0621">
        <ele>11.1</ele>
        <time>2024-03-10T10:59:18Z</time>
      </trkpt>
      <trkpt lat="49.19538" lon="-0.06223">
        <ele>10.9</ele>
        <time>2024-03-10T10:59:19Z</time>
      </trkpt>
      <trkpt lat="49.19545" lon="-0.06233">
        <ele>10.7</ele>
        <time>2024-03-10T10:59:20Z</time>
      </trkpt>
      <trkpt lat="49.19552" lon="-0.06244">
        <ele>10.5</ele>
        <time>2024-03-10T10:59:21Z</time>
      </trkpt>
      <trkpt lat="49.19559" lon="-0.06254">
        <ele>10.4</ele>
        <time>2024-03-10T10:59:22Z</time>
      </trkpt>
      <trkpt lat="49.19567" lon="-0.06262">
        <ele>10.3</ele>
        <time>2024-03-10T10:59:23Z</time>
      </trkpt>
      <trkpt lat="49.19575" lon="-0.06271">
        <ele>10.1</ele>
        <time>2024-03-10T10:59:24Z</time>
      </trkpt>
      <trkpt lat="49.19583" lon="-0.06278">
        <ele>10</ele>
        <time>2024-03-10T10:59:25Z</time>
      </trkpt>
      <trkpt lat="49.19592" lon="-0.06285">
        <ele>9.8</ele>
        <time>2024-03-10T10:59:26Z</time>
      </trkpt>
      <trkpt lat="49.196" lon="-0.06291">
        <ele>9.7</ele>
        <time>2024-03-10T10:59:27Z</time>
      </trkpt>
      <trkpt lat="49.19607" lon="-0.06297">
        <ele>9.6</ele>
        <time>2024-03-10T10:59:28Z</time>
      </trkpt>
      <trkpt lat="49.19614" lon="-0.06302">
        <ele>9.5</ele>
        <time>2024-03-10T10:59:29Z</time>
      </trkpt>
      <trkpt lat="49.19622" lon="-0.06307">
        <ele>9.4</ele>
        <time>2024-03-10T10:59:30Z</time>
      </trkpt>
      <trkpt lat="49.19629" lon="-0.06313">
        <ele>9.4</ele>
        <time>2024-03-10T10:59:31Z</time>
      </trkpt>
      <trkpt lat="49.19636" lon="-0.06318">
        <ele>9.3</ele>
        <time>2024-03-10T10:59:32Z</time>
      </trkpt>
      <trkpt lat="49.19643" lon="-0.06323">
        <ele>9.2</ele>
        <time>2024-03-10T10:59:33Z</time>
      </trkpt>
      <trkpt lat="49.19651" lon="-0.06329">
        <ele>9.1</ele>
        <time>2024-03-10T10:59:34Z</time>
      </trkpt>
      <trkpt lat="49.19658" lon="-0.06335">
        <ele>9</ele>
        <time>2024-03-10T10:59:35Z</time>
      </trkpt>
      <trkpt lat="49.19664" lon="-0.0634">
        <ele>8.9</ele>
        <time>2024-03-10T10:59:36Z</time>
      </trkpt>
      <trkpt lat="49.19671" lon="-0.06346">
        <ele>8.9</ele>
        <time>2024-03-10T10:59:37Z</time>
      </trkpt>
      <trkpt lat="49.19677" lon="-0.06352">
        <ele>8.8</ele>
        <time>2024-03-10T10:59:38Z</time>
      </trkpt>
      <trkpt lat="49.19683" lon="-0.06359">
        <ele>8.7</ele>
        <time>2024-03-10T10:59:39Z</time>
      </trkpt>
      <trkpt lat="49.19689" lon="-0.06367">
        <ele>8.6</ele>
        <time>2024-03-10T10:59:40Z</time>
      </trkpt>
      <trkpt lat="49.19695" lon="-0.06376">
        <ele>8.5</ele>
        <time>2024-03-10T10:59:41Z</time>
      </trkpt>
      <trkpt lat="49.197" lon="-0.06385">
        <ele>8.5</ele>
        <time>2024-03-10T10:59:42Z</time>
      </trkpt>
      <trkpt lat="49.19705" lon="-0.06395">
        <ele>8.4</ele>
        <time>2024-03-10T10:59:43Z</time>
      </trkpt>
      <trkpt lat="49.19709" lon="-0.06406">
        <ele>8.3</ele>
        <time>2024-03-10T10:59:44Z</time>
      </trkpt>
      <trkpt lat="49.19714" lon="-0.06417">
        <ele>8.3</ele>
        <time>2024-03-10T10:59:45Z</time>
      </trkpt>
      <trkpt lat="49.19718" lon="-0.06428">
        <ele>8.2</ele>
        <time>2024-03-10T10:59:46Z</time>
      </trkpt>
      <trkpt lat="49.19723" lon="-0.06439">
        <ele>8.1</ele>
        <time>2024-03-10T10:59:47Z</time>
      </trkpt>
      <trkpt lat="49.19727" lon="-0.06449">
        <ele>8.1</ele>
        <time>2024-03-10T10:59:48Z</time>
      </trkpt>
      <trkpt lat="49.19731" lon="-0.0646">
        <ele>8</ele>
        <time>2024-03-10T10:59:49Z</time>
      </trkpt>
      <trkpt lat="49.19737" lon="-0.06471">
        <ele>7.9</ele>
        <time>2024-03-10T10:59:50Z</time>
      </trkpt>
      <trkpt lat="49.19745" lon="-0.06479">
        <ele>7.8</ele>
        <time>2024-03-10T10:59:51Z</time>
      </trkpt>
      <trkpt lat="49.19753" lon="-0.06486">
        <ele>7.7</ele>
        <time>2024-03-10T10:59:52Z</time>
      </trkpt>
      <trkpt lat="49.19762" lon="-0.06492">
        <ele>7.6</ele>
        <time>2024-03-10T10:59:53Z</time>
      </trkpt>
      <trkpt lat="49.19771" lon="-0.06497">
        <ele>7.5</ele>
        <time>2024-03-10T10:59:54Z</time>
      </trkpt>
      <trkpt lat="49.1978" lon="-0.06503">
        <ele>7.5</ele>
        <time>2024-03-10T10:59:55Z</time>
      </trkpt>
      <trkpt lat="49.19789" lon="-0.06508">
        <ele>7.5</ele>
        <time>2024-03-10T10:59:56Z</time>
      </trkpt>
      <trkpt lat="49.19798" lon="-0.06514">
        <ele>7.4</ele>
        <time>2024-03-10T10:59:57Z</time>
      </trkpt>
      <trkpt lat="49.19806" lon="-0.06518">
        <ele>7.5</ele>
        <time>2024-03-10T10:59:58Z</time>
      </trkpt>
      <trkpt lat="49.19815" lon="-0.06523">
        <ele>7.5</ele>
        <time>2024-03-10T10:59:59Z</time>
      </trkpt>
      <trkpt lat="49.19822" lon="-0.06527">
        <ele>7.4</ele>
        <time>2024-03-10T11:00:00Z</time>
      </trkpt>
      <trkpt lat="49.1983" lon="-0.06531">
        <ele>7.3</ele>
        <time>2024-03-10T11:00:01Z</time>
      </trkpt>
      <trkpt lat="49.19837" lon="-0.06535">
        <ele>7.3</ele>
        <time>2024-03-10T11:00:02Z</time>
      </trkpt>
      <trkpt lat="49.19845" lon="-0.06539">
        <ele>7.3</ele>
        <time>2024-03-10T11:00:03Z</time>
      </trkpt>
      <trkpt lat="49.19853" lon="-0.06543">
        <ele>7.2</ele>
        <time>2024-03-10T11:00:04Z</time>
      </trkpt>
      <trkpt lat="49.19861" lon="-0.06547">
        <ele>7.2</ele>
        <time>2024-03-10T11:00:05Z</time>
      </trkpt>
      <trkpt lat="49.1987" lon="-0.0655">
        <ele>7.2</ele>
        <time>2024-03-10T11:00:06Z</time>
      </trkpt>
      <trkpt lat="49.19879" lon="-0.06552">
        <ele>7.2</ele>
        <time>2024-03-10T11:00:07Z</time>
      </trkpt>
      <trkpt lat="49.19888" lon="-0.06553">
        <ele>7.2</ele>
        <time>2024-03-10T11:00:08Z</time>
      </trkpt>
      <trkpt lat="49.19897" lon="-0.06554">
        <ele>7.2</ele>
        <time>2024-03-10T11:00:09Z</time>
      </trkpt>
      <trkpt lat="49.19905" lon="-0.06553">
        <ele>7.2</ele>
        <time>2024-03-10T11:00:10Z</time>
      </trkpt>
      <trkpt lat="49.19913" lon="-0.06553">
        <ele>7.2</ele>
        <time>2024-03-10T11:00:11Z</time>
      </trkpt>
      <trkpt lat="49.19922" lon="-0.06553">
        <ele>7.2</ele>
        <time>2024-03-10T11:00:12Z</time>
      </trkpt>
      <trkpt lat="49.1993" lon="-0.06552">
        <ele>7.2</ele>
        <time>2024-03-10T11:00:13Z</time>
      </trkpt>
      <trkpt lat="49.19938" lon="-0.06552">
        <ele>7.2</ele>
        <time>2024-03-10T11:00:14Z</time>
      </trkpt>
      <trkpt lat="49.19946" lon="-0.06552">
        <ele>7.2</ele>
        <time>2024-03-10T11:00:15Z</time>
      </trkpt>
      <trkpt lat="49.19954" lon="-0.06552">
        <ele>7.2</ele>
        <time>2024-03-10T11:00:16Z</time>
      </trkpt>
      <trkpt lat="49.19963" lon="-0.06552">
        <ele>7.2</ele>
        <time>2024-03-10T11:00:17Z</time>
      </trkpt>
      <trkpt lat="49.19971" lon="-0.06551">
        <ele>7.2</ele>
        <time>2024-03-10T11:00:18Z</time>
      </trkpt>
      <trkpt lat="49.19979" lon="-0.0655">
        <ele>7.2</ele>
        <time>2024-03-10T11:00:19Z</time>
      </trkpt>
      <trkpt lat="49.19987" lon="-0.06549">
        <ele>7.2</ele>
        <time>2024-03-10T11:00:20Z</time>
      </trkpt>
      <trkpt lat="49.19995" lon="-0.06546">
        <ele>7.2</ele>
        <time>2024-03-10T11:00:21Z</time>
      </trkpt>
      <trkpt lat="49.20003" lon="-0.06542">
        <ele>7.2</ele>
        <time>2024-03-10T11:00:22Z</time>
      </trkpt>
      <trkpt lat="49.20011" lon="-0.06536">
        <ele>7.3</ele>
        <time>2024-03-10T11:00:23Z</time>
      </trkpt>
      <trkpt lat="49.20019" lon="-0.06529">
        <ele>7.3</ele>
        <time>2024-03-10T11:00:24Z</time>
      </trkpt>
      <trkpt lat="49.20026" lon="-0.06522">
        <ele>7.3</ele>
        <time>2024-03-10T11:00:25Z</time>
      </trkpt>
      <trkpt lat="49.20033" lon="-0.06515">
        <ele>7.3</ele>
        <time>2024-03-10T11:00:26Z</time>
      </trkpt>
      <trkpt lat="49.2004" lon="-0.06507">
        <ele>7.3</ele>
        <time>2024-03-10T11:00:27Z</time>
      </trkpt>
      <trkpt lat="49.20046" lon="-0.06499">
        <ele>7.3</ele>
        <time>2024-03-10T11:00:28Z</time>
      </trkpt>
      <trkpt lat="49.20053" lon="-0.06491">
        <ele>7.3</ele>
        <time>2024-03-10T11:00:29Z</time>
      </trkpt>
      <trkpt lat="49.2006" lon="-0.06484">
        <ele>7.3</ele>
        <time>2024-03-10T11:00:30Z</time>
      </trkpt>
      <trkpt lat="49.20068" lon="-0.06477">
        <ele>7.4</ele>
        <time>2024-03-10T11:00:31Z</time>
      </trkpt>
      <trkpt lat="49.20075" lon="-0.06471">
        <ele>7.4</ele>
        <time>2024-03-10T11:00:32Z</time>
      </trkpt>
      <trkpt lat="49.20082" lon="-0.06465">
        <ele>7.4</ele>
        <time>2024-03-10T11:00:33Z</time>
      </trkpt>
      <trkpt lat="49.20089" lon="-0.06459">
        <ele>7.4</ele>
        <time>2024-03-10T11:00:34Z</time>
      </trkpt>
      <trkpt lat="49.20095" lon="-0.06453">
        <ele>7.5</ele>
        <time>2024-03-10T11:00:35Z</time>
      </trkpt>
      <trkpt lat="49.20102" lon="-0.06445">
        <ele>7.5</ele>
        <time>2024-03-10T11:00:36Z</time>
      </trkpt>
      <trkpt lat="49.20106" lon="-0.06436">
        <ele>7.6</ele>
        <time>2024-03-10T11:00:37Z</time>
      </trkpt>
      <trkpt lat="49.20111" lon="-0.06426">
        <ele>7.6</ele>
        <time>2024-03-10T11:00:38Z</time>
      </trkpt>
      <trkpt lat="49.20116" lon="-0.06416">
        <ele>7.6</ele>
        <time>2024-03-10T11:00:39Z</time>
      </trkpt>
      <trkpt lat="49.2012" lon="-0.06405">
        <ele>7.6</ele>
        <time>2024-03-10T11:00:40Z</time>
      </trkpt>
      <trkpt lat="49.20125" lon="-0.06395">
        <ele>7.6</ele>
        <time>2024-03-10T11:00:41Z</time>
      </trkpt>
      <trkpt lat="49.20129" lon="-0.06384">
        <ele>7.6</ele>
        <time>2024-03-10T11:00:42Z</time>
      </trkpt>
      <trkpt lat="49.20135" lon="-0.06373">
        <ele>7.7</ele>
        <time>2024-03-10T11:00:43Z</time>
      </trkpt>
      <trkpt lat="49.2014" lon="-0.06364">
        <ele>7.7</ele>
        <time>2024-03-10T11:00:44Z</time>
      </trkpt>
      <trkpt lat="49.20146" lon="-0.06354">
        <ele>7.8</ele>
        <time>2024-03-10T11:00:45Z</time>
      </trkpt>
      <trkpt lat="49.20152" lon="-0.06345">
        <ele>7.8</ele>
        <time>2024-03-10T11:00:46Z</time>
      </trkpt>
      <trkpt lat="49.20158" lon="-0.06336">
        <ele>7.8</ele>
        <time>2024-03-10T11:00:47Z</time>
      </trkpt>
      <trkpt lat="49.20164" lon="-0.06328">
        <ele>7.9</ele>
        <time>2024-03-10T11:00:48Z</time>
      </trkpt>
      <trkpt lat="49.20171" lon="-0.06319">
        <ele>7.9</ele>
        <time>2024-03-10T11:00:49Z</time>
      </trkpt>
      <trkpt lat="49.20178" lon="-0.06313">
        <ele>7.9</ele>
        <time>2024-03-10T11:00:50Z</time>
      </trkpt>
      <trkpt lat="49.20184" lon="-0.06308">
        <ele>7.9</ele>
        <time>2024-03-10T11:00:51Z</time>
      </trkpt>
      <trkpt lat="49.20192" lon="-0.06305">
        <ele>7.9</ele>
        <time>2024-03-10T11:00:52Z</time>
      </trkpt>
      <trkpt lat="49.202" lon="-0.06304">
        <ele>7.9</ele>
        <time>2024-03-10T11:00:53Z</time>
      </trkpt>
      <trkpt lat="49.20209" lon="-0.06305">
        <ele>8</ele>
        <time>2024-03-10T11:00:54Z</time>
      </trkpt>
      <trkpt lat="49.20217" lon="-0.06307">
        <ele>8</ele>
        <time>2024-03-10T11:00:55Z</time>
      </trkpt>
      <trkpt lat="49.20225" lon="-0.0631">
        <ele>8</ele>
        <time>2024-03-10T11:00:56Z</time>
      </trkpt>
      <trkpt lat="49.20233" lon="-0.06314">
        <ele>8</ele>
        <time>2024-03-10T11:00:57Z</time>
      </trkpt>
      <trkpt lat="49.20241" lon="-0.06319">
        <ele>8.1</ele>
        <time>2024-03-10T11:00:58Z</time>
      </trkpt>
      <trkpt lat="49.20249" lon="-0.06323">
        <ele>8.2</ele>
        <time>2024-03-10T11:00:59Z</time>
      </trkpt>
      <trkpt lat="49.20257" lon="-0.06327">
        <ele>8.2</ele>
        <time>2024-03-10T11:01:00Z</time>
      </trkpt>
      <trkpt lat="49.20265" lon="-0.06331">
        <ele>8.3</ele>
        <time>2024-03-10T11:01:01Z</time>
      </trkpt>
      <trkpt lat="49.20272" lon="-0.06335">
        <ele>8.3</ele>
        <time>2024-03-10T11:01:02Z</time>
      </trkpt>
      <trkpt lat="49.2028" lon="-0.06339">
        <ele>8.4</ele>
        <time>2024-03-10T11:01:03Z</time>
      </trkpt>
      <trkpt lat="49.20287" lon="-0.06342">
        <ele>8.5</ele>
        <time>2024-03-10T11:01:04Z</time>
      </trkpt>
      <trkpt lat="49.20295" lon="-0.06346">
        <ele>8.5</ele>
        <time>2024-03-10T11:01:05Z</time>
      </trkpt>
      <trkpt lat="49.20302" lon="-0.06349">
        <ele>8.5</ele>
        <time>2024-03-10T11:01:06Z</time>
      </trkpt>
      <trkpt lat="49.2031" lon="-0.06352">
        <ele>8.5</ele>
        <time>2024-03-10T11:01:07Z</time>
      </trkpt>
      <trkpt lat="49.20317" lon="-0.06356">
        <ele>8.6</ele>
        <time>2024-03-10T11:01:08Z</time>
      </trkpt>
      <trkpt lat="49.20325" lon="-0.06359">
        <ele>8.6</ele>
        <time>2024-03-10T11:01:09Z</time>
      </trkpt>
      <trkpt lat="49.20332" lon="-0.06363">
        <ele>8.6</ele>
        <time>2024-03-10T11:01:10Z</time>
      </trkpt>
      <trkpt lat="49.2034" lon="-0.06367">
        <ele>8.6</ele>
        <time>2024-03-10T11:01:11Z</time>
      </trkpt>
      <trkpt lat="49.20347" lon="-0.06371">
        <ele>8.6</ele>
        <time>2024-03-10T11:01:12Z</time>
      </trkpt>
      <trkpt lat="49.20355" lon="-0.06375">
        <ele>8.7</ele>
        <time>2024-03-10T11:01:13Z</time>
      </trkpt>
      <trkpt lat="49.20363" lon="-0.06379">
        <ele>8.7</ele>
        <time>2024-03-10T11:01:14Z</time>
      </trkpt>
      <trkpt lat="49.2037" lon="-0.06383">
        <ele>8.8</ele>
        <time>2024-03-10T11:01:15Z</time>
      </trkpt>
      <trkpt lat="49.20378" lon="-0.06387">
        <ele>8.8</ele>
        <time>2024-03-10T11:01:16Z</time>
      </trkpt>
      <trkpt lat="49.20385" lon="-0.06391">
        <ele>8.8</ele>
        <time>2024-03-10T11:01:17Z</time>
      </trkpt>
      <trkpt lat="49.20393" lon="-0.06395">
        <ele>8.9</ele>
        <time>2024-03-10T11:01:18Z</time>
      </trkpt>
      <trkpt lat="49.20401" lon="-0.06399">
        <ele>8.9</ele>
        <time>2024-03-10T11:01:19Z</time>
      </trkpt>
      <trkpt lat="49.20408" lon="-0.06403">
        <ele>8.9</ele>
        <time>2024-03-10T11:01:20Z</time>
      </trkpt>
      <trkpt lat="49.20416" lon="-0.06406">
        <ele>8.9</ele>
        <time>2024-03-10T11:01:21Z</time>
      </trkpt>
      <trkpt lat="49.20424" lon="-0.0641">
        <ele>8.9</ele>
        <time>2024-03-10T11:01:22Z</time>
      </trkpt>
      <trkpt lat="49.20433" lon="-0.06414">
        <ele>8.9</ele>
        <time>2024-03-10T11:01:23Z</time>
      </trkpt>
      <trkpt lat="49.2044" lon="-0.06418">
        <ele>8.9</ele>
        <time>2024-03-10T11:01:24Z</time>
      </trkpt>
      <trkpt lat="49.20448" lon="-0.06423">
        <ele>8.8</ele>
        <time>2024-03-10T11:01:25Z</time>
      </trkpt>
      <trkpt lat="49.20455" lon="-0.06428">
        <ele>8.8</ele>
        <time>2024-03-10T11:01:26Z</time>
      </trkpt>
      <trkpt lat="49.20462" lon="-0.06433">
        <ele>8.8</ele>
        <time>2024-03-10T11:01:27Z</time>
      </trkpt>
      <trkpt lat="49.20469" lon="-0.0644">
        <ele>8.8</ele>
        <time>2024-03-10T11:01:28Z</time>
      </trkpt>
      <trkpt lat="49.20476" lon="-0.06447">
        <ele>8.9</ele>
        <time>2024-03-10T11:01:29Z</time>
      </trkpt>
      <trkpt lat="49.20482" lon="-0.06455">
        <ele>8.9</ele>
        <time>2024-03-10T11:01:30Z</time>
      </trkpt>
      <trkpt lat="49.20488" lon="-0.06464">
        <ele>8.9</ele>
        <time>2024-03-10T11:01:31Z</time>
      </trkpt>
      <trkpt lat="49.20495" lon="-0.06472">
        <ele>8.9</ele>
        <time>2024-03-10T11:01:32Z</time>
      </trkpt>
      <trkpt lat="49.205" lon="-0.06481">
        <ele>8.9</ele>
        <time>2024-03-10T11:01:33Z</time>
      </trkpt>
      <trkpt lat="49.20507" lon="-0.06489">
        <ele>8.9</ele>
        <time>2024-03-10T11:01:34Z</time>
      </trkpt>
      <trkpt lat="49.20513" lon="-0.06497">
        <ele>8.9</ele>
        <time>2024-03-10T11:01:35Z</time>
      </trkpt>
      <trkpt lat="49.20519" lon="-0.06503">
        <ele>9</ele>
        <time>2024-03-10T11:01:36Z</time>
      </trkpt>
      <trkpt lat="49.20526" lon="-0.06508">
        <ele>9</ele>
        <time>2024-03-10T11:01:37Z</time>
      </trkpt>
      <trkpt lat="49.20533" lon="-0.06513">
        <ele>9</ele>
        <time>2024-03-10T11:01:38Z</time>
      </trkpt>
      <trkpt lat="49.2054" lon="-0.06518">
        <ele>9</ele>
        <time>2024-03-10T11:01:39Z</time>
      </trkpt>
      <trkpt lat="49.20547" lon="-0.06524">
        <ele>9</ele>
        <time>2024-03-10T11:01:40Z</time>
      </trkpt>
      <trkpt lat="49.20554" lon="-0.0653">
        <ele>9</ele>
        <time>2024-03-10T11:01:41Z</time>
      </trkpt>
      <trkpt lat="49.2056" lon="-0.06536">
        <ele>9</ele>
        <time>2024-03-10T11:01:42Z</time>
      </trkpt>
      <trkpt lat="49.20567" lon="-0.06543">
        <ele>9.1</ele>
        <time>2024-03-10T11:01:43Z</time>
      </trkpt>
      <trkpt lat="49.20574" lon="-0.06551">
        <ele>9.1</ele>
        <time>2024-03-10T11:01:44Z</time>
      </trkpt>
      <trkpt lat="49.2058" lon="-0.06559">
        <ele>9.1</ele>
        <time>2024-03-10T11:01:45Z</time>
      </trkpt>
      <trkpt lat="49.20586" lon="-0.06568">
        <ele>9.1</ele>
        <time>2024-03-10T11:01:46Z</time>
      </trkpt>
      <trkpt lat="49.20591" lon="-0.06576">
        <ele>9.2</ele>
        <time>2024-03-10T11:01:47Z</time>
      </trkpt>
      <trkpt lat="49.20596" lon="-0.06585">
        <ele>9.2</ele>
        <time>2024-03-10T11:01:48Z</time>
      </trkpt>
      <trkpt lat="49.20601" lon="-0.06593">
        <ele>9.2</ele>
        <time>2024-03-10T11:01:49Z</time>
      </trkpt>
      <trkpt lat="49.20607" lon="-0.06602">
        <ele>9.2</ele>
        <time>2024-03-10T11:01:50Z</time>
      </trkpt>
      <trkpt lat="49.20612" lon="-0.06611">
        <ele>9.2</ele>
        <time>2024-03-10T11:01:51Z</time>
      </trkpt>
      <trkpt lat="49.20617" lon="-0.0662">
        <ele>9.2</ele>
        <time>2024-03-10T11:01:52Z</time>
      </trkpt>
      <trkpt lat="49.20623" lon="-0.06628">
        <ele>9.1</ele>
        <time>2024-03-10T11:01:53Z</time>
      </trkpt>
      <trkpt lat="49.20629" lon="-0.06637">
        <ele>9.1</ele>
        <time>2024-03-10T11:01:54Z</time>
      </trkpt>
      <trkpt lat="49.20635" lon="-0.06645">
        <ele>9.1</ele>
        <time>2024-03-10T11:01:55Z</time>
      </trkpt>
      <trkpt lat="49.2064" lon="-0.06654">
        <ele>9.1</ele>
        <time>2024-03-10T11:01:56Z</time>
      </trkpt>
      <trkpt lat="49.20647" lon="-0.06662">
        <ele>9</ele>
        <time>2024-03-10T11:01:57Z</time>
      </trkpt>
      <trkpt lat="49.20653" lon="-0.0667">
        <ele>9</ele>
        <time>2024-03-10T11:01:58Z</time>
      </trkpt>
      <trkpt lat="49.20659" lon="-0.06678">
        <ele>9</ele>
        <time>2024-03-10T11:01:59Z</time>
      </trkpt>
      <trkpt lat="49.20666" lon="-0.06685">
        <ele>9</ele>
        <time>2024-03-10T11:02:00Z</time>
      </trkpt>
      <trkpt lat="49.20672" lon="-0.06693">
        <ele>9</ele>
        <time>2024-03-10T11:02:01Z</time>
      </trkpt>
      <trkpt lat="49.20678" lon="-0.067">
        <ele>9</ele>
        <time>2024-03-10T11:02:02Z</time>
      </trkpt>
      <trkpt lat="49.20685" lon="-0.06707">
        <ele>9</ele>
        <time>2024-03-10T11:02:03Z</time>
      </trkpt>
      <trkpt lat="49.20691" lon="-0.06713">
        <ele>9</ele>
        <time>2024-03-10T11:02:04Z</time>
      </trkpt>
      <trkpt lat="49.20697" lon="-0.06721">
        <ele>8.9</ele>
        <time>2024-03-10T11:02:05Z</time>
      </trkpt>
      <trkpt lat="49.20703" lon="-0.06728">
        <ele>8.9</ele>
        <time>2024-03-10T11:02:06Z</time>
      </trkpt>
      <trkpt lat="49.20709" lon="-0.06734">
        <ele>8.9</ele>
        <time>2024-03-10T11:02:07Z</time>
      </trkpt>
      <trkpt lat="49.20716" lon="-0.06741">
        <ele>8.9</ele>
        <time>2024-03-10T11:02:08Z</time>
      </trkpt>
      <trkpt lat="49.20722" lon="-0.06748">
        <ele>8.8</ele>
        <time>2024-03-10T11:02:09Z</time>
      </trkpt>
      <trkpt lat="49.20728" lon="-0.06755">
        <ele>8.8</ele>
        <time>2024-03-10T11:02:10Z</time>
      </trkpt>
      <trkpt lat="49.20735" lon="-0.06762">
        <ele>8.8</ele>
        <time>2024-03-10T11:02:11Z</time>
      </trkpt>
      <trkpt lat="49.20741" lon="-0.06769">
        <ele>8.8</ele>
        <time>2024-03-10T11:02:12Z</time>
      </trkpt>
      <trkpt lat="49.20747" lon="-0.06777">
        <ele>8.7</ele>
        <time>2024-03-10T11:02:13Z</time>
      </trkpt>
      <trkpt lat="49.20753" lon="-0.06783">
        <ele>8.7</ele>
        <time>2024-03-10T11:02:14Z</time>
      </trkpt>
      <trkpt lat="49.2076" lon="-0.0679">
        <ele>8.7</ele>
        <time>2024-03-10T11:02:15Z</time>
      </trkpt>
      <trkpt lat="49.20766" lon="-0.06797">
        <ele>8.6</ele>
        <time>2024-03-10T11:02:16Z</time>
      </trkpt>
      <trkpt lat="49.20773" lon="-0.06803">
        <ele>8.6</ele>
        <time>2024-03-10T11:02:17Z</time>
      </trkpt>
      <trkpt lat="49.2078" lon="-0.0681">
        <ele>8.6</ele>
        <time>2024-03-10T11:02:18Z</time>
      </trkpt>
      <trkpt lat="49.20787" lon="-0.06815">
        <ele>8.5</ele>
        <time>2024-03-10T11:02:19Z</time>
      </trkpt>
      <trkpt lat="49.20794" lon="-0.0682">
        <ele>8.5</ele>
        <time>2024-03-10T11:02:20Z</time>
      </trkpt>
      <trkpt lat="49.20802" lon="-0.06824">
        <ele>8.5</ele>
        <time>2024-03-10T11:02:21Z</time>
      </trkpt>
      <trkpt lat="49.20809" lon="-0.06827">
        <ele>8.4</ele>
        <time>2024-03-10T11:02:22Z</time>
      </trkpt>
      <trkpt lat="49.20816" lon="-0.0683">
        <ele>8.4</ele>
        <time>2024-03-10T11:02:23Z</time>
      </trkpt>
      <trkpt lat="49.20824" lon="-0.06832">
        <ele>8.4</ele>
        <time>2024-03-10T11:02:24Z</time>
      </trkpt>
      <trkpt lat="49.20831" lon="-0.06833">
        <ele>8.3</ele>
        <time>2024-03-10T11:02:25Z</time>
      </trkpt>
      <trkpt lat="49.20838" lon="-0.06835">
        <ele>8.3</ele>
        <time>2024-03-10T11:02:26Z</time>
      </trkpt>
      <trkpt lat="49.20845" lon="-0.06836">
        <ele>8.3</ele>
        <time>2024-03-10T11:02:27Z</time>
      </trkpt>
      <trkpt lat="49.20853" lon="-0.06837">
        <ele>8.3</ele>
        <time>2024-03-10T11:02:28Z</time>
      </trkpt>
      <trkpt lat="49.2086" lon="-0.06838">
        <ele>8.2</ele>
        <time>2024-03-10T11:02:29Z</time>
      </trkpt>
      <trkpt lat="49.20867" lon="-0.06839">
        <ele>8.2</ele>
        <time>2024-03-10T11:02:30Z</time>
      </trkpt>
      <trkpt lat="49.20874" lon="-0.06842">
        <ele>8.2</ele>
        <time>2024-03-10T11:02:31Z</time>
      </trkpt>
      <trkpt lat="49.2088" lon="-0.06844">
        <ele>8.2</ele>
        <time>2024-03-10T11:02:32Z</time>
      </trkpt>
      <trkpt lat="49.20887" lon="-0.06847">
        <ele>8.2</ele>
        <time>2024-03-10T11:02:33Z</time>
      </trkpt>
      <trkpt lat="49.20894" lon="-0.06851">
        <ele>8.2</ele>
        <time>2024-03-10T11:02:34Z</time>
      </trkpt>
      <trkpt lat="49.20901" lon="-0.06856">
        <ele>8.2</ele>
        <time>2024-03-10T11:02:35Z</time>
      </trkpt>
      <trkpt lat="49.20908" lon="-0.06858">
        <ele>8.2</ele>
        <time>2024-03-10T11:02:36Z</time>
      </trkpt>
      <trkpt lat="49.20916" lon="-0.0686">
        <ele>8.3</ele>
        <time>2024-03-10T11:02:37Z</time>
      </trkpt>
      <trkpt lat="49.20923" lon="-0.0686">
        <ele>8.3</ele>
        <time>2024-03-10T11:02:38Z</time>
      </trkpt>
      <trkpt lat="49.20931" lon="-0.06861">
        <ele>8.3</ele>
        <time>2024-03-10T11:02:39Z</time>
      </trkpt>
      <trkpt lat="49.20939" lon="-0.06861">
        <ele>8.3</ele>
        <time>2024-03-10T11:02:40Z</time>
      </trkpt>
      <trkpt lat="49.20946" lon="-0.06861">
        <ele>8.3</ele>
        <time>2024-03-10T11:02:41Z</time>
      </trkpt>
      <trkpt lat="49.20954" lon="-0.06861">
        <ele>8.3</ele>
        <time>2024-03-10T11:02:42Z</time>
      </trkpt>
      <trkpt lat="49.20962" lon="-0.0686">
        <ele>8.3</ele>
        <time>2024-03-10T11:02:43Z</time>
      </trkpt>
      <trkpt lat="49.20969" lon="-0.0686">
        <ele>8.3</ele>
        <time>2024-03-10T11:02:44Z</time>
      </trkpt>
      <trkpt lat="49.20977" lon="-0.0686">
        <ele>8.3</ele>
        <time>2024-03-10T11:02:45Z</time>
      </trkpt>
      <trkpt lat="49.20984" lon="-0.06859">
        <ele>8.4</ele>
        <time>2024-03-10T11:02:46Z</time>
      </trkpt>
      <trkpt lat="49.2099" lon="-0.06858">
        <ele>8.4</ele>
        <time>2024-03-10T11:02:47Z</time>
      </trkpt>
      <trkpt lat="49.20997" lon="-0.06857">
        <ele>8.4</ele>
        <time>2024-03-10T11:02:48Z</time>
      </trkpt>
      <trkpt lat="49.21004" lon="-0.06857">
        <ele>8.5</ele>
        <time>2024-03-10T11:02:49Z</time>
      </trkpt>
      <trkpt lat="49.21011" lon="-0.06856">
        <ele>8.5</ele>
        <time>2024-03-10T11:02:50Z</time>
      </trkpt>
      <trkpt lat="49.21019" lon="-0.06855">
        <ele>8.5</ele>
        <time>2024-03-10T11:02:51Z</time>
      </trkpt>
      <trkpt lat="49.21027" lon="-0.06854">
        <ele>8.6</ele>
        <time>2024-03-10T11:02:52Z</time>
      </trkpt>
      <trkpt lat="49.21034" lon="-0.06853">
        <ele>8.6</ele>
        <time>2024-03-10T11:02:53Z</time>
      </trkpt>
      <trkpt lat="49.21042" lon="-0.06852">
        <ele>8.6</ele>
        <time>2024-03-10T11:02:54Z</time>
      </trkpt>
      <trkpt lat="49.21049" lon="-0.06851">
        <ele>8.6</ele>
        <time>2024-03-10T11:02:55Z</time>
      </trkpt>
      <trkpt lat="49.21057" lon="-0.06851">
        <ele>8.6</ele>
        <time>2024-03-10T11:02:56Z</time>
      </trkpt>
      <trkpt lat="49.21065" lon="-0.06851">
        <ele>8.7</ele>
        <time>2024-03-10T11:02:57Z</time>
      </trkpt>
      <trkpt lat="49.21073" lon="-0.0685">
        <ele>8.7</ele>
        <time>2024-03-10T11:02:58Z</time>
      </trkpt>
      <trkpt lat="49.2108" lon="-0.06851">
        <ele>8.8</ele>
        <time>2024-03-10T11:02:59Z</time>
      </trkpt>
      <trkpt lat="49.21088" lon="-0.06852">
        <ele>8.8</ele>
        <time>2024-03-10T11:03:00Z</time>
      </trkpt>
      <trkpt lat="49.21095" lon="-0.06854">
        <ele>8.8</ele>
        <time>2024-03-10T11:03:01Z</time>
      </trkpt>
      <trkpt lat="49.21102" lon="-0.06855">
        <ele>8.8</ele>
        <time>2024-03-10T11:03:02Z</time>
      </trkpt>
      <trkpt lat="49.21109" lon="-0.06858">
        <ele>8.9</ele>
        <time>2024-03-10T11:03:03Z</time>
      </trkpt>
      <trkpt lat="49.21116" lon="-0.0686">
        <ele>8.9</ele>
        <time>2024-03-10T11:03:04Z</time>
      </trkpt>
      <trkpt lat="49.21123" lon="-0.06861">
        <ele>8.9</ele>
        <time>2024-03-10T11:03:05Z</time>
      </trkpt>
      <trkpt lat="49.2113" lon="-0.06861">
        <ele>8.9</ele>
        <time>2024-03-10T11:03:06Z</time>
      </trkpt>
      <trkpt lat="49.21138" lon="-0.06862">
        <ele>8.9</ele>
        <time>2024-03-10T11:03:07Z</time>
      </trkpt>
      <trkpt lat="49.21145" lon="-0.06862">
        <ele>8.9</ele>
        <time>2024-03-10T11:03:08Z</time>
      </trkpt>
      <trkpt lat="49.21153" lon="-0.06863">
        <ele>8.9</ele>
        <time>2024-03-10T11:03:09Z</time>
      </trkpt>
      <trkpt lat="49.2116" lon="-0.06864">
        <ele>9</ele>
        <time>2024-03-10T11:03:10Z</time>
      </trkpt>
      <trkpt lat="49.21167" lon="-0.06865">
        <ele>9.1</ele>
        <time>2024-03-10T11:03:11Z</time>
      </trkpt>
      <trkpt lat="49.21174" lon="-0.06866">
        <ele>9.2</ele>
        <time>2024-03-10T11:03:12Z</time>
      </trkpt>
      <trkpt lat="49.21181" lon="-0.06867">
        <ele>9.3</ele>
        <time>2024-03-10T11:03:13Z</time>
      </trkpt>
      <trkpt lat="49.21188" lon="-0.06868">
        <ele>9.4</ele>
        <time>2024-03-10T11:03:14Z</time>
      </trkpt>
      <trkpt lat="49.21194" lon="-0.06869">
        <ele>9.5</ele>
        <time>2024-03-10T11:03:15Z</time>
      </trkpt>
      <trkpt lat="49.21201" lon="-0.0687">
        <ele>9.6</ele>
        <time>2024-03-10T11:03:16Z</time>
      </trkpt>
      <trkpt lat="49.21208" lon="-0.06871">
        <ele>9.7</ele>
        <time>2024-03-10T11:03:17Z</time>
      </trkpt>
      <trkpt lat="49.21215" lon="-0.06873">
        <ele>9.8</ele>
        <time>2024-03-10T11:03:18Z</time>
      </trkpt>
      <trkpt lat="49.21222" lon="-0.06874">
        <ele>9.9</ele>
        <time>2024-03-10T11:03:19Z</time>
      </trkpt>
      <trkpt lat="49.21229" lon="-0.06875">
        <ele>10.1</ele>
        <time>2024-03-10T11:03:20Z</time>
      </trkpt>
      <trkpt lat="49.21236" lon="-0.06875">
        <ele>10.2</ele>
        <time>2024-03-10T11:03:21Z</time>
      </trkpt>
      <trkpt lat="49.21243" lon="-0.06876">
        <ele>10.4</ele>
        <time>2024-03-10T11:03:22Z</time>
      </trkpt>
      <trkpt lat="49.21251" lon="-0.06877">
        <ele>10.6</ele>
        <time>2024-03-10T11:03:23Z</time>
      </trkpt>
      <trkpt lat="49.21257" lon="-0.06877">
        <ele>10.8</ele>
        <time>2024-03-10T11:03:24Z</time>
      </trkpt>
      <trkpt lat="49.21263" lon="-0.06878">
        <ele>11</ele>
        <time>2024-03-10T11:03:25Z</time>
      </trkpt>
      <trkpt lat="49.2127" lon="-0.06878">
        <ele>11.2</ele>
        <time>2024-03-10T11:03:26Z</time>
      </trkpt>
      <trkpt lat="49.21276" lon="-0.06879">
        <ele>11.4</ele>
        <time>2024-03-10T11:03:27Z</time>
      </trkpt>
      <trkpt lat="49.21282" lon="-0.0688">
        <ele>11.6</ele>
        <time>2024-03-10T11:03:28Z</time>
      </trkpt>
      <trkpt lat="49.21288" lon="-0.06881">
        <ele>11.7</ele>
        <time>2024-03-10T11:03:29Z</time>
      </trkpt>
      <trkpt lat="49.21293" lon="-0.06882">
        <ele>11.9</ele>
        <time>2024-03-10T11:03:30Z</time>
      </trkpt>
      <trkpt lat="49.21299" lon="-0.06883">
        <ele>12.1</ele>
        <time>2024-03-10T11:03:31Z</time>
      </trkpt>
      <trkpt lat="49.21305" lon="-0.06884">
        <ele>12.3</ele>
        <time>2024-03-10T11:03:32Z</time>
      </trkpt>
      <trkpt lat="49.21312" lon="-0.06885">
        <ele>12.5</ele>
        <time>2024-03-10T11:03:33Z</time>
      </trkpt>
      <trkpt lat="49.21318" lon="-0.06886">
        <ele>12.7</ele>
        <time>2024-03-10T11:03:34Z</time>
      </trkpt>
      <trkpt lat="49.21325" lon="-0.06887">
        <ele>13</ele>
        <time>2024-03-10T11:03:35Z</time>
      </trkpt>
      <trkpt lat="49.21331" lon="-0.06888">
        <ele>13.2</ele>
        <time>2024-03-10T11:03:36Z</time>
      </trkpt>
      <trkpt lat="49.21338" lon="-0.0689">
        <ele>13.5</ele>
        <time>2024-03-10T11:03:37Z</time>
      </trkpt>
      <trkpt lat="49.21344" lon="-0.06891">
        <ele>13.7</ele>
        <time>2024-03-10T11:03:38Z</time>
      </trkpt>
      <trkpt lat="49.21351" lon="-0.06892">
        <ele>13.9</ele>
        <time>2024-03-10T11:03:39Z</time>
      </trkpt>
      <trkpt lat="49.21358" lon="-0.06893">
        <ele>14</ele>
        <time>2024-03-10T11:03:40Z</time>
      </trkpt>
      <trkpt lat="49.21364" lon="-0.06894">
        <ele>14.2</ele>
        <time>2024-03-10T11:03:41Z</time>
      </trkpt>
      <trkpt lat="49.21371" lon="-0.06895">
        <ele>14.3</ele>
        <time>2024-03-10T11:03:42Z</time>
      </trkpt>
      <trkpt lat="49.21377" lon="-0.06896">
        <ele>14.4</ele>
        <time>2024-03-10T11:03:43Z</time>
      </trkpt>
      <trkpt lat="49.21384" lon="-0.06896">
        <ele>14.4</ele>
        <time>2024-03-10T11:03:44Z</time>
      </trkpt>
      <trkpt lat="49.21391" lon="-0.06896">
        <ele>14.4</ele>
        <time>2024-03-10T11:03:45Z</time>
      </trkpt>
      <trkpt lat="49.21398" lon="-0.06895">
        <ele>14.4</ele>
        <time>2024-03-10T11:03:46Z</time>
      </trkpt>
      <trkpt lat="49.21405" lon="-0.06894">
        <ele>14.3</ele>
        <time>2024-03-10T11:03:47Z</time>
      </trkpt>
      <trkpt lat="49.21412" lon="-0.06893">
        <ele>14.2</ele>
        <time>2024-03-10T11:03:48Z</time>
      </trkpt>
      <trkpt lat="49.2142" lon="-0.06892">
        <ele>14.1</ele>
        <time>2024-03-10T11:03:49Z</time>
      </trkpt>
      <trkpt lat="49.21427" lon="-0.06891">
        <ele>14</ele>
        <time>2024-03-10T11:03:50Z</time>
      </trkpt>
      <trkpt lat="49.21435" lon="-0.06889">
        <ele>14</ele>
        <time>2024-03-10T11:03:51Z</time>
      </trkpt>
      <trkpt lat="49.21442" lon="-0.06887">
        <ele>14</ele>
        <time>2024-03-10T11:03:52Z</time>
      </trkpt>
      <trkpt lat="49.2145" lon="-0.06886">
        <ele>13.9</ele>
        <time>2024-03-10T11:03:53Z</time>
      </trkpt>
      <trkpt lat="49.21458" lon="-0.06886">
        <ele>13.9</ele>
        <time>2024-03-10T11:03:54Z</time>
      </trkpt>
      <trkpt lat="49.21465" lon="-0.06886">
        <ele>13.8</ele>
        <time>2024-03-10T11:03:55Z</time>
      </trkpt>
      <trkpt lat="49.21473" lon="-0.06886">
        <ele>13.8</ele>
        <time>2024-03-10T11:03:56Z</time>
      </trkpt>
      <trkpt lat="49.2148" lon="-0.06885">
        <ele>13.8</ele>
        <time>2024-03-10T11:03:57Z</time>
      </trkpt>
      <trkpt lat="49.21487" lon="-0.06883">
        <ele>13.9</ele>
        <time>2024-03-10T11:03:58Z</time>
      </trkpt>
      <trkpt lat="49.21494" lon="-0.06882">
        <ele>14</ele>
        <time>2024-03-10T11:03:59Z</time>
      </trkpt>
      <trkpt lat="49.21501" lon="-0.06881">
        <ele>14.1</ele>
        <time>2024-03-10T11:04:00Z</time>
      </trkpt>
      <trkpt lat="49.21508" lon="-0.0688">
        <ele>14.3</ele>
        <time>2024-03-10T11:04:01Z</time>
      </trkpt>
      <trkpt lat="49.21515" lon="-0.0688">
        <ele>14.4</ele>
        <time>2024-03-10T11:04:02Z</time>
      </trkpt>
      <trkpt lat="49.21523" lon="-0.06879">
        <ele>14.6</ele>
        <time>2024-03-10T11:04:03Z</time>
      </trkpt>
      <trkpt lat="49.21529" lon="-0.06878">
        <ele>14.8</ele>
        <time>2024-03-10T11:04:04Z</time>
      </trkpt>
      <trkpt lat="49.21535" lon="-0.06877">
        <ele>15</ele>
        <time>2024-03-10T11:04:05Z</time>
      </trkpt>
      <trkpt lat="49.21541" lon="-0.06877">
        <ele>15.3</ele>
        <time>2024-03-10T11:04:06Z</time>
      </trkpt>
      <trkpt lat="49.21548" lon="-0.06876">
        <ele>15.5</ele>
        <time>2024-03-10T11:04:07Z</time>
      </trkpt>
      <trkpt lat="49.21553" lon="-0.06876">
        <ele>15.8</ele>
        <time>2024-03-10T11:04:08Z</time>
      </trkpt>
      <trkpt lat="49.21559" lon="-0.06876">
        <ele>16.1</ele>
        <time>2024-03-10T11:04:09Z</time>
      </trkpt>
      <trkpt lat="49.21565" lon="-0.06874">
        <ele>16.4</ele>
        <time>2024-03-10T11:04:10Z</time>
      </trkpt>
      <trkpt lat="49.21571" lon="-0.06873">
        <ele>16.7</ele>
        <time>2024-03-10T11:04:11Z</time>
      </trkpt>
      <trkpt lat="49.21576" lon="-0.06873">
        <ele>17</ele>
        <time>2024-03-10T11:04:12Z</time>
      </trkpt>
      <trkpt lat="49.21582" lon="-0.06872">
        <ele>17.3</ele>
        <time>2024-03-10T11:04:13Z</time>
      </trkpt>
      <trkpt lat="49.21588" lon="-0.06871">
        <ele>17.6</ele>
        <time>2024-03-10T11:04:14Z</time>
      </trkpt>
      <trkpt lat="49.21593" lon="-0.0687">
        <ele>18</ele>
        <time>2024-03-10T11:04:15Z</time>
      </trkpt>
      <trkpt lat="49.21599" lon="-0.0687">
        <ele>18.2</ele>
        <time>2024-03-10T11:04:16Z</time>
      </trkpt>
      <trkpt lat="49.21604" lon="-0.06868">
        <ele>18.5</ele>
        <time>2024-03-10T11:04:17Z</time>
      </trkpt>
      <trkpt lat="49.21609" lon="-0.06868">
        <ele>18.8</ele>
        <time>2024-03-10T11:04:18Z</time>
      </trkpt>
      <trkpt lat="49.21614" lon="-0.06866">
        <ele>19.1</ele>
        <time>2024-03-10T11:04:19Z</time>
      </trkpt>
      <trkpt lat="49.21618" lon="-0.06864">
        <ele>19.4</ele>
        <time>2024-03-10T11:04:20Z</time>
      </trkpt>
      <trkpt lat="49.21622" lon="-0.06862">
        <ele>19.7</ele>
        <time>2024-03-10T11:04:21Z</time>
      </trkpt>
      <trkpt lat="49.21626" lon="-0.0686">
        <ele>20</ele>
        <time>2024-03-10T11:04:22Z</time>
      </trkpt>
      <trkpt lat="49.2163" lon="-0.06858">
        <ele>20.2</ele>
        <time>2024-03-10T11:04:23Z</time>
      </trkpt>
      <trkpt lat="49.21633" lon="-0.06855">
        <ele>20.5</ele>
        <time>2024-03-10T11:04:24Z</time>
      </trkpt>
      <trkpt lat="49.21636" lon="-0.06852">
        <ele>20.9</ele>
        <time>2024-03-10T11:04:25Z</time>
      </trkpt>
      <trkpt lat="49.21639" lon="-0.06848">
        <ele>21.3</ele>
        <time>2024-03-10T11:04:26Z</time>
      </trkpt>
      <trkpt lat="49.21642" lon="-0.06845">
        <ele>21.7</ele>
        <time>2024-03-10T11:04:27Z</time>
      </trkpt>
      <trkpt lat="49.21645" lon="-0.06841">
        <ele>22</ele>
        <time>2024-03-10T11:04:28Z</time>
      </trkpt>
      <trkpt lat="49.21648" lon="-0.06837">
        <ele>22.4</ele>
        <time>2024-03-10T11:04:29Z</time>
      </trkpt>
      <trkpt lat="49.2165" lon="-0.06833">
        <ele>22.8</ele>
        <time>2024-03-10T11:04:30Z</time>
      </trkpt>
      <trkpt lat="49.21652" lon="-0.06828">
        <ele>23.1</ele>
        <time>2024-03-10T11:04:31Z</time>
      </trkpt>
      <trkpt lat="49.21655" lon="-0.06823">
        <ele>23.4</ele>
        <time>2024-03-10T11:04:32Z</time>
      </trkpt>
      <trkpt lat="49.21657" lon="-0.06818">
        <ele>23.8</ele>
        <time>2024-03-10T11:04:33Z</time>
      </trkpt>
      <trkpt lat="49.21658" lon="-0.06813">
        <ele>24.1</ele>
        <time>2024-03-10T11:04:34Z</time>
      </trkpt>
      <trkpt lat="49.2166" lon="-0.06808">
        <ele>24.4</ele>
        <time>2024-03-10T11:04:35Z</time>
      </trkpt>
      <trkpt lat="49.21662" lon="-0.06802">
        <ele>24.8</ele>
        <time>2024-03-10T11:04:36Z</time>
      </trkpt>
      <trkpt lat="49.21664" lon="-0.06797">
        <ele>25.1</ele>
        <time>2024-03-10T11:04:37Z</time>
      </trkpt>
      <trkpt lat="49.21666" lon="-0.06791">
        <ele>25.5</ele>
        <time>2024-03-10T11:04:38Z</time>
      </trkpt>
      <trkpt lat="49.21668" lon="-0.06785">
        <ele>25.9</ele>
        <time>2024-03-10T11:04:39Z</time>
      </trkpt>
      <trkpt lat="49.2167" lon="-0.0678">
        <ele>26.2</ele>
        <time>2024-03-10T11:04:40Z</time>
      </trkpt>
      <trkpt lat="49.21673" lon="-0.06774">
        <ele>26.6</ele>
        <time>2024-03-10T11:04:41Z</time>
      </trkpt>
      <trkpt lat="49.21677" lon="-0.0677">
        <ele>26.9</ele>
        <time>2024-03-10T11:04:42Z</time>
      </trkpt>
      <trkpt lat="49.21682" lon="-0.06768">
        <ele>27.3</ele>
        <time>2024-03-10T11:04:43Z</time>
      </trkpt>
      <trkpt lat="49.21687" lon="-0.06766">
        <ele>27.6</ele>
        <time>2024-03-10T11:04:44Z</time>
      </trkpt>
      <trkpt lat="49.21693" lon="-0.06765">
        <ele>27.9</ele>
        <time>2024-03-10T11:04:45Z</time>
      </trkpt>
      <trkpt lat="49.21698" lon="-0.06764">
        <ele>28.2</ele>
        <time>2024-03-10T11:04:46Z</time>
      </trkpt>
      <trkpt lat="49.21703" lon="-0.06764">
        <ele>28.5</ele>
        <time>2024-03-10T11:04:47Z</time>
      </trkpt>
      <trkpt lat="49.21709" lon="-0.06764">
        <ele>28.7</ele>
        <time>2024-03-10T11:04:48Z</time>
      </trkpt>
      <trkpt lat="49.21714" lon="-0.06764">
        <ele>28.9</ele>
        <time>2024-03-10T11:04:49Z</time>
      </trkpt>
      <trkpt lat="49.21718" lon="-0.06765">
        <ele>28.9</ele>
        <time>2024-03-10T11:04:50Z</time>
      </trkpt>
      <trkpt lat="49.21723" lon="-0.06766">
        <ele>28.9</ele>
        <time>2024-03-10T11:04:51Z</time>
      </trkpt>
      <trkpt lat="49.21729" lon="-0.06766">
        <ele>28.9</ele>
        <time>2024-03-10T11:04:52Z</time>
      </trkpt>
      <trkpt lat="49.21734" lon="-0.06766">
        <ele>28.9</ele>
        <time>2024-03-10T11:04:53Z</time>
      </trkpt>
      <trkpt lat="49.2174" lon="-0.06766">
        <ele>28.9</ele>
        <time>2024-03-10T11:04:54Z</time>
      </trkpt>
      <trkpt lat="49.21746" lon="-0.06767">
        <ele>28.9</ele>
        <time>2024-03-10T11:04:55Z</time>
      </trkpt>
      <trkpt lat="49.21752" lon="-0.06768">
        <ele>28.9</ele>
        <time>2024-03-10T11:04:56Z</time>
      </trkpt>
      <trkpt lat="49.21759" lon="-0.06768">
        <ele>28.9</ele>
        <time>2024-03-10T11:04:57Z</time>
      </trkpt>
      <trkpt lat="49.21765" lon="-0.06769">
        <ele>28.9</ele>
        <time>2024-03-10T11:04:58Z</time>
      </trkpt>
      <trkpt lat="49.21772" lon="-0.06769">
        <ele>28.8</ele>
        <time>2024-03-10T11:04:59Z</time>
      </trkpt>
      <trkpt lat="49.21778" lon="-0.06769">
        <ele>28.7</ele>
        <time>2024-03-10T11:05:00Z</time>
      </trkpt>
      <trkpt lat="49.21785" lon="-0.06769">
        <ele>28.6</ele>
        <time>2024-03-10T11:05:01Z</time>
      </trkpt>
      <trkpt lat="49.21791" lon="-0.06769">
        <ele>28.5</ele>
        <time>2024-03-10T11:05:02Z</time>
      </trkpt>
      <trkpt lat="49.21798" lon="-0.0677">
        <ele>28.4</ele>
        <time>2024-03-10T11:05:03Z</time>
      </trkpt>
      <trkpt lat="49.21805" lon="-0.0677">
        <ele>28.3</ele>
        <time>2024-03-10T11:05:04Z</time>
      </trkpt>
      <trkpt lat="49.21812" lon="-0.06771">
        <ele>28.2</ele>
        <time>2024-03-10T11:05:05Z</time>
      </trkpt>
      <trkpt lat="49.21819" lon="-0.06773">
        <ele>28.1</ele>
        <time>2024-03-10T11:05:06Z</time>
      </trkpt>
      <trkpt lat="49.21826" lon="-0.06777">
        <ele>27.9</ele>
        <time>2024-03-10T11:05:07Z</time>
      </trkpt>
      <trkpt lat="49.21833" lon="-0.06782">
        <ele>27.8</ele>
        <time>2024-03-10T11:05:08Z</time>
      </trkpt>
      <trkpt lat="49.2184" lon="-0.0679">
        <ele>27.6</ele>
        <time>2024-03-10T11:05:09Z</time>
      </trkpt>
      <trkpt lat="49.21846" lon="-0.06799">
        <ele>27.4</ele>
        <time>2024-03-10T11:05:10Z</time>
      </trkpt>
      <trkpt lat="49.21852" lon="-0.06809">
        <ele>27.1</ele>
        <time>2024-03-10T11:05:11Z</time>
      </trkpt>
      <trkpt lat="49.21858" lon="-0.06819">
        <ele>26.8</ele>
        <time>2024-03-10T11:05:12Z</time>
      </trkpt>
      <trkpt lat="49.21864" lon="-0.06828">
        <ele>26.5</ele>
        <time>2024-03-10T11:05:13Z</time>
      </trkpt>
      <trkpt lat="49.2187" lon="-0.06838">
        <ele>26.2</ele>
        <time>2024-03-10T11:05:14Z</time>
      </trkpt>
      <trkpt lat="49.21876" lon="-0.06848">
        <ele>25.9</ele>
        <time>2024-03-10T11:05:15Z</time>
      </trkpt>
      <trkpt lat="49.21883" lon="-0.06858">
        <ele>25.5</ele>
        <time>2024-03-10T11:05:16Z</time>
      </trkpt>
      <trkpt lat="49.2189" lon="-0.06866">
        <ele>25.2</ele>
        <time>2024-03-10T11:05:17Z</time>
      </trkpt>
      <trkpt lat="49.21897" lon="-0.06873">
        <ele>24.8</ele>
        <time>2024-03-10T11:05:18Z</time>
      </trkpt>
      <trkpt lat="49.21905" lon="-0.0688">
        <ele>24.5</ele>
        <time>2024-03-10T11:05:19Z</time>
      </trkpt>
      <trkpt lat="49.21913" lon="-0.06885">
        <ele>24.2</ele>
        <time>2024-03-10T11:05:20Z</time>
      </trkpt>
      <trkpt lat="49.21923" lon="-0.06888">
        <ele>23.8</ele>
        <time>2024-03-10T11:05:21Z</time>
      </trkpt>
      <trkpt lat="49.21934" lon="-0.06889">
        <ele>23.2</ele>
        <time>2024-03-10T11:05:22Z</time>
      </trkpt>
      <trkpt lat="49.21944" lon="-0.06889">
        <ele>22.7</ele>
        <time>2024-03-10T11:05:23Z</time>
      </trkpt>
      <trkpt lat="49.21955" lon="-0.06887">
        <ele>22.1</ele>
        <time>2024-03-10T11:05:24Z</time>
      </trkpt>
      <trkpt lat="49.21965" lon="-0.06886">
        <ele>21.6</ele>
        <time>2024-03-10T11:05:25Z</time>
      </trkpt>
      <trkpt lat="49.21975" lon="-0.06884">
        <ele>21.1</ele>
        <time>2024-03-10T11:05:26Z</time>
      </trkpt>
      <trkpt lat="49.21985" lon="-0.06883">
        <ele>20.6</ele>
        <time>2024-03-10T11:05:27Z</time>
      </trkpt>
      <trkpt lat="49.21995" lon="-0.06881">
        <ele>20.1</ele>
        <time>2024-03-10T11:05:28Z</time>
      </trkpt>
      <trkpt lat="49.22006" lon="-0.06879">
        <ele>19.6</ele>
        <time>2024-03-10T11:05:29Z</time>
      </trkpt>
      <trkpt lat="49.22016" lon="-0.06877">
        <ele>19</ele>
        <time>2024-03-10T11:05:30Z</time>
      </trkpt>
      <trkpt lat="49.22026" lon="-0.06875">
        <ele>18.6</ele>
        <time>2024-03-10T11:05:31Z</time>
      </trkpt>
      <trkpt lat="49.22036" lon="-0.06871">
        <ele>18</ele>
        <time>2024-03-10T11:05:32Z</time>
      </trkpt>
      <trkpt lat="49.22047" lon="-0.06868">
        <ele>17.5</ele>
        <time>2024-03-10T11:05:33Z</time>
      </trkpt>
      <trkpt lat="49.22057" lon="-0.06866">
        <ele>17</ele>
        <time>2024-03-10T11:05:34Z</time>
      </trkpt>
      <trkpt lat="49.22068" lon="-0.06865">
        <ele>16.5</ele>
        <time>2024-03-10T11:05:35Z</time>
      </trkpt>
      <trkpt lat="49.22079" lon="-0.06863">
        <ele>16.1</ele>
        <time>2024-03-10T11:05:36Z</time>
      </trkpt>
      <trkpt lat="49.22089" lon="-0.06861">
        <ele>15.6</ele>
        <time>2024-03-10T11:05:37Z</time>
      </trkpt>
      <trkpt lat="49.22099" lon="-0.06859">
        <ele>15.2</ele>
        <time>2024-03-10T11:05:38Z</time>
      </trkpt>
      <trkpt lat="49.2211" lon="-0.06857">
        <ele>14.7</ele>
        <time>2024-03-10T11:05:39Z</time>
      </trkpt>
      <trkpt lat="49.22121" lon="-0.06855">
        <ele>14.3</ele>
        <time>2024-03-10T11:05:40Z</time>
      </trkpt>
      <trkpt lat="49.22131" lon="-0.06853">
        <ele>13.9</ele>
        <time>2024-03-10T11:05:41Z</time>
      </trkpt>
      <trkpt lat="49.22142" lon="-0.06851">
        <ele>13.4</ele>
        <time>2024-03-10T11:05:42Z</time>
      </trkpt>
      <trkpt lat="49.22153" lon="-0.06849">
        <ele>13.1</ele>
        <time>2024-03-10T11:05:43Z</time>
      </trkpt>
      <trkpt lat="49.22164" lon="-0.06848">
        <ele>12.8</ele>
        <time>2024-03-10T11:05:44Z</time>
      </trkpt>
      <trkpt lat="49.22174" lon="-0.06846">
        <ele>12.6</ele>
        <time>2024-03-10T11:05:45Z</time>
      </trkpt>
      <trkpt lat="49.22184" lon="-0.06845">
        <ele>12.4</ele>
        <time>2024-03-10T11:05:46Z</time>
      </trkpt>
      <trkpt lat="49.22194" lon="-0.06845">
        <ele>12.3</ele>
        <time>2024-03-10T11:05:47Z</time>
      </trkpt>
      <trkpt lat="49.22204" lon="-0.06845">
        <ele>12.3</ele>
        <time>2024-03-10T11:05:48Z</time>
      </trkpt>
      <trkpt lat="49.22214" lon="-0.06846">
        <ele>12.3</ele>
        <time>2024-03-10T11:05:49Z</time>
      </trkpt>
      <trkpt lat="49.22223" lon="-0.06846">
        <ele>12.3</ele>
        <time>2024-03-10T11:05:50Z</time>
      </trkpt>
      <trkpt lat="49.22233" lon="-0.06846">
        <ele>12.3</ele>
        <time>2024-03-10T11:05:51Z</time>
      </trkpt>
      <trkpt lat="49.22243" lon="-0.06846">
        <ele>12.4</ele>
        <time>2024-03-10T11:05:52Z</time>
      </trkpt>
      <trkpt lat="49.22252" lon="-0.06846">
        <ele>12.5</ele>
        <time>2024-03-10T11:05:53Z</time>
      </trkpt>
      <trkpt lat="49.22262" lon="-0.06846">
        <ele>12.7</ele>
        <time>2024-03-10T11:05:54Z</time>
      </trkpt>
      <trkpt lat="49.22271" lon="-0.06846">
        <ele>12.9</ele>
        <time>2024-03-10T11:05:55Z</time>
      </trkpt>
      <trkpt lat="49.2228" lon="-0.06846">
        <ele>13</ele>
        <time>2024-03-10T11:05:56Z</time>
      </trkpt>
      <trkpt lat="49.22289" lon="-0.06846">
        <ele>13.2</ele>
        <time>2024-03-10T11:05:57Z</time>
      </trkpt>
      <trkpt lat="49.22298" lon="-0.06846">
        <ele>13.4</ele>
        <time>2024-03-10T11:05:58Z</time>
      </trkpt>
      <trkpt lat="49.22306" lon="-0.06846">
        <ele>13.5</ele>
        <time>2024-03-10T11:05:59Z</time>
      </trkpt>
      <trkpt lat="49.22315" lon="-0.06846">
        <ele>13.7</ele>
        <time>2024-03-10T11:06:00Z</time>
      </trkpt>
      <trkpt lat="49.22323" lon="-0.06846">
        <ele>13.9</ele>
        <time>2024-03-10T11:06:01Z</time>
      </trkpt>
      <trkpt lat="49.22331" lon="-0.06847">
        <ele>14</ele>
        <time>2024-03-10T11:06:02Z</time>
      </trkpt>
      <trkpt lat="49.22339" lon="-0.06846">
        <ele>14.2</ele>
        <time>2024-03-10T11:06:03Z</time>
      </trkpt>
      <trkpt lat="49.22347" lon="-0.06847">
        <ele>14.3</ele>
        <time>2024-03-10T11:06:04Z</time>
      </trkpt>
      <trkpt lat="49.22355" lon="-0.06847">
        <ele>14.5</ele>
        <time>2024-03-10T11:06:05Z</time>
      </trkpt>
      <trkpt lat="49.22362" lon="-0.06847">
        <ele>14.6</ele>
        <time>2024-03-10T11:06:06Z</time>
      </trkpt>
      <trkpt lat="49.2237" lon="-0.06848">
        <ele>14.8</ele>
        <time>2024-03-10T11:06:07Z</time>
      </trkpt>
      <trkpt lat="49.22377" lon="-0.06848">
        <ele>15</ele>
        <time>2024-03-10T11:06:08Z</time>
      </trkpt>
      <trkpt lat="49.22384" lon="-0.06848">
        <ele>15.2</ele>
        <time>2024-03-10T11:06:09Z</time>
      </trkpt>
      <trkpt lat="49.22391" lon="-0.06848">
        <ele>15.3</ele>
        <time>2024-03-10T11:06:10Z</time>
      </trkpt>
      <trkpt lat="49.22397" lon="-0.06848">
        <ele>15.3</ele>
        <time>2024-03-10T11:06:11Z</time>
      </trkpt>
      <trkpt lat="49.22403" lon="-0.06848">
        <ele>15.4</ele>
        <time>2024-03-10T11:06:12Z</time>
      </trkpt>
      <trkpt lat="49.22409" lon="-0.06848">
        <ele>15.5</ele>
        <time>2024-03-10T11:06:13Z</time>
      </trkpt>
      <trkpt lat="49.22413" lon="-0.06847">
        <ele>15.6</ele>
        <time>2024-03-10T11:06:14Z</time>
      </trkpt>
      <trkpt lat="49.22418" lon="-0.06847">
        <ele>15.7</ele>
        <time>2024-03-10T11:06:15Z</time>
      </trkpt>
      <trkpt lat="49.22422" lon="-0.06846">
        <ele>15.8</ele>
        <time>2024-03-10T11:06:16Z</time>
      </trkpt>
      <trkpt lat="49.22426" lon="-0.06846">
        <ele>15.9</ele>
        <time>2024-03-10T11:06:17Z</time>
      </trkpt>
      <trkpt lat="49.22429" lon="-0.06845">
        <ele>16</ele>
        <time>2024-03-10T11:06:18Z</time>
      </trkpt>
      <trkpt lat="49.22432" lon="-0.06845">
        <ele>16.1</ele>
        <time>2024-03-10T11:06:19Z</time>
      </trkpt>
      <trkpt lat="49.22435" lon="-0.06845">
        <ele>16.2</ele>
        <time>2024-03-10T11:06:20Z</time>
      </trkpt>
      <trkpt lat="49.22437" lon="-0.06846">
        <ele>16.3</ele>
        <time>2024-03-10T11:06:21Z</time>
      </trkpt>
      <trkpt lat="49.22438" lon="-0.06845">
        <ele>16.3</ele>
        <time>2024-03-10T11:06:22Z</time>
      </trkpt>
      <trkpt lat="49.22438" lon="-0.06845">
        <ele>16.4</ele>
        <time>2024-03-10T11:06:23Z</time>
      </trkpt>
      <trkpt lat="49.22438" lon="-0.06845">
        <ele>16.4</ele>
        <time>2024-03-10T11:06:24Z</time>
      </trkpt>
      <trkpt lat="49.22439" lon="-0.06845">
        <ele>16.4</ele>
        <time>2024-03-10T11:06:25Z</time>
      </trkpt>
      <trkpt lat="49.22439" lon="-0.06845">
        <ele>16.4</ele>
        <time>2024-03-10T11:06:26Z</time>
      </trkpt>
      <trkpt lat="49.22439" lon="-0.06845">
        <ele>16.4</ele>
        <time>2024-03-10T11:06:27Z</time>
      </trkpt>
      <trkpt lat="49.22439" lon="-0.06845">
        <ele>16.4</ele>
        <time>2024-03-10T11:06:28Z</time>
      </trkpt>
      <trkpt lat="49.2244" lon="-0.06845">
        <ele>16.4</ele>
        <time>2024-03-10T11:06:29Z</time>
      </trkpt>
      <trkpt lat="49.2244" lon="-0.06845">
        <ele>16.4</ele>
        <time>2024-03-10T11:06:30Z</time>
      </trkpt>
      <trkpt lat="49.2244" lon="-0.06846">
        <ele>16.4</ele>
        <time>2024-03-10T11:06:31Z</time>
      </trkpt>
      <trkpt lat="49.22441" lon="-0.06846">
        <ele>16.5</ele>
        <time>2024-03-10T11:06:32Z</time>
      </trkpt>
      <trkpt lat="49.22441" lon="-0.06846">
        <ele>16.5</ele>
        <time>2024-03-10T11:06:33Z</time>
      </trkpt>
      <trkpt lat="49.22441" lon="-0.06846">
        <ele>16.5</ele>
        <time>2024-03-10T11:06:34Z</time>
      </trkpt>
      <trkpt lat="49.22442" lon="-0.06846">
        <ele>16.5</ele>
        <time>2024-03-10T11:06:35Z</time>
      </trkpt>
      <trkpt lat="49.22442" lon="-0.06846">
        <ele>16.5</ele>
        <time>2024-03-10T11:06:36Z</time>
      </trkpt>
      <trkpt lat="49.22442" lon="-0.06846">
        <ele>16.5</ele>
        <time>2024-03-10T11:06:37Z</time>
      </trkpt>
      <trkpt lat="49.22442" lon="-0.06846">
        <ele>16.5</ele>
        <time>2024-03-10T11:06:38Z</time>
      </trkpt>
      <trkpt lat="49.22446" lon="-0.06845">
        <ele>16.6</ele>
        <time>2024-03-10T11:06:39Z</time>
      </trkpt>
      <trkpt lat="49.22448" lon="-0.06844">
        <ele>16.6</ele>
        <time>2024-03-10T11:06:40Z</time>
      </trkpt>
      <trkpt lat="49.22451" lon="-0.06845">
        <ele>16.6</ele>
        <time>2024-03-10T11:06:41Z</time>
      </trkpt>
      <trkpt lat="49.22455" lon="-0.06846">
        <ele>16.6</ele>
        <time>2024-03-10T11:06:42Z</time>
      </trkpt>
      <trkpt lat="49.22459" lon="-0.06847">
        <ele>16.5</ele>
        <time>2024-03-10T11:06:43Z</time>
      </trkpt>
      <trkpt lat="49.22464" lon="-0.06849">
        <ele>16.4</ele>
        <time>2024-03-10T11:06:44Z</time>
      </trkpt>
      <trkpt lat="49.22468" lon="-0.06853">
        <ele>16.4</ele>
        <time>2024-03-10T11:06:45Z</time>
      </trkpt>
      <trkpt lat="49.22473" lon="-0.06855">
        <ele>16.3</ele>
        <time>2024-03-10T11:06:46Z</time>
      </trkpt>
      <trkpt lat="49.22478" lon="-0.06856">
        <ele>16.2</ele>
        <time>2024-03-10T11:06:47Z</time>
      </trkpt>
      <trkpt lat="49.22483" lon="-0.06857">
        <ele>16.2</ele>
        <time>2024-03-10T11:06:48Z</time>
      </trkpt>
      <trkpt lat="49.22489" lon="-0.06859">
        <ele>16.2</ele>
        <time>2024-03-10T11:06:49Z</time>
      </trkpt>
      <trkpt lat="49.22494" lon="-0.0686">
        <ele>16.2</ele>
        <time>2024-03-10T11:06:50Z</time>
      </trkpt>
      <trkpt lat="49.225" lon="-0.06862">
        <ele>16.2</ele>
        <time>2024-03-10T11:06:51Z</time>
      </trkpt>
      <trkpt lat="49.22506" lon="-0.06863">
        <ele>16.3</ele>
        <time>2024-03-10T11:06:52Z</time>
      </trkpt>
      <trkpt lat="49.22511" lon="-0.06864">
        <ele>16.3</ele>
        <time>2024-03-10T11:06:53Z</time>
      </trkpt>
      <trkpt lat="49.22517" lon="-0.06865">
        <ele>16.4</ele>
        <time>2024-03-10T11:06:54Z</time>
      </trkpt>
      <trkpt lat="49.22523" lon="-0.06867">
        <ele>16.5</ele>
        <time>2024-03-10T11:06:55Z</time>
      </trkpt>
      <trkpt lat="49.22529" lon="-0.06869">
        <ele>16.6</ele>
        <time>2024-03-10T11:06:56Z</time>
      </trkpt>
      <trkpt lat="49.22535" lon="-0.0687">
        <ele>16.7</ele>
        <time>2024-03-10T11:06:57Z</time>
      </trkpt>
      <trkpt lat="49.2254" lon="-0.06871">
        <ele>16.9</ele>
        <time>2024-03-10T11:06:58Z</time>
      </trkpt>
      <trkpt lat="49.22546" lon="-0.06872">
        <ele>17</ele>
        <time>2024-03-10T11:06:59Z</time>
      </trkpt>
      <trkpt lat="49.22552" lon="-0.06873">
        <ele>17.2</ele>
        <time>2024-03-10T11:07:00Z</time>
      </trkpt>
      <trkpt lat="49.22557" lon="-0.06875">
        <ele>17.4</ele>
        <time>2024-03-10T11:07:01Z</time>
      </trkpt>
      <trkpt lat="49.22563" lon="-0.06877">
        <ele>17.6</ele>
        <time>2024-03-10T11:07:02Z</time>
      </trkpt>
      <trkpt lat="49.22569" lon="-0.06878">
        <ele>17.8</ele>
        <time>2024-03-10T11:07:03Z</time>
      </trkpt>
      <trkpt lat="49.22575" lon="-0.06879">
        <ele>18</ele>
        <time>2024-03-10T11:07:04Z</time>
      </trkpt>
      <trkpt lat="49.22581" lon="-0.06881">
        <ele>18.2</ele>
        <time>2024-03-10T11:07:05Z</time>
      </trkpt>
      <trkpt lat="49.22587" lon="-0.06882">
        <ele>18.4</ele>
        <time>2024-03-10T11:07:06Z</time>
      </trkpt>
      <trkpt lat="49.22592" lon="-0.06883">
        <ele>18.6</ele>
        <time>2024-03-10T11:07:07Z</time>
      </trkpt>
      <trkpt lat="49.22598" lon="-0.06884">
        <ele>18.8</ele>
        <time>2024-03-10T11:07:08Z</time>
      </trkpt>
      <trkpt lat="49.22604" lon="-0.06885">
        <ele>19</ele>
        <time>2024-03-10T11:07:09Z</time>
      </trkpt>
      <trkpt lat="49.2261" lon="-0.06887">
        <ele>19.2</ele>
        <time>2024-03-10T11:07:10Z</time>
      </trkpt>
      <trkpt lat="49.22615" lon="-0.06889">
        <ele>19.5</ele>
        <time>2024-03-10T11:07:11Z</time>
      </trkpt>
      <trkpt lat="49.22621" lon="-0.0689">
        <ele>19.7</ele>
        <time>2024-03-10T11:07:12Z</time>
      </trkpt>
      <trkpt lat="49.22627" lon="-0.06892">
        <ele>19.9</ele>
        <time>2024-03-10T11:07:13Z</time>
      </trkpt>
      <trkpt lat="49.22632" lon="-0.06893">
        <ele>20.1</ele>
        <time>2024-03-10T11:07:14Z</time>
      </trkpt>
      <trkpt lat="49.22638" lon="-0.06894">
        <ele>20.4</ele>
        <time>2024-03-10T11:07:15Z</time>
      </trkpt>
      <trkpt lat="49.22644" lon="-0.06894">
        <ele>20.6</ele>
        <time>2024-03-10T11:07:16Z</time>
      </trkpt>
      <trkpt lat="49.22649" lon="-0.06894">
        <ele>20.8</ele>
        <time>2024-03-10T11:07:17Z</time>
      </trkpt>
      <trkpt lat="49.22654" lon="-0.06894">
        <ele>21</ele>
        <time>2024-03-10T11:07:18Z</time>
      </trkpt>
      <trkpt lat="49.22659" lon="-0.06895">
        <ele>21.2</ele>
        <time>2024-03-10T11:07:19Z</time>
      </trkpt>
      <trkpt lat="49.22665" lon="-0.06896">
        <ele>21.4</ele>
        <time>2024-03-10T11:07:20Z</time>
      </trkpt>
      <trkpt lat="49.22671" lon="-0.06898">
        <ele>21.6</ele>
        <time>2024-03-10T11:07:21Z</time>
      </trkpt>
      <trkpt lat="49.22677" lon="-0.06899">
        <ele>21.8</ele>
        <time>2024-03-10T11:07:22Z</time>
      </trkpt>
      <trkpt lat="49.22683" lon="-0.06901">
        <ele>22</ele>
        <time>2024-03-10T11:07:23Z</time>
      </trkpt>
      <trkpt lat="49.22688" lon="-0.06902">
        <ele>22.1</ele>
        <time>2024-03-10T11:07:24Z</time>
      </trkpt>
      <trkpt lat="49.22694" lon="-0.06903">
        <ele>22.3</ele>
        <time>2024-03-10T11:07:25Z</time>
      </trkpt>
      <trkpt lat="49.227" lon="-0.06905">
        <ele>22.5</ele>
        <time>2024-03-10T11:07:26Z</time>
      </trkpt>
      <trkpt lat="49.22705" lon="-0.06906">
        <ele>22.6</ele>
        <time>2024-03-10T11:07:27Z</time>
      </trkpt>
      <trkpt lat="49.22711" lon="-0.06907">
        <ele>22.7</ele>
        <time>2024-03-10T11:07:28Z</time>
      </trkpt>
      <trkpt lat="49.22717" lon="-0.06908">
        <ele>22.8</ele>
        <time>2024-03-10T11:07:29Z</time>
      </trkpt>
      <trkpt lat="49.22723" lon="-0.06909">
        <ele>22.9</ele>
        <time>2024-03-10T11:07:30Z</time>
      </trkpt>
      <trkpt lat="49.22729" lon="-0.06911">
        <ele>23</ele>
        <time>2024-03-10T11:07:31Z</time>
      </trkpt>
      <trkpt lat="49.22735" lon="-0.06912">
        <ele>23.2</ele>
        <time>2024-03-10T11:07:32Z</time>
      </trkpt>
      <trkpt lat="49.22741" lon="-0.06913">
        <ele>23.3</ele>
        <time>2024-03-10T11:07:33Z</time>
      </trkpt>
      <trkpt lat="49.22747" lon="-0.06914">
        <ele>23.4</ele>
        <time>2024-03-10T11:07:34Z</time>
      </trkpt>
      <trkpt lat="49.22753" lon="-0.06916">
        <ele>23.5</ele>
        <time>2024-03-10T11:07:35Z</time>
      </trkpt>
      <trkpt lat="49.22759" lon="-0.06917">
        <ele>23.5</ele>
        <time>2024-03-10T11:07:36Z</time>
      </trkpt>
      <trkpt lat="49.22765" lon="-0.06918">
        <ele>23.6</ele>
        <time>2024-03-10T11:07:37Z</time>
      </trkpt>
      <trkpt lat="49.22772" lon="-0.06919">
        <ele>23.6</ele>
        <time>2024-03-10T11:07:38Z</time>
      </trkpt>
      <trkpt lat="49.22778" lon="-0.0692">
        <ele>23.6</ele>
        <time>2024-03-10T11:07:39Z</time>
      </trkpt>
      <trkpt lat="49.22784" lon="-0.06921">
        <ele>23.5</ele>
        <time>2024-03-10T11:07:40Z</time>
      </trkpt>
      <trkpt lat="49.2279" lon="-0.06922">
        <ele>23.5</ele>
        <time>2024-03-10T11:07:41Z</time>
      </trkpt>
      <trkpt lat="49.22797" lon="-0.06924">
        <ele>23.4</ele>
        <time>2024-03-10T11:07:42Z</time>
      </trkpt>
      <trkpt lat="49.22803" lon="-0.06926">
        <ele>23.3</ele>
        <time>2024-03-10T11:07:43Z</time>
      </trkpt>
      <trkpt lat="49.2281" lon="-0.06928">
        <ele>23.2</ele>
        <time>2024-03-10T11:07:44Z</time>
      </trkpt>
      <trkpt lat="49.22817" lon="-0.06929">
        <ele>22.9</ele>
        <time>2024-03-10T11:07:45Z</time>
      </trkpt>
      <trkpt lat="49.22824" lon="-0.06931">
        <ele>22.7</ele>
        <time>2024-03-10T11:07:46Z</time>
      </trkpt>
      <trkpt lat="49.22832" lon="-0.06933">
        <ele>22.5</ele>
        <time>2024-03-10T11:07:47Z</time>
      </trkpt>
      <trkpt lat="49.22839" lon="-0.06934">
        <ele>22.2</ele>
        <time>2024-03-10T11:07:48Z</time>
      </trkpt>
      <trkpt lat="49.22847" lon="-0.06936">
        <ele>21.9</ele>
        <time>2024-03-10T11:07:49Z</time>
      </trkpt>
      <trkpt lat="49.22854" lon="-0.06937">
        <ele>21.7</ele>
        <time>2024-03-10T11:07:50Z</time>
      </trkpt>
      <trkpt lat="49.22862" lon="-0.06937">
        <ele>21.4</ele>
        <time>2024-03-10T11:07:51Z</time>
      </trkpt>
      <trkpt lat="49.2287" lon="-0.06936">
        <ele>21.1</ele>
        <time>2024-03-10T11:07:52Z</time>
      </trkpt>
      <trkpt lat="49.22879" lon="-0.06935">
        <ele>20.8</ele>
        <time>2024-03-10T11:07:53Z</time>
      </trkpt>
      <trkpt lat="49.22887" lon="-0.06932">
        <ele>20.5</ele>
        <time>2024-03-10T11:07:54Z</time>
      </trkpt>
      <trkpt lat="49.22895" lon="-0.06927">
        <ele>20.2</ele>
        <time>2024-03-10T11:07:55Z</time>
      </trkpt>
      <trkpt lat="49.22902" lon="-0.06921">
        <ele>19.9</ele>
        <time>2024-03-10T11:07:56Z</time>
      </trkpt>
      <trkpt lat="49.22909" lon="-0.06914">
        <ele>19.7</ele>
        <time>2024-03-10T11:07:57Z</time>
      </trkpt>
      <trkpt lat="49.22915" lon="-0.06905">
        <ele>19.4</ele>
        <time>2024-03-10T11:07:58Z</time>
      </trkpt>
      <trkpt lat="49.2292" lon="-0.06895">
        <ele>19.2</ele>
        <time>2024-03-10T11:07:59Z</time>
      </trkpt>
      <trkpt lat="49.22924" lon="-0.06883">
        <ele>19</ele>
        <time>2024-03-10T11:08:00Z</time>
      </trkpt>
      <trkpt lat="49.22928" lon="-0.0687">
        <ele>18.8</ele>
        <time>2024-03-10T11:08:01Z</time>
      </trkpt>
      <trkpt lat="49.22931" lon="-0.06858">
        <ele>18.6</ele>
        <time>2024-03-10T11:08:02Z</time>
      </trkpt>
      <trkpt lat="49.22934" lon="-0.06846">
        <ele>18.4</ele>
        <time>2024-03-10T11:08:03Z</time>
      </trkpt>
      <trkpt lat="49.22936" lon="-0.06835">
        <ele>18.2</ele>
        <time>2024-03-10T11:08:04Z</time>
      </trkpt>
      <trkpt lat="49.2294" lon="-0.06824">
        <ele>18</ele>
        <time>2024-03-10T11:08:05Z</time>
      </trkpt>
      <trkpt lat="49.22944" lon="-0.06813">
        <ele>17.7</ele>
        <time>2024-03-10T11:08:06Z</time>
      </trkpt>
      <trkpt lat="49.22948" lon="-0.06803">
        <ele>17.5</ele>
        <time>2024-03-10T11:08:07Z</time>
      </trkpt>
      <trkpt lat="49.22953" lon="-0.06793">
        <ele>17.3</ele>
        <time>2024-03-10T11:08:08Z</time>
      </trkpt>
      <trkpt lat="49.22959" lon="-0.06785">
        <ele>17</ele>
        <time>2024-03-10T11:08:09Z</time>
      </trkpt>
      <trkpt lat="49.22966" lon="-0.06778">
        <ele>16.8</ele>
        <time>2024-03-10T11:08:10Z</time>
      </trkpt>
      <trkpt lat="49.22973" lon="-0.06771">
        <ele>16.5</ele>
        <time>2024-03-10T11:08:11Z</time>
      </trkpt>
      <trkpt lat="49.2298" lon="-0.06765">
        <ele>16.2</ele>
        <time>2024-03-10T11:08:12Z</time>
      </trkpt>
      <trkpt lat="49.22987" lon="-0.06759">
        <ele>16</ele>
        <time>2024-03-10T11:08:13Z</time>
      </trkpt>
      <trkpt lat="49.22995" lon="-0.06755">
        <ele>15.8</ele>
        <time>2024-03-10T11:08:14Z</time>
      </trkpt>
      <trkpt lat="49.23003" lon="-0.06751">
        <ele>15.5</ele>
        <time>2024-03-10T11:08:15Z</time>
      </trkpt>
      <trkpt lat="49.23011" lon="-0.06749">
        <ele>15.3</ele>
        <time>2024-03-10T11:08:16Z</time>
      </trkpt>
      <trkpt lat="49.23019" lon="-0.06748">
        <ele>15</ele>
        <time>2024-03-10T11:08:17Z</time>
      </trkpt>
      <trkpt lat="49.23028" lon="-0.06749">
        <ele>14.7</ele>
        <time>2024-03-10T11:08:18Z</time>
      </trkpt>
      <trkpt lat="49.23037" lon="-0.0675">
        <ele>14.4</ele>
        <time>2024-03-10T11:08:19Z</time>
      </trkpt>
      <trkpt lat="49.23045" lon="-0.06753">
        <ele>14.2</ele>
        <time>2024-03-10T11:08:20Z</time>
      </trkpt>
      <trkpt lat="49.23054" lon="-0.06757">
        <ele>13.9</ele>
        <time>2024-03-10T11:08:21Z</time>
      </trkpt>
      <trkpt lat="49.23063" lon="-0.06761">
        <ele>13.5</ele>
        <time>2024-03-10T11:08:22Z</time>
      </trkpt>
      <trkpt lat="49.23071" lon="-0.06765">
        <ele>13.2</ele>
        <time>2024-03-10T11:08:23Z</time>
      </trkpt>
      <trkpt lat="49.2308" lon="-0.06769">
        <ele>12.9</ele>
        <time>2024-03-10T11:08:24Z</time>
      </trkpt>
      <trkpt lat="49.23089" lon="-0.06774">
        <ele>12.6</ele>
        <time>2024-03-10T11:08:25Z</time>
      </trkpt>
      <trkpt lat="49.23098" lon="-0.06778">
        <ele>12.3</ele>
        <time>2024-03-10T11:08:26Z</time>
      </trkpt>
      <trkpt lat="49.23107" lon="-0.06783">
        <ele>12.1</ele>
        <time>2024-03-10T11:08:27Z</time>
      </trkpt>
      <trkpt lat="49.23116" lon="-0.06788">
        <ele>11.9</ele>
        <time>2024-03-10T11:08:28Z</time>
      </trkpt>
      <trkpt lat="49.23125" lon="-0.06792">
        <ele>11.8</ele>
        <time>2024-03-10T11:08:29Z</time>
      </trkpt>
      <trkpt lat="49.23171" lon="-0.06815">
        <ele>11.4</ele>
        <time>2024-03-10T11:08:34Z</time>
      </trkpt>
      <trkpt lat="49.23178" lon="-0.06819">
        <ele>11.4</ele>
        <time>2024-03-10T11:08:35Z</time>
      </trkpt>
      <trkpt lat="49.23188" lon="-0.06823">
        <ele>11.4</ele>
        <time>2024-03-10T11:08:36Z</time>
      </trkpt>
      <trkpt lat="49.23196" lon="-0.06827">
        <ele>11.4</ele>
        <time>2024-03-10T11:08:37Z</time>
      </trkpt>
      <trkpt lat="49.23205" lon="-0.06831">
        <ele>11.4</ele>
        <time>2024-03-10T11:08:38Z</time>
      </trkpt>
      <trkpt lat="49.23213" lon="-0.06836">
        <ele>11.3</ele>
        <time>2024-03-10T11:08:39Z</time>
      </trkpt>
      <trkpt lat="49.23221" lon="-0.0684">
        <ele>11.3</ele>
        <time>2024-03-10T11:08:40Z</time>
      </trkpt>
      <trkpt lat="49.23228" lon="-0.06844">
        <ele>11.2</ele>
        <time>2024-03-10T11:08:41Z</time>
      </trkpt>
      <trkpt lat="49.23237" lon="-0.06848">
        <ele>11.2</ele>
        <time>2024-03-10T11:08:42Z</time>
      </trkpt>
      <trkpt lat="49.23244" lon="-0.06851">
        <ele>11.1</ele>
        <time>2024-03-10T11:08:43Z</time>
      </trkpt>
      <trkpt lat="49.23252" lon="-0.06855">
        <ele>11.1</ele>
        <time>2024-03-10T11:08:44Z</time>
      </trkpt>
      <trkpt lat="49.2326" lon="-0.06859">
        <ele>11</ele>
        <time>2024-03-10T11:08:45Z</time>
      </trkpt>
      <trkpt lat="49.23268" lon="-0.06863">
        <ele>11</ele>
        <time>2024-03-10T11:08:46Z</time>
      </trkpt>
      <trkpt lat="49.23275" lon="-0.06866">
        <ele>10.9</ele>
        <time>2024-03-10T11:08:47Z</time>
      </trkpt>
      <trkpt lat="49.23283" lon="-0.06871">
        <ele>10.8</ele>
        <time>2024-03-10T11:08:48Z</time>
      </trkpt>
      <trkpt lat="49.2329" lon="-0.06875">
        <ele>10.8</ele>
        <time>2024-03-10T11:08:49Z</time>
      </trkpt>
      <trkpt lat="49.23298" lon="-0.06879">
        <ele>10.7</ele>
        <time>2024-03-10T11:08:50Z</time>
      </trkpt>
      <trkpt lat="49.23305" lon="-0.06883">
        <ele>10.6</ele>
        <time>2024-03-10T11:08:51Z</time>
      </trkpt>
      <trkpt lat="49.23313" lon="-0.06887">
        <ele>10.5</ele>
        <time>2024-03-10T11:08:52Z</time>
      </trkpt>
      <trkpt lat="49.23321" lon="-0.06891">
        <ele>10.3</ele>
        <time>2024-03-10T11:08:53Z</time>
      </trkpt>
      <trkpt lat="49.23329" lon="-0.06896">
        <ele>10.2</ele>
        <time>2024-03-10T11:08:54Z</time>
      </trkpt>
      <trkpt lat="49.23337" lon="-0.069">
        <ele>10</ele>
        <time>2024-03-10T11:08:55Z</time>
      </trkpt>
      <trkpt lat="49.23345" lon="-0.06905">
        <ele>9.8</ele>
        <time>2024-03-10T11:08:56Z</time>
      </trkpt>
      <trkpt lat="49.23353" lon="-0.06909">
        <ele>9.7</ele>
        <time>2024-03-10T11:08:57Z</time>
      </trkpt>
      <trkpt lat="49.23361" lon="-0.06914">
        <ele>9.5</ele>
        <time>2024-03-10T11:08:58Z</time>
      </trkpt>
      <trkpt lat="49.23369" lon="-0.06919">
        <ele>9.3</ele>
        <time>2024-03-10T11:08:59Z</time>
      </trkpt>
      <trkpt lat="49.23377" lon="-0.06923">
        <ele>9.2</ele>
        <time>2024-03-10T11:09:00Z</time>
      </trkpt>
      <trkpt lat="49.23385" lon="-0.06927">
        <ele>9</ele>
        <time>2024-03-10T11:09:01Z</time>
      </trkpt>
      <trkpt lat="49.23393" lon="-0.06931">
        <ele>8.8</ele>
        <time>2024-03-10T11:09:02Z</time>
      </trkpt>
      <trkpt lat="49.23401" lon="-0.06936">
        <ele>8.6</ele>
        <time>2024-03-10T11:09:03Z</time>
      </trkpt>
      <trkpt lat="49.23409" lon="-0.0694">
        <ele>8.5</ele>
        <time>2024-03-10T11:09:04Z</time>
      </trkpt>
      <trkpt lat="49.23417" lon="-0.06944">
        <ele>8.3</ele>
        <time>2024-03-10T11:09:05Z</time>
      </trkpt>
      <trkpt lat="49.23426" lon="-0.06948">
        <ele>8.2</ele>
        <time>2024-03-10T11:09:06Z</time>
      </trkpt>
      <trkpt lat="49.23435" lon="-0.06953">
        <ele>8</ele>
        <time>2024-03-10T11:09:07Z</time>
      </trkpt>
      <trkpt lat="49.23444" lon="-0.06958">
        <ele>7.9</ele>
        <time>2024-03-10T11:09:08Z</time>
      </trkpt>
      <trkpt lat="49.23453" lon="-0.06964">
        <ele>7.8</ele>
        <time>2024-03-10T11:09:09Z</time>
      </trkpt>
      <trkpt lat="49.23462" lon="-0.06969">
        <ele>7.7</ele>
        <time>2024-03-10T11:09:10Z</time>
      </trkpt>
      <trkpt lat="49.23471" lon="-0.06974">
        <ele>7.6</ele>
        <time>2024-03-10T11:09:11Z</time>
      </trkpt>
      <trkpt lat="49.2348" lon="-0.0698">
        <ele>7.6</ele>
        <time>2024-03-10T11:09:12Z</time>
      </trkpt>
      <trkpt lat="49.23489" lon="-0.06985">
        <ele>7.5</ele>
        <time>2024-03-10T11:09:13Z</time>
      </trkpt>
      <trkpt lat="49.23497" lon="-0.06991">
        <ele>7.5</ele>
        <time>2024-03-10T11:09:14Z</time>
      </trkpt>
      <trkpt lat="49.23505" lon="-0.06996">
        <ele>7.5</ele>
        <time>2024-03-10T11:09:15Z</time>
      </trkpt>
      <trkpt lat="49.23514" lon="-0.07002">
        <ele>7.5</ele>
        <time>2024-03-10T11:09:16Z</time>
      </trkpt>
      <trkpt lat="49.23522" lon="-0.07008">
        <ele>7.5</ele>
        <time>2024-03-10T11:09:17Z</time>
      </trkpt>
      <trkpt lat="49.2353" lon="-0.07013">
        <ele>7.5</ele>
        <time>2024-03-10T11:09:18Z</time>
      </trkpt>
      <trkpt lat="49.23537" lon="-0.07018">
        <ele>7.4</ele>
        <time>2024-03-10T11:09:19Z</time>
      </trkpt>
      <trkpt lat="49.23545" lon="-0.07023">
        <ele>7.4</ele>
        <time>2024-03-10T11:09:20Z</time>
      </trkpt>
      <trkpt lat="49.23553" lon="-0.07028">
        <ele>7.4</ele>
        <time>2024-03-10T11:09:21Z</time>
      </trkpt>
      <trkpt lat="49.23561" lon="-0.07033">
        <ele>7.4</ele>
        <time>2024-03-10T11:09:22Z</time>
      </trkpt>
      <trkpt lat="49.23569" lon="-0.07038">
        <ele>7.4</ele>
        <time>2024-03-10T11:09:23Z</time>
      </trkpt>
      <trkpt lat="49.23577" lon="-0.07043">
        <ele>7.4</ele>
        <time>2024-03-10T11:09:24Z</time>
      </trkpt>
      <trkpt lat="49.23585" lon="-0.07048">
        <ele>7.4</ele>
        <time>2024-03-10T11:09:25Z</time>
      </trkpt>
      <trkpt lat="49.23592" lon="-0.07053">
        <ele>7.4</ele>
        <time>2024-03-10T11:09:26Z</time>
      </trkpt>
      <trkpt lat="49.236" lon="-0.07058">
        <ele>7.4</ele>
        <time>2024-03-10T11:09:27Z</time>
      </trkpt>
      <trkpt lat="49.23608" lon="-0.07063">
        <ele>7.4</ele>
        <time>2024-03-10T11:09:28Z</time>
      </trkpt>
      <trkpt lat="49.23615" lon="-0.07069">
        <ele>7.4</ele>
        <time>2024-03-10T11:09:29Z</time>
      </trkpt>
      <trkpt lat="49.23622" lon="-0.07075">
        <ele>7.4</ele>
        <time>2024-03-10T11:09:30Z</time>
      </trkpt>
      <trkpt lat="49.23629" lon="-0.07081">
        <ele>7.4</ele>
        <time>2024-03-10T11:09:31Z</time>
      </trkpt>
      <trkpt lat="49.23636" lon="-0.07088">
        <ele>7.4</ele>
        <time>2024-03-10T11:09:32Z</time>
      </trkpt>
      <trkpt lat="49.23642" lon="-0.07095">
        <ele>7.4</ele>
        <time>2024-03-10T11:09:33Z</time>
      </trkpt>
      <trkpt lat="49.23648" lon="-0.07103">
        <ele>7.4</ele>
        <time>2024-03-10T11:09:34Z</time>
      </trkpt>
      <trkpt lat="49.23654" lon="-0.07111">
        <ele>7.4</ele>
        <time>2024-03-10T11:09:35Z</time>
      </trkpt>
      <trkpt lat="49.23659" lon="-0.0712">
        <ele>7.4</ele>
        <time>2024-03-10T11:09:36Z</time>
      </trkpt>
      <trkpt lat="49.23664" lon="-0.07128">
        <ele>7.4</ele>
        <time>2024-03-10T11:09:37Z</time>
      </trkpt>
      <trkpt lat="49.23669" lon="-0.07137">
        <ele>7.5</ele>
        <time>2024-03-10T11:09:38Z</time>
      </trkpt>
      <trkpt lat="49.23674" lon="-0.07146">
        <ele>7.5</ele>
        <time>2024-03-10T11:09:39Z</time>
      </trkpt>
      <trkpt lat="49.23679" lon="-0.07155">
        <ele>7.5</ele>
        <time>2024-03-10T11:09:40Z</time>
      </trkpt>
      <trkpt lat="49.23683" lon="-0.07164">
        <ele>7.5</ele>
        <time>2024-03-10T11:09:41Z</time>
      </trkpt>
      <trkpt lat="49.23686" lon="-0.07175">
        <ele>7.5</ele>
        <time>2024-03-10T11:09:42Z</time>
      </trkpt>
      <trkpt lat="49.23688" lon="-0.07186">
        <ele>7.5</ele>
        <time>2024-03-10T11:09:43Z</time>
      </trkpt>
      <trkpt lat="49.23691" lon="-0.07197">
        <ele>7.5</ele>
        <time>2024-03-10T11:09:44Z</time>
      </trkpt>
      <trkpt lat="49.23693" lon="-0.07209">
        <ele>7.5</ele>
        <time>2024-03-10T11:09:45Z</time>
      </trkpt>
      <trkpt lat="49.23694" lon="-0.0722">
        <ele>7.5</ele>
        <time>2024-03-10T11:09:46Z</time>
      </trkpt>
      <trkpt lat="49.23696" lon="-0.07232">
        <ele>7.5</ele>
        <time>2024-03-10T11:09:47Z</time>
      </trkpt>
      <trkpt lat="49.23697" lon="-0.07243">
        <ele>7.5</ele>
        <time>2024-03-10T11:09:48Z</time>
      </trkpt>
      <trkpt lat="49.23698" lon="-0.07255">
        <ele>7.5</ele>
        <time>2024-03-10T11:09:49Z</time>
      </trkpt>
      <trkpt lat="49.23698" lon="-0.07267">
        <ele>7.4</ele>
        <time>2024-03-10T11:09:50Z</time>
      </trkpt>
      <trkpt lat="49.23699" lon="-0.07279">
        <ele>7.4</ele>
        <time>2024-03-10T11:09:51Z</time>
      </trkpt>
      <trkpt lat="49.23701" lon="-0.07291">
        <ele>7.4</ele>
        <time>2024-03-10T11:09:52Z</time>
      </trkpt>
      <trkpt lat="49.23702" lon="-0.07302">
        <ele>7.4</ele>
        <time>2024-03-10T11:09:53Z</time>
      </trkpt>
      <trkpt lat="49.23704" lon="-0.07313">
        <ele>7.4</ele>
        <time>2024-03-10T11:09:54Z</time>
      </trkpt>
      <trkpt lat="49.23706" lon="-0.07324">
        <ele>7.4</ele>
        <time>2024-03-10T11:09:55Z</time>
      </trkpt>
      <trkpt lat="49.23708" lon="-0.07335">
        <ele>7.4</ele>
        <time>2024-03-10T11:09:56Z</time>
      </trkpt>
      <trkpt lat="49.2371" lon="-0.07347">
        <ele>7.4</ele>
        <time>2024-03-10T11:09:57Z</time>
      </trkpt>
      <trkpt lat="49.23711" lon="-0.07358">
        <ele>7.4</ele>
        <time>2024-03-10T11:09:58Z</time>
      </trkpt>
      <trkpt lat="49.23713" lon="-0.0737">
        <ele>7.4</ele>
        <time>2024-03-10T11:09:59Z</time>
      </trkpt>
      <trkpt lat="49.23714" lon="-0.07381">
        <ele>7.4</ele>
        <time>2024-03-10T11:10:00Z</time>
      </trkpt>
      <trkpt lat="49.23716" lon="-0.07392">
        <ele>7.4</ele>
        <time>2024-03-10T11:10:01Z</time>
      </trkpt>
      <trkpt lat="49.23716" lon="-0.07403">
        <ele>7.3</ele>
        <time>2024-03-10T11:10:02Z</time>
      </trkpt>
      <trkpt lat="49.23717" lon="-0.07414">
        <ele>7.3</ele>
        <time>2024-03-10T11:10:03Z</time>
      </trkpt>
      <trkpt lat="49.23718" lon="-0.07425">
        <ele>7.3</ele>
        <time>2024-03-10T11:10:04Z</time>
      </trkpt>
      <trkpt lat="49.23719" lon="-0.07436">
        <ele>7.3</ele>
        <time>2024-03-10T11:10:05Z</time>
      </trkpt>
      <trkpt lat="49.2372" lon="-0.07447">
        <ele>7.3</ele>
        <time>2024-03-10T11:10:06Z</time>
      </trkpt>
      <trkpt lat="49.2372" lon="-0.07459">
        <ele>7.3</ele>
        <time>2024-03-10T11:10:07Z</time>
      </trkpt>
      <trkpt lat="49.23721" lon="-0.07471">
        <ele>7.3</ele>
        <time>2024-03-10T11:10:08Z</time>
      </trkpt>
      <trkpt lat="49.2372" lon="-0.07483">
        <ele>7.3</ele>
        <time>2024-03-10T11:10:09Z</time>
      </trkpt>
      <trkpt lat="49.23719" lon="-0.07495">
        <ele>7.3</ele>
        <time>2024-03-10T11:10:10Z</time>
      </trkpt>
      <trkpt lat="49.23717" lon="-0.07506">
        <ele>7.3</ele>
        <time>2024-03-10T11:10:11Z</time>
      </trkpt>
      <trkpt lat="49.23716" lon="-0.07517">
        <ele>7.3</ele>
        <time>2024-03-10T11:10:12Z</time>
      </trkpt>
      <trkpt lat="49.23715" lon="-0.07529">
        <ele>7.3</ele>
        <time>2024-03-10T11:10:13Z</time>
      </trkpt>
      <trkpt lat="49.23714" lon="-0.07541">
        <ele>7.3</ele>
        <time>2024-03-10T11:10:14Z</time>
      </trkpt>
      <trkpt lat="49.23714" lon="-0.07552">
        <ele>7.3</ele>
        <time>2024-03-10T11:10:15Z</time>
      </trkpt>
      <trkpt lat="49.23714" lon="-0.07564">
        <ele>7.4</ele>
        <time>2024-03-10T11:10:16Z</time>
      </trkpt>
      <trkpt lat="49.23715" lon="-0.07576">
        <ele>7.4</ele>
        <time>2024-03-10T11:10:17Z</time>
      </trkpt>
      <trkpt lat="49.23715" lon="-0.07588">
        <ele>7.3</ele>
        <time>2024-03-10T11:10:18Z</time>
      </trkpt>
      <trkpt lat="49.23715" lon="-0.076">
        <ele>7.3</ele>
        <time>2024-03-10T11:10:19Z</time>
      </trkpt>
      <trkpt lat="49.23715" lon="-0.07613">
        <ele>7.3</ele>
        <time>2024-03-10T11:10:20Z</time>
      </trkpt>
      <trkpt lat="49.23715" lon="-0.07625">
        <ele>7.3</ele>
        <time>2024-03-10T11:10:21Z</time>
      </trkpt>
      <trkpt lat="49.23714" lon="-0.07638">
        <ele>7.3</ele>
        <time>2024-03-10T11:10:22Z</time>
      </trkpt>
      <trkpt lat="49.23713" lon="-0.0765">
        <ele>7.3</ele>
        <time>2024-03-10T11:10:23Z</time>
      </trkpt>
      <trkpt lat="49.23712" lon="-0.07663">
        <ele>7.2</ele>
        <time>2024-03-10T11:10:24Z</time>
      </trkpt>
      <trkpt lat="49.23711" lon="-0.07675">
        <ele>7.2</ele>
        <time>2024-03-10T11:10:25Z</time>
      </trkpt>
      <trkpt lat="49.2371" lon="-0.07687">
        <ele>7.2</ele>
        <time>2024-03-10T11:10:26Z</time>
      </trkpt>
      <trkpt lat="49.2371" lon="-0.077">
        <ele>7.2</ele>
        <time>2024-03-10T11:10:27Z</time>
      </trkpt>
      <trkpt lat="49.2371" lon="-0.07712">
        <ele>7.2</ele>
        <time>2024-03-10T11:10:28Z</time>
      </trkpt>
      <trkpt lat="49.2371" lon="-0.07724">
        <ele>7.2</ele>
        <time>2024-03-10T11:10:29Z</time>
      </trkpt>
      <trkpt lat="49.23712" lon="-0.07736">
        <ele>7.2</ele>
        <time>2024-03-10T11:10:30Z</time>
      </trkpt>
      <trkpt lat="49.23715" lon="-0.07748">
        <ele>7.2</ele>
        <time>2024-03-10T11:10:31Z</time>
      </trkpt>
      <trkpt lat="49.23718" lon="-0.07759">
        <ele>7.2</ele>
        <time>2024-03-10T11:10:32Z</time>
      </trkpt>
      <trkpt lat="49.23721" lon="-0.0777">
        <ele>7.1</ele>
        <time>2024-03-10T11:10:33Z</time>
      </trkpt>
      <trkpt lat="49.23724" lon="-0.07781">
        <ele>7.1</ele>
        <time>2024-03-10T11:10:34Z</time>
      </trkpt>
      <trkpt lat="49.23728" lon="-0.07791">
        <ele>7.1</ele>
        <time>2024-03-10T11:10:35Z</time>
      </trkpt>
      <trkpt lat="49.23731" lon="-0.07802">
        <ele>7</ele>
        <time>2024-03-10T11:10:36Z</time>
      </trkpt>
      <trkpt lat="49.23733" lon="-0.07813">
        <ele>7</ele>
        <time>2024-03-10T11:10:37Z</time>
      </trkpt>
      <trkpt lat="49.23735" lon="-0.07825">
        <ele>6.9</ele>
        <time>2024-03-10T11:10:38Z</time>
      </trkpt>
      <trkpt lat="49.23735" lon="-0.07838">
        <ele>6.9</ele>
        <time>2024-03-10T11:10:39Z</time>
      </trkpt>
      <trkpt lat="49.23736" lon="-0.07851">
        <ele>6.8</ele>
        <time>2024-03-10T11:10:40Z</time>
      </trkpt>
      <trkpt lat="49.23735" lon="-0.07864">
        <ele>6.8</ele>
        <time>2024-03-10T11:10:41Z</time>
      </trkpt>
      <trkpt lat="49.23733" lon="-0.07877">
        <ele>6.7</ele>
        <time>2024-03-10T11:10:42Z</time>
      </trkpt>
      <trkpt lat="49.23731" lon="-0.0789">
        <ele>6.7</ele>
        <time>2024-03-10T11:10:43Z</time>
      </trkpt>
      <trkpt lat="49.23729" lon="-0.07903">
        <ele>6.6</ele>
        <time>2024-03-10T11:10:44Z</time>
      </trkpt>
      <trkpt lat="49.23727" lon="-0.07916">
        <ele>6.5</ele>
        <time>2024-03-10T11:10:45Z</time>
      </trkpt>
      <trkpt lat="49.23726" lon="-0.07929">
        <ele>6.5</ele>
        <time>2024-03-10T11:10:46Z</time>
      </trkpt>
      <trkpt lat="49.23724" lon="-0.07942">
        <ele>6.5</ele>
        <time>2024-03-10T11:10:47Z</time>
      </trkpt>
      <trkpt lat="49.23722" lon="-0.07955">
        <ele>6.5</ele>
        <time>2024-03-10T11:10:48Z</time>
      </trkpt>
      <trkpt lat="49.23721" lon="-0.07969">
        <ele>6.5</ele>
        <time>2024-03-10T11:10:49Z</time>
      </trkpt>
      <trkpt lat="49.23719" lon="-0.07982">
        <ele>6.4</ele>
        <time>2024-03-10T11:10:50Z</time>
      </trkpt>
      <trkpt lat="49.23717" lon="-0.07995">
        <ele>6.4</ele>
        <time>2024-03-10T11:10:51Z</time>
      </trkpt>
      <trkpt lat="49.23716" lon="-0.08008">
        <ele>6.4</ele>
        <time>2024-03-10T11:10:52Z</time>
      </trkpt>
      <trkpt lat="49.23715" lon="-0.08021">
        <ele>6.3</ele>
        <time>2024-03-10T11:10:53Z</time>
      </trkpt>
      <trkpt lat="49.23714" lon="-0.08033">
        <ele>6.3</ele>
        <time>2024-03-10T11:10:54Z</time>
      </trkpt>
      <trkpt lat="49.23714" lon="-0.08046">
        <ele>6.3</ele>
        <time>2024-03-10T11:10:55Z</time>
      </trkpt>
      <trkpt lat="49.23716" lon="-0.08058">
        <ele>6.3</ele>
        <time>2024-03-10T11:10:56Z</time>
      </trkpt>
      <trkpt lat="49.2372" lon="-0.08069">
        <ele>6.2</ele>
        <time>2024-03-10T11:10:57Z</time>
      </trkpt>
      <trkpt lat="49.23725" lon="-0.08077">
        <ele>6.2</ele>
        <time>2024-03-10T11:10:58Z</time>
      </trkpt>
      <trkpt lat="49.23731" lon="-0.08085">
        <ele>6.2</ele>
        <time>2024-03-10T11:10:59Z</time>
      </trkpt>
      <trkpt lat="49.23737" lon="-0.08092">
        <ele>6.2</ele>
        <time>2024-03-10T11:11:00Z</time>
      </trkpt>
      <trkpt lat="49.23744" lon="-0.081">
        <ele>6.2</ele>
        <time>2024-03-10T11:11:01Z</time>
      </trkpt>
      <trkpt lat="49.2375" lon="-0.08107">
        <ele>6.2</ele>
        <time>2024-03-10T11:11:02Z</time>
      </trkpt>
      <trkpt lat="49.23757" lon="-0.08114">
        <ele>6.3</ele>
        <time>2024-03-10T11:11:03Z</time>
      </trkpt>
      <trkpt lat="49.23763" lon="-0.08121">
        <ele>6.3</ele>
        <time>2024-03-10T11:11:04Z</time>
      </trkpt>
      <trkpt lat="49.23769" lon="-0.08127">
        <ele>6.4</ele>
        <time>2024-03-10T11:11:05Z</time>
      </trkpt>
      <trkpt lat="49.23776" lon="-0.08134">
        <ele>6.5</ele>
        <time>2024-03-10T11:11:06Z</time>
      </trkpt>
      <trkpt lat="49.23782" lon="-0.08141">
        <ele>6.5</ele>
        <time>2024-03-10T11:11:07Z</time>
      </trkpt>
      <trkpt lat="49.23788" lon="-0.08148">
        <ele>6.6</ele>
        <time>2024-03-10T11:11:08Z</time>
      </trkpt>
      <trkpt lat="49.23795" lon="-0.08155">
        <ele>6.7</ele>
        <time>2024-03-10T11:11:09Z</time>
      </trkpt>
      <trkpt lat="49.238" lon="-0.08162">
        <ele>6.8</ele>
        <time>2024-03-10T11:11:10Z</time>
      </trkpt>
      <trkpt lat="49.23806" lon="-0.0817">
        <ele>6.9</ele>
        <time>2024-03-10T11:11:11Z</time>
      </trkpt>
      <trkpt lat="49.23811" lon="-0.08177">
        <ele>7</ele>
        <time>2024-03-10T11:11:12Z</time>
      </trkpt>
      <trkpt lat="49.23817" lon="-0.08185">
        <ele>7.1</ele>
        <time>2024-03-10T11:11:13Z</time>
      </trkpt>
      <trkpt lat="49.23822" lon="-0.08193">
        <ele>7.2</ele>
        <time>2024-03-10T11:11:14Z</time>
      </trkpt>
      <trkpt lat="49.23828" lon="-0.082">
        <ele>7.4</ele>
        <time>2024-03-10T11:11:15Z</time>
      </trkpt>
      <trkpt lat="49.23834" lon="-0.08208">
        <ele>7.5</ele>
        <time>2024-03-10T11:11:16Z</time>
      </trkpt>
      <trkpt lat="49.23839" lon="-0.08215">
        <ele>7.7</ele>
        <time>2024-03-10T11:11:17Z</time>
      </trkpt>
      <trkpt lat="49.23844" lon="-0.08222">
        <ele>7.8</ele>
        <time>2024-03-10T11:11:18Z</time>
      </trkpt>
      <trkpt lat="49.23849" lon="-0.08229">
        <ele>7.9</ele>
        <time>2024-03-10T11:11:19Z</time>
      </trkpt>
      <trkpt lat="49.23855" lon="-0.08237">
        <ele>8</ele>
        <time>2024-03-10T11:11:20Z</time>
      </trkpt>
      <trkpt lat="49.2386" lon="-0.08244">
        <ele>8.1</ele>
        <time>2024-03-10T11:11:21Z</time>
      </trkpt>
      <trkpt lat="49.23865" lon="-0.08252">
        <ele>8.2</ele>
        <time>2024-03-10T11:11:22Z</time>
      </trkpt>
      <trkpt lat="49.2387" lon="-0.0826">
        <ele>8.2</ele>
        <time>2024-03-10T11:11:23Z</time>
      </trkpt>
      <trkpt lat="49.23874" lon="-0.0827">
        <ele>8.2</ele>
        <time>2024-03-10T11:11:24Z</time>
      </trkpt>
      <trkpt lat="49.23876" lon="-0.08281">
        <ele>8.1</ele>
        <time>2024-03-10T11:11:25Z</time>
      </trkpt>
      <trkpt lat="49.23878" lon="-0.08292">
        <ele>8</ele>
        <time>2024-03-10T11:11:26Z</time>
      </trkpt>
      <trkpt lat="49.23879" lon="-0.08303">
        <ele>8</ele>
        <time>2024-03-10T11:11:27Z</time>
      </trkpt>
      <trkpt lat="49.2388" lon="-0.08314">
        <ele>7.9</ele>
        <time>2024-03-10T11:11:28Z</time>
      </trkpt>
      <trkpt lat="49.23881" lon="-0.08325">
        <ele>7.8</ele>
        <time>2024-03-10T11:11:29Z</time>
      </trkpt>
      <trkpt lat="49.23881" lon="-0.08336">
        <ele>7.8</ele>
        <time>2024-03-10T11:11:30Z</time>
      </trkpt>
      <trkpt lat="49.23881" lon="-0.08348">
        <ele>7.7</ele>
        <time>2024-03-10T11:11:31Z</time>
      </trkpt>
      <trkpt lat="49.2388" lon="-0.0836">
        <ele>7.7</ele>
        <time>2024-03-10T11:11:32Z</time>
      </trkpt>
      <trkpt lat="49.2388" lon="-0.08372">
        <ele>7.7</ele>
        <time>2024-03-10T11:11:33Z</time>
      </trkpt>
      <trkpt lat="49.23879" lon="-0.08384">
        <ele>7.7</ele>
        <time>2024-03-10T11:11:34Z</time>
      </trkpt>
      <trkpt lat="49.23879" lon="-0.08396">
        <ele>7.7</ele>
        <time>2024-03-10T11:11:35Z</time>
      </trkpt>
      <trkpt lat="49.23878" lon="-0.08409">
        <ele>7.7</ele>
        <time>2024-03-10T11:11:36Z</time>
      </trkpt>
      <trkpt lat="49.23878" lon="-0.08421">
        <ele>7.6</ele>
        <time>2024-03-10T11:11:37Z</time>
      </trkpt>
      <trkpt lat="49.23879" lon="-0.08433">
        <ele>7.6</ele>
        <time>2024-03-10T11:11:38Z</time>
      </trkpt>
      <trkpt lat="49.23881" lon="-0.08445">
        <ele>7.6</ele>
        <time>2024-03-10T11:11:39Z</time>
      </trkpt>
      <trkpt lat="49.23883" lon="-0.08458">
        <ele>7.5</ele>
        <time>2024-03-10T11:11:40Z</time>
      </trkpt>
      <trkpt lat="49.23885" lon="-0.08471">
        <ele>7.5</ele>
        <time>2024-03-10T11:11:41Z</time>
      </trkpt>
      <trkpt lat="49.23888" lon="-0.08483">
        <ele>7.5</ele>
        <time>2024-03-10T11:11:42Z</time>
      </trkpt>
      <trkpt lat="49.2389" lon="-0.08496">
        <ele>7.5</ele>
        <time>2024-03-10T11:11:43Z</time>
      </trkpt>
      <trkpt lat="49.23894" lon="-0.08509">
        <ele>7.6</ele>
        <time>2024-03-10T11:11:44Z</time>
      </trkpt>
      <trkpt lat="49.23897" lon="-0.0852">
        <ele>7.6</ele>
        <time>2024-03-10T11:11:45Z</time>
      </trkpt>
      <trkpt lat="49.239" lon="-0.08531">
        <ele>7.6</ele>
        <time>2024-03-10T11:11:46Z</time>
      </trkpt>
      <trkpt lat="49.23903" lon="-0.08542">
        <ele>7.6</ele>
        <time>2024-03-10T11:11:47Z</time>
      </trkpt>
      <trkpt lat="49.23906" lon="-0.08552">
        <ele>7.6</ele>
        <time>2024-03-10T11:11:48Z</time>
      </trkpt>
      <trkpt lat="49.23909" lon="-0.08563">
        <ele>7.6</ele>
        <time>2024-03-10T11:11:49Z</time>
      </trkpt>
      <trkpt lat="49.23913" lon="-0.08574">
        <ele>7.6</ele>
        <time>2024-03-10T11:11:50Z</time>
      </trkpt>
      <trkpt lat="49.23916" lon="-0.08585">
        <ele>7.6</ele>
        <time>2024-03-10T11:11:51Z</time>
      </trkpt>
      <trkpt lat="49.23918" lon="-0.08596">
        <ele>7.6</ele>
        <time>2024-03-10T11:11:52Z</time>
      </trkpt>
      <trkpt lat="49.23919" lon="-0.08607">
        <ele>7.6</ele>
        <time>2024-03-10T11:11:53Z</time>
      </trkpt>
      <trkpt lat="49.2392" lon="-0.08619">
        <ele>7.5</ele>
        <time>2024-03-10T11:11:54Z</time>
      </trkpt>
      <trkpt lat="49.23921" lon="-0.0863">
        <ele>7.5</ele>
        <time>2024-03-10T11:11:55Z</time>
      </trkpt>
      <trkpt lat="49.23922" lon="-0.08641">
        <ele>7.5</ele>
        <time>2024-03-10T11:11:56Z</time>
      </trkpt>
      <trkpt lat="49.23923" lon="-0.08653">
        <ele>7.5</ele>
        <time>2024-03-10T11:11:57Z</time>
      </trkpt>
      <trkpt lat="49.23924" lon="-0.08664">
        <ele>7.5</ele>
        <time>2024-03-10T11:11:58Z</time>
      </trkpt>
      <trkpt lat="49.23926" lon="-0.08675">
        <ele>7.5</ele>
        <time>2024-03-10T11:11:59Z</time>
      </trkpt>
      <trkpt lat="49.23927" lon="-0.08686">
        <ele>7.4</ele>
        <time>2024-03-10T11:12:00Z</time>
      </trkpt>
      <trkpt lat="49.23928" lon="-0.08697">
        <ele>7.4</ele>
        <time>2024-03-10T11:12:01Z</time>
      </trkpt>
      <trkpt lat="49.2393" lon="-0.08709">
        <ele>7.4</ele>
        <time>2024-03-10T11:12:02Z</time>
      </trkpt>
      <trkpt lat="49.23932" lon="-0.0872">
        <ele>7.4</ele>
        <time>2024-03-10T11:12:03Z</time>
      </trkpt>
      <trkpt lat="49.23935" lon="-0.08731">
        <ele>7.4</ele>
        <time>2024-03-10T11:12:04Z</time>
      </trkpt>
      <trkpt lat="49.23937" lon="-0.08742">
        <ele>7.4</ele>
        <time>2024-03-10T11:12:05Z</time>
      </trkpt>
      <trkpt lat="49.2394" lon="-0.08754">
        <ele>7.4</ele>
        <time>2024-03-10T11:12:06Z</time>
      </trkpt>
      <trkpt lat="49.23943" lon="-0.08765">
        <ele>7.4</ele>
        <time>2024-03-10T11:12:07Z</time>
      </trkpt>
      <trkpt lat="49.23946" lon="-0.08776">
        <ele>7.4</ele>
        <time>2024-03-10T11:12:08Z</time>
      </trkpt>
      <trkpt lat="49.23948" lon="-0.08787">
        <ele>7.4</ele>
        <time>2024-03-10T11:12:09Z</time>
      </trkpt>
      <trkpt lat="49.23951" lon="-0.08798">
        <ele>7.4</ele>
        <time>2024-03-10T11:12:10Z</time>
      </trkpt>
      <trkpt lat="49.23953" lon="-0.08809">
        <ele>7.4</ele>
        <time>2024-03-10T11:12:11Z</time>
      </trkpt>
      <trkpt lat="49.23955" lon="-0.08821">
        <ele>7.4</ele>
        <time>2024-03-10T11:12:12Z</time>
      </trkpt>
      <trkpt lat="49.23957" lon="-0.08833">
        <ele>7.3</ele>
        <time>2024-03-10T11:12:13Z</time>
      </trkpt>
      <trkpt lat="49.23959" lon="-0.08845">
        <ele>7.3</ele>
        <time>2024-03-10T11:12:14Z</time>
      </trkpt>
      <trkpt lat="49.2396" lon="-0.08857">
        <ele>7.3</ele>
        <time>2024-03-10T11:12:15Z</time>
      </trkpt>
      <trkpt lat="49.23962" lon="-0.08868">
        <ele>7.2</ele>
        <time>2024-03-10T11:12:16Z</time>
      </trkpt>
      <trkpt lat="49.23964" lon="-0.0888">
        <ele>7.2</ele>
        <time>2024-03-10T11:12:17Z</time>
      </trkpt>
      <trkpt lat="49.23965" lon="-0.08893">
        <ele>7.2</ele>
        <time>2024-03-10T11:12:18Z</time>
      </trkpt>
      <trkpt lat="49.23967" lon="-0.08905">
        <ele>7.2</ele>
        <time>2024-03-10T11:12:19Z</time>
      </trkpt>
      <trkpt lat="49.23969" lon="-0.08917">
        <ele>7.2</ele>
        <time>2024-03-10T11:12:20Z</time>
      </trkpt>
      <trkpt lat="49.23972" lon="-0.08929">
        <ele>7.1</ele>
        <time>2024-03-10T11:12:21Z</time>
      </trkpt>
      <trkpt lat="49.23975" lon="-0.0894">
        <ele>7.1</ele>
        <time>2024-03-10T11:12:22Z</time>
      </trkpt>
      <trkpt lat="49.23979" lon="-0.0895">
        <ele>7.1</ele>
        <time>2024-03-10T11:12:23Z</time>
      </trkpt>
      <trkpt lat="49.23984" lon="-0.0896">
        <ele>7.1</ele>
        <time>2024-03-10T11:12:24Z</time>
      </trkpt>
      <trkpt lat="49.23989" lon="-0.08969">
        <ele>7.1</ele>
        <time>2024-03-10T11:12:25Z</time>
      </trkpt>
      <trkpt lat="49.23994" lon="-0.08978">
        <ele>7</ele>
        <time>2024-03-10T11:12:26Z</time>
      </trkpt>
      <trkpt lat="49.24" lon="-0.08986">
        <ele>7</ele>
        <time>2024-03-10T11:12:27Z</time>
      </trkpt>
      <trkpt lat="49.24006" lon="-0.08994">
        <ele>7</ele>
        <time>2024-03-10T11:12:28Z</time>
      </trkpt>
      <trkpt lat="49.24012" lon="-0.09002">
        <ele>7</ele>
        <time>2024-03-10T11:12:29Z</time>
      </trkpt>
      <trkpt lat="49.24018" lon="-0.09009">
        <ele>7</ele>
        <time>2024-03-10T11:12:30Z</time>
      </trkpt>
      <trkpt lat="49.24025" lon="-0.09016">
        <ele>7</ele>
        <time>2024-03-10T11:12:31Z</time>
      </trkpt>
      <trkpt lat="49.24031" lon="-0.09021">
        <ele>7.1</ele>
        <time>2024-03-10T11:12:32Z</time>
      </trkpt>
      <trkpt lat="49.24039" lon="-0.09026">
        <ele>7.1</ele>
        <time>2024-03-10T11:12:33Z</time>
      </trkpt>
      <trkpt lat="49.24047" lon="-0.09031">
        <ele>7.1</ele>
        <time>2024-03-10T11:12:34Z</time>
      </trkpt>
      <trkpt lat="49.24054" lon="-0.09035">
        <ele>7.1</ele>
        <time>2024-03-10T11:12:35Z</time>
      </trkpt>
      <trkpt lat="49.24062" lon="-0.0904">
        <ele>7.1</ele>
        <time>2024-03-10T11:12:36Z</time>
      </trkpt>
      <trkpt lat="49.24069" lon="-0.09045">
        <ele>7.1</ele>
        <time>2024-03-10T11:12:37Z</time>
      </trkpt>
      <trkpt lat="49.24076" lon="-0.09052">
        <ele>7.1</ele>
        <time>2024-03-10T11:12:38Z</time>
      </trkpt>
      <trkpt lat="49.24082" lon="-0.0906">
        <ele>7.2</ele>
        <time>2024-03-10T11:12:39Z</time>
      </trkpt>
      <trkpt lat="49.24087" lon="-0.0907">
        <ele>7.2</ele>
        <time>2024-03-10T11:12:40Z</time>
      </trkpt>
      <trkpt lat="49.24092" lon="-0.0908">
        <ele>7.2</ele>
        <time>2024-03-10T11:12:41Z</time>
      </trkpt>
      <trkpt lat="49.24097" lon="-0.0909">
        <ele>7.2</ele>
        <time>2024-03-10T11:12:42Z</time>
      </trkpt>
      <trkpt lat="49.24101" lon="-0.09102">
        <ele>7.2</ele>
        <time>2024-03-10T11:12:43Z</time>
      </trkpt>
      <trkpt lat="49.24104" lon="-0.09113">
        <ele>7.2</ele>
        <time>2024-03-10T11:12:44Z</time>
      </trkpt>
      <trkpt lat="49.24107" lon="-0.09125">
        <ele>7.2</ele>
        <time>2024-03-10T11:12:45Z</time>
      </trkpt>
      <trkpt lat="49.24111" lon="-0.09136">
        <ele>7.2</ele>
        <time>2024-03-10T11:12:46Z</time>
      </trkpt>
      <trkpt lat="49.24114" lon="-0.09147">
        <ele>7.2</ele>
        <time>2024-03-10T11:12:47Z</time>
      </trkpt>
      <trkpt lat="49.24116" lon="-0.09158">
        <ele>7.2</ele>
        <time>2024-03-10T11:12:48Z</time>
      </trkpt>
      <trkpt lat="49.24119" lon="-0.0917">
        <ele>7.3</ele>
        <time>2024-03-10T11:12:49Z</time>
      </trkpt>
      <trkpt lat="49.24122" lon="-0.09182">
        <ele>7.3</ele>
        <time>2024-03-10T11:12:50Z</time>
      </trkpt>
      <trkpt lat="49.24125" lon="-0.09194">
        <ele>7.3</ele>
        <time>2024-03-10T11:12:51Z</time>
      </trkpt>
      <trkpt lat="49.24127" lon="-0.09205">
        <ele>7.3</ele>
        <time>2024-03-10T11:12:52Z</time>
      </trkpt>
      <trkpt lat="49.24129" lon="-0.09217">
        <ele>7.3</ele>
        <time>2024-03-10T11:12:53Z</time>
      </trkpt>
      <trkpt lat="49.24131" lon="-0.09229">
        <ele>7.3</ele>
        <time>2024-03-10T11:12:54Z</time>
      </trkpt>
      <trkpt lat="49.24133" lon="-0.09242">
        <ele>7.4</ele>
        <time>2024-03-10T11:12:55Z</time>
      </trkpt>
      <trkpt lat="49.24135" lon="-0.09254">
        <ele>7.4</ele>
        <time>2024-03-10T11:12:56Z</time>
      </trkpt>
      <trkpt lat="49.24136" lon="-0.09266">
        <ele>7.4</ele>
        <time>2024-03-10T11:12:57Z</time>
      </trkpt>
      <trkpt lat="49.24138" lon="-0.09279">
        <ele>7.4</ele>
        <time>2024-03-10T11:12:58Z</time>
      </trkpt>
      <trkpt lat="49.24139" lon="-0.09292">
        <ele>7.5</ele>
        <time>2024-03-10T11:12:59Z</time>
      </trkpt>
      <trkpt lat="49.2414" lon="-0.09305">
        <ele>7.5</ele>
        <time>2024-03-10T11:13:00Z</time>
      </trkpt>
      <trkpt lat="49.24142" lon="-0.09317">
        <ele>7.6</ele>
        <time>2024-03-10T11:13:01Z</time>
      </trkpt>
      <trkpt lat="49.24143" lon="-0.09329">
        <ele>7.6</ele>
        <time>2024-03-10T11:13:02Z</time>
      </trkpt>
      <trkpt lat="49.24145" lon="-0.09341">
        <ele>7.7</ele>
        <time>2024-03-10T11:13:03Z</time>
      </trkpt>
      <trkpt lat="49.24146" lon="-0.09352">
        <ele>7.7</ele>
        <time>2024-03-10T11:13:04Z</time>
      </trkpt>
      <trkpt lat="49.24148" lon="-0.09364">
        <ele>7.8</ele>
        <time>2024-03-10T11:13:05Z</time>
      </trkpt>
      <trkpt lat="49.24149" lon="-0.09376">
        <ele>7.8</ele>
        <time>2024-03-10T11:13:06Z</time>
      </trkpt>
      <trkpt lat="49.2415" lon="-0.09387">
        <ele>7.9</ele>
        <time>2024-03-10T11:13:07Z</time>
      </trkpt>
      <trkpt lat="49.24152" lon="-0.09399">
        <ele>7.9</ele>
        <time>2024-03-10T11:13:08Z</time>
      </trkpt>
      <trkpt lat="49.24154" lon="-0.0941">
        <ele>8</ele>
        <time>2024-03-10T11:13:09Z</time>
      </trkpt>
      <trkpt lat="49.24155" lon="-0.09421">
        <ele>8</ele>
        <time>2024-03-10T11:13:10Z</time>
      </trkpt>
      <trkpt lat="49.24157" lon="-0.09432">
        <ele>8</ele>
        <time>2024-03-10T11:13:11Z</time>
      </trkpt>
      <trkpt lat="49.24158" lon="-0.09443">
        <ele>8.1</ele>
        <time>2024-03-10T11:13:12Z</time>
      </trkpt>
      <trkpt lat="49.2416" lon="-0.09455">
        <ele>8.1</ele>
        <time>2024-03-10T11:13:13Z</time>
      </trkpt>
      <trkpt lat="49.24162" lon="-0.09466">
        <ele>8.2</ele>
        <time>2024-03-10T11:13:14Z</time>
      </trkpt>
      <trkpt lat="49.24164" lon="-0.09477">
        <ele>8.3</ele>
        <time>2024-03-10T11:13:15Z</time>
      </trkpt>
      <trkpt lat="49.24166" lon="-0.09488">
        <ele>8.3</ele>
        <time>2024-03-10T11:13:16Z</time>
      </trkpt>
      <trkpt lat="49.2417" lon="-0.09498">
        <ele>8.4</ele>
        <time>2024-03-10T11:13:17Z</time>
      </trkpt>
      <trkpt lat="49.24173" lon="-0.09509">
        <ele>8.4</ele>
        <time>2024-03-10T11:13:18Z</time>
      </trkpt>
      <trkpt lat="49.24176" lon="-0.09519">
        <ele>8.5</ele>
        <time>2024-03-10T11:13:19Z</time>
      </trkpt>
      <trkpt lat="49.2418" lon="-0.09529">
        <ele>8.5</ele>
        <time>2024-03-10T11:13:20Z</time>
      </trkpt>
      <trkpt lat="49.24184" lon="-0.09538">
        <ele>8.5</ele>
        <time>2024-03-10T11:13:21Z</time>
      </trkpt>
      <trkpt lat="49.24188" lon="-0.09547">
        <ele>8.5</ele>
        <time>2024-03-10T11:13:22Z</time>
      </trkpt>
      <trkpt lat="49.24193" lon="-0.09556">
        <ele>8.5</ele>
        <time>2024-03-10T11:13:23Z</time>
      </trkpt>
      <trkpt lat="49.24198" lon="-0.09564">
        <ele>8.5</ele>
        <time>2024-03-10T11:13:24Z</time>
      </trkpt>
      <trkpt lat="49.24203" lon="-0.09572">
        <ele>8.5</ele>
        <time>2024-03-10T11:13:25Z</time>
      </trkpt>
      <trkpt lat="49.24209" lon="-0.0958">
        <ele>8.4</ele>
        <time>2024-03-10T11:13:26Z</time>
      </trkpt>
      <trkpt lat="49.24215" lon="-0.09587">
        <ele>8.4</ele>
        <time>2024-03-10T11:13:27Z</time>
      </trkpt>
      <trkpt lat="49.24221" lon="-0.09594">
        <ele>8.4</ele>
        <time>2024-03-10T11:13:28Z</time>
      </trkpt>
      <trkpt lat="49.24227" lon="-0.096">
        <ele>8.4</ele>
        <time>2024-03-10T11:13:29Z</time>
      </trkpt>
      <trkpt lat="49.24233" lon="-0.09607">
        <ele>8.4</ele>
        <time>2024-03-10T11:13:30Z</time>
      </trkpt>
      <trkpt lat="49.24239" lon="-0.09614">
        <ele>8.4</ele>
        <time>2024-03-10T11:13:31Z</time>
      </trkpt>
      <trkpt lat="49.24245" lon="-0.09621">
        <ele>8.3</ele>
        <time>2024-03-10T11:13:32Z</time>
      </trkpt>
      <trkpt lat="49.24253" lon="-0.09628">
        <ele>8.2</ele>
        <time>2024-03-10T11:13:33Z</time>
      </trkpt>
      <trkpt lat="49.2426" lon="-0.09634">
        <ele>8.1</ele>
        <time>2024-03-10T11:13:34Z</time>
      </trkpt>
      <trkpt lat="49.24268" lon="-0.09642">
        <ele>8</ele>
        <time>2024-03-10T11:13:35Z</time>
      </trkpt>
      <trkpt lat="49.24275" lon="-0.09649">
        <ele>7.9</ele>
        <time>2024-03-10T11:13:36Z</time>
      </trkpt>
      <trkpt lat="49.24282" lon="-0.09656">
        <ele>7.9</ele>
        <time>2024-03-10T11:13:37Z</time>
      </trkpt>
      <trkpt lat="49.24289" lon="-0.09664">
        <ele>7.8</ele>
        <time>2024-03-10T11:13:38Z</time>
      </trkpt>
      <trkpt lat="49.24295" lon="-0.09671">
        <ele>7.8</ele>
        <time>2024-03-10T11:13:39Z</time>
      </trkpt>
      <trkpt lat="49.24302" lon="-0.09678">
        <ele>7.8</ele>
        <time>2024-03-10T11:13:40Z</time>
      </trkpt>
      <trkpt lat="49.24308" lon="-0.09684">
        <ele>7.8</ele>
        <time>2024-03-10T11:13:41Z</time>
      </trkpt>
      <trkpt lat="49.24315" lon="-0.09691">
        <ele>7.8</ele>
        <time>2024-03-10T11:13:42Z</time>
      </trkpt>
      <trkpt lat="49.24322" lon="-0.09698">
        <ele>7.9</ele>
        <time>2024-03-10T11:13:43Z</time>
      </trkpt>
      <trkpt lat="49.24328" lon="-0.09705">
        <ele>8</ele>
        <time>2024-03-10T11:13:44Z</time>
      </trkpt>
      <trkpt lat="49.24334" lon="-0.09711">
        <ele>8.1</ele>
        <time>2024-03-10T11:13:45Z</time>
      </trkpt>
      <trkpt lat="49.2434" lon="-0.09718">
        <ele>8.3</ele>
        <time>2024-03-10T11:13:46Z</time>
      </trkpt>
      <trkpt lat="49.24346" lon="-0.09725">
        <ele>8.4</ele>
        <time>2024-03-10T11:13:47Z</time>
      </trkpt>
      <trkpt lat="49.24351" lon="-0.09731">
        <ele>8.6</ele>
        <time>2024-03-10T11:13:48Z</time>
      </trkpt>
      <trkpt lat="49.24357" lon="-0.09738">
        <ele>8.8</ele>
        <time>2024-03-10T11:13:49Z</time>
      </trkpt>
      <trkpt lat="49.24362" lon="-0.09743">
        <ele>9</ele>
        <time>2024-03-10T11:13:50Z</time>
      </trkpt>
      <trkpt lat="49.24367" lon="-0.0975">
        <ele>9.2</ele>
        <time>2024-03-10T11:13:51Z</time>
      </trkpt>
      <trkpt lat="49.24372" lon="-0.09757">
        <ele>9.4</ele>
        <time>2024-03-10T11:13:52Z</time>
      </trkpt>
      <trkpt lat="49.24376" lon="-0.09764">
        <ele>9.6</ele>
        <time>2024-03-10T11:13:53Z</time>
      </trkpt>
      <trkpt lat="49.2438" lon="-0.09771">
        <ele>9.7</ele>
        <time>2024-03-10T11:13:54Z</time>
      </trkpt>
      <trkpt lat="49.24384" lon="-0.09778">
        <ele>9.9</ele>
        <time>2024-03-10T11:13:55Z</time>
      </trkpt>
      <trkpt lat="49.24388" lon="-0.09786">
        <ele>10.1</ele>
        <time>2024-03-10T11:13:56Z</time>
      </trkpt>
      <trkpt lat="49.24391" lon="-0.09794">
        <ele>10.3</ele>
        <time>2024-03-10T11:13:57Z</time>
      </trkpt>
      <trkpt lat="49.24394" lon="-0.09803">
        <ele>10.5</ele>
        <time>2024-03-10T11:13:58Z</time>
      </trkpt>
      <trkpt lat="49.24397" lon="-0.09812">
        <ele>10.7</ele>
        <time>2024-03-10T11:13:59Z</time>
      </trkpt>
      <trkpt lat="49.244" lon="-0.09822">
        <ele>10.8</ele>
        <time>2024-03-10T11:14:00Z</time>
      </trkpt>
      <trkpt lat="49.24403" lon="-0.09831">
        <ele>11</ele>
        <time>2024-03-10T11:14:01Z</time>
      </trkpt>
      <trkpt lat="49.24406" lon="-0.09841">
        <ele>11.2</ele>
        <time>2024-03-10T11:14:02Z</time>
      </trkpt>
      <trkpt lat="49.24408" lon="-0.09852">
        <ele>11.4</ele>
        <time>2024-03-10T11:14:03Z</time>
      </trkpt>
      <trkpt lat="49.24411" lon="-0.09862">
        <ele>11.6</ele>
        <time>2024-03-10T11:14:04Z</time>
      </trkpt>
      <trkpt lat="49.24413" lon="-0.09873">
        <ele>11.7</ele>
        <time>2024-03-10T11:14:05Z</time>
      </trkpt>
      <trkpt lat="49.24416" lon="-0.09882">
        <ele>11.8</ele>
        <time>2024-03-10T11:14:06Z</time>
      </trkpt>
      <trkpt lat="49.24418" lon="-0.09891">
        <ele>11.9</ele>
        <time>2024-03-10T11:14:07Z</time>
      </trkpt>
      <trkpt lat="49.2442" lon="-0.099">
        <ele>12</ele>
        <time>2024-03-10T11:14:08Z</time>
      </trkpt>
      <trkpt lat="49.24422" lon="-0.0991">
        <ele>12.1</ele>
        <time>2024-03-10T11:14:09Z</time>
      </trkpt>
      <trkpt lat="49.24424" lon="-0.09919">
        <ele>12.2</ele>
        <time>2024-03-10T11:14:10Z</time>
      </trkpt>
      <trkpt lat="49.24426" lon="-0.09928">
        <ele>12.3</ele>
        <time>2024-03-10T11:14:11Z</time>
      </trkpt>
      <trkpt lat="49.24428" lon="-0.09938">
        <ele>12.3</ele>
        <time>2024-03-10T11:14:12Z</time>
      </trkpt>
      <trkpt lat="49.24431" lon="-0.09947">
        <ele>12.2</ele>
        <time>2024-03-10T11:14:13Z</time>
      </trkpt>
      <trkpt lat="49.24434" lon="-0.09956">
        <ele>12.1</ele>
        <time>2024-03-10T11:14:14Z</time>
      </trkpt>
      <trkpt lat="49.24438" lon="-0.09965">
        <ele>12</ele>
        <time>2024-03-10T11:14:15Z</time>
      </trkpt>
      <trkpt lat="49.24442" lon="-0.09974">
        <ele>11.8</ele>
        <time>2024-03-10T11:14:16Z</time>
      </trkpt>
      <trkpt lat="49.24446" lon="-0.09983">
        <ele>11.6</ele>
        <time>2024-03-10T11:14:17Z</time>
      </trkpt>
      <trkpt lat="49.24451" lon="-0.09991">
        <ele>11.3</ele>
        <time>2024-03-10T11:14:18Z</time>
      </trkpt>
      <trkpt lat="49.24457" lon="-0.09999">
        <ele>11</ele>
        <time>2024-03-10T11:14:19Z</time>
      </trkpt>
      <trkpt lat="49.24464" lon="-0.10006">
        <ele>10.8</ele>
        <time>2024-03-10T11:14:20Z</time>
      </trkpt>
      <trkpt lat="49.2447" lon="-0.10012">
        <ele>10.5</ele>
        <time>2024-03-10T11:14:21Z</time>
      </trkpt>
      <trkpt lat="49.24477" lon="-0.10018">
        <ele>10.1</ele>
        <time>2024-03-10T11:14:22Z</time>
      </trkpt>
      <trkpt lat="49.24485" lon="-0.10024">
        <ele>9.8</ele>
        <time>2024-03-10T11:14:23Z</time>
      </trkpt>
      <trkpt lat="49.24492" lon="-0.1003">
        <ele>9.5</ele>
        <time>2024-03-10T11:14:24Z</time>
      </trkpt>
      <trkpt lat="49.245" lon="-0.10036">
        <ele>9.1</ele>
        <time>2024-03-10T11:14:25Z</time>
      </trkpt>
      <trkpt lat="49.24507" lon="-0.10042">
        <ele>8.7</ele>
        <time>2024-03-10T11:14:26Z</time>
      </trkpt>
      <trkpt lat="49.24515" lon="-0.10048">
        <ele>8.4</ele>
        <time>2024-03-10T11:14:27Z</time>
      </trkpt>
      <trkpt lat="49.24523" lon="-0.10054">
        <ele>8</ele>
        <time>2024-03-10T11:14:28Z</time>
      </trkpt>
      <trkpt lat="49.24531" lon="-0.1006">
        <ele>7.6</ele>
        <time>2024-03-10T11:14:29Z</time>
      </trkpt>
      <trkpt lat="49.24539" lon="-0.10066">
        <ele>7.2</ele>
        <time>2024-03-10T11:14:30Z</time>
      </trkpt>
      <trkpt lat="49.24548" lon="-0.10071">
        <ele>6.9</ele>
        <time>2024-03-10T11:14:31Z</time>
      </trkpt>
      <trkpt lat="49.24557" lon="-0.10077">
        <ele>6.5</ele>
        <time>2024-03-10T11:14:32Z</time>
      </trkpt>
      <trkpt lat="49.24565" lon="-0.10084">
        <ele>6.3</ele>
        <time>2024-03-10T11:14:33Z</time>
      </trkpt>
      <trkpt lat="49.24573" lon="-0.10091">
        <ele>6.1</ele>
        <time>2024-03-10T11:14:34Z</time>
      </trkpt>
      <trkpt lat="49.24582" lon="-0.10098">
        <ele>5.7</ele>
        <time>2024-03-10T11:14:35Z</time>
      </trkpt>
      <trkpt lat="49.24591" lon="-0.10105">
        <ele>5.4</ele>
        <time>2024-03-10T11:14:36Z</time>
      </trkpt>
      <trkpt lat="49.24601" lon="-0.10112">
        <ele>5.1</ele>
        <time>2024-03-10T11:14:37Z</time>
      </trkpt>
      <trkpt lat="49.24609" lon="-0.10118">
        <ele>4.8</ele>
        <time>2024-03-10T11:14:38Z</time>
      </trkpt>
      <trkpt lat="49.24618" lon="-0.10125">
        <ele>4.5</ele>
        <time>2024-03-10T11:14:39Z</time>
      </trkpt>
      <trkpt lat="49.24627" lon="-0.10131">
        <ele>4.4</ele>
        <time>2024-03-10T11:14:40Z</time>
      </trkpt>
      <trkpt lat="49.24635" lon="-0.10138">
        <ele>4.3</ele>
        <time>2024-03-10T11:14:41Z</time>
      </trkpt>
      <trkpt lat="49.24644" lon="-0.10144">
        <ele>4.2</ele>
        <time>2024-03-10T11:14:42Z</time>
      </trkpt>
      <trkpt lat="49.24652" lon="-0.10151">
        <ele>4.2</ele>
        <time>2024-03-10T11:14:43Z</time>
      </trkpt>
      <trkpt lat="49.2466" lon="-0.10157">
        <ele>4.2</ele>
        <time>2024-03-10T11:14:44Z</time>
      </trkpt>
      <trkpt lat="49.24669" lon="-0.10163">
        <ele>4.2</ele>
        <time>2024-03-10T11:14:45Z</time>
      </trkpt>
      <trkpt lat="49.24677" lon="-0.10169">
        <ele>4.2</ele>
        <time>2024-03-10T11:14:46Z</time>
      </trkpt>
      <trkpt lat="49.24685" lon="-0.10175">
        <ele>4.2</ele>
        <time>2024-03-10T11:14:47Z</time>
      </trkpt>
      <trkpt lat="49.24693" lon="-0.10182">
        <ele>4.3</ele>
        <time>2024-03-10T11:14:48Z</time>
      </trkpt>
      <trkpt lat="49.247" lon="-0.10187">
        <ele>4.3</ele>
        <time>2024-03-10T11:14:49Z</time>
      </trkpt>
      <trkpt lat="49.24708" lon="-0.10193">
        <ele>4.4</ele>
        <time>2024-03-10T11:14:50Z</time>
      </trkpt>
      <trkpt lat="49.24715" lon="-0.10199">
        <ele>4.5</ele>
        <time>2024-03-10T11:14:51Z</time>
      </trkpt>
      <trkpt lat="49.24723" lon="-0.10205">
        <ele>4.5</ele>
        <time>2024-03-10T11:14:52Z</time>
      </trkpt>
      <trkpt lat="49.2473" lon="-0.10211">
        <ele>4.6</ele>
        <time>2024-03-10T11:14:53Z</time>
      </trkpt>
      <trkpt lat="49.24737" lon="-0.10216">
        <ele>4.7</ele>
        <time>2024-03-10T11:14:54Z</time>
      </trkpt>
      <trkpt lat="49.24744" lon="-0.10222">
        <ele>4.8</ele>
        <time>2024-03-10T11:14:55Z</time>
      </trkpt>
      <trkpt lat="49.24752" lon="-0.10227">
        <ele>4.9</ele>
        <time>2024-03-10T11:14:56Z</time>
      </trkpt>
      <trkpt lat="49.24759" lon="-0.10233">
        <ele>5</ele>
        <time>2024-03-10T11:14:57Z</time>
      </trkpt>
      <trkpt lat="49.24766" lon="-0.10238">
        <ele>5.1</ele>
        <time>2024-03-10T11:14:58Z</time>
      </trkpt>
      <trkpt lat="49.24772" lon="-0.10244">
        <ele>5.2</ele>
        <time>2024-03-10T11:14:59Z</time>
      </trkpt>
      <trkpt lat="49.24779" lon="-0.10249">
        <ele>5.4</ele>
        <time>2024-03-10T11:15:00Z</time>
      </trkpt>
      <trkpt lat="49.24786" lon="-0.10254">
        <ele>5.5</ele>
        <time>2024-03-10T11:15:01Z</time>
      </trkpt>
      <trkpt lat="49.24792" lon="-0.10259">
        <ele>5.6</ele>
        <time>2024-03-10T11:15:02Z</time>
      </trkpt>
      <trkpt lat="49.24799" lon="-0.10264">
        <ele>5.7</ele>
        <time>2024-03-10T11:15:03Z</time>
      </trkpt>
      <trkpt lat="49.24807" lon="-0.10269">
        <ele>5.8</ele>
        <time>2024-03-10T11:15:04Z</time>
      </trkpt>
      <trkpt lat="49.24813" lon="-0.10274">
        <ele>5.8</ele>
        <time>2024-03-10T11:15:05Z</time>
      </trkpt>
      <trkpt lat="49.2482" lon="-0.10279">
        <ele>5.9</ele>
        <time>2024-03-10T11:15:06Z</time>
      </trkpt>
      <trkpt lat="49.24827" lon="-0.10283">
        <ele>6</ele>
        <time>2024-03-10T11:15:07Z</time>
      </trkpt>
      <trkpt lat="49.24834" lon="-0.10286">
        <ele>6.1</ele>
        <time>2024-03-10T11:15:08Z</time>
      </trkpt>
      <trkpt lat="49.24842" lon="-0.10289">
        <ele>6.1</ele>
        <time>2024-03-10T11:15:09Z</time>
      </trkpt>
      <trkpt lat="49.2485" lon="-0.10291">
        <ele>6.2</ele>
        <time>2024-03-10T11:15:10Z</time>
      </trkpt>
      <trkpt lat="49.24859" lon="-0.10292">
        <ele>6.3</ele>
        <time>2024-03-10T11:15:11Z</time>
      </trkpt>
      <trkpt lat="49.24868" lon="-0.10293">
        <ele>6.3</ele>
        <time>2024-03-10T11:15:12Z</time>
      </trkpt>
      <trkpt lat="49.24876" lon="-0.10293">
        <ele>6.4</ele>
        <time>2024-03-10T11:15:13Z</time>
      </trkpt>
      <trkpt lat="49.24884" lon="-0.10291">
        <ele>6.5</ele>
        <time>2024-03-10T11:15:14Z</time>
      </trkpt>
      <trkpt lat="49.24892" lon="-0.10289">
        <ele>6.5</ele>
        <time>2024-03-10T11:15:15Z</time>
      </trkpt>
      <trkpt lat="49.249" lon="-0.10284">
        <ele>6.4</ele>
        <time>2024-03-10T11:15:16Z</time>
      </trkpt>
      <trkpt lat="49.24908" lon="-0.10279">
        <ele>6.4</ele>
        <time>2024-03-10T11:15:17Z</time>
      </trkpt>
      <trkpt lat="49.24916" lon="-0.10272">
        <ele>6.3</ele>
        <time>2024-03-10T11:15:18Z</time>
      </trkpt>
      <trkpt lat="49.24923" lon="-0.10265">
        <ele>6.2</ele>
        <time>2024-03-10T11:15:19Z</time>
      </trkpt>
      <trkpt lat="49.2493" lon="-0.10256">
        <ele>6</ele>
        <time>2024-03-10T11:15:20Z</time>
      </trkpt>
      <trkpt lat="49.24936" lon="-0.10246">
        <ele>5.9</ele>
        <time>2024-03-10T11:15:21Z</time>
      </trkpt>
      <trkpt lat="49.24941" lon="-0.10236">
        <ele>5.8</ele>
        <time>2024-03-10T11:15:22Z</time>
      </trkpt>
      <trkpt lat="49.24946" lon="-0.10225">
        <ele>5.7</ele>
        <time>2024-03-10T11:15:23Z</time>
      </trkpt>
      <trkpt lat="49.24951" lon="-0.10214">
        <ele>5.7</ele>
        <time>2024-03-10T11:15:24Z</time>
      </trkpt>
      <trkpt lat="49.24955" lon="-0.10203">
        <ele>5.6</ele>
        <time>2024-03-10T11:15:25Z</time>
      </trkpt>
      <trkpt lat="49.24959" lon="-0.10192">
        <ele>5.6</ele>
        <time>2024-03-10T11:15:26Z</time>
      </trkpt>
      <trkpt lat="49.24962" lon="-0.10181">
        <ele>5.6</ele>
        <time>2024-03-10T11:15:27Z</time>
      </trkpt>
      <trkpt lat="49.24967" lon="-0.10169">
        <ele>5.6</ele>
        <time>2024-03-10T11:15:28Z</time>
      </trkpt>
      <trkpt lat="49.2497" lon="-0.10158">
        <ele>5.6</ele>
        <time>2024-03-10T11:15:29Z</time>
      </trkpt>
      <trkpt lat="49.24975" lon="-0.10146">
        <ele>5.5</ele>
        <time>2024-03-10T11:15:30Z</time>
      </trkpt>
      <trkpt lat="49.24979" lon="-0.10135">
        <ele>5.5</ele>
        <time>2024-03-10T11:15:31Z</time>
      </trkpt>
      <trkpt lat="49.24983" lon="-0.10123">
        <ele>5.4</ele>
        <time>2024-03-10T11:15:32Z</time>
      </trkpt>
      <trkpt lat="49.24987" lon="-0.10112">
        <ele>5.3</ele>
        <time>2024-03-10T11:15:33Z</time>
      </trkpt>
      <trkpt lat="49.24992" lon="-0.10101">
        <ele>5.2</ele>
        <time>2024-03-10T11:15:34Z</time>
      </trkpt>
      <trkpt lat="49.24996" lon="-0.1009">
        <ele>5.2</ele>
        <time>2024-03-10T11:15:35Z</time>
      </trkpt>
      <trkpt lat="49.25001" lon="-0.10079">
        <ele>5.1</ele>
        <time>2024-03-10T11:15:36Z</time>
      </trkpt>
      <trkpt lat="49.25005" lon="-0.10068">
        <ele>5.1</ele>
        <time>2024-03-10T11:15:37Z</time>
      </trkpt>
      <trkpt lat="49.25009" lon="-0.10057">
        <ele>5</ele>
        <time>2024-03-10T11:15:38Z</time>
      </trkpt>
      <trkpt lat="49.25013" lon="-0.10046">
        <ele>4.9</ele>
        <time>2024-03-10T11:15:39Z</time>
      </trkpt>
      <trkpt lat="49.25018" lon="-0.10035">
        <ele>4.9</ele>
        <time>2024-03-10T11:15:40Z</time>
      </trkpt>
      <trkpt lat="49.25023" lon="-0.10024">
        <ele>4.8</ele>
        <time>2024-03-10T11:15:41Z</time>
      </trkpt>
      <trkpt lat="49.25027" lon="-0.10012">
        <ele>4.8</ele>
        <time>2024-03-10T11:15:42Z</time>
      </trkpt>
      <trkpt lat="49.25031" lon="-0.1">
        <ele>4.7</ele>
        <time>2024-03-10T11:15:43Z</time>
      </trkpt>
      <trkpt lat="49.25036" lon="-0.09988">
        <ele>4.6</ele>
        <time>2024-03-10T11:15:44Z</time>
      </trkpt>
      <trkpt lat="49.2504" lon="-0.09977">
        <ele>4.5</ele>
        <time>2024-03-10T11:15:45Z</time>
      </trkpt>
      <trkpt lat="49.25045" lon="-0.09966">
        <ele>4.4</ele>
        <time>2024-03-10T11:15:46Z</time>
      </trkpt>
      <trkpt lat="49.25049" lon="-0.09954">
        <ele>4.4</ele>
        <time>2024-03-10T11:15:47Z</time>
      </trkpt>
      <trkpt lat="49.25053" lon="-0.09942">
        <ele>4.4</ele>
        <time>2024-03-10T11:15:48Z</time>
      </trkpt>
      <trkpt lat="49.25056" lon="-0.0993">
        <ele>4.4</ele>
        <time>2024-03-10T11:15:49Z</time>
      </trkpt>
      <trkpt lat="49.25061" lon="-0.09919">
        <ele>4.4</ele>
        <time>2024-03-10T11:15:50Z</time>
      </trkpt>
      <trkpt lat="49.25065" lon="-0.09907">
        <ele>4.3</ele>
        <time>2024-03-10T11:15:51Z</time>
      </trkpt>
      <trkpt lat="49.25069" lon="-0.09896">
        <ele>4.3</ele>
        <time>2024-03-10T11:15:52Z</time>
      </trkpt>
      <trkpt lat="49.25073" lon="-0.09884">
        <ele>4.2</ele>
        <time>2024-03-10T11:15:53Z</time>
      </trkpt>
      <trkpt lat="49.25078" lon="-0.09873">
        <ele>4.2</ele>
        <time>2024-03-10T11:15:54Z</time>
      </trkpt>
      <trkpt lat="49.25082" lon="-0.09862">
        <ele>4.2</ele>
        <time>2024-03-10T11:15:55Z</time>
      </trkpt>
      <trkpt lat="49.25086" lon="-0.0985">
        <ele>4.2</ele>
        <time>2024-03-10T11:15:56Z</time>
      </trkpt>
      <trkpt lat="49.2509" lon="-0.09839">
        <ele>4.2</ele>
        <time>2024-03-10T11:15:57Z</time>
      </trkpt>
      <trkpt lat="49.25095" lon="-0.09828">
        <ele>4.2</ele>
        <time>2024-03-10T11:15:58Z</time>
      </trkpt>
      <trkpt lat="49.25099" lon="-0.09817">
        <ele>4.2</ele>
        <time>2024-03-10T11:15:59Z</time>
      </trkpt>
      <trkpt lat="49.25103" lon="-0.09806">
        <ele>4.2</ele>
        <time>2024-03-10T11:16:00Z</time>
      </trkpt>
      <trkpt lat="49.25107" lon="-0.09795">
        <ele>4.3</ele>
        <time>2024-03-10T11:16:01Z</time>
      </trkpt>
      <trkpt lat="49.25111" lon="-0.09784">
        <ele>4.3</ele>
        <time>2024-03-10T11:16:02Z</time>
      </trkpt>
      <trkpt lat="49.25116" lon="-0.09775">
        <ele>4.4</ele>
        <time>2024-03-10T11:16:03Z</time>
      </trkpt>
      <trkpt lat="49.2512" lon="-0.09766">
        <ele>4.4</ele>
        <time>2024-03-10T11:16:04Z</time>
      </trkpt>
      <trkpt lat="49.25126" lon="-0.09757">
        <ele>4.5</ele>
        <time>2024-03-10T11:16:05Z</time>
      </trkpt>
      <trkpt lat="49.25132" lon="-0.09748">
        <ele>4.6</ele>
        <time>2024-03-10T11:16:06Z</time>
      </trkpt>
      <trkpt lat="49.25138" lon="-0.09741">
        <ele>4.7</ele>
        <time>2024-03-10T11:16:07Z</time>
      </trkpt>
      <trkpt lat="49.25145" lon="-0.09735">
        <ele>4.7</ele>
        <time>2024-03-10T11:16:08Z</time>
      </trkpt>
      <trkpt lat="49.25152" lon="-0.0973">
        <ele>4.8</ele>
        <time>2024-03-10T11:16:09Z</time>
      </trkpt>
      <trkpt lat="49.25159" lon="-0.09726">
        <ele>4.8</ele>
        <time>2024-03-10T11:16:10Z</time>
      </trkpt>
      <trkpt lat="49.25166" lon="-0.09723">
        <ele>4.9</ele>
        <time>2024-03-10T11:16:11Z</time>
      </trkpt>
      <trkpt lat="49.25174" lon="-0.0972">
        <ele>5</ele>
        <time>2024-03-10T11:16:12Z</time>
      </trkpt>
      <trkpt lat="49.25181" lon="-0.09717">
        <ele>5.1</ele>
        <time>2024-03-10T11:16:13Z</time>
      </trkpt>
      <trkpt lat="49.25189" lon="-0.09714">
        <ele>5.2</ele>
        <time>2024-03-10T11:16:14Z</time>
      </trkpt>
      <trkpt lat="49.25197" lon="-0.09711">
        <ele>5.3</ele>
        <time>2024-03-10T11:16:15Z</time>
      </trkpt>
      <trkpt lat="49.25205" lon="-0.09708">
        <ele>5.4</ele>
        <time>2024-03-10T11:16:16Z</time>
      </trkpt>
      <trkpt lat="49.25212" lon="-0.09706">
        <ele>5.4</ele>
        <time>2024-03-10T11:16:17Z</time>
      </trkpt>
      <trkpt lat="49.2522" lon="-0.09702">
        <ele>5.5</ele>
        <time>2024-03-10T11:16:18Z</time>
      </trkpt>
      <trkpt lat="49.25228" lon="-0.09699">
        <ele>5.6</ele>
        <time>2024-03-10T11:16:19Z</time>
      </trkpt>
      <trkpt lat="49.25235" lon="-0.09696">
        <ele>5.6</ele>
        <time>2024-03-10T11:16:20Z</time>
      </trkpt>
      <trkpt lat="49.25243" lon="-0.09692">
        <ele>5.6</ele>
        <time>2024-03-10T11:16:21Z</time>
      </trkpt>
      <trkpt lat="49.25251" lon="-0.09688">
        <ele>5.6</ele>
        <time>2024-03-10T11:16:22Z</time>
      </trkpt>
      <trkpt lat="49.25258" lon="-0.09683">
        <ele>5.6</ele>
        <time>2024-03-10T11:16:23Z</time>
      </trkpt>
      <trkpt lat="49.25265" lon="-0.09677">
        <ele>5.5</ele>
        <time>2024-03-10T11:16:24Z</time>
      </trkpt>
      <trkpt lat="49.25272" lon="-0.0967">
        <ele>5.5</ele>
        <time>2024-03-10T11:16:25Z</time>
      </trkpt>
      <trkpt lat="49.25279" lon="-0.09663">
        <ele>5.5</ele>
        <time>2024-03-10T11:16:26Z</time>
      </trkpt>
      <trkpt lat="49.25286" lon="-0.09655">
        <ele>5.5</ele>
        <time>2024-03-10T11:16:27Z</time>
      </trkpt>
      <trkpt lat="49.25293" lon="-0.09648">
        <ele>5.4</ele>
        <time>2024-03-10T11:16:28Z</time>
      </trkpt>
      <trkpt lat="49.253" lon="-0.09642">
        <ele>5.4</ele>
        <time>2024-03-10T11:16:29Z</time>
      </trkpt>
      <trkpt lat="49.25307" lon="-0.09637">
        <ele>5.4</ele>
        <time>2024-03-10T11:16:30Z</time>
      </trkpt>
      <trkpt lat="49.25315" lon="-0.09633">
        <ele>5.3</ele>
        <time>2024-03-10T11:16:31Z</time>
      </trkpt>
      <trkpt lat="49.25323" lon="-0.09629">
        <ele>5.2</ele>
        <time>2024-03-10T11:16:32Z</time>
      </trkpt>
      <trkpt lat="49.25331" lon="-0.09626">
        <ele>5.2</ele>
        <time>2024-03-10T11:16:33Z</time>
      </trkpt>
      <trkpt lat="49.25339" lon="-0.09623">
        <ele>5.2</ele>
        <time>2024-03-10T11:16:34Z</time>
      </trkpt>
      <trkpt lat="49.25347" lon="-0.09621">
        <ele>5.2</ele>
        <time>2024-03-10T11:16:35Z</time>
      </trkpt>
      <trkpt lat="49.25356" lon="-0.0962">
        <ele>5.2</ele>
        <time>2024-03-10T11:16:36Z</time>
      </trkpt>
      <trkpt lat="49.25364" lon="-0.09619">
        <ele>5.1</ele>
        <time>2024-03-10T11:16:37Z</time>
      </trkpt>
      <trkpt lat="49.25373" lon="-0.09618">
        <ele>5.1</ele>
        <time>2024-03-10T11:16:38Z</time>
      </trkpt>
      <trkpt lat="49.25381" lon="-0.09617">
        <ele>5.2</ele>
        <time>2024-03-10T11:16:39Z</time>
      </trkpt>
      <trkpt lat="49.25389" lon="-0.09615">
        <ele>5.2</ele>
        <time>2024-03-10T11:16:40Z</time>
      </trkpt>
      <trkpt lat="49.25398" lon="-0.09614">
        <ele>5.2</ele>
        <time>2024-03-10T11:16:41Z</time>
      </trkpt>
      <trkpt lat="49.25406" lon="-0.09612">
        <ele>5.2</ele>
        <time>2024-03-10T11:16:42Z</time>
      </trkpt>
      <trkpt lat="49.25414" lon="-0.09611">
        <ele>5.3</ele>
        <time>2024-03-10T11:16:43Z</time>
      </trkpt>
      <trkpt lat="49.25423" lon="-0.09609">
        <ele>5.3</ele>
        <time>2024-03-10T11:16:44Z</time>
      </trkpt>
      <trkpt lat="49.25431" lon="-0.09608">
        <ele>5.4</ele>
        <time>2024-03-10T11:16:45Z</time>
      </trkpt>
      <trkpt lat="49.25439" lon="-0.09606">
        <ele>5.5</ele>
        <time>2024-03-10T11:16:46Z</time>
      </trkpt>
      <trkpt lat="49.25447" lon="-0.09604">
        <ele>5.6</ele>
        <time>2024-03-10T11:16:47Z</time>
      </trkpt>
      <trkpt lat="49.25455" lon="-0.09603">
        <ele>5.6</ele>
        <time>2024-03-10T11:16:48Z</time>
      </trkpt>
      <trkpt lat="49.25462" lon="-0.09601">
        <ele>5.7</ele>
        <time>2024-03-10T11:16:49Z</time>
      </trkpt>
      <trkpt lat="49.2547" lon="-0.096">
        <ele>5.8</ele>
        <time>2024-03-10T11:16:50Z</time>
      </trkpt>
      <trkpt lat="49.25478" lon="-0.09598">
        <ele>5.8</ele>
        <time>2024-03-10T11:16:51Z</time>
      </trkpt>
      <trkpt lat="49.25486" lon="-0.09597">
        <ele>5.8</ele>
        <time>2024-03-10T11:16:52Z</time>
      </trkpt>
      <trkpt lat="49.25494" lon="-0.09596">
        <ele>5.9</ele>
        <time>2024-03-10T11:16:53Z</time>
      </trkpt>
      <trkpt lat="49.25501" lon="-0.09595">
        <ele>6</ele>
        <time>2024-03-10T11:16:54Z</time>
      </trkpt>
      <trkpt lat="49.25509" lon="-0.09594">
        <ele>6.1</ele>
        <time>2024-03-10T11:16:55Z</time>
      </trkpt>
      <trkpt lat="49.25517" lon="-0.09594">
        <ele>6.2</ele>
        <time>2024-03-10T11:16:56Z</time>
      </trkpt>
      <trkpt lat="49.25525" lon="-0.09594">
        <ele>6.3</ele>
        <time>2024-03-10T11:16:57Z</time>
      </trkpt>
      <trkpt lat="49.25533" lon="-0.09594">
        <ele>6.4</ele>
        <time>2024-03-10T11:16:58Z</time>
      </trkpt>
      <trkpt lat="49.25541" lon="-0.09594">
        <ele>6.5</ele>
        <time>2024-03-10T11:16:59Z</time>
      </trkpt>
      <trkpt lat="49.25549" lon="-0.09594">
        <ele>6.6</ele>
        <time>2024-03-10T11:17:00Z</time>
      </trkpt>
      <trkpt lat="49.25556" lon="-0.09594">
        <ele>6.7</ele>
        <time>2024-03-10T11:17:01Z</time>
      </trkpt>
      <trkpt lat="49.25564" lon="-0.09594">
        <ele>6.7</ele>
        <time>2024-03-10T11:17:02Z</time>
      </trkpt>
      <trkpt lat="49.25572" lon="-0.09595">
        <ele>6.8</ele>
        <time>2024-03-10T11:17:03Z</time>
      </trkpt>
      <trkpt lat="49.2558" lon="-0.09594">
        <ele>6.9</ele>
        <time>2024-03-10T11:17:04Z</time>
      </trkpt>
      <trkpt lat="49.25588" lon="-0.09595">
        <ele>7</ele>
        <time>2024-03-10T11:17:05Z</time>
      </trkpt>
      <trkpt lat="49.25595" lon="-0.09595">
        <ele>7</ele>
        <time>2024-03-10T11:17:06Z</time>
      </trkpt>
      <trkpt lat="49.25602" lon="-0.09595">
        <ele>7.1</ele>
        <time>2024-03-10T11:17:07Z</time>
      </trkpt>
      <trkpt lat="49.2561" lon="-0.09595">
        <ele>7.1</ele>
        <time>2024-03-10T11:17:08Z</time>
      </trkpt>
      <trkpt lat="49.25618" lon="-0.09594">
        <ele>7.2</ele>
        <time>2024-03-10T11:17:09Z</time>
      </trkpt>
      <trkpt lat="49.25626" lon="-0.09591">
        <ele>7.2</ele>
        <time>2024-03-10T11:17:10Z</time>
      </trkpt>
      <trkpt lat="49.25633" lon="-0.09588">
        <ele>7.3</ele>
        <time>2024-03-10T11:17:11Z</time>
      </trkpt>
      <trkpt lat="49.2564" lon="-0.09585">
        <ele>7.3</ele>
        <time>2024-03-10T11:17:12Z</time>
      </trkpt>
      <trkpt lat="49.25648" lon="-0.09582">
        <ele>7.3</ele>
        <time>2024-03-10T11:17:13Z</time>
      </trkpt>
      <trkpt lat="49.25655" lon="-0.09577">
        <ele>7.4</ele>
        <time>2024-03-10T11:17:14Z</time>
      </trkpt>
      <trkpt lat="49.25662" lon="-0.09572">
        <ele>7.4</ele>
        <time>2024-03-10T11:17:15Z</time>
      </trkpt>
      <trkpt lat="49.25669" lon="-0.09567">
        <ele>7.5</ele>
        <time>2024-03-10T11:17:16Z</time>
      </trkpt>
      <trkpt lat="49.25676" lon="-0.09562">
        <ele>7.5</ele>
        <time>2024-03-10T11:17:17Z</time>
      </trkpt>
      <trkpt lat="49.25683" lon="-0.09558">
        <ele>7.6</ele>
        <time>2024-03-10T11:17:18Z</time>
      </trkpt>
      <trkpt lat="49.2569" lon="-0.09553">
        <ele>7.6</ele>
        <time>2024-03-10T11:17:19Z</time>
      </trkpt>
      <trkpt lat="49.25697" lon="-0.09548">
        <ele>7.7</ele>
        <time>2024-03-10T11:17:20Z</time>
      </trkpt>
      <trkpt lat="49.25704" lon="-0.09542">
        <ele>7.7</ele>
        <time>2024-03-10T11:17:21Z</time>
      </trkpt>
      <trkpt lat="49.25711" lon="-0.09537">
        <ele>7.8</ele>
        <time>2024-03-10T11:17:22Z</time>
      </trkpt>
      <trkpt lat="49.25718" lon="-0.09531">
        <ele>7.8</ele>
        <time>2024-03-10T11:17:23Z</time>
      </trkpt>
      <trkpt lat="49.25724" lon="-0.09527">
        <ele>7.9</ele>
        <time>2024-03-10T11:17:24Z</time>
      </trkpt>
      <trkpt lat="49.25731" lon="-0.09521">
        <ele>7.9</ele>
        <time>2024-03-10T11:17:25Z</time>
      </trkpt>
      <trkpt lat="49.25738" lon="-0.09517">
        <ele>7.9</ele>
        <time>2024-03-10T11:17:26Z</time>
      </trkpt>
      <trkpt lat="49.25744" lon="-0.09512">
        <ele>8</ele>
        <time>2024-03-10T11:17:27Z</time>
      </trkpt>
      <trkpt lat="49.2575" lon="-0.09507">
        <ele>8.1</ele>
        <time>2024-03-10T11:17:28Z</time>
      </trkpt>
      <trkpt lat="49.25756" lon="-0.09503">
        <ele>8.1</ele>
        <time>2024-03-10T11:17:29Z</time>
      </trkpt>
      <trkpt lat="49.25763" lon="-0.09498">
        <ele>8.2</ele>
        <time>2024-03-10T11:17:30Z</time>
      </trkpt>
      <trkpt lat="49.25769" lon="-0.09494">
        <ele>8.3</ele>
        <time>2024-03-10T11:17:31Z</time>
      </trkpt>
      <trkpt lat="49.25775" lon="-0.0949">
        <ele>8.5</ele>
        <time>2024-03-10T11:17:32Z</time>
      </trkpt>
      <trkpt lat="49.25782" lon="-0.09486">
        <ele>8.4</ele>
        <time>2024-03-10T11:17:33Z</time>
      </trkpt>
      <trkpt lat="49.25788" lon="-0.09482">
        <ele>8.4</ele>
        <time>2024-03-10T11:17:34Z</time>
      </trkpt>
      <trkpt lat="49.25794" lon="-0.09479">
        <ele>8.4</ele>
        <time>2024-03-10T11:17:35Z</time>
      </trkpt>
      <trkpt lat="49.258" lon="-0.09477">
        <ele>8.4</ele>
        <time>2024-03-10T11:17:36Z</time>
      </trkpt>
      <trkpt lat="49.25806" lon="-0.09476">
        <ele>8.4</ele>
        <time>2024-03-10T11:17:37Z</time>
      </trkpt>
      <trkpt lat="49.25811" lon="-0.09475">
        <ele>8.4</ele>
        <time>2024-03-10T11:17:38Z</time>
      </trkpt>
      <trkpt lat="49.25816" lon="-0.09474">
        <ele>8.4</ele>
        <time>2024-03-10T11:17:39Z</time>
      </trkpt>
      <trkpt lat="49.25822" lon="-0.09475">
        <ele>8.4</ele>
        <time>2024-03-10T11:17:40Z</time>
      </trkpt>
      <trkpt lat="49.25826" lon="-0.09475">
        <ele>8.4</ele>
        <time>2024-03-10T11:17:41Z</time>
      </trkpt>
      <trkpt lat="49.25831" lon="-0.09476">
        <ele>8.5</ele>
        <time>2024-03-10T11:17:42Z</time>
      </trkpt>
      <trkpt lat="49.25836" lon="-0.09477">
        <ele>8.5</ele>
        <time>2024-03-10T11:17:43Z</time>
      </trkpt>
      <trkpt lat="49.25841" lon="-0.09477">
        <ele>8.5</ele>
        <time>2024-03-10T11:17:44Z</time>
      </trkpt>
      <trkpt lat="49.25846" lon="-0.09477">
        <ele>8.4</ele>
        <time>2024-03-10T11:17:45Z</time>
      </trkpt>
      <trkpt lat="49.25851" lon="-0.09478">
        <ele>8.4</ele>
        <time>2024-03-10T11:17:46Z</time>
      </trkpt>
      <trkpt lat="49.25856" lon="-0.09478">
        <ele>8.4</ele>
        <time>2024-03-10T11:17:47Z</time>
      </trkpt>
      <trkpt lat="49.25862" lon="-0.09479">
        <ele>8.4</ele>
        <time>2024-03-10T11:17:48Z</time>
      </trkpt>
      <trkpt lat="49.25867" lon="-0.0948">
        <ele>8.4</ele>
        <time>2024-03-10T11:17:49Z</time>
      </trkpt>
      <trkpt lat="49.25872" lon="-0.09481">
        <ele>8.4</ele>
        <time>2024-03-10T11:17:50Z</time>
      </trkpt>
      <trkpt lat="49.25877" lon="-0.09481">
        <ele>8.4</ele>
        <time>2024-03-10T11:17:51Z</time>
      </trkpt>
      <trkpt lat="49.25881" lon="-0.09482">
        <ele>8.5</ele>
        <time>2024-03-10T11:17:52Z</time>
      </trkpt>
      <trkpt lat="49.25886" lon="-0.09482">
        <ele>8.6</ele>
        <time>2024-03-10T11:17:53Z</time>
      </trkpt>
      <trkpt lat="49.25891" lon="-0.09483">
        <ele>8.7</ele>
        <time>2024-03-10T11:17:54Z</time>
      </trkpt>
      <trkpt lat="49.25896" lon="-0.09483">
        <ele>8.8</ele>
        <time>2024-03-10T11:17:55Z</time>
      </trkpt>
      <trkpt lat="49.25901" lon="-0.09484">
        <ele>8.9</ele>
        <time>2024-03-10T11:17:56Z</time>
      </trkpt>
      <trkpt lat="49.25906" lon="-0.09485">
        <ele>9</ele>
        <time>2024-03-10T11:17:57Z</time>
      </trkpt>
      <trkpt lat="49.25911" lon="-0.09485">
        <ele>9.2</ele>
        <time>2024-03-10T11:17:58Z</time>
      </trkpt>
      <trkpt lat="49.25916" lon="-0.09486">
        <ele>9.3</ele>
        <time>2024-03-10T11:17:59Z</time>
      </trkpt>
      <trkpt lat="49.25921" lon="-0.09486">
        <ele>9.5</ele>
        <time>2024-03-10T11:18:00Z</time>
      </trkpt>
      <trkpt lat="49.25926" lon="-0.09487">
        <ele>9.6</ele>
        <time>2024-03-10T11:18:01Z</time>
      </trkpt>
      <trkpt lat="49.25932" lon="-0.09488">
        <ele>9.8</ele>
        <time>2024-03-10T11:18:02Z</time>
      </trkpt>
      <trkpt lat="49.25937" lon="-0.09487">
        <ele>10</ele>
        <time>2024-03-10T11:18:03Z</time>
      </trkpt>
      <trkpt lat="49.25943" lon="-0.09487">
        <ele>10.2</ele>
        <time>2024-03-10T11:18:04Z</time>
      </trkpt>
      <trkpt lat="49.25948" lon="-0.09486">
        <ele>10.4</ele>
        <time>2024-03-10T11:18:05Z</time>
      </trkpt>
      <trkpt lat="49.25953" lon="-0.09484">
        <ele>10.6</ele>
        <time>2024-03-10T11:18:06Z</time>
      </trkpt>
      <trkpt lat="49.25958" lon="-0.09483">
        <ele>10.7</ele>
        <time>2024-03-10T11:18:07Z</time>
      </trkpt>
      <trkpt lat="49.25963" lon="-0.09481">
        <ele>10.9</ele>
        <time>2024-03-10T11:18:08Z</time>
      </trkpt>
      <trkpt lat="49.25968" lon="-0.09479">
        <ele>11.1</ele>
        <time>2024-03-10T11:18:09Z</time>
      </trkpt>
      <trkpt lat="49.25973" lon="-0.09478">
        <ele>11.3</ele>
        <time>2024-03-10T11:18:10Z</time>
      </trkpt>
      <trkpt lat="49.25978" lon="-0.09476">
        <ele>11.5</ele>
        <time>2024-03-10T11:18:11Z</time>
      </trkpt>
      <trkpt lat="49.25983" lon="-0.09475">
        <ele>11.6</ele>
        <time>2024-03-10T11:18:12Z</time>
      </trkpt>
      <trkpt lat="49.25989" lon="-0.09473">
        <ele>11.7</ele>
        <time>2024-03-10T11:18:13Z</time>
      </trkpt>
      <trkpt lat="49.25994" lon="-0.0947">
        <ele>11.8</ele>
        <time>2024-03-10T11:18:14Z</time>
      </trkpt>
      <trkpt lat="49.26" lon="-0.09468">
        <ele>11.9</ele>
        <time>2024-03-10T11:18:15Z</time>
      </trkpt>
      <trkpt lat="49.26006" lon="-0.09466">
        <ele>12</ele>
        <time>2024-03-10T11:18:16Z</time>
      </trkpt>
      <trkpt lat="49.26013" lon="-0.09465">
        <ele>12.1</ele>
        <time>2024-03-10T11:18:17Z</time>
      </trkpt>
      <trkpt lat="49.26019" lon="-0.09464">
        <ele>12.1</ele>
        <time>2024-03-10T11:18:18Z</time>
      </trkpt>
      <trkpt lat="49.26026" lon="-0.09463">
        <ele>12.1</ele>
        <time>2024-03-10T11:18:19Z</time>
      </trkpt>
      <trkpt lat="49.26032" lon="-0.09462">
        <ele>12.2</ele>
        <time>2024-03-10T11:18:20Z</time>
      </trkpt>
      <trkpt lat="49.26038" lon="-0.0946">
        <ele>12.2</ele>
        <time>2024-03-10T11:18:21Z</time>
      </trkpt>
      <trkpt lat="49.26044" lon="-0.09459">
        <ele>12.1</ele>
        <time>2024-03-10T11:18:22Z</time>
      </trkpt>
      <trkpt lat="49.26051" lon="-0.09457">
        <ele>12.1</ele>
        <time>2024-03-10T11:18:23Z</time>
      </trkpt>
      <trkpt lat="49.26058" lon="-0.09457">
        <ele>12.1</ele>
        <time>2024-03-10T11:18:24Z</time>
      </trkpt>
      <trkpt lat="49.26065" lon="-0.09456">
        <ele>12</ele>
        <time>2024-03-10T11:18:25Z</time>
      </trkpt>
      <trkpt lat="49.26072" lon="-0.09455">
        <ele>12</ele>
        <time>2024-03-10T11:18:26Z</time>
      </trkpt>
      <trkpt lat="49.26079" lon="-0.09454">
        <ele>11.9</ele>
        <time>2024-03-10T11:18:27Z</time>
      </trkpt>
      <trkpt lat="49.26086" lon="-0.09453">
        <ele>11.9</ele>
        <time>2024-03-10T11:18:28Z</time>
      </trkpt>
      <trkpt lat="49.26092" lon="-0.09451">
        <ele>11.9</ele>
        <time>2024-03-10T11:18:29Z</time>
      </trkpt>
      <trkpt lat="49.26099" lon="-0.09449">
        <ele>11.9</ele>
        <time>2024-03-10T11:18:30Z</time>
      </trkpt>
      <trkpt lat="49.26106" lon="-0.09447">
        <ele>11.9</ele>
        <time>2024-03-10T11:18:31Z</time>
      </trkpt>
      <trkpt lat="49.26113" lon="-0.09445">
        <ele>11.9</ele>
        <time>2024-03-10T11:18:32Z</time>
      </trkpt>
      <trkpt lat="49.2612" lon="-0.09444">
        <ele>11.8</ele>
        <time>2024-03-10T11:18:33Z</time>
      </trkpt>
      <trkpt lat="49.26127" lon="-0.09442">
        <ele>11.8</ele>
        <time>2024-03-10T11:18:34Z</time>
      </trkpt>
      <trkpt lat="49.26134" lon="-0.09441">
        <ele>11.8</ele>
        <time>2024-03-10T11:18:35Z</time>
      </trkpt>
      <trkpt lat="49.26141" lon="-0.09441">
        <ele>11.7</ele>
        <time>2024-03-10T11:18:36Z</time>
      </trkpt>
      <trkpt lat="49.26148" lon="-0.0944">
        <ele>11.7</ele>
        <time>2024-03-10T11:18:37Z</time>
      </trkpt>
      <trkpt lat="49.26155" lon="-0.09441">
        <ele>11.6</ele>
        <time>2024-03-10T11:18:38Z</time>
      </trkpt>
      <trkpt lat="49.26162" lon="-0.09443">
        <ele>11.5</ele>
        <time>2024-03-10T11:18:39Z</time>
      </trkpt>
      <trkpt lat="49.26168" lon="-0.09446">
        <ele>11.3</ele>
        <time>2024-03-10T11:18:40Z</time>
      </trkpt>
      <trkpt lat="49.26175" lon="-0.0945">
        <ele>11.2</ele>
        <time>2024-03-10T11:18:41Z</time>
      </trkpt>
      <trkpt lat="49.26182" lon="-0.09455">
        <ele>11.1</ele>
        <time>2024-03-10T11:18:42Z</time>
      </trkpt>
      <trkpt lat="49.26188" lon="-0.0946">
        <ele>11.1</ele>
        <time>2024-03-10T11:18:43Z</time>
      </trkpt>
      <trkpt lat="49.26196" lon="-0.09463">
        <ele>11</ele>
        <time>2024-03-10T11:18:44Z</time>
      </trkpt>
      <trkpt lat="49.26203" lon="-0.09466">
        <ele>11</ele>
        <time>2024-03-10T11:18:45Z</time>
      </trkpt>
      <trkpt lat="49.26211" lon="-0.09467">
        <ele>11</ele>
        <time>2024-03-10T11:18:46Z</time>
      </trkpt>
      <trkpt lat="49.26218" lon="-0.09467">
        <ele>10.9</ele>
        <time>2024-03-10T11:18:47Z</time>
      </trkpt>
      <trkpt lat="49.26225" lon="-0.09466">
        <ele>10.9</ele>
        <time>2024-03-10T11:18:48Z</time>
      </trkpt>
      <trkpt lat="49.26231" lon="-0.09463">
        <ele>10.9</ele>
        <time>2024-03-10T11:18:49Z</time>
      </trkpt>
      <trkpt lat="49.26238" lon="-0.09459">
        <ele>11</ele>
        <time>2024-03-10T11:18:50Z</time>
      </trkpt>
      <trkpt lat="49.26244" lon="-0.09456">
        <ele>11.1</ele>
        <time>2024-03-10T11:18:51Z</time>
      </trkpt>
      <trkpt lat="49.2625" lon="-0.09453">
        <ele>11.3</ele>
        <time>2024-03-10T11:18:52Z</time>
      </trkpt>
      <trkpt lat="49.26256" lon="-0.09449">
        <ele>11.4</ele>
        <time>2024-03-10T11:18:53Z</time>
      </trkpt>
      <trkpt lat="49.26262" lon="-0.09446">
        <ele>11.6</ele>
        <time>2024-03-10T11:18:54Z</time>
      </trkpt>
      <trkpt lat="49.26267" lon="-0.09442">
        <ele>11.8</ele>
        <time>2024-03-10T11:18:55Z</time>
      </trkpt>
      <trkpt lat="49.26273" lon="-0.09439">
        <ele>11.9</ele>
        <time>2024-03-10T11:18:56Z</time>
      </trkpt>
      <trkpt lat="49.26278" lon="-0.09435">
        <ele>12.1</ele>
        <time>2024-03-10T11:18:57Z</time>
      </trkpt>
      <trkpt lat="49.26283" lon="-0.09432">
        <ele>12.3</ele>
        <time>2024-03-10T11:18:58Z</time>
      </trkpt>
      <trkpt lat="49.26289" lon="-0.09429">
        <ele>12.5</ele>
        <time>2024-03-10T11:18:59Z</time>
      </trkpt>
      <trkpt lat="49.26294" lon="-0.09426">
        <ele>12.7</ele>
        <time>2024-03-10T11:19:00Z</time>
      </trkpt>
      <trkpt lat="49.26299" lon="-0.09423">
        <ele>12.9</ele>
        <time>2024-03-10T11:19:01Z</time>
      </trkpt>
      <trkpt lat="49.26305" lon="-0.09421">
        <ele>13.1</ele>
        <time>2024-03-10T11:19:02Z</time>
      </trkpt>
      <trkpt lat="49.2631" lon="-0.09419">
        <ele>13.3</ele>
        <time>2024-03-10T11:19:03Z</time>
      </trkpt>
      <trkpt lat="49.26316" lon="-0.09417">
        <ele>13.5</ele>
        <time>2024-03-10T11:19:04Z</time>
      </trkpt>
      <trkpt lat="49.26321" lon="-0.09416">
        <ele>13.6</ele>
        <time>2024-03-10T11:19:05Z</time>
      </trkpt>
      <trkpt lat="49.26326" lon="-0.09415">
        <ele>13.8</ele>
        <time>2024-03-10T11:19:06Z</time>
      </trkpt>
      <trkpt lat="49.26332" lon="-0.09413">
        <ele>14</ele>
        <time>2024-03-10T11:19:07Z</time>
      </trkpt>
      <trkpt lat="49.26339" lon="-0.09412">
        <ele>14.2</ele>
        <time>2024-03-10T11:19:08Z</time>
      </trkpt>
      <trkpt lat="49.26346" lon="-0.09412">
        <ele>14.4</ele>
        <time>2024-03-10T11:19:09Z</time>
      </trkpt>
      <trkpt lat="49.26353" lon="-0.09411">
        <ele>14.6</ele>
        <time>2024-03-10T11:19:10Z</time>
      </trkpt>
      <trkpt lat="49.2636" lon="-0.09411">
        <ele>14.8</ele>
        <time>2024-03-10T11:19:11Z</time>
      </trkpt>
      <trkpt lat="49.26367" lon="-0.09411">
        <ele>15</ele>
        <time>2024-03-10T11:19:12Z</time>
      </trkpt>
      <trkpt lat="49.26373" lon="-0.09412">
        <ele>15.1</ele>
        <time>2024-03-10T11:19:13Z</time>
      </trkpt>
      <trkpt lat="49.2638" lon="-0.09411">
        <ele>15.2</ele>
        <time>2024-03-10T11:19:14Z</time>
      </trkpt>
      <trkpt lat="49.26387" lon="-0.09411">
        <ele>15.4</ele>
        <time>2024-03-10T11:19:15Z</time>
      </trkpt>
      <trkpt lat="49.26394" lon="-0.09412">
        <ele>15.5</ele>
        <time>2024-03-10T11:19:16Z</time>
      </trkpt>
      <trkpt lat="49.26401" lon="-0.09412">
        <ele>15.6</ele>
        <time>2024-03-10T11:19:17Z</time>
      </trkpt>
      <trkpt lat="49.26407" lon="-0.09412">
        <ele>15.7</ele>
        <time>2024-03-10T11:19:18Z</time>
      </trkpt>
      <trkpt lat="49.26414" lon="-0.09413">
        <ele>15.7</ele>
        <time>2024-03-10T11:19:19Z</time>
      </trkpt>
      <trkpt lat="49.26421" lon="-0.09413">
        <ele>15.8</ele>
        <time>2024-03-10T11:19:20Z</time>
      </trkpt>
      <trkpt lat="49.26427" lon="-0.09413">
        <ele>15.8</ele>
        <time>2024-03-10T11:19:21Z</time>
      </trkpt>
      <trkpt lat="49.26434" lon="-0.09414">
        <ele>15.8</ele>
        <time>2024-03-10T11:19:22Z</time>
      </trkpt>
      <trkpt lat="49.26441" lon="-0.09415">
        <ele>15.8</ele>
        <time>2024-03-10T11:19:23Z</time>
      </trkpt>
      <trkpt lat="49.26448" lon="-0.09415">
        <ele>15.8</ele>
        <time>2024-03-10T11:19:24Z</time>
      </trkpt>
      <trkpt lat="49.26455" lon="-0.09416">
        <ele>15.7</ele>
        <time>2024-03-10T11:19:25Z</time>
      </trkpt>
      <trkpt lat="49.26462" lon="-0.09416">
        <ele>15.7</ele>
        <time>2024-03-10T11:19:26Z</time>
      </trkpt>
      <trkpt lat="49.26468" lon="-0.09416">
        <ele>15.7</ele>
        <time>2024-03-10T11:19:27Z</time>
      </trkpt>
      <trkpt lat="49.26475" lon="-0.09416">
        <ele>15.6</ele>
        <time>2024-03-10T11:19:28Z</time>
      </trkpt>
      <trkpt lat="49.26482" lon="-0.09416">
        <ele>15.5</ele>
        <time>2024-03-10T11:19:29Z</time>
      </trkpt>
      <trkpt lat="49.26488" lon="-0.09417">
        <ele>15.5</ele>
        <time>2024-03-10T11:19:30Z</time>
      </trkpt>
      <trkpt lat="49.26495" lon="-0.09417">
        <ele>15.4</ele>
        <time>2024-03-10T11:19:31Z</time>
      </trkpt>
      <trkpt lat="49.26501" lon="-0.09417">
        <ele>15.2</ele>
        <time>2024-03-10T11:19:32Z</time>
      </trkpt>
      <trkpt lat="49.26508" lon="-0.09417">
        <ele>15.1</ele>
        <time>2024-03-10T11:19:33Z</time>
      </trkpt>
      <trkpt lat="49.26516" lon="-0.09417">
        <ele>14.9</ele>
        <time>2024-03-10T11:19:34Z</time>
      </trkpt>
      <trkpt lat="49.26523" lon="-0.09416">
        <ele>14.8</ele>
        <time>2024-03-10T11:19:35Z</time>
      </trkpt>
      <trkpt lat="49.2653" lon="-0.09416">
        <ele>14.6</ele>
        <time>2024-03-10T11:19:36Z</time>
      </trkpt>
      <trkpt lat="49.26537" lon="-0.09417">
        <ele>14.4</ele>
        <time>2024-03-10T11:19:37Z</time>
      </trkpt>
      <trkpt lat="49.26545" lon="-0.09416">
        <ele>14.2</ele>
        <time>2024-03-10T11:19:38Z</time>
      </trkpt>
      <trkpt lat="49.26552" lon="-0.09416">
        <ele>13.9</ele>
        <time>2024-03-10T11:19:39Z</time>
      </trkpt>
      <trkpt lat="49.26559" lon="-0.09416">
        <ele>13.5</ele>
        <time>2024-03-10T11:19:40Z</time>
      </trkpt>
      <trkpt lat="49.26566" lon="-0.09416">
        <ele>13.1</ele>
        <time>2024-03-10T11:19:41Z</time>
      </trkpt>
      <trkpt lat="49.26574" lon="-0.09417">
        <ele>12.7</ele>
        <time>2024-03-10T11:19:42Z</time>
      </trkpt>
      <trkpt lat="49.26583" lon="-0.09417">
        <ele>12.1</ele>
        <time>2024-03-10T11:19:43Z</time>
      </trkpt>
      <trkpt lat="49.26591" lon="-0.09417">
        <ele>11.7</ele>
        <time>2024-03-10T11:19:44Z</time>
      </trkpt>
      <trkpt lat="49.26599" lon="-0.09417">
        <ele>11.2</ele>
        <time>2024-03-10T11:19:45Z</time>
      </trkpt>
      <trkpt lat="49.26608" lon="-0.09418">
        <ele>10.7</ele>
        <time>2024-03-10T11:19:46Z</time>
      </trkpt>
      <trkpt lat="49.26617" lon="-0.09418">
        <ele>10.3</ele>
        <time>2024-03-10T11:19:47Z</time>
      </trkpt>
      <trkpt lat="49.26626" lon="-0.09419">
        <ele>9.8</ele>
        <time>2024-03-10T11:19:48Z</time>
      </trkpt>
      <trkpt lat="49.26635" lon="-0.09419">
        <ele>9.4</ele>
        <time>2024-03-10T11:19:49Z</time>
      </trkpt>
      <trkpt lat="49.26644" lon="-0.09419">
        <ele>9</ele>
        <time>2024-03-10T11:19:50Z</time>
      </trkpt>
      <trkpt lat="49.26653" lon="-0.0942">
        <ele>8.6</ele>
        <time>2024-03-10T11:19:51Z</time>
      </trkpt>
      <trkpt lat="49.26663" lon="-0.0942">
        <ele>8.3</ele>
        <time>2024-03-10T11:19:52Z</time>
      </trkpt>
      <trkpt lat="49.26672" lon="-0.0942">
        <ele>8.1</ele>
        <time>2024-03-10T11:19:53Z</time>
      </trkpt>
      <trkpt lat="49.26681" lon="-0.0942">
        <ele>8</ele>
        <time>2024-03-10T11:19:54Z</time>
      </trkpt>
      <trkpt lat="49.2669" lon="-0.09421">
        <ele>7.9</ele>
        <time>2024-03-10T11:19:55Z</time>
      </trkpt>
      <trkpt lat="49.26698" lon="-0.0942">
        <ele>8</ele>
        <time>2024-03-10T11:19:56Z</time>
      </trkpt>
      <trkpt lat="49.26707" lon="-0.0942">
        <ele>8</ele>
        <time>2024-03-10T11:19:57Z</time>
      </trkpt>
      <trkpt lat="49.26714" lon="-0.0942">
        <ele>8.2</ele>
        <time>2024-03-10T11:19:58Z</time>
      </trkpt>
      <trkpt lat="49.26722" lon="-0.0942">
        <ele>8.3</ele>
        <time>2024-03-10T11:19:59Z</time>
      </trkpt>
      <trkpt lat="49.2673" lon="-0.0942">
        <ele>8.4</ele>
        <time>2024-03-10T11:20:00Z</time>
      </trkpt>
      <trkpt lat="49.26737" lon="-0.09421">
        <ele>8.6</ele>
        <time>2024-03-10T11:20:01Z</time>
      </trkpt>
      <trkpt lat="49.26744" lon="-0.09421">
        <ele>8.8</ele>
        <time>2024-03-10T11:20:02Z</time>
      </trkpt>
      <trkpt lat="49.26751" lon="-0.09422">
        <ele>9.1</ele>
        <time>2024-03-10T11:20:03Z</time>
      </trkpt>
      <trkpt lat="49.26758" lon="-0.09421">
        <ele>9.3</ele>
        <time>2024-03-10T11:20:04Z</time>
      </trkpt>
      <trkpt lat="49.26764" lon="-0.09421">
        <ele>9.6</ele>
        <time>2024-03-10T11:20:05Z</time>
      </trkpt>
      <trkpt lat="49.2677" lon="-0.09421">
        <ele>9.9</ele>
        <time>2024-03-10T11:20:06Z</time>
      </trkpt>
      <trkpt lat="49.26777" lon="-0.09421">
        <ele>10.2</ele>
        <time>2024-03-10T11:20:07Z</time>
      </trkpt>
      <trkpt lat="49.26782" lon="-0.09421">
        <ele>10.5</ele>
        <time>2024-03-10T11:20:08Z</time>
      </trkpt>
      <trkpt lat="49.26788" lon="-0.0942">
        <ele>10.8</ele>
        <time>2024-03-10T11:20:09Z</time>
      </trkpt>
      <trkpt lat="49.26794" lon="-0.09421">
        <ele>11.1</ele>
        <time>2024-03-10T11:20:10Z</time>
      </trkpt>
      <trkpt lat="49.268" lon="-0.09421">
        <ele>11.3</ele>
        <time>2024-03-10T11:20:11Z</time>
      </trkpt>
      <trkpt lat="49.26806" lon="-0.09422">
        <ele>11.6</ele>
        <time>2024-03-10T11:20:12Z</time>
      </trkpt>
      <trkpt lat="49.26812" lon="-0.09421">
        <ele>11.9</ele>
        <time>2024-03-10T11:20:13Z</time>
      </trkpt>
      <trkpt lat="49.26818" lon="-0.09421">
        <ele>12.3</ele>
        <time>2024-03-10T11:20:14Z</time>
      </trkpt>
      <trkpt lat="49.26824" lon="-0.09421">
        <ele>12.6</ele>
        <time>2024-03-10T11:20:15Z</time>
      </trkpt>
      <trkpt lat="49.2683" lon="-0.0942">
        <ele>13</ele>
        <time>2024-03-10T11:20:16Z</time>
      </trkpt>
      <trkpt lat="49.26837" lon="-0.0942">
        <ele>13.4</ele>
        <time>2024-03-10T11:20:17Z</time>
      </trkpt>
      <trkpt lat="49.26844" lon="-0.09419">
        <ele>13.8</ele>
        <time>2024-03-10T11:20:18Z</time>
      </trkpt>
      <trkpt lat="49.26851" lon="-0.09419">
        <ele>14.2</ele>
        <time>2024-03-10T11:20:19Z</time>
      </trkpt>
      <trkpt lat="49.26858" lon="-0.09418">
        <ele>14.6</ele>
        <time>2024-03-10T11:20:20Z</time>
      </trkpt>
      <trkpt lat="49.26866" lon="-0.09418">
        <ele>15.1</ele>
        <time>2024-03-10T11:20:21Z</time>
      </trkpt>
      <trkpt lat="49.26873" lon="-0.09417">
        <ele>15.5</ele>
        <time>2024-03-10T11:20:22Z</time>
      </trkpt>
      <trkpt lat="49.26881" lon="-0.09417">
        <ele>15.9</ele>
        <time>2024-03-10T11:20:23Z</time>
      </trkpt>
      <trkpt lat="49.26888" lon="-0.09417">
        <ele>16.4</ele>
        <time>2024-03-10T11:20:24Z</time>
      </trkpt>
      <trkpt lat="49.26894" lon="-0.09417">
        <ele>16.7</ele>
        <time>2024-03-10T11:20:25Z</time>
      </trkpt>
      <trkpt lat="49.26901" lon="-0.09417">
        <ele>17.1</ele>
        <time>2024-03-10T11:20:26Z</time>
      </trkpt>
      <trkpt lat="49.26908" lon="-0.09416">
        <ele>17.5</ele>
        <time>2024-03-10T11:20:27Z</time>
      </trkpt>
      <trkpt lat="49.26914" lon="-0.09416">
        <ele>17.9</ele>
        <time>2024-03-10T11:20:28Z</time>
      </trkpt>
      <trkpt lat="49.2692" lon="-0.09416">
        <ele>18.3</ele>
        <time>2024-03-10T11:20:29Z</time>
      </trkpt>
      <trkpt lat="49.26927" lon="-0.09416">
        <ele>18.7</ele>
        <time>2024-03-10T11:20:30Z</time>
      </trkpt>
      <trkpt lat="49.26933" lon="-0.09415">
        <ele>19.1</ele>
        <time>2024-03-10T11:20:31Z</time>
      </trkpt>
      <trkpt lat="49.2694" lon="-0.09415">
        <ele>19.5</ele>
        <time>2024-03-10T11:20:32Z</time>
      </trkpt>
      <trkpt lat="49.26947" lon="-0.09414">
        <ele>19.8</ele>
        <time>2024-03-10T11:20:33Z</time>
      </trkpt>
      <trkpt lat="49.26954" lon="-0.09414">
        <ele>20.2</ele>
        <time>2024-03-10T11:20:34Z</time>
      </trkpt>
      <trkpt lat="49.2696" lon="-0.09413">
        <ele>20.7</ele>
        <time>2024-03-10T11:20:35Z</time>
      </trkpt>
      <trkpt lat="49.26966" lon="-0.09413">
        <ele>21</ele>
        <time>2024-03-10T11:20:36Z</time>
      </trkpt>
      <trkpt lat="49.26972" lon="-0.09412">
        <ele>21.3</ele>
        <time>2024-03-10T11:20:37Z</time>
      </trkpt>
      <trkpt lat="49.26978" lon="-0.09412">
        <ele>21.6</ele>
        <time>2024-03-10T11:20:38Z</time>
      </trkpt>
      <trkpt lat="49.26984" lon="-0.09412">
        <ele>21.9</ele>
        <time>2024-03-10T11:20:39Z</time>
      </trkpt>
      <trkpt lat="49.26991" lon="-0.09412">
        <ele>22.1</ele>
        <time>2024-03-10T11:20:40Z</time>
      </trkpt>
      <trkpt lat="49.26997" lon="-0.09412">
        <ele>22.3</ele>
        <time>2024-03-10T11:20:41Z</time>
      </trkpt>
      <trkpt lat="49.27003" lon="-0.09412">
        <ele>22.5</ele>
        <time>2024-03-10T11:20:42Z</time>
      </trkpt>
      <trkpt lat="49.2701" lon="-0.09413">
        <ele>22.6</ele>
        <time>2024-03-10T11:20:43Z</time>
      </trkpt>
      <trkpt lat="49.27016" lon="-0.09413">
        <ele>22.6</ele>
        <time>2024-03-10T11:20:44Z</time>
      </trkpt>
      <trkpt lat="49.27022" lon="-0.09414">
        <ele>22.6</ele>
        <time>2024-03-10T11:20:45Z</time>
      </trkpt>
      <trkpt lat="49.27029" lon="-0.09416">
        <ele>22.6</ele>
        <time>2024-03-10T11:20:46Z</time>
      </trkpt>
      <trkpt lat="49.27035" lon="-0.09419">
        <ele>22.5</ele>
        <time>2024-03-10T11:20:47Z</time>
      </trkpt>
      <trkpt lat="49.27041" lon="-0.09422">
        <ele>22.4</ele>
        <time>2024-03-10T11:20:48Z</time>
      </trkpt>
      <trkpt lat="49.27047" lon="-0.09427">
        <ele>22.3</ele>
        <time>2024-03-10T11:20:49Z</time>
      </trkpt>
      <trkpt lat="49.27053" lon="-0.09431">
        <ele>22.1</ele>
        <time>2024-03-10T11:20:50Z</time>
      </trkpt>
      <trkpt lat="49.27058" lon="-0.09437">
        <ele>22</ele>
        <time>2024-03-10T11:20:51Z</time>
      </trkpt>
      <trkpt lat="49.27064" lon="-0.09443">
        <ele>21.8</ele>
        <time>2024-03-10T11:20:52Z</time>
      </trkpt>
      <trkpt lat="49.27069" lon="-0.09448">
        <ele>21.7</ele>
        <time>2024-03-10T11:20:53Z</time>
      </trkpt>
      <trkpt lat="49.27075" lon="-0.09454">
        <ele>21.5</ele>
        <time>2024-03-10T11:20:54Z</time>
      </trkpt>
      <trkpt lat="49.27081" lon="-0.09459">
        <ele>21.3</ele>
        <time>2024-03-10T11:20:55Z</time>
      </trkpt>
      <trkpt lat="49.27087" lon="-0.09464">
        <ele>21.1</ele>
        <time>2024-03-10T11:20:56Z</time>
      </trkpt>
      <trkpt lat="49.27093" lon="-0.09468">
        <ele>20.8</ele>
        <time>2024-03-10T11:20:57Z</time>
      </trkpt>
      <trkpt lat="49.27099" lon="-0.09471">
        <ele>20.6</ele>
        <time>2024-03-10T11:20:58Z</time>
      </trkpt>
      <trkpt lat="49.27106" lon="-0.09474">
        <ele>20.3</ele>
        <time>2024-03-10T11:20:59Z</time>
      </trkpt>
      <trkpt lat="49.27112" lon="-0.09478">
        <ele>20</ele>
        <time>2024-03-10T11:21:00Z</time>
      </trkpt>
      <trkpt lat="49.27119" lon="-0.09481">
        <ele>19.7</ele>
        <time>2024-03-10T11:21:01Z</time>
      </trkpt>
      <trkpt lat="49.27126" lon="-0.09484">
        <ele>19.4</ele>
        <time>2024-03-10T11:21:02Z</time>
      </trkpt>
      <trkpt lat="49.27132" lon="-0.09487">
        <ele>19</ele>
        <time>2024-03-10T11:21:03Z</time>
      </trkpt>
      <trkpt lat="49.27139" lon="-0.0949">
        <ele>18.6</ele>
        <time>2024-03-10T11:21:04Z</time>
      </trkpt>
      <trkpt lat="49.27147" lon="-0.09495">
        <ele>18.2</ele>
        <time>2024-03-10T11:21:05Z</time>
      </trkpt>
      <trkpt lat="49.27155" lon="-0.09499">
        <ele>17.7</ele>
        <time>2024-03-10T11:21:06Z</time>
      </trkpt>
      <trkpt lat="49.27163" lon="-0.09505">
        <ele>17.2</ele>
        <time>2024-03-10T11:21:07Z</time>
      </trkpt>
      <trkpt lat="49.27171" lon="-0.0951">
        <ele>16.6</ele>
        <time>2024-03-10T11:21:08Z</time>
      </trkpt>
      <trkpt lat="49.27179" lon="-0.09515">
        <ele>16.1</ele>
        <time>2024-03-10T11:21:09Z</time>
      </trkpt>
      <trkpt lat="49.27187" lon="-0.0952">
        <ele>15.6</ele>
        <time>2024-03-10T11:21:10Z</time>
      </trkpt>
      <trkpt lat="49.27195" lon="-0.09524">
        <ele>15.1</ele>
        <time>2024-03-10T11:21:11Z</time>
      </trkpt>
      <trkpt lat="49.27204" lon="-0.09527">
        <ele>14.6</ele>
        <time>2024-03-10T11:21:12Z</time>
      </trkpt>
      <trkpt lat="49.27213" lon="-0.09529">
        <ele>14</ele>
        <time>2024-03-10T11:21:13Z</time>
      </trkpt>
      <trkpt lat="49.27223" lon="-0.09531">
        <ele>13.5</ele>
        <time>2024-03-10T11:21:14Z</time>
      </trkpt>
      <trkpt lat="49.27233" lon="-0.09532">
        <ele>13</ele>
        <time>2024-03-10T11:21:15Z</time>
      </trkpt>
      <trkpt lat="49.27242" lon="-0.09534">
        <ele>12.5</ele>
        <time>2024-03-10T11:21:16Z</time>
      </trkpt>
      <trkpt lat="49.27252" lon="-0.09537">
        <ele>12</ele>
        <time>2024-03-10T11:21:17Z</time>
      </trkpt>
      <trkpt lat="49.27262" lon="-0.0954">
        <ele>11.6</ele>
        <time>2024-03-10T11:21:18Z</time>
      </trkpt>
      <trkpt lat="49.27271" lon="-0.09542">
        <ele>11.1</ele>
        <time>2024-03-10T11:21:19Z</time>
      </trkpt>
      <trkpt lat="49.27281" lon="-0.09544">
        <ele>10.7</ele>
        <time>2024-03-10T11:21:20Z</time>
      </trkpt>
      <trkpt lat="49.27291" lon="-0.09546">
        <ele>10.3</ele>
        <time>2024-03-10T11:21:21Z</time>
      </trkpt>
      <trkpt lat="49.273" lon="-0.09549">
        <ele>10</ele>
        <time>2024-03-10T11:21:22Z</time>
      </trkpt>
      <trkpt lat="49.27309" lon="-0.09551">
        <ele>9.6</ele>
        <time>2024-03-10T11:21:23Z</time>
      </trkpt>
      <trkpt lat="49.27319" lon="-0.09553">
        <ele>9.2</ele>
        <time>2024-03-10T11:21:24Z</time>
      </trkpt>
      <trkpt lat="49.27328" lon="-0.09555">
        <ele>8.9</ele>
        <time>2024-03-10T11:21:25Z</time>
      </trkpt>
      <trkpt lat="49.27337" lon="-0.09558">
        <ele>8.5</ele>
        <time>2024-03-10T11:21:26Z</time>
      </trkpt>
      <trkpt lat="49.27346" lon="-0.0956">
        <ele>8.2</ele>
        <time>2024-03-10T11:21:27Z</time>
      </trkpt>
      <trkpt lat="49.27355" lon="-0.09562">
        <ele>7.9</ele>
        <time>2024-03-10T11:21:28Z</time>
      </trkpt>
      <trkpt lat="49.27365" lon="-0.09565">
        <ele>7.6</ele>
        <time>2024-03-10T11:21:29Z</time>
      </trkpt>
      <trkpt lat="49.27374" lon="-0.09568">
        <ele>7.3</ele>
        <time>2024-03-10T11:21:30Z</time>
      </trkpt>
      <trkpt lat="49.27383" lon="-0.09571">
        <ele>6.9</ele>
        <time>2024-03-10T11:21:31Z</time>
      </trkpt>
      <trkpt lat="49.27392" lon="-0.09575">
        <ele>6.6</ele>
        <time>2024-03-10T11:21:32Z</time>
      </trkpt>
      <trkpt lat="49.27401" lon="-0.09579">
        <ele>6.4</ele>
        <time>2024-03-10T11:21:33Z</time>
      </trkpt>
      <trkpt lat="49.27411" lon="-0.09581">
        <ele>6.1</ele>
        <time>2024-03-10T11:21:34Z</time>
      </trkpt>
      <trkpt lat="49.2742" lon="-0.09582">
        <ele>5.9</ele>
        <time>2024-03-10T11:21:35Z</time>
      </trkpt>
      <trkpt lat="49.27429" lon="-0.09581">
        <ele>5.8</ele>
        <time>2024-03-10T11:21:36Z</time>
      </trkpt>
      <trkpt lat="49.27439" lon="-0.09581">
        <ele>5.7</ele>
        <time>2024-03-10T11:21:37Z</time>
      </trkpt>
      <trkpt lat="49.27448" lon="-0.0958">
        <ele>5.6</ele>
        <time>2024-03-10T11:21:38Z</time>
      </trkpt>
      <trkpt lat="49.27457" lon="-0.09578">
        <ele>5.6</ele>
        <time>2024-03-10T11:21:39Z</time>
      </trkpt>
      <trkpt lat="49.27466" lon="-0.09577">
        <ele>5.5</ele>
        <time>2024-03-10T11:21:40Z</time>
      </trkpt>
      <trkpt lat="49.27474" lon="-0.09575">
        <ele>5.4</ele>
        <time>2024-03-10T11:21:41Z</time>
      </trkpt>
      <trkpt lat="49.27482" lon="-0.09574">
        <ele>5.3</ele>
        <time>2024-03-10T11:21:42Z</time>
      </trkpt>
      <trkpt lat="49.2749" lon="-0.09572">
        <ele>5.2</ele>
        <time>2024-03-10T11:21:43Z</time>
      </trkpt>
      <trkpt lat="49.27499" lon="-0.09571">
        <ele>5.2</ele>
        <time>2024-03-10T11:21:44Z</time>
      </trkpt>
      <trkpt lat="49.27506" lon="-0.09569">
        <ele>5.2</ele>
        <time>2024-03-10T11:21:45Z</time>
      </trkpt>
      <trkpt lat="49.27514" lon="-0.09568">
        <ele>5.1</ele>
        <time>2024-03-10T11:21:46Z</time>
      </trkpt>
      <trkpt lat="49.27521" lon="-0.09566">
        <ele>5.1</ele>
        <time>2024-03-10T11:21:47Z</time>
      </trkpt>
      <trkpt lat="49.27528" lon="-0.09565">
        <ele>5.1</ele>
        <time>2024-03-10T11:21:48Z</time>
      </trkpt>
      <trkpt lat="49.27535" lon="-0.09562">
        <ele>5.1</ele>
        <time>2024-03-10T11:21:49Z</time>
      </trkpt>
      <trkpt lat="49.27541" lon="-0.09559">
        <ele>5.1</ele>
        <time>2024-03-10T11:21:50Z</time>
      </trkpt>
      <trkpt lat="49.27547" lon="-0.09556">
        <ele>5.1</ele>
        <time>2024-03-10T11:21:51Z</time>
      </trkpt>
      <trkpt lat="49.27552" lon="-0.09554">
        <ele>5.2</ele>
        <time>2024-03-10T11:21:52Z</time>
      </trkpt>
      <trkpt lat="49.27555" lon="-0.09552">
        <ele>5.2</ele>
        <time>2024-03-10T11:21:53Z</time>
      </trkpt>
      <trkpt lat="49.27559" lon="-0.0955">
        <ele>5.2</ele>
        <time>2024-03-10T11:21:54Z</time>
      </trkpt>
      <trkpt lat="49.2756" lon="-0.09549">
        <ele>5.2</ele>
        <time>2024-03-10T11:21:55Z</time>
      </trkpt>
      <trkpt lat="49.27564" lon="-0.09548">
        <ele>5.2</ele>
        <time>2024-03-10T11:21:56Z</time>
      </trkpt>
      <trkpt lat="49.27567" lon="-0.09548">
        <ele>5.2</ele>
        <time>2024-03-10T11:21:57Z</time>
      </trkpt>
      <trkpt lat="49.27572" lon="-0.09548">
        <ele>5.2</ele>
        <time>2024-03-10T11:21:58Z</time>
      </trkpt>
      <trkpt lat="49.27576" lon="-0.09548">
        <ele>5.2</ele>
        <time>2024-03-10T11:21:59Z</time>
      </trkpt>
      <trkpt lat="49.2758" lon="-0.09547">
        <ele>5.2</ele>
        <time>2024-03-10T11:22:00Z</time>
      </trkpt>
      <trkpt lat="49.27585" lon="-0.09546">
        <ele>5.1</ele>
        <time>2024-03-10T11:22:01Z</time>
      </trkpt>
      <trkpt lat="49.27589" lon="-0.09545">
        <ele>5.1</ele>
        <time>2024-03-10T11:22:02Z</time>
      </trkpt>
      <trkpt lat="49.27593" lon="-0.09544">
        <ele>5</ele>
        <time>2024-03-10T11:22:03Z</time>
      </trkpt>
      <trkpt lat="49.27598" lon="-0.09544">
        <ele>5</ele>
        <time>2024-03-10T11:22:04Z</time>
      </trkpt>
      <trkpt lat="49.27603" lon="-0.09543">
        <ele>5</ele>
        <time>2024-03-10T11:22:05Z</time>
      </trkpt>
      <trkpt lat="49.27607" lon="-0.09543">
        <ele>4.9</ele>
        <time>2024-03-10T11:22:06Z</time>
      </trkpt>
      <trkpt lat="49.27612" lon="-0.09542">
        <ele>4.9</ele>
        <time>2024-03-10T11:22:07Z</time>
      </trkpt>
      <trkpt lat="49.27616" lon="-0.09542">
        <ele>4.9</ele>
        <time>2024-03-10T11:22:08Z</time>
      </trkpt>
      <trkpt lat="49.27621" lon="-0.09542">
        <ele>4.9</ele>
        <time>2024-03-10T11:22:09Z</time>
      </trkpt>
      <trkpt lat="49.27625" lon="-0.09542">
        <ele>4.9</ele>
        <time>2024-03-10T11:22:10Z</time>
      </trkpt>
      <trkpt lat="49.27629" lon="-0.09541">
        <ele>5</ele>
        <time>2024-03-10T11:22:11Z</time>
      </trkpt>
      <trkpt lat="49.27634" lon="-0.0954">
        <ele>5</ele>
        <time>2024-03-10T11:22:12Z</time>
      </trkpt>
      <trkpt lat="49.27638" lon="-0.0954">
        <ele>5</ele>
        <time>2024-03-10T11:22:13Z</time>
      </trkpt>
      <trkpt lat="49.27642" lon="-0.09539">
        <ele>5</ele>
        <time>2024-03-10T11:22:14Z</time>
      </trkpt>
      <trkpt lat="49.27647" lon="-0.09539">
        <ele>5.1</ele>
        <time>2024-03-10T11:22:15Z</time>
      </trkpt>
      <trkpt lat="49.27651" lon="-0.09538">
        <ele>5.1</ele>
        <time>2024-03-10T11:22:16Z</time>
      </trkpt>
      <trkpt lat="49.27656" lon="-0.09538">
        <ele>5.1</ele>
        <time>2024-03-10T11:22:17Z</time>
      </trkpt>
      <trkpt lat="49.27661" lon="-0.09538">
        <ele>5.1</ele>
        <time>2024-03-10T11:22:18Z</time>
      </trkpt>
      <trkpt lat="49.27666" lon="-0.09539">
        <ele>5.1</ele>
        <time>2024-03-10T11:22:19Z</time>
      </trkpt>
      <trkpt lat="49.2767" lon="-0.09539">
        <ele>5.1</ele>
        <time>2024-03-10T11:22:20Z</time>
      </trkpt>
      <trkpt lat="49.27675" lon="-0.0954">
        <ele>5.1</ele>
        <time>2024-03-10T11:22:21Z</time>
      </trkpt>
      <trkpt lat="49.2768" lon="-0.0954">
        <ele>5.1</ele>
        <time>2024-03-10T11:22:22Z</time>
      </trkpt>
      <trkpt lat="49.27686" lon="-0.0954">
        <ele>5.1</ele>
        <time>2024-03-10T11:22:23Z</time>
      </trkpt>
      <trkpt lat="49.2769" lon="-0.0954">
        <ele>5.1</ele>
        <time>2024-03-10T11:22:24Z</time>
      </trkpt>
      <trkpt lat="49.27695" lon="-0.09539">
        <ele>5.1</ele>
        <time>2024-03-10T11:22:25Z</time>
      </trkpt>
      <trkpt lat="49.27701" lon="-0.09538">
        <ele>5.1</ele>
        <time>2024-03-10T11:22:26Z</time>
      </trkpt>
      <trkpt lat="49.27706" lon="-0.09537">
        <ele>5.1</ele>
        <time>2024-03-10T11:22:27Z</time>
      </trkpt>
      <trkpt lat="49.27711" lon="-0.09536">
        <ele>5.1</ele>
        <time>2024-03-10T11:22:28Z</time>
      </trkpt>
      <trkpt lat="49.27716" lon="-0.09534">
        <ele>5.1</ele>
        <time>2024-03-10T11:22:29Z</time>
      </trkpt>
      <trkpt lat="49.27721" lon="-0.09534">
        <ele>5.1</ele>
        <time>2024-03-10T11:22:30Z</time>
      </trkpt>
      <trkpt lat="49.27727" lon="-0.09533">
        <ele>5.1</ele>
        <time>2024-03-10T11:22:31Z</time>
      </trkpt>
      <trkpt lat="49.27732" lon="-0.09532">
        <ele>5.1</ele>
        <time>2024-03-10T11:22:32Z</time>
      </trkpt>
      <trkpt lat="49.27737" lon="-0.09531">
        <ele>5.1</ele>
        <time>2024-03-10T11:22:33Z</time>
      </trkpt>
      <trkpt lat="49.27742" lon="-0.09531">
        <ele>5.1</ele>
        <time>2024-03-10T11:22:34Z</time>
      </trkpt>
      <trkpt lat="49.27748" lon="-0.0953">
        <ele>5.1</ele>
        <time>2024-03-10T11:22:35Z</time>
      </trkpt>
      <trkpt lat="49.27753" lon="-0.09529">
        <ele>5.1</ele>
        <time>2024-03-10T11:22:36Z</time>
      </trkpt>
      <trkpt lat="49.27758" lon="-0.09529">
        <ele>5.1</ele>
        <time>2024-03-10T11:22:37Z</time>
      </trkpt>
      <trkpt lat="49.27763" lon="-0.09528">
        <ele>5.1</ele>
        <time>2024-03-10T11:22:38Z</time>
      </trkpt>
      <trkpt lat="49.27768" lon="-0.09527">
        <ele>5.1</ele>
        <time>2024-03-10T11:22:39Z</time>
      </trkpt>
      <trkpt lat="49.27772" lon="-0.09526">
        <ele>5.1</ele>
        <time>2024-03-10T11:22:40Z</time>
      </trkpt>
      <trkpt lat="49.27778" lon="-0.09525">
        <ele>5.1</ele>
        <time>2024-03-10T11:22:41Z</time>
      </trkpt>
      <trkpt lat="49.27783" lon="-0.09525">
        <ele>5.1</ele>
        <time>2024-03-10T11:22:42Z</time>
      </trkpt>
      <trkpt lat="49.27788" lon="-0.09523">
        <ele>5.1</ele>
        <time>2024-03-10T11:22:43Z</time>
      </trkpt>
      <trkpt lat="49.27794" lon="-0.09523">
        <ele>5.1</ele>
        <time>2024-03-10T11:22:44Z</time>
      </trkpt>
      <trkpt lat="49.27799" lon="-0.09522">
        <ele>5.1</ele>
        <time>2024-03-10T11:22:45Z</time>
      </trkpt>
      <trkpt lat="49.27804" lon="-0.09522">
        <ele>5.1</ele>
        <time>2024-03-10T11:22:46Z</time>
      </trkpt>
      <trkpt lat="49.27809" lon="-0.09522">
        <ele>5.1</ele>
        <time>2024-03-10T11:22:47Z</time>
      </trkpt>
      <trkpt lat="49.27814" lon="-0.09522">
        <ele>5.1</ele>
        <time>2024-03-10T11:22:48Z</time>
      </trkpt>
      <trkpt lat="49.2782" lon="-0.09521">
        <ele>5.1</ele>
        <time>2024-03-10T11:22:49Z</time>
      </trkpt>
      <trkpt lat="49.27825" lon="-0.0952">
        <ele>5.1</ele>
        <time>2024-03-10T11:22:50Z</time>
      </trkpt>
      <trkpt lat="49.27831" lon="-0.09519">
        <ele>5.1</ele>
        <time>2024-03-10T11:22:51Z</time>
      </trkpt>
      <trkpt lat="49.27837" lon="-0.09518">
        <ele>5.1</ele>
        <time>2024-03-10T11:22:52Z</time>
      </trkpt>
      <trkpt lat="49.27842" lon="-0.09518">
        <ele>5.1</ele>
        <time>2024-03-10T11:22:53Z</time>
      </trkpt>
      <trkpt lat="49.27847" lon="-0.09518">
        <ele>5.1</ele>
        <time>2024-03-10T11:22:54Z</time>
      </trkpt>
      <trkpt lat="49.27852" lon="-0.09518">
        <ele>5.1</ele>
        <time>2024-03-10T11:22:55Z</time>
      </trkpt>
      <trkpt lat="49.27858" lon="-0.09518">
        <ele>5.1</ele>
        <time>2024-03-10T11:22:56Z</time>
      </trkpt>
      <trkpt lat="49.27863" lon="-0.09517">
        <ele>5.1</ele>
        <time>2024-03-10T11:22:57Z</time>
      </trkpt>
      <trkpt lat="49.27868" lon="-0.09517">
        <ele>5.1</ele>
        <time>2024-03-10T11:22:58Z</time>
      </trkpt>
      <trkpt lat="49.27873" lon="-0.09516">
        <ele>5.2</ele>
        <time>2024-03-10T11:22:59Z</time>
      </trkpt>
      <trkpt lat="49.27878" lon="-0.09517">
        <ele>5.2</ele>
        <time>2024-03-10T11:23:00Z</time>
      </trkpt>
      <trkpt lat="49.27882" lon="-0.09517">
        <ele>5.2</ele>
        <time>2024-03-10T11:23:01Z</time>
      </trkpt>
      <trkpt lat="49.27887" lon="-0.09517">
        <ele>5.2</ele>
        <time>2024-03-10T11:23:02Z</time>
      </trkpt>
      <trkpt lat="49.27891" lon="-0.09517">
        <ele>5.2</ele>
        <time>2024-03-10T11:23:03Z</time>
      </trkpt>
      <trkpt lat="49.27896" lon="-0.09517">
        <ele>5.2</ele>
        <time>2024-03-10T11:23:04Z</time>
      </trkpt>
      <trkpt lat="49.279" lon="-0.09517">
        <ele>5.2</ele>
        <time>2024-03-10T11:23:05Z</time>
      </trkpt>
      <trkpt lat="49.27904" lon="-0.09516">
        <ele>5.2</ele>
        <time>2024-03-10T11:23:06Z</time>
      </trkpt>
      <trkpt lat="49.27908" lon="-0.09516">
        <ele>5.2</ele>
        <time>2024-03-10T11:23:07Z</time>
      </trkpt>
      <trkpt lat="49.27912" lon="-0.09515">
        <ele>5.2</ele>
        <time>2024-03-10T11:23:08Z</time>
      </trkpt>
      <trkpt lat="49.27916" lon="-0.09515">
        <ele>5.2</ele>
        <time>2024-03-10T11:23:09Z</time>
      </trkpt>
      <trkpt lat="49.27919" lon="-0.09515">
        <ele>5.2</ele>
        <time>2024-03-10T11:23:10Z</time>
      </trkpt>
      <trkpt lat="49.27923" lon="-0.09515">
        <ele>5.2</ele>
        <time>2024-03-10T11:23:11Z</time>
      </trkpt>
      <trkpt lat="49.27927" lon="-0.09516">
        <ele>5.2</ele>
        <time>2024-03-10T11:23:12Z</time>
      </trkpt>
      <trkpt lat="49.27931" lon="-0.09516">
        <ele>5.2</ele>
        <time>2024-03-10T11:23:13Z</time>
      </trkpt>
      <trkpt lat="49.27935" lon="-0.09517">
        <ele>5.2</ele>
        <time>2024-03-10T11:23:14Z</time>
      </trkpt>
      <trkpt lat="49.27939" lon="-0.09517">
        <ele>5.2</ele>
        <time>2024-03-10T11:23:15Z</time>
      </trkpt>
      <trkpt lat="49.27944" lon="-0.09518">
        <ele>5.2</ele>
        <time>2024-03-10T11:23:16Z</time>
      </trkpt>
      <trkpt lat="49.2795" lon="-0.09518">
        <ele>5.2</ele>
        <time>2024-03-10T11:23:17Z</time>
      </trkpt>
      <trkpt lat="49.27955" lon="-0.09518">
        <ele>5.2</ele>
        <time>2024-03-10T11:23:18Z</time>
      </trkpt>
      <trkpt lat="49.2796" lon="-0.09519">
        <ele>5.2</ele>
        <time>2024-03-10T11:23:19Z</time>
      </trkpt>
      <trkpt lat="49.27965" lon="-0.09521">
        <ele>5.2</ele>
        <time>2024-03-10T11:23:20Z</time>
      </trkpt>
      <trkpt lat="49.27971" lon="-0.09523">
        <ele>5.2</ele>
        <time>2024-03-10T11:23:21Z</time>
      </trkpt>
      <trkpt lat="49.27976" lon="-0.09525">
        <ele>5.1</ele>
        <time>2024-03-10T11:23:22Z</time>
      </trkpt>
      <trkpt lat="49.27982" lon="-0.09527">
        <ele>5.1</ele>
        <time>2024-03-10T11:23:23Z</time>
      </trkpt>
      <trkpt lat="49.27988" lon="-0.09528">
        <ele>5.1</ele>
        <time>2024-03-10T11:23:24Z</time>
      </trkpt>
      <trkpt lat="49.27993" lon="-0.0953">
        <ele>5.1</ele>
        <time>2024-03-10T11:23:25Z</time>
      </trkpt>
      <trkpt lat="49.27999" lon="-0.09532">
        <ele>5.1</ele>
        <time>2024-03-10T11:23:26Z</time>
      </trkpt>
      <trkpt lat="49.28005" lon="-0.09534">
        <ele>5.1</ele>
        <time>2024-03-10T11:23:27Z</time>
      </trkpt>
      <trkpt lat="49.28011" lon="-0.09536">
        <ele>5.1</ele>
        <time>2024-03-10T11:23:28Z</time>
      </trkpt>
      <trkpt lat="49.28016" lon="-0.09538">
        <ele>5.1</ele>
        <time>2024-03-10T11:23:29Z</time>
      </trkpt>
      <trkpt lat="49.28021" lon="-0.0954">
        <ele>5.1</ele>
        <time>2024-03-10T11:23:30Z</time>
      </trkpt>
      <trkpt lat="49.28026" lon="-0.09542">
        <ele>5.1</ele>
        <time>2024-03-10T11:23:31Z</time>
      </trkpt>
      <trkpt lat="49.28031" lon="-0.09544">
        <ele>5.1</ele>
        <time>2024-03-10T11:23:32Z</time>
      </trkpt>
      <trkpt lat="49.28036" lon="-0.09546">
        <ele>5.1</ele>
        <time>2024-03-10T11:23:33Z</time>
      </trkpt>
      <trkpt lat="49.28041" lon="-0.09549">
        <ele>5.1</ele>
        <time>2024-03-10T11:23:34Z</time>
      </trkpt>
      <trkpt lat="49.28046" lon="-0.09551">
        <ele>5.1</ele>
        <time>2024-03-10T11:23:35Z</time>
      </trkpt>
      <trkpt lat="49.28051" lon="-0.09554">
        <ele>5.1</ele>
        <time>2024-03-10T11:23:36Z</time>
      </trkpt>
      <trkpt lat="49.28057" lon="-0.09556">
        <ele>5.1</ele>
        <time>2024-03-10T11:23:37Z</time>
      </trkpt>
      <trkpt lat="49.28062" lon="-0.09559">
        <ele>5.1</ele>
        <time>2024-03-10T11:23:38Z</time>
      </trkpt>
      <trkpt lat="49.28067" lon="-0.09561">
        <ele>5.1</ele>
        <time>2024-03-10T11:23:39Z</time>
      </trkpt>
      <trkpt lat="49.28072" lon="-0.09564">
        <ele>5.1</ele>
        <time>2024-03-10T11:23:40Z</time>
      </trkpt>
      <trkpt lat="49.28077" lon="-0.09566">
        <ele>5.1</ele>
        <time>2024-03-10T11:23:41Z</time>
      </trkpt>
      <trkpt lat="49.28082" lon="-0.09569">
        <ele>5.1</ele>
        <time>2024-03-10T11:23:42Z</time>
      </trkpt>
      <trkpt lat="49.28087" lon="-0.09572">
        <ele>5.1</ele>
        <time>2024-03-10T11:23:43Z</time>
      </trkpt>
      <trkpt lat="49.28093" lon="-0.09575">
        <ele>5.1</ele>
        <time>2024-03-10T11:23:44Z</time>
      </trkpt>
      <trkpt lat="49.28098" lon="-0.09578">
        <ele>5.1</ele>
        <time>2024-03-10T11:23:45Z</time>
      </trkpt>
      <trkpt lat="49.28103" lon="-0.09581">
        <ele>5.1</ele>
        <time>2024-03-10T11:23:46Z</time>
      </trkpt>
      <trkpt lat="49.28109" lon="-0.09584">
        <ele>5.1</ele>
        <time>2024-03-10T11:23:47Z</time>
      </trkpt>
      <trkpt lat="49.28114" lon="-0.09587">
        <ele>5.1</ele>
        <time>2024-03-10T11:23:48Z</time>
      </trkpt>
      <trkpt lat="49.2812" lon="-0.09591">
        <ele>5</ele>
        <time>2024-03-10T11:23:49Z</time>
      </trkpt>
      <trkpt lat="49.28126" lon="-0.09594">
        <ele>5</ele>
        <time>2024-03-10T11:23:50Z</time>
      </trkpt>
      <trkpt lat="49.28131" lon="-0.09598">
        <ele>5</ele>
        <time>2024-03-10T11:23:51Z</time>
      </trkpt>
      <trkpt lat="49.28137" lon="-0.09602">
        <ele>5</ele>
        <time>2024-03-10T11:23:52Z</time>
      </trkpt>
      <trkpt lat="49.28142" lon="-0.09605">
        <ele>5</ele>
        <time>2024-03-10T11:23:53Z</time>
      </trkpt>
      <trkpt lat="49.28147" lon="-0.09609">
        <ele>5</ele>
        <time>2024-03-10T11:23:54Z</time>
      </trkpt>
      <trkpt lat="49.28153" lon="-0.09612">
        <ele>5</ele>
        <time>2024-03-10T11:23:55Z</time>
      </trkpt>
      <trkpt lat="49.28159" lon="-0.09615">
        <ele>5</ele>
        <time>2024-03-10T11:23:56Z</time>
      </trkpt>
      <trkpt lat="49.28164" lon="-0.09618">
        <ele>5</ele>
        <time>2024-03-10T11:23:57Z</time>
      </trkpt>
      <trkpt lat="49.2817" lon="-0.09622">
        <ele>5</ele>
        <time>2024-03-10T11:23:58Z</time>
      </trkpt>
      <trkpt lat="49.28175" lon="-0.09625">
        <ele>5</ele>
        <time>2024-03-10T11:23:59Z</time>
      </trkpt>
      <trkpt lat="49.28181" lon="-0.09629">
        <ele>5</ele>
        <time>2024-03-10T11:24:00Z</time>
      </trkpt>
      <trkpt lat="49.28186" lon="-0.09633">
        <ele>5</ele>
        <time>2024-03-10T11:24:01Z</time>
      </trkpt>
      <trkpt lat="49.28191" lon="-0.09637">
        <ele>5</ele>
        <time>2024-03-10T11:24:02Z</time>
      </trkpt>
      <trkpt lat="49.28197" lon="-0.0964">
        <ele>5</ele>
        <time>2024-03-10T11:24:03Z</time>
      </trkpt>
      <trkpt lat="49.28202" lon="-0.09644">
        <ele>5</ele>
        <time>2024-03-10T11:24:04Z</time>
      </trkpt>
      <trkpt lat="49.28207" lon="-0.09647">
        <ele>5</ele>
        <time>2024-03-10T11:24:05Z</time>
      </trkpt>
      <trkpt lat="49.28212" lon="-0.09651">
        <ele>5</ele>
        <time>2024-03-10T11:24:06Z</time>
      </trkpt>
      <trkpt lat="49.28217" lon="-0.09655">
        <ele>5.1</ele>
        <time>2024-03-10T11:24:07Z</time>
      </trkpt>
      <trkpt lat="49.28222" lon="-0.09659">
        <ele>5.1</ele>
        <time>2024-03-10T11:24:08Z</time>
      </trkpt>
      <trkpt lat="49.28228" lon="-0.09663">
        <ele>5.1</ele>
        <time>2024-03-10T11:24:09Z</time>
      </trkpt>
      <trkpt lat="49.28233" lon="-0.09666">
        <ele>5.1</ele>
        <time>2024-03-10T11:24:10Z</time>
      </trkpt>
      <trkpt lat="49.28238" lon="-0.09669">
        <ele>5.1</ele>
        <time>2024-03-10T11:24:11Z</time>
      </trkpt>
      <trkpt lat="49.28243" lon="-0.09673">
        <ele>5.1</ele>
        <time>2024-03-10T11:24:12Z</time>
      </trkpt>
      <trkpt lat="49.28247" lon="-0.09676">
        <ele>5.1</ele>
        <time>2024-03-10T11:24:13Z</time>
      </trkpt>
      <trkpt lat="49.28252" lon="-0.0968">
        <ele>5.2</ele>
        <time>2024-03-10T11:24:14Z</time>
      </trkpt>
      <trkpt lat="49.28257" lon="-0.09683">
        <ele>5.2</ele>
        <time>2024-03-10T11:24:15Z</time>
      </trkpt>
      <trkpt lat="49.28263" lon="-0.09686">
        <ele>5.2</ele>
        <time>2024-03-10T11:24:16Z</time>
      </trkpt>
      <trkpt lat="49.28268" lon="-0.09688">
        <ele>5.2</ele>
        <time>2024-03-10T11:24:17Z</time>
      </trkpt>
      <trkpt lat="49.28273" lon="-0.09691">
        <ele>5.2</ele>
        <time>2024-03-10T11:24:18Z</time>
      </trkpt>
      <trkpt lat="49.28278" lon="-0.09694">
        <ele>5.3</ele>
        <time>2024-03-10T11:24:19Z</time>
      </trkpt>
      <trkpt lat="49.28283" lon="-0.09697">
        <ele>5.3</ele>
        <time>2024-03-10T11:24:20Z</time>
      </trkpt>
      <trkpt lat="49.28288" lon="-0.09699">
        <ele>5.3</ele>
        <time>2024-03-10T11:24:21Z</time>
      </trkpt>
      <trkpt lat="49.28293" lon="-0.09701">
        <ele>5.4</ele>
        <time>2024-03-10T11:24:22Z</time>
      </trkpt>
      <trkpt lat="49.28299" lon="-0.09702">
        <ele>5.4</ele>
        <time>2024-03-10T11:24:23Z</time>
      </trkpt>
      <trkpt lat="49.28304" lon="-0.09704">
        <ele>5.4</ele>
        <time>2024-03-10T11:24:24Z</time>
      </trkpt>
      <trkpt lat="49.28309" lon="-0.09706">
        <ele>5.4</ele>
        <time>2024-03-10T11:24:25Z</time>
      </trkpt>
      <trkpt lat="49.28313" lon="-0.09707">
        <ele>5.4</ele>
        <time>2024-03-10T11:24:26Z</time>
      </trkpt>
      <trkpt lat="49.28318" lon="-0.0971">
        <ele>5.5</ele>
        <time>2024-03-10T11:24:27Z</time>
      </trkpt>
      <trkpt lat="49.28322" lon="-0.09715">
        <ele>5.5</ele>
        <time>2024-03-10T11:24:28Z</time>
      </trkpt>
      <trkpt lat="49.28325" lon="-0.09722">
        <ele>5.4</ele>
        <time>2024-03-10T11:24:29Z</time>
      </trkpt>
      <trkpt lat="49.28327" lon="-0.0973">
        <ele>5.4</ele>
        <time>2024-03-10T11:24:30Z</time>
      </trkpt>
      <trkpt lat="49.28327" lon="-0.09737">
        <ele>5.3</ele>
        <time>2024-03-10T11:24:31Z</time>
      </trkpt>
      <trkpt lat="49.28328" lon="-0.09745">
        <ele>5.3</ele>
        <time>2024-03-10T11:24:32Z</time>
      </trkpt>
      <trkpt lat="49.28328" lon="-0.09752">
        <ele>5.2</ele>
        <time>2024-03-10T11:24:33Z</time>
      </trkpt>
      <trkpt lat="49.28328" lon="-0.09759">
        <ele>5.2</ele>
        <time>2024-03-10T11:24:34Z</time>
      </trkpt>
      <trkpt lat="49.28328" lon="-0.09766">
        <ele>5.1</ele>
        <time>2024-03-10T11:24:35Z</time>
      </trkpt>
      <trkpt lat="49.2833" lon="-0.09775">
        <ele>5</ele>
        <time>2024-03-10T11:24:36Z</time>
      </trkpt>
      <trkpt lat="49.2833" lon="-0.09784">
        <ele>5</ele>
        <time>2024-03-10T11:24:37Z</time>
      </trkpt>
      <trkpt lat="49.28331" lon="-0.09792">
        <ele>5</ele>
        <time>2024-03-10T11:24:38Z</time>
      </trkpt>
      <trkpt lat="49.28331" lon="-0.098">
        <ele>4.9</ele>
        <time>2024-03-10T11:24:39Z</time>
      </trkpt>
      <trkpt lat="49.28331" lon="-0.09808">
        <ele>4.9</ele>
        <time>2024-03-10T11:24:40Z</time>
      </trkpt>
      <trkpt lat="49.28331" lon="-0.09816">
        <ele>4.9</ele>
        <time>2024-03-10T11:24:41Z</time>
      </trkpt>
      <trkpt lat="49.28332" lon="-0.09824">
        <ele>4.9</ele>
        <time>2024-03-10T11:24:42Z</time>
      </trkpt>
      <trkpt lat="49.28332" lon="-0.09832">
        <ele>4.9</ele>
        <time>2024-03-10T11:24:43Z</time>
      </trkpt>
      <trkpt lat="49.28332" lon="-0.09841">
        <ele>4.9</ele>
        <time>2024-03-10T11:24:44Z</time>
      </trkpt>
      <trkpt lat="49.28333" lon="-0.09849">
        <ele>4.9</ele>
        <time>2024-03-10T11:24:45Z</time>
      </trkpt>
      <trkpt lat="49.28333" lon="-0.09856">
        <ele>4.8</ele>
        <time>2024-03-10T11:24:46Z</time>
      </trkpt>
      <trkpt lat="49.28334" lon="-0.09864">
        <ele>4.8</ele>
        <time>2024-03-10T11:24:47Z</time>
      </trkpt>
      <trkpt lat="49.28334" lon="-0.09872">
        <ele>4.8</ele>
        <time>2024-03-10T11:24:48Z</time>
      </trkpt>
      <trkpt lat="49.28334" lon="-0.09879">
        <ele>4.8</ele>
        <time>2024-03-10T11:24:49Z</time>
      </trkpt>
      <trkpt lat="49.28334" lon="-0.09887">
        <ele>4.8</ele>
        <time>2024-03-10T11:24:50Z</time>
      </trkpt>
      <trkpt lat="49.28334" lon="-0.09894">
        <ele>4.8</ele>
        <time>2024-03-10T11:24:51Z</time>
      </trkpt>
      <trkpt lat="49.28335" lon="-0.09901">
        <ele>4.8</ele>
        <time>2024-03-10T11:24:52Z</time>
      </trkpt>
      <trkpt lat="49.28335" lon="-0.09906">
        <ele>4.8</ele>
        <time>2024-03-10T11:24:53Z</time>
      </trkpt>
      <trkpt lat="49.28335" lon="-0.09911">
        <ele>4.8</ele>
        <time>2024-03-10T11:24:54Z</time>
      </trkpt>
      <trkpt lat="49.28336" lon="-0.09917">
        <ele>4.8</ele>
        <time>2024-03-10T11:24:55Z</time>
      </trkpt>
      <trkpt lat="49.28336" lon="-0.09918">
        <ele>4.8</ele>
        <time>2024-03-10T11:24:56Z</time>
      </trkpt>
      <trkpt lat="49.28336" lon="-0.09922">
        <ele>4.8</ele>
        <time>2024-03-10T11:24:57Z</time>
      </trkpt>
      <trkpt lat="49.28336" lon="-0.09922">
        <ele>4.8</ele>
        <time>2024-03-10T11:24:58Z</time>
      </trkpt>
      <trkpt lat="49.28336" lon="-0.09922">
        <ele>4.8</ele>
        <time>2024-03-10T11:24:59Z</time>
      </trkpt>
      <trkpt lat="49.28336" lon="-0.09922">
        <ele>4.8</ele>
        <time>2024-03-10T11:25:00Z</time>
      </trkpt>
      <trkpt lat="49.28336" lon="-0.09922">
        <ele>4.8</ele>
        <time>2024-03-10T11:25:01Z</time>
      </trkpt>
      <trkpt lat="49.28336" lon="-0.09922">
        <ele>4.8</ele>
        <time>2024-03-10T11:25:02Z</time>
      </trkpt>
      <trkpt lat="49.28336" lon="-0.09922">
        <ele>4.8</ele>
        <time>2024-03-10T11:25:03Z</time>
      </trkpt>
      <trkpt lat="49.28336" lon="-0.09923">
        <ele>4.8</ele>
        <time>2024-03-10T11:25:04Z</time>
      </trkpt>
      <trkpt lat="49.28336" lon="-0.09923">
        <ele>4.8</ele>
        <time>2024-03-10T11:25:05Z</time>
      </trkpt>
      <trkpt lat="49.28336" lon="-0.09923">
        <ele>4.8</ele>
        <time>2024-03-10T11:25:06Z</time>
      </trkpt>
      <trkpt lat="49.28336" lon="-0.09923">
        <ele>4.8</ele>
        <time>2024-03-10T11:25:07Z</time>
      </trkpt>
      <trkpt lat="49.28336" lon="-0.09923">
        <ele>4.8</ele>
        <time>2024-03-10T11:25:08Z</time>
      </trkpt>
      <trkpt lat="49.28337" lon="-0.09923">
        <ele>4.8</ele>
        <time>2024-03-10T11:25:09Z</time>
      </trkpt>
      <trkpt lat="49.28337" lon="-0.09924">
        <ele>4.8</ele>
        <time>2024-03-10T11:25:10Z</time>
      </trkpt>
      <trkpt lat="49.28337" lon="-0.09924">
        <ele>4.8</ele>
        <time>2024-03-10T11:25:11Z</time>
      </trkpt>
      <trkpt lat="49.28337" lon="-0.09924">
        <ele>4.8</ele>
        <time>2024-03-10T11:25:12Z</time>
      </trkpt>
      <trkpt lat="49.28337" lon="-0.09928">
        <ele>4.8</ele>
        <time>2024-03-10T11:25:13Z</time>
      </trkpt>
      <trkpt lat="49.28338" lon="-0.0993">
        <ele>4.8</ele>
        <time>2024-03-10T11:25:14Z</time>
      </trkpt>
      <trkpt lat="49.28338" lon="-0.09935">
        <ele>4.7</ele>
        <time>2024-03-10T11:25:15Z</time>
      </trkpt>
      <trkpt lat="49.28338" lon="-0.09937">
        <ele>4.7</ele>
        <time>2024-03-10T11:25:16Z</time>
      </trkpt>
      <trkpt lat="49.28338" lon="-0.09943">
        <ele>4.7</ele>
        <time>2024-03-10T11:25:17Z</time>
      </trkpt>
      <trkpt lat="49.28338" lon="-0.09949">
        <ele>4.7</ele>
        <time>2024-03-10T11:25:18Z</time>
      </trkpt>
      <trkpt lat="49.28339" lon="-0.09956">
        <ele>4.6</ele>
        <time>2024-03-10T11:25:19Z</time>
      </trkpt>
      <trkpt lat="49.28339" lon="-0.09964">
        <ele>4.6</ele>
        <time>2024-03-10T11:25:20Z</time>
      </trkpt>
      <trkpt lat="49.28339" lon="-0.09972">
        <ele>4.6</ele>
        <time>2024-03-10T11:25:21Z</time>
      </trkpt>
      <trkpt lat="49.28339" lon="-0.09979">
        <ele>4.5</ele>
        <time>2024-03-10T11:25:22Z</time>
      </trkpt>
      <trkpt lat="49.28339" lon="-0.09987">
        <ele>4.5</ele>
        <time>2024-03-10T11:25:23Z</time>
      </trkpt>
      <trkpt lat="49.2834" lon="-0.09995">
        <ele>4.4</ele>
        <time>2024-03-10T11:25:24Z</time>
      </trkpt>
      <trkpt lat="49.2834" lon="-0.10003">
        <ele>4.4</ele>
        <time>2024-03-10T11:25:25Z</time>
      </trkpt>
      <trkpt lat="49.28341" lon="-0.10011">
        <ele>4.3</ele>
        <time>2024-03-10T11:25:26Z</time>
      </trkpt>
      <trkpt lat="49.28342" lon="-0.1002">
        <ele>4.3</ele>
        <time>2024-03-10T11:25:27Z</time>
      </trkpt>
      <trkpt lat="49.28342" lon="-0.10028">
        <ele>4.3</ele>
        <time>2024-03-10T11:25:28Z</time>
      </trkpt>
      <trkpt lat="49.28342" lon="-0.10036">
        <ele>4.3</ele>
        <time>2024-03-10T11:25:29Z</time>
      </trkpt>
      <trkpt lat="49.28342" lon="-0.10044">
        <ele>4.2</ele>
        <time>2024-03-10T11:25:30Z</time>
      </trkpt>
      <trkpt lat="49.28342" lon="-0.10053">
        <ele>4.2</ele>
        <time>2024-03-10T11:25:31Z</time>
      </trkpt>
      <trkpt lat="49.28342" lon="-0.10062">
        <ele>4.1</ele>
        <time>2024-03-10T11:25:32Z</time>
      </trkpt>
      <trkpt lat="49.28343" lon="-0.1007">
        <ele>4.1</ele>
        <time>2024-03-10T11:25:33Z</time>
      </trkpt>
      <trkpt lat="49.28343" lon="-0.10078">
        <ele>4.1</ele>
        <time>2024-03-10T11:25:34Z</time>
      </trkpt>
      <trkpt lat="49.28344" lon="-0.10086">
        <ele>4</ele>
        <time>2024-03-10T11:25:35Z</time>
      </trkpt>
      <trkpt lat="49.28344" lon="-0.10094">
        <ele>4</ele>
        <time>2024-03-10T11:25:36Z</time>
      </trkpt>
      <trkpt lat="49.28345" lon="-0.10102">
        <ele>4</ele>
        <time>2024-03-10T11:25:37Z</time>
      </trkpt>
      <trkpt lat="49.28346" lon="-0.1011">
        <ele>4</ele>
        <time>2024-03-10T11:25:38Z</time>
      </trkpt>
      <trkpt lat="49.28346" lon="-0.10119">
        <ele>4</ele>
        <time>2024-03-10T11:25:39Z</time>
      </trkpt>
      <trkpt lat="49.28347" lon="-0.10127">
        <ele>3.9</ele>
        <time>2024-03-10T11:25:40Z</time>
      </trkpt>
      <trkpt lat="49.28348" lon="-0.10135">
        <ele>3.9</ele>
        <time>2024-03-10T11:25:41Z</time>
      </trkpt>
      <trkpt lat="49.28348" lon="-0.10143">
        <ele>3.9</ele>
        <time>2024-03-10T11:25:42Z</time>
      </trkpt>
      <trkpt lat="49.28348" lon="-0.10152">
        <ele>3.9</ele>
        <time>2024-03-10T11:25:43Z</time>
      </trkpt>
      <trkpt lat="49.28348" lon="-0.10161">
        <ele>3.9</ele>
        <time>2024-03-10T11:25:44Z</time>
      </trkpt>
      <trkpt lat="49.28348" lon="-0.10169">
        <ele>3.9</ele>
        <time>2024-03-10T11:25:45Z</time>
      </trkpt>
      <trkpt lat="49.28349" lon="-0.10178">
        <ele>3.9</ele>
        <time>2024-03-10T11:25:46Z</time>
      </trkpt>
      <trkpt lat="49.28349" lon="-0.10187">
        <ele>3.9</ele>
        <time>2024-03-10T11:25:47Z</time>
      </trkpt>
      <trkpt lat="49.28349" lon="-0.10195">
        <ele>3.9</ele>
        <time>2024-03-10T11:25:48Z</time>
      </trkpt>
      <trkpt lat="49.28349" lon="-0.10203">
        <ele>3.9</ele>
        <time>2024-03-10T11:25:49Z</time>
      </trkpt>
      <trkpt lat="49.28349" lon="-0.10211">
        <ele>3.9</ele>
        <time>2024-03-10T11:25:50Z</time>
      </trkpt>
      <trkpt lat="49.28349" lon="-0.10219">
        <ele>4</ele>
        <time>2024-03-10T11:25:51Z</time>
      </trkpt>
      <trkpt lat="49.28349" lon="-0.10227">
        <ele>4</ele>
        <time>2024-03-10T11:25:52Z</time>
      </trkpt>
      <trkpt lat="49.28349" lon="-0.10234">
        <ele>4</ele>
        <time>2024-03-10T11:25:53Z</time>
      </trkpt>
      <trkpt lat="49.2835" lon="-0.1024">
        <ele>4</ele>
        <time>2024-03-10T11:25:54Z</time>
      </trkpt>
      <trkpt lat="49.2835" lon="-0.10246">
        <ele>4</ele>
        <time>2024-03-10T11:25:55Z</time>
      </trkpt>
      <trkpt lat="49.28351" lon="-0.10251">
        <ele>4.1</ele>
        <time>2024-03-10T11:25:56Z</time>
      </trkpt>
      <trkpt lat="49.28351" lon="-0.10256">
        <ele>4.1</ele>
        <time>2024-03-10T11:25:57Z</time>
      </trkpt>
      <trkpt lat="49.28351" lon="-0.10261">
        <ele>4.1</ele>
        <time>2024-03-10T11:25:58Z</time>
      </trkpt>
      <trkpt lat="49.28352" lon="-0.10262">
        <ele>4.1</ele>
        <time>2024-03-10T11:25:59Z</time>
      </trkpt>
      <trkpt lat="49.28352" lon="-0.10262">
        <ele>4.1</ele>
        <time>2024-03-10T11:26:00Z</time>
      </trkpt>
      <trkpt lat="49.28352" lon="-0.10262">
        <ele>4.1</ele>
        <time>2024-03-10T11:26:01Z</time>
      </trkpt>
      <trkpt lat="49.28353" lon="-0.10264">
        <ele>4.1</ele>
        <time>2024-03-10T11:26:02Z</time>
      </trkpt>
      <trkpt lat="49.28353" lon="-0.10267">
        <ele>4.1</ele>
        <time>2024-03-10T11:26:03Z</time>
      </trkpt>
      <trkpt lat="49.28353" lon="-0.10272">
        <ele>4.1</ele>
        <time>2024-03-10T11:26:04Z</time>
      </trkpt>
      <trkpt lat="49.28353" lon="-0.10274">
        <ele>4.1</ele>
        <time>2024-03-10T11:26:05Z</time>
      </trkpt>
      <trkpt lat="49.28353" lon="-0.10278">
        <ele>4.1</ele>
        <time>2024-03-10T11:26:06Z</time>
      </trkpt>
      <trkpt lat="49.28352" lon="-0.10283">
        <ele>4.1</ele>
        <time>2024-03-10T11:26:07Z</time>
      </trkpt>
      <trkpt lat="49.28352" lon="-0.10288">
        <ele>4.1</ele>
        <time>2024-03-10T11:26:08Z</time>
      </trkpt>
      <trkpt lat="49.28351" lon="-0.10293">
        <ele>4.1</ele>
        <time>2024-03-10T11:26:09Z</time>
      </trkpt>
      <trkpt lat="49.2835" lon="-0.10299">
        <ele>4.1</ele>
        <time>2024-03-10T11:26:10Z</time>
      </trkpt>
      <trkpt lat="49.28349" lon="-0.10304">
        <ele>4.1</ele>
        <time>2024-03-10T11:26:11Z</time>
      </trkpt>
      <trkpt lat="49.28348" lon="-0.10311">
        <ele>4</ele>
        <time>2024-03-10T11:26:12Z</time>
      </trkpt>
      <trkpt lat="49.28346" lon="-0.10316">
        <ele>4</ele>
        <time>2024-03-10T11:26:13Z</time>
      </trkpt>
      <trkpt lat="49.28345" lon="-0.10322">
        <ele>4</ele>
        <time>2024-03-10T11:26:14Z</time>
      </trkpt>
      <trkpt lat="49.28343" lon="-0.10329">
        <ele>4</ele>
        <time>2024-03-10T11:26:15Z</time>
      </trkpt>
      <trkpt lat="49.28341" lon="-0.10335">
        <ele>4</ele>
        <time>2024-03-10T11:26:16Z</time>
      </trkpt>
      <trkpt lat="49.28339" lon="-0.10342">
        <ele>4</ele>
        <time>2024-03-10T11:26:17Z</time>
      </trkpt>
      <trkpt lat="49.28339" lon="-0.1035">
        <ele>4</ele>
        <time>2024-03-10T11:26:18Z</time>
      </trkpt>
      <trkpt lat="49.2834" lon="-0.10358">
        <ele>4</ele>
        <time>2024-03-10T11:26:19Z</time>
      </trkpt>
      <trkpt lat="49.2834" lon="-0.10365">
        <ele>4</ele>
        <time>2024-03-10T11:26:20Z</time>
      </trkpt>
      <trkpt lat="49.2834" lon="-0.10373">
        <ele>4</ele>
        <time>2024-03-10T11:26:21Z</time>
      </trkpt>
      <trkpt lat="49.28341" lon="-0.1038">
        <ele>4</ele>
        <time>2024-03-10T11:26:22Z</time>
      </trkpt>
      <trkpt lat="49.28341" lon="-0.10388">
        <ele>4</ele>
        <time>2024-03-10T11:26:23Z</time>
      </trkpt>
      <trkpt lat="49.28342" lon="-0.10396">
        <ele>4</ele>
        <time>2024-03-10T11:26:24Z</time>
      </trkpt>
      <trkpt lat="49.28343" lon="-0.10404">
        <ele>4</ele>
        <time>2024-03-10T11:26:25Z</time>
      </trkpt>
      <trkpt lat="49.28343" lon="-0.10412">
        <ele>4</ele>
        <time>2024-03-10T11:26:26Z</time>
      </trkpt>
      <trkpt lat="49.28344" lon="-0.1042">
        <ele>4</ele>
        <time>2024-03-10T11:26:27Z</time>
      </trkpt>
      <trkpt lat="49.28344" lon="-0.10429">
        <ele>4</ele>
        <time>2024-03-10T11:26:28Z</time>
      </trkpt>
      <trkpt lat="49.28344" lon="-0.10437">
        <ele>4</ele>
        <time>2024-03-10T11:26:29Z</time>
      </trkpt>
      <trkpt lat="49.28344" lon="-0.10445">
        <ele>4</ele>
        <time>2024-03-10T11:26:30Z</time>
      </trkpt>
      <trkpt lat="49.28345" lon="-0.10453">
        <ele>4</ele>
        <time>2024-03-10T11:26:31Z</time>
      </trkpt>
      <trkpt lat="49.28345" lon="-0.1046">
        <ele>4</ele>
        <time>2024-03-10T11:26:32Z</time>
      </trkpt>
      <trkpt lat="49.28345" lon="-0.10467">
        <ele>4</ele>
        <time>2024-03-10T11:26:33Z</time>
      </trkpt>
      <trkpt lat="49.28346" lon="-0.10475">
        <ele>4</ele>
        <time>2024-03-10T11:26:34Z</time>
      </trkpt>
      <trkpt lat="49.28346" lon="-0.10482">
        <ele>4</ele>
        <time>2024-03-10T11:26:35Z</time>
      </trkpt>
      <trkpt lat="49.28347" lon="-0.10489">
        <ele>4</ele>
        <time>2024-03-10T11:26:36Z</time>
      </trkpt>
      <trkpt lat="49.28348" lon="-0.10496">
        <ele>4</ele>
        <time>2024-03-10T11:26:37Z</time>
      </trkpt>
      <trkpt lat="49.28348" lon="-0.10504">
        <ele>4</ele>
        <time>2024-03-10T11:26:38Z</time>
      </trkpt>
      <trkpt lat="49.28349" lon="-0.10511">
        <ele>4</ele>
        <time>2024-03-10T11:26:39Z</time>
      </trkpt>
      <trkpt lat="49.28349" lon="-0.10517">
        <ele>4</ele>
        <time>2024-03-10T11:26:40Z</time>
      </trkpt>
      <trkpt lat="49.28349" lon="-0.10523">
        <ele>4</ele>
        <time>2024-03-10T11:26:41Z</time>
      </trkpt>
      <trkpt lat="49.28349" lon="-0.10529">
        <ele>4</ele>
        <time>2024-03-10T11:26:42Z</time>
      </trkpt>
      <trkpt lat="49.28349" lon="-0.10535">
        <ele>4.1</ele>
        <time>2024-03-10T11:26:43Z</time>
      </trkpt>
      <trkpt lat="49.28349" lon="-0.10541">
        <ele>4.1</ele>
        <time>2024-03-10T11:26:44Z</time>
      </trkpt>
      <trkpt lat="49.28349" lon="-0.10547">
        <ele>4.1</ele>
        <time>2024-03-10T11:26:45Z</time>
      </trkpt>
      <trkpt lat="49.28349" lon="-0.10552">
        <ele>4.1</ele>
        <time>2024-03-10T11:26:46Z</time>
      </trkpt>
      <trkpt lat="49.28349" lon="-0.10558">
        <ele>4.1</ele>
        <time>2024-03-10T11:26:47Z</time>
      </trkpt>
      <trkpt lat="49.28349" lon="-0.10564">
        <ele>4.1</ele>
        <time>2024-03-10T11:26:48Z</time>
      </trkpt>
      <trkpt lat="49.28349" lon="-0.10569">
        <ele>4.1</ele>
        <time>2024-03-10T11:26:49Z</time>
      </trkpt>
      <trkpt lat="49.2835" lon="-0.10576">
        <ele>4.1</ele>
        <time>2024-03-10T11:26:50Z</time>
      </trkpt>
      <trkpt lat="49.2835" lon="-0.10582">
        <ele>4.1</ele>
        <time>2024-03-10T11:26:51Z</time>
      </trkpt>
      <trkpt lat="49.28351" lon="-0.10589">
        <ele>4.1</ele>
        <time>2024-03-10T11:26:52Z</time>
      </trkpt>
      <trkpt lat="49.28351" lon="-0.10596">
        <ele>4.1</ele>
        <time>2024-03-10T11:26:53Z</time>
      </trkpt>
      <trkpt lat="49.28351" lon="-0.10603">
        <ele>4.1</ele>
        <time>2024-03-10T11:26:54Z</time>
      </trkpt>
      <trkpt lat="49.28352" lon="-0.1061">
        <ele>4.1</ele>
        <time>2024-03-10T11:26:55Z</time>
      </trkpt>
      <trkpt lat="49.28352" lon="-0.10617">
        <ele>4.1</ele>
        <time>2024-03-10T11:26:56Z</time>
      </trkpt>
      <trkpt lat="49.28352" lon="-0.10624">
        <ele>4.1</ele>
        <time>2024-03-10T11:26:57Z</time>
      </trkpt>
      <trkpt lat="49.28352" lon="-0.10631">
        <ele>4.1</ele>
        <time>2024-03-10T11:26:58Z</time>
      </trkpt>
      <trkpt lat="49.28352" lon="-0.10638">
        <ele>4.1</ele>
        <time>2024-03-10T11:26:59Z</time>
      </trkpt>
      <trkpt lat="49.28352" lon="-0.10645">
        <ele>4.1</ele>
        <time>2024-03-10T11:27:00Z</time>
      </trkpt>
      <trkpt lat="49.28352" lon="-0.10653">
        <ele>4.1</ele>
        <time>2024-03-10T11:27:01Z</time>
      </trkpt>
      <trkpt lat="49.28353" lon="-0.1066">
        <ele>4.1</ele>
        <time>2024-03-10T11:27:02Z</time>
      </trkpt>
      <trkpt lat="49.28353" lon="-0.10667">
        <ele>4.1</ele>
        <time>2024-03-10T11:27:03Z</time>
      </trkpt>
      <trkpt lat="49.28354" lon="-0.10674">
        <ele>4.1</ele>
        <time>2024-03-10T11:27:04Z</time>
      </trkpt>
      <trkpt lat="49.28354" lon="-0.10682">
        <ele>4.1</ele>
        <time>2024-03-10T11:27:05Z</time>
      </trkpt>
      <trkpt lat="49.28354" lon="-0.10688">
        <ele>4.1</ele>
        <time>2024-03-10T11:27:06Z</time>
      </trkpt>
      <trkpt lat="49.28354" lon="-0.10695">
        <ele>4.1</ele>
        <time>2024-03-10T11:27:07Z</time>
      </trkpt>
      <trkpt lat="49.28354" lon="-0.10703">
        <ele>4.1</ele>
        <time>2024-03-10T11:27:08Z</time>
      </trkpt>
      <trkpt lat="49.28354" lon="-0.1071">
        <ele>4.1</ele>
        <time>2024-03-10T11:27:09Z</time>
      </trkpt>
      <trkpt lat="49.28355" lon="-0.10717">
        <ele>4.1</ele>
        <time>2024-03-10T11:27:10Z</time>
      </trkpt>
      <trkpt lat="49.28355" lon="-0.10725">
        <ele>4.1</ele>
        <time>2024-03-10T11:27:11Z</time>
      </trkpt>
      <trkpt lat="49.28356" lon="-0.10732">
        <ele>4.1</ele>
        <time>2024-03-10T11:27:12Z</time>
      </trkpt>
      <trkpt lat="49.28356" lon="-0.10739">
        <ele>4.1</ele>
        <time>2024-03-10T11:27:13Z</time>
      </trkpt>
      <trkpt lat="49.28357" lon="-0.10746">
        <ele>4.1</ele>
        <time>2024-03-10T11:27:14Z</time>
      </trkpt>
      <trkpt lat="49.28358" lon="-0.10753">
        <ele>4.1</ele>
        <time>2024-03-10T11:27:15Z</time>
      </trkpt>
      <trkpt lat="49.28358" lon="-0.1076">
        <ele>4.1</ele>
        <time>2024-03-10T11:27:16Z</time>
      </trkpt>
      <trkpt lat="49.2836" lon="-0.10765">
        <ele>4.2</ele>
        <time>2024-03-10T11:27:17Z</time>
      </trkpt>
      <trkpt lat="49.28363" lon="-0.10766">
        <ele>4.1</ele>
        <time>2024-03-10T11:27:18Z</time>
      </trkpt>
      <trkpt lat="49.28366" lon="-0.10764">
        <ele>4.1</ele>
        <time>2024-03-10T11:27:19Z</time>
      </trkpt>
      <trkpt lat="49.2837" lon="-0.10764">
        <ele>4.1</ele>
        <time>2024-03-10T11:27:20Z</time>
      </trkpt>
      <trkpt lat="49.28373" lon="-0.10763">
        <ele>4.1</ele>
        <time>2024-03-10T11:27:21Z</time>
      </trkpt>
      <trkpt lat="49.28376" lon="-0.10763">
        <ele>4.1</ele>
        <time>2024-03-10T11:27:22Z</time>
      </trkpt>
      <trkpt lat="49.28379" lon="-0.10762">
        <ele>4.1</ele>
        <time>2024-03-10T11:27:23Z</time>
      </trkpt>
      <trkpt lat="49.28383" lon="-0.10762">
        <ele>4.1</ele>
        <time>2024-03-10T11:27:24Z</time>
      </trkpt>
      <trkpt lat="49.28387" lon="-0.10762">
        <ele>4.1</ele>
        <time>2024-03-10T11:27:25Z</time>
      </trkpt>
      <trkpt lat="49.28391" lon="-0.10761">
        <ele>4.1</ele>
        <time>2024-03-10T11:27:26Z</time>
      </trkpt>
      <trkpt lat="49.28396" lon="-0.1076">
        <ele>4.1</ele>
        <time>2024-03-10T11:27:27Z</time>
      </trkpt>
      <trkpt lat="49.284" lon="-0.1076">
        <ele>4.2</ele>
        <time>2024-03-10T11:27:28Z</time>
      </trkpt>
      <trkpt lat="49.28405" lon="-0.10758">
        <ele>4.2</ele>
        <time>2024-03-10T11:27:29Z</time>
      </trkpt>
      <trkpt lat="49.28409" lon="-0.10758">
        <ele>4.2</ele>
        <time>2024-03-10T11:27:30Z</time>
      </trkpt>
      <trkpt lat="49.28413" lon="-0.10757">
        <ele>4.2</ele>
        <time>2024-03-10T11:27:31Z</time>
      </trkpt>
      <trkpt lat="49.28418" lon="-0.10758">
        <ele>4.1</ele>
        <time>2024-03-10T11:27:32Z</time>
      </trkpt>
      <trkpt lat="49.28421" lon="-0.1076">
        <ele>4.1</ele>
        <time>2024-03-10T11:27:33Z</time>
      </trkpt>
      <trkpt lat="49.28425" lon="-0.10767">
        <ele>4</ele>
        <time>2024-03-10T11:27:34Z</time>
      </trkpt>
      <trkpt lat="49.28427" lon="-0.10774">
        <ele>3.9</ele>
        <time>2024-03-10T11:27:35Z</time>
      </trkpt>
      <trkpt lat="49.28428" lon="-0.10781">
        <ele>3.8</ele>
        <time>2024-03-10T11:27:36Z</time>
      </trkpt>
      <trkpt lat="49.28428" lon="-0.10787">
        <ele>3.8</ele>
        <time>2024-03-10T11:27:37Z</time>
      </trkpt>
      <trkpt lat="49.28429" lon="-0.10794">
        <ele>3.7</ele>
        <time>2024-03-10T11:27:38Z</time>
      </trkpt>
      <trkpt lat="49.28429" lon="-0.10801">
        <ele>3.6</ele>
        <time>2024-03-10T11:27:39Z</time>
      </trkpt>
      <trkpt lat="49.28429" lon="-0.10809">
        <ele>3.6</ele>
        <time>2024-03-10T11:27:40Z</time>
      </trkpt>
      <trkpt lat="49.2843" lon="-0.10818">
        <ele>3.6</ele>
        <time>2024-03-10T11:27:41Z</time>
      </trkpt>
      <trkpt lat="49.28431" lon="-0.10827">
        <ele>3.6</ele>
        <time>2024-03-10T11:27:42Z</time>
      </trkpt>
      <trkpt lat="49.28432" lon="-0.10835">
        <ele>3.6</ele>
        <time>2024-03-10T11:27:43Z</time>
      </trkpt>
      <trkpt lat="49.28433" lon="-0.10844">
        <ele>3.6</ele>
        <time>2024-03-10T11:27:44Z</time>
      </trkpt>
      <trkpt lat="49.28434" lon="-0.10853">
        <ele>3.7</ele>
        <time>2024-03-10T11:27:45Z</time>
      </trkpt>
      <trkpt lat="49.28435" lon="-0.10861">
        <ele>3.8</ele>
        <time>2024-03-10T11:27:46Z</time>
      </trkpt>
      <trkpt lat="49.28435" lon="-0.1087">
        <ele>3.9</ele>
        <time>2024-03-10T11:27:47Z</time>
      </trkpt>
      <trkpt lat="49.28437" lon="-0.10877">
        <ele>4</ele>
        <time>2024-03-10T11:27:48Z</time>
      </trkpt>
      <trkpt lat="49.2844" lon="-0.10883">
        <ele>4.1</ele>
        <time>2024-03-10T11:27:49Z</time>
      </trkpt>
      <trkpt lat="49.28445" lon="-0.10884">
        <ele>4.2</ele>
        <time>2024-03-10T11:27:50Z</time>
      </trkpt>
      <trkpt lat="49.28451" lon="-0.10882">
        <ele>4.2</ele>
        <time>2024-03-10T11:27:51Z</time>
      </trkpt>
      <trkpt lat="49.28457" lon="-0.1088">
        <ele>4.1</ele>
        <time>2024-03-10T11:27:52Z</time>
      </trkpt>
      <trkpt lat="49.28462" lon="-0.10876">
        <ele>4</ele>
        <time>2024-03-10T11:27:53Z</time>
      </trkpt>
      <trkpt lat="49.28468" lon="-0.10873">
        <ele>4</ele>
        <time>2024-03-10T11:27:54Z</time>
      </trkpt>
      <trkpt lat="49.28474" lon="-0.1087">
        <ele>4</ele>
        <time>2024-03-10T11:27:55Z</time>
      </trkpt>
      <trkpt lat="49.28479" lon="-0.10867">
        <ele>4</ele>
        <time>2024-03-10T11:27:56Z</time>
      </trkpt>
      <trkpt lat="49.28485" lon="-0.10864">
        <ele>4.1</ele>
        <time>2024-03-10T11:27:57Z</time>
      </trkpt>
      <trkpt lat="49.28491" lon="-0.10861">
        <ele>4.2</ele>
        <time>2024-03-10T11:27:58Z</time>
      </trkpt>
      <trkpt lat="49.28497" lon="-0.10858">
        <ele>4.3</ele>
        <time>2024-03-10T11:27:59Z</time>
      </trkpt>
      <trkpt lat="49.28503" lon="-0.10856">
        <ele>4.4</ele>
        <time>2024-03-10T11:28:00Z</time>
      </trkpt>
      <trkpt lat="49.28509" lon="-0.10853">
        <ele>4.5</ele>
        <time>2024-03-10T11:28:01Z</time>
      </trkpt>
      <trkpt lat="49.28513" lon="-0.10851">
        <ele>4.6</ele>
        <time>2024-03-10T11:28:02Z</time>
      </trkpt>
      <trkpt lat="49.28516" lon="-0.1085">
        <ele>4.7</ele>
        <time>2024-03-10T11:28:03Z</time>
      </trkpt>
      <trkpt lat="49.28517" lon="-0.1085">
        <ele>4.7</ele>
        <time>2024-03-10T11:28:04Z</time>
      </trkpt>
      <trkpt lat="49.28517" lon="-0.1085">
        <ele>4.7</ele>
        <time>2024-03-10T11:28:05Z</time>
      </trkpt>
      <trkpt lat="49.28517" lon="-0.1085">
        <ele>4.7</ele>
        <time>2024-03-10T11:28:06Z</time>
      </trkpt>
      <trkpt lat="49.28517" lon="-0.1085">
        <ele>4.7</ele>
        <time>2024-03-10T11:28:07Z</time>
      </trkpt>
      <trkpt lat="49.28517" lon="-0.1085">
        <ele>4.7</ele>
        <time>2024-03-10T11:28:08Z</time>
      </trkpt>
      <trkpt lat="49.28517" lon="-0.1085">
        <ele>4.7</ele>
        <time>2024-03-10T11:28:09Z</time>
      </trkpt>
      <trkpt lat="49.28517" lon="-0.1085">
        <ele>4.7</ele>
        <time>2024-03-10T11:28:10Z</time>
      </trkpt>
      <trkpt lat="49.28517" lon="-0.1085">
        <ele>4.7</ele>
        <time>2024-03-10T11:28:11Z</time>
      </trkpt>
      <trkpt lat="49.28517" lon="-0.1085">
        <ele>4.7</ele>
        <time>2024-03-10T11:28:12Z</time>
      </trkpt>
      <trkpt lat="49.28517" lon="-0.1085">
        <ele>4.7</ele>
        <time>2024-03-10T11:28:13Z</time>
      </trkpt>
      <trkpt lat="49.28517" lon="-0.1085">
        <ele>4.7</ele>
        <time>2024-03-10T11:28:14Z</time>
      </trkpt>
      <trkpt lat="49.28517" lon="-0.1085">
        <ele>4.7</ele>
        <time>2024-03-10T11:28:15Z</time>
      </trkpt>
      <trkpt lat="49.28517" lon="-0.1085">
        <ele>4.7</ele>
        <time>2024-03-10T11:28:16Z</time>
      </trkpt>
      <trkpt lat="49.28517" lon="-0.1085">
        <ele>4.7</ele>
        <time>2024-03-10T11:28:17Z</time>
      </trkpt>
      <trkpt lat="49.28517" lon="-0.1085">
        <ele>4.7</ele>
        <time>2024-03-10T11:28:18Z</time>
      </trkpt>
      <trkpt lat="49.28517" lon="-0.1085">
        <ele>4.7</ele>
        <time>2024-03-10T11:28:19Z</time>
      </trkpt>
      <trkpt lat="49.28517" lon="-0.1085">
        <ele>4.7</ele>
        <time>2024-03-10T11:28:20Z</time>
      </trkpt>
      <trkpt lat="49.28517" lon="-0.1085">
        <ele>4.7</ele>
        <time>2024-03-10T11:28:21Z</time>
      </trkpt>
      <trkpt lat="49.28517" lon="-0.1085">
        <ele>4.7</ele>
        <time>2024-03-10T11:28:22Z</time>
      </trkpt>
      <trkpt lat="49.28518" lon="-0.10849">
        <ele>4.8</ele>
        <time>2024-03-10T11:28:23Z</time>
      </trkpt>
      <trkpt lat="49.2852" lon="-0.10848">
        <ele>4.8</ele>
        <time>2024-03-10T11:28:24Z</time>
      </trkpt>
      <trkpt lat="49.28523" lon="-0.10846">
        <ele>4.8</ele>
        <time>2024-03-10T11:28:25Z</time>
      </trkpt>
      <trkpt lat="49.28524" lon="-0.10845">
        <ele>4.8</ele>
        <time>2024-03-10T11:28:26Z</time>
      </trkpt>
      <trkpt lat="49.28526" lon="-0.10843">
        <ele>4.8</ele>
        <time>2024-03-10T11:28:27Z</time>
      </trkpt>
      <trkpt lat="49.2853" lon="-0.10843">
        <ele>4.8</ele>
        <time>2024-03-10T11:28:28Z</time>
      </trkpt>
      <trkpt lat="49.28533" lon="-0.10844">
        <ele>4.8</ele>
        <time>2024-03-10T11:28:29Z</time>
      </trkpt>
      <trkpt lat="49.28536" lon="-0.10848">
        <ele>4.8</ele>
        <time>2024-03-10T11:28:30Z</time>
      </trkpt>
      <trkpt lat="49.28538" lon="-0.10852">
        <ele>4.8</ele>
        <time>2024-03-10T11:28:31Z</time>
      </trkpt>
      <trkpt lat="49.28539" lon="-0.10857">
        <ele>4.7</ele>
        <time>2024-03-10T11:28:32Z</time>
      </trkpt>
      <trkpt lat="49.28539" lon="-0.10862">
        <ele>4.7</ele>
        <time>2024-03-10T11:28:33Z</time>
      </trkpt>
      <trkpt lat="49.2854" lon="-0.10867">
        <ele>4.7</ele>
        <time>2024-03-10T11:28:34Z</time>
      </trkpt>
      <trkpt lat="49.2854" lon="-0.10873">
        <ele>4.7</ele>
        <time>2024-03-10T11:28:35Z</time>
      </trkpt>
      <trkpt lat="49.2854" lon="-0.10878">
        <ele>4.7</ele>
        <time>2024-03-10T11:28:36Z</time>
      </trkpt>
      <trkpt lat="49.2854" lon="-0.10883">
        <ele>4.7</ele>
        <time>2024-03-10T11:28:37Z</time>
      </trkpt>
      <trkpt lat="49.28538" lon="-0.10888">
        <ele>4.7</ele>
        <time>2024-03-10T11:28:38Z</time>
      </trkpt>
      <trkpt lat="49.28536" lon="-0.10892">
        <ele>4.7</ele>
        <time>2024-03-10T11:28:39Z</time>
      </trkpt>
      <trkpt lat="49.28533" lon="-0.10897">
        <ele>4.8</ele>
        <time>2024-03-10T11:28:40Z</time>
      </trkpt>
      <trkpt lat="49.28532" lon="-0.10902">
        <ele>4.8</ele>
        <time>2024-03-10T11:28:41Z</time>
      </trkpt>
      <trkpt lat="49.2853" lon="-0.10909">
        <ele>4.9</ele>
        <time>2024-03-10T11:28:42Z</time>
      </trkpt>
      <trkpt lat="49.28529" lon="-0.10916">
        <ele>4.9</ele>
        <time>2024-03-10T11:28:43Z</time>
      </trkpt>
      <trkpt lat="49.28529" lon="-0.10924">
        <ele>4.9</ele>
        <time>2024-03-10T11:28:44Z</time>
      </trkpt>
      <trkpt lat="49.28529" lon="-0.10933">
        <ele>5</ele>
        <time>2024-03-10T11:28:45Z</time>
      </trkpt>
      <trkpt lat="49.2853" lon="-0.10941">
        <ele>5</ele>
        <time>2024-03-10T11:28:46Z</time>
      </trkpt>
      <trkpt lat="49.28532" lon="-0.10949">
        <ele>5</ele>
        <time>2024-03-10T11:28:47Z</time>
      </trkpt>
      <trkpt lat="49.28533" lon="-0.10957">
        <ele>5</ele>
        <time>2024-03-10T11:28:48Z</time>
      </trkpt>
      <trkpt lat="49.28534" lon="-0.10965">
        <ele>5.1</ele>
        <time>2024-03-10T11:28:49Z</time>
      </trkpt>
      <trkpt lat="49.28535" lon="-0.10974">
        <ele>5.1</ele>
        <time>2024-03-10T11:28:50Z</time>
      </trkpt>
      <trkpt lat="49.28536" lon="-0.10982">
        <ele>5.2</ele>
        <time>2024-03-10T11:28:51Z</time>
      </trkpt>
      <trkpt lat="49.28538" lon="-0.1099">
        <ele>5.2</ele>
        <time>2024-03-10T11:28:52Z</time>
      </trkpt>
      <trkpt lat="49.28539" lon="-0.10998">
        <ele>5.3</ele>
        <time>2024-03-10T11:28:53Z</time>
      </trkpt>
      <trkpt lat="49.28541" lon="-0.11007">
        <ele>5.4</ele>
        <time>2024-03-10T11:28:54Z</time>
      </trkpt>
      <trkpt lat="49.28542" lon="-0.11015">
        <ele>5.4</ele>
        <time>2024-03-10T11:28:55Z</time>
      </trkpt>
      <trkpt lat="49.28544" lon="-0.11023">
        <ele>5.5</ele>
        <time>2024-03-10T11:28:56Z</time>
      </trkpt>
      <trkpt lat="49.28545" lon="-0.11032">
        <ele>5.6</ele>
        <time>2024-03-10T11:28:57Z</time>
      </trkpt>
      <trkpt lat="49.28547" lon="-0.11039">
        <ele>5.7</ele>
        <time>2024-03-10T11:28:58Z</time>
      </trkpt>
      <trkpt lat="49.28548" lon="-0.11048">
        <ele>5.8</ele>
        <time>2024-03-10T11:28:59Z</time>
      </trkpt>
      <trkpt lat="49.2855" lon="-0.11056">
        <ele>5.8</ele>
        <time>2024-03-10T11:29:00Z</time>
      </trkpt>
      <trkpt lat="49.28553" lon="-0.11063">
        <ele>5.9</ele>
        <time>2024-03-10T11:29:01Z</time>
      </trkpt>
      <trkpt lat="49.28555" lon="-0.11071">
        <ele>6</ele>
        <time>2024-03-10T11:29:02Z</time>
      </trkpt>
      <trkpt lat="49.28557" lon="-0.1108">
        <ele>6.1</ele>
        <time>2024-03-10T11:29:03Z</time>
      </trkpt>
      <trkpt lat="49.28559" lon="-0.11089">
        <ele>6.1</ele>
        <time>2024-03-10T11:29:04Z</time>
      </trkpt>
      <trkpt lat="49.28561" lon="-0.11097">
        <ele>6.2</ele>
        <time>2024-03-10T11:29:05Z</time>
      </trkpt>
      <trkpt lat="49.28563" lon="-0.11106">
        <ele>6.3</ele>
        <time>2024-03-10T11:29:06Z</time>
      </trkpt>
      <trkpt lat="49.28566" lon="-0.11114">
        <ele>6.3</ele>
        <time>2024-03-10T11:29:07Z</time>
      </trkpt>
      <trkpt lat="49.28568" lon="-0.11122">
        <ele>6.4</ele>
        <time>2024-03-10T11:29:08Z</time>
      </trkpt>
      <trkpt lat="49.2857" lon="-0.11131">
        <ele>6.5</ele>
        <time>2024-03-10T11:29:09Z</time>
      </trkpt>
      <trkpt lat="49.28573" lon="-0.1114">
        <ele>6.5</ele>
        <time>2024-03-10T11:29:10Z</time>
      </trkpt>
      <trkpt lat="49.28575" lon="-0.11148">
        <ele>6.5</ele>
        <time>2024-03-10T11:29:11Z</time>
      </trkpt>
      <trkpt lat="49.28577" lon="-0.11157">
        <ele>6.5</ele>
        <time>2024-03-10T11:29:12Z</time>
      </trkpt>
      <trkpt lat="49.28579" lon="-0.11165">
        <ele>6.5</ele>
        <time>2024-03-10T11:29:13Z</time>
      </trkpt>
      <trkpt lat="49.28582" lon="-0.11173">
        <ele>6.6</ele>
        <time>2024-03-10T11:29:14Z</time>
      </trkpt>
      <trkpt lat="49.28584" lon="-0.11181">
        <ele>6.6</ele>
        <time>2024-03-10T11:29:15Z</time>
      </trkpt>
      <trkpt lat="49.28586" lon="-0.11189">
        <ele>6.6</ele>
        <time>2024-03-10T11:29:16Z</time>
      </trkpt>
      <trkpt lat="49.28588" lon="-0.11197">
        <ele>6.6</ele>
        <time>2024-03-10T11:29:17Z</time>
      </trkpt>
      <trkpt lat="49.2859" lon="-0.11205">
        <ele>6.6</ele>
        <time>2024-03-10T11:29:18Z</time>
      </trkpt>
      <trkpt lat="49.28592" lon="-0.11213">
        <ele>6.5</ele>
        <time>2024-03-10T11:29:19Z</time>
      </trkpt>
      <trkpt lat="49.28594" lon="-0.11219">
        <ele>6.5</ele>
        <time>2024-03-10T11:29:20Z</time>
      </trkpt>
      <trkpt lat="49.28596" lon="-0.11224">
        <ele>6.5</ele>
        <time>2024-03-10T11:29:21Z</time>
      </trkpt>
      <trkpt lat="49.28598" lon="-0.11228">
        <ele>6.5</ele>
        <time>2024-03-10T11:29:22Z</time>
      </trkpt>
      <trkpt lat="49.286" lon="-0.11232">
        <ele>6.5</ele>
        <time>2024-03-10T11:29:23Z</time>
      </trkpt>
      <trkpt lat="49.28602" lon="-0.11238">
        <ele>6.5</ele>
        <time>2024-03-10T11:29:24Z</time>
      </trkpt>
      <trkpt lat="49.28603" lon="-0.11245">
        <ele>6.5</ele>
        <time>2024-03-10T11:29:25Z</time>
      </trkpt>
      <trkpt lat="49.28604" lon="-0.11253">
        <ele>6.4</ele>
        <time>2024-03-10T11:29:26Z</time>
      </trkpt>
      <trkpt lat="49.28606" lon="-0.11261">
        <ele>6.3</ele>
        <time>2024-03-10T11:29:27Z</time>
      </trkpt>
      <trkpt lat="49.28608" lon="-0.1127">
        <ele>6.2</ele>
        <time>2024-03-10T11:29:28Z</time>
      </trkpt>
      <trkpt lat="49.2861" lon="-0.11278">
        <ele>6.1</ele>
        <time>2024-03-10T11:29:29Z</time>
      </trkpt>
      <trkpt lat="49.28612" lon="-0.11286">
        <ele>6</ele>
        <time>2024-03-10T11:29:30Z</time>
      </trkpt>
      <trkpt lat="49.28614" lon="-0.11295">
        <ele>5.9</ele>
        <time>2024-03-10T11:29:31Z</time>
      </trkpt>
      <trkpt lat="49.28616" lon="-0.11304">
        <ele>5.8</ele>
        <time>2024-03-10T11:29:32Z</time>
      </trkpt>
      <trkpt lat="49.28619" lon="-0.11313">
        <ele>5.6</ele>
        <time>2024-03-10T11:29:33Z</time>
      </trkpt>
      <trkpt lat="49.28622" lon="-0.11323">
        <ele>5.6</ele>
        <time>2024-03-10T11:29:34Z</time>
      </trkpt>
      <trkpt lat="49.28625" lon="-0.11333">
        <ele>5.5</ele>
        <time>2024-03-10T11:29:35Z</time>
      </trkpt>
      <trkpt lat="49.28627" lon="-0.11342">
        <ele>5.4</ele>
        <time>2024-03-10T11:29:36Z</time>
      </trkpt>
      <trkpt lat="49.2863" lon="-0.11352">
        <ele>5.3</ele>
        <time>2024-03-10T11:29:37Z</time>
      </trkpt>
      <trkpt lat="49.28633" lon="-0.11361">
        <ele>5.2</ele>
        <time>2024-03-10T11:29:38Z</time>
      </trkpt>
      <trkpt lat="49.28635" lon="-0.1137">
        <ele>5.2</ele>
        <time>2024-03-10T11:29:39Z</time>
      </trkpt>
      <trkpt lat="49.28638" lon="-0.1138">
        <ele>5.2</ele>
        <time>2024-03-10T11:29:40Z</time>
      </trkpt>
      <trkpt lat="49.2864" lon="-0.1139">
        <ele>5.1</ele>
        <time>2024-03-10T11:29:41Z</time>
      </trkpt>
      <trkpt lat="49.28643" lon="-0.114">
        <ele>5.1</ele>
        <time>2024-03-10T11:29:42Z</time>
      </trkpt>
      <trkpt lat="49.28646" lon="-0.1141">
        <ele>5</ele>
        <time>2024-03-10T11:29:43Z</time>
      </trkpt>
      <trkpt lat="49.28649" lon="-0.1142">
        <ele>5</ele>
        <time>2024-03-10T11:29:44Z</time>
      </trkpt>
      <trkpt lat="49.28652" lon="-0.1143">
        <ele>5</ele>
        <time>2024-03-10T11:29:45Z</time>
      </trkpt>
      <trkpt lat="49.28654" lon="-0.11439">
        <ele>5</ele>
        <time>2024-03-10T11:29:46Z</time>
      </trkpt>
      <trkpt lat="49.28657" lon="-0.11449">
        <ele>5</ele>
        <time>2024-03-10T11:29:47Z</time>
      </trkpt>
      <trkpt lat="49.2866" lon="-0.11458">
        <ele>5</ele>
        <time>2024-03-10T11:29:48Z</time>
      </trkpt>
      <trkpt lat="49.28662" lon="-0.11467">
        <ele>5</ele>
        <time>2024-03-10T11:29:49Z</time>
      </trkpt>
      <trkpt lat="49.28664" lon="-0.11477">
        <ele>5</ele>
        <time>2024-03-10T11:29:50Z</time>
      </trkpt>
      <trkpt lat="49.28667" lon="-0.11485">
        <ele>5</ele>
        <time>2024-03-10T11:29:51Z</time>
      </trkpt>
      <trkpt lat="49.28669" lon="-0.11493">
        <ele>5.1</ele>
        <time>2024-03-10T11:29:52Z</time>
      </trkpt>
      <trkpt lat="49.28671" lon="-0.11501">
        <ele>5.1</ele>
        <time>2024-03-10T11:29:53Z</time>
      </trkpt>
      <trkpt lat="49.28673" lon="-0.11509">
        <ele>5.1</ele>
        <time>2024-03-10T11:29:54Z</time>
      </trkpt>
      <trkpt lat="49.28675" lon="-0.11518">
        <ele>5.1</ele>
        <time>2024-03-10T11:29:55Z</time>
      </trkpt>
      <trkpt lat="49.28676" lon="-0.11528">
        <ele>5.1</ele>
        <time>2024-03-10T11:29:56Z</time>
      </trkpt>
      <trkpt lat="49.28677" lon="-0.11537">
        <ele>5.1</ele>
        <time>2024-03-10T11:29:57Z</time>
      </trkpt>
      <trkpt lat="49.28679" lon="-0.11546">
        <ele>5</ele>
        <time>2024-03-10T11:29:58Z</time>
      </trkpt>
      <trkpt lat="49.2868" lon="-0.11555">
        <ele>5</ele>
        <time>2024-03-10T11:29:59Z</time>
      </trkpt>
      <trkpt lat="49.28682" lon="-0.11564">
        <ele>5</ele>
        <time>2024-03-10T11:30:00Z</time>
      </trkpt>
      <trkpt lat="49.28683" lon="-0.11574">
        <ele>5</ele>
        <time>2024-03-10T11:30:01Z</time>
      </trkpt>
      <trkpt lat="49.28684" lon="-0.11585">
        <ele>5</ele>
        <time>2024-03-10T11:30:02Z</time>
      </trkpt>
      <trkpt lat="49.28685" lon="-0.11596">
        <ele>5</ele>
        <time>2024-03-10T11:30:03Z</time>
      </trkpt>
      <trkpt lat="49.28686" lon="-0.11607">
        <ele>5</ele>
        <time>2024-03-10T11:30:04Z</time>
      </trkpt>
      <trkpt lat="49.28686" lon="-0.11618">
        <ele>5</ele>
        <time>2024-03-10T11:30:05Z</time>
      </trkpt>
      <trkpt lat="49.28687" lon="-0.1163">
        <ele>5</ele>
        <time>2024-03-10T11:30:06Z</time>
      </trkpt>
      <trkpt lat="49.28687" lon="-0.11641">
        <ele>5</ele>
        <time>2024-03-10T11:30:07Z</time>
      </trkpt>
      <trkpt lat="49.28686" lon="-0.11652">
        <ele>5</ele>
        <time>2024-03-10T11:30:08Z</time>
      </trkpt>
      <trkpt lat="49.28686" lon="-0.11663">
        <ele>4.9</ele>
        <time>2024-03-10T11:30:09Z</time>
      </trkpt>
      <trkpt lat="49.28685" lon="-0.11674">
        <ele>4.9</ele>
        <time>2024-03-10T11:30:10Z</time>
      </trkpt>
      <trkpt lat="49.28685" lon="-0.11685">
        <ele>4.9</ele>
        <time>2024-03-10T11:30:11Z</time>
      </trkpt>
      <trkpt lat="49.28684" lon="-0.11696">
        <ele>4.9</ele>
        <time>2024-03-10T11:30:12Z</time>
      </trkpt>
      <trkpt lat="49.28684" lon="-0.11707">
        <ele>4.8</ele>
        <time>2024-03-10T11:30:13Z</time>
      </trkpt>
      <trkpt lat="49.28684" lon="-0.11718">
        <ele>4.8</ele>
        <time>2024-03-10T11:30:14Z</time>
      </trkpt>
      <trkpt lat="49.28684" lon="-0.11729">
        <ele>4.7</ele>
        <time>2024-03-10T11:30:15Z</time>
      </trkpt>
      <trkpt lat="49.28684" lon="-0.11741">
        <ele>4.7</ele>
        <time>2024-03-10T11:30:16Z</time>
      </trkpt>
      <trkpt lat="49.28684" lon="-0.11752">
        <ele>4.7</ele>
        <time>2024-03-10T11:30:17Z</time>
      </trkpt>
      <trkpt lat="49.28683" lon="-0.11763">
        <ele>4.6</ele>
        <time>2024-03-10T11:30:18Z</time>
      </trkpt>
      <trkpt lat="49.28683" lon="-0.11774">
        <ele>4.6</ele>
        <time>2024-03-10T11:30:19Z</time>
      </trkpt>
      <trkpt lat="49.28682" lon="-0.11785">
        <ele>4.6</ele>
        <time>2024-03-10T11:30:20Z</time>
      </trkpt>
      <trkpt lat="49.28681" lon="-0.11795">
        <ele>4.6</ele>
        <time>2024-03-10T11:30:21Z</time>
      </trkpt>
      <trkpt lat="49.28681" lon="-0.11805">
        <ele>4.6</ele>
        <time>2024-03-10T11:30:22Z</time>
      </trkpt>
      <trkpt lat="49.28679" lon="-0.11816">
        <ele>4.6</ele>
        <time>2024-03-10T11:30:23Z</time>
      </trkpt>
      <trkpt lat="49.28678" lon="-0.11826">
        <ele>4.6</ele>
        <time>2024-03-10T11:30:24Z</time>
      </trkpt>
      <trkpt lat="49.28677" lon="-0.11836">
        <ele>4.6</ele>
        <time>2024-03-10T11:30:25Z</time>
      </trkpt>
      <trkpt lat="49.28675" lon="-0.11845">
        <ele>4.6</ele>
        <time>2024-03-10T11:30:26Z</time>
      </trkpt>
      <trkpt lat="49.28674" lon="-0.11853">
        <ele>4.6</ele>
        <time>2024-03-10T11:30:27Z</time>
      </trkpt>
      <trkpt lat="49.28673" lon="-0.11861">
        <ele>4.6</ele>
        <time>2024-03-10T11:30:28Z</time>
      </trkpt>
      <trkpt lat="49.28671" lon="-0.11869">
        <ele>4.6</ele>
        <time>2024-03-10T11:30:29Z</time>
      </trkpt>
      <trkpt lat="49.28667" lon="-0.11876">
        <ele>4.6</ele>
        <time>2024-03-10T11:30:30Z</time>
      </trkpt>
      <trkpt lat="49.28663" lon="-0.11881">
        <ele>4.6</ele>
        <time>2024-03-10T11:30:31Z</time>
      </trkpt>
      <trkpt lat="49.28657" lon="-0.11885">
        <ele>4.7</ele>
        <time>2024-03-10T11:30:32Z</time>
      </trkpt>
      <trkpt lat="49.28652" lon="-0.11888">
        <ele>4.8</ele>
        <time>2024-03-10T11:30:33Z</time>
      </trkpt>
      <trkpt lat="49.28647" lon="-0.11892">
        <ele>4.9</ele>
        <time>2024-03-10T11:30:34Z</time>
      </trkpt>
      <trkpt lat="49.28643" lon="-0.11897">
        <ele>5</ele>
        <time>2024-03-10T11:30:35Z</time>
      </trkpt>
      <trkpt lat="49.28639" lon="-0.11904">
        <ele>5.2</ele>
        <time>2024-03-10T11:30:36Z</time>
      </trkpt>
      <trkpt lat="49.28635" lon="-0.11911">
        <ele>5.2</ele>
        <time>2024-03-10T11:30:37Z</time>
      </trkpt>
      <trkpt lat="49.28631" lon="-0.11918">
        <ele>5.2</ele>
        <time>2024-03-10T11:30:38Z</time>
      </trkpt>
      <trkpt lat="49.28627" lon="-0.11925">
        <ele>5.2</ele>
        <time>2024-03-10T11:30:39Z</time>
      </trkpt>
      <trkpt lat="49.28623" lon="-0.11933">
        <ele>5.2</ele>
        <time>2024-03-10T11:30:40Z</time>
      </trkpt>
      <trkpt lat="49.28619" lon="-0.1194">
        <ele>5.2</ele>
        <time>2024-03-10T11:30:41Z</time>
      </trkpt>
      <trkpt lat="49.28615" lon="-0.11948">
        <ele>5.2</ele>
        <time>2024-03-10T11:30:42Z</time>
      </trkpt>
      <trkpt lat="49.2861" lon="-0.11955">
        <ele>5.2</ele>
        <time>2024-03-10T11:30:43Z</time>
      </trkpt>
      <trkpt lat="49.28606" lon="-0.11963">
        <ele>5.2</ele>
        <time>2024-03-10T11:30:44Z</time>
      </trkpt>
      <trkpt lat="49.28602" lon="-0.1197">
        <ele>5.2</ele>
        <time>2024-03-10T11:30:45Z</time>
      </trkpt>
      <trkpt lat="49.28598" lon="-0.11976">
        <ele>5.2</ele>
        <time>2024-03-10T11:30:46Z</time>
      </trkpt>
      <trkpt lat="49.28593" lon="-0.11983">
        <ele>5.1</ele>
        <time>2024-03-10T11:30:47Z</time>
      </trkpt>
      <trkpt lat="49.28589" lon="-0.1199">
        <ele>5.1</ele>
        <time>2024-03-10T11:30:48Z</time>
      </trkpt>
      <trkpt lat="49.28585" lon="-0.11997">
        <ele>5.1</ele>
        <time>2024-03-10T11:30:49Z</time>
      </trkpt>
      <trkpt lat="49.28581" lon="-0.12004">
        <ele>5.1</ele>
        <time>2024-03-10T11:30:50Z</time>
      </trkpt>
      <trkpt lat="49.28578" lon="-0.12011">
        <ele>5.1</ele>
        <time>2024-03-10T11:30:51Z</time>
      </trkpt>
      <trkpt lat="49.28574" lon="-0.12018">
        <ele>5.1</ele>
        <time>2024-03-10T11:30:52Z</time>
      </trkpt>
      <trkpt lat="49.2857" lon="-0.12026">
        <ele>5.2</ele>
        <time>2024-03-10T11:30:53Z</time>
      </trkpt>
      <trkpt lat="49.28566" lon="-0.12033">
        <ele>5.2</ele>
        <time>2024-03-10T11:30:54Z</time>
      </trkpt>
      <trkpt lat="49.28562" lon="-0.1204">
        <ele>5.2</ele>
        <time>2024-03-10T11:30:55Z</time>
      </trkpt>
      <trkpt lat="49.28558" lon="-0.12048">
        <ele>5.2</ele>
        <time>2024-03-10T11:30:56Z</time>
      </trkpt>
      <trkpt lat="49.28554" lon="-0.12056">
        <ele>5.2</ele>
        <time>2024-03-10T11:30:57Z</time>
      </trkpt>
      <trkpt lat="49.2855" lon="-0.12063">
        <ele>5.2</ele>
        <time>2024-03-10T11:30:58Z</time>
      </trkpt>
      <trkpt lat="49.28545" lon="-0.12071">
        <ele>5.2</ele>
        <time>2024-03-10T11:30:59Z</time>
      </trkpt>
      <trkpt lat="49.28541" lon="-0.12078">
        <ele>5.2</ele>
        <time>2024-03-10T11:31:00Z</time>
      </trkpt>
      <trkpt lat="49.28536" lon="-0.12085">
        <ele>5.1</ele>
        <time>2024-03-10T11:31:01Z</time>
      </trkpt>
      <trkpt lat="49.28532" lon="-0.12093">
        <ele>5.1</ele>
        <time>2024-03-10T11:31:02Z</time>
      </trkpt>
      <trkpt lat="49.28528" lon="-0.121">
        <ele>5.1</ele>
        <time>2024-03-10T11:31:03Z</time>
      </trkpt>
      <trkpt lat="49.28524" lon="-0.12109">
        <ele>5.1</ele>
        <time>2024-03-10T11:31:04Z</time>
      </trkpt>
      <trkpt lat="49.2852" lon="-0.12116">
        <ele>5.1</ele>
        <time>2024-03-10T11:31:05Z</time>
      </trkpt>
      <trkpt lat="49.28516" lon="-0.12124">
        <ele>5.1</ele>
        <time>2024-03-10T11:31:06Z</time>
      </trkpt>
      <trkpt lat="49.28512" lon="-0.12131">
        <ele>5</ele>
        <time>2024-03-10T11:31:07Z</time>
      </trkpt>
      <trkpt lat="49.28508" lon="-0.12138">
        <ele>5</ele>
        <time>2024-03-10T11:31:08Z</time>
      </trkpt>
      <trkpt lat="49.28503" lon="-0.12146">
        <ele>4.9</ele>
        <time>2024-03-10T11:31:09Z</time>
      </trkpt>
      <trkpt lat="49.28499" lon="-0.12153">
        <ele>4.9</ele>
        <time>2024-03-10T11:31:10Z</time>
      </trkpt>
      <trkpt lat="49.28495" lon="-0.12161">
        <ele>4.8</ele>
        <time>2024-03-10T11:31:11Z</time>
      </trkpt>
      <trkpt lat="49.28491" lon="-0.12168">
        <ele>4.8</ele>
        <time>2024-03-10T11:31:12Z</time>
      </trkpt>
      <trkpt lat="49.28487" lon="-0.12176">
        <ele>4.7</ele>
        <time>2024-03-10T11:31:13Z</time>
      </trkpt>
      <trkpt lat="49.28483" lon="-0.12182">
        <ele>4.7</ele>
        <time>2024-03-10T11:31:14Z</time>
      </trkpt>
      <trkpt lat="49.2848" lon="-0.12188">
        <ele>4.7</ele>
        <time>2024-03-10T11:31:15Z</time>
      </trkpt>
      <trkpt lat="49.28478" lon="-0.12194">
        <ele>4.7</ele>
        <time>2024-03-10T11:31:16Z</time>
      </trkpt>
      <trkpt lat="49.28475" lon="-0.122">
        <ele>4.6</ele>
        <time>2024-03-10T11:31:17Z</time>
      </trkpt>
      <trkpt lat="49.28471" lon="-0.12206">
        <ele>4.5</ele>
        <time>2024-03-10T11:31:18Z</time>
      </trkpt>
      <trkpt lat="49.28468" lon="-0.12213">
        <ele>4.5</ele>
        <time>2024-03-10T11:31:19Z</time>
      </trkpt>
      <trkpt lat="49.28464" lon="-0.1222">
        <ele>4.4</ele>
        <time>2024-03-10T11:31:20Z</time>
      </trkpt>
      <trkpt lat="49.2846" lon="-0.12227">
        <ele>4.4</ele>
        <time>2024-03-10T11:31:21Z</time>
      </trkpt>
      <trkpt lat="49.28455" lon="-0.12235">
        <ele>4.4</ele>
        <time>2024-03-10T11:31:22Z</time>
      </trkpt>
      <trkpt lat="49.28451" lon="-0.12242">
        <ele>4.4</ele>
        <time>2024-03-10T11:31:23Z</time>
      </trkpt>
      <trkpt lat="49.28447" lon="-0.1225">
        <ele>4.4</ele>
        <time>2024-03-10T11:31:24Z</time>
      </trkpt>
      <trkpt lat="49.28443" lon="-0.12258">
        <ele>4.4</ele>
        <time>2024-03-10T11:31:25Z</time>
      </trkpt>
      <trkpt lat="49.28438" lon="-0.12266">
        <ele>4.4</ele>
        <time>2024-03-10T11:31:26Z</time>
      </trkpt>
      <trkpt lat="49.28434" lon="-0.12274">
        <ele>4.5</ele>
        <time>2024-03-10T11:31:27Z</time>
      </trkpt>
      <trkpt lat="49.28429" lon="-0.12282">
        <ele>4.5</ele>
        <time>2024-03-10T11:31:28Z</time>
      </trkpt>
      <trkpt lat="49.28425" lon="-0.1229">
        <ele>4.5</ele>
        <time>2024-03-10T11:31:29Z</time>
      </trkpt>
      <trkpt lat="49.2842" lon="-0.12298">
        <ele>4.4</ele>
        <time>2024-03-10T11:31:30Z</time>
      </trkpt>
      <trkpt lat="49.28415" lon="-0.12307">
        <ele>4.4</ele>
        <time>2024-03-10T11:31:31Z</time>
      </trkpt>
      <trkpt lat="49.28411" lon="-0.12315">
        <ele>4.4</ele>
        <time>2024-03-10T11:31:32Z</time>
      </trkpt>
      <trkpt lat="49.28406" lon="-0.12323">
        <ele>4.4</ele>
        <time>2024-03-10T11:31:33Z</time>
      </trkpt>
      <trkpt lat="49.28401" lon="-0.12331">
        <ele>4.4</ele>
        <time>2024-03-10T11:31:34Z</time>
      </trkpt>
      <trkpt lat="49.28397" lon="-0.12339">
        <ele>4.4</ele>
        <time>2024-03-10T11:31:35Z</time>
      </trkpt>
      <trkpt lat="49.28392" lon="-0.12347">
        <ele>4.4</ele>
        <time>2024-03-10T11:31:36Z</time>
      </trkpt>
      <trkpt lat="49.28388" lon="-0.12355">
        <ele>4.4</ele>
        <time>2024-03-10T11:31:37Z</time>
      </trkpt>
      <trkpt lat="49.28383" lon="-0.12363">
        <ele>4.4</ele>
        <time>2024-03-10T11:31:38Z</time>
      </trkpt>
      <trkpt lat="49.28379" lon="-0.12371">
        <ele>4.4</ele>
        <time>2024-03-10T11:31:39Z</time>
      </trkpt>
      <trkpt lat="49.28374" lon="-0.12379">
        <ele>4.4</ele>
        <time>2024-03-10T11:31:40Z</time>
      </trkpt>
      <trkpt lat="49.2837" lon="-0.12387">
        <ele>4.4</ele>
        <time>2024-03-10T11:31:41Z</time>
      </trkpt>
      <trkpt lat="49.28365" lon="-0.12395">
        <ele>4.4</ele>
        <time>2024-03-10T11:31:42Z</time>
      </trkpt>
      <trkpt lat="49.28361" lon="-0.12403">
        <ele>4.4</ele>
        <time>2024-03-10T11:31:43Z</time>
      </trkpt>
      <trkpt lat="49.28356" lon="-0.1241">
        <ele>4.4</ele>
        <time>2024-03-10T11:31:44Z</time>
      </trkpt>
      <trkpt lat="49.28352" lon="-0.12418">
        <ele>4.4</ele>
        <time>2024-03-10T11:31:45Z</time>
      </trkpt>
      <trkpt lat="49.28348" lon="-0.12425">
        <ele>4.4</ele>
        <time>2024-03-10T11:31:46Z</time>
      </trkpt>
      <trkpt lat="49.28343" lon="-0.12433">
        <ele>4.4</ele>
        <time>2024-03-10T11:31:47Z</time>
      </trkpt>
      <trkpt lat="49.28339" lon="-0.12441">
        <ele>4.4</ele>
        <time>2024-03-10T11:31:48Z</time>
      </trkpt>
      <trkpt lat="49.28334" lon="-0.12449">
        <ele>4.3</ele>
        <time>2024-03-10T11:31:49Z</time>
      </trkpt>
      <trkpt lat="49.2833" lon="-0.12457">
        <ele>4.3</ele>
        <time>2024-03-10T11:31:50Z</time>
      </trkpt>
      <trkpt lat="49.28325" lon="-0.12465">
        <ele>4.3</ele>
        <time>2024-03-10T11:31:51Z</time>
      </trkpt>
      <trkpt lat="49.28321" lon="-0.12474">
        <ele>4.2</ele>
        <time>2024-03-10T11:31:52Z</time>
      </trkpt>
      <trkpt lat="49.28316" lon="-0.12481">
        <ele>4.2</ele>
        <time>2024-03-10T11:31:53Z</time>
      </trkpt>
      <trkpt lat="49.28312" lon="-0.12489">
        <ele>4.2</ele>
        <time>2024-03-10T11:31:54Z</time>
      </trkpt>
      <trkpt lat="49.28308" lon="-0.12496">
        <ele>4.2</ele>
        <time>2024-03-10T11:31:55Z</time>
      </trkpt>
      <trkpt lat="49.28304" lon="-0.12504">
        <ele>4.1</ele>
        <time>2024-03-10T11:31:56Z</time>
      </trkpt>
      <trkpt lat="49.283" lon="-0.12512">
        <ele>4.1</ele>
        <time>2024-03-10T11:31:57Z</time>
      </trkpt>
      <trkpt lat="49.28296" lon="-0.1252">
        <ele>4.1</ele>
        <time>2024-03-10T11:31:58Z</time>
      </trkpt>
      <trkpt lat="49.28291" lon="-0.12527">
        <ele>4</ele>
        <time>2024-03-10T11:31:59Z</time>
      </trkpt>
      <trkpt lat="49.28287" lon="-0.12535">
        <ele>4</ele>
        <time>2024-03-10T11:32:00Z</time>
      </trkpt>
      <trkpt lat="49.28283" lon="-0.12543">
        <ele>3.9</ele>
        <time>2024-03-10T11:32:01Z</time>
      </trkpt>
      <trkpt lat="49.28279" lon="-0.1255">
        <ele>3.9</ele>
        <time>2024-03-10T11:32:02Z</time>
      </trkpt>
      <trkpt lat="49.28275" lon="-0.12558">
        <ele>3.8</ele>
        <time>2024-03-10T11:32:03Z</time>
      </trkpt>
      <trkpt lat="49.28271" lon="-0.12566">
        <ele>3.8</ele>
        <time>2024-03-10T11:32:04Z</time>
      </trkpt>
      <trkpt lat="49.28267" lon="-0.12574">
        <ele>3.8</ele>
        <time>2024-03-10T11:32:05Z</time>
      </trkpt>
      <trkpt lat="49.28263" lon="-0.12582">
        <ele>3.8</ele>
        <time>2024-03-10T11:32:06Z</time>
      </trkpt>
      <trkpt lat="49.28259" lon="-0.12589">
        <ele>3.7</ele>
        <time>2024-03-10T11:32:07Z</time>
      </trkpt>
      <trkpt lat="49.28254" lon="-0.12596">
        <ele>3.7</ele>
        <time>2024-03-10T11:32:08Z</time>
      </trkpt>
      <trkpt lat="49.2825" lon="-0.12604">
        <ele>3.7</ele>
        <time>2024-03-10T11:32:09Z</time>
      </trkpt>
      <trkpt lat="49.28245" lon="-0.12611">
        <ele>3.7</ele>
        <time>2024-03-10T11:32:10Z</time>
      </trkpt>
      <trkpt lat="49.28241" lon="-0.12618">
        <ele>3.7</ele>
        <time>2024-03-10T11:32:11Z</time>
      </trkpt>
      <trkpt lat="49.28237" lon="-0.12626">
        <ele>3.7</ele>
        <time>2024-03-10T11:32:12Z</time>
      </trkpt>
      <trkpt lat="49.28232" lon="-0.12633">
        <ele>3.7</ele>
        <time>2024-03-10T11:32:13Z</time>
      </trkpt>
      <trkpt lat="49.28228" lon="-0.12641">
        <ele>3.7</ele>
        <time>2024-03-10T11:32:14Z</time>
      </trkpt>
      <trkpt lat="49.28224" lon="-0.12649">
        <ele>3.7</ele>
        <time>2024-03-10T11:32:15Z</time>
      </trkpt>
      <trkpt lat="49.2822" lon="-0.12656">
        <ele>3.7</ele>
        <time>2024-03-10T11:32:16Z</time>
      </trkpt>
      <trkpt lat="49.28216" lon="-0.12664">
        <ele>3.7</ele>
        <time>2024-03-10T11:32:17Z</time>
      </trkpt>
      <trkpt lat="49.28211" lon="-0.12672">
        <ele>3.7</ele>
        <time>2024-03-10T11:32:18Z</time>
      </trkpt>
      <trkpt lat="49.28207" lon="-0.12679">
        <ele>3.7</ele>
        <time>2024-03-10T11:32:19Z</time>
      </trkpt>
      <trkpt lat="49.28203" lon="-0.12687">
        <ele>3.7</ele>
        <time>2024-03-10T11:32:20Z</time>
      </trkpt>
      <trkpt lat="49.28199" lon="-0.12694">
        <ele>3.7</ele>
        <time>2024-03-10T11:32:21Z</time>
      </trkpt>
      <trkpt lat="49.28195" lon="-0.127">
        <ele>3.7</ele>
        <time>2024-03-10T11:32:22Z</time>
      </trkpt>
      <trkpt lat="49.28192" lon="-0.12707">
        <ele>3.6</ele>
        <time>2024-03-10T11:32:23Z</time>
      </trkpt>
      <trkpt lat="49.28188" lon="-0.12714">
        <ele>3.6</ele>
        <time>2024-03-10T11:32:24Z</time>
      </trkpt>
      <trkpt lat="49.28184" lon="-0.12721">
        <ele>3.6</ele>
        <time>2024-03-10T11:32:25Z</time>
      </trkpt>
      <trkpt lat="49.2818" lon="-0.12728">
        <ele>3.6</ele>
        <time>2024-03-10T11:32:26Z</time>
      </trkpt>
      <trkpt lat="49.28176" lon="-0.12735">
        <ele>3.6</ele>
        <time>2024-03-10T11:32:27Z</time>
      </trkpt>
      <trkpt lat="49.28172" lon="-0.12743">
        <ele>3.7</ele>
        <time>2024-03-10T11:32:28Z</time>
      </trkpt>
      <trkpt lat="49.28167" lon="-0.1275">
        <ele>3.7</ele>
        <time>2024-03-10T11:32:29Z</time>
      </trkpt>
      <trkpt lat="49.28163" lon="-0.12757">
        <ele>3.7</ele>
        <time>2024-03-10T11:32:30Z</time>
      </trkpt>
      <trkpt lat="49.28159" lon="-0.12765">
        <ele>3.7</ele>
        <time>2024-03-10T11:32:31Z</time>
      </trkpt>
      <trkpt lat="49.28155" lon="-0.12772">
        <ele>3.7</ele>
        <time>2024-03-10T11:32:32Z</time>
      </trkpt>
      <trkpt lat="49.28151" lon="-0.1278">
        <ele>3.7</ele>
        <time>2024-03-10T11:32:33Z</time>
      </trkpt>
      <trkpt lat="49.28147" lon="-0.12787">
        <ele>3.7</ele>
        <time>2024-03-10T11:32:34Z</time>
      </trkpt>
      <trkpt lat="49.28143" lon="-0.12795">
        <ele>3.7</ele>
        <time>2024-03-10T11:32:35Z</time>
      </trkpt>
      <trkpt lat="49.28138" lon="-0.12803">
        <ele>3.7</ele>
        <time>2024-03-10T11:32:36Z</time>
      </trkpt>
      <trkpt lat="49.28134" lon="-0.1281">
        <ele>3.7</ele>
        <time>2024-03-10T11:32:37Z</time>
      </trkpt>
      <trkpt lat="49.28129" lon="-0.12818">
        <ele>3.7</ele>
        <time>2024-03-10T11:32:38Z</time>
      </trkpt>
      <trkpt lat="49.28125" lon="-0.12826">
        <ele>3.7</ele>
        <time>2024-03-10T11:32:39Z</time>
      </trkpt>
      <trkpt lat="49.2812" lon="-0.12833">
        <ele>3.7</ele>
        <time>2024-03-10T11:32:40Z</time>
      </trkpt>
      <trkpt lat="49.28115" lon="-0.12841">
        <ele>3.7</ele>
        <time>2024-03-10T11:32:41Z</time>
      </trkpt>
      <trkpt lat="49.28111" lon="-0.12849">
        <ele>3.7</ele>
        <time>2024-03-10T11:32:42Z</time>
      </trkpt>
      <trkpt lat="49.28106" lon="-0.12857">
        <ele>3.7</ele>
        <time>2024-03-10T11:32:43Z</time>
      </trkpt>
      <trkpt lat="49.28102" lon="-0.12865">
        <ele>3.7</ele>
        <time>2024-03-10T11:32:44Z</time>
      </trkpt>
      <trkpt lat="49.28097" lon="-0.12873">
        <ele>3.7</ele>
        <time>2024-03-10T11:32:45Z</time>
      </trkpt>
      <trkpt lat="49.28093" lon="-0.12881">
        <ele>3.7</ele>
        <time>2024-03-10T11:32:46Z</time>
      </trkpt>
      <trkpt lat="49.28089" lon="-0.12889">
        <ele>3.7</ele>
        <time>2024-03-10T11:32:47Z</time>
      </trkpt>
      <trkpt lat="49.28085" lon="-0.12897">
        <ele>3.7</ele>
        <time>2024-03-10T11:32:48Z</time>
      </trkpt>
      <trkpt lat="49.2808" lon="-0.12904">
        <ele>3.8</ele>
        <time>2024-03-10T11:32:49Z</time>
      </trkpt>
      <trkpt lat="49.28076" lon="-0.12912">
        <ele>3.8</ele>
        <time>2024-03-10T11:32:50Z</time>
      </trkpt>
      <trkpt lat="49.28072" lon="-0.12919">
        <ele>3.8</ele>
        <time>2024-03-10T11:32:51Z</time>
      </trkpt>
      <trkpt lat="49.28067" lon="-0.12927">
        <ele>3.8</ele>
        <time>2024-03-10T11:32:52Z</time>
      </trkpt>
      <trkpt lat="49.28063" lon="-0.12934">
        <ele>3.8</ele>
        <time>2024-03-10T11:32:53Z</time>
      </trkpt>
      <trkpt lat="49.28059" lon="-0.12942">
        <ele>3.9</ele>
        <time>2024-03-10T11:32:54Z</time>
      </trkpt>
      <trkpt lat="49.28055" lon="-0.12949">
        <ele>3.9</ele>
        <time>2024-03-10T11:32:55Z</time>
      </trkpt>
      <trkpt lat="49.28051" lon="-0.12957">
        <ele>3.9</ele>
        <time>2024-03-10T11:32:56Z</time>
      </trkpt>
      <trkpt lat="49.28047" lon="-0.12964">
        <ele>3.9</ele>
        <time>2024-03-10T11:32:57Z</time>
      </trkpt>
      <trkpt lat="49.28043" lon="-0.12971">
        <ele>3.9</ele>
        <time>2024-03-10T11:32:58Z</time>
      </trkpt>
      <trkpt lat="49.28039" lon="-0.12977">
        <ele>4</ele>
        <time>2024-03-10T11:32:59Z</time>
      </trkpt>
      <trkpt lat="49.28036" lon="-0.12985">
        <ele>4</ele>
        <time>2024-03-10T11:33:00Z</time>
      </trkpt>
      <trkpt lat="49.28032" lon="-0.12993">
        <ele>4.1</ele>
        <time>2024-03-10T11:33:01Z</time>
      </trkpt>
      <trkpt lat="49.28027" lon="-0.13">
        <ele>4.1</ele>
        <time>2024-03-10T11:33:02Z</time>
      </trkpt>
      <trkpt lat="49.28023" lon="-0.13008">
        <ele>4.1</ele>
        <time>2024-03-10T11:33:03Z</time>
      </trkpt>
      <trkpt lat="49.28018" lon="-0.13015">
        <ele>4.1</ele>
        <time>2024-03-10T11:33:04Z</time>
      </trkpt>
      <trkpt lat="49.28014" lon="-0.13023">
        <ele>4.1</ele>
        <time>2024-03-10T11:33:05Z</time>
      </trkpt>
      <trkpt lat="49.2801" lon="-0.1303">
        <ele>4.1</ele>
        <time>2024-03-10T11:33:06Z</time>
      </trkpt>
      <trkpt lat="49.28005" lon="-0.13038">
        <ele>4.1</ele>
        <time>2024-03-10T11:33:07Z</time>
      </trkpt>
      <trkpt lat="49.28001" lon="-0.13046">
        <ele>4.1</ele>
        <time>2024-03-10T11:33:08Z</time>
      </trkpt>
      <trkpt lat="49.27996" lon="-0.13054">
        <ele>4.2</ele>
        <time>2024-03-10T11:33:09Z</time>
      </trkpt>
      <trkpt lat="49.27992" lon="-0.13061">
        <ele>4.2</ele>
        <time>2024-03-10T11:33:10Z</time>
      </trkpt>
      <trkpt lat="49.27987" lon="-0.13069">
        <ele>4.2</ele>
        <time>2024-03-10T11:33:11Z</time>
      </trkpt>
      <trkpt lat="49.27983" lon="-0.13077">
        <ele>4.2</ele>
        <time>2024-03-10T11:33:12Z</time>
      </trkpt>
      <trkpt lat="49.27979" lon="-0.13085">
        <ele>4.2</ele>
        <time>2024-03-10T11:33:13Z</time>
      </trkpt>
      <trkpt lat="49.27974" lon="-0.13092">
        <ele>4.1</ele>
        <time>2024-03-10T11:33:14Z</time>
      </trkpt>
      <trkpt lat="49.2797" lon="-0.13099">
        <ele>4.1</ele>
        <time>2024-03-10T11:33:15Z</time>
      </trkpt>
      <trkpt lat="49.27966" lon="-0.13107">
        <ele>4.1</ele>
        <time>2024-03-10T11:33:16Z</time>
      </trkpt>
      <trkpt lat="49.27962" lon="-0.13115">
        <ele>4.2</ele>
        <time>2024-03-10T11:33:17Z</time>
      </trkpt>
      <trkpt lat="49.27958" lon="-0.13122">
        <ele>4.2</ele>
        <time>2024-03-10T11:33:18Z</time>
      </trkpt>
      <trkpt lat="49.27953" lon="-0.1313">
        <ele>4.2</ele>
        <time>2024-03-10T11:33:19Z</time>
      </trkpt>
      <trkpt lat="49.27949" lon="-0.13137">
        <ele>4.2</ele>
        <time>2024-03-10T11:33:20Z</time>
      </trkpt>
      <trkpt lat="49.27945" lon="-0.13144">
        <ele>4.2</ele>
        <time>2024-03-10T11:33:21Z</time>
      </trkpt>
      <trkpt lat="49.27941" lon="-0.13151">
        <ele>4.2</ele>
        <time>2024-03-10T11:33:22Z</time>
      </trkpt>
      <trkpt lat="49.27937" lon="-0.13158">
        <ele>4.2</ele>
        <time>2024-03-10T11:33:23Z</time>
      </trkpt>
      <trkpt lat="49.27933" lon="-0.13166">
        <ele>4.2</ele>
        <time>2024-03-10T11:33:24Z</time>
      </trkpt>
      <trkpt lat="49.27929" lon="-0.13173">
        <ele>4.2</ele>
        <time>2024-03-10T11:33:25Z</time>
      </trkpt>
      <trkpt lat="49.27924" lon="-0.1318">
        <ele>4.2</ele>
        <time>2024-03-10T11:33:26Z</time>
      </trkpt>
      <trkpt lat="49.2792" lon="-0.13188">
        <ele>4.2</ele>
        <time>2024-03-10T11:33:27Z</time>
      </trkpt>
      <trkpt lat="49.27916" lon="-0.13195">
        <ele>4.2</ele>
        <time>2024-03-10T11:33:28Z</time>
      </trkpt>
      <trkpt lat="49.27912" lon="-0.13203">
        <ele>4.2</ele>
        <time>2024-03-10T11:33:29Z</time>
      </trkpt>
      <trkpt lat="49.27908" lon="-0.13211">
        <ele>4.2</ele>
        <time>2024-03-10T11:33:30Z</time>
      </trkpt>
      <trkpt lat="49.27904" lon="-0.13218">
        <ele>4</ele>
        <time>2024-03-10T11:33:31Z</time>
      </trkpt>
      <trkpt lat="49.27899" lon="-0.13226">
        <ele>3.9</ele>
        <time>2024-03-10T11:33:32Z</time>
      </trkpt>
      <trkpt lat="49.27895" lon="-0.13234">
        <ele>3.9</ele>
        <time>2024-03-10T11:33:33Z</time>
      </trkpt>
      <trkpt lat="49.27891" lon="-0.13242">
        <ele>3.9</ele>
        <time>2024-03-10T11:33:34Z</time>
      </trkpt>
      <trkpt lat="49.27886" lon="-0.1325">
        <ele>3.9</ele>
        <time>2024-03-10T11:33:35Z</time>
      </trkpt>
      <trkpt lat="49.27882" lon="-0.13257">
        <ele>3.9</ele>
        <time>2024-03-10T11:33:36Z</time>
      </trkpt>
      <trkpt lat="49.27878" lon="-0.13265">
        <ele>3.9</ele>
        <time>2024-03-10T11:33:37Z</time>
      </trkpt>
      <trkpt lat="49.27873" lon="-0.13273">
        <ele>3.9</ele>
        <time>2024-03-10T11:33:38Z</time>
      </trkpt>
      <trkpt lat="49.27869" lon="-0.13282">
        <ele>3.9</ele>
        <time>2024-03-10T11:33:39Z</time>
      </trkpt>
      <trkpt lat="49.27865" lon="-0.1329">
        <ele>3.9</ele>
        <time>2024-03-10T11:33:40Z</time>
      </trkpt>
      <trkpt lat="49.27862" lon="-0.13298">
        <ele>3.9</ele>
        <time>2024-03-10T11:33:41Z</time>
      </trkpt>
      <trkpt lat="49.2786" lon="-0.13308">
        <ele>4</ele>
        <time>2024-03-10T11:33:42Z</time>
      </trkpt>
      <trkpt lat="49.27859" lon="-0.13317">
        <ele>4</ele>
        <time>2024-03-10T11:33:43Z</time>
      </trkpt>
      <trkpt lat="49.27859" lon="-0.13327">
        <ele>4.1</ele>
        <time>2024-03-10T11:33:44Z</time>
      </trkpt>
      <trkpt lat="49.27859" lon="-0.13337">
        <ele>4.3</ele>
        <time>2024-03-10T11:33:45Z</time>
      </trkpt>
      <trkpt lat="49.27859" lon="-0.13347">
        <ele>4.4</ele>
        <time>2024-03-10T11:33:46Z</time>
      </trkpt>
      <trkpt lat="49.2786" lon="-0.13355">
        <ele>4.4</ele>
        <time>2024-03-10T11:33:47Z</time>
      </trkpt>
      <trkpt lat="49.2786" lon="-0.13362">
        <ele>4.3</ele>
        <time>2024-03-10T11:33:48Z</time>
      </trkpt>
      <trkpt lat="49.27859" lon="-0.13367">
        <ele>4.3</ele>
        <time>2024-03-10T11:33:49Z</time>
      </trkpt>
      <trkpt lat="49.27855" lon="-0.13373">
        <ele>4.3</ele>
        <time>2024-03-10T11:33:50Z</time>
      </trkpt>
      <trkpt lat="49.27851" lon="-0.13379">
        <ele>4.2</ele>
        <time>2024-03-10T11:33:51Z</time>
      </trkpt>
      <trkpt lat="49.27848" lon="-0.13386">
        <ele>4.1</ele>
        <time>2024-03-10T11:33:52Z</time>
      </trkpt>
      <trkpt lat="49.27845" lon="-0.13393">
        <ele>4</ele>
        <time>2024-03-10T11:33:53Z</time>
      </trkpt>
      <trkpt lat="49.27844" lon="-0.13402">
        <ele>3.9</ele>
        <time>2024-03-10T11:33:54Z</time>
      </trkpt>
      <trkpt lat="49.27844" lon="-0.13411">
        <ele>3.9</ele>
        <time>2024-03-10T11:33:55Z</time>
      </trkpt>
      <trkpt lat="49.27848" lon="-0.13416">
        <ele>3.9</ele>
        <time>2024-03-10T11:33:56Z</time>
      </trkpt>
      <trkpt lat="49.27853" lon="-0.13421">
        <ele>3.8</ele>
        <time>2024-03-10T11:33:57Z</time>
      </trkpt>
      <trkpt lat="49.27858" lon="-0.13425">
        <ele>3.8</ele>
        <time>2024-03-10T11:33:58Z</time>
      </trkpt>
      <trkpt lat="49.27864" lon="-0.13428">
        <ele>3.8</ele>
        <time>2024-03-10T11:33:59Z</time>
      </trkpt>
      <trkpt lat="49.27869" lon="-0.13433">
        <ele>3.8</ele>
        <time>2024-03-10T11:34:00Z</time>
      </trkpt>
      <trkpt lat="49.27874" lon="-0.13438">
        <ele>3.8</ele>
        <time>2024-03-10T11:34:01Z</time>
      </trkpt>
      <trkpt lat="49.27879" lon="-0.13443">
        <ele>3.8</ele>
        <time>2024-03-10T11:34:02Z</time>
      </trkpt>
      <trkpt lat="49.27884" lon="-0.13448">
        <ele>3.8</ele>
        <time>2024-03-10T11:34:03Z</time>
      </trkpt>
      <trkpt lat="49.27888" lon="-0.13453">
        <ele>3.8</ele>
        <time>2024-03-10T11:34:04Z</time>
      </trkpt>
      <trkpt lat="49.27893" lon="-0.13458">
        <ele>3.8</ele>
        <time>2024-03-10T11:34:05Z</time>
      </trkpt>
      <trkpt lat="49.27898" lon="-0.13464">
        <ele>3.8</ele>
        <time>2024-03-10T11:34:06Z</time>
      </trkpt>
      <trkpt lat="49.27903" lon="-0.13469">
        <ele>3.9</ele>
        <time>2024-03-10T11:34:07Z</time>
      </trkpt>
      <trkpt lat="49.27908" lon="-0.13475">
        <ele>3.9</ele>
        <time>2024-03-10T11:34:08Z</time>
      </trkpt>
      <trkpt lat="49.27913" lon="-0.1348">
        <ele>4</ele>
        <time>2024-03-10T11:34:09Z</time>
      </trkpt>
      <trkpt lat="49.27918" lon="-0.13485">
        <ele>4</ele>
        <time>2024-03-10T11:34:10Z</time>
      </trkpt>
      <trkpt lat="49.27922" lon="-0.1349">
        <ele>4</ele>
        <time>2024-03-10T11:34:11Z</time>
      </trkpt>
      <trkpt lat="49.27926" lon="-0.13494">
        <ele>4.1</ele>
        <time>2024-03-10T11:34:12Z</time>
      </trkpt>
      <trkpt lat="49.2793" lon="-0.13498">
        <ele>4.1</ele>
        <time>2024-03-10T11:34:13Z</time>
      </trkpt>
      <trkpt lat="49.27934" lon="-0.13503">
        <ele>4.2</ele>
        <time>2024-03-10T11:34:14Z</time>
      </trkpt>
      <trkpt lat="49.27939" lon="-0.13508">
        <ele>4.3</ele>
        <time>2024-03-10T11:34:15Z</time>
      </trkpt>
      <trkpt lat="49.27944" lon="-0.13511">
        <ele>4.3</ele>
        <time>2024-03-10T11:34:16Z</time>
      </trkpt>
      <trkpt lat="49.27949" lon="-0.13515">
        <ele>4.2</ele>
        <time>2024-03-10T11:34:17Z</time>
      </trkpt>
      <trkpt lat="49.27953" lon="-0.13519">
        <ele>4.1</ele>
        <time>2024-03-10T11:34:18Z</time>
      </trkpt>
      <trkpt lat="49.27957" lon="-0.13523">
        <ele>4.1</ele>
        <time>2024-03-10T11:34:19Z</time>
      </trkpt>
      <trkpt lat="49.27961" lon="-0.13528">
        <ele>4</ele>
        <time>2024-03-10T11:34:20Z</time>
      </trkpt>
      <trkpt lat="49.27965" lon="-0.13532">
        <ele>4</ele>
        <time>2024-03-10T11:34:21Z</time>
      </trkpt>
      <trkpt lat="49.27969" lon="-0.13536">
        <ele>3.9</ele>
        <time>2024-03-10T11:34:22Z</time>
      </trkpt>
      <trkpt lat="49.27973" lon="-0.1354">
        <ele>3.9</ele>
        <time>2024-03-10T11:34:23Z</time>
      </trkpt>
      <trkpt lat="49.27976" lon="-0.13544">
        <ele>3.8</ele>
        <time>2024-03-10T11:34:24Z</time>
      </trkpt>
      <trkpt lat="49.2798" lon="-0.13547">
        <ele>3.7</ele>
        <time>2024-03-10T11:34:25Z</time>
      </trkpt>
      <trkpt lat="49.27985" lon="-0.13551">
        <ele>3.7</ele>
        <time>2024-03-10T11:34:26Z</time>
      </trkpt>
      <trkpt lat="49.27989" lon="-0.13553">
        <ele>3.6</ele>
        <time>2024-03-10T11:34:27Z</time>
      </trkpt>
      <trkpt lat="49.27993" lon="-0.13555">
        <ele>3.5</ele>
        <time>2024-03-10T11:34:28Z</time>
      </trkpt>
      <trkpt lat="49.27997" lon="-0.13557">
        <ele>3.5</ele>
        <time>2024-03-10T11:34:29Z</time>
      </trkpt>
      <trkpt lat="49.28001" lon="-0.13559">
        <ele>3.5</ele>
        <time>2024-03-10T11:34:30Z</time>
      </trkpt>
      <trkpt lat="49.28004" lon="-0.13561">
        <ele>3.5</ele>
        <time>2024-03-10T11:34:31Z</time>
      </trkpt>
      <trkpt lat="49.28007" lon="-0.13564">
        <ele>3.5</ele>
        <time>2024-03-10T11:34:32Z</time>
      </trkpt>
      <trkpt lat="49.28008" lon="-0.13564">
        <ele>3.5</ele>
        <time>2024-03-10T11:34:33Z</time>
      </trkpt>
      <trkpt lat="49.2801" lon="-0.13565">
        <ele>3.5</ele>
        <time>2024-03-10T11:34:34Z</time>
      </trkpt>
      <trkpt lat="49.28011" lon="-0.13565">
        <ele>3.5</ele>
        <time>2024-03-10T11:34:35Z</time>
      </trkpt>
      <trkpt lat="49.28011" lon="-0.13566">
        <ele>3.5</ele>
        <time>2024-03-10T11:34:36Z</time>
      </trkpt>
      <trkpt lat="49.2801" lon="-0.13566">
        <ele>3.5</ele>
        <time>2024-03-10T11:34:37Z</time>
      </trkpt>
      <trkpt lat="49.2801" lon="-0.13566">
        <ele>3.5</ele>
        <time>2024-03-10T11:34:38Z</time>
      </trkpt>
      <trkpt lat="49.2801" lon="-0.13567">
        <ele>3.5</ele>
        <time>2024-03-10T11:34:39Z</time>
      </trkpt>
      <trkpt lat="49.28009" lon="-0.13567">
        <ele>3.5</ele>
        <time>2024-03-10T11:34:40Z</time>
      </trkpt>
      <trkpt lat="49.28009" lon="-0.13567">
        <ele>3.5</ele>
        <time>2024-03-10T11:34:41Z</time>
      </trkpt>
      <trkpt lat="49.28009" lon="-0.13567">
        <ele>3.5</ele>
        <time>2024-03-10T11:34:42Z</time>
      </trkpt>
      <trkpt lat="49.28009" lon="-0.13567">
        <ele>3.5</ele>
        <time>2024-03-10T11:34:43Z</time>
      </trkpt>
      <trkpt lat="49.28009" lon="-0.13567">
        <ele>3.5</ele>
        <time>2024-03-10T11:34:44Z</time>
      </trkpt>
      <trkpt lat="49.28009" lon="-0.13567">
        <ele>3.5</ele>
        <time>2024-03-10T11:34:45Z</time>
      </trkpt>
      <trkpt lat="49.28009" lon="-0.13567">
        <ele>3.5</ele>
        <time>2024-03-10T11:34:46Z</time>
      </trkpt>
      <trkpt lat="49.28009" lon="-0.13567">
        <ele>3.5</ele>
        <time>2024-03-10T11:34:47Z</time>
      </trkpt>
      <trkpt lat="49.28009" lon="-0.13567">
        <ele>3.5</ele>
        <time>2024-03-10T11:34:48Z</time>
      </trkpt>
      <trkpt lat="49.28009" lon="-0.13567">
        <ele>3.5</ele>
        <time>2024-03-10T11:34:49Z</time>
      </trkpt>
      <trkpt lat="49.28009" lon="-0.13567">
        <ele>3.5</ele>
        <time>2024-03-10T11:34:50Z</time>
      </trkpt>
      <trkpt lat="49.28009" lon="-0.13567">
        <ele>3.5</ele>
        <time>2024-03-10T11:34:51Z</time>
      </trkpt>
      <trkpt lat="49.28009" lon="-0.13567">
        <ele>3.5</ele>
        <time>2024-03-10T11:34:52Z</time>
      </trkpt>
      <trkpt lat="49.28009" lon="-0.13567">
        <ele>3.5</ele>
        <time>2024-03-10T11:34:53Z</time>
      </trkpt>
      <trkpt lat="49.28009" lon="-0.13567">
        <ele>3.5</ele>
        <time>2024-03-10T11:34:54Z</time>
      </trkpt>
      <trkpt lat="49.28009" lon="-0.13567">
        <ele>3.5</ele>
        <time>2024-03-10T11:34:55Z</time>
      </trkpt>
      <trkpt lat="49.28009" lon="-0.13567">
        <ele>3.5</ele>
        <time>2024-03-10T11:34:56Z</time>
      </trkpt>
      <trkpt lat="49.28009" lon="-0.13567">
        <ele>3.5</ele>
        <time>2024-03-10T11:34:57Z</time>
      </trkpt>
      <trkpt lat="49.28009" lon="-0.13567">
        <ele>3.5</ele>
        <time>2024-03-10T11:34:58Z</time>
      </trkpt>
      <trkpt lat="49.28009" lon="-0.13567">
        <ele>3.5</ele>
        <time>2024-03-10T11:34:59Z</time>
      </trkpt>
      <trkpt lat="49.2801" lon="-0.13567">
        <ele>3.5</ele>
        <time>2024-03-10T11:35:00Z</time>
      </trkpt>
      <trkpt lat="49.28009" lon="-0.13567">
        <ele>3.5</ele>
        <time>2024-03-10T11:35:01Z</time>
      </trkpt>
      <trkpt lat="49.28009" lon="-0.13567">
        <ele>3.5</ele>
        <time>2024-03-10T11:35:02Z</time>
      </trkpt>
      <trkpt lat="49.28009" lon="-0.13566">
        <ele>3.5</ele>
        <time>2024-03-10T11:35:03Z</time>
      </trkpt>
      <trkpt lat="49.28009" lon="-0.13566">
        <ele>3.5</ele>
        <time>2024-03-10T11:35:04Z</time>
      </trkpt>
      <trkpt lat="49.28009" lon="-0.13566">
        <ele>3.5</ele>
        <time>2024-03-10T11:35:05Z</time>
      </trkpt>
      <trkpt lat="49.28009" lon="-0.13566">
        <ele>3.5</ele>
        <time>2024-03-10T11:35:06Z</time>
      </trkpt>
      <trkpt lat="49.28009" lon="-0.13566">
        <ele>3.5</ele>
        <time>2024-03-10T11:35:07Z</time>
      </trkpt>
      <trkpt lat="49.2801" lon="-0.13566">
        <ele>3.5</ele>
        <time>2024-03-10T11:35:08Z</time>
      </trkpt>
      <trkpt lat="49.28011" lon="-0.13565">
        <ele>3.5</ele>
        <time>2024-03-10T11:35:09Z</time>
      </trkpt>
      <trkpt lat="49.28011" lon="-0.13565">
        <ele>3.5</ele>
        <time>2024-03-10T11:35:10Z</time>
      </trkpt>
      <trkpt lat="49.28011" lon="-0.13565">
        <ele>3.5</ele>
        <time>2024-03-10T11:35:11Z</time>
      </trkpt>
      <trkpt lat="49.28011" lon="-0.13565">
        <ele>3.5</ele>
        <time>2024-03-10T11:35:12Z</time>
      </trkpt>
      <trkpt lat="49.28011" lon="-0.13565">
        <ele>3.5</ele>
        <time>2024-03-10T11:35:13Z</time>
      </trkpt>
      <trkpt lat="49.28011" lon="-0.13565">
        <ele>3.5</ele>
        <time>2024-03-10T11:35:14Z</time>
      </trkpt>
      <trkpt lat="49.28011" lon="-0.13565">
        <ele>3.5</ele>
        <time>2024-03-10T11:35:15Z</time>
      </trkpt>
      <trkpt lat="49.28011" lon="-0.13565">
        <ele>3.5</ele>
        <time>2024-03-10T11:35:16Z</time>
      </trkpt>
      <trkpt lat="49.28011" lon="-0.13565">
        <ele>3.5</ele>
        <time>2024-03-10T11:35:17Z</time>
      </trkpt>
      <trkpt lat="49.28011" lon="-0.13565">
        <ele>3.5</ele>
        <time>2024-03-10T11:35:18Z</time>
      </trkpt>
      <trkpt lat="49.28011" lon="-0.13565">
        <ele>3.5</ele>
        <time>2024-03-10T11:35:19Z</time>
      </trkpt>
      <trkpt lat="49.28011" lon="-0.13565">
        <ele>3.5</ele>
        <time>2024-03-10T11:35:20Z</time>
      </trkpt>
      <trkpt lat="49.28011" lon="-0.13565">
        <ele>3.5</ele>
        <time>2024-03-10T11:35:21Z</time>
      </trkpt>
      <trkpt lat="49.28011" lon="-0.13565">
        <ele>3.5</ele>
        <time>2024-03-10T11:35:22Z</time>
      </trkpt>
      <trkpt lat="49.28011" lon="-0.13565">
        <ele>3.5</ele>
        <time>2024-03-10T11:35:23Z</time>
      </trkpt>
      <trkpt lat="49.28011" lon="-0.13565">
        <ele>3.5</ele>
        <time>2024-03-10T11:35:24Z</time>
      </trkpt>
      <trkpt lat="49.28011" lon="-0.13565">
        <ele>3.5</ele>
        <time>2024-03-10T11:35:25Z</time>
      </trkpt>
      <trkpt lat="49.28011" lon="-0.13565">
        <ele>3.5</ele>
        <time>2024-03-10T11:35:26Z</time>
      </trkpt>
      <trkpt lat="49.28011" lon="-0.13565">
        <ele>3.5</ele>
        <time>2024-03-10T11:35:27Z</time>
      </trkpt>
      <trkpt lat="49.28011" lon="-0.13565">
        <ele>3.5</ele>
        <time>2024-03-10T11:35:28Z</time>
      </trkpt>
      <trkpt lat="49.28011" lon="-0.13565">
        <ele>3.5</ele>
        <time>2024-03-10T11:35:29Z</time>
      </trkpt>
      <trkpt lat="49.2801" lon="-0.13565">
        <ele>3.5</ele>
        <time>2024-03-10T11:35:30Z</time>
      </trkpt>
      <trkpt lat="49.2801" lon="-0.13565">
        <ele>3.5</ele>
        <time>2024-03-10T11:35:31Z</time>
      </trkpt>
      <trkpt lat="49.2801" lon="-0.13565">
        <ele>3.5</ele>
        <time>2024-03-10T11:35:32Z</time>
      </trkpt>
      <trkpt lat="49.28011" lon="-0.13565">
        <ele>3.5</ele>
        <time>2024-03-10T11:35:33Z</time>
      </trkpt>
      <trkpt lat="49.28011" lon="-0.13565">
        <ele>3.5</ele>
        <time>2024-03-10T11:35:34Z</time>
      </trkpt>
      <trkpt lat="49.2801" lon="-0.13565">
        <ele>3.5</ele>
        <time>2024-03-10T11:35:35Z</time>
      </trkpt>
      <trkpt lat="49.2801" lon="-0.13565">
        <ele>3.5</ele>
        <time>2024-03-10T11:35:36Z</time>
      </trkpt>
      <trkpt lat="49.2801" lon="-0.13565">
        <ele>3.5</ele>
        <time>2024-03-10T11:35:37Z</time>
      </trkpt>
      <trkpt lat="49.2801" lon="-0.13565">
        <ele>3.5</ele>
        <time>2024-03-10T11:35:38Z</time>
      </trkpt>
      <trkpt lat="49.2801" lon="-0.13565">
        <ele>3.5</ele>
        <time>2024-03-10T11:35:39Z</time>
      </trkpt>
      <trkpt lat="49.2801" lon="-0.13565">
        <ele>3.5</ele>
        <time>2024-03-10T11:35:40Z</time>
      </trkpt>
      <trkpt lat="49.2801" lon="-0.13565">
        <ele>3.5</ele>
        <time>2024-03-10T11:35:41Z</time>
      </trkpt>
      <trkpt lat="49.2801" lon="-0.13565">
        <ele>3.5</ele>
        <time>2024-03-10T11:35:42Z</time>
      </trkpt>
      <trkpt lat="49.2801" lon="-0.13565">
        <ele>3.5</ele>
        <time>2024-03-10T11:35:43Z</time>
      </trkpt>
      <trkpt lat="49.2801" lon="-0.13565">
        <ele>3.5</ele>
        <time>2024-03-10T11:35:44Z</time>
      </trkpt>
      <trkpt lat="49.28009" lon="-0.13565">
        <ele>3.5</ele>
        <time>2024-03-10T11:35:45Z</time>
      </trkpt>
      <trkpt lat="49.28009" lon="-0.13564">
        <ele>3.5</ele>
        <time>2024-03-10T11:35:46Z</time>
      </trkpt>
      <trkpt lat="49.28008" lon="-0.13564">
        <ele>3.5</ele>
        <time>2024-03-10T11:35:47Z</time>
      </trkpt>
      <trkpt lat="49.28008" lon="-0.13563">
        <ele>3.5</ele>
        <time>2024-03-10T11:35:48Z</time>
      </trkpt>
      <trkpt lat="49.28008" lon="-0.13563">
        <ele>3.5</ele>
        <time>2024-03-10T11:35:49Z</time>
      </trkpt>
      <trkpt lat="49.28008" lon="-0.13563">
        <ele>3.5</ele>
        <time>2024-03-10T11:35:50Z</time>
      </trkpt>
      <trkpt lat="49.28008" lon="-0.13563">
        <ele>3.5</ele>
        <time>2024-03-10T11:35:51Z</time>
      </trkpt>
      <trkpt lat="49.28008" lon="-0.13563">
        <ele>3.5</ele>
        <time>2024-03-10T11:35:52Z</time>
      </trkpt>
      <trkpt lat="49.28008" lon="-0.13563">
        <ele>3.5</ele>
        <time>2024-03-10T11:35:53Z</time>
      </trkpt>
      <trkpt lat="49.28008" lon="-0.13563">
        <ele>3.5</ele>
        <time>2024-03-10T11:35:54Z</time>
      </trkpt>
      <trkpt lat="49.28008" lon="-0.13563">
        <ele>3.5</ele>
        <time>2024-03-10T11:35:55Z</time>
      </trkpt>
      <trkpt lat="49.28008" lon="-0.13563">
        <ele>3.5</ele>
        <time>2024-03-10T11:35:56Z</time>
      </trkpt>
      <trkpt lat="49.28008" lon="-0.13563">
        <ele>3.5</ele>
        <time>2024-03-10T11:35:57Z</time>
      </trkpt>
      <trkpt lat="49.28008" lon="-0.13563">
        <ele>3.5</ele>
        <time>2024-03-10T11:35:58Z</time>
      </trkpt>
      <trkpt lat="49.28008" lon="-0.13563">
        <ele>3.5</ele>
        <time>2024-03-10T11:35:59Z</time>
      </trkpt>
      <trkpt lat="49.28008" lon="-0.13563">
        <ele>3.5</ele>
        <time>2024-03-10T11:36:00Z</time>
      </trkpt>
      <trkpt lat="49.28008" lon="-0.13563">
        <ele>3.5</ele>
        <time>2024-03-10T11:36:01Z</time>
      </trkpt>
      <trkpt lat="49.28008" lon="-0.13563">
        <ele>3.5</ele>
        <time>2024-03-10T11:36:02Z</time>
      </trkpt>
      <trkpt lat="49.28008" lon="-0.13563">
        <ele>3.5</ele>
        <time>2024-03-10T11:36:03Z</time>
      </trkpt>
      <trkpt lat="49.28008" lon="-0.13563">
        <ele>3.5</ele>
        <time>2024-03-10T11:36:04Z</time>
      </trkpt>
      <trkpt lat="49.28008" lon="-0.13563">
        <ele>3.5</ele>
        <time>2024-03-10T11:36:05Z</time>
      </trkpt>
      <trkpt lat="49.28008" lon="-0.13563">
        <ele>3.5</ele>
        <time>2024-03-10T11:36:06Z</time>
      </trkpt>
      <trkpt lat="49.28008" lon="-0.13563">
        <ele>3.5</ele>
        <time>2024-03-10T11:36:07Z</time>
      </trkpt>
      <trkpt lat="49.28008" lon="-0.13563">
        <ele>3.5</ele>
        <time>2024-03-10T11:36:08Z</time>
      </trkpt>
      <trkpt lat="49.28008" lon="-0.13563">
        <ele>3.5</ele>
        <time>2024-03-10T11:36:09Z</time>
      </trkpt>
      <trkpt lat="49.28008" lon="-0.13563">
        <ele>3.5</ele>
        <time>2024-03-10T11:36:10Z</time>
      </trkpt>
      <trkpt lat="49.28008" lon="-0.13563">
        <ele>3.5</ele>
        <time>2024-03-10T11:36:11Z</time>
      </trkpt>
      <trkpt lat="49.28008" lon="-0.13563">
        <ele>3.5</ele>
        <time>2024-03-10T11:36:12Z</time>
      </trkpt>
      <trkpt lat="49.28008" lon="-0.13563">
        <ele>3.5</ele>
        <time>2024-03-10T11:36:13Z</time>
      </trkpt>
      <trkpt lat="49.28008" lon="-0.13563">
        <ele>3.5</ele>
        <time>2024-03-10T11:36:14Z</time>
      </trkpt>
      <trkpt lat="49.28008" lon="-0.13563">
        <ele>3.5</ele>
        <time>2024-03-10T11:36:15Z</time>
      </trkpt>
      <trkpt lat="49.28008" lon="-0.13563">
        <ele>3.5</ele>
        <time>2024-03-10T11:36:16Z</time>
      </trkpt>
      <trkpt lat="49.28008" lon="-0.13563">
        <ele>3.5</ele>
        <time>2024-03-10T11:36:17Z</time>
      </trkpt>
      <trkpt lat="49.28008" lon="-0.13563">
        <ele>3.5</ele>
        <time>2024-03-10T11:36:18Z</time>
      </trkpt>
      <trkpt lat="49.28008" lon="-0.13563">
        <ele>3.5</ele>
        <time>2024-03-10T11:36:19Z</time>
      </trkpt>
      <trkpt lat="49.28008" lon="-0.13563">
        <ele>3.5</ele>
        <time>2024-03-10T11:36:20Z</time>
      </trkpt>
      <trkpt lat="49.28008" lon="-0.13563">
        <ele>3.5</ele>
        <time>2024-03-10T11:36:21Z</time>
      </trkpt>
      <trkpt lat="49.28008" lon="-0.13563">
        <ele>3.5</ele>
        <time>2024-03-10T11:36:22Z</time>
      </trkpt>
      <trkpt lat="49.28008" lon="-0.13563">
        <ele>3.5</ele>
        <time>2024-03-10T11:36:23Z</time>
      </trkpt>
      <trkpt lat="49.28008" lon="-0.13563">
        <ele>3.5</ele>
        <time>2024-03-10T11:36:24Z</time>
      </trkpt>
      <trkpt lat="49.28008" lon="-0.13563">
        <ele>3.5</ele>
        <time>2024-03-10T11:36:25Z</time>
      </trkpt>
      <trkpt lat="49.28008" lon="-0.13563">
        <ele>3.5</ele>
        <time>2024-03-10T11:36:26Z</time>
      </trkpt>
      <trkpt lat="49.28008" lon="-0.13563">
        <ele>3.5</ele>
        <time>2024-03-10T11:36:27Z</time>
      </trkpt>
      <trkpt lat="49.28008" lon="-0.13563">
        <ele>3.5</ele>
        <time>2024-03-10T11:36:28Z</time>
      </trkpt>
      <trkpt lat="49.28008" lon="-0.13563">
        <ele>3.5</ele>
        <time>2024-03-10T11:36:29Z</time>
      </trkpt>
      <trkpt lat="49.28008" lon="-0.13563">
        <ele>3.5</ele>
        <time>2024-03-10T11:36:30Z</time>
      </trkpt>
      <trkpt lat="49.28008" lon="-0.13563">
        <ele>3.5</ele>
        <time>2024-03-10T11:36:31Z</time>
      </trkpt>
      <trkpt lat="49.28008" lon="-0.13563">
        <ele>3.5</ele>
        <time>2024-03-10T11:36:32Z</time>
      </trkpt>
      <trkpt lat="49.28008" lon="-0.13563">
        <ele>3.5</ele>
        <time>2024-03-10T11:36:33Z</time>
      </trkpt>
      <trkpt lat="49.28008" lon="-0.13563">
        <ele>3.5</ele>
        <time>2024-03-10T11:36:34Z</time>
      </trkpt>
      <trkpt lat="49.28008" lon="-0.13563">
        <ele>3.5</ele>
        <time>2024-03-10T11:36:35Z</time>
      </trkpt>
      <trkpt lat="49.28008" lon="-0.13563">
        <ele>3.5</ele>
        <time>2024-03-10T11:36:36Z</time>
      </trkpt>
      <trkpt lat="49.28008" lon="-0.13563">
        <ele>3.5</ele>
        <time>2024-03-10T11:36:37Z</time>
      </trkpt>
      <trkpt lat="49.28008" lon="-0.13563">
        <ele>3.5</ele>
        <time>2024-03-10T11:36:38Z</time>
      </trkpt>
      <trkpt lat="49.28008" lon="-0.13563">
        <ele>3.5</ele>
        <time>2024-03-10T11:36:39Z</time>
      </trkpt>
      <trkpt lat="49.28008" lon="-0.13563">
        <ele>3.5</ele>
        <time>2024-03-10T11:36:40Z</time>
      </trkpt>
      <trkpt lat="49.28008" lon="-0.13563">
        <ele>3.5</ele>
        <time>2024-03-10T11:36:41Z</time>
      </trkpt>
      <trkpt lat="49.28008" lon="-0.13563">
        <ele>3.5</ele>
        <time>2024-03-10T11:36:42Z</time>
      </trkpt>
      <trkpt lat="49.28008" lon="-0.13563">
        <ele>3.5</ele>
        <time>2024-03-10T11:36:43Z</time>
      </trkpt>
      <trkpt lat="49.28008" lon="-0.13563">
        <ele>3.5</ele>
        <time>2024-03-10T11:36:44Z</time>
      </trkpt>
      <trkpt lat="49.28008" lon="-0.13563">
        <ele>3.5</ele>
        <time>2024-03-10T11:36:45Z</time>
      </trkpt>
      <trkpt lat="49.28008" lon="-0.13563">
        <ele>3.5</ele>
        <time>2024-03-10T11:36:46Z</time>
      </trkpt>
      <trkpt lat="49.28008" lon="-0.13563">
        <ele>3.5</ele>
        <time>2024-03-10T11:36:47Z</time>
      </trkpt>
      <trkpt lat="49.28008" lon="-0.13563">
        <ele>3.5</ele>
        <time>2024-03-10T11:36:48Z</time>
      </trkpt>
      <trkpt lat="49.28008" lon="-0.13563">
        <ele>3.5</ele>
        <time>2024-03-10T11:36:49Z</time>
      </trkpt>
      <trkpt lat="49.28008" lon="-0.13563">
        <ele>3.5</ele>
        <time>2024-03-10T11:36:50Z</time>
      </trkpt>
      <trkpt lat="49.28008" lon="-0.13563">
        <ele>3.5</ele>
        <time>2024-03-10T11:36:51Z</time>
      </trkpt>
      <trkpt lat="49.28008" lon="-0.13563">
        <ele>3.5</ele>
        <time>2024-03-10T11:36:52Z</time>
      </trkpt>
      <trkpt lat="49.28008" lon="-0.13563">
        <ele>3.5</ele>
        <time>2024-03-10T11:36:53Z</time>
      </trkpt>
      <trkpt lat="49.28008" lon="-0.13563">
        <ele>3.5</ele>
        <time>2024-03-10T11:36:54Z</time>
      </trkpt>
      <trkpt lat="49.28008" lon="-0.13563">
        <ele>3.5</ele>
        <time>2024-03-10T11:36:55Z</time>
      </trkpt>
      <trkpt lat="49.28008" lon="-0.13563">
        <ele>3.5</ele>
        <time>2024-03-10T11:36:56Z</time>
      </trkpt>
      <trkpt lat="49.28008" lon="-0.13564">
        <ele>3.5</ele>
        <time>2024-03-10T11:36:57Z</time>
      </trkpt>
      <trkpt lat="49.28008" lon="-0.13565">
        <ele>3.5</ele>
        <time>2024-03-10T11:36:58Z</time>
      </trkpt>
      <trkpt lat="49.28008" lon="-0.13565">
        <ele>3.5</ele>
        <time>2024-03-10T11:36:59Z</time>
      </trkpt>
      <trkpt lat="49.28008" lon="-0.13564">
        <ele>3.5</ele>
        <time>2024-03-10T11:37:00Z</time>
      </trkpt>
      <trkpt lat="49.28008" lon="-0.13564">
        <ele>3.5</ele>
        <time>2024-03-10T11:37:01Z</time>
      </trkpt>
      <trkpt lat="49.28008" lon="-0.13564">
        <ele>3.5</ele>
        <time>2024-03-10T11:37:02Z</time>
      </trkpt>
      <trkpt lat="49.28008" lon="-0.13564">
        <ele>3.5</ele>
        <time>2024-03-10T11:37:03Z</time>
      </trkpt>
      <trkpt lat="49.28008" lon="-0.13564">
        <ele>3.5</ele>
        <time>2024-03-10T11:37:04Z</time>
      </trkpt>
      <trkpt lat="49.28008" lon="-0.13564">
        <ele>3.5</ele>
        <time>2024-03-10T11:37:05Z</time>
      </trkpt>
      <trkpt lat="49.28008" lon="-0.13564">
        <ele>3.5</ele>
        <time>2024-03-10T11:37:06Z</time>
      </trkpt>
      <trkpt lat="49.28009" lon="-0.13564">
        <ele>3.5</ele>
        <time>2024-03-10T11:37:07Z</time>
      </trkpt>
      <trkpt lat="49.28009" lon="-0.13564">
        <ele>3.5</ele>
        <time>2024-03-10T11:37:08Z</time>
      </trkpt>
      <trkpt lat="49.28009" lon="-0.13564">
        <ele>3.5</ele>
        <time>2024-03-10T11:37:09Z</time>
      </trkpt>
      <trkpt lat="49.28008" lon="-0.13563">
        <ele>3.5</ele>
        <time>2024-03-10T11:37:10Z</time>
      </trkpt>
      <trkpt lat="49.28008" lon="-0.13563">
        <ele>3.5</ele>
        <time>2024-03-10T11:37:11Z</time>
      </trkpt>
      <trkpt lat="49.28008" lon="-0.13562">
        <ele>3.5</ele>
        <time>2024-03-10T11:37:12Z</time>
      </trkpt>
      <trkpt lat="49.28009" lon="-0.13562">
        <ele>3.5</ele>
        <time>2024-03-10T11:37:13Z</time>
      </trkpt>
      <trkpt lat="49.28009" lon="-0.13562">
        <ele>3.5</ele>
        <time>2024-03-10T11:37:14Z</time>
      </trkpt>
      <trkpt lat="49.28009" lon="-0.13562">
        <ele>3.5</ele>
        <time>2024-03-10T11:37:15Z</time>
      </trkpt>
      <trkpt lat="49.28009" lon="-0.13562">
        <ele>3.5</ele>
        <time>2024-03-10T11:37:16Z</time>
      </trkpt>
      <trkpt lat="49.28009" lon="-0.13562">
        <ele>3.5</ele>
        <time>2024-03-10T11:37:17Z</time>
      </trkpt>
      <trkpt lat="49.28009" lon="-0.13562">
        <ele>3.5</ele>
        <time>2024-03-10T11:37:18Z</time>
      </trkpt>
      <trkpt lat="49.28009" lon="-0.13562">
        <ele>3.5</ele>
        <time>2024-03-10T11:37:19Z</time>
      </trkpt>
      <trkpt lat="49.28009" lon="-0.13562">
        <ele>3.5</ele>
        <time>2024-03-10T11:37:20Z</time>
      </trkpt>
      <trkpt lat="49.28009" lon="-0.13562">
        <ele>3.5</ele>
        <time>2024-03-10T11:37:21Z</time>
      </trkpt>
      <trkpt lat="49.28009" lon="-0.13562">
        <ele>3.5</ele>
        <time>2024-03-10T11:37:22Z</time>
      </trkpt>
      <trkpt lat="49.28009" lon="-0.13562">
        <ele>3.5</ele>
        <time>2024-03-10T11:37:23Z</time>
      </trkpt>
      <trkpt lat="49.28009" lon="-0.13562">
        <ele>3.5</ele>
        <time>2024-03-10T11:37:24Z</time>
      </trkpt>
      <trkpt lat="49.28009" lon="-0.13562">
        <ele>3.5</ele>
        <time>2024-03-10T11:37:25Z</time>
      </trkpt>
      <trkpt lat="49.28009" lon="-0.13563">
        <ele>3.5</ele>
        <time>2024-03-10T11:37:26Z</time>
      </trkpt>
      <trkpt lat="49.28009" lon="-0.13563">
        <ele>3.5</ele>
        <time>2024-03-10T11:37:27Z</time>
      </trkpt>
      <trkpt lat="49.28009" lon="-0.13563">
        <ele>3.5</ele>
        <time>2024-03-10T11:37:28Z</time>
      </trkpt>
      <trkpt lat="49.28009" lon="-0.13563">
        <ele>3.5</ele>
        <time>2024-03-10T11:37:29Z</time>
      </trkpt>
      <trkpt lat="49.28009" lon="-0.13563">
        <ele>3.5</ele>
        <time>2024-03-10T11:37:30Z</time>
      </trkpt>
      <trkpt lat="49.28009" lon="-0.13563">
        <ele>3.5</ele>
        <time>2024-03-10T11:37:31Z</time>
      </trkpt>
      <trkpt lat="49.28009" lon="-0.13564">
        <ele>3.5</ele>
        <time>2024-03-10T11:37:32Z</time>
      </trkpt>
      <trkpt lat="49.28009" lon="-0.13564">
        <ele>3.5</ele>
        <time>2024-03-10T11:37:33Z</time>
      </trkpt>
      <trkpt lat="49.28009" lon="-0.13564">
        <ele>3.5</ele>
        <time>2024-03-10T11:37:34Z</time>
      </trkpt>
      <trkpt lat="49.28009" lon="-0.13564">
        <ele>3.5</ele>
        <time>2024-03-10T11:37:35Z</time>
      </trkpt>
      <trkpt lat="49.28009" lon="-0.13564">
        <ele>3.5</ele>
        <time>2024-03-10T11:37:36Z</time>
      </trkpt>
      <trkpt lat="49.28009" lon="-0.13564">
        <ele>3.5</ele>
        <time>2024-03-10T11:37:37Z</time>
      </trkpt>
      <trkpt lat="49.28009" lon="-0.13564">
        <ele>3.5</ele>
        <time>2024-03-10T11:37:38Z</time>
      </trkpt>
      <trkpt lat="49.28009" lon="-0.13564">
        <ele>3.5</ele>
        <time>2024-03-10T11:37:39Z</time>
      </trkpt>
      <trkpt lat="49.28009" lon="-0.13564">
        <ele>3.5</ele>
        <time>2024-03-10T11:37:40Z</time>
      </trkpt>
      <trkpt lat="49.28009" lon="-0.13564">
        <ele>3.5</ele>
        <time>2024-03-10T11:37:41Z</time>
      </trkpt>
      <trkpt lat="49.28009" lon="-0.13564">
        <ele>3.5</ele>
        <time>2024-03-10T11:37:42Z</time>
      </trkpt>
      <trkpt lat="49.28009" lon="-0.13564">
        <ele>3.5</ele>
        <time>2024-03-10T11:37:43Z</time>
      </trkpt>
      <trkpt lat="49.28009" lon="-0.13564">
        <ele>3.5</ele>
        <time>2024-03-10T11:37:44Z</time>
      </trkpt>
      <trkpt lat="49.28009" lon="-0.13564">
        <ele>3.5</ele>
        <time>2024-03-10T11:37:45Z</time>
      </trkpt>
      <trkpt lat="49.28009" lon="-0.13564">
        <ele>3.5</ele>
        <time>2024-03-10T11:37:46Z</time>
      </trkpt>
      <trkpt lat="49.28009" lon="-0.13564">
        <ele>3.5</ele>
        <time>2024-03-10T11:37:47Z</time>
      </trkpt>
      <trkpt lat="49.28009" lon="-0.13564">
        <ele>3.5</ele>
        <time>2024-03-10T11:37:48Z</time>
      </trkpt>
      <trkpt lat="49.28009" lon="-0.13564">
        <ele>3.5</ele>
        <time>2024-03-10T11:37:49Z</time>
      </trkpt>
      <trkpt lat="49.28009" lon="-0.13564">
        <ele>3.5</ele>
        <time>2024-03-10T11:37:50Z</time>
      </trkpt>
      <trkpt lat="49.28008" lon="-0.13564">
        <ele>3.5</ele>
        <time>2024-03-10T11:37:51Z</time>
      </trkpt>
      <trkpt lat="49.28008" lon="-0.13564">
        <ele>3.5</ele>
        <time>2024-03-10T11:37:52Z</time>
      </trkpt>
      <trkpt lat="49.28008" lon="-0.13565">
        <ele>3.5</ele>
        <time>2024-03-10T11:37:53Z</time>
      </trkpt>
      <trkpt lat="49.28008" lon="-0.13565">
        <ele>3.5</ele>
        <time>2024-03-10T11:37:54Z</time>
      </trkpt>
      <trkpt lat="49.28008" lon="-0.13565">
        <ele>3.5</ele>
        <time>2024-03-10T11:37:55Z</time>
      </trkpt>
      <trkpt lat="49.28008" lon="-0.13565">
        <ele>3.5</ele>
        <time>2024-03-10T11:37:56Z</time>
      </trkpt>
      <trkpt lat="49.28008" lon="-0.13565">
        <ele>3.5</ele>
        <time>2024-03-10T11:37:57Z</time>
      </trkpt>
      <trkpt lat="49.28008" lon="-0.13565">
        <ele>3.5</ele>
        <time>2024-03-10T11:37:58Z</time>
      </trkpt>
      <trkpt lat="49.28008" lon="-0.13565">
        <ele>3.5</ele>
        <time>2024-03-10T11:37:59Z</time>
      </trkpt>
      <trkpt lat="49.28008" lon="-0.13565">
        <ele>3.5</ele>
        <time>2024-03-10T11:38:00Z</time>
      </trkpt>
      <trkpt lat="49.28008" lon="-0.13565">
        <ele>3.5</ele>
        <time>2024-03-10T11:38:01Z</time>
      </trkpt>
      <trkpt lat="49.28008" lon="-0.13565">
        <ele>3.5</ele>
        <time>2024-03-10T11:38:02Z</time>
      </trkpt>
      <trkpt lat="49.28008" lon="-0.13565">
        <ele>3.5</ele>
        <time>2024-03-10T11:38:03Z</time>
      </trkpt>
      <trkpt lat="49.28008" lon="-0.13565">
        <ele>3.5</ele>
        <time>2024-03-10T11:38:04Z</time>
      </trkpt>
      <trkpt lat="49.28008" lon="-0.13565">
        <ele>3.5</ele>
        <time>2024-03-10T11:38:05Z</time>
      </trkpt>
      <trkpt lat="49.28008" lon="-0.13565">
        <ele>3.5</ele>
        <time>2024-03-10T11:38:06Z</time>
      </trkpt>
      <trkpt lat="49.28008" lon="-0.13566">
        <ele>3.5</ele>
        <time>2024-03-10T11:38:07Z</time>
      </trkpt>
      <trkpt lat="49.28009" lon="-0.13566">
        <ele>3.5</ele>
        <time>2024-03-10T11:38:08Z</time>
      </trkpt>
      <trkpt lat="49.28009" lon="-0.13566">
        <ele>3.5</ele>
        <time>2024-03-10T11:38:09Z</time>
      </trkpt>
      <trkpt lat="49.28009" lon="-0.13567">
        <ele>3.5</ele>
        <time>2024-03-10T11:38:10Z</time>
      </trkpt>
      <trkpt lat="49.28009" lon="-0.13567">
        <ele>3.5</ele>
        <time>2024-03-10T11:38:11Z</time>
      </trkpt>
      <trkpt lat="49.28009" lon="-0.13567">
        <ele>3.5</ele>
        <time>2024-03-10T11:38:12Z</time>
      </trkpt>
      <trkpt lat="49.28009" lon="-0.13567">
        <ele>3.5</ele>
        <time>2024-03-10T11:38:13Z</time>
      </trkpt>
      <trkpt lat="49.28009" lon="-0.13567">
        <ele>3.5</ele>
        <time>2024-03-10T11:38:14Z</time>
      </trkpt>
      <trkpt lat="49.28009" lon="-0.13566">
        <ele>3.5</ele>
        <time>2024-03-10T11:38:15Z</time>
      </trkpt>
      <trkpt lat="49.28009" lon="-0.13566">
        <ele>3.5</ele>
        <time>2024-03-10T11:38:16Z</time>
      </trkpt>
      <trkpt lat="49.28009" lon="-0.13566">
        <ele>3.5</ele>
        <time>2024-03-10T11:38:17Z</time>
      </trkpt>
      <trkpt lat="49.28008" lon="-0.13565">
        <ele>3.5</ele>
        <time>2024-03-10T11:38:18Z</time>
      </trkpt>
      <trkpt lat="49.28008" lon="-0.13564">
        <ele>3.5</ele>
        <time>2024-03-10T11:38:19Z</time>
      </trkpt>
      <trkpt lat="49.28008" lon="-0.13564">
        <ele>3.5</ele>
        <time>2024-03-10T11:38:20Z</time>
      </trkpt>
      <trkpt lat="49.28008" lon="-0.13563">
        <ele>3.5</ele>
        <time>2024-03-10T11:38:21Z</time>
      </trkpt>
      <trkpt lat="49.28008" lon="-0.13563">
        <ele>3.5</ele>
        <time>2024-03-10T11:38:22Z</time>
      </trkpt>
      <trkpt lat="49.28009" lon="-0.13563">
        <ele>3.5</ele>
        <time>2024-03-10T11:38:23Z</time>
      </trkpt>
      <trkpt lat="49.28009" lon="-0.13563">
        <ele>3.5</ele>
        <time>2024-03-10T11:38:24Z</time>
      </trkpt>
      <trkpt lat="49.28009" lon="-0.13563">
        <ele>3.5</ele>
        <time>2024-03-10T11:38:25Z</time>
      </trkpt>
      <trkpt lat="49.28009" lon="-0.13563">
        <ele>3.5</ele>
        <time>2024-03-10T11:38:26Z</time>
      </trkpt>
      <trkpt lat="49.28009" lon="-0.13563">
        <ele>3.5</ele>
        <time>2024-03-10T11:38:27Z</time>
      </trkpt>
      <trkpt lat="49.28009" lon="-0.13563">
        <ele>3.5</ele>
        <time>2024-03-10T11:38:28Z</time>
      </trkpt>
      <trkpt lat="49.28009" lon="-0.13563">
        <ele>3.5</ele>
        <time>2024-03-10T11:38:29Z</time>
      </trkpt>
      <trkpt lat="49.28009" lon="-0.13563">
        <ele>3.5</ele>
        <time>2024-03-10T11:38:30Z</time>
      </trkpt>
      <trkpt lat="49.28009" lon="-0.13563">
        <ele>3.5</ele>
        <time>2024-03-10T11:38:31Z</time>
      </trkpt>
      <trkpt lat="49.28009" lon="-0.13563">
        <ele>3.5</ele>
        <time>2024-03-10T11:38:32Z</time>
      </trkpt>
      <trkpt lat="49.28009" lon="-0.13563">
        <ele>3.5</ele>
        <time>2024-03-10T11:38:33Z</time>
      </trkpt>
      <trkpt lat="49.28009" lon="-0.13563">
        <ele>3.5</ele>
        <time>2024-03-10T11:38:34Z</time>
      </trkpt>
      <trkpt lat="49.28009" lon="-0.13563">
        <ele>3.5</ele>
        <time>2024-03-10T11:38:35Z</time>
      </trkpt>
      <trkpt lat="49.28009" lon="-0.13563">
        <ele>3.5</ele>
        <time>2024-03-10T11:38:36Z</time>
      </trkpt>
      <trkpt lat="49.28009" lon="-0.13563">
        <ele>3.5</ele>
        <time>2024-03-10T11:38:37Z</time>
      </trkpt>
      <trkpt lat="49.28009" lon="-0.13563">
        <ele>3.5</ele>
        <time>2024-03-10T11:38:38Z</time>
      </trkpt>
      <trkpt lat="49.28009" lon="-0.13563">
        <ele>3.5</ele>
        <time>2024-03-10T11:38:39Z</time>
      </trkpt>
      <trkpt lat="49.28009" lon="-0.13563">
        <ele>3.5</ele>
        <time>2024-03-10T11:38:40Z</time>
      </trkpt>
      <trkpt lat="49.2801" lon="-0.13563">
        <ele>3.5</ele>
        <time>2024-03-10T11:38:41Z</time>
      </trkpt>
      <trkpt lat="49.2801" lon="-0.13563">
        <ele>3.5</ele>
        <time>2024-03-10T11:38:42Z</time>
      </trkpt>
      <trkpt lat="49.2801" lon="-0.13563">
        <ele>3.5</ele>
        <time>2024-03-10T11:38:43Z</time>
      </trkpt>
      <trkpt lat="49.2801" lon="-0.13563">
        <ele>3.5</ele>
        <time>2024-03-10T11:38:44Z</time>
      </trkpt>
      <trkpt lat="49.2801" lon="-0.13563">
        <ele>3.5</ele>
        <time>2024-03-10T11:38:45Z</time>
      </trkpt>
      <trkpt lat="49.2801" lon="-0.13563">
        <ele>3.5</ele>
        <time>2024-03-10T11:38:46Z</time>
      </trkpt>
      <trkpt lat="49.28011" lon="-0.13564">
        <ele>3.5</ele>
        <time>2024-03-10T11:38:47Z</time>
      </trkpt>
      <trkpt lat="49.28011" lon="-0.13565">
        <ele>3.5</ele>
        <time>2024-03-10T11:38:48Z</time>
      </trkpt>
      <trkpt lat="49.28012" lon="-0.13566">
        <ele>3.5</ele>
        <time>2024-03-10T11:38:49Z</time>
      </trkpt>
      <trkpt lat="49.28012" lon="-0.13566">
        <ele>3.5</ele>
        <time>2024-03-10T11:38:50Z</time>
      </trkpt>
      <trkpt lat="49.28011" lon="-0.13566">
        <ele>3.5</ele>
        <time>2024-03-10T11:38:51Z</time>
      </trkpt>
      <trkpt lat="49.28011" lon="-0.13566">
        <ele>3.5</ele>
        <time>2024-03-10T11:38:52Z</time>
      </trkpt>
      <trkpt lat="49.28011" lon="-0.13567">
        <ele>3.5</ele>
        <time>2024-03-10T11:38:53Z</time>
      </trkpt>
      <trkpt lat="49.28011" lon="-0.13567">
        <ele>3.5</ele>
        <time>2024-03-10T11:38:54Z</time>
      </trkpt>
      <trkpt lat="49.2801" lon="-0.13567">
        <ele>3.5</ele>
        <time>2024-03-10T11:38:55Z</time>
      </trkpt>
      <trkpt lat="49.2801" lon="-0.13567">
        <ele>3.5</ele>
        <time>2024-03-10T11:38:56Z</time>
      </trkpt>
      <trkpt lat="49.2801" lon="-0.13567">
        <ele>3.5</ele>
        <time>2024-03-10T11:38:57Z</time>
      </trkpt>
      <trkpt lat="49.2801" lon="-0.13567">
        <ele>3.5</ele>
        <time>2024-03-10T11:38:58Z</time>
      </trkpt>
      <trkpt lat="49.2801" lon="-0.13567">
        <ele>3.5</ele>
        <time>2024-03-10T11:38:59Z</time>
      </trkpt>
      <trkpt lat="49.2801" lon="-0.13567">
        <ele>3.5</ele>
        <time>2024-03-10T11:39:00Z</time>
      </trkpt>
      <trkpt lat="49.2801" lon="-0.13567">
        <ele>3.5</ele>
        <time>2024-03-10T11:39:01Z</time>
      </trkpt>
      <trkpt lat="49.2801" lon="-0.13567">
        <ele>3.5</ele>
        <time>2024-03-10T11:39:02Z</time>
      </trkpt>
      <trkpt lat="49.2801" lon="-0.13567">
        <ele>3.5</ele>
        <time>2024-03-10T11:39:03Z</time>
      </trkpt>
      <trkpt lat="49.2801" lon="-0.13567">
        <ele>3.5</ele>
        <time>2024-03-10T11:39:04Z</time>
      </trkpt>
      <trkpt lat="49.2801" lon="-0.13567">
        <ele>3.5</ele>
        <time>2024-03-10T11:39:05Z</time>
      </trkpt>
      <trkpt lat="49.2801" lon="-0.13567">
        <ele>3.5</ele>
        <time>2024-03-10T11:39:06Z</time>
      </trkpt>
      <trkpt lat="49.2801" lon="-0.13567">
        <ele>3.5</ele>
        <time>2024-03-10T11:39:07Z</time>
      </trkpt>
      <trkpt lat="49.2801" lon="-0.13567">
        <ele>3.5</ele>
        <time>2024-03-10T11:39:08Z</time>
      </trkpt>
      <trkpt lat="49.2801" lon="-0.13567">
        <ele>3.5</ele>
        <time>2024-03-10T11:39:09Z</time>
      </trkpt>
      <trkpt lat="49.2801" lon="-0.13567">
        <ele>3.5</ele>
        <time>2024-03-10T11:39:10Z</time>
      </trkpt>
      <trkpt lat="49.2801" lon="-0.13567">
        <ele>3.5</ele>
        <time>2024-03-10T11:39:11Z</time>
      </trkpt>
      <trkpt lat="49.2801" lon="-0.13567">
        <ele>3.5</ele>
        <time>2024-03-10T11:39:12Z</time>
      </trkpt>
      <trkpt lat="49.2801" lon="-0.13567">
        <ele>3.5</ele>
        <time>2024-03-10T11:39:13Z</time>
      </trkpt>
      <trkpt lat="49.2801" lon="-0.13567">
        <ele>3.5</ele>
        <time>2024-03-10T11:39:14Z</time>
      </trkpt>
      <trkpt lat="49.2801" lon="-0.13567">
        <ele>3.5</ele>
        <time>2024-03-10T11:39:15Z</time>
      </trkpt>
      <trkpt lat="49.2801" lon="-0.13567">
        <ele>3.5</ele>
        <time>2024-03-10T11:39:16Z</time>
      </trkpt>
      <trkpt lat="49.2801" lon="-0.13567">
        <ele>3.5</ele>
        <time>2024-03-10T11:39:17Z</time>
      </trkpt>
      <trkpt lat="49.2801" lon="-0.13567">
        <ele>3.5</ele>
        <time>2024-03-10T11:39:18Z</time>
      </trkpt>
      <trkpt lat="49.2801" lon="-0.13567">
        <ele>3.5</ele>
        <time>2024-03-10T11:39:19Z</time>
      </trkpt>
      <trkpt lat="49.2801" lon="-0.13567">
        <ele>3.5</ele>
        <time>2024-03-10T11:39:20Z</time>
      </trkpt>
      <trkpt lat="49.2801" lon="-0.13567">
        <ele>3.5</ele>
        <time>2024-03-10T11:39:21Z</time>
      </trkpt>
      <trkpt lat="49.2801" lon="-0.13567">
        <ele>3.5</ele>
        <time>2024-03-10T11:39:22Z</time>
      </trkpt>
      <trkpt lat="49.2801" lon="-0.13567">
        <ele>3.5</ele>
        <time>2024-03-10T11:39:23Z</time>
      </trkpt>
      <trkpt lat="49.2801" lon="-0.13567">
        <ele>3.5</ele>
        <time>2024-03-10T11:39:24Z</time>
      </trkpt>
      <trkpt lat="49.2801" lon="-0.13567">
        <ele>3.5</ele>
        <time>2024-03-10T11:39:25Z</time>
      </trkpt>
      <trkpt lat="49.2801" lon="-0.13567">
        <ele>3.5</ele>
        <time>2024-03-10T11:39:26Z</time>
      </trkpt>
      <trkpt lat="49.2801" lon="-0.13567">
        <ele>3.5</ele>
        <time>2024-03-10T11:39:27Z</time>
      </trkpt>
      <trkpt lat="49.2801" lon="-0.13567">
        <ele>3.5</ele>
        <time>2024-03-10T11:39:29Z</time>
      </trkpt>
      <trkpt lat="49.2801" lon="-0.13567">
        <ele>3.5</ele>
        <time>2024-03-10T11:39:30Z</time>
      </trkpt>
    </trkseg>
  </trk>
</gpx>